<?xml version="1.0" encoding="ISO-8859-1"?>
<gpx version="1.1" 
creator="Memory-Map 5.4.2.1089 http://www.memory-map.com"
 xmlns:xsi="http://www.w3.org/2001/XMLSchema-instance"
 xmlns="http://www.topografix.com/GPX/1/1"
 xsi:schemaLocation="http://www.topografix.com/GPX/1/1 http://www.topografix.com/GPX/1/1/gpx.xsd">
<trk>
<name><![CDATA[Dodd Fell Hill & Drumaldrace]]></name>
<type>Track</type>
<trkseg>
<trkpt lat="54.3043270000" lon="-2.1928870000"><ele>231</ele><time>2013-11-17T09:44:17Z</time></trkpt>
<trkpt lat="54.3043780000" lon="-2.1928590000"><ele>231</ele><time>2013-11-17T09:44:57Z</time></trkpt>
<trkpt lat="54.3043430000" lon="-2.1928680000"><ele>231</ele><time>2013-11-17T09:45:36Z</time></trkpt>
<trkpt lat="54.3043860000" lon="-2.1928650000"><ele>231</ele><time>2013-11-17T09:46:41Z</time></trkpt>
<trkpt lat="54.3043300000" lon="-2.1928920000"><ele>231</ele><time>2013-11-17T09:47:53Z</time></trkpt>
<trkpt lat="54.3043350000" lon="-2.1929740000"><ele>231</ele><time>2013-11-17T09:51:03Z</time></trkpt>
<trkpt lat="54.3043650000" lon="-2.1930110000"><ele>231</ele><time>2013-11-17T09:51:06Z</time></trkpt>
<trkpt lat="54.3044010000" lon="-2.1930480000"><ele>231</ele><time>2013-11-17T09:51:10Z</time></trkpt>
<trkpt lat="54.3044050000" lon="-2.1930960000"><ele>231</ele><time>2013-11-17T09:51:13Z</time></trkpt>
<trkpt lat="54.3043830000" lon="-2.1931900000"><ele>231</ele><time>2013-11-17T09:51:20Z</time></trkpt>
<trkpt lat="54.3043600000" lon="-2.1932270000"><ele>231</ele><time>2013-11-17T09:51:23Z</time></trkpt>
<trkpt lat="54.3043360000" lon="-2.1932520000"><ele>231</ele><time>2013-11-17T09:51:25Z</time></trkpt>
<trkpt lat="54.3043110000" lon="-2.1932770000"><ele>231</ele><time>2013-11-17T09:51:27Z</time></trkpt>
<trkpt lat="54.3042820000" lon="-2.1933000000"><ele>231</ele><time>2013-11-17T09:51:29Z</time></trkpt>
<trkpt lat="54.3042550000" lon="-2.1933220000"><ele>231</ele><time>2013-11-17T09:51:31Z</time></trkpt>
<trkpt lat="54.3042280000" lon="-2.1933440000"><ele>231</ele><time>2013-11-17T09:51:33Z</time></trkpt>
<trkpt lat="54.3042020000" lon="-2.1933620000"><ele>231</ele><time>2013-11-17T09:51:35Z</time></trkpt>
<trkpt lat="54.3041730000" lon="-2.1933750000"><ele>231</ele><time>2013-11-17T09:51:37Z</time></trkpt>
<trkpt lat="54.3041490000" lon="-2.1933820000"><ele>231</ele><time>2013-11-17T09:51:39Z</time></trkpt>
<trkpt lat="54.3041210000" lon="-2.1933910000"><ele>231</ele><time>2013-11-17T09:51:41Z</time></trkpt>
<trkpt lat="54.3040930000" lon="-2.1933950000"><ele>231</ele><time>2013-11-17T09:51:43Z</time></trkpt>
<trkpt lat="54.3040640000" lon="-2.1934020000"><ele>231</ele><time>2013-11-17T09:51:45Z</time></trkpt>
<trkpt lat="54.3040330000" lon="-2.1934060000"><ele>231</ele><time>2013-11-17T09:51:47Z</time></trkpt>
<trkpt lat="54.3040030000" lon="-2.1934130000"><ele>231</ele><time>2013-11-17T09:51:49Z</time></trkpt>
<trkpt lat="54.3039770000" lon="-2.1934270000"><ele>231</ele><time>2013-11-17T09:51:51Z</time></trkpt>
<trkpt lat="54.3039490000" lon="-2.1934380000"><ele>231</ele><time>2013-11-17T09:51:53Z</time></trkpt>
<trkpt lat="54.3039170000" lon="-2.1934480000"><ele>231</ele><time>2013-11-17T09:51:55Z</time></trkpt>
<trkpt lat="54.3038880000" lon="-2.1934630000"><ele>231</ele><time>2013-11-17T09:51:57Z</time></trkpt>
<trkpt lat="54.3038670000" lon="-2.1934930000"><ele>231</ele><time>2013-11-17T09:51:59Z</time></trkpt>
<trkpt lat="54.3038580000" lon="-2.1935410000"><ele>231</ele><time>2013-11-17T09:52:01Z</time></trkpt>
<trkpt lat="54.3038540000" lon="-2.1935930000"><ele>231</ele><time>2013-11-17T09:52:03Z</time></trkpt>
<trkpt lat="54.3038480000" lon="-2.1936590000"><ele>231</ele><time>2013-11-17T09:52:05Z</time></trkpt>
<trkpt lat="54.3038430000" lon="-2.1937190000"><ele>231</ele><time>2013-11-17T09:52:07Z</time></trkpt>
<trkpt lat="54.3038350000" lon="-2.1937630000"><ele>231</ele><time>2013-11-17T09:52:09Z</time></trkpt>
<trkpt lat="54.3038160000" lon="-2.1937940000"><ele>231</ele><time>2013-11-17T09:52:11Z</time></trkpt>
<trkpt lat="54.3037940000" lon="-2.1938290000"><ele>231</ele><time>2013-11-17T09:52:13Z</time></trkpt>
<trkpt lat="54.3037740000" lon="-2.1938740000"><ele>231</ele><time>2013-11-17T09:52:15Z</time></trkpt>
<trkpt lat="54.3037570000" lon="-2.1939220000"><ele>231</ele><time>2013-11-17T09:52:17Z</time></trkpt>
<trkpt lat="54.3037390000" lon="-2.1939740000"><ele>231</ele><time>2013-11-17T09:52:19Z</time></trkpt>
<trkpt lat="54.3037280000" lon="-2.1940220000"><ele>231</ele><time>2013-11-17T09:52:21Z</time></trkpt>
<trkpt lat="54.3037180000" lon="-2.1940690000"><ele>231</ele><time>2013-11-17T09:52:23Z</time></trkpt>
<trkpt lat="54.3037090000" lon="-2.1941290000"><ele>231</ele><time>2013-11-17T09:52:26Z</time></trkpt>
<trkpt lat="54.3036980000" lon="-2.1941710000"><ele>231</ele><time>2013-11-17T09:52:28Z</time></trkpt>
<trkpt lat="54.3036840000" lon="-2.1942080000"><ele>231</ele><time>2013-11-17T09:52:30Z</time></trkpt>
<trkpt lat="54.3036720000" lon="-2.1942520000"><ele>231</ele><time>2013-11-17T09:52:32Z</time></trkpt>
<trkpt lat="54.3036800000" lon="-2.1943180000"><ele>231</ele><time>2013-11-17T09:52:35Z</time></trkpt>
<trkpt lat="54.3036780000" lon="-2.1943870000"><ele>231</ele><time>2013-11-17T09:52:38Z</time></trkpt>
<trkpt lat="54.3036690000" lon="-2.1944420000"><ele>231</ele><time>2013-11-17T09:52:40Z</time></trkpt>
<trkpt lat="54.3036590000" lon="-2.1944990000"><ele>231</ele><time>2013-11-17T09:52:42Z</time></trkpt>
<trkpt lat="54.3036470000" lon="-2.1945760000"><ele>231</ele><time>2013-11-17T09:52:45Z</time></trkpt>
<trkpt lat="54.3036330000" lon="-2.1946570000"><ele>243</ele><time>2013-11-17T09:52:48Z</time></trkpt>
<trkpt lat="54.3036390000" lon="-2.1947360000"><ele>243</ele><time>2013-11-17T09:52:51Z</time></trkpt>
<trkpt lat="54.3036580000" lon="-2.1948320000"><ele>231</ele><time>2013-11-17T09:52:55Z</time></trkpt>
<trkpt lat="54.3036660000" lon="-2.1949310000"><ele>231</ele><time>2013-11-17T09:52:59Z</time></trkpt>
<trkpt lat="54.3036750000" lon="-2.1949990000"><ele>231</ele><time>2013-11-17T09:53:02Z</time></trkpt>
<trkpt lat="54.3036920000" lon="-2.1950650000"><ele>231</ele><time>2013-11-17T09:53:05Z</time></trkpt>
<trkpt lat="54.3037000000" lon="-2.1951440000"><ele>234</ele><time>2013-11-17T09:53:08Z</time></trkpt>
<trkpt lat="54.3037190000" lon="-2.1952200000"><ele>234</ele><time>2013-11-17T09:53:11Z</time></trkpt>
<trkpt lat="54.3037390000" lon="-2.1952850000"><ele>234</ele><time>2013-11-17T09:53:14Z</time></trkpt>
<trkpt lat="54.3037610000" lon="-2.1953460000"><ele>234</ele><time>2013-11-17T09:53:17Z</time></trkpt>
<trkpt lat="54.3037890000" lon="-2.1953910000"><ele>234</ele><time>2013-11-17T09:53:20Z</time></trkpt>
<trkpt lat="54.3038090000" lon="-2.1954480000"><ele>234</ele><time>2013-11-17T09:53:23Z</time></trkpt>
<trkpt lat="54.3038100000" lon="-2.1955460000"><ele>234</ele><time>2013-11-17T09:53:27Z</time></trkpt>
<trkpt lat="54.3038240000" lon="-2.1956240000"><ele>234</ele><time>2013-11-17T09:53:31Z</time></trkpt>
<trkpt lat="54.3038280000" lon="-2.1957260000"><ele>234</ele><time>2013-11-17T09:53:36Z</time></trkpt>
<trkpt lat="54.3038540000" lon="-2.1958250000"><ele>234</ele><time>2013-11-17T09:53:41Z</time></trkpt>
<trkpt lat="54.3038450000" lon="-2.1959100000"><ele>234</ele><time>2013-11-17T09:53:44Z</time></trkpt>
<trkpt lat="54.3038430000" lon="-2.1960010000"><ele>234</ele><time>2013-11-17T09:53:48Z</time></trkpt>
<trkpt lat="54.3038350000" lon="-2.1960750000"><ele>234</ele><time>2013-11-17T09:53:52Z</time></trkpt>
<trkpt lat="54.3038110000" lon="-2.1961380000"><ele>234</ele><time>2013-11-17T09:53:56Z</time></trkpt>
<trkpt lat="54.3037900000" lon="-2.1961900000"><ele>234</ele><time>2013-11-17T09:53:59Z</time></trkpt>
<trkpt lat="54.3037660000" lon="-2.1962470000"><ele>234</ele><time>2013-11-17T09:54:02Z</time></trkpt>
<trkpt lat="54.3037510000" lon="-2.1963000000"><ele>234</ele><time>2013-11-17T09:54:05Z</time></trkpt>
<trkpt lat="54.3037460000" lon="-2.1963630000"><ele>234</ele><time>2013-11-17T09:54:08Z</time></trkpt>
<trkpt lat="54.3037450000" lon="-2.1964350000"><ele>234</ele><time>2013-11-17T09:54:11Z</time></trkpt>
<trkpt lat="54.3037540000" lon="-2.1965110000"><ele>234</ele><time>2013-11-17T09:54:14Z</time></trkpt>
<trkpt lat="54.3037640000" lon="-2.1965920000"><ele>234</ele><time>2013-11-17T09:54:17Z</time></trkpt>
<trkpt lat="54.3037710000" lon="-2.1966740000"><ele>234</ele><time>2013-11-17T09:54:20Z</time></trkpt>
<trkpt lat="54.3037750000" lon="-2.1967490000"><ele>234</ele><time>2013-11-17T09:54:23Z</time></trkpt>
<trkpt lat="54.3037810000" lon="-2.1968060000"><ele>234</ele><time>2013-11-17T09:54:26Z</time></trkpt>
<trkpt lat="54.3037570000" lon="-2.1968820000"><ele>234</ele><time>2013-11-17T09:54:45Z</time></trkpt>
<trkpt lat="54.3037820000" lon="-2.1969030000"><ele>234</ele><time>2013-11-17T09:54:48Z</time></trkpt>
<trkpt lat="54.3038030000" lon="-2.1969530000"><ele>234</ele><time>2013-11-17T09:54:51Z</time></trkpt>
<trkpt lat="54.3038220000" lon="-2.1970150000"><ele>234</ele><time>2013-11-17T09:54:54Z</time></trkpt>
<trkpt lat="54.3038390000" lon="-2.1970810000"><ele>234</ele><time>2013-11-17T09:54:57Z</time></trkpt>
<trkpt lat="54.3038380000" lon="-2.1971550000"><ele>234</ele><time>2013-11-17T09:55:00Z</time></trkpt>
<trkpt lat="54.3038380000" lon="-2.1972290000"><ele>234</ele><time>2013-11-17T09:55:03Z</time></trkpt>
<trkpt lat="54.3038410000" lon="-2.1972910000"><ele>234</ele><time>2013-11-17T09:55:06Z</time></trkpt>
<trkpt lat="54.3038470000" lon="-2.1973470000"><ele>234</ele><time>2013-11-17T09:55:09Z</time></trkpt>
<trkpt lat="54.3038690000" lon="-2.1974100000"><ele>234</ele><time>2013-11-17T09:55:12Z</time></trkpt>
<trkpt lat="54.3038900000" lon="-2.1974770000"><ele>234</ele><time>2013-11-17T09:55:15Z</time></trkpt>
<trkpt lat="54.3038720000" lon="-2.1975450000"><ele>234</ele><time>2013-11-17T09:55:20Z</time></trkpt>
<trkpt lat="54.3038520000" lon="-2.1975590000"><ele>234</ele><time>2013-11-17T09:55:21Z</time></trkpt>
<trkpt lat="54.3038290000" lon="-2.1975720000"><ele>234</ele><time>2013-11-17T09:55:22Z</time></trkpt>
<trkpt lat="54.3038060000" lon="-2.1975850000"><ele>234</ele><time>2013-11-17T09:55:23Z</time></trkpt>
<trkpt lat="54.3037840000" lon="-2.1975990000"><ele>234</ele><time>2013-11-17T09:55:24Z</time></trkpt>
<trkpt lat="54.3037620000" lon="-2.1976130000"><ele>234</ele><time>2013-11-17T09:55:25Z</time></trkpt>
<trkpt lat="54.3036540000" lon="-2.1976550000"><ele>234</ele><time>2013-11-17T09:55:30Z</time></trkpt>
<trkpt lat="54.3035990000" lon="-2.1975970000"><ele>245</ele><time>2013-11-17T09:55:36Z</time></trkpt>
<trkpt lat="54.3035470000" lon="-2.1975740000"><ele>245</ele><time>2013-11-17T09:55:42Z</time></trkpt>
<trkpt lat="54.3035040000" lon="-2.1975710000"><ele>245</ele><time>2013-11-17T09:55:46Z</time></trkpt>
<trkpt lat="54.3034600000" lon="-2.1975710000"><ele>245</ele><time>2013-11-17T09:55:50Z</time></trkpt>
<trkpt lat="54.3034200000" lon="-2.1975850000"><ele>245</ele><time>2013-11-17T09:55:53Z</time></trkpt>
<trkpt lat="54.3033680000" lon="-2.1975830000"><ele>245</ele><time>2013-11-17T09:56:03Z</time></trkpt>
<trkpt lat="54.3033360000" lon="-2.1975840000"><ele>245</ele><time>2013-11-17T09:56:07Z</time></trkpt>
<trkpt lat="54.3033070000" lon="-2.1975800000"><ele>245</ele><time>2013-11-17T09:56:11Z</time></trkpt>
<trkpt lat="54.3032730000" lon="-2.1975800000"><ele>245</ele><time>2013-11-17T09:56:14Z</time></trkpt>
<trkpt lat="54.3032300000" lon="-2.1975830000"><ele>245</ele><time>2013-11-17T09:56:17Z</time></trkpt>
<trkpt lat="54.3031860000" lon="-2.1975740000"><ele>245</ele><time>2013-11-17T09:56:21Z</time></trkpt>
<trkpt lat="54.3031580000" lon="-2.1975560000"><ele>245</ele><time>2013-11-17T09:56:24Z</time></trkpt>
<trkpt lat="54.3031280000" lon="-2.1975380000"><ele>245</ele><time>2013-11-17T09:56:27Z</time></trkpt>
<trkpt lat="54.3031010000" lon="-2.1975250000"><ele>245</ele><time>2013-11-17T09:56:30Z</time></trkpt>
<trkpt lat="54.3030660000" lon="-2.1975070000"><ele>245</ele><time>2013-11-17T09:56:33Z</time></trkpt>
<trkpt lat="54.3030330000" lon="-2.1974860000"><ele>245</ele><time>2013-11-17T09:56:36Z</time></trkpt>
<trkpt lat="54.3029980000" lon="-2.1974740000"><ele>245</ele><time>2013-11-17T09:56:40Z</time></trkpt>
<trkpt lat="54.3029710000" lon="-2.1974530000"><ele>245</ele><time>2013-11-17T09:56:53Z</time></trkpt>
<trkpt lat="54.3029410000" lon="-2.1974480000"><ele>245</ele><time>2013-11-17T09:56:56Z</time></trkpt>
<trkpt lat="54.3029090000" lon="-2.1974580000"><ele>245</ele><time>2013-11-17T09:56:59Z</time></trkpt>
<trkpt lat="54.3028860000" lon="-2.1974710000"><ele>245</ele><time>2013-11-17T09:57:01Z</time></trkpt>
<trkpt lat="54.3028610000" lon="-2.1974830000"><ele>245</ele><time>2013-11-17T09:57:03Z</time></trkpt>
<trkpt lat="54.3028370000" lon="-2.1974910000"><ele>245</ele><time>2013-11-17T09:57:05Z</time></trkpt>
<trkpt lat="54.3028140000" lon="-2.1975070000"><ele>245</ele><time>2013-11-17T09:57:07Z</time></trkpt>
<trkpt lat="54.3027930000" lon="-2.1975280000"><ele>245</ele><time>2013-11-17T09:57:09Z</time></trkpt>
<trkpt lat="54.3027690000" lon="-2.1975470000"><ele>245</ele><time>2013-11-17T09:57:11Z</time></trkpt>
<trkpt lat="54.3027460000" lon="-2.1975680000"><ele>245</ele><time>2013-11-17T09:57:13Z</time></trkpt>
<trkpt lat="54.3027240000" lon="-2.1975920000"><ele>245</ele><time>2013-11-17T09:57:15Z</time></trkpt>
<trkpt lat="54.3026930000" lon="-2.1976210000"><ele>245</ele><time>2013-11-17T09:57:18Z</time></trkpt>
<trkpt lat="54.3026670000" lon="-2.1976360000"><ele>245</ele><time>2013-11-17T09:57:20Z</time></trkpt>
<trkpt lat="54.3026420000" lon="-2.1976560000"><ele>245</ele><time>2013-11-17T09:57:22Z</time></trkpt>
<trkpt lat="54.3026170000" lon="-2.1976780000"><ele>245</ele><time>2013-11-17T09:57:24Z</time></trkpt>
<trkpt lat="54.3025940000" lon="-2.1976970000"><ele>245</ele><time>2013-11-17T09:57:26Z</time></trkpt>
<trkpt lat="54.3025730000" lon="-2.1977210000"><ele>245</ele><time>2013-11-17T09:57:28Z</time></trkpt>
<trkpt lat="54.3025510000" lon="-2.1977440000"><ele>245</ele><time>2013-11-17T09:57:30Z</time></trkpt>
<trkpt lat="54.3025270000" lon="-2.1977610000"><ele>245</ele><time>2013-11-17T09:57:32Z</time></trkpt>
<trkpt lat="54.3025000000" lon="-2.1977760000"><ele>245</ele><time>2013-11-17T09:57:34Z</time></trkpt>
<trkpt lat="54.3024740000" lon="-2.1977950000"><ele>245</ele><time>2013-11-17T09:57:36Z</time></trkpt>
<trkpt lat="54.3024480000" lon="-2.1978140000"><ele>245</ele><time>2013-11-17T09:57:38Z</time></trkpt>
<trkpt lat="54.3024260000" lon="-2.1978350000"><ele>245</ele><time>2013-11-17T09:57:40Z</time></trkpt>
<trkpt lat="54.3024030000" lon="-2.1978610000"><ele>245</ele><time>2013-11-17T09:57:42Z</time></trkpt>
<trkpt lat="54.3023810000" lon="-2.1978840000"><ele>245</ele><time>2013-11-17T09:57:44Z</time></trkpt>
<trkpt lat="54.3023600000" lon="-2.1979070000"><ele>245</ele><time>2013-11-17T09:57:46Z</time></trkpt>
<trkpt lat="54.3023390000" lon="-2.1979280000"><ele>245</ele><time>2013-11-17T09:57:48Z</time></trkpt>
<trkpt lat="54.3023180000" lon="-2.1979480000"><ele>245</ele><time>2013-11-17T09:57:50Z</time></trkpt>
<trkpt lat="54.3022980000" lon="-2.1979690000"><ele>245</ele><time>2013-11-17T09:57:52Z</time></trkpt>
<trkpt lat="54.3022770000" lon="-2.1979890000"><ele>245</ele><time>2013-11-17T09:57:54Z</time></trkpt>
<trkpt lat="54.3022560000" lon="-2.1980100000"><ele>245</ele><time>2013-11-17T09:57:56Z</time></trkpt>
<trkpt lat="54.3022330000" lon="-2.1980330000"><ele>245</ele><time>2013-11-17T09:57:58Z</time></trkpt>
<trkpt lat="54.3022100000" lon="-2.1980560000"><ele>245</ele><time>2013-11-17T09:58:00Z</time></trkpt>
<trkpt lat="54.3021870000" lon="-2.1980790000"><ele>245</ele><time>2013-11-17T09:58:02Z</time></trkpt>
<trkpt lat="54.3021630000" lon="-2.1981000000"><ele>245</ele><time>2013-11-17T09:58:04Z</time></trkpt>
<trkpt lat="54.3021360000" lon="-2.1981270000"><ele>245</ele><time>2013-11-17T09:58:06Z</time></trkpt>
<trkpt lat="54.3021120000" lon="-2.1981610000"><ele>245</ele><time>2013-11-17T09:58:08Z</time></trkpt>
<trkpt lat="54.3020930000" lon="-2.1981930000"><ele>245</ele><time>2013-11-17T09:58:10Z</time></trkpt>
<trkpt lat="54.3020730000" lon="-2.1982220000"><ele>252</ele><time>2013-11-17T09:58:12Z</time></trkpt>
<trkpt lat="54.3020520000" lon="-2.1982470000"><ele>252</ele><time>2013-11-17T09:58:14Z</time></trkpt>
<trkpt lat="54.3020330000" lon="-2.1982700000"><ele>252</ele><time>2013-11-17T09:58:16Z</time></trkpt>
<trkpt lat="54.3020150000" lon="-2.1982930000"><ele>252</ele><time>2013-11-17T09:58:18Z</time></trkpt>
<trkpt lat="54.3019940000" lon="-2.1983210000"><ele>252</ele><time>2013-11-17T09:58:20Z</time></trkpt>
<trkpt lat="54.3019730000" lon="-2.1983480000"><ele>252</ele><time>2013-11-17T09:58:22Z</time></trkpt>
<trkpt lat="54.3019510000" lon="-2.1983810000"><ele>252</ele><time>2013-11-17T09:58:24Z</time></trkpt>
<trkpt lat="54.3019310000" lon="-2.1984090000"><ele>252</ele><time>2013-11-17T09:58:26Z</time></trkpt>
<trkpt lat="54.3019120000" lon="-2.1984320000"><ele>252</ele><time>2013-11-17T09:58:28Z</time></trkpt>
<trkpt lat="54.3018910000" lon="-2.1984590000"><ele>252</ele><time>2013-11-17T09:58:30Z</time></trkpt>
<trkpt lat="54.3018670000" lon="-2.1984810000"><ele>252</ele><time>2013-11-17T09:58:32Z</time></trkpt>
<trkpt lat="54.3018430000" lon="-2.1984970000"><ele>252</ele><time>2013-11-17T09:58:34Z</time></trkpt>
<trkpt lat="54.3018190000" lon="-2.1985140000"><ele>251</ele><time>2013-11-17T09:58:36Z</time></trkpt>
<trkpt lat="54.3017940000" lon="-2.1985260000"><ele>251</ele><time>2013-11-17T09:58:38Z</time></trkpt>
<trkpt lat="54.3017690000" lon="-2.1985370000"><ele>251</ele><time>2013-11-17T09:58:40Z</time></trkpt>
<trkpt lat="54.3017440000" lon="-2.1985520000"><ele>251</ele><time>2013-11-17T09:58:42Z</time></trkpt>
<trkpt lat="54.3017190000" lon="-2.1985650000"><ele>251</ele><time>2013-11-17T09:58:44Z</time></trkpt>
<trkpt lat="54.3016780000" lon="-2.1985850000"><ele>251</ele><time>2013-11-17T09:58:49Z</time></trkpt>
<trkpt lat="54.3016530000" lon="-2.1986090000"><ele>251</ele><time>2013-11-17T09:58:54Z</time></trkpt>
<trkpt lat="54.3016220000" lon="-2.1986320000"><ele>251</ele><time>2013-11-17T09:58:57Z</time></trkpt>
<trkpt lat="54.3016030000" lon="-2.1986850000"><ele>251</ele><time>2013-11-17T09:59:00Z</time></trkpt>
<trkpt lat="54.3015900000" lon="-2.1987300000"><ele>251</ele><time>2013-11-17T09:59:02Z</time></trkpt>
<trkpt lat="54.3015720000" lon="-2.1987760000"><ele>251</ele><time>2013-11-17T09:59:04Z</time></trkpt>
<trkpt lat="54.3015560000" lon="-2.1988270000"><ele>251</ele><time>2013-11-17T09:59:07Z</time></trkpt>
<trkpt lat="54.3015390000" lon="-2.1988890000"><ele>251</ele><time>2013-11-17T09:59:10Z</time></trkpt>
<trkpt lat="54.3015240000" lon="-2.1989410000"><ele>251</ele><time>2013-11-17T09:59:13Z</time></trkpt>
<trkpt lat="54.3015070000" lon="-2.1990020000"><ele>251</ele><time>2013-11-17T09:59:16Z</time></trkpt>
<trkpt lat="54.3014970000" lon="-2.1990480000"><ele>251</ele><time>2013-11-17T09:59:18Z</time></trkpt>
<trkpt lat="54.3014860000" lon="-2.1990950000"><ele>251</ele><time>2013-11-17T09:59:20Z</time></trkpt>
<trkpt lat="54.3014720000" lon="-2.1991420000"><ele>251</ele><time>2013-11-17T09:59:22Z</time></trkpt>
<trkpt lat="54.3014580000" lon="-2.1991820000"><ele>251</ele><time>2013-11-17T09:59:24Z</time></trkpt>
<trkpt lat="54.3014370000" lon="-2.1992370000"><ele>251</ele><time>2013-11-17T09:59:27Z</time></trkpt>
<trkpt lat="54.3014180000" lon="-2.1992880000"><ele>251</ele><time>2013-11-17T09:59:30Z</time></trkpt>
<trkpt lat="54.3014020000" lon="-2.1993450000"><ele>251</ele><time>2013-11-17T09:59:33Z</time></trkpt>
<trkpt lat="54.3013870000" lon="-2.1994040000"><ele>251</ele><time>2013-11-17T09:59:36Z</time></trkpt>
<trkpt lat="54.3013760000" lon="-2.1994450000"><ele>251</ele><time>2013-11-17T09:59:38Z</time></trkpt>
<trkpt lat="54.3013600000" lon="-2.1994880000"><ele>251</ele><time>2013-11-17T09:59:40Z</time></trkpt>
<trkpt lat="54.3013460000" lon="-2.1995250000"><ele>251</ele><time>2013-11-17T09:59:42Z</time></trkpt>
<trkpt lat="54.3013310000" lon="-2.1995680000"><ele>251</ele><time>2013-11-17T09:59:44Z</time></trkpt>
<trkpt lat="54.3013170000" lon="-2.1996060000"><ele>251</ele><time>2013-11-17T09:59:46Z</time></trkpt>
<trkpt lat="54.3013000000" lon="-2.1996550000"><ele>251</ele><time>2013-11-17T09:59:49Z</time></trkpt>
<trkpt lat="54.3012800000" lon="-2.1997140000"><ele>251</ele><time>2013-11-17T09:59:52Z</time></trkpt>
<trkpt lat="54.3012640000" lon="-2.1997560000"><ele>251</ele><time>2013-11-17T09:59:54Z</time></trkpt>
<trkpt lat="54.3012510000" lon="-2.1997940000"><ele>251</ele><time>2013-11-17T09:59:56Z</time></trkpt>
<trkpt lat="54.3012390000" lon="-2.1998320000"><ele>251</ele><time>2013-11-17T09:59:58Z</time></trkpt>
<trkpt lat="54.3012260000" lon="-2.1998720000"><ele>251</ele><time>2013-11-17T10:00:00Z</time></trkpt>
<trkpt lat="54.3012140000" lon="-2.1999130000"><ele>251</ele><time>2013-11-17T10:00:02Z</time></trkpt>
<trkpt lat="54.3012030000" lon="-2.1999530000"><ele>251</ele><time>2013-11-17T10:00:04Z</time></trkpt>
<trkpt lat="54.3011910000" lon="-2.1999920000"><ele>251</ele><time>2013-11-17T10:00:06Z</time></trkpt>
<trkpt lat="54.3011750000" lon="-2.2000490000"><ele>251</ele><time>2013-11-17T10:00:09Z</time></trkpt>
<trkpt lat="54.3011590000" lon="-2.2001010000"><ele>251</ele><time>2013-11-17T10:00:12Z</time></trkpt>
<trkpt lat="54.3011450000" lon="-2.2001510000"><ele>251</ele><time>2013-11-17T10:00:15Z</time></trkpt>
<trkpt lat="54.3011210000" lon="-2.2002020000"><ele>251</ele><time>2013-11-17T10:00:18Z</time></trkpt>
<trkpt lat="54.3010970000" lon="-2.2002550000"><ele>251</ele><time>2013-11-17T10:00:21Z</time></trkpt>
<trkpt lat="54.3010820000" lon="-2.2002910000"><ele>251</ele><time>2013-11-17T10:00:23Z</time></trkpt>
<trkpt lat="54.3010670000" lon="-2.2003280000"><ele>251</ele><time>2013-11-17T10:00:25Z</time></trkpt>
<trkpt lat="54.3010480000" lon="-2.2003660000"><ele>251</ele><time>2013-11-17T10:00:27Z</time></trkpt>
<trkpt lat="54.3010310000" lon="-2.2003970000"><ele>251</ele><time>2013-11-17T10:00:29Z</time></trkpt>
<trkpt lat="54.3010080000" lon="-2.2004310000"><ele>251</ele><time>2013-11-17T10:00:31Z</time></trkpt>
<trkpt lat="54.3009930000" lon="-2.2004680000"><ele>251</ele><time>2013-11-17T10:00:33Z</time></trkpt>
<trkpt lat="54.3009720000" lon="-2.2005180000"><ele>251</ele><time>2013-11-17T10:00:36Z</time></trkpt>
<trkpt lat="54.3009520000" lon="-2.2005480000"><ele>251</ele><time>2013-11-17T10:00:38Z</time></trkpt>
<trkpt lat="54.3009270000" lon="-2.2005730000"><ele>251</ele><time>2013-11-17T10:00:40Z</time></trkpt>
<trkpt lat="54.3009050000" lon="-2.2005940000"><ele>251</ele><time>2013-11-17T10:00:42Z</time></trkpt>
<trkpt lat="54.3008690000" lon="-2.2006290000"><ele>251</ele><time>2013-11-17T10:00:50Z</time></trkpt>
<trkpt lat="54.3008480000" lon="-2.2006590000"><ele>251</ele><time>2013-11-17T10:00:53Z</time></trkpt>
<trkpt lat="54.3008260000" lon="-2.2006890000"><ele>251</ele><time>2013-11-17T10:00:55Z</time></trkpt>
<trkpt lat="54.3008050000" lon="-2.2007130000"><ele>251</ele><time>2013-11-17T10:00:57Z</time></trkpt>
<trkpt lat="54.3007760000" lon="-2.2007450000"><ele>251</ele><time>2013-11-17T10:01:00Z</time></trkpt>
<trkpt lat="54.3007520000" lon="-2.2007760000"><ele>251</ele><time>2013-11-17T10:01:03Z</time></trkpt>
<trkpt lat="54.3007190000" lon="-2.2007690000"><ele>251</ele><time>2013-11-17T10:01:06Z</time></trkpt>
<trkpt lat="54.3006880000" lon="-2.2007560000"><ele>251</ele><time>2013-11-17T10:01:09Z</time></trkpt>
<trkpt lat="54.3006650000" lon="-2.2007460000"><ele>251</ele><time>2013-11-17T10:01:11Z</time></trkpt>
<trkpt lat="54.3006400000" lon="-2.2007340000"><ele>251</ele><time>2013-11-17T10:01:13Z</time></trkpt>
<trkpt lat="54.3006080000" lon="-2.2007180000"><ele>251</ele><time>2013-11-17T10:01:16Z</time></trkpt>
<trkpt lat="54.3005730000" lon="-2.2007010000"><ele>251</ele><time>2013-11-17T10:01:19Z</time></trkpt>
<trkpt lat="54.3005420000" lon="-2.2007000000"><ele>251</ele><time>2013-11-17T10:01:21Z</time></trkpt>
<trkpt lat="54.3004920000" lon="-2.2007350000"><ele>251</ele><time>2013-11-17T10:01:25Z</time></trkpt>
<trkpt lat="54.3004560000" lon="-2.2007340000"><ele>251</ele><time>2013-11-17T10:01:28Z</time></trkpt>
<trkpt lat="54.3004270000" lon="-2.2007170000"><ele>251</ele><time>2013-11-17T10:01:30Z</time></trkpt>
<trkpt lat="54.3004020000" lon="-2.2006990000"><ele>251</ele><time>2013-11-17T10:01:32Z</time></trkpt>
<trkpt lat="54.3003770000" lon="-2.2006780000"><ele>251</ele><time>2013-11-17T10:01:34Z</time></trkpt>
<trkpt lat="54.3003500000" lon="-2.2006580000"><ele>251</ele><time>2013-11-17T10:01:36Z</time></trkpt>
<trkpt lat="54.3003280000" lon="-2.2006430000"><ele>251</ele><time>2013-11-17T10:01:38Z</time></trkpt>
<trkpt lat="54.3002970000" lon="-2.2006150000"><ele>251</ele><time>2013-11-17T10:01:41Z</time></trkpt>
<trkpt lat="54.3002690000" lon="-2.2005690000"><ele>251</ele><time>2013-11-17T10:01:44Z</time></trkpt>
<trkpt lat="54.3002420000" lon="-2.2005410000"><ele>251</ele><time>2013-11-17T10:01:46Z</time></trkpt>
<trkpt lat="54.3002130000" lon="-2.2005790000"><ele>251</ele><time>2013-11-17T10:01:53Z</time></trkpt>
<trkpt lat="54.3001960000" lon="-2.2006280000"><ele>251</ele><time>2013-11-17T10:01:56Z</time></trkpt>
<trkpt lat="54.3001860000" lon="-2.2006890000"><ele>251</ele><time>2013-11-17T10:01:59Z</time></trkpt>
<trkpt lat="54.3001750000" lon="-2.2007480000"><ele>251</ele><time>2013-11-17T10:02:02Z</time></trkpt>
<trkpt lat="54.3001630000" lon="-2.2008150000"><ele>251</ele><time>2013-11-17T10:02:05Z</time></trkpt>
<trkpt lat="54.3001510000" lon="-2.2008710000"><ele>251</ele><time>2013-11-17T10:02:08Z</time></trkpt>
<trkpt lat="54.3001370000" lon="-2.2009160000"><ele>251</ele><time>2013-11-17T10:02:10Z</time></trkpt>
<trkpt lat="54.3001180000" lon="-2.2009730000"><ele>251</ele><time>2013-11-17T10:02:13Z</time></trkpt>
<trkpt lat="54.3000990000" lon="-2.2010290000"><ele>251</ele><time>2013-11-17T10:02:16Z</time></trkpt>
<trkpt lat="54.3000910000" lon="-2.2010820000"><ele>251</ele><time>2013-11-17T10:02:18Z</time></trkpt>
<trkpt lat="54.3000810000" lon="-2.2011360000"><ele>251</ele><time>2013-11-17T10:02:21Z</time></trkpt>
<trkpt lat="54.3000720000" lon="-2.2011910000"><ele>251</ele><time>2013-11-17T10:02:24Z</time></trkpt>
<trkpt lat="54.3000550000" lon="-2.2012530000"><ele>251</ele><time>2013-11-17T10:02:30Z</time></trkpt>
<trkpt lat="54.3000460000" lon="-2.2013100000"><ele>257</ele><time>2013-11-17T10:02:33Z</time></trkpt>
<trkpt lat="54.3000360000" lon="-2.2013520000"><ele>260</ele><time>2013-11-17T10:02:35Z</time></trkpt>
<trkpt lat="54.3000250000" lon="-2.2013940000"><ele>260</ele><time>2013-11-17T10:02:37Z</time></trkpt>
<trkpt lat="54.3000190000" lon="-2.2014370000"><ele>260</ele><time>2013-11-17T10:02:39Z</time></trkpt>
<trkpt lat="54.3000130000" lon="-2.2014940000"><ele>260</ele><time>2013-11-17T10:02:44Z</time></trkpt>
<trkpt lat="54.2999900000" lon="-2.2015450000"><ele>260</ele><time>2013-11-17T10:02:47Z</time></trkpt>
<trkpt lat="54.2999800000" lon="-2.2015920000"><ele>260</ele><time>2013-11-17T10:02:49Z</time></trkpt>
<trkpt lat="54.2999750000" lon="-2.2016350000"><ele>260</ele><time>2013-11-17T10:02:51Z</time></trkpt>
<trkpt lat="54.2999650000" lon="-2.2017040000"><ele>260</ele><time>2013-11-17T10:03:03Z</time></trkpt>
<trkpt lat="54.2999370000" lon="-2.2017320000"><ele>260</ele><time>2013-11-17T10:03:06Z</time></trkpt>
<trkpt lat="54.2999140000" lon="-2.2017600000"><ele>260</ele><time>2013-11-17T10:03:08Z</time></trkpt>
<trkpt lat="54.2998900000" lon="-2.2017890000"><ele>260</ele><time>2013-11-17T10:03:10Z</time></trkpt>
<trkpt lat="54.2998700000" lon="-2.2018170000"><ele>260</ele><time>2013-11-17T10:03:12Z</time></trkpt>
<trkpt lat="54.2998500000" lon="-2.2018430000"><ele>260</ele><time>2013-11-17T10:03:14Z</time></trkpt>
<trkpt lat="54.2998350000" lon="-2.2018620000"><ele>260</ele><time>2013-11-17T10:03:15Z</time></trkpt>
<trkpt lat="54.2998260000" lon="-2.2018740000"><ele>260</ele><time>2013-11-17T10:03:16Z</time></trkpt>
<trkpt lat="54.2998180000" lon="-2.2018870000"><ele>260</ele><time>2013-11-17T10:03:17Z</time></trkpt>
<trkpt lat="54.2998090000" lon="-2.2019000000"><ele>260</ele><time>2013-11-17T10:03:18Z</time></trkpt>
<trkpt lat="54.2997990000" lon="-2.2019120000"><ele>260</ele><time>2013-11-17T10:03:19Z</time></trkpt>
<trkpt lat="54.2997890000" lon="-2.2019240000"><ele>260</ele><time>2013-11-17T10:03:20Z</time></trkpt>
<trkpt lat="54.2997800000" lon="-2.2019370000"><ele>260</ele><time>2013-11-17T10:03:21Z</time></trkpt>
<trkpt lat="54.2997700000" lon="-2.2019490000"><ele>260</ele><time>2013-11-17T10:03:22Z</time></trkpt>
<trkpt lat="54.2997600000" lon="-2.2019630000"><ele>260</ele><time>2013-11-17T10:03:23Z</time></trkpt>
<trkpt lat="54.2997490000" lon="-2.2019760000"><ele>260</ele><time>2013-11-17T10:03:24Z</time></trkpt>
<trkpt lat="54.2997390000" lon="-2.2019880000"><ele>260</ele><time>2013-11-17T10:03:25Z</time></trkpt>
<trkpt lat="54.2997290000" lon="-2.2019990000"><ele>260</ele><time>2013-11-17T10:03:26Z</time></trkpt>
<trkpt lat="54.2997180000" lon="-2.2020100000"><ele>260</ele><time>2013-11-17T10:03:27Z</time></trkpt>
<trkpt lat="54.2996990000" lon="-2.2020320000"><ele>260</ele><time>2013-11-17T10:03:29Z</time></trkpt>
<trkpt lat="54.2996800000" lon="-2.2020610000"><ele>260</ele><time>2013-11-17T10:03:31Z</time></trkpt>
<trkpt lat="54.2996580000" lon="-2.2020910000"><ele>260</ele><time>2013-11-17T10:03:33Z</time></trkpt>
<trkpt lat="54.2996350000" lon="-2.2021160000"><ele>260</ele><time>2013-11-17T10:03:35Z</time></trkpt>
<trkpt lat="54.2996150000" lon="-2.2021370000"><ele>260</ele><time>2013-11-17T10:03:37Z</time></trkpt>
<trkpt lat="54.2995930000" lon="-2.2021590000"><ele>260</ele><time>2013-11-17T10:03:39Z</time></trkpt>
<trkpt lat="54.2995670000" lon="-2.2022010000"><ele>260</ele><time>2013-11-17T10:03:42Z</time></trkpt>
<trkpt lat="54.2995450000" lon="-2.2022340000"><ele>260</ele><time>2013-11-17T10:03:44Z</time></trkpt>
<trkpt lat="54.2995130000" lon="-2.2022720000"><ele>260</ele><time>2013-11-17T10:03:47Z</time></trkpt>
<trkpt lat="54.2994900000" lon="-2.2022960000"><ele>260</ele><time>2013-11-17T10:03:49Z</time></trkpt>
<trkpt lat="54.2994690000" lon="-2.2023210000"><ele>260</ele><time>2013-11-17T10:03:51Z</time></trkpt>
<trkpt lat="54.2994400000" lon="-2.2023560000"><ele>260</ele><time>2013-11-17T10:03:54Z</time></trkpt>
<trkpt lat="54.2994140000" lon="-2.2023950000"><ele>260</ele><time>2013-11-17T10:03:57Z</time></trkpt>
<trkpt lat="54.2993970000" lon="-2.2024420000"><ele>260</ele><time>2013-11-17T10:04:00Z</time></trkpt>
<trkpt lat="54.2993700000" lon="-2.2024720000"><ele>260</ele><time>2013-11-17T10:04:03Z</time></trkpt>
<trkpt lat="54.2993330000" lon="-2.2025160000"><ele>260</ele><time>2013-11-17T10:04:07Z</time></trkpt>
<trkpt lat="54.2992980000" lon="-2.2025450000"><ele>260</ele><time>2013-11-17T10:04:16Z</time></trkpt>
<trkpt lat="54.2992700000" lon="-2.2025760000"><ele>260</ele><time>2013-11-17T10:04:20Z</time></trkpt>
<trkpt lat="54.2992490000" lon="-2.2026220000"><ele>260</ele><time>2013-11-17T10:04:23Z</time></trkpt>
<trkpt lat="54.2992250000" lon="-2.2026730000"><ele>260</ele><time>2013-11-17T10:04:26Z</time></trkpt>
<trkpt lat="54.2992040000" lon="-2.2027260000"><ele>260</ele><time>2013-11-17T10:04:29Z</time></trkpt>
<trkpt lat="54.2991800000" lon="-2.2027720000"><ele>260</ele><time>2013-11-17T10:04:32Z</time></trkpt>
<trkpt lat="54.2991630000" lon="-2.2028140000"><ele>260</ele><time>2013-11-17T10:04:34Z</time></trkpt>
<trkpt lat="54.2991390000" lon="-2.2028710000"><ele>260</ele><time>2013-11-17T10:04:37Z</time></trkpt>
<trkpt lat="54.2991170000" lon="-2.2029140000"><ele>260</ele><time>2013-11-17T10:04:40Z</time></trkpt>
<trkpt lat="54.2991090000" lon="-2.2029740000"><ele>260</ele><time>2013-11-17T10:04:47Z</time></trkpt>
<trkpt lat="54.2990820000" lon="-2.2030100000"><ele>260</ele><time>2013-11-17T10:04:52Z</time></trkpt>
<trkpt lat="54.2990620000" lon="-2.2030730000"><ele>260</ele><time>2013-11-17T10:04:56Z</time></trkpt>
<trkpt lat="54.2990430000" lon="-2.2031160000"><ele>260</ele><time>2013-11-17T10:04:58Z</time></trkpt>
<trkpt lat="54.2990230000" lon="-2.2031700000"><ele>260</ele><time>2013-11-17T10:05:01Z</time></trkpt>
<trkpt lat="54.2990050000" lon="-2.2032180000"><ele>260</ele><time>2013-11-17T10:05:04Z</time></trkpt>
<trkpt lat="54.2989870000" lon="-2.2032830000"><ele>260</ele><time>2013-11-17T10:05:08Z</time></trkpt>
<trkpt lat="54.2989730000" lon="-2.2033430000"><ele>260</ele><time>2013-11-17T10:05:11Z</time></trkpt>
<trkpt lat="54.2989680000" lon="-2.2034680000"><ele>260</ele><time>2013-11-17T10:05:18Z</time></trkpt>
<trkpt lat="54.2989200000" lon="-2.2035130000"><ele>260</ele><time>2013-11-17T10:05:22Z</time></trkpt>
<trkpt lat="54.2988830000" lon="-2.2035630000"><ele>260</ele><time>2013-11-17T10:05:25Z</time></trkpt>
<trkpt lat="54.2988530000" lon="-2.2036190000"><ele>260</ele><time>2013-11-17T10:05:28Z</time></trkpt>
<trkpt lat="54.2988270000" lon="-2.2036810000"><ele>260</ele><time>2013-11-17T10:05:31Z</time></trkpt>
<trkpt lat="54.2988060000" lon="-2.2037540000"><ele>260</ele><time>2013-11-17T10:05:34Z</time></trkpt>
<trkpt lat="54.2987920000" lon="-2.2038210000"><ele>260</ele><time>2013-11-17T10:05:37Z</time></trkpt>
<trkpt lat="54.2987740000" lon="-2.2038810000"><ele>260</ele><time>2013-11-17T10:05:40Z</time></trkpt>
<trkpt lat="54.2987430000" lon="-2.2039420000"><ele>260</ele><time>2013-11-17T10:05:43Z</time></trkpt>
<trkpt lat="54.2987170000" lon="-2.2039820000"><ele>260</ele><time>2013-11-17T10:05:45Z</time></trkpt>
<trkpt lat="54.2986970000" lon="-2.2040590000"><ele>260</ele><time>2013-11-17T10:05:50Z</time></trkpt>
<trkpt lat="54.2986670000" lon="-2.2040940000"><ele>260</ele><time>2013-11-17T10:05:55Z</time></trkpt>
<trkpt lat="54.2986290000" lon="-2.2040840000"><ele>260</ele><time>2013-11-17T10:05:59Z</time></trkpt>
<trkpt lat="54.2985970000" lon="-2.2040680000"><ele>260</ele><time>2013-11-17T10:06:02Z</time></trkpt>
<trkpt lat="54.2985670000" lon="-2.2040490000"><ele>260</ele><time>2013-11-17T10:06:05Z</time></trkpt>
<trkpt lat="54.2985320000" lon="-2.2040340000"><ele>260</ele><time>2013-11-17T10:06:08Z</time></trkpt>
<trkpt lat="54.2984930000" lon="-2.2040200000"><ele>260</ele><time>2013-11-17T10:06:12Z</time></trkpt>
<trkpt lat="54.2984520000" lon="-2.2040270000"><ele>260</ele><time>2013-11-17T10:06:16Z</time></trkpt>
<trkpt lat="54.2984040000" lon="-2.2040380000"><ele>260</ele><time>2013-11-17T10:06:20Z</time></trkpt>
<trkpt lat="54.2983690000" lon="-2.2040600000"><ele>260</ele><time>2013-11-17T10:06:23Z</time></trkpt>
<trkpt lat="54.2983460000" lon="-2.2041000000"><ele>260</ele><time>2013-11-17T10:06:26Z</time></trkpt>
<trkpt lat="54.2983130000" lon="-2.2041530000"><ele>260</ele><time>2013-11-17T10:06:31Z</time></trkpt>
<trkpt lat="54.2982880000" lon="-2.2041880000"><ele>260</ele><time>2013-11-17T10:06:34Z</time></trkpt>
<trkpt lat="54.2982670000" lon="-2.2042080000"><ele>260</ele><time>2013-11-17T10:06:36Z</time></trkpt>
<trkpt lat="54.2982460000" lon="-2.2042310000"><ele>260</ele><time>2013-11-17T10:06:38Z</time></trkpt>
<trkpt lat="54.2982250000" lon="-2.2042610000"><ele>274</ele><time>2013-11-17T10:06:40Z</time></trkpt>
<trkpt lat="54.2982070000" lon="-2.2042880000"><ele>274</ele><time>2013-11-17T10:06:42Z</time></trkpt>
<trkpt lat="54.2981890000" lon="-2.2043100000"><ele>274</ele><time>2013-11-17T10:06:44Z</time></trkpt>
<trkpt lat="54.2981680000" lon="-2.2043330000"><ele>276</ele><time>2013-11-17T10:06:46Z</time></trkpt>
<trkpt lat="54.2981480000" lon="-2.2043540000"><ele>276</ele><time>2013-11-17T10:06:48Z</time></trkpt>
<trkpt lat="54.2981230000" lon="-2.2043780000"><ele>276</ele><time>2013-11-17T10:06:50Z</time></trkpt>
<trkpt lat="54.2980990000" lon="-2.2044000000"><ele>276</ele><time>2013-11-17T10:06:52Z</time></trkpt>
<trkpt lat="54.2980750000" lon="-2.2044110000"><ele>276</ele><time>2013-11-17T10:06:54Z</time></trkpt>
<trkpt lat="54.2980550000" lon="-2.2044240000"><ele>276</ele><time>2013-11-17T10:06:56Z</time></trkpt>
<trkpt lat="54.2980360000" lon="-2.2044350000"><ele>276</ele><time>2013-11-17T10:06:58Z</time></trkpt>
<trkpt lat="54.2980170000" lon="-2.2044420000"><ele>276</ele><time>2013-11-17T10:07:00Z</time></trkpt>
<trkpt lat="54.2979970000" lon="-2.2044440000"><ele>276</ele><time>2013-11-17T10:07:02Z</time></trkpt>
<trkpt lat="54.2979730000" lon="-2.2044410000"><ele>276</ele><time>2013-11-17T10:07:04Z</time></trkpt>
<trkpt lat="54.2979440000" lon="-2.2044430000"><ele>276</ele><time>2013-11-17T10:07:07Z</time></trkpt>
<trkpt lat="54.2979180000" lon="-2.2044490000"><ele>276</ele><time>2013-11-17T10:07:09Z</time></trkpt>
<trkpt lat="54.2978910000" lon="-2.2044520000"><ele>276</ele><time>2013-11-17T10:07:11Z</time></trkpt>
<trkpt lat="54.2978630000" lon="-2.2044560000"><ele>276</ele><time>2013-11-17T10:07:13Z</time></trkpt>
<trkpt lat="54.2978370000" lon="-2.2044600000"><ele>276</ele><time>2013-11-17T10:07:15Z</time></trkpt>
<trkpt lat="54.2978130000" lon="-2.2044790000"><ele>276</ele><time>2013-11-17T10:07:17Z</time></trkpt>
<trkpt lat="54.2977860000" lon="-2.2044950000"><ele>276</ele><time>2013-11-17T10:07:19Z</time></trkpt>
<trkpt lat="54.2977620000" lon="-2.2045160000"><ele>276</ele><time>2013-11-17T10:07:21Z</time></trkpt>
<trkpt lat="54.2977400000" lon="-2.2045430000"><ele>276</ele><time>2013-11-17T10:07:23Z</time></trkpt>
<trkpt lat="54.2977220000" lon="-2.2045770000"><ele>276</ele><time>2013-11-17T10:07:25Z</time></trkpt>
<trkpt lat="54.2977070000" lon="-2.2046160000"><ele>276</ele><time>2013-11-17T10:07:27Z</time></trkpt>
<trkpt lat="54.2976930000" lon="-2.2046530000"><ele>276</ele><time>2013-11-17T10:07:29Z</time></trkpt>
<trkpt lat="54.2976800000" lon="-2.2046900000"><ele>276</ele><time>2013-11-17T10:07:31Z</time></trkpt>
<trkpt lat="54.2976690000" lon="-2.2047220000"><ele>276</ele><time>2013-11-17T10:07:33Z</time></trkpt>
<trkpt lat="54.2976080000" lon="-2.2047280000"><ele>276</ele><time>2013-11-17T10:07:54Z</time></trkpt>
<trkpt lat="54.2975870000" lon="-2.2047020000"><ele>276</ele><time>2013-11-17T10:07:57Z</time></trkpt>
<trkpt lat="54.2975620000" lon="-2.2046770000"><ele>276</ele><time>2013-11-17T10:08:00Z</time></trkpt>
<trkpt lat="54.2975360000" lon="-2.2046560000"><ele>276</ele><time>2013-11-17T10:08:03Z</time></trkpt>
<trkpt lat="54.2975160000" lon="-2.2046390000"><ele>276</ele><time>2013-11-17T10:08:05Z</time></trkpt>
<trkpt lat="54.2974950000" lon="-2.2046260000"><ele>276</ele><time>2013-11-17T10:08:07Z</time></trkpt>
<trkpt lat="54.2974730000" lon="-2.2046150000"><ele>276</ele><time>2013-11-17T10:08:09Z</time></trkpt>
<trkpt lat="54.2974510000" lon="-2.2046060000"><ele>276</ele><time>2013-11-17T10:08:11Z</time></trkpt>
<trkpt lat="54.2974290000" lon="-2.2045950000"><ele>276</ele><time>2013-11-17T10:08:13Z</time></trkpt>
<trkpt lat="54.2974070000" lon="-2.2045860000"><ele>276</ele><time>2013-11-17T10:08:15Z</time></trkpt>
<trkpt lat="54.2973830000" lon="-2.2045720000"><ele>276</ele><time>2013-11-17T10:08:17Z</time></trkpt>
<trkpt lat="54.2973620000" lon="-2.2045600000"><ele>276</ele><time>2013-11-17T10:08:19Z</time></trkpt>
<trkpt lat="54.2973410000" lon="-2.2045500000"><ele>276</ele><time>2013-11-17T10:08:21Z</time></trkpt>
<trkpt lat="54.2973200000" lon="-2.2045360000"><ele>276</ele><time>2013-11-17T10:08:23Z</time></trkpt>
<trkpt lat="54.2972990000" lon="-2.2045210000"><ele>276</ele><time>2013-11-17T10:08:25Z</time></trkpt>
<trkpt lat="54.2972780000" lon="-2.2045090000"><ele>276</ele><time>2013-11-17T10:08:27Z</time></trkpt>
<trkpt lat="54.2972600000" lon="-2.2045050000"><ele>276</ele><time>2013-11-17T10:08:29Z</time></trkpt>
<trkpt lat="54.2972000000" lon="-2.2044580000"><ele>276</ele><time>2013-11-17T10:08:43Z</time></trkpt>
<trkpt lat="54.2971980000" lon="-2.2044560000"><ele>276</ele><time>2013-11-17T10:08:44Z</time></trkpt>
<trkpt lat="54.2971950000" lon="-2.2044510000"><ele>276</ele><time>2013-11-17T10:08:45Z</time></trkpt>
<trkpt lat="54.2971800000" lon="-2.2044390000"><ele>276</ele><time>2013-11-17T10:08:47Z</time></trkpt>
<trkpt lat="54.2971720000" lon="-2.2044340000"><ele>276</ele><time>2013-11-17T10:08:48Z</time></trkpt>
<trkpt lat="54.2971470000" lon="-2.2044240000"><ele>276</ele><time>2013-11-17T10:08:51Z</time></trkpt>
<trkpt lat="54.2971250000" lon="-2.2044080000"><ele>276</ele><time>2013-11-17T10:08:53Z</time></trkpt>
<trkpt lat="54.2971000000" lon="-2.2043920000"><ele>276</ele><time>2013-11-17T10:08:55Z</time></trkpt>
<trkpt lat="54.2970790000" lon="-2.2043740000"><ele>276</ele><time>2013-11-17T10:08:57Z</time></trkpt>
<trkpt lat="54.2970620000" lon="-2.2043500000"><ele>276</ele><time>2013-11-17T10:08:59Z</time></trkpt>
<trkpt lat="54.2970460000" lon="-2.2043320000"><ele>276</ele><time>2013-11-17T10:09:01Z</time></trkpt>
<trkpt lat="54.2970300000" lon="-2.2043130000"><ele>274</ele><time>2013-11-17T10:09:03Z</time></trkpt>
<trkpt lat="54.2970140000" lon="-2.2042970000"><ele>274</ele><time>2013-11-17T10:09:05Z</time></trkpt>
<trkpt lat="54.2969870000" lon="-2.2042770000"><ele>274</ele><time>2013-11-17T10:09:08Z</time></trkpt>
<trkpt lat="54.2969600000" lon="-2.2042600000"><ele>274</ele><time>2013-11-17T10:09:11Z</time></trkpt>
<trkpt lat="54.2969420000" lon="-2.2042480000"><ele>274</ele><time>2013-11-17T10:09:13Z</time></trkpt>
<trkpt lat="54.2969210000" lon="-2.2042350000"><ele>274</ele><time>2013-11-17T10:09:15Z</time></trkpt>
<trkpt lat="54.2969020000" lon="-2.2042240000"><ele>274</ele><time>2013-11-17T10:09:17Z</time></trkpt>
<trkpt lat="54.2968830000" lon="-2.2042070000"><ele>274</ele><time>2013-11-17T10:09:19Z</time></trkpt>
<trkpt lat="54.2968630000" lon="-2.2041930000"><ele>274</ele><time>2013-11-17T10:09:21Z</time></trkpt>
<trkpt lat="54.2968430000" lon="-2.2041790000"><ele>274</ele><time>2013-11-17T10:09:23Z</time></trkpt>
<trkpt lat="54.2968240000" lon="-2.2041650000"><ele>274</ele><time>2013-11-17T10:09:25Z</time></trkpt>
<trkpt lat="54.2968040000" lon="-2.2041490000"><ele>274</ele><time>2013-11-17T10:09:27Z</time></trkpt>
<trkpt lat="54.2967820000" lon="-2.2041380000"><ele>274</ele><time>2013-11-17T10:09:29Z</time></trkpt>
<trkpt lat="54.2967610000" lon="-2.2041310000"><ele>274</ele><time>2013-11-17T10:09:31Z</time></trkpt>
<trkpt lat="54.2967420000" lon="-2.2041220000"><ele>274</ele><time>2013-11-17T10:09:33Z</time></trkpt>
<trkpt lat="54.2967230000" lon="-2.2041090000"><ele>274</ele><time>2013-11-17T10:09:35Z</time></trkpt>
<trkpt lat="54.2967040000" lon="-2.2040990000"><ele>274</ele><time>2013-11-17T10:09:37Z</time></trkpt>
<trkpt lat="54.2966830000" lon="-2.2040890000"><ele>274</ele><time>2013-11-17T10:09:39Z</time></trkpt>
<trkpt lat="54.2966630000" lon="-2.2040760000"><ele>274</ele><time>2013-11-17T10:09:41Z</time></trkpt>
<trkpt lat="54.2966420000" lon="-2.2040610000"><ele>274</ele><time>2013-11-17T10:09:43Z</time></trkpt>
<trkpt lat="54.2966200000" lon="-2.2040460000"><ele>274</ele><time>2013-11-17T10:09:45Z</time></trkpt>
<trkpt lat="54.2966000000" lon="-2.2040350000"><ele>274</ele><time>2013-11-17T10:09:47Z</time></trkpt>
<trkpt lat="54.2965800000" lon="-2.2040250000"><ele>274</ele><time>2013-11-17T10:09:49Z</time></trkpt>
<trkpt lat="54.2965520000" lon="-2.2040350000"><ele>274</ele><time>2013-11-17T10:09:52Z</time></trkpt>
<trkpt lat="54.2965110000" lon="-2.2040810000"><ele>274</ele><time>2013-11-17T10:10:04Z</time></trkpt>
<trkpt lat="54.2965110000" lon="-2.2040920000"><ele>274</ele><time>2013-11-17T10:10:05Z</time></trkpt>
<trkpt lat="54.2965090000" lon="-2.2041090000"><ele>274</ele><time>2013-11-17T10:10:06Z</time></trkpt>
<trkpt lat="54.2965050000" lon="-2.2041240000"><ele>274</ele><time>2013-11-17T10:10:07Z</time></trkpt>
<trkpt lat="54.2964990000" lon="-2.2041400000"><ele>274</ele><time>2013-11-17T10:10:08Z</time></trkpt>
<trkpt lat="54.2964940000" lon="-2.2041520000"><ele>274</ele><time>2013-11-17T10:10:09Z</time></trkpt>
<trkpt lat="54.2964910000" lon="-2.2041640000"><ele>274</ele><time>2013-11-17T10:10:10Z</time></trkpt>
<trkpt lat="54.2964880000" lon="-2.2041800000"><ele>274</ele><time>2013-11-17T10:10:11Z</time></trkpt>
<trkpt lat="54.2964860000" lon="-2.2041990000"><ele>274</ele><time>2013-11-17T10:10:12Z</time></trkpt>
<trkpt lat="54.2964840000" lon="-2.2042170000"><ele>274</ele><time>2013-11-17T10:10:13Z</time></trkpt>
<trkpt lat="54.2964830000" lon="-2.2042360000"><ele>274</ele><time>2013-11-17T10:10:14Z</time></trkpt>
<trkpt lat="54.2964820000" lon="-2.2042520000"><ele>274</ele><time>2013-11-17T10:10:15Z</time></trkpt>
<trkpt lat="54.2964780000" lon="-2.2042690000"><ele>274</ele><time>2013-11-17T10:10:16Z</time></trkpt>
<trkpt lat="54.2964750000" lon="-2.2042830000"><ele>274</ele><time>2013-11-17T10:10:17Z</time></trkpt>
<trkpt lat="54.2964730000" lon="-2.2042940000"><ele>274</ele><time>2013-11-17T10:10:18Z</time></trkpt>
<trkpt lat="54.2964720000" lon="-2.2043000000"><ele>274</ele><time>2013-11-17T10:10:19Z</time></trkpt>
<trkpt lat="54.2964720000" lon="-2.2043060000"><ele>274</ele><time>2013-11-17T10:10:20Z</time></trkpt>
<trkpt lat="54.2964710000" lon="-2.2043160000"><ele>274</ele><time>2013-11-17T10:10:21Z</time></trkpt>
<trkpt lat="54.2964700000" lon="-2.2043310000"><ele>276</ele><time>2013-11-17T10:10:22Z</time></trkpt>
<trkpt lat="54.2964670000" lon="-2.2043520000"><ele>276</ele><time>2013-11-17T10:10:23Z</time></trkpt>
<trkpt lat="54.2964640000" lon="-2.2043710000"><ele>276</ele><time>2013-11-17T10:10:24Z</time></trkpt>
<trkpt lat="54.2964630000" lon="-2.2043860000"><ele>276</ele><time>2013-11-17T10:10:25Z</time></trkpt>
<trkpt lat="54.2964630000" lon="-2.2044010000"><ele>276</ele><time>2013-11-17T10:10:26Z</time></trkpt>
<trkpt lat="54.2964560000" lon="-2.2044520000"><ele>276</ele><time>2013-11-17T10:10:29Z</time></trkpt>
<trkpt lat="54.2964470000" lon="-2.2044960000"><ele>276</ele><time>2013-11-17T10:10:31Z</time></trkpt>
<trkpt lat="54.2964370000" lon="-2.2045390000"><ele>283</ele><time>2013-11-17T10:10:33Z</time></trkpt>
<trkpt lat="54.2964330000" lon="-2.2045890000"><ele>283</ele><time>2013-11-17T10:10:38Z</time></trkpt>
<trkpt lat="54.2964280000" lon="-2.2046480000"><ele>283</ele><time>2013-11-17T10:10:41Z</time></trkpt>
<trkpt lat="54.2964160000" lon="-2.2047100000"><ele>283</ele><time>2013-11-17T10:10:44Z</time></trkpt>
<trkpt lat="54.2964070000" lon="-2.2047770000"><ele>283</ele><time>2013-11-17T10:10:47Z</time></trkpt>
<trkpt lat="54.2963930000" lon="-2.2048420000"><ele>283</ele><time>2013-11-17T10:10:50Z</time></trkpt>
<trkpt lat="54.2963770000" lon="-2.2049130000"><ele>283</ele><time>2013-11-17T10:10:53Z</time></trkpt>
<trkpt lat="54.2963620000" lon="-2.2049860000"><ele>283</ele><time>2013-11-17T10:10:56Z</time></trkpt>
<trkpt lat="54.2963390000" lon="-2.2050510000"><ele>283</ele><time>2013-11-17T10:10:59Z</time></trkpt>
<trkpt lat="54.2963300000" lon="-2.2051020000"><ele>283</ele><time>2013-11-17T10:11:01Z</time></trkpt>
<trkpt lat="54.2963170000" lon="-2.2051640000"><ele>283</ele><time>2013-11-17T10:11:04Z</time></trkpt>
<trkpt lat="54.2963090000" lon="-2.2052230000"><ele>283</ele><time>2013-11-17T10:11:07Z</time></trkpt>
<trkpt lat="54.2963000000" lon="-2.2052900000"><ele>283</ele><time>2013-11-17T10:11:10Z</time></trkpt>
<trkpt lat="54.2962850000" lon="-2.2053540000"><ele>283</ele><time>2013-11-17T10:11:13Z</time></trkpt>
<trkpt lat="54.2962750000" lon="-2.2054180000"><ele>283</ele><time>2013-11-17T10:11:16Z</time></trkpt>
<trkpt lat="54.2962680000" lon="-2.2054700000"><ele>283</ele><time>2013-11-17T10:11:18Z</time></trkpt>
<trkpt lat="54.2962560000" lon="-2.2055160000"><ele>283</ele><time>2013-11-17T10:11:20Z</time></trkpt>
<trkpt lat="54.2962440000" lon="-2.2055820000"><ele>283</ele><time>2013-11-17T10:11:23Z</time></trkpt>
<trkpt lat="54.2962390000" lon="-2.2056320000"><ele>283</ele><time>2013-11-17T10:11:25Z</time></trkpt>
<trkpt lat="54.2962270000" lon="-2.2056930000"><ele>283</ele><time>2013-11-17T10:11:28Z</time></trkpt>
<trkpt lat="54.2962120000" lon="-2.2057460000"><ele>283</ele><time>2013-11-17T10:11:30Z</time></trkpt>
<trkpt lat="54.2961960000" lon="-2.2058000000"><ele>283</ele><time>2013-11-17T10:11:32Z</time></trkpt>
<trkpt lat="54.2961830000" lon="-2.2058640000"><ele>283</ele><time>2013-11-17T10:11:35Z</time></trkpt>
<trkpt lat="54.2961770000" lon="-2.2059250000"><ele>283</ele><time>2013-11-17T10:11:38Z</time></trkpt>
<trkpt lat="54.2961740000" lon="-2.2059860000"><ele>283</ele><time>2013-11-17T10:11:41Z</time></trkpt>
<trkpt lat="54.2961740000" lon="-2.2060480000"><ele>283</ele><time>2013-11-17T10:11:44Z</time></trkpt>
<trkpt lat="54.2961620000" lon="-2.2061150000"><ele>283</ele><time>2013-11-17T10:11:47Z</time></trkpt>
<trkpt lat="54.2961590000" lon="-2.2061790000"><ele>283</ele><time>2013-11-17T10:11:51Z</time></trkpt>
<trkpt lat="54.2961460000" lon="-2.2062410000"><ele>283</ele><time>2013-11-17T10:12:03Z</time></trkpt>
<trkpt lat="54.2961440000" lon="-2.2062950000"><ele>283</ele><time>2013-11-17T10:12:06Z</time></trkpt>
<trkpt lat="54.2961370000" lon="-2.2063550000"><ele>283</ele><time>2013-11-17T10:12:09Z</time></trkpt>
<trkpt lat="54.2961260000" lon="-2.2064100000"><ele>283</ele><time>2013-11-17T10:12:12Z</time></trkpt>
<trkpt lat="54.2961170000" lon="-2.2064780000"><ele>283</ele><time>2013-11-17T10:12:15Z</time></trkpt>
<trkpt lat="54.2961100000" lon="-2.2065290000"><ele>283</ele><time>2013-11-17T10:12:17Z</time></trkpt>
<trkpt lat="54.2961000000" lon="-2.2065830000"><ele>283</ele><time>2013-11-17T10:12:19Z</time></trkpt>
<trkpt lat="54.2960910000" lon="-2.2066340000"><ele>283</ele><time>2013-11-17T10:12:21Z</time></trkpt>
<trkpt lat="54.2960880000" lon="-2.2066970000"><ele>283</ele><time>2013-11-17T10:12:24Z</time></trkpt>
<trkpt lat="54.2960800000" lon="-2.2067470000"><ele>283</ele><time>2013-11-17T10:12:26Z</time></trkpt>
<trkpt lat="54.2960680000" lon="-2.2068000000"><ele>283</ele><time>2013-11-17T10:12:28Z</time></trkpt>
<trkpt lat="54.2960600000" lon="-2.2068450000"><ele>283</ele><time>2013-11-17T10:12:30Z</time></trkpt>
<trkpt lat="54.2960520000" lon="-2.2069110000"><ele>283</ele><time>2013-11-17T10:12:33Z</time></trkpt>
<trkpt lat="54.2960430000" lon="-2.2069580000"><ele>283</ele><time>2013-11-17T10:12:35Z</time></trkpt>
<trkpt lat="54.2960350000" lon="-2.2070010000"><ele>283</ele><time>2013-11-17T10:12:37Z</time></trkpt>
<trkpt lat="54.2960220000" lon="-2.2070440000"><ele>283</ele><time>2013-11-17T10:12:39Z</time></trkpt>
<trkpt lat="54.2960090000" lon="-2.2070890000"><ele>283</ele><time>2013-11-17T10:12:41Z</time></trkpt>
<trkpt lat="54.2959960000" lon="-2.2071390000"><ele>283</ele><time>2013-11-17T10:12:43Z</time></trkpt>
<trkpt lat="54.2959850000" lon="-2.2071900000"><ele>283</ele><time>2013-11-17T10:12:45Z</time></trkpt>
<trkpt lat="54.2959740000" lon="-2.2072550000"><ele>283</ele><time>2013-11-17T10:12:48Z</time></trkpt>
<trkpt lat="54.2959650000" lon="-2.2073010000"><ele>283</ele><time>2013-11-17T10:12:50Z</time></trkpt>
<trkpt lat="54.2959550000" lon="-2.2073720000"><ele>283</ele><time>2013-11-17T10:12:53Z</time></trkpt>
<trkpt lat="54.2959470000" lon="-2.2074190000"><ele>294</ele><time>2013-11-17T10:12:55Z</time></trkpt>
<trkpt lat="54.2959330000" lon="-2.2074840000"><ele>294</ele><time>2013-11-17T10:12:58Z</time></trkpt>
<trkpt lat="54.2959210000" lon="-2.2075280000"><ele>294</ele><time>2013-11-17T10:13:00Z</time></trkpt>
<trkpt lat="54.2959100000" lon="-2.2075850000"><ele>294</ele><time>2013-11-17T10:13:03Z</time></trkpt>
<trkpt lat="54.2959000000" lon="-2.2076450000"><ele>294</ele><time>2013-11-17T10:13:06Z</time></trkpt>
<trkpt lat="54.2958900000" lon="-2.2076910000"><ele>294</ele><time>2013-11-17T10:13:08Z</time></trkpt>
<trkpt lat="54.2958740000" lon="-2.2077480000"><ele>294</ele><time>2013-11-17T10:13:11Z</time></trkpt>
<trkpt lat="54.2958610000" lon="-2.2077890000"><ele>294</ele><time>2013-11-17T10:13:13Z</time></trkpt>
<trkpt lat="54.2958490000" lon="-2.2078350000"><ele>294</ele><time>2013-11-17T10:13:15Z</time></trkpt>
<trkpt lat="54.2958350000" lon="-2.2078910000"><ele>294</ele><time>2013-11-17T10:13:18Z</time></trkpt>
<trkpt lat="54.2958210000" lon="-2.2079410000"><ele>294</ele><time>2013-11-17T10:13:21Z</time></trkpt>
<trkpt lat="54.2958050000" lon="-2.2079910000"><ele>294</ele><time>2013-11-17T10:13:24Z</time></trkpt>
<trkpt lat="54.2957820000" lon="-2.2080630000"><ele>294</ele><time>2013-11-17T10:13:36Z</time></trkpt>
<trkpt lat="54.2958220000" lon="-2.2081010000"><ele>294</ele><time>2013-11-17T10:13:45Z</time></trkpt>
<trkpt lat="54.2958490000" lon="-2.2081300000"><ele>294</ele><time>2013-11-17T10:13:54Z</time></trkpt>
<trkpt lat="54.2958710000" lon="-2.2081530000"><ele>294</ele><time>2013-11-17T10:13:56Z</time></trkpt>
<trkpt lat="54.2958950000" lon="-2.2081750000"><ele>294</ele><time>2013-11-17T10:13:58Z</time></trkpt>
<trkpt lat="54.2959190000" lon="-2.2081910000"><ele>294</ele><time>2013-11-17T10:14:00Z</time></trkpt>
<trkpt lat="54.2959440000" lon="-2.2082070000"><ele>294</ele><time>2013-11-17T10:14:02Z</time></trkpt>
<trkpt lat="54.2959690000" lon="-2.2082240000"><ele>294</ele><time>2013-11-17T10:14:04Z</time></trkpt>
<trkpt lat="54.2959920000" lon="-2.2082500000"><ele>294</ele><time>2013-11-17T10:14:06Z</time></trkpt>
<trkpt lat="54.2960020000" lon="-2.2082950000"><ele>294</ele><time>2013-11-17T10:14:08Z</time></trkpt>
<trkpt lat="54.2960020000" lon="-2.2083430000"><ele>294</ele><time>2013-11-17T10:14:10Z</time></trkpt>
<trkpt lat="54.2959960000" lon="-2.2083920000"><ele>294</ele><time>2013-11-17T10:14:12Z</time></trkpt>
<trkpt lat="54.2959850000" lon="-2.2084390000"><ele>294</ele><time>2013-11-17T10:14:14Z</time></trkpt>
<trkpt lat="54.2959750000" lon="-2.2084870000"><ele>294</ele><time>2013-11-17T10:14:16Z</time></trkpt>
<trkpt lat="54.2959670000" lon="-2.2085350000"><ele>294</ele><time>2013-11-17T10:14:18Z</time></trkpt>
<trkpt lat="54.2959570000" lon="-2.2085850000"><ele>294</ele><time>2013-11-17T10:14:20Z</time></trkpt>
<trkpt lat="54.2959440000" lon="-2.2086310000"><ele>294</ele><time>2013-11-17T10:14:22Z</time></trkpt>
<trkpt lat="54.2959290000" lon="-2.2086750000"><ele>294</ele><time>2013-11-17T10:14:24Z</time></trkpt>
<trkpt lat="54.2959140000" lon="-2.2087220000"><ele>294</ele><time>2013-11-17T10:14:26Z</time></trkpt>
<trkpt lat="54.2959010000" lon="-2.2087640000"><ele>294</ele><time>2013-11-17T10:14:28Z</time></trkpt>
<trkpt lat="54.2958890000" lon="-2.2088030000"><ele>294</ele><time>2013-11-17T10:14:30Z</time></trkpt>
<trkpt lat="54.2958730000" lon="-2.2088430000"><ele>294</ele><time>2013-11-17T10:14:32Z</time></trkpt>
<trkpt lat="54.2958570000" lon="-2.2088840000"><ele>294</ele><time>2013-11-17T10:14:34Z</time></trkpt>
<trkpt lat="54.2958430000" lon="-2.2089240000"><ele>294</ele><time>2013-11-17T10:14:36Z</time></trkpt>
<trkpt lat="54.2958260000" lon="-2.2089690000"><ele>294</ele><time>2013-11-17T10:14:38Z</time></trkpt>
<trkpt lat="54.2958100000" lon="-2.2090110000"><ele>294</ele><time>2013-11-17T10:14:40Z</time></trkpt>
<trkpt lat="54.2957960000" lon="-2.2090490000"><ele>294</ele><time>2013-11-17T10:14:42Z</time></trkpt>
<trkpt lat="54.2957790000" lon="-2.2090890000"><ele>294</ele><time>2013-11-17T10:14:44Z</time></trkpt>
<trkpt lat="54.2957630000" lon="-2.2091280000"><ele>294</ele><time>2013-11-17T10:14:46Z</time></trkpt>
<trkpt lat="54.2957490000" lon="-2.2091680000"><ele>294</ele><time>2013-11-17T10:14:48Z</time></trkpt>
<trkpt lat="54.2957310000" lon="-2.2092080000"><ele>294</ele><time>2013-11-17T10:14:50Z</time></trkpt>
<trkpt lat="54.2957160000" lon="-2.2092450000"><ele>294</ele><time>2013-11-17T10:14:52Z</time></trkpt>
<trkpt lat="54.2957000000" lon="-2.2092840000"><ele>294</ele><time>2013-11-17T10:14:54Z</time></trkpt>
<trkpt lat="54.2956790000" lon="-2.2093350000"><ele>294</ele><time>2013-11-17T10:14:57Z</time></trkpt>
<trkpt lat="54.2956610000" lon="-2.2093910000"><ele>294</ele><time>2013-11-17T10:15:00Z</time></trkpt>
<trkpt lat="54.2956450000" lon="-2.2094320000"><ele>294</ele><time>2013-11-17T10:15:02Z</time></trkpt>
<trkpt lat="54.2956280000" lon="-2.2094710000"><ele>294</ele><time>2013-11-17T10:15:04Z</time></trkpt>
<trkpt lat="54.2956130000" lon="-2.2095130000"><ele>294</ele><time>2013-11-17T10:15:06Z</time></trkpt>
<trkpt lat="54.2955960000" lon="-2.2095550000"><ele>294</ele><time>2013-11-17T10:15:08Z</time></trkpt>
<trkpt lat="54.2955800000" lon="-2.2095980000"><ele>294</ele><time>2013-11-17T10:15:10Z</time></trkpt>
<trkpt lat="54.2955660000" lon="-2.2096390000"><ele>294</ele><time>2013-11-17T10:15:12Z</time></trkpt>
<trkpt lat="54.2955530000" lon="-2.2096770000"><ele>294</ele><time>2013-11-17T10:15:14Z</time></trkpt>
<trkpt lat="54.2955400000" lon="-2.2097120000"><ele>294</ele><time>2013-11-17T10:15:16Z</time></trkpt>
<trkpt lat="54.2955250000" lon="-2.2097460000"><ele>294</ele><time>2013-11-17T10:15:18Z</time></trkpt>
<trkpt lat="54.2955120000" lon="-2.2097750000"><ele>294</ele><time>2013-11-17T10:15:19Z</time></trkpt>
<trkpt lat="54.2955040000" lon="-2.2097920000"><ele>294</ele><time>2013-11-17T10:15:20Z</time></trkpt>
<trkpt lat="54.2954970000" lon="-2.2098110000"><ele>294</ele><time>2013-11-17T10:15:21Z</time></trkpt>
<trkpt lat="54.2954890000" lon="-2.2098310000"><ele>294</ele><time>2013-11-17T10:15:22Z</time></trkpt>
<trkpt lat="54.2954820000" lon="-2.2098510000"><ele>294</ele><time>2013-11-17T10:15:23Z</time></trkpt>
<trkpt lat="54.2954740000" lon="-2.2098720000"><ele>294</ele><time>2013-11-17T10:15:24Z</time></trkpt>
<trkpt lat="54.2954660000" lon="-2.2098910000"><ele>294</ele><time>2013-11-17T10:15:25Z</time></trkpt>
<trkpt lat="54.2954580000" lon="-2.2099090000"><ele>294</ele><time>2013-11-17T10:15:26Z</time></trkpt>
<trkpt lat="54.2954490000" lon="-2.2099280000"><ele>294</ele><time>2013-11-17T10:15:27Z</time></trkpt>
<trkpt lat="54.2954410000" lon="-2.2099470000"><ele>294</ele><time>2013-11-17T10:15:28Z</time></trkpt>
<trkpt lat="54.2954340000" lon="-2.2099620000"><ele>294</ele><time>2013-11-17T10:15:29Z</time></trkpt>
<trkpt lat="54.2954280000" lon="-2.2099770000"><ele>294</ele><time>2013-11-17T10:15:30Z</time></trkpt>
<trkpt lat="54.2954220000" lon="-2.2099950000"><ele>294</ele><time>2013-11-17T10:15:31Z</time></trkpt>
<trkpt lat="54.2954140000" lon="-2.2100120000"><ele>294</ele><time>2013-11-17T10:15:32Z</time></trkpt>
<trkpt lat="54.2954070000" lon="-2.2100300000"><ele>294</ele><time>2013-11-17T10:15:33Z</time></trkpt>
<trkpt lat="54.2953940000" lon="-2.2100610000"><ele>294</ele><time>2013-11-17T10:15:35Z</time></trkpt>
<trkpt lat="54.2953780000" lon="-2.2101010000"><ele>294</ele><time>2013-11-17T10:15:37Z</time></trkpt>
<trkpt lat="54.2953600000" lon="-2.2101410000"><ele>294</ele><time>2013-11-17T10:15:39Z</time></trkpt>
<trkpt lat="54.2953510000" lon="-2.2101780000"><ele>294</ele><time>2013-11-17T10:15:41Z</time></trkpt>
<trkpt lat="54.2953380000" lon="-2.2102160000"><ele>294</ele><time>2013-11-17T10:15:43Z</time></trkpt>
<trkpt lat="54.2953240000" lon="-2.2102480000"><ele>294</ele><time>2013-11-17T10:15:45Z</time></trkpt>
<trkpt lat="54.2953130000" lon="-2.2102850000"><ele>294</ele><time>2013-11-17T10:15:47Z</time></trkpt>
<trkpt lat="54.2952930000" lon="-2.2103350000"><ele>294</ele><time>2013-11-17T10:15:50Z</time></trkpt>
<trkpt lat="54.2952740000" lon="-2.2103810000"><ele>294</ele><time>2013-11-17T10:15:52Z</time></trkpt>
<trkpt lat="54.2952590000" lon="-2.2104240000"><ele>294</ele><time>2013-11-17T10:15:54Z</time></trkpt>
<trkpt lat="54.2952470000" lon="-2.2104690000"><ele>303</ele><time>2013-11-17T10:15:56Z</time></trkpt>
<trkpt lat="54.2952370000" lon="-2.2105130000"><ele>303</ele><time>2013-11-17T10:15:58Z</time></trkpt>
<trkpt lat="54.2952270000" lon="-2.2105490000"><ele>303</ele><time>2013-11-17T10:16:00Z</time></trkpt>
<trkpt lat="54.2952110000" lon="-2.2105970000"><ele>303</ele><time>2013-11-17T10:16:03Z</time></trkpt>
<trkpt lat="54.2952010000" lon="-2.2106340000"><ele>303</ele><time>2013-11-17T10:16:05Z</time></trkpt>
<trkpt lat="54.2951910000" lon="-2.2106680000"><ele>303</ele><time>2013-11-17T10:16:07Z</time></trkpt>
<trkpt lat="54.2951770000" lon="-2.2107010000"><ele>303</ele><time>2013-11-17T10:16:09Z</time></trkpt>
<trkpt lat="54.2951620000" lon="-2.2107510000"><ele>303</ele><time>2013-11-17T10:16:12Z</time></trkpt>
<trkpt lat="54.2951480000" lon="-2.2107850000"><ele>303</ele><time>2013-11-17T10:16:14Z</time></trkpt>
<trkpt lat="54.2951340000" lon="-2.2108240000"><ele>303</ele><time>2013-11-17T10:16:16Z</time></trkpt>
<trkpt lat="54.2951260000" lon="-2.2108630000"><ele>303</ele><time>2013-11-17T10:16:18Z</time></trkpt>
<trkpt lat="54.2951190000" lon="-2.2109070000"><ele>303</ele><time>2013-11-17T10:16:20Z</time></trkpt>
<trkpt lat="54.2951090000" lon="-2.2109500000"><ele>303</ele><time>2013-11-17T10:16:22Z</time></trkpt>
<trkpt lat="54.2951020000" lon="-2.2109860000"><ele>303</ele><time>2013-11-17T10:16:24Z</time></trkpt>
<trkpt lat="54.2950960000" lon="-2.2110440000"><ele>303</ele><time>2013-11-17T10:16:27Z</time></trkpt>
<trkpt lat="54.2950890000" lon="-2.2110830000"><ele>303</ele><time>2013-11-17T10:16:29Z</time></trkpt>
<trkpt lat="54.2950820000" lon="-2.2111210000"><ele>303</ele><time>2013-11-17T10:16:31Z</time></trkpt>
<trkpt lat="54.2950670000" lon="-2.2111580000"><ele>303</ele><time>2013-11-17T10:16:33Z</time></trkpt>
<trkpt lat="54.2950560000" lon="-2.2111940000"><ele>303</ele><time>2013-11-17T10:16:35Z</time></trkpt>
<trkpt lat="54.2950460000" lon="-2.2112420000"><ele>303</ele><time>2013-11-17T10:16:38Z</time></trkpt>
<trkpt lat="54.2950350000" lon="-2.2112930000"><ele>303</ele><time>2013-11-17T10:16:41Z</time></trkpt>
<trkpt lat="54.2950270000" lon="-2.2113460000"><ele>303</ele><time>2013-11-17T10:16:44Z</time></trkpt>
<trkpt lat="54.2950190000" lon="-2.2113860000"><ele>303</ele><time>2013-11-17T10:16:46Z</time></trkpt>
<trkpt lat="54.2950040000" lon="-2.2114330000"><ele>303</ele><time>2013-11-17T10:16:49Z</time></trkpt>
<trkpt lat="54.2949910000" lon="-2.2114760000"><ele>303</ele><time>2013-11-17T10:16:52Z</time></trkpt>
<trkpt lat="54.2949800000" lon="-2.2115300000"><ele>303</ele><time>2013-11-17T10:16:55Z</time></trkpt>
<trkpt lat="54.2949680000" lon="-2.2115800000"><ele>303</ele><time>2013-11-17T10:16:58Z</time></trkpt>
<trkpt lat="54.2949580000" lon="-2.2116290000"><ele>303</ele><time>2013-11-17T10:17:01Z</time></trkpt>
<trkpt lat="54.2949500000" lon="-2.2116640000"><ele>303</ele><time>2013-11-17T10:17:03Z</time></trkpt>
<trkpt lat="54.2949430000" lon="-2.2117020000"><ele>303</ele><time>2013-11-17T10:17:05Z</time></trkpt>
<trkpt lat="54.2949320000" lon="-2.2117440000"><ele>303</ele><time>2013-11-17T10:17:07Z</time></trkpt>
<trkpt lat="54.2949220000" lon="-2.2117910000"><ele>303</ele><time>2013-11-17T10:17:09Z</time></trkpt>
<trkpt lat="54.2949120000" lon="-2.2118300000"><ele>303</ele><time>2013-11-17T10:17:11Z</time></trkpt>
<trkpt lat="54.2949000000" lon="-2.2118620000"><ele>303</ele><time>2013-11-17T10:17:13Z</time></trkpt>
<trkpt lat="54.2948870000" lon="-2.2118990000"><ele>303</ele><time>2013-11-17T10:17:15Z</time></trkpt>
<trkpt lat="54.2948760000" lon="-2.2119350000"><ele>303</ele><time>2013-11-17T10:17:17Z</time></trkpt>
<trkpt lat="54.2948630000" lon="-2.2119760000"><ele>303</ele><time>2013-11-17T10:17:19Z</time></trkpt>
<trkpt lat="54.2948540000" lon="-2.2120150000"><ele>303</ele><time>2013-11-17T10:17:21Z</time></trkpt>
<trkpt lat="54.2948460000" lon="-2.2120570000"><ele>303</ele><time>2013-11-17T10:17:23Z</time></trkpt>
<trkpt lat="54.2948400000" lon="-2.2120950000"><ele>303</ele><time>2013-11-17T10:17:25Z</time></trkpt>
<trkpt lat="54.2948330000" lon="-2.2121340000"><ele>303</ele><time>2013-11-17T10:17:27Z</time></trkpt>
<trkpt lat="54.2948260000" lon="-2.2121750000"><ele>303</ele><time>2013-11-17T10:17:29Z</time></trkpt>
<trkpt lat="54.2948180000" lon="-2.2122250000"><ele>303</ele><time>2013-11-17T10:17:32Z</time></trkpt>
<trkpt lat="54.2948050000" lon="-2.2122730000"><ele>303</ele><time>2013-11-17T10:17:35Z</time></trkpt>
<trkpt lat="54.2947950000" lon="-2.2123070000"><ele>303</ele><time>2013-11-17T10:17:37Z</time></trkpt>
<trkpt lat="54.2947860000" lon="-2.2123450000"><ele>303</ele><time>2013-11-17T10:17:39Z</time></trkpt>
<trkpt lat="54.2947760000" lon="-2.2123850000"><ele>303</ele><time>2013-11-17T10:17:41Z</time></trkpt>
<trkpt lat="54.2947670000" lon="-2.2124250000"><ele>303</ele><time>2013-11-17T10:17:43Z</time></trkpt>
<trkpt lat="54.2947580000" lon="-2.2124650000"><ele>303</ele><time>2013-11-17T10:17:45Z</time></trkpt>
<trkpt lat="54.2947500000" lon="-2.2125010000"><ele>303</ele><time>2013-11-17T10:17:47Z</time></trkpt>
<trkpt lat="54.2947410000" lon="-2.2125370000"><ele>303</ele><time>2013-11-17T10:17:49Z</time></trkpt>
<trkpt lat="54.2947330000" lon="-2.2125710000"><ele>303</ele><time>2013-11-17T10:17:51Z</time></trkpt>
<trkpt lat="54.2947260000" lon="-2.2126100000"><ele>303</ele><time>2013-11-17T10:17:53Z</time></trkpt>
<trkpt lat="54.2947160000" lon="-2.2126490000"><ele>303</ele><time>2013-11-17T10:17:55Z</time></trkpt>
<trkpt lat="54.2947040000" lon="-2.2126900000"><ele>303</ele><time>2013-11-17T10:17:57Z</time></trkpt>
<trkpt lat="54.2946910000" lon="-2.2127300000"><ele>303</ele><time>2013-11-17T10:17:59Z</time></trkpt>
<trkpt lat="54.2946800000" lon="-2.2127690000"><ele>303</ele><time>2013-11-17T10:18:01Z</time></trkpt>
<trkpt lat="54.2946690000" lon="-2.2128110000"><ele>303</ele><time>2013-11-17T10:18:03Z</time></trkpt>
<trkpt lat="54.2946600000" lon="-2.2128550000"><ele>303</ele><time>2013-11-17T10:18:05Z</time></trkpt>
<trkpt lat="54.2946520000" lon="-2.2128970000"><ele>303</ele><time>2013-11-17T10:18:07Z</time></trkpt>
<trkpt lat="54.2946450000" lon="-2.2129420000"><ele>303</ele><time>2013-11-17T10:18:09Z</time></trkpt>
<trkpt lat="54.2946370000" lon="-2.2129930000"><ele>303</ele><time>2013-11-17T10:18:12Z</time></trkpt>
<trkpt lat="54.2946280000" lon="-2.2130400000"><ele>303</ele><time>2013-11-17T10:18:15Z</time></trkpt>
<trkpt lat="54.2946180000" lon="-2.2130890000"><ele>321</ele><time>2013-11-17T10:18:18Z</time></trkpt>
<trkpt lat="54.2946100000" lon="-2.2131390000"><ele>321</ele><time>2013-11-17T10:18:21Z</time></trkpt>
<trkpt lat="54.2945990000" lon="-2.2131800000"><ele>321</ele><time>2013-11-17T10:18:23Z</time></trkpt>
<trkpt lat="54.2945870000" lon="-2.2132170000"><ele>321</ele><time>2013-11-17T10:18:25Z</time></trkpt>
<trkpt lat="54.2945790000" lon="-2.2132450000"><ele>321</ele><time>2013-11-17T10:18:26Z</time></trkpt>
<trkpt lat="54.2945750000" lon="-2.2132630000"><ele>321</ele><time>2013-11-17T10:18:27Z</time></trkpt>
<trkpt lat="54.2945700000" lon="-2.2132830000"><ele>321</ele><time>2013-11-17T10:18:28Z</time></trkpt>
<trkpt lat="54.2945650000" lon="-2.2133010000"><ele>321</ele><time>2013-11-17T10:18:29Z</time></trkpt>
<trkpt lat="54.2945600000" lon="-2.2133210000"><ele>321</ele><time>2013-11-17T10:18:30Z</time></trkpt>
<trkpt lat="54.2945550000" lon="-2.2133420000"><ele>321</ele><time>2013-11-17T10:18:31Z</time></trkpt>
<trkpt lat="54.2945500000" lon="-2.2133600000"><ele>321</ele><time>2013-11-17T10:18:32Z</time></trkpt>
<trkpt lat="54.2945460000" lon="-2.2133780000"><ele>321</ele><time>2013-11-17T10:18:33Z</time></trkpt>
<trkpt lat="54.2945420000" lon="-2.2133960000"><ele>321</ele><time>2013-11-17T10:18:34Z</time></trkpt>
<trkpt lat="54.2945370000" lon="-2.2134140000"><ele>321</ele><time>2013-11-17T10:18:35Z</time></trkpt>
<trkpt lat="54.2945320000" lon="-2.2134310000"><ele>321</ele><time>2013-11-17T10:18:36Z</time></trkpt>
<trkpt lat="54.2945280000" lon="-2.2134480000"><ele>321</ele><time>2013-11-17T10:18:37Z</time></trkpt>
<trkpt lat="54.2945240000" lon="-2.2134650000"><ele>321</ele><time>2013-11-17T10:18:38Z</time></trkpt>
<trkpt lat="54.2945200000" lon="-2.2134840000"><ele>321</ele><time>2013-11-17T10:18:39Z</time></trkpt>
<trkpt lat="54.2945170000" lon="-2.2135050000"><ele>321</ele><time>2013-11-17T10:18:40Z</time></trkpt>
<trkpt lat="54.2945130000" lon="-2.2135240000"><ele>321</ele><time>2013-11-17T10:18:41Z</time></trkpt>
<trkpt lat="54.2945080000" lon="-2.2135430000"><ele>331</ele><time>2013-11-17T10:18:42Z</time></trkpt>
<trkpt lat="54.2945040000" lon="-2.2135620000"><ele>331</ele><time>2013-11-17T10:18:43Z</time></trkpt>
<trkpt lat="54.2944990000" lon="-2.2135830000"><ele>331</ele><time>2013-11-17T10:18:44Z</time></trkpt>
<trkpt lat="54.2944960000" lon="-2.2136040000"><ele>331</ele><time>2013-11-17T10:18:45Z</time></trkpt>
<trkpt lat="54.2944910000" lon="-2.2136240000"><ele>331</ele><time>2013-11-17T10:18:46Z</time></trkpt>
<trkpt lat="54.2944860000" lon="-2.2136430000"><ele>331</ele><time>2013-11-17T10:18:47Z</time></trkpt>
<trkpt lat="54.2944830000" lon="-2.2136630000"><ele>331</ele><time>2013-11-17T10:18:48Z</time></trkpt>
<trkpt lat="54.2944790000" lon="-2.2136820000"><ele>331</ele><time>2013-11-17T10:18:49Z</time></trkpt>
<trkpt lat="54.2944750000" lon="-2.2137020000"><ele>331</ele><time>2013-11-17T10:18:50Z</time></trkpt>
<trkpt lat="54.2944710000" lon="-2.2137210000"><ele>331</ele><time>2013-11-17T10:18:51Z</time></trkpt>
<trkpt lat="54.2944660000" lon="-2.2137410000"><ele>331</ele><time>2013-11-17T10:18:52Z</time></trkpt>
<trkpt lat="54.2944600000" lon="-2.2137580000"><ele>331</ele><time>2013-11-17T10:18:53Z</time></trkpt>
<trkpt lat="54.2944550000" lon="-2.2137780000"><ele>331</ele><time>2013-11-17T10:18:54Z</time></trkpt>
<trkpt lat="54.2944510000" lon="-2.2138000000"><ele>331</ele><time>2013-11-17T10:18:55Z</time></trkpt>
<trkpt lat="54.2944490000" lon="-2.2138200000"><ele>331</ele><time>2013-11-17T10:18:56Z</time></trkpt>
<trkpt lat="54.2944470000" lon="-2.2138410000"><ele>331</ele><time>2013-11-17T10:18:57Z</time></trkpt>
<trkpt lat="54.2944440000" lon="-2.2138610000"><ele>331</ele><time>2013-11-17T10:18:58Z</time></trkpt>
<trkpt lat="54.2944400000" lon="-2.2138820000"><ele>331</ele><time>2013-11-17T10:18:59Z</time></trkpt>
<trkpt lat="54.2944350000" lon="-2.2139040000"><ele>331</ele><time>2013-11-17T10:19:00Z</time></trkpt>
<trkpt lat="54.2944300000" lon="-2.2139250000"><ele>331</ele><time>2013-11-17T10:19:01Z</time></trkpt>
<trkpt lat="54.2944260000" lon="-2.2139450000"><ele>331</ele><time>2013-11-17T10:19:02Z</time></trkpt>
<trkpt lat="54.2944220000" lon="-2.2139650000"><ele>331</ele><time>2013-11-17T10:19:03Z</time></trkpt>
<trkpt lat="54.2944160000" lon="-2.2139840000"><ele>331</ele><time>2013-11-17T10:19:04Z</time></trkpt>
<trkpt lat="54.2944110000" lon="-2.2140060000"><ele>331</ele><time>2013-11-17T10:19:05Z</time></trkpt>
<trkpt lat="54.2944040000" lon="-2.2140280000"><ele>331</ele><time>2013-11-17T10:19:06Z</time></trkpt>
<trkpt lat="54.2943990000" lon="-2.2140480000"><ele>331</ele><time>2013-11-17T10:19:07Z</time></trkpt>
<trkpt lat="54.2943930000" lon="-2.2140680000"><ele>331</ele><time>2013-11-17T10:19:08Z</time></trkpt>
<trkpt lat="54.2943880000" lon="-2.2140890000"><ele>331</ele><time>2013-11-17T10:19:09Z</time></trkpt>
<trkpt lat="54.2943820000" lon="-2.2141110000"><ele>331</ele><time>2013-11-17T10:19:10Z</time></trkpt>
<trkpt lat="54.2943770000" lon="-2.2141310000"><ele>331</ele><time>2013-11-17T10:19:11Z</time></trkpt>
<trkpt lat="54.2943720000" lon="-2.2141520000"><ele>331</ele><time>2013-11-17T10:19:12Z</time></trkpt>
<trkpt lat="54.2943670000" lon="-2.2141730000"><ele>331</ele><time>2013-11-17T10:19:13Z</time></trkpt>
<trkpt lat="54.2943620000" lon="-2.2141950000"><ele>331</ele><time>2013-11-17T10:19:14Z</time></trkpt>
<trkpt lat="54.2943580000" lon="-2.2142170000"><ele>331</ele><time>2013-11-17T10:19:15Z</time></trkpt>
<trkpt lat="54.2943530000" lon="-2.2142400000"><ele>331</ele><time>2013-11-17T10:19:16Z</time></trkpt>
<trkpt lat="54.2943480000" lon="-2.2142600000"><ele>331</ele><time>2013-11-17T10:19:17Z</time></trkpt>
<trkpt lat="54.2943430000" lon="-2.2142830000"><ele>331</ele><time>2013-11-17T10:19:18Z</time></trkpt>
<trkpt lat="54.2943390000" lon="-2.2143050000"><ele>331</ele><time>2013-11-17T10:19:19Z</time></trkpt>
<trkpt lat="54.2943350000" lon="-2.2143260000"><ele>331</ele><time>2013-11-17T10:19:20Z</time></trkpt>
<trkpt lat="54.2943320000" lon="-2.2143460000"><ele>331</ele><time>2013-11-17T10:19:21Z</time></trkpt>
<trkpt lat="54.2943280000" lon="-2.2143660000"><ele>331</ele><time>2013-11-17T10:19:22Z</time></trkpt>
<trkpt lat="54.2943220000" lon="-2.2143860000"><ele>331</ele><time>2013-11-17T10:19:23Z</time></trkpt>
<trkpt lat="54.2943180000" lon="-2.2144050000"><ele>331</ele><time>2013-11-17T10:19:24Z</time></trkpt>
<trkpt lat="54.2943130000" lon="-2.2144260000"><ele>331</ele><time>2013-11-17T10:19:25Z</time></trkpt>
<trkpt lat="54.2943060000" lon="-2.2144470000"><ele>331</ele><time>2013-11-17T10:19:26Z</time></trkpt>
<trkpt lat="54.2943000000" lon="-2.2144690000"><ele>331</ele><time>2013-11-17T10:19:27Z</time></trkpt>
<trkpt lat="54.2942940000" lon="-2.2144900000"><ele>331</ele><time>2013-11-17T10:19:28Z</time></trkpt>
<trkpt lat="54.2942890000" lon="-2.2145130000"><ele>331</ele><time>2013-11-17T10:19:29Z</time></trkpt>
<trkpt lat="54.2942850000" lon="-2.2145360000"><ele>331</ele><time>2013-11-17T10:19:30Z</time></trkpt>
<trkpt lat="54.2942810000" lon="-2.2145590000"><ele>331</ele><time>2013-11-17T10:19:31Z</time></trkpt>
<trkpt lat="54.2942760000" lon="-2.2145810000"><ele>331</ele><time>2013-11-17T10:19:32Z</time></trkpt>
<trkpt lat="54.2942700000" lon="-2.2146040000"><ele>331</ele><time>2013-11-17T10:19:33Z</time></trkpt>
<trkpt lat="54.2942640000" lon="-2.2146270000"><ele>331</ele><time>2013-11-17T10:19:34Z</time></trkpt>
<trkpt lat="54.2942590000" lon="-2.2146490000"><ele>331</ele><time>2013-11-17T10:19:35Z</time></trkpt>
<trkpt lat="54.2942550000" lon="-2.2146710000"><ele>331</ele><time>2013-11-17T10:19:36Z</time></trkpt>
<trkpt lat="54.2942500000" lon="-2.2146910000"><ele>331</ele><time>2013-11-17T10:19:37Z</time></trkpt>
<trkpt lat="54.2942440000" lon="-2.2147140000"><ele>331</ele><time>2013-11-17T10:19:38Z</time></trkpt>
<trkpt lat="54.2942380000" lon="-2.2147360000"><ele>331</ele><time>2013-11-17T10:19:39Z</time></trkpt>
<trkpt lat="54.2942320000" lon="-2.2147580000"><ele>331</ele><time>2013-11-17T10:19:40Z</time></trkpt>
<trkpt lat="54.2942270000" lon="-2.2147800000"><ele>331</ele><time>2013-11-17T10:19:41Z</time></trkpt>
<trkpt lat="54.2942210000" lon="-2.2148020000"><ele>331</ele><time>2013-11-17T10:19:42Z</time></trkpt>
<trkpt lat="54.2942150000" lon="-2.2148220000"><ele>331</ele><time>2013-11-17T10:19:43Z</time></trkpt>
<trkpt lat="54.2942080000" lon="-2.2148440000"><ele>331</ele><time>2013-11-17T10:19:44Z</time></trkpt>
<trkpt lat="54.2942010000" lon="-2.2148650000"><ele>331</ele><time>2013-11-17T10:19:45Z</time></trkpt>
<trkpt lat="54.2941940000" lon="-2.2148860000"><ele>331</ele><time>2013-11-17T10:19:46Z</time></trkpt>
<trkpt lat="54.2941860000" lon="-2.2149080000"><ele>331</ele><time>2013-11-17T10:19:47Z</time></trkpt>
<trkpt lat="54.2941770000" lon="-2.2149280000"><ele>331</ele><time>2013-11-17T10:19:48Z</time></trkpt>
<trkpt lat="54.2941700000" lon="-2.2149500000"><ele>331</ele><time>2013-11-17T10:19:49Z</time></trkpt>
<trkpt lat="54.2941620000" lon="-2.2149700000"><ele>331</ele><time>2013-11-17T10:19:50Z</time></trkpt>
<trkpt lat="54.2941550000" lon="-2.2149910000"><ele>331</ele><time>2013-11-17T10:19:51Z</time></trkpt>
<trkpt lat="54.2941480000" lon="-2.2150110000"><ele>331</ele><time>2013-11-17T10:19:52Z</time></trkpt>
<trkpt lat="54.2941410000" lon="-2.2150310000"><ele>331</ele><time>2013-11-17T10:19:53Z</time></trkpt>
<trkpt lat="54.2941330000" lon="-2.2150510000"><ele>331</ele><time>2013-11-17T10:19:54Z</time></trkpt>
<trkpt lat="54.2941260000" lon="-2.2150710000"><ele>331</ele><time>2013-11-17T10:19:55Z</time></trkpt>
<trkpt lat="54.2941180000" lon="-2.2150930000"><ele>331</ele><time>2013-11-17T10:19:56Z</time></trkpt>
<trkpt lat="54.2941100000" lon="-2.2151150000"><ele>331</ele><time>2013-11-17T10:19:57Z</time></trkpt>
<trkpt lat="54.2941030000" lon="-2.2151370000"><ele>331</ele><time>2013-11-17T10:19:58Z</time></trkpt>
<trkpt lat="54.2940950000" lon="-2.2151580000"><ele>331</ele><time>2013-11-17T10:19:59Z</time></trkpt>
<trkpt lat="54.2940890000" lon="-2.2151780000"><ele>331</ele><time>2013-11-17T10:20:00Z</time></trkpt>
<trkpt lat="54.2940820000" lon="-2.2151980000"><ele>331</ele><time>2013-11-17T10:20:01Z</time></trkpt>
<trkpt lat="54.2940760000" lon="-2.2152180000"><ele>331</ele><time>2013-11-17T10:20:02Z</time></trkpt>
<trkpt lat="54.2940680000" lon="-2.2152400000"><ele>331</ele><time>2013-11-17T10:20:03Z</time></trkpt>
<trkpt lat="54.2940580000" lon="-2.2152630000"><ele>331</ele><time>2013-11-17T10:20:04Z</time></trkpt>
<trkpt lat="54.2940490000" lon="-2.2152850000"><ele>331</ele><time>2013-11-17T10:20:05Z</time></trkpt>
<trkpt lat="54.2940400000" lon="-2.2153080000"><ele>331</ele><time>2013-11-17T10:20:06Z</time></trkpt>
<trkpt lat="54.2940320000" lon="-2.2153300000"><ele>331</ele><time>2013-11-17T10:20:07Z</time></trkpt>
<trkpt lat="54.2940240000" lon="-2.2153510000"><ele>331</ele><time>2013-11-17T10:20:08Z</time></trkpt>
<trkpt lat="54.2940160000" lon="-2.2153720000"><ele>331</ele><time>2013-11-17T10:20:09Z</time></trkpt>
<trkpt lat="54.2940080000" lon="-2.2153930000"><ele>331</ele><time>2013-11-17T10:20:10Z</time></trkpt>
<trkpt lat="54.2940020000" lon="-2.2154140000"><ele>331</ele><time>2013-11-17T10:20:11Z</time></trkpt>
<trkpt lat="54.2939950000" lon="-2.2154330000"><ele>331</ele><time>2013-11-17T10:20:12Z</time></trkpt>
<trkpt lat="54.2939900000" lon="-2.2154530000"><ele>331</ele><time>2013-11-17T10:20:13Z</time></trkpt>
<trkpt lat="54.2939840000" lon="-2.2154730000"><ele>331</ele><time>2013-11-17T10:20:14Z</time></trkpt>
<trkpt lat="54.2939780000" lon="-2.2154950000"><ele>331</ele><time>2013-11-17T10:20:15Z</time></trkpt>
<trkpt lat="54.2939710000" lon="-2.2155190000"><ele>331</ele><time>2013-11-17T10:20:16Z</time></trkpt>
<trkpt lat="54.2939650000" lon="-2.2155420000"><ele>331</ele><time>2013-11-17T10:20:17Z</time></trkpt>
<trkpt lat="54.2939580000" lon="-2.2155620000"><ele>331</ele><time>2013-11-17T10:20:18Z</time></trkpt>
<trkpt lat="54.2939510000" lon="-2.2155810000"><ele>331</ele><time>2013-11-17T10:20:19Z</time></trkpt>
<trkpt lat="54.2939430000" lon="-2.2155990000"><ele>331</ele><time>2013-11-17T10:20:20Z</time></trkpt>
<trkpt lat="54.2939350000" lon="-2.2156190000"><ele>331</ele><time>2013-11-17T10:20:21Z</time></trkpt>
<trkpt lat="54.2939290000" lon="-2.2156390000"><ele>331</ele><time>2013-11-17T10:20:22Z</time></trkpt>
<trkpt lat="54.2939230000" lon="-2.2156580000"><ele>331</ele><time>2013-11-17T10:20:23Z</time></trkpt>
<trkpt lat="54.2939160000" lon="-2.2156760000"><ele>331</ele><time>2013-11-17T10:20:24Z</time></trkpt>
<trkpt lat="54.2939090000" lon="-2.2156950000"><ele>331</ele><time>2013-11-17T10:20:25Z</time></trkpt>
<trkpt lat="54.2939020000" lon="-2.2157140000"><ele>331</ele><time>2013-11-17T10:20:26Z</time></trkpt>
<trkpt lat="54.2938960000" lon="-2.2157340000"><ele>331</ele><time>2013-11-17T10:20:27Z</time></trkpt>
<trkpt lat="54.2938890000" lon="-2.2157540000"><ele>331</ele><time>2013-11-17T10:20:28Z</time></trkpt>
<trkpt lat="54.2938820000" lon="-2.2157730000"><ele>331</ele><time>2013-11-17T10:20:29Z</time></trkpt>
<trkpt lat="54.2938750000" lon="-2.2157930000"><ele>331</ele><time>2013-11-17T10:20:30Z</time></trkpt>
<trkpt lat="54.2938680000" lon="-2.2158120000"><ele>331</ele><time>2013-11-17T10:20:31Z</time></trkpt>
<trkpt lat="54.2938610000" lon="-2.2158330000"><ele>331</ele><time>2013-11-17T10:20:32Z</time></trkpt>
<trkpt lat="54.2938540000" lon="-2.2158520000"><ele>331</ele><time>2013-11-17T10:20:33Z</time></trkpt>
<trkpt lat="54.2938460000" lon="-2.2158710000"><ele>331</ele><time>2013-11-17T10:20:34Z</time></trkpt>
<trkpt lat="54.2938390000" lon="-2.2158890000"><ele>331</ele><time>2013-11-17T10:20:35Z</time></trkpt>
<trkpt lat="54.2938310000" lon="-2.2159090000"><ele>331</ele><time>2013-11-17T10:20:36Z</time></trkpt>
<trkpt lat="54.2938220000" lon="-2.2159280000"><ele>331</ele><time>2013-11-17T10:20:37Z</time></trkpt>
<trkpt lat="54.2938160000" lon="-2.2159480000"><ele>331</ele><time>2013-11-17T10:20:38Z</time></trkpt>
<trkpt lat="54.2938100000" lon="-2.2159680000"><ele>331</ele><time>2013-11-17T10:20:39Z</time></trkpt>
<trkpt lat="54.2938020000" lon="-2.2159870000"><ele>331</ele><time>2013-11-17T10:20:40Z</time></trkpt>
<trkpt lat="54.2937940000" lon="-2.2160050000"><ele>331</ele><time>2013-11-17T10:20:41Z</time></trkpt>
<trkpt lat="54.2937860000" lon="-2.2160240000"><ele>331</ele><time>2013-11-17T10:20:42Z</time></trkpt>
<trkpt lat="54.2937770000" lon="-2.2160420000"><ele>331</ele><time>2013-11-17T10:20:43Z</time></trkpt>
<trkpt lat="54.2937680000" lon="-2.2160610000"><ele>331</ele><time>2013-11-17T10:20:44Z</time></trkpt>
<trkpt lat="54.2937600000" lon="-2.2160810000"><ele>331</ele><time>2013-11-17T10:20:45Z</time></trkpt>
<trkpt lat="54.2937520000" lon="-2.2161000000"><ele>331</ele><time>2013-11-17T10:20:46Z</time></trkpt>
<trkpt lat="54.2937440000" lon="-2.2161200000"><ele>331</ele><time>2013-11-17T10:20:47Z</time></trkpt>
<trkpt lat="54.2937360000" lon="-2.2161390000"><ele>331</ele><time>2013-11-17T10:20:48Z</time></trkpt>
<trkpt lat="54.2937270000" lon="-2.2161570000"><ele>331</ele><time>2013-11-17T10:20:49Z</time></trkpt>
<trkpt lat="54.2937180000" lon="-2.2161740000"><ele>331</ele><time>2013-11-17T10:20:50Z</time></trkpt>
<trkpt lat="54.2937100000" lon="-2.2161920000"><ele>331</ele><time>2013-11-17T10:20:51Z</time></trkpt>
<trkpt lat="54.2937000000" lon="-2.2162080000"><ele>331</ele><time>2013-11-17T10:20:52Z</time></trkpt>
<trkpt lat="54.2936900000" lon="-2.2162240000"><ele>331</ele><time>2013-11-17T10:20:53Z</time></trkpt>
<trkpt lat="54.2936810000" lon="-2.2162400000"><ele>331</ele><time>2013-11-17T10:20:54Z</time></trkpt>
<trkpt lat="54.2936750000" lon="-2.2162510000"><ele>331</ele><time>2013-11-17T10:20:55Z</time></trkpt>
<trkpt lat="54.2936690000" lon="-2.2162590000"><ele>331</ele><time>2013-11-17T10:20:56Z</time></trkpt>
<trkpt lat="54.2936650000" lon="-2.2162650000"><ele>331</ele><time>2013-11-17T10:20:57Z</time></trkpt>
<trkpt lat="54.2936630000" lon="-2.2162680000"><ele>331</ele><time>2013-11-17T10:20:58Z</time></trkpt>
<trkpt lat="54.2936620000" lon="-2.2162740000"><ele>331</ele><time>2013-11-17T10:20:59Z</time></trkpt>
<trkpt lat="54.2936480000" lon="-2.2163470000"><ele>331</ele><time>2013-11-17T10:21:07Z</time></trkpt>
<trkpt lat="54.2936450000" lon="-2.2163620000"><ele>331</ele><time>2013-11-17T10:21:08Z</time></trkpt>
<trkpt lat="54.2936400000" lon="-2.2163770000"><ele>331</ele><time>2013-11-17T10:21:09Z</time></trkpt>
<trkpt lat="54.2936320000" lon="-2.2163910000"><ele>331</ele><time>2013-11-17T10:21:10Z</time></trkpt>
<trkpt lat="54.2936250000" lon="-2.2164080000"><ele>331</ele><time>2013-11-17T10:21:11Z</time></trkpt>
<trkpt lat="54.2936170000" lon="-2.2164240000"><ele>331</ele><time>2013-11-17T10:21:12Z</time></trkpt>
<trkpt lat="54.2936100000" lon="-2.2164400000"><ele>331</ele><time>2013-11-17T10:21:13Z</time></trkpt>
<trkpt lat="54.2936020000" lon="-2.2164550000"><ele>331</ele><time>2013-11-17T10:21:14Z</time></trkpt>
<trkpt lat="54.2935930000" lon="-2.2164730000"><ele>331</ele><time>2013-11-17T10:21:15Z</time></trkpt>
<trkpt lat="54.2935860000" lon="-2.2164910000"><ele>331</ele><time>2013-11-17T10:21:16Z</time></trkpt>
<trkpt lat="54.2935790000" lon="-2.2165050000"><ele>331</ele><time>2013-11-17T10:21:17Z</time></trkpt>
<trkpt lat="54.2935720000" lon="-2.2165160000"><ele>331</ele><time>2013-11-17T10:21:18Z</time></trkpt>
<trkpt lat="54.2935630000" lon="-2.2165260000"><ele>331</ele><time>2013-11-17T10:21:19Z</time></trkpt>
<trkpt lat="54.2935550000" lon="-2.2165370000"><ele>331</ele><time>2013-11-17T10:21:20Z</time></trkpt>
<trkpt lat="54.2935480000" lon="-2.2165510000"><ele>331</ele><time>2013-11-17T10:21:21Z</time></trkpt>
<trkpt lat="54.2935410000" lon="-2.2165650000"><ele>331</ele><time>2013-11-17T10:21:22Z</time></trkpt>
<trkpt lat="54.2935360000" lon="-2.2165810000"><ele>331</ele><time>2013-11-17T10:21:23Z</time></trkpt>
<trkpt lat="54.2935280000" lon="-2.2165990000"><ele>341</ele><time>2013-11-17T10:21:24Z</time></trkpt>
<trkpt lat="54.2935210000" lon="-2.2166140000"><ele>341</ele><time>2013-11-17T10:21:25Z</time></trkpt>
<trkpt lat="54.2935140000" lon="-2.2166310000"><ele>341</ele><time>2013-11-17T10:21:26Z</time></trkpt>
<trkpt lat="54.2935060000" lon="-2.2166460000"><ele>341</ele><time>2013-11-17T10:21:27Z</time></trkpt>
<trkpt lat="54.2935000000" lon="-2.2166570000"><ele>341</ele><time>2013-11-17T10:21:28Z</time></trkpt>
<trkpt lat="54.2934930000" lon="-2.2166690000"><ele>341</ele><time>2013-11-17T10:21:29Z</time></trkpt>
<trkpt lat="54.2934880000" lon="-2.2166780000"><ele>341</ele><time>2013-11-17T10:21:30Z</time></trkpt>
<trkpt lat="54.2934850000" lon="-2.2166860000"><ele>341</ele><time>2013-11-17T10:21:31Z</time></trkpt>
<trkpt lat="54.2934820000" lon="-2.2166910000"><ele>341</ele><time>2013-11-17T10:21:32Z</time></trkpt>
<trkpt lat="54.2934800000" lon="-2.2166920000"><ele>341</ele><time>2013-11-17T10:21:33Z</time></trkpt>
<trkpt lat="54.2934770000" lon="-2.2166900000"><ele>341</ele><time>2013-11-17T10:21:34Z</time></trkpt>
<trkpt lat="54.2934720000" lon="-2.2166840000"><ele>341</ele><time>2013-11-17T10:21:35Z</time></trkpt>
<trkpt lat="54.2934620000" lon="-2.2166760000"><ele>341</ele><time>2013-11-17T10:21:36Z</time></trkpt>
<trkpt lat="54.2934510000" lon="-2.2166760000"><ele>341</ele><time>2013-11-17T10:21:37Z</time></trkpt>
<trkpt lat="54.2934400000" lon="-2.2166810000"><ele>341</ele><time>2013-11-17T10:21:38Z</time></trkpt>
<trkpt lat="54.2934290000" lon="-2.2166870000"><ele>341</ele><time>2013-11-17T10:21:39Z</time></trkpt>
<trkpt lat="54.2934190000" lon="-2.2166920000"><ele>341</ele><time>2013-11-17T10:21:40Z</time></trkpt>
<trkpt lat="54.2934070000" lon="-2.2166970000"><ele>341</ele><time>2013-11-17T10:21:41Z</time></trkpt>
<trkpt lat="54.2933970000" lon="-2.2167030000"><ele>341</ele><time>2013-11-17T10:21:42Z</time></trkpt>
<trkpt lat="54.2933870000" lon="-2.2167100000"><ele>341</ele><time>2013-11-17T10:21:43Z</time></trkpt>
<trkpt lat="54.2933780000" lon="-2.2167170000"><ele>341</ele><time>2013-11-17T10:21:44Z</time></trkpt>
<trkpt lat="54.2933680000" lon="-2.2167240000"><ele>341</ele><time>2013-11-17T10:21:45Z</time></trkpt>
<trkpt lat="54.2933590000" lon="-2.2167280000"><ele>341</ele><time>2013-11-17T10:21:46Z</time></trkpt>
<trkpt lat="54.2933480000" lon="-2.2167300000"><ele>341</ele><time>2013-11-17T10:21:47Z</time></trkpt>
<trkpt lat="54.2933370000" lon="-2.2167320000"><ele>341</ele><time>2013-11-17T10:21:48Z</time></trkpt>
<trkpt lat="54.2933280000" lon="-2.2167370000"><ele>341</ele><time>2013-11-17T10:21:49Z</time></trkpt>
<trkpt lat="54.2933190000" lon="-2.2167410000"><ele>341</ele><time>2013-11-17T10:21:50Z</time></trkpt>
<trkpt lat="54.2933090000" lon="-2.2167470000"><ele>341</ele><time>2013-11-17T10:21:51Z</time></trkpt>
<trkpt lat="54.2932980000" lon="-2.2167530000"><ele>341</ele><time>2013-11-17T10:21:52Z</time></trkpt>
<trkpt lat="54.2932900000" lon="-2.2167570000"><ele>341</ele><time>2013-11-17T10:21:53Z</time></trkpt>
<trkpt lat="54.2932830000" lon="-2.2167640000"><ele>341</ele><time>2013-11-17T10:21:54Z</time></trkpt>
<trkpt lat="54.2932790000" lon="-2.2167710000"><ele>341</ele><time>2013-11-17T10:21:55Z</time></trkpt>
<trkpt lat="54.2932750000" lon="-2.2167790000"><ele>341</ele><time>2013-11-17T10:21:56Z</time></trkpt>
<trkpt lat="54.2932720000" lon="-2.2167870000"><ele>341</ele><time>2013-11-17T10:21:57Z</time></trkpt>
<trkpt lat="54.2932670000" lon="-2.2167950000"><ele>341</ele><time>2013-11-17T10:21:58Z</time></trkpt>
<trkpt lat="54.2932610000" lon="-2.2168030000"><ele>341</ele><time>2013-11-17T10:21:59Z</time></trkpt>
<trkpt lat="54.2932540000" lon="-2.2168110000"><ele>341</ele><time>2013-11-17T10:22:00Z</time></trkpt>
<trkpt lat="54.2932470000" lon="-2.2168180000"><ele>341</ele><time>2013-11-17T10:22:01Z</time></trkpt>
<trkpt lat="54.2932400000" lon="-2.2168260000"><ele>341</ele><time>2013-11-17T10:22:02Z</time></trkpt>
<trkpt lat="54.2932320000" lon="-2.2168340000"><ele>341</ele><time>2013-11-17T10:22:03Z</time></trkpt>
<trkpt lat="54.2932250000" lon="-2.2168400000"><ele>341</ele><time>2013-11-17T10:22:04Z</time></trkpt>
<trkpt lat="54.2932170000" lon="-2.2168460000"><ele>341</ele><time>2013-11-17T10:22:05Z</time></trkpt>
<trkpt lat="54.2932090000" lon="-2.2168480000"><ele>341</ele><time>2013-11-17T10:22:06Z</time></trkpt>
<trkpt lat="54.2932010000" lon="-2.2168480000"><ele>341</ele><time>2013-11-17T10:22:07Z</time></trkpt>
<trkpt lat="54.2931940000" lon="-2.2168490000"><ele>341</ele><time>2013-11-17T10:22:08Z</time></trkpt>
<trkpt lat="54.2931860000" lon="-2.2168530000"><ele>341</ele><time>2013-11-17T10:22:09Z</time></trkpt>
<trkpt lat="54.2931800000" lon="-2.2168570000"><ele>341</ele><time>2013-11-17T10:22:10Z</time></trkpt>
<trkpt lat="54.2931730000" lon="-2.2168660000"><ele>341</ele><time>2013-11-17T10:22:11Z</time></trkpt>
<trkpt lat="54.2931670000" lon="-2.2168720000"><ele>341</ele><time>2013-11-17T10:22:12Z</time></trkpt>
<trkpt lat="54.2931600000" lon="-2.2168800000"><ele>341</ele><time>2013-11-17T10:22:13Z</time></trkpt>
<trkpt lat="54.2931530000" lon="-2.2168860000"><ele>341</ele><time>2013-11-17T10:22:14Z</time></trkpt>
<trkpt lat="54.2931450000" lon="-2.2168900000"><ele>341</ele><time>2013-11-17T10:22:15Z</time></trkpt>
<trkpt lat="54.2931350000" lon="-2.2168970000"><ele>341</ele><time>2013-11-17T10:22:16Z</time></trkpt>
<trkpt lat="54.2931260000" lon="-2.2169050000"><ele>341</ele><time>2013-11-17T10:22:17Z</time></trkpt>
<trkpt lat="54.2931180000" lon="-2.2169110000"><ele>341</ele><time>2013-11-17T10:22:18Z</time></trkpt>
<trkpt lat="54.2931080000" lon="-2.2169180000"><ele>341</ele><time>2013-11-17T10:22:19Z</time></trkpt>
<trkpt lat="54.2930970000" lon="-2.2169250000"><ele>341</ele><time>2013-11-17T10:22:20Z</time></trkpt>
<trkpt lat="54.2930870000" lon="-2.2169310000"><ele>341</ele><time>2013-11-17T10:22:21Z</time></trkpt>
<trkpt lat="54.2930790000" lon="-2.2169360000"><ele>341</ele><time>2013-11-17T10:22:22Z</time></trkpt>
<trkpt lat="54.2930710000" lon="-2.2169460000"><ele>341</ele><time>2013-11-17T10:22:23Z</time></trkpt>
<trkpt lat="54.2930650000" lon="-2.2169580000"><ele>341</ele><time>2013-11-17T10:22:24Z</time></trkpt>
<trkpt lat="54.2930590000" lon="-2.2169710000"><ele>341</ele><time>2013-11-17T10:22:25Z</time></trkpt>
<trkpt lat="54.2930520000" lon="-2.2169860000"><ele>341</ele><time>2013-11-17T10:22:26Z</time></trkpt>
<trkpt lat="54.2930450000" lon="-2.2169980000"><ele>341</ele><time>2013-11-17T10:22:27Z</time></trkpt>
<trkpt lat="54.2930370000" lon="-2.2170100000"><ele>341</ele><time>2013-11-17T10:22:28Z</time></trkpt>
<trkpt lat="54.2930310000" lon="-2.2170230000"><ele>341</ele><time>2013-11-17T10:22:29Z</time></trkpt>
<trkpt lat="54.2930250000" lon="-2.2170360000"><ele>341</ele><time>2013-11-17T10:22:30Z</time></trkpt>
<trkpt lat="54.2930200000" lon="-2.2170500000"><ele>341</ele><time>2013-11-17T10:22:31Z</time></trkpt>
<trkpt lat="54.2930160000" lon="-2.2170640000"><ele>341</ele><time>2013-11-17T10:22:32Z</time></trkpt>
<trkpt lat="54.2930020000" lon="-2.2170970000"><ele>341</ele><time>2013-11-17T10:22:36Z</time></trkpt>
<trkpt lat="54.2929930000" lon="-2.2171400000"><ele>341</ele><time>2013-11-17T10:22:39Z</time></trkpt>
<trkpt lat="54.2929710000" lon="-2.2171930000"><ele>341</ele><time>2013-11-17T10:22:42Z</time></trkpt>
<trkpt lat="54.2929540000" lon="-2.2172450000"><ele>341</ele><time>2013-11-17T10:22:45Z</time></trkpt>
<trkpt lat="54.2929340000" lon="-2.2172940000"><ele>341</ele><time>2013-11-17T10:22:48Z</time></trkpt>
<trkpt lat="54.2929210000" lon="-2.2173320000"><ele>341</ele><time>2013-11-17T10:22:50Z</time></trkpt>
<trkpt lat="54.2929110000" lon="-2.2173720000"><ele>341</ele><time>2013-11-17T10:22:52Z</time></trkpt>
<trkpt lat="54.2928970000" lon="-2.2174210000"><ele>341</ele><time>2013-11-17T10:22:55Z</time></trkpt>
<trkpt lat="54.2928830000" lon="-2.2174640000"><ele>341</ele><time>2013-11-17T10:22:58Z</time></trkpt>
<trkpt lat="54.2928630000" lon="-2.2175090000"><ele>341</ele><time>2013-11-17T10:23:01Z</time></trkpt>
<trkpt lat="54.2928410000" lon="-2.2175480000"><ele>341</ele><time>2013-11-17T10:23:04Z</time></trkpt>
<trkpt lat="54.2928210000" lon="-2.2175980000"><ele>360</ele><time>2013-11-17T10:23:07Z</time></trkpt>
<trkpt lat="54.2928060000" lon="-2.2176320000"><ele>360</ele><time>2013-11-17T10:23:09Z</time></trkpt>
<trkpt lat="54.2927850000" lon="-2.2176730000"><ele>360</ele><time>2013-11-17T10:23:12Z</time></trkpt>
<trkpt lat="54.2927640000" lon="-2.2177030000"><ele>360</ele><time>2013-11-17T10:23:15Z</time></trkpt>
<trkpt lat="54.2927450000" lon="-2.2177300000"><ele>360</ele><time>2013-11-17T10:23:18Z</time></trkpt>
<trkpt lat="54.2927250000" lon="-2.2177590000"><ele>360</ele><time>2013-11-17T10:23:21Z</time></trkpt>
<trkpt lat="54.2927000000" lon="-2.2177820000"><ele>360</ele><time>2013-11-17T10:23:24Z</time></trkpt>
<trkpt lat="54.2926820000" lon="-2.2178110000"><ele>360</ele><time>2013-11-17T10:23:27Z</time></trkpt>
<trkpt lat="54.2926600000" lon="-2.2178450000"><ele>360</ele><time>2013-11-17T10:23:30Z</time></trkpt>
<trkpt lat="54.2926370000" lon="-2.2178870000"><ele>360</ele><time>2013-11-17T10:23:33Z</time></trkpt>
<trkpt lat="54.2926160000" lon="-2.2179120000"><ele>360</ele><time>2013-11-17T10:23:37Z</time></trkpt>
<trkpt lat="54.2925880000" lon="-2.2179340000"><ele>360</ele><time>2013-11-17T10:23:40Z</time></trkpt>
<trkpt lat="54.2925690000" lon="-2.2179570000"><ele>360</ele><time>2013-11-17T10:23:42Z</time></trkpt>
<trkpt lat="54.2925480000" lon="-2.2179790000"><ele>360</ele><time>2013-11-17T10:23:44Z</time></trkpt>
<trkpt lat="54.2925230000" lon="-2.2180070000"><ele>360</ele><time>2013-11-17T10:23:47Z</time></trkpt>
<trkpt lat="54.2925030000" lon="-2.2180340000"><ele>360</ele><time>2013-11-17T10:23:50Z</time></trkpt>
<trkpt lat="54.2924870000" lon="-2.2180720000"><ele>360</ele><time>2013-11-17T10:23:53Z</time></trkpt>
<trkpt lat="54.2924750000" lon="-2.2181220000"><ele>360</ele><time>2013-11-17T10:23:57Z</time></trkpt>
<trkpt lat="54.2924610000" lon="-2.2181590000"><ele>360</ele><time>2013-11-17T10:24:00Z</time></trkpt>
<trkpt lat="54.2924400000" lon="-2.2182160000"><ele>360</ele><time>2013-11-17T10:24:04Z</time></trkpt>
<trkpt lat="54.2924310000" lon="-2.2182560000"><ele>360</ele><time>2013-11-17T10:24:07Z</time></trkpt>
<trkpt lat="54.2924190000" lon="-2.2183080000"><ele>360</ele><time>2013-11-17T10:24:10Z</time></trkpt>
<trkpt lat="54.2924140000" lon="-2.2183530000"><ele>360</ele><time>2013-11-17T10:24:13Z</time></trkpt>
<trkpt lat="54.2924140000" lon="-2.2184130000"><ele>360</ele><time>2013-11-17T10:24:17Z</time></trkpt>
<trkpt lat="54.2924050000" lon="-2.2184630000"><ele>360</ele><time>2013-11-17T10:24:20Z</time></trkpt>
<trkpt lat="54.2923910000" lon="-2.2185190000"><ele>360</ele><time>2013-11-17T10:24:23Z</time></trkpt>
<trkpt lat="54.2923770000" lon="-2.2185710000"><ele>360</ele><time>2013-11-17T10:24:27Z</time></trkpt>
<trkpt lat="54.2923660000" lon="-2.2186220000"><ele>360</ele><time>2013-11-17T10:24:31Z</time></trkpt>
<trkpt lat="54.2923510000" lon="-2.2186780000"><ele>360</ele><time>2013-11-17T10:24:34Z</time></trkpt>
<trkpt lat="54.2923390000" lon="-2.2187260000"><ele>360</ele><time>2013-11-17T10:24:37Z</time></trkpt>
<trkpt lat="54.2923270000" lon="-2.2187780000"><ele>360</ele><time>2013-11-17T10:24:40Z</time></trkpt>
<trkpt lat="54.2923130000" lon="-2.2188210000"><ele>360</ele><time>2013-11-17T10:24:43Z</time></trkpt>
<trkpt lat="54.2922940000" lon="-2.2188750000"><ele>360</ele><time>2013-11-17T10:24:46Z</time></trkpt>
<trkpt lat="54.2922770000" lon="-2.2189210000"><ele>360</ele><time>2013-11-17T10:24:49Z</time></trkpt>
<trkpt lat="54.2922640000" lon="-2.2189740000"><ele>360</ele><time>2013-11-17T10:24:53Z</time></trkpt>
<trkpt lat="54.2922550000" lon="-2.2190210000"><ele>360</ele><time>2013-11-17T10:24:56Z</time></trkpt>
<trkpt lat="54.2922480000" lon="-2.2190760000"><ele>360</ele><time>2013-11-17T10:24:59Z</time></trkpt>
<trkpt lat="54.2922450000" lon="-2.2191330000"><ele>360</ele><time>2013-11-17T10:25:02Z</time></trkpt>
<trkpt lat="54.2922370000" lon="-2.2191860000"><ele>360</ele><time>2013-11-17T10:25:05Z</time></trkpt>
<trkpt lat="54.2922220000" lon="-2.2192440000"><ele>360</ele><time>2013-11-17T10:25:09Z</time></trkpt>
<trkpt lat="54.2922020000" lon="-2.2193000000"><ele>360</ele><time>2013-11-17T10:25:13Z</time></trkpt>
<trkpt lat="54.2921860000" lon="-2.2193520000"><ele>360</ele><time>2013-11-17T10:25:17Z</time></trkpt>
<trkpt lat="54.2921750000" lon="-2.2194150000"><ele>360</ele><time>2013-11-17T10:25:21Z</time></trkpt>
<trkpt lat="54.2921680000" lon="-2.2194630000"><ele>360</ele><time>2013-11-17T10:25:24Z</time></trkpt>
<trkpt lat="54.2921580000" lon="-2.2195110000"><ele>360</ele><time>2013-11-17T10:25:27Z</time></trkpt>
<trkpt lat="54.2921520000" lon="-2.2195650000"><ele>360</ele><time>2013-11-17T10:25:30Z</time></trkpt>
<trkpt lat="54.2921470000" lon="-2.2196020000"><ele>360</ele><time>2013-11-17T10:25:32Z</time></trkpt>
<trkpt lat="54.2921390000" lon="-2.2196370000"><ele>360</ele><time>2013-11-17T10:25:34Z</time></trkpt>
<trkpt lat="54.2921330000" lon="-2.2196840000"><ele>384</ele><time>2013-11-17T10:25:37Z</time></trkpt>
<trkpt lat="54.2921260000" lon="-2.2197410000"><ele>384</ele><time>2013-11-17T10:25:41Z</time></trkpt>
<trkpt lat="54.2921270000" lon="-2.2197900000"><ele>384</ele><time>2013-11-17T10:25:44Z</time></trkpt>
<trkpt lat="54.2921260000" lon="-2.2198360000"><ele>384</ele><time>2013-11-17T10:25:47Z</time></trkpt>
<trkpt lat="54.2921240000" lon="-2.2198820000"><ele>384</ele><time>2013-11-17T10:25:49Z</time></trkpt>
<trkpt lat="54.2921230000" lon="-2.2198970000"><ele>384</ele><time>2013-11-17T10:25:50Z</time></trkpt>
<trkpt lat="54.2921210000" lon="-2.2199150000"><ele>384</ele><time>2013-11-17T10:25:51Z</time></trkpt>
<trkpt lat="54.2921200000" lon="-2.2199280000"><ele>384</ele><time>2013-11-17T10:25:52Z</time></trkpt>
<trkpt lat="54.2921200000" lon="-2.2199400000"><ele>384</ele><time>2013-11-17T10:25:53Z</time></trkpt>
<trkpt lat="54.2921170000" lon="-2.2199560000"><ele>384</ele><time>2013-11-17T10:25:54Z</time></trkpt>
<trkpt lat="54.2921160000" lon="-2.2199700000"><ele>384</ele><time>2013-11-17T10:25:55Z</time></trkpt>
<trkpt lat="54.2921150000" lon="-2.2199820000"><ele>384</ele><time>2013-11-17T10:25:56Z</time></trkpt>
<trkpt lat="54.2921140000" lon="-2.2199970000"><ele>384</ele><time>2013-11-17T10:25:57Z</time></trkpt>
<trkpt lat="54.2921120000" lon="-2.2200130000"><ele>384</ele><time>2013-11-17T10:25:58Z</time></trkpt>
<trkpt lat="54.2921090000" lon="-2.2200300000"><ele>384</ele><time>2013-11-17T10:25:59Z</time></trkpt>
<trkpt lat="54.2921050000" lon="-2.2200480000"><ele>384</ele><time>2013-11-17T10:26:00Z</time></trkpt>
<trkpt lat="54.2921010000" lon="-2.2200650000"><ele>384</ele><time>2013-11-17T10:26:01Z</time></trkpt>
<trkpt lat="54.2920980000" lon="-2.2200810000"><ele>384</ele><time>2013-11-17T10:26:02Z</time></trkpt>
<trkpt lat="54.2920940000" lon="-2.2200990000"><ele>384</ele><time>2013-11-17T10:26:03Z</time></trkpt>
<trkpt lat="54.2920920000" lon="-2.2201150000"><ele>384</ele><time>2013-11-17T10:26:04Z</time></trkpt>
<trkpt lat="54.2920880000" lon="-2.2201330000"><ele>384</ele><time>2013-11-17T10:26:05Z</time></trkpt>
<trkpt lat="54.2920840000" lon="-2.2201500000"><ele>384</ele><time>2013-11-17T10:26:06Z</time></trkpt>
<trkpt lat="54.2920810000" lon="-2.2201650000"><ele>384</ele><time>2013-11-17T10:26:07Z</time></trkpt>
<trkpt lat="54.2920780000" lon="-2.2201800000"><ele>384</ele><time>2013-11-17T10:26:08Z</time></trkpt>
<trkpt lat="54.2920770000" lon="-2.2201970000"><ele>384</ele><time>2013-11-17T10:26:09Z</time></trkpt>
<trkpt lat="54.2920740000" lon="-2.2202150000"><ele>384</ele><time>2013-11-17T10:26:10Z</time></trkpt>
<trkpt lat="54.2920700000" lon="-2.2202330000"><ele>384</ele><time>2013-11-17T10:26:11Z</time></trkpt>
<trkpt lat="54.2920670000" lon="-2.2202470000"><ele>384</ele><time>2013-11-17T10:26:12Z</time></trkpt>
<trkpt lat="54.2920640000" lon="-2.2202650000"><ele>384</ele><time>2013-11-17T10:26:13Z</time></trkpt>
<trkpt lat="54.2920620000" lon="-2.2202850000"><ele>384</ele><time>2013-11-17T10:26:14Z</time></trkpt>
<trkpt lat="54.2920630000" lon="-2.2203020000"><ele>384</ele><time>2013-11-17T10:26:15Z</time></trkpt>
<trkpt lat="54.2920640000" lon="-2.2203170000"><ele>384</ele><time>2013-11-17T10:26:16Z</time></trkpt>
<trkpt lat="54.2920660000" lon="-2.2203330000"><ele>384</ele><time>2013-11-17T10:26:17Z</time></trkpt>
<trkpt lat="54.2920670000" lon="-2.2203500000"><ele>384</ele><time>2013-11-17T10:26:18Z</time></trkpt>
<trkpt lat="54.2920680000" lon="-2.2203650000"><ele>384</ele><time>2013-11-17T10:26:19Z</time></trkpt>
<trkpt lat="54.2920690000" lon="-2.2203790000"><ele>384</ele><time>2013-11-17T10:26:20Z</time></trkpt>
<trkpt lat="54.2920710000" lon="-2.2203960000"><ele>384</ele><time>2013-11-17T10:26:21Z</time></trkpt>
<trkpt lat="54.2920690000" lon="-2.2204180000"><ele>384</ele><time>2013-11-17T10:26:22Z</time></trkpt>
<trkpt lat="54.2920680000" lon="-2.2204390000"><ele>384</ele><time>2013-11-17T10:26:23Z</time></trkpt>
<trkpt lat="54.2920690000" lon="-2.2204550000"><ele>384</ele><time>2013-11-17T10:26:24Z</time></trkpt>
<trkpt lat="54.2920690000" lon="-2.2204710000"><ele>384</ele><time>2013-11-17T10:26:25Z</time></trkpt>
<trkpt lat="54.2920670000" lon="-2.2204850000"><ele>384</ele><time>2013-11-17T10:26:26Z</time></trkpt>
<trkpt lat="54.2920660000" lon="-2.2205010000"><ele>384</ele><time>2013-11-17T10:26:27Z</time></trkpt>
<trkpt lat="54.2920650000" lon="-2.2205150000"><ele>384</ele><time>2013-11-17T10:26:28Z</time></trkpt>
<trkpt lat="54.2920630000" lon="-2.2205280000"><ele>384</ele><time>2013-11-17T10:26:29Z</time></trkpt>
<trkpt lat="54.2920610000" lon="-2.2205440000"><ele>384</ele><time>2013-11-17T10:26:30Z</time></trkpt>
<trkpt lat="54.2920570000" lon="-2.2205580000"><ele>384</ele><time>2013-11-17T10:26:31Z</time></trkpt>
<trkpt lat="54.2920520000" lon="-2.2205740000"><ele>384</ele><time>2013-11-17T10:26:32Z</time></trkpt>
<trkpt lat="54.2920460000" lon="-2.2205910000"><ele>384</ele><time>2013-11-17T10:26:33Z</time></trkpt>
<trkpt lat="54.2920420000" lon="-2.2206100000"><ele>384</ele><time>2013-11-17T10:26:34Z</time></trkpt>
<trkpt lat="54.2920380000" lon="-2.2206260000"><ele>384</ele><time>2013-11-17T10:26:35Z</time></trkpt>
<trkpt lat="54.2920330000" lon="-2.2206420000"><ele>384</ele><time>2013-11-17T10:26:36Z</time></trkpt>
<trkpt lat="54.2920290000" lon="-2.2206560000"><ele>384</ele><time>2013-11-17T10:26:37Z</time></trkpt>
<trkpt lat="54.2920260000" lon="-2.2206700000"><ele>384</ele><time>2013-11-17T10:26:38Z</time></trkpt>
<trkpt lat="54.2920210000" lon="-2.2206840000"><ele>384</ele><time>2013-11-17T10:26:39Z</time></trkpt>
<trkpt lat="54.2920180000" lon="-2.2206990000"><ele>384</ele><time>2013-11-17T10:26:40Z</time></trkpt>
<trkpt lat="54.2920150000" lon="-2.2207130000"><ele>384</ele><time>2013-11-17T10:26:41Z</time></trkpt>
<trkpt lat="54.2920120000" lon="-2.2207280000"><ele>384</ele><time>2013-11-17T10:26:42Z</time></trkpt>
<trkpt lat="54.2920080000" lon="-2.2207450000"><ele>384</ele><time>2013-11-17T10:26:43Z</time></trkpt>
<trkpt lat="54.2920030000" lon="-2.2207600000"><ele>384</ele><time>2013-11-17T10:26:44Z</time></trkpt>
<trkpt lat="54.2920000000" lon="-2.2207730000"><ele>384</ele><time>2013-11-17T10:26:45Z</time></trkpt>
<trkpt lat="54.2919970000" lon="-2.2207870000"><ele>384</ele><time>2013-11-17T10:26:46Z</time></trkpt>
<trkpt lat="54.2919940000" lon="-2.2208010000"><ele>384</ele><time>2013-11-17T10:26:47Z</time></trkpt>
<trkpt lat="54.2919900000" lon="-2.2208170000"><ele>384</ele><time>2013-11-17T10:26:48Z</time></trkpt>
<trkpt lat="54.2919870000" lon="-2.2208330000"><ele>384</ele><time>2013-11-17T10:26:49Z</time></trkpt>
<trkpt lat="54.2919850000" lon="-2.2208500000"><ele>384</ele><time>2013-11-17T10:26:50Z</time></trkpt>
<trkpt lat="54.2919840000" lon="-2.2208670000"><ele>384</ele><time>2013-11-17T10:26:51Z</time></trkpt>
<trkpt lat="54.2919830000" lon="-2.2208810000"><ele>384</ele><time>2013-11-17T10:26:52Z</time></trkpt>
<trkpt lat="54.2919810000" lon="-2.2208940000"><ele>384</ele><time>2013-11-17T10:26:53Z</time></trkpt>
<trkpt lat="54.2919790000" lon="-2.2209070000"><ele>384</ele><time>2013-11-17T10:26:54Z</time></trkpt>
<trkpt lat="54.2919770000" lon="-2.2209230000"><ele>384</ele><time>2013-11-17T10:26:55Z</time></trkpt>
<trkpt lat="54.2919750000" lon="-2.2209410000"><ele>384</ele><time>2013-11-17T10:26:56Z</time></trkpt>
<trkpt lat="54.2919730000" lon="-2.2209560000"><ele>384</ele><time>2013-11-17T10:26:57Z</time></trkpt>
<trkpt lat="54.2919700000" lon="-2.2209710000"><ele>384</ele><time>2013-11-17T10:26:58Z</time></trkpt>
<trkpt lat="54.2919660000" lon="-2.2209870000"><ele>384</ele><time>2013-11-17T10:26:59Z</time></trkpt>
<trkpt lat="54.2919610000" lon="-2.2210010000"><ele>384</ele><time>2013-11-17T10:27:00Z</time></trkpt>
<trkpt lat="54.2919540000" lon="-2.2210120000"><ele>384</ele><time>2013-11-17T10:27:01Z</time></trkpt>
<trkpt lat="54.2919480000" lon="-2.2210260000"><ele>384</ele><time>2013-11-17T10:27:02Z</time></trkpt>
<trkpt lat="54.2919430000" lon="-2.2210420000"><ele>384</ele><time>2013-11-17T10:27:03Z</time></trkpt>
<trkpt lat="54.2919390000" lon="-2.2210580000"><ele>384</ele><time>2013-11-17T10:27:04Z</time></trkpt>
<trkpt lat="54.2919360000" lon="-2.2210720000"><ele>384</ele><time>2013-11-17T10:27:05Z</time></trkpt>
<trkpt lat="54.2919330000" lon="-2.2210880000"><ele>384</ele><time>2013-11-17T10:27:06Z</time></trkpt>
<trkpt lat="54.2919300000" lon="-2.2211020000"><ele>384</ele><time>2013-11-17T10:27:07Z</time></trkpt>
<trkpt lat="54.2919280000" lon="-2.2211180000"><ele>384</ele><time>2013-11-17T10:27:08Z</time></trkpt>
<trkpt lat="54.2919250000" lon="-2.2211370000"><ele>384</ele><time>2013-11-17T10:27:09Z</time></trkpt>
<trkpt lat="54.2919230000" lon="-2.2211550000"><ele>384</ele><time>2013-11-17T10:27:10Z</time></trkpt>
<trkpt lat="54.2919200000" lon="-2.2211730000"><ele>384</ele><time>2013-11-17T10:27:11Z</time></trkpt>
<trkpt lat="54.2919190000" lon="-2.2211920000"><ele>384</ele><time>2013-11-17T10:27:12Z</time></trkpt>
<trkpt lat="54.2919160000" lon="-2.2212100000"><ele>384</ele><time>2013-11-17T10:27:13Z</time></trkpt>
<trkpt lat="54.2919130000" lon="-2.2212280000"><ele>384</ele><time>2013-11-17T10:27:14Z</time></trkpt>
<trkpt lat="54.2919100000" lon="-2.2212450000"><ele>384</ele><time>2013-11-17T10:27:15Z</time></trkpt>
<trkpt lat="54.2919070000" lon="-2.2212610000"><ele>384</ele><time>2013-11-17T10:27:16Z</time></trkpt>
<trkpt lat="54.2919040000" lon="-2.2212780000"><ele>384</ele><time>2013-11-17T10:27:17Z</time></trkpt>
<trkpt lat="54.2919000000" lon="-2.2212940000"><ele>384</ele><time>2013-11-17T10:27:18Z</time></trkpt>
<trkpt lat="54.2918970000" lon="-2.2213100000"><ele>384</ele><time>2013-11-17T10:27:19Z</time></trkpt>
<trkpt lat="54.2918930000" lon="-2.2213230000"><ele>384</ele><time>2013-11-17T10:27:20Z</time></trkpt>
<trkpt lat="54.2918880000" lon="-2.2213380000"><ele>384</ele><time>2013-11-17T10:27:21Z</time></trkpt>
<trkpt lat="54.2918830000" lon="-2.2213530000"><ele>384</ele><time>2013-11-17T10:27:22Z</time></trkpt>
<trkpt lat="54.2918790000" lon="-2.2213680000"><ele>384</ele><time>2013-11-17T10:27:23Z</time></trkpt>
<trkpt lat="54.2918750000" lon="-2.2213810000"><ele>384</ele><time>2013-11-17T10:27:24Z</time></trkpt>
<trkpt lat="54.2918690000" lon="-2.2213920000"><ele>384</ele><time>2013-11-17T10:27:25Z</time></trkpt>
<trkpt lat="54.2918670000" lon="-2.2213990000"><ele>384</ele><time>2013-11-17T10:27:26Z</time></trkpt>
<trkpt lat="54.2918680000" lon="-2.2214010000"><ele>384</ele><time>2013-11-17T10:27:27Z</time></trkpt>
<trkpt lat="54.2918690000" lon="-2.2214020000"><ele>384</ele><time>2013-11-17T10:27:28Z</time></trkpt>
<trkpt lat="54.2918700000" lon="-2.2214030000"><ele>384</ele><time>2013-11-17T10:27:29Z</time></trkpt>
<trkpt lat="54.2918710000" lon="-2.2214030000"><ele>384</ele><time>2013-11-17T10:27:30Z</time></trkpt>
<trkpt lat="54.2918710000" lon="-2.2214040000"><ele>384</ele><time>2013-11-17T10:27:31Z</time></trkpt>
<trkpt lat="54.2918730000" lon="-2.2214040000"><ele>384</ele><time>2013-11-17T10:27:32Z</time></trkpt>
<trkpt lat="54.2918690000" lon="-2.2214050000"><ele>384</ele><time>2013-11-17T10:27:33Z</time></trkpt>
<trkpt lat="54.2918630000" lon="-2.2214120000"><ele>384</ele><time>2013-11-17T10:27:34Z</time></trkpt>
<trkpt lat="54.2918590000" lon="-2.2214240000"><ele>384</ele><time>2013-11-17T10:27:35Z</time></trkpt>
<trkpt lat="54.2918560000" lon="-2.2214360000"><ele>384</ele><time>2013-11-17T10:27:36Z</time></trkpt>
<trkpt lat="54.2918510000" lon="-2.2214520000"><ele>384</ele><time>2013-11-17T10:27:37Z</time></trkpt>
<trkpt lat="54.2918460000" lon="-2.2214670000"><ele>384</ele><time>2013-11-17T10:27:38Z</time></trkpt>
<trkpt lat="54.2918410000" lon="-2.2214830000"><ele>384</ele><time>2013-11-17T10:27:39Z</time></trkpt>
<trkpt lat="54.2918360000" lon="-2.2214980000"><ele>384</ele><time>2013-11-17T10:27:40Z</time></trkpt>
<trkpt lat="54.2918330000" lon="-2.2215120000"><ele>384</ele><time>2013-11-17T10:27:41Z</time></trkpt>
<trkpt lat="54.2918300000" lon="-2.2215260000"><ele>384</ele><time>2013-11-17T10:27:42Z</time></trkpt>
<trkpt lat="54.2918250000" lon="-2.2215400000"><ele>384</ele><time>2013-11-17T10:27:43Z</time></trkpt>
<trkpt lat="54.2918200000" lon="-2.2215550000"><ele>384</ele><time>2013-11-17T10:27:44Z</time></trkpt>
<trkpt lat="54.2918170000" lon="-2.2215690000"><ele>384</ele><time>2013-11-17T10:27:45Z</time></trkpt>
<trkpt lat="54.2918130000" lon="-2.2215840000"><ele>384</ele><time>2013-11-17T10:27:46Z</time></trkpt>
<trkpt lat="54.2918080000" lon="-2.2215990000"><ele>384</ele><time>2013-11-17T10:27:47Z</time></trkpt>
<trkpt lat="54.2918050000" lon="-2.2216150000"><ele>384</ele><time>2013-11-17T10:27:48Z</time></trkpt>
<trkpt lat="54.2918010000" lon="-2.2216330000"><ele>384</ele><time>2013-11-17T10:27:49Z</time></trkpt>
<trkpt lat="54.2917970000" lon="-2.2216520000"><ele>384</ele><time>2013-11-17T10:27:50Z</time></trkpt>
<trkpt lat="54.2917950000" lon="-2.2216700000"><ele>384</ele><time>2013-11-17T10:27:51Z</time></trkpt>
<trkpt lat="54.2917930000" lon="-2.2216880000"><ele>384</ele><time>2013-11-17T10:27:52Z</time></trkpt>
<trkpt lat="54.2917900000" lon="-2.2217040000"><ele>384</ele><time>2013-11-17T10:27:53Z</time></trkpt>
<trkpt lat="54.2917880000" lon="-2.2217230000"><ele>384</ele><time>2013-11-17T10:27:54Z</time></trkpt>
<trkpt lat="54.2917870000" lon="-2.2217390000"><ele>384</ele><time>2013-11-17T10:27:55Z</time></trkpt>
<trkpt lat="54.2917870000" lon="-2.2217590000"><ele>384</ele><time>2013-11-17T10:27:56Z</time></trkpt>
<trkpt lat="54.2917860000" lon="-2.2217770000"><ele>384</ele><time>2013-11-17T10:27:57Z</time></trkpt>
<trkpt lat="54.2917840000" lon="-2.2217960000"><ele>384</ele><time>2013-11-17T10:27:58Z</time></trkpt>
<trkpt lat="54.2917820000" lon="-2.2218130000"><ele>384</ele><time>2013-11-17T10:27:59Z</time></trkpt>
<trkpt lat="54.2917780000" lon="-2.2218310000"><ele>384</ele><time>2013-11-17T10:28:00Z</time></trkpt>
<trkpt lat="54.2917750000" lon="-2.2218480000"><ele>384</ele><time>2013-11-17T10:28:01Z</time></trkpt>
<trkpt lat="54.2917720000" lon="-2.2218640000"><ele>384</ele><time>2013-11-17T10:28:02Z</time></trkpt>
<trkpt lat="54.2917700000" lon="-2.2218790000"><ele>384</ele><time>2013-11-17T10:28:03Z</time></trkpt>
<trkpt lat="54.2917680000" lon="-2.2218950000"><ele>384</ele><time>2013-11-17T10:28:04Z</time></trkpt>
<trkpt lat="54.2917650000" lon="-2.2219110000"><ele>384</ele><time>2013-11-17T10:28:05Z</time></trkpt>
<trkpt lat="54.2917630000" lon="-2.2219260000"><ele>384</ele><time>2013-11-17T10:28:06Z</time></trkpt>
<trkpt lat="54.2917610000" lon="-2.2219420000"><ele>384</ele><time>2013-11-17T10:28:07Z</time></trkpt>
<trkpt lat="54.2917590000" lon="-2.2219620000"><ele>384</ele><time>2013-11-17T10:28:08Z</time></trkpt>
<trkpt lat="54.2917580000" lon="-2.2219800000"><ele>384</ele><time>2013-11-17T10:28:09Z</time></trkpt>
<trkpt lat="54.2917550000" lon="-2.2219980000"><ele>384</ele><time>2013-11-17T10:28:10Z</time></trkpt>
<trkpt lat="54.2917520000" lon="-2.2220170000"><ele>384</ele><time>2013-11-17T10:28:11Z</time></trkpt>
<trkpt lat="54.2917490000" lon="-2.2220350000"><ele>384</ele><time>2013-11-17T10:28:12Z</time></trkpt>
<trkpt lat="54.2917460000" lon="-2.2220490000"><ele>384</ele><time>2013-11-17T10:28:13Z</time></trkpt>
<trkpt lat="54.2917430000" lon="-2.2220640000"><ele>384</ele><time>2013-11-17T10:28:14Z</time></trkpt>
<trkpt lat="54.2917400000" lon="-2.2220780000"><ele>384</ele><time>2013-11-17T10:28:15Z</time></trkpt>
<trkpt lat="54.2917370000" lon="-2.2220930000"><ele>384</ele><time>2013-11-17T10:28:16Z</time></trkpt>
<trkpt lat="54.2917350000" lon="-2.2221070000"><ele>384</ele><time>2013-11-17T10:28:17Z</time></trkpt>
<trkpt lat="54.2917340000" lon="-2.2221250000"><ele>384</ele><time>2013-11-17T10:28:18Z</time></trkpt>
<trkpt lat="54.2917330000" lon="-2.2221450000"><ele>384</ele><time>2013-11-17T10:28:19Z</time></trkpt>
<trkpt lat="54.2917310000" lon="-2.2221600000"><ele>384</ele><time>2013-11-17T10:28:20Z</time></trkpt>
<trkpt lat="54.2917270000" lon="-2.2221740000"><ele>384</ele><time>2013-11-17T10:28:21Z</time></trkpt>
<trkpt lat="54.2917220000" lon="-2.2221890000"><ele>384</ele><time>2013-11-17T10:28:22Z</time></trkpt>
<trkpt lat="54.2917170000" lon="-2.2222030000"><ele>384</ele><time>2013-11-17T10:28:23Z</time></trkpt>
<trkpt lat="54.2917130000" lon="-2.2222180000"><ele>384</ele><time>2013-11-17T10:28:24Z</time></trkpt>
<trkpt lat="54.2917100000" lon="-2.2222370000"><ele>384</ele><time>2013-11-17T10:28:25Z</time></trkpt>
<trkpt lat="54.2917070000" lon="-2.2222560000"><ele>384</ele><time>2013-11-17T10:28:26Z</time></trkpt>
<trkpt lat="54.2917050000" lon="-2.2222720000"><ele>384</ele><time>2013-11-17T10:28:27Z</time></trkpt>
<trkpt lat="54.2917050000" lon="-2.2222840000"><ele>384</ele><time>2013-11-17T10:28:28Z</time></trkpt>
<trkpt lat="54.2917040000" lon="-2.2222980000"><ele>384</ele><time>2013-11-17T10:28:29Z</time></trkpt>
<trkpt lat="54.2917020000" lon="-2.2223130000"><ele>384</ele><time>2013-11-17T10:28:30Z</time></trkpt>
<trkpt lat="54.2916990000" lon="-2.2223290000"><ele>384</ele><time>2013-11-17T10:28:31Z</time></trkpt>
<trkpt lat="54.2916970000" lon="-2.2223470000"><ele>384</ele><time>2013-11-17T10:28:32Z</time></trkpt>
<trkpt lat="54.2916940000" lon="-2.2223660000"><ele>384</ele><time>2013-11-17T10:28:33Z</time></trkpt>
<trkpt lat="54.2916900000" lon="-2.2223830000"><ele>384</ele><time>2013-11-17T10:28:34Z</time></trkpt>
<trkpt lat="54.2916870000" lon="-2.2223980000"><ele>384</ele><time>2013-11-17T10:28:35Z</time></trkpt>
<trkpt lat="54.2916820000" lon="-2.2224150000"><ele>384</ele><time>2013-11-17T10:28:36Z</time></trkpt>
<trkpt lat="54.2916770000" lon="-2.2224330000"><ele>384</ele><time>2013-11-17T10:28:37Z</time></trkpt>
<trkpt lat="54.2916610000" lon="-2.2224840000"><ele>384</ele><time>2013-11-17T10:28:40Z</time></trkpt>
<trkpt lat="54.2916480000" lon="-2.2225250000"><ele>384</ele><time>2013-11-17T10:28:42Z</time></trkpt>
<trkpt lat="54.2916390000" lon="-2.2225580000"><ele>384</ele><time>2013-11-17T10:28:44Z</time></trkpt>
<trkpt lat="54.2916290000" lon="-2.2226050000"><ele>384</ele><time>2013-11-17T10:28:47Z</time></trkpt>
<trkpt lat="54.2916230000" lon="-2.2226420000"><ele>384</ele><time>2013-11-17T10:28:49Z</time></trkpt>
<trkpt lat="54.2916210000" lon="-2.2226890000"><ele>384</ele><time>2013-11-17T10:28:52Z</time></trkpt>
<trkpt lat="54.2916190000" lon="-2.2227380000"><ele>408</ele><time>2013-11-17T10:28:55Z</time></trkpt>
<trkpt lat="54.2916120000" lon="-2.2227800000"><ele>408</ele><time>2013-11-17T10:28:57Z</time></trkpt>
<trkpt lat="54.2916050000" lon="-2.2228690000"><ele>408</ele><time>2013-11-17T10:29:03Z</time></trkpt>
<trkpt lat="54.2916160000" lon="-2.2229060000"><ele>408</ele><time>2013-11-17T10:29:06Z</time></trkpt>
<trkpt lat="54.2916330000" lon="-2.2229510000"><ele>408</ele><time>2013-11-17T10:29:10Z</time></trkpt>
<trkpt lat="54.2916270000" lon="-2.2231010000"><ele>408</ele><time>2013-11-17T10:29:26Z</time></trkpt>
<trkpt lat="54.2916130000" lon="-2.2231340000"><ele>408</ele><time>2013-11-17T10:29:31Z</time></trkpt>
<trkpt lat="54.2916000000" lon="-2.2231820000"><ele>408</ele><time>2013-11-17T10:29:35Z</time></trkpt>
<trkpt lat="54.2915860000" lon="-2.2232100000"><ele>408</ele><time>2013-11-17T10:29:37Z</time></trkpt>
<trkpt lat="54.2915730000" lon="-2.2232440000"><ele>408</ele><time>2013-11-17T10:29:39Z</time></trkpt>
<trkpt lat="54.2915570000" lon="-2.2232900000"><ele>408</ele><time>2013-11-17T10:29:42Z</time></trkpt>
<trkpt lat="54.2915470000" lon="-2.2233280000"><ele>408</ele><time>2013-11-17T10:29:44Z</time></trkpt>
<trkpt lat="54.2915360000" lon="-2.2233610000"><ele>408</ele><time>2013-11-17T10:29:46Z</time></trkpt>
<trkpt lat="54.2915230000" lon="-2.2233910000"><ele>408</ele><time>2013-11-17T10:29:48Z</time></trkpt>
<trkpt lat="54.2915050000" lon="-2.2234110000"><ele>408</ele><time>2013-11-17T10:29:50Z</time></trkpt>
<trkpt lat="54.2914870000" lon="-2.2234300000"><ele>408</ele><time>2013-11-17T10:29:52Z</time></trkpt>
<trkpt lat="54.2914710000" lon="-2.2234510000"><ele>408</ele><time>2013-11-17T10:29:54Z</time></trkpt>
<trkpt lat="54.2914540000" lon="-2.2234910000"><ele>408</ele><time>2013-11-17T10:29:57Z</time></trkpt>
<trkpt lat="54.2914440000" lon="-2.2235220000"><ele>408</ele><time>2013-11-17T10:29:59Z</time></trkpt>
<trkpt lat="54.2914340000" lon="-2.2235520000"><ele>408</ele><time>2013-11-17T10:30:01Z</time></trkpt>
<trkpt lat="54.2914240000" lon="-2.2235840000"><ele>408</ele><time>2013-11-17T10:30:03Z</time></trkpt>
<trkpt lat="54.2914120000" lon="-2.2236280000"><ele>408</ele><time>2013-11-17T10:30:06Z</time></trkpt>
<trkpt lat="54.2914060000" lon="-2.2236630000"><ele>408</ele><time>2013-11-17T10:30:09Z</time></trkpt>
<trkpt lat="54.2913960000" lon="-2.2237130000"><ele>408</ele><time>2013-11-17T10:30:12Z</time></trkpt>
<trkpt lat="54.2913870000" lon="-2.2237540000"><ele>408</ele><time>2013-11-17T10:30:14Z</time></trkpt>
<trkpt lat="54.2913770000" lon="-2.2237900000"><ele>408</ele><time>2013-11-17T10:30:16Z</time></trkpt>
<trkpt lat="54.2913700000" lon="-2.2238260000"><ele>408</ele><time>2013-11-17T10:30:18Z</time></trkpt>
<trkpt lat="54.2913610000" lon="-2.2238680000"><ele>408</ele><time>2013-11-17T10:30:21Z</time></trkpt>
<trkpt lat="54.2913520000" lon="-2.2239030000"><ele>408</ele><time>2013-11-17T10:30:23Z</time></trkpt>
<trkpt lat="54.2913420000" lon="-2.2239360000"><ele>408</ele><time>2013-11-17T10:30:25Z</time></trkpt>
<trkpt lat="54.2913320000" lon="-2.2239720000"><ele>408</ele><time>2013-11-17T10:30:27Z</time></trkpt>
<trkpt lat="54.2913220000" lon="-2.2240110000"><ele>408</ele><time>2013-11-17T10:30:29Z</time></trkpt>
<trkpt lat="54.2913130000" lon="-2.2240520000"><ele>408</ele><time>2013-11-17T10:30:31Z</time></trkpt>
<trkpt lat="54.2913050000" lon="-2.2240890000"><ele>408</ele><time>2013-11-17T10:30:33Z</time></trkpt>
<trkpt lat="54.2912980000" lon="-2.2241250000"><ele>408</ele><time>2013-11-17T10:30:35Z</time></trkpt>
<trkpt lat="54.2912880000" lon="-2.2241670000"><ele>408</ele><time>2013-11-17T10:30:37Z</time></trkpt>
<trkpt lat="54.2912750000" lon="-2.2242130000"><ele>408</ele><time>2013-11-17T10:30:39Z</time></trkpt>
<trkpt lat="54.2912670000" lon="-2.2242480000"><ele>408</ele><time>2013-11-17T10:30:41Z</time></trkpt>
<trkpt lat="54.2912640000" lon="-2.2242890000"><ele>408</ele><time>2013-11-17T10:30:44Z</time></trkpt>
<trkpt lat="54.2912600000" lon="-2.2243170000"><ele>408</ele><time>2013-11-17T10:30:45Z</time></trkpt>
<trkpt lat="54.2912570000" lon="-2.2243310000"><ele>408</ele><time>2013-11-17T10:30:46Z</time></trkpt>
<trkpt lat="54.2912440000" lon="-2.2243730000"><ele>408</ele><time>2013-11-17T10:30:49Z</time></trkpt>
<trkpt lat="54.2912360000" lon="-2.2244070000"><ele>408</ele><time>2013-11-17T10:30:51Z</time></trkpt>
<trkpt lat="54.2912260000" lon="-2.2244470000"><ele>408</ele><time>2013-11-17T10:30:53Z</time></trkpt>
<trkpt lat="54.2912140000" lon="-2.2244920000"><ele>408</ele><time>2013-11-17T10:30:55Z</time></trkpt>
<trkpt lat="54.2912050000" lon="-2.2245380000"><ele>408</ele><time>2013-11-17T10:30:57Z</time></trkpt>
<trkpt lat="54.2912020000" lon="-2.2245920000"><ele>408</ele><time>2013-11-17T10:31:00Z</time></trkpt>
<trkpt lat="54.2911970000" lon="-2.2246410000"><ele>408</ele><time>2013-11-17T10:31:03Z</time></trkpt>
<trkpt lat="54.2911870000" lon="-2.2246950000"><ele>408</ele><time>2013-11-17T10:31:06Z</time></trkpt>
<trkpt lat="54.2911820000" lon="-2.2247300000"><ele>408</ele><time>2013-11-17T10:31:08Z</time></trkpt>
<trkpt lat="54.2911790000" lon="-2.2247800000"><ele>408</ele><time>2013-11-17T10:31:11Z</time></trkpt>
<trkpt lat="54.2911720000" lon="-2.2248220000"><ele>408</ele><time>2013-11-17T10:31:14Z</time></trkpt>
<trkpt lat="54.2911610000" lon="-2.2248690000"><ele>408</ele><time>2013-11-17T10:31:17Z</time></trkpt>
<trkpt lat="54.2911510000" lon="-2.2249140000"><ele>408</ele><time>2013-11-17T10:31:20Z</time></trkpt>
<trkpt lat="54.2911360000" lon="-2.2249530000"><ele>408</ele><time>2013-11-17T10:31:23Z</time></trkpt>
<trkpt lat="54.2911230000" lon="-2.2249960000"><ele>408</ele><time>2013-11-17T10:31:26Z</time></trkpt>
<trkpt lat="54.2911120000" lon="-2.2250340000"><ele>408</ele><time>2013-11-17T10:31:28Z</time></trkpt>
<trkpt lat="54.2910990000" lon="-2.2250840000"><ele>408</ele><time>2013-11-17T10:31:30Z</time></trkpt>
<trkpt lat="54.2910950000" lon="-2.2251010000"><ele>408</ele><time>2013-11-17T10:31:31Z</time></trkpt>
<trkpt lat="54.2910910000" lon="-2.2251160000"><ele>408</ele><time>2013-11-17T10:31:32Z</time></trkpt>
<trkpt lat="54.2910870000" lon="-2.2251310000"><ele>408</ele><time>2013-11-17T10:31:33Z</time></trkpt>
<trkpt lat="54.2910820000" lon="-2.2251480000"><ele>408</ele><time>2013-11-17T10:31:34Z</time></trkpt>
<trkpt lat="54.2910770000" lon="-2.2251680000"><ele>408</ele><time>2013-11-17T10:31:35Z</time></trkpt>
<trkpt lat="54.2910720000" lon="-2.2251890000"><ele>408</ele><time>2013-11-17T10:31:36Z</time></trkpt>
<trkpt lat="54.2910660000" lon="-2.2252070000"><ele>408</ele><time>2013-11-17T10:31:37Z</time></trkpt>
<trkpt lat="54.2910610000" lon="-2.2252280000"><ele>408</ele><time>2013-11-17T10:31:38Z</time></trkpt>
<trkpt lat="54.2910560000" lon="-2.2252480000"><ele>408</ele><time>2013-11-17T10:31:39Z</time></trkpt>
<trkpt lat="54.2910520000" lon="-2.2252670000"><ele>408</ele><time>2013-11-17T10:31:40Z</time></trkpt>
<trkpt lat="54.2910500000" lon="-2.2252830000"><ele>408</ele><time>2013-11-17T10:31:41Z</time></trkpt>
<trkpt lat="54.2910470000" lon="-2.2253000000"><ele>408</ele><time>2013-11-17T10:31:42Z</time></trkpt>
<trkpt lat="54.2910430000" lon="-2.2253190000"><ele>408</ele><time>2013-11-17T10:31:43Z</time></trkpt>
<trkpt lat="54.2910390000" lon="-2.2253400000"><ele>408</ele><time>2013-11-17T10:31:44Z</time></trkpt>
<trkpt lat="54.2910350000" lon="-2.2253590000"><ele>408</ele><time>2013-11-17T10:31:45Z</time></trkpt>
<trkpt lat="54.2910320000" lon="-2.2253770000"><ele>408</ele><time>2013-11-17T10:31:46Z</time></trkpt>
<trkpt lat="54.2910280000" lon="-2.2253960000"><ele>408</ele><time>2013-11-17T10:31:47Z</time></trkpt>
<trkpt lat="54.2910250000" lon="-2.2254120000"><ele>408</ele><time>2013-11-17T10:31:48Z</time></trkpt>
<trkpt lat="54.2910210000" lon="-2.2254300000"><ele>408</ele><time>2013-11-17T10:31:49Z</time></trkpt>
<trkpt lat="54.2910170000" lon="-2.2254480000"><ele>408</ele><time>2013-11-17T10:31:50Z</time></trkpt>
<trkpt lat="54.2910140000" lon="-2.2254650000"><ele>408</ele><time>2013-11-17T10:31:51Z</time></trkpt>
<trkpt lat="54.2910100000" lon="-2.2254830000"><ele>408</ele><time>2013-11-17T10:31:52Z</time></trkpt>
<trkpt lat="54.2910050000" lon="-2.2255030000"><ele>416</ele><time>2013-11-17T10:31:53Z</time></trkpt>
<trkpt lat="54.2910010000" lon="-2.2255220000"><ele>416</ele><time>2013-11-17T10:31:54Z</time></trkpt>
<trkpt lat="54.2909960000" lon="-2.2255420000"><ele>416</ele><time>2013-11-17T10:31:55Z</time></trkpt>
<trkpt lat="54.2909900000" lon="-2.2255620000"><ele>416</ele><time>2013-11-17T10:31:56Z</time></trkpt>
<trkpt lat="54.2909840000" lon="-2.2255800000"><ele>416</ele><time>2013-11-17T10:31:57Z</time></trkpt>
<trkpt lat="54.2909800000" lon="-2.2255990000"><ele>416</ele><time>2013-11-17T10:31:58Z</time></trkpt>
<trkpt lat="54.2909760000" lon="-2.2256210000"><ele>416</ele><time>2013-11-17T10:31:59Z</time></trkpt>
<trkpt lat="54.2909730000" lon="-2.2256410000"><ele>416</ele><time>2013-11-17T10:32:00Z</time></trkpt>
<trkpt lat="54.2909690000" lon="-2.2256620000"><ele>416</ele><time>2013-11-17T10:32:01Z</time></trkpt>
<trkpt lat="54.2909650000" lon="-2.2256840000"><ele>416</ele><time>2013-11-17T10:32:02Z</time></trkpt>
<trkpt lat="54.2909620000" lon="-2.2257070000"><ele>416</ele><time>2013-11-17T10:32:03Z</time></trkpt>
<trkpt lat="54.2909590000" lon="-2.2257300000"><ele>416</ele><time>2013-11-17T10:32:04Z</time></trkpt>
<trkpt lat="54.2909550000" lon="-2.2257520000"><ele>416</ele><time>2013-11-17T10:32:05Z</time></trkpt>
<trkpt lat="54.2909530000" lon="-2.2257720000"><ele>416</ele><time>2013-11-17T10:32:06Z</time></trkpt>
<trkpt lat="54.2909480000" lon="-2.2257940000"><ele>416</ele><time>2013-11-17T10:32:07Z</time></trkpt>
<trkpt lat="54.2909440000" lon="-2.2258150000"><ele>435</ele><time>2013-11-17T10:32:08Z</time></trkpt>
<trkpt lat="54.2909400000" lon="-2.2258360000"><ele>435</ele><time>2013-11-17T10:32:09Z</time></trkpt>
<trkpt lat="54.2909380000" lon="-2.2258570000"><ele>435</ele><time>2013-11-17T10:32:10Z</time></trkpt>
<trkpt lat="54.2909360000" lon="-2.2258760000"><ele>435</ele><time>2013-11-17T10:32:11Z</time></trkpt>
<trkpt lat="54.2909330000" lon="-2.2258950000"><ele>435</ele><time>2013-11-17T10:32:12Z</time></trkpt>
<trkpt lat="54.2909300000" lon="-2.2259110000"><ele>435</ele><time>2013-11-17T10:32:13Z</time></trkpt>
<trkpt lat="54.2909270000" lon="-2.2259290000"><ele>435</ele><time>2013-11-17T10:32:14Z</time></trkpt>
<trkpt lat="54.2909220000" lon="-2.2259490000"><ele>435</ele><time>2013-11-17T10:32:15Z</time></trkpt>
<trkpt lat="54.2909170000" lon="-2.2259710000"><ele>435</ele><time>2013-11-17T10:32:16Z</time></trkpt>
<trkpt lat="54.2909110000" lon="-2.2259940000"><ele>435</ele><time>2013-11-17T10:32:17Z</time></trkpt>
<trkpt lat="54.2909050000" lon="-2.2260150000"><ele>435</ele><time>2013-11-17T10:32:18Z</time></trkpt>
<trkpt lat="54.2908990000" lon="-2.2260340000"><ele>435</ele><time>2013-11-17T10:32:19Z</time></trkpt>
<trkpt lat="54.2908940000" lon="-2.2260520000"><ele>435</ele><time>2013-11-17T10:32:20Z</time></trkpt>
<trkpt lat="54.2908900000" lon="-2.2260700000"><ele>435</ele><time>2013-11-17T10:32:21Z</time></trkpt>
<trkpt lat="54.2908860000" lon="-2.2260880000"><ele>435</ele><time>2013-11-17T10:32:22Z</time></trkpt>
<trkpt lat="54.2908800000" lon="-2.2261070000"><ele>435</ele><time>2013-11-17T10:32:23Z</time></trkpt>
<trkpt lat="54.2908740000" lon="-2.2261280000"><ele>435</ele><time>2013-11-17T10:32:24Z</time></trkpt>
<trkpt lat="54.2908690000" lon="-2.2261490000"><ele>435</ele><time>2013-11-17T10:32:25Z</time></trkpt>
<trkpt lat="54.2908660000" lon="-2.2261680000"><ele>435</ele><time>2013-11-17T10:32:26Z</time></trkpt>
<trkpt lat="54.2908620000" lon="-2.2261880000"><ele>435</ele><time>2013-11-17T10:32:27Z</time></trkpt>
<trkpt lat="54.2908550000" lon="-2.2262090000"><ele>435</ele><time>2013-11-17T10:32:28Z</time></trkpt>
<trkpt lat="54.2908480000" lon="-2.2262290000"><ele>435</ele><time>2013-11-17T10:32:29Z</time></trkpt>
<trkpt lat="54.2908420000" lon="-2.2262450000"><ele>435</ele><time>2013-11-17T10:32:30Z</time></trkpt>
<trkpt lat="54.2908350000" lon="-2.2262630000"><ele>435</ele><time>2013-11-17T10:32:31Z</time></trkpt>
<trkpt lat="54.2908280000" lon="-2.2262810000"><ele>435</ele><time>2013-11-17T10:32:32Z</time></trkpt>
<trkpt lat="54.2908210000" lon="-2.2262980000"><ele>435</ele><time>2013-11-17T10:32:33Z</time></trkpt>
<trkpt lat="54.2908140000" lon="-2.2263150000"><ele>435</ele><time>2013-11-17T10:32:34Z</time></trkpt>
<trkpt lat="54.2908080000" lon="-2.2263310000"><ele>435</ele><time>2013-11-17T10:32:35Z</time></trkpt>
<trkpt lat="54.2908030000" lon="-2.2263460000"><ele>435</ele><time>2013-11-17T10:32:36Z</time></trkpt>
<trkpt lat="54.2907970000" lon="-2.2263650000"><ele>435</ele><time>2013-11-17T10:32:37Z</time></trkpt>
<trkpt lat="54.2907920000" lon="-2.2263850000"><ele>435</ele><time>2013-11-17T10:32:38Z</time></trkpt>
<trkpt lat="54.2907860000" lon="-2.2264050000"><ele>435</ele><time>2013-11-17T10:32:39Z</time></trkpt>
<trkpt lat="54.2907810000" lon="-2.2264230000"><ele>435</ele><time>2013-11-17T10:32:40Z</time></trkpt>
<trkpt lat="54.2907780000" lon="-2.2264440000"><ele>435</ele><time>2013-11-17T10:32:41Z</time></trkpt>
<trkpt lat="54.2907780000" lon="-2.2264640000"><ele>435</ele><time>2013-11-17T10:32:42Z</time></trkpt>
<trkpt lat="54.2907790000" lon="-2.2264810000"><ele>435</ele><time>2013-11-17T10:32:43Z</time></trkpt>
<trkpt lat="54.2907810000" lon="-2.2264980000"><ele>435</ele><time>2013-11-17T10:32:44Z</time></trkpt>
<trkpt lat="54.2907850000" lon="-2.2265170000"><ele>435</ele><time>2013-11-17T10:32:45Z</time></trkpt>
<trkpt lat="54.2907890000" lon="-2.2265370000"><ele>435</ele><time>2013-11-17T10:32:46Z</time></trkpt>
<trkpt lat="54.2907910000" lon="-2.2265540000"><ele>435</ele><time>2013-11-17T10:32:47Z</time></trkpt>
<trkpt lat="54.2907900000" lon="-2.2265730000"><ele>435</ele><time>2013-11-17T10:32:48Z</time></trkpt>
<trkpt lat="54.2907860000" lon="-2.2265920000"><ele>435</ele><time>2013-11-17T10:32:49Z</time></trkpt>
<trkpt lat="54.2907820000" lon="-2.2266090000"><ele>435</ele><time>2013-11-17T10:32:50Z</time></trkpt>
<trkpt lat="54.2907760000" lon="-2.2266240000"><ele>435</ele><time>2013-11-17T10:32:51Z</time></trkpt>
<trkpt lat="54.2907710000" lon="-2.2266380000"><ele>435</ele><time>2013-11-17T10:32:52Z</time></trkpt>
<trkpt lat="54.2907650000" lon="-2.2266530000"><ele>435</ele><time>2013-11-17T10:32:53Z</time></trkpt>
<trkpt lat="54.2907580000" lon="-2.2266690000"><ele>435</ele><time>2013-11-17T10:32:54Z</time></trkpt>
<trkpt lat="54.2907510000" lon="-2.2266860000"><ele>435</ele><time>2013-11-17T10:32:55Z</time></trkpt>
<trkpt lat="54.2907430000" lon="-2.2267050000"><ele>435</ele><time>2013-11-17T10:32:56Z</time></trkpt>
<trkpt lat="54.2907370000" lon="-2.2267210000"><ele>435</ele><time>2013-11-17T10:32:57Z</time></trkpt>
<trkpt lat="54.2907310000" lon="-2.2267350000"><ele>435</ele><time>2013-11-17T10:32:58Z</time></trkpt>
<trkpt lat="54.2907250000" lon="-2.2267470000"><ele>435</ele><time>2013-11-17T10:32:59Z</time></trkpt>
<trkpt lat="54.2907180000" lon="-2.2267580000"><ele>435</ele><time>2013-11-17T10:33:00Z</time></trkpt>
<trkpt lat="54.2907110000" lon="-2.2267680000"><ele>435</ele><time>2013-11-17T10:33:01Z</time></trkpt>
<trkpt lat="54.2907020000" lon="-2.2267770000"><ele>435</ele><time>2013-11-17T10:33:02Z</time></trkpt>
<trkpt lat="54.2906950000" lon="-2.2267880000"><ele>435</ele><time>2013-11-17T10:33:03Z</time></trkpt>
<trkpt lat="54.2906900000" lon="-2.2267970000"><ele>435</ele><time>2013-11-17T10:33:04Z</time></trkpt>
<trkpt lat="54.2906870000" lon="-2.2268040000"><ele>435</ele><time>2013-11-17T10:33:05Z</time></trkpt>
<trkpt lat="54.2906840000" lon="-2.2268070000"><ele>435</ele><time>2013-11-17T10:33:06Z</time></trkpt>
<trkpt lat="54.2906820000" lon="-2.2268100000"><ele>435</ele><time>2013-11-17T10:33:07Z</time></trkpt>
<trkpt lat="54.2906820000" lon="-2.2268110000"><ele>435</ele><time>2013-11-17T10:33:08Z</time></trkpt>
<trkpt lat="54.2906820000" lon="-2.2268100000"><ele>435</ele><time>2013-11-17T10:33:09Z</time></trkpt>
<trkpt lat="54.2906810000" lon="-2.2268090000"><ele>435</ele><time>2013-11-17T10:33:10Z</time></trkpt>
<trkpt lat="54.2906780000" lon="-2.2268120000"><ele>435</ele><time>2013-11-17T10:33:11Z</time></trkpt>
<trkpt lat="54.2906710000" lon="-2.2268190000"><ele>435</ele><time>2013-11-17T10:33:12Z</time></trkpt>
<trkpt lat="54.2906660000" lon="-2.2268260000"><ele>435</ele><time>2013-11-17T10:33:13Z</time></trkpt>
<trkpt lat="54.2906620000" lon="-2.2268300000"><ele>435</ele><time>2013-11-17T10:33:14Z</time></trkpt>
<trkpt lat="54.2906580000" lon="-2.2268340000"><ele>435</ele><time>2013-11-17T10:33:15Z</time></trkpt>
<trkpt lat="54.2906520000" lon="-2.2268400000"><ele>435</ele><time>2013-11-17T10:33:16Z</time></trkpt>
<trkpt lat="54.2906450000" lon="-2.2268510000"><ele>435</ele><time>2013-11-17T10:33:17Z</time></trkpt>
<trkpt lat="54.2906390000" lon="-2.2268630000"><ele>435</ele><time>2013-11-17T10:33:18Z</time></trkpt>
<trkpt lat="54.2906320000" lon="-2.2268750000"><ele>435</ele><time>2013-11-17T10:33:19Z</time></trkpt>
<trkpt lat="54.2906230000" lon="-2.2268850000"><ele>435</ele><time>2013-11-17T10:33:20Z</time></trkpt>
<trkpt lat="54.2906150000" lon="-2.2268950000"><ele>435</ele><time>2013-11-17T10:33:21Z</time></trkpt>
<trkpt lat="54.2906060000" lon="-2.2269040000"><ele>435</ele><time>2013-11-17T10:33:22Z</time></trkpt>
<trkpt lat="54.2905980000" lon="-2.2269150000"><ele>435</ele><time>2013-11-17T10:33:23Z</time></trkpt>
<trkpt lat="54.2905910000" lon="-2.2269260000"><ele>435</ele><time>2013-11-17T10:33:24Z</time></trkpt>
<trkpt lat="54.2905840000" lon="-2.2269330000"><ele>435</ele><time>2013-11-17T10:33:25Z</time></trkpt>
<trkpt lat="54.2905770000" lon="-2.2269410000"><ele>435</ele><time>2013-11-17T10:33:26Z</time></trkpt>
<trkpt lat="54.2905690000" lon="-2.2269510000"><ele>435</ele><time>2013-11-17T10:33:27Z</time></trkpt>
<trkpt lat="54.2905610000" lon="-2.2269630000"><ele>435</ele><time>2013-11-17T10:33:28Z</time></trkpt>
<trkpt lat="54.2905540000" lon="-2.2269760000"><ele>435</ele><time>2013-11-17T10:33:29Z</time></trkpt>
<trkpt lat="54.2905470000" lon="-2.2269910000"><ele>435</ele><time>2013-11-17T10:33:30Z</time></trkpt>
<trkpt lat="54.2905400000" lon="-2.2270060000"><ele>435</ele><time>2013-11-17T10:33:31Z</time></trkpt>
<trkpt lat="54.2905330000" lon="-2.2270210000"><ele>435</ele><time>2013-11-17T10:33:32Z</time></trkpt>
<trkpt lat="54.2905270000" lon="-2.2270350000"><ele>435</ele><time>2013-11-17T10:33:33Z</time></trkpt>
<trkpt lat="54.2905220000" lon="-2.2270470000"><ele>435</ele><time>2013-11-17T10:33:34Z</time></trkpt>
<trkpt lat="54.2905160000" lon="-2.2270610000"><ele>435</ele><time>2013-11-17T10:33:35Z</time></trkpt>
<trkpt lat="54.2905100000" lon="-2.2270740000"><ele>435</ele><time>2013-11-17T10:33:36Z</time></trkpt>
<trkpt lat="54.2905050000" lon="-2.2270880000"><ele>435</ele><time>2013-11-17T10:33:37Z</time></trkpt>
<trkpt lat="54.2905000000" lon="-2.2271060000"><ele>435</ele><time>2013-11-17T10:33:38Z</time></trkpt>
<trkpt lat="54.2904960000" lon="-2.2271230000"><ele>435</ele><time>2013-11-17T10:33:39Z</time></trkpt>
<trkpt lat="54.2904920000" lon="-2.2271410000"><ele>435</ele><time>2013-11-17T10:33:40Z</time></trkpt>
<trkpt lat="54.2904880000" lon="-2.2271560000"><ele>435</ele><time>2013-11-17T10:33:41Z</time></trkpt>
<trkpt lat="54.2904830000" lon="-2.2271700000"><ele>435</ele><time>2013-11-17T10:33:42Z</time></trkpt>
<trkpt lat="54.2904770000" lon="-2.2271840000"><ele>435</ele><time>2013-11-17T10:33:43Z</time></trkpt>
<trkpt lat="54.2904690000" lon="-2.2271980000"><ele>435</ele><time>2013-11-17T10:33:44Z</time></trkpt>
<trkpt lat="54.2904640000" lon="-2.2272090000"><ele>435</ele><time>2013-11-17T10:33:45Z</time></trkpt>
<trkpt lat="54.2904590000" lon="-2.2272180000"><ele>435</ele><time>2013-11-17T10:33:46Z</time></trkpt>
<trkpt lat="54.2904560000" lon="-2.2272260000"><ele>435</ele><time>2013-11-17T10:33:47Z</time></trkpt>
<trkpt lat="54.2904540000" lon="-2.2272320000"><ele>435</ele><time>2013-11-17T10:33:48Z</time></trkpt>
<trkpt lat="54.2904510000" lon="-2.2272390000"><ele>435</ele><time>2013-11-17T10:33:49Z</time></trkpt>
<trkpt lat="54.2904490000" lon="-2.2272430000"><ele>435</ele><time>2013-11-17T10:33:50Z</time></trkpt>
<trkpt lat="54.2904490000" lon="-2.2272450000"><ele>435</ele><time>2013-11-17T10:33:51Z</time></trkpt>
<trkpt lat="54.2904360000" lon="-2.2272780000"><ele>435</ele><time>2013-11-17T10:34:06Z</time></trkpt>
<trkpt lat="54.2904230000" lon="-2.2273200000"><ele>435</ele><time>2013-11-17T10:34:09Z</time></trkpt>
<trkpt lat="54.2904190000" lon="-2.2273330000"><ele>435</ele><time>2013-11-17T10:34:10Z</time></trkpt>
<trkpt lat="54.2904140000" lon="-2.2273460000"><ele>435</ele><time>2013-11-17T10:34:11Z</time></trkpt>
<trkpt lat="54.2904080000" lon="-2.2273620000"><ele>435</ele><time>2013-11-17T10:34:12Z</time></trkpt>
<trkpt lat="54.2904020000" lon="-2.2273800000"><ele>435</ele><time>2013-11-17T10:34:13Z</time></trkpt>
<trkpt lat="54.2903980000" lon="-2.2273980000"><ele>435</ele><time>2013-11-17T10:34:14Z</time></trkpt>
<trkpt lat="54.2903960000" lon="-2.2274150000"><ele>435</ele><time>2013-11-17T10:34:15Z</time></trkpt>
<trkpt lat="54.2903950000" lon="-2.2274320000"><ele>435</ele><time>2013-11-17T10:34:16Z</time></trkpt>
<trkpt lat="54.2903940000" lon="-2.2274500000"><ele>435</ele><time>2013-11-17T10:34:17Z</time></trkpt>
<trkpt lat="54.2903950000" lon="-2.2274690000"><ele>435</ele><time>2013-11-17T10:34:18Z</time></trkpt>
<trkpt lat="54.2903960000" lon="-2.2274870000"><ele>435</ele><time>2013-11-17T10:34:19Z</time></trkpt>
<trkpt lat="54.2903930000" lon="-2.2275080000"><ele>435</ele><time>2013-11-17T10:34:20Z</time></trkpt>
<trkpt lat="54.2903900000" lon="-2.2275290000"><ele>435</ele><time>2013-11-17T10:34:21Z</time></trkpt>
<trkpt lat="54.2903860000" lon="-2.2275470000"><ele>435</ele><time>2013-11-17T10:34:22Z</time></trkpt>
<trkpt lat="54.2903830000" lon="-2.2275630000"><ele>435</ele><time>2013-11-17T10:34:23Z</time></trkpt>
<trkpt lat="54.2903810000" lon="-2.2275790000"><ele>435</ele><time>2013-11-17T10:34:24Z</time></trkpt>
<trkpt lat="54.2903780000" lon="-2.2275900000"><ele>435</ele><time>2013-11-17T10:34:25Z</time></trkpt>
<trkpt lat="54.2903770000" lon="-2.2275970000"><ele>435</ele><time>2013-11-17T10:34:26Z</time></trkpt>
<trkpt lat="54.2903750000" lon="-2.2275990000"><ele>435</ele><time>2013-11-17T10:34:27Z</time></trkpt>
<trkpt lat="54.2903740000" lon="-2.2276000000"><ele>435</ele><time>2013-11-17T10:34:28Z</time></trkpt>
<trkpt lat="54.2903740000" lon="-2.2276010000"><ele>435</ele><time>2013-11-17T10:34:29Z</time></trkpt>
<trkpt lat="54.2903730000" lon="-2.2276010000"><ele>435</ele><time>2013-11-17T10:34:30Z</time></trkpt>
<trkpt lat="54.2903730000" lon="-2.2276000000"><ele>435</ele><time>2013-11-17T10:34:31Z</time></trkpt>
<trkpt lat="54.2903730000" lon="-2.2275980000"><ele>435</ele><time>2013-11-17T10:34:32Z</time></trkpt>
<trkpt lat="54.2903730000" lon="-2.2275980000"><ele>435</ele><time>2013-11-17T10:34:33Z</time></trkpt>
<trkpt lat="54.2903690000" lon="-2.2276030000"><ele>435</ele><time>2013-11-17T10:34:34Z</time></trkpt>
<trkpt lat="54.2903640000" lon="-2.2276090000"><ele>435</ele><time>2013-11-17T10:34:35Z</time></trkpt>
<trkpt lat="54.2903600000" lon="-2.2276170000"><ele>435</ele><time>2013-11-17T10:34:36Z</time></trkpt>
<trkpt lat="54.2903550000" lon="-2.2276270000"><ele>435</ele><time>2013-11-17T10:34:37Z</time></trkpt>
<trkpt lat="54.2903510000" lon="-2.2276380000"><ele>435</ele><time>2013-11-17T10:34:38Z</time></trkpt>
<trkpt lat="54.2903470000" lon="-2.2276500000"><ele>435</ele><time>2013-11-17T10:34:39Z</time></trkpt>
<trkpt lat="54.2903430000" lon="-2.2276640000"><ele>435</ele><time>2013-11-17T10:34:40Z</time></trkpt>
<trkpt lat="54.2903420000" lon="-2.2276750000"><ele>435</ele><time>2013-11-17T10:34:41Z</time></trkpt>
<trkpt lat="54.2903410000" lon="-2.2276790000"><ele>435</ele><time>2013-11-17T10:34:42Z</time></trkpt>
<trkpt lat="54.2903410000" lon="-2.2276810000"><ele>435</ele><time>2013-11-17T10:34:43Z</time></trkpt>
<trkpt lat="54.2903400000" lon="-2.2276810000"><ele>435</ele><time>2013-11-17T10:34:44Z</time></trkpt>
<trkpt lat="54.2903400000" lon="-2.2276820000"><ele>435</ele><time>2013-11-17T10:34:45Z</time></trkpt>
<trkpt lat="54.2903380000" lon="-2.2276820000"><ele>435</ele><time>2013-11-17T10:34:46Z</time></trkpt>
<trkpt lat="54.2903350000" lon="-2.2276890000"><ele>435</ele><time>2013-11-17T10:34:47Z</time></trkpt>
<trkpt lat="54.2903310000" lon="-2.2276990000"><ele>435</ele><time>2013-11-17T10:34:48Z</time></trkpt>
<trkpt lat="54.2903230000" lon="-2.2277330000"><ele>435</ele><time>2013-11-17T10:34:51Z</time></trkpt>
<trkpt lat="54.2903110000" lon="-2.2277800000"><ele>435</ele><time>2013-11-17T10:34:55Z</time></trkpt>
<trkpt lat="54.2902910000" lon="-2.2278140000"><ele>435</ele><time>2013-11-17T10:34:58Z</time></trkpt>
<trkpt lat="54.2902690000" lon="-2.2278560000"><ele>435</ele><time>2013-11-17T10:35:01Z</time></trkpt>
<trkpt lat="54.2902530000" lon="-2.2278900000"><ele>435</ele><time>2013-11-17T10:35:03Z</time></trkpt>
<trkpt lat="54.2902330000" lon="-2.2279330000"><ele>435</ele><time>2013-11-17T10:35:06Z</time></trkpt>
<trkpt lat="54.2902130000" lon="-2.2279850000"><ele>435</ele><time>2013-11-17T10:35:09Z</time></trkpt>
<trkpt lat="54.2901950000" lon="-2.2280460000"><ele>435</ele><time>2013-11-17T10:35:14Z</time></trkpt>
<trkpt lat="54.2901650000" lon="-2.2280860000"><ele>435</ele><time>2013-11-17T10:35:17Z</time></trkpt>
<trkpt lat="54.2901430000" lon="-2.2281170000"><ele>435</ele><time>2013-11-17T10:35:19Z</time></trkpt>
<trkpt lat="54.2901230000" lon="-2.2281440000"><ele>435</ele><time>2013-11-17T10:35:21Z</time></trkpt>
<trkpt lat="54.2901040000" lon="-2.2281810000"><ele>435</ele><time>2013-11-17T10:35:24Z</time></trkpt>
<trkpt lat="54.2900790000" lon="-2.2282050000"><ele>435</ele><time>2013-11-17T10:35:27Z</time></trkpt>
<trkpt lat="54.2900550000" lon="-2.2282320000"><ele>435</ele><time>2013-11-17T10:35:30Z</time></trkpt>
<trkpt lat="54.2900260000" lon="-2.2282630000"><ele>435</ele><time>2013-11-17T10:35:33Z</time></trkpt>
<trkpt lat="54.2900040000" lon="-2.2282770000"><ele>435</ele><time>2013-11-17T10:35:35Z</time></trkpt>
<trkpt lat="54.2899820000" lon="-2.2282850000"><ele>435</ele><time>2013-11-17T10:35:37Z</time></trkpt>
<trkpt lat="54.2899600000" lon="-2.2283080000"><ele>435</ele><time>2013-11-17T10:35:39Z</time></trkpt>
<trkpt lat="54.2899350000" lon="-2.2283410000"><ele>435</ele><time>2013-11-17T10:35:42Z</time></trkpt>
<trkpt lat="54.2899100000" lon="-2.2283770000"><ele>435</ele><time>2013-11-17T10:35:45Z</time></trkpt>
<trkpt lat="54.2898900000" lon="-2.2283930000"><ele>435</ele><time>2013-11-17T10:35:47Z</time></trkpt>
<trkpt lat="54.2898670000" lon="-2.2283980000"><ele>435</ele><time>2013-11-17T10:35:49Z</time></trkpt>
<trkpt lat="54.2898460000" lon="-2.2284080000"><ele>435</ele><time>2013-11-17T10:35:51Z</time></trkpt>
<trkpt lat="54.2898250000" lon="-2.2284200000"><ele>435</ele><time>2013-11-17T10:35:53Z</time></trkpt>
<trkpt lat="54.2897960000" lon="-2.2284500000"><ele>435</ele><time>2013-11-17T10:35:57Z</time></trkpt>
<trkpt lat="54.2897690000" lon="-2.2284610000"><ele>435</ele><time>2013-11-17T10:36:00Z</time></trkpt>
<trkpt lat="54.2897210000" lon="-2.2284550000"><ele>435</ele><time>2013-11-17T10:36:10Z</time></trkpt>
<trkpt lat="54.2896940000" lon="-2.2284500000"><ele>435</ele><time>2013-11-17T10:36:13Z</time></trkpt>
<trkpt lat="54.2896440000" lon="-2.2283930000"><ele>435</ele><time>2013-11-17T10:36:21Z</time></trkpt>
<trkpt lat="54.2896220000" lon="-2.2283740000"><ele>435</ele><time>2013-11-17T10:36:24Z</time></trkpt>
<trkpt lat="54.2895940000" lon="-2.2283550000"><ele>435</ele><time>2013-11-17T10:36:27Z</time></trkpt>
<trkpt lat="54.2895680000" lon="-2.2283410000"><ele>435</ele><time>2013-11-17T10:36:30Z</time></trkpt>
<trkpt lat="54.2895350000" lon="-2.2283350000"><ele>435</ele><time>2013-11-17T10:36:34Z</time></trkpt>
<trkpt lat="54.2895090000" lon="-2.2283430000"><ele>435</ele><time>2013-11-17T10:36:37Z</time></trkpt>
<trkpt lat="54.2894870000" lon="-2.2283680000"><ele>435</ele><time>2013-11-17T10:36:39Z</time></trkpt>
<trkpt lat="54.2894550000" lon="-2.2284040000"><ele>435</ele><time>2013-11-17T10:36:42Z</time></trkpt>
<trkpt lat="54.2894330000" lon="-2.2284290000"><ele>435</ele><time>2013-11-17T10:36:44Z</time></trkpt>
<trkpt lat="54.2894060000" lon="-2.2284520000"><ele>435</ele><time>2013-11-17T10:36:47Z</time></trkpt>
<trkpt lat="54.2893830000" lon="-2.2284720000"><ele>435</ele><time>2013-11-17T10:36:49Z</time></trkpt>
<trkpt lat="54.2893610000" lon="-2.2284990000"><ele>435</ele><time>2013-11-17T10:36:51Z</time></trkpt>
<trkpt lat="54.2893430000" lon="-2.2285360000"><ele>435</ele><time>2013-11-17T10:36:53Z</time></trkpt>
<trkpt lat="54.2893210000" lon="-2.2285830000"><ele>435</ele><time>2013-11-17T10:36:56Z</time></trkpt>
<trkpt lat="54.2893020000" lon="-2.2286290000"><ele>435</ele><time>2013-11-17T10:36:59Z</time></trkpt>
<trkpt lat="54.2892770000" lon="-2.2286740000"><ele>435</ele><time>2013-11-17T10:37:02Z</time></trkpt>
<trkpt lat="54.2892580000" lon="-2.2287070000"><ele>435</ele><time>2013-11-17T10:37:04Z</time></trkpt>
<trkpt lat="54.2892380000" lon="-2.2287350000"><ele>435</ele><time>2013-11-17T10:37:06Z</time></trkpt>
<trkpt lat="54.2892100000" lon="-2.2287670000"><ele>435</ele><time>2013-11-17T10:37:09Z</time></trkpt>
<trkpt lat="54.2891860000" lon="-2.2287900000"><ele>451</ele><time>2013-11-17T10:37:12Z</time></trkpt>
<trkpt lat="54.2891570000" lon="-2.2288160000"><ele>451</ele><time>2013-11-17T10:37:15Z</time></trkpt>
<trkpt lat="54.2891380000" lon="-2.2288300000"><ele>451</ele><time>2013-11-17T10:37:17Z</time></trkpt>
<trkpt lat="54.2891180000" lon="-2.2288450000"><ele>451</ele><time>2013-11-17T10:37:19Z</time></trkpt>
<trkpt lat="54.2890910000" lon="-2.2288480000"><ele>451</ele><time>2013-11-17T10:37:23Z</time></trkpt>
<trkpt lat="54.2890700000" lon="-2.2288400000"><ele>451</ele><time>2013-11-17T10:37:26Z</time></trkpt>
<trkpt lat="54.2890410000" lon="-2.2288500000"><ele>451</ele><time>2013-11-17T10:37:29Z</time></trkpt>
<trkpt lat="54.2890180000" lon="-2.2288610000"><ele>451</ele><time>2013-11-17T10:37:31Z</time></trkpt>
<trkpt lat="54.2889940000" lon="-2.2288770000"><ele>467</ele><time>2013-11-17T10:37:33Z</time></trkpt>
<trkpt lat="54.2889720000" lon="-2.2288970000"><ele>467</ele><time>2013-11-17T10:37:35Z</time></trkpt>
<trkpt lat="54.2889520000" lon="-2.2289140000"><ele>467</ele><time>2013-11-17T10:37:37Z</time></trkpt>
<trkpt lat="54.2889290000" lon="-2.2289380000"><ele>467</ele><time>2013-11-17T10:37:39Z</time></trkpt>
<trkpt lat="54.2889220000" lon="-2.2289470000"><ele>467</ele><time>2013-11-17T10:37:40Z</time></trkpt>
<trkpt lat="54.2889130000" lon="-2.2289570000"><ele>467</ele><time>2013-11-17T10:37:41Z</time></trkpt>
<trkpt lat="54.2889040000" lon="-2.2289650000"><ele>467</ele><time>2013-11-17T10:37:42Z</time></trkpt>
<trkpt lat="54.2888940000" lon="-2.2289730000"><ele>467</ele><time>2013-11-17T10:37:43Z</time></trkpt>
<trkpt lat="54.2888840000" lon="-2.2289840000"><ele>467</ele><time>2013-11-17T10:37:44Z</time></trkpt>
<trkpt lat="54.2888740000" lon="-2.2289950000"><ele>467</ele><time>2013-11-17T10:37:45Z</time></trkpt>
<trkpt lat="54.2888640000" lon="-2.2290050000"><ele>467</ele><time>2013-11-17T10:37:46Z</time></trkpt>
<trkpt lat="54.2888540000" lon="-2.2290150000"><ele>467</ele><time>2013-11-17T10:37:47Z</time></trkpt>
<trkpt lat="54.2888440000" lon="-2.2290270000"><ele>467</ele><time>2013-11-17T10:37:48Z</time></trkpt>
<trkpt lat="54.2888350000" lon="-2.2290390000"><ele>467</ele><time>2013-11-17T10:37:49Z</time></trkpt>
<trkpt lat="54.2888270000" lon="-2.2290500000"><ele>467</ele><time>2013-11-17T10:37:50Z</time></trkpt>
<trkpt lat="54.2888180000" lon="-2.2290650000"><ele>467</ele><time>2013-11-17T10:37:51Z</time></trkpt>
<trkpt lat="54.2888110000" lon="-2.2290780000"><ele>467</ele><time>2013-11-17T10:37:52Z</time></trkpt>
<trkpt lat="54.2888050000" lon="-2.2290920000"><ele>467</ele><time>2013-11-17T10:37:53Z</time></trkpt>
<trkpt lat="54.2887980000" lon="-2.2291080000"><ele>467</ele><time>2013-11-17T10:37:54Z</time></trkpt>
<trkpt lat="54.2887920000" lon="-2.2291240000"><ele>467</ele><time>2013-11-17T10:37:55Z</time></trkpt>
<trkpt lat="54.2887870000" lon="-2.2291400000"><ele>467</ele><time>2013-11-17T10:37:56Z</time></trkpt>
<trkpt lat="54.2887820000" lon="-2.2291550000"><ele>467</ele><time>2013-11-17T10:37:57Z</time></trkpt>
<trkpt lat="54.2887770000" lon="-2.2291690000"><ele>467</ele><time>2013-11-17T10:37:58Z</time></trkpt>
<trkpt lat="54.2887730000" lon="-2.2291810000"><ele>467</ele><time>2013-11-17T10:37:59Z</time></trkpt>
<trkpt lat="54.2887680000" lon="-2.2291940000"><ele>467</ele><time>2013-11-17T10:38:00Z</time></trkpt>
<trkpt lat="54.2887620000" lon="-2.2292070000"><ele>467</ele><time>2013-11-17T10:38:01Z</time></trkpt>
<trkpt lat="54.2887560000" lon="-2.2292210000"><ele>467</ele><time>2013-11-17T10:38:02Z</time></trkpt>
<trkpt lat="54.2887500000" lon="-2.2292320000"><ele>467</ele><time>2013-11-17T10:38:03Z</time></trkpt>
<trkpt lat="54.2887450000" lon="-2.2292420000"><ele>467</ele><time>2013-11-17T10:38:04Z</time></trkpt>
<trkpt lat="54.2887390000" lon="-2.2292520000"><ele>467</ele><time>2013-11-17T10:38:05Z</time></trkpt>
<trkpt lat="54.2887340000" lon="-2.2292630000"><ele>467</ele><time>2013-11-17T10:38:06Z</time></trkpt>
<trkpt lat="54.2887280000" lon="-2.2292740000"><ele>467</ele><time>2013-11-17T10:38:07Z</time></trkpt>
<trkpt lat="54.2887220000" lon="-2.2292850000"><ele>467</ele><time>2013-11-17T10:38:08Z</time></trkpt>
<trkpt lat="54.2887160000" lon="-2.2292970000"><ele>467</ele><time>2013-11-17T10:38:09Z</time></trkpt>
<trkpt lat="54.2887110000" lon="-2.2293090000"><ele>467</ele><time>2013-11-17T10:38:10Z</time></trkpt>
<trkpt lat="54.2887070000" lon="-2.2293210000"><ele>467</ele><time>2013-11-17T10:38:11Z</time></trkpt>
<trkpt lat="54.2887030000" lon="-2.2293310000"><ele>467</ele><time>2013-11-17T10:38:12Z</time></trkpt>
<trkpt lat="54.2886960000" lon="-2.2293380000"><ele>467</ele><time>2013-11-17T10:38:13Z</time></trkpt>
<trkpt lat="54.2886880000" lon="-2.2293390000"><ele>467</ele><time>2013-11-17T10:38:14Z</time></trkpt>
<trkpt lat="54.2886790000" lon="-2.2293350000"><ele>467</ele><time>2013-11-17T10:38:15Z</time></trkpt>
<trkpt lat="54.2886700000" lon="-2.2293350000"><ele>467</ele><time>2013-11-17T10:38:16Z</time></trkpt>
<trkpt lat="54.2886600000" lon="-2.2293400000"><ele>467</ele><time>2013-11-17T10:38:17Z</time></trkpt>
<trkpt lat="54.2886520000" lon="-2.2293480000"><ele>467</ele><time>2013-11-17T10:38:18Z</time></trkpt>
<trkpt lat="54.2886440000" lon="-2.2293560000"><ele>467</ele><time>2013-11-17T10:38:19Z</time></trkpt>
<trkpt lat="54.2886380000" lon="-2.2293680000"><ele>467</ele><time>2013-11-17T10:38:20Z</time></trkpt>
<trkpt lat="54.2886310000" lon="-2.2293810000"><ele>467</ele><time>2013-11-17T10:38:21Z</time></trkpt>
<trkpt lat="54.2886240000" lon="-2.2293940000"><ele>467</ele><time>2013-11-17T10:38:22Z</time></trkpt>
<trkpt lat="54.2886150000" lon="-2.2294060000"><ele>467</ele><time>2013-11-17T10:38:23Z</time></trkpt>
<trkpt lat="54.2886060000" lon="-2.2294180000"><ele>467</ele><time>2013-11-17T10:38:24Z</time></trkpt>
<trkpt lat="54.2885960000" lon="-2.2294280000"><ele>467</ele><time>2013-11-17T10:38:25Z</time></trkpt>
<trkpt lat="54.2885870000" lon="-2.2294390000"><ele>467</ele><time>2013-11-17T10:38:26Z</time></trkpt>
<trkpt lat="54.2885790000" lon="-2.2294460000"><ele>467</ele><time>2013-11-17T10:38:27Z</time></trkpt>
<trkpt lat="54.2885710000" lon="-2.2294550000"><ele>467</ele><time>2013-11-17T10:38:28Z</time></trkpt>
<trkpt lat="54.2885630000" lon="-2.2294670000"><ele>467</ele><time>2013-11-17T10:38:29Z</time></trkpt>
<trkpt lat="54.2885530000" lon="-2.2294780000"><ele>467</ele><time>2013-11-17T10:38:30Z</time></trkpt>
<trkpt lat="54.2885440000" lon="-2.2294860000"><ele>467</ele><time>2013-11-17T10:38:31Z</time></trkpt>
<trkpt lat="54.2885360000" lon="-2.2294920000"><ele>467</ele><time>2013-11-17T10:38:32Z</time></trkpt>
<trkpt lat="54.2885280000" lon="-2.2294990000"><ele>467</ele><time>2013-11-17T10:38:33Z</time></trkpt>
<trkpt lat="54.2885200000" lon="-2.2295040000"><ele>467</ele><time>2013-11-17T10:38:34Z</time></trkpt>
<trkpt lat="54.2885110000" lon="-2.2295080000"><ele>467</ele><time>2013-11-17T10:38:35Z</time></trkpt>
<trkpt lat="54.2885010000" lon="-2.2295140000"><ele>467</ele><time>2013-11-17T10:38:36Z</time></trkpt>
<trkpt lat="54.2884900000" lon="-2.2295190000"><ele>467</ele><time>2013-11-17T10:38:37Z</time></trkpt>
<trkpt lat="54.2884800000" lon="-2.2295260000"><ele>467</ele><time>2013-11-17T10:38:38Z</time></trkpt>
<trkpt lat="54.2884710000" lon="-2.2295320000"><ele>467</ele><time>2013-11-17T10:38:39Z</time></trkpt>
<trkpt lat="54.2884630000" lon="-2.2295350000"><ele>467</ele><time>2013-11-17T10:38:40Z</time></trkpt>
<trkpt lat="54.2884550000" lon="-2.2295370000"><ele>467</ele><time>2013-11-17T10:38:41Z</time></trkpt>
<trkpt lat="54.2884460000" lon="-2.2295360000"><ele>467</ele><time>2013-11-17T10:38:42Z</time></trkpt>
<trkpt lat="54.2884370000" lon="-2.2295380000"><ele>467</ele><time>2013-11-17T10:38:43Z</time></trkpt>
<trkpt lat="54.2884290000" lon="-2.2295370000"><ele>467</ele><time>2013-11-17T10:38:44Z</time></trkpt>
<trkpt lat="54.2884210000" lon="-2.2295350000"><ele>467</ele><time>2013-11-17T10:38:45Z</time></trkpt>
<trkpt lat="54.2884120000" lon="-2.2295360000"><ele>467</ele><time>2013-11-17T10:38:46Z</time></trkpt>
<trkpt lat="54.2884030000" lon="-2.2295410000"><ele>467</ele><time>2013-11-17T10:38:47Z</time></trkpt>
<trkpt lat="54.2883940000" lon="-2.2295470000"><ele>467</ele><time>2013-11-17T10:38:48Z</time></trkpt>
<trkpt lat="54.2883860000" lon="-2.2295540000"><ele>467</ele><time>2013-11-17T10:38:49Z</time></trkpt>
<trkpt lat="54.2883800000" lon="-2.2295610000"><ele>467</ele><time>2013-11-17T10:38:50Z</time></trkpt>
<trkpt lat="54.2883740000" lon="-2.2295710000"><ele>467</ele><time>2013-11-17T10:38:51Z</time></trkpt>
<trkpt lat="54.2883670000" lon="-2.2295820000"><ele>467</ele><time>2013-11-17T10:38:52Z</time></trkpt>
<trkpt lat="54.2883600000" lon="-2.2295930000"><ele>467</ele><time>2013-11-17T10:38:53Z</time></trkpt>
<trkpt lat="54.2883520000" lon="-2.2296020000"><ele>467</ele><time>2013-11-17T10:38:54Z</time></trkpt>
<trkpt lat="54.2883430000" lon="-2.2296100000"><ele>467</ele><time>2013-11-17T10:38:55Z</time></trkpt>
<trkpt lat="54.2883340000" lon="-2.2296190000"><ele>467</ele><time>2013-11-17T10:38:56Z</time></trkpt>
<trkpt lat="54.2883260000" lon="-2.2296260000"><ele>467</ele><time>2013-11-17T10:38:57Z</time></trkpt>
<trkpt lat="54.2883190000" lon="-2.2296320000"><ele>467</ele><time>2013-11-17T10:38:58Z</time></trkpt>
<trkpt lat="54.2883130000" lon="-2.2296340000"><ele>467</ele><time>2013-11-17T10:38:59Z</time></trkpt>
<trkpt lat="54.2883110000" lon="-2.2296390000"><ele>467</ele><time>2013-11-17T10:39:00Z</time></trkpt>
<trkpt lat="54.2882880000" lon="-2.2296330000"><ele>467</ele><time>2013-11-17T10:39:04Z</time></trkpt>
<trkpt lat="54.2882640000" lon="-2.2296610000"><ele>467</ele><time>2013-11-17T10:39:07Z</time></trkpt>
<trkpt lat="54.2882430000" lon="-2.2296990000"><ele>467</ele><time>2013-11-17T10:39:10Z</time></trkpt>
<trkpt lat="54.2882210000" lon="-2.2297340000"><ele>467</ele><time>2013-11-17T10:39:12Z</time></trkpt>
<trkpt lat="54.2881990000" lon="-2.2297630000"><ele>467</ele><time>2013-11-17T10:39:14Z</time></trkpt>
<trkpt lat="54.2881680000" lon="-2.2297910000"><ele>467</ele><time>2013-11-17T10:39:17Z</time></trkpt>
<trkpt lat="54.2881360000" lon="-2.2298110000"><ele>467</ele><time>2013-11-17T10:39:20Z</time></trkpt>
<trkpt lat="54.2881070000" lon="-2.2298340000"><ele>467</ele><time>2013-11-17T10:39:23Z</time></trkpt>
<trkpt lat="54.2880840000" lon="-2.2298480000"><ele>467</ele><time>2013-11-17T10:39:25Z</time></trkpt>
<trkpt lat="54.2880620000" lon="-2.2298660000"><ele>467</ele><time>2013-11-17T10:39:28Z</time></trkpt>
<trkpt lat="54.2880330000" lon="-2.2298920000"><ele>467</ele><time>2013-11-17T10:39:33Z</time></trkpt>
<trkpt lat="54.2880080000" lon="-2.2299230000"><ele>467</ele><time>2013-11-17T10:39:36Z</time></trkpt>
<trkpt lat="54.2879940000" lon="-2.2299700000"><ele>467</ele><time>2013-11-17T10:39:39Z</time></trkpt>
<trkpt lat="54.2879810000" lon="-2.2300090000"><ele>467</ele><time>2013-11-17T10:39:42Z</time></trkpt>
<trkpt lat="54.2879600000" lon="-2.2300390000"><ele>467</ele><time>2013-11-17T10:39:45Z</time></trkpt>
<trkpt lat="54.2879350000" lon="-2.2300640000"><ele>467</ele><time>2013-11-17T10:39:48Z</time></trkpt>
<trkpt lat="54.2879110000" lon="-2.2300880000"><ele>467</ele><time>2013-11-17T10:39:52Z</time></trkpt>
<trkpt lat="54.2878870000" lon="-2.2301160000"><ele>467</ele><time>2013-11-17T10:39:55Z</time></trkpt>
<trkpt lat="54.2878680000" lon="-2.2301510000"><ele>467</ele><time>2013-11-17T10:39:57Z</time></trkpt>
<trkpt lat="54.2878450000" lon="-2.2301860000"><ele>467</ele><time>2013-11-17T10:40:00Z</time></trkpt>
<trkpt lat="54.2878260000" lon="-2.2302150000"><ele>467</ele><time>2013-11-17T10:40:02Z</time></trkpt>
<trkpt lat="54.2878010000" lon="-2.2302440000"><ele>467</ele><time>2013-11-17T10:40:05Z</time></trkpt>
<trkpt lat="54.2877800000" lon="-2.2302630000"><ele>467</ele><time>2013-11-17T10:40:07Z</time></trkpt>
<trkpt lat="54.2877610000" lon="-2.2302850000"><ele>467</ele><time>2013-11-17T10:40:09Z</time></trkpt>
<trkpt lat="54.2877390000" lon="-2.2303190000"><ele>467</ele><time>2013-11-17T10:40:12Z</time></trkpt>
<trkpt lat="54.2877180000" lon="-2.2303460000"><ele>467</ele><time>2013-11-17T10:40:15Z</time></trkpt>
<trkpt lat="54.2876870000" lon="-2.2303830000"><ele>467</ele><time>2013-11-17T10:40:19Z</time></trkpt>
<trkpt lat="54.2876640000" lon="-2.2304130000"><ele>467</ele><time>2013-11-17T10:40:22Z</time></trkpt>
<trkpt lat="54.2876420000" lon="-2.2304440000"><ele>467</ele><time>2013-11-17T10:40:25Z</time></trkpt>
<trkpt lat="54.2876250000" lon="-2.2304870000"><ele>467</ele><time>2013-11-17T10:40:28Z</time></trkpt>
<trkpt lat="54.2875950000" lon="-2.2305340000"><ele>467</ele><time>2013-11-17T10:40:34Z</time></trkpt>
<trkpt lat="54.2875710000" lon="-2.2305330000"><ele>467</ele><time>2013-11-17T10:40:37Z</time></trkpt>
<trkpt lat="54.2875400000" lon="-2.2305430000"><ele>467</ele><time>2013-11-17T10:40:40Z</time></trkpt>
<trkpt lat="54.2875120000" lon="-2.2305680000"><ele>467</ele><time>2013-11-17T10:40:43Z</time></trkpt>
<trkpt lat="54.2874830000" lon="-2.2305800000"><ele>467</ele><time>2013-11-17T10:40:46Z</time></trkpt>
<trkpt lat="54.2874590000" lon="-2.2305990000"><ele>467</ele><time>2013-11-17T10:40:49Z</time></trkpt>
<trkpt lat="54.2874350000" lon="-2.2306240000"><ele>467</ele><time>2013-11-17T10:40:52Z</time></trkpt>
<trkpt lat="54.2874120000" lon="-2.2306530000"><ele>467</ele><time>2013-11-17T10:40:55Z</time></trkpt>
<trkpt lat="54.2873900000" lon="-2.2306740000"><ele>486</ele><time>2013-11-17T10:40:58Z</time></trkpt>
<trkpt lat="54.2873690000" lon="-2.2306930000"><ele>486</ele><time>2013-11-17T10:41:01Z</time></trkpt>
<trkpt lat="54.2873460000" lon="-2.2307240000"><ele>486</ele><time>2013-11-17T10:41:04Z</time></trkpt>
<trkpt lat="54.2873250000" lon="-2.2307480000"><ele>486</ele><time>2013-11-17T10:41:06Z</time></trkpt>
<trkpt lat="54.2873060000" lon="-2.2307650000"><ele>486</ele><time>2013-11-17T10:41:08Z</time></trkpt>
<trkpt lat="54.2872810000" lon="-2.2307850000"><ele>486</ele><time>2013-11-17T10:41:11Z</time></trkpt>
<trkpt lat="54.2872520000" lon="-2.2308080000"><ele>486</ele><time>2013-11-17T10:41:14Z</time></trkpt>
<trkpt lat="54.2872230000" lon="-2.2308270000"><ele>486</ele><time>2013-11-17T10:41:17Z</time></trkpt>
<trkpt lat="54.2872000000" lon="-2.2308480000"><ele>486</ele><time>2013-11-17T10:41:20Z</time></trkpt>
<trkpt lat="54.2871780000" lon="-2.2308690000"><ele>486</ele><time>2013-11-17T10:41:23Z</time></trkpt>
<trkpt lat="54.2871500000" lon="-2.2308930000"><ele>486</ele><time>2013-11-17T10:41:26Z</time></trkpt>
<trkpt lat="54.2871230000" lon="-2.2309230000"><ele>486</ele><time>2013-11-17T10:41:29Z</time></trkpt>
<trkpt lat="54.2871000000" lon="-2.2309430000"><ele>486</ele><time>2013-11-17T10:41:31Z</time></trkpt>
<trkpt lat="54.2870770000" lon="-2.2309700000"><ele>486</ele><time>2013-11-17T10:41:34Z</time></trkpt>
<trkpt lat="54.2870480000" lon="-2.2310000000"><ele>486</ele><time>2013-11-17T10:41:38Z</time></trkpt>
<trkpt lat="54.2870230000" lon="-2.2310010000"><ele>486</ele><time>2013-11-17T10:41:41Z</time></trkpt>
<trkpt lat="54.2870020000" lon="-2.2310280000"><ele>486</ele><time>2013-11-17T10:41:44Z</time></trkpt>
<trkpt lat="54.2869750000" lon="-2.2310630000"><ele>486</ele><time>2013-11-17T10:41:47Z</time></trkpt>
<trkpt lat="54.2869540000" lon="-2.2310930000"><ele>486</ele><time>2013-11-17T10:41:50Z</time></trkpt>
<trkpt lat="54.2869320000" lon="-2.2311180000"><ele>486</ele><time>2013-11-17T10:41:53Z</time></trkpt>
<trkpt lat="54.2869110000" lon="-2.2311580000"><ele>486</ele><time>2013-11-17T10:41:57Z</time></trkpt>
<trkpt lat="54.2868930000" lon="-2.2311880000"><ele>486</ele><time>2013-11-17T10:42:00Z</time></trkpt>
<trkpt lat="54.2868790000" lon="-2.2312180000"><ele>486</ele><time>2013-11-17T10:42:02Z</time></trkpt>
<trkpt lat="54.2868640000" lon="-2.2312450000"><ele>486</ele><time>2013-11-17T10:42:04Z</time></trkpt>
<trkpt lat="54.2868480000" lon="-2.2312720000"><ele>486</ele><time>2013-11-17T10:42:06Z</time></trkpt>
<trkpt lat="54.2868420000" lon="-2.2312820000"><ele>486</ele><time>2013-11-17T10:42:07Z</time></trkpt>
<trkpt lat="54.2868370000" lon="-2.2312920000"><ele>486</ele><time>2013-11-17T10:42:08Z</time></trkpt>
<trkpt lat="54.2868320000" lon="-2.2313020000"><ele>486</ele><time>2013-11-17T10:42:09Z</time></trkpt>
<trkpt lat="54.2868260000" lon="-2.2313150000"><ele>486</ele><time>2013-11-17T10:42:10Z</time></trkpt>
<trkpt lat="54.2868180000" lon="-2.2313280000"><ele>486</ele><time>2013-11-17T10:42:11Z</time></trkpt>
<trkpt lat="54.2868120000" lon="-2.2313410000"><ele>486</ele><time>2013-11-17T10:42:12Z</time></trkpt>
<trkpt lat="54.2868060000" lon="-2.2313530000"><ele>486</ele><time>2013-11-17T10:42:13Z</time></trkpt>
<trkpt lat="54.2868000000" lon="-2.2313660000"><ele>486</ele><time>2013-11-17T10:42:14Z</time></trkpt>
<trkpt lat="54.2867940000" lon="-2.2313800000"><ele>486</ele><time>2013-11-17T10:42:15Z</time></trkpt>
<trkpt lat="54.2867900000" lon="-2.2313940000"><ele>486</ele><time>2013-11-17T10:42:16Z</time></trkpt>
<trkpt lat="54.2867860000" lon="-2.2314070000"><ele>486</ele><time>2013-11-17T10:42:17Z</time></trkpt>
<trkpt lat="54.2867860000" lon="-2.2314160000"><ele>486</ele><time>2013-11-17T10:42:18Z</time></trkpt>
<trkpt lat="54.2867850000" lon="-2.2314260000"><ele>486</ele><time>2013-11-17T10:42:19Z</time></trkpt>
<trkpt lat="54.2867800000" lon="-2.2314360000"><ele>486</ele><time>2013-11-17T10:42:20Z</time></trkpt>
<trkpt lat="54.2867760000" lon="-2.2314470000"><ele>486</ele><time>2013-11-17T10:42:21Z</time></trkpt>
<trkpt lat="54.2867710000" lon="-2.2314580000"><ele>486</ele><time>2013-11-17T10:42:22Z</time></trkpt>
<trkpt lat="54.2867650000" lon="-2.2314670000"><ele>486</ele><time>2013-11-17T10:42:23Z</time></trkpt>
<trkpt lat="54.2867580000" lon="-2.2314760000"><ele>486</ele><time>2013-11-17T10:42:24Z</time></trkpt>
<trkpt lat="54.2867510000" lon="-2.2314900000"><ele>486</ele><time>2013-11-17T10:42:25Z</time></trkpt>
<trkpt lat="54.2867440000" lon="-2.2315060000"><ele>486</ele><time>2013-11-17T10:42:26Z</time></trkpt>
<trkpt lat="54.2867360000" lon="-2.2315210000"><ele>486</ele><time>2013-11-17T10:42:27Z</time></trkpt>
<trkpt lat="54.2867280000" lon="-2.2315290000"><ele>486</ele><time>2013-11-17T10:42:28Z</time></trkpt>
<trkpt lat="54.2867200000" lon="-2.2315360000"><ele>486</ele><time>2013-11-17T10:42:29Z</time></trkpt>
<trkpt lat="54.2867120000" lon="-2.2315450000"><ele>486</ele><time>2013-11-17T10:42:30Z</time></trkpt>
<trkpt lat="54.2867040000" lon="-2.2315560000"><ele>486</ele><time>2013-11-17T10:42:31Z</time></trkpt>
<trkpt lat="54.2866970000" lon="-2.2315690000"><ele>486</ele><time>2013-11-17T10:42:32Z</time></trkpt>
<trkpt lat="54.2866900000" lon="-2.2315820000"><ele>486</ele><time>2013-11-17T10:42:33Z</time></trkpt>
<trkpt lat="54.2866830000" lon="-2.2315930000"><ele>486</ele><time>2013-11-17T10:42:34Z</time></trkpt>
<trkpt lat="54.2866750000" lon="-2.2316050000"><ele>486</ele><time>2013-11-17T10:42:35Z</time></trkpt>
<trkpt lat="54.2866670000" lon="-2.2316150000"><ele>486</ele><time>2013-11-17T10:42:36Z</time></trkpt>
<trkpt lat="54.2866600000" lon="-2.2316230000"><ele>486</ele><time>2013-11-17T10:42:37Z</time></trkpt>
<trkpt lat="54.2866540000" lon="-2.2316320000"><ele>486</ele><time>2013-11-17T10:42:38Z</time></trkpt>
<trkpt lat="54.2866460000" lon="-2.2316450000"><ele>486</ele><time>2013-11-17T10:42:39Z</time></trkpt>
<trkpt lat="54.2866380000" lon="-2.2316560000"><ele>486</ele><time>2013-11-17T10:42:40Z</time></trkpt>
<trkpt lat="54.2866290000" lon="-2.2316660000"><ele>486</ele><time>2013-11-17T10:42:41Z</time></trkpt>
<trkpt lat="54.2866210000" lon="-2.2316790000"><ele>486</ele><time>2013-11-17T10:42:42Z</time></trkpt>
<trkpt lat="54.2866130000" lon="-2.2316900000"><ele>486</ele><time>2013-11-17T10:42:43Z</time></trkpt>
<trkpt lat="54.2866050000" lon="-2.2317000000"><ele>486</ele><time>2013-11-17T10:42:44Z</time></trkpt>
<trkpt lat="54.2865980000" lon="-2.2317090000"><ele>486</ele><time>2013-11-17T10:42:45Z</time></trkpt>
<trkpt lat="54.2865900000" lon="-2.2317170000"><ele>486</ele><time>2013-11-17T10:42:46Z</time></trkpt>
<trkpt lat="54.2865830000" lon="-2.2317250000"><ele>486</ele><time>2013-11-17T10:42:47Z</time></trkpt>
<trkpt lat="54.2865750000" lon="-2.2317350000"><ele>486</ele><time>2013-11-17T10:42:48Z</time></trkpt>
<trkpt lat="54.2865680000" lon="-2.2317460000"><ele>486</ele><time>2013-11-17T10:42:49Z</time></trkpt>
<trkpt lat="54.2865590000" lon="-2.2317550000"><ele>486</ele><time>2013-11-17T10:42:50Z</time></trkpt>
<trkpt lat="54.2865500000" lon="-2.2317630000"><ele>486</ele><time>2013-11-17T10:42:51Z</time></trkpt>
<trkpt lat="54.2865420000" lon="-2.2317730000"><ele>486</ele><time>2013-11-17T10:42:52Z</time></trkpt>
<trkpt lat="54.2865340000" lon="-2.2317840000"><ele>486</ele><time>2013-11-17T10:42:53Z</time></trkpt>
<trkpt lat="54.2865270000" lon="-2.2317930000"><ele>486</ele><time>2013-11-17T10:42:54Z</time></trkpt>
<trkpt lat="54.2865200000" lon="-2.2317980000"><ele>486</ele><time>2013-11-17T10:42:55Z</time></trkpt>
<trkpt lat="54.2865140000" lon="-2.2318050000"><ele>486</ele><time>2013-11-17T10:42:56Z</time></trkpt>
<trkpt lat="54.2865060000" lon="-2.2318100000"><ele>486</ele><time>2013-11-17T10:42:57Z</time></trkpt>
<trkpt lat="54.2864980000" lon="-2.2318160000"><ele>486</ele><time>2013-11-17T10:42:58Z</time></trkpt>
<trkpt lat="54.2864890000" lon="-2.2318210000"><ele>486</ele><time>2013-11-17T10:42:59Z</time></trkpt>
<trkpt lat="54.2864820000" lon="-2.2318250000"><ele>486</ele><time>2013-11-17T10:43:00Z</time></trkpt>
<trkpt lat="54.2864750000" lon="-2.2318320000"><ele>486</ele><time>2013-11-17T10:43:01Z</time></trkpt>
<trkpt lat="54.2864690000" lon="-2.2318410000"><ele>486</ele><time>2013-11-17T10:43:02Z</time></trkpt>
<trkpt lat="54.2864620000" lon="-2.2318500000"><ele>486</ele><time>2013-11-17T10:43:03Z</time></trkpt>
<trkpt lat="54.2864550000" lon="-2.2318600000"><ele>486</ele><time>2013-11-17T10:43:04Z</time></trkpt>
<trkpt lat="54.2864490000" lon="-2.2318700000"><ele>486</ele><time>2013-11-17T10:43:05Z</time></trkpt>
<trkpt lat="54.2864420000" lon="-2.2318820000"><ele>486</ele><time>2013-11-17T10:43:06Z</time></trkpt>
<trkpt lat="54.2864340000" lon="-2.2318950000"><ele>486</ele><time>2013-11-17T10:43:07Z</time></trkpt>
<trkpt lat="54.2864270000" lon="-2.2319070000"><ele>486</ele><time>2013-11-17T10:43:08Z</time></trkpt>
<trkpt lat="54.2864210000" lon="-2.2319210000"><ele>486</ele><time>2013-11-17T10:43:09Z</time></trkpt>
<trkpt lat="54.2864160000" lon="-2.2319300000"><ele>497</ele><time>2013-11-17T10:43:10Z</time></trkpt>
<trkpt lat="54.2864110000" lon="-2.2319380000"><ele>497</ele><time>2013-11-17T10:43:11Z</time></trkpt>
<trkpt lat="54.2864070000" lon="-2.2319480000"><ele>497</ele><time>2013-11-17T10:43:12Z</time></trkpt>
<trkpt lat="54.2864010000" lon="-2.2319600000"><ele>497</ele><time>2013-11-17T10:43:13Z</time></trkpt>
<trkpt lat="54.2863950000" lon="-2.2319710000"><ele>497</ele><time>2013-11-17T10:43:14Z</time></trkpt>
<trkpt lat="54.2863900000" lon="-2.2319830000"><ele>497</ele><time>2013-11-17T10:43:15Z</time></trkpt>
<trkpt lat="54.2863830000" lon="-2.2319940000"><ele>497</ele><time>2013-11-17T10:43:16Z</time></trkpt>
<trkpt lat="54.2863770000" lon="-2.2320050000"><ele>497</ele><time>2013-11-17T10:43:17Z</time></trkpt>
<trkpt lat="54.2863700000" lon="-2.2320170000"><ele>497</ele><time>2013-11-17T10:43:18Z</time></trkpt>
<trkpt lat="54.2863640000" lon="-2.2320290000"><ele>497</ele><time>2013-11-17T10:43:19Z</time></trkpt>
<trkpt lat="54.2863590000" lon="-2.2320370000"><ele>497</ele><time>2013-11-17T10:43:20Z</time></trkpt>
<trkpt lat="54.2863530000" lon="-2.2320470000"><ele>497</ele><time>2013-11-17T10:43:21Z</time></trkpt>
<trkpt lat="54.2863460000" lon="-2.2320580000"><ele>497</ele><time>2013-11-17T10:43:22Z</time></trkpt>
<trkpt lat="54.2863380000" lon="-2.2320690000"><ele>497</ele><time>2013-11-17T10:43:23Z</time></trkpt>
<trkpt lat="54.2863310000" lon="-2.2320800000"><ele>497</ele><time>2013-11-17T10:43:24Z</time></trkpt>
<trkpt lat="54.2863230000" lon="-2.2320910000"><ele>497</ele><time>2013-11-17T10:43:25Z</time></trkpt>
<trkpt lat="54.2863150000" lon="-2.2321030000"><ele>497</ele><time>2013-11-17T10:43:26Z</time></trkpt>
<trkpt lat="54.2863070000" lon="-2.2321140000"><ele>497</ele><time>2013-11-17T10:43:27Z</time></trkpt>
<trkpt lat="54.2862990000" lon="-2.2321270000"><ele>497</ele><time>2013-11-17T10:43:28Z</time></trkpt>
<trkpt lat="54.2862910000" lon="-2.2321410000"><ele>497</ele><time>2013-11-17T10:43:29Z</time></trkpt>
<trkpt lat="54.2862840000" lon="-2.2321540000"><ele>497</ele><time>2013-11-17T10:43:30Z</time></trkpt>
<trkpt lat="54.2862770000" lon="-2.2321650000"><ele>497</ele><time>2013-11-17T10:43:31Z</time></trkpt>
<trkpt lat="54.2862710000" lon="-2.2321760000"><ele>497</ele><time>2013-11-17T10:43:32Z</time></trkpt>
<trkpt lat="54.2862670000" lon="-2.2321870000"><ele>497</ele><time>2013-11-17T10:43:33Z</time></trkpt>
<trkpt lat="54.2862640000" lon="-2.2321930000"><ele>497</ele><time>2013-11-17T10:43:34Z</time></trkpt>
<trkpt lat="54.2862610000" lon="-2.2322010000"><ele>497</ele><time>2013-11-17T10:43:35Z</time></trkpt>
<trkpt lat="54.2862570000" lon="-2.2322130000"><ele>497</ele><time>2013-11-17T10:43:36Z</time></trkpt>
<trkpt lat="54.2862510000" lon="-2.2322280000"><ele>497</ele><time>2013-11-17T10:43:37Z</time></trkpt>
<trkpt lat="54.2862450000" lon="-2.2322410000"><ele>497</ele><time>2013-11-17T10:43:38Z</time></trkpt>
<trkpt lat="54.2862390000" lon="-2.2322510000"><ele>497</ele><time>2013-11-17T10:43:39Z</time></trkpt>
<trkpt lat="54.2862330000" lon="-2.2322600000"><ele>497</ele><time>2013-11-17T10:43:40Z</time></trkpt>
<trkpt lat="54.2862260000" lon="-2.2322660000"><ele>497</ele><time>2013-11-17T10:43:41Z</time></trkpt>
<trkpt lat="54.2862190000" lon="-2.2322730000"><ele>497</ele><time>2013-11-17T10:43:42Z</time></trkpt>
<trkpt lat="54.2862110000" lon="-2.2322800000"><ele>497</ele><time>2013-11-17T10:43:43Z</time></trkpt>
<trkpt lat="54.2862040000" lon="-2.2322830000"><ele>497</ele><time>2013-11-17T10:43:44Z</time></trkpt>
<trkpt lat="54.2861970000" lon="-2.2322860000"><ele>497</ele><time>2013-11-17T10:43:45Z</time></trkpt>
<trkpt lat="54.2861880000" lon="-2.2322890000"><ele>497</ele><time>2013-11-17T10:43:46Z</time></trkpt>
<trkpt lat="54.2861790000" lon="-2.2322910000"><ele>497</ele><time>2013-11-17T10:43:47Z</time></trkpt>
<trkpt lat="54.2861710000" lon="-2.2322950000"><ele>497</ele><time>2013-11-17T10:43:48Z</time></trkpt>
<trkpt lat="54.2861610000" lon="-2.2323000000"><ele>497</ele><time>2013-11-17T10:43:49Z</time></trkpt>
<trkpt lat="54.2861520000" lon="-2.2323060000"><ele>497</ele><time>2013-11-17T10:43:50Z</time></trkpt>
<trkpt lat="54.2861430000" lon="-2.2323110000"><ele>497</ele><time>2013-11-17T10:43:51Z</time></trkpt>
<trkpt lat="54.2861330000" lon="-2.2323160000"><ele>497</ele><time>2013-11-17T10:43:52Z</time></trkpt>
<trkpt lat="54.2861250000" lon="-2.2323210000"><ele>497</ele><time>2013-11-17T10:43:53Z</time></trkpt>
<trkpt lat="54.2861170000" lon="-2.2323250000"><ele>497</ele><time>2013-11-17T10:43:54Z</time></trkpt>
<trkpt lat="54.2861110000" lon="-2.2323270000"><ele>497</ele><time>2013-11-17T10:43:55Z</time></trkpt>
<trkpt lat="54.2861050000" lon="-2.2323290000"><ele>497</ele><time>2013-11-17T10:43:56Z</time></trkpt>
<trkpt lat="54.2860990000" lon="-2.2323340000"><ele>497</ele><time>2013-11-17T10:43:57Z</time></trkpt>
<trkpt lat="54.2860920000" lon="-2.2323400000"><ele>497</ele><time>2013-11-17T10:43:58Z</time></trkpt>
<trkpt lat="54.2860850000" lon="-2.2323440000"><ele>497</ele><time>2013-11-17T10:43:59Z</time></trkpt>
<trkpt lat="54.2860770000" lon="-2.2323490000"><ele>497</ele><time>2013-11-17T10:44:00Z</time></trkpt>
<trkpt lat="54.2860690000" lon="-2.2323550000"><ele>497</ele><time>2013-11-17T10:44:01Z</time></trkpt>
<trkpt lat="54.2860630000" lon="-2.2323620000"><ele>497</ele><time>2013-11-17T10:44:02Z</time></trkpt>
<trkpt lat="54.2860560000" lon="-2.2323680000"><ele>497</ele><time>2013-11-17T10:44:03Z</time></trkpt>
<trkpt lat="54.2860480000" lon="-2.2323730000"><ele>497</ele><time>2013-11-17T10:44:04Z</time></trkpt>
<trkpt lat="54.2860400000" lon="-2.2323790000"><ele>497</ele><time>2013-11-17T10:44:05Z</time></trkpt>
<trkpt lat="54.2860310000" lon="-2.2323880000"><ele>497</ele><time>2013-11-17T10:44:06Z</time></trkpt>
<trkpt lat="54.2860230000" lon="-2.2323990000"><ele>497</ele><time>2013-11-17T10:44:07Z</time></trkpt>
<trkpt lat="54.2860140000" lon="-2.2324100000"><ele>497</ele><time>2013-11-17T10:44:08Z</time></trkpt>
<trkpt lat="54.2860050000" lon="-2.2324190000"><ele>497</ele><time>2013-11-17T10:44:09Z</time></trkpt>
<trkpt lat="54.2859950000" lon="-2.2324280000"><ele>497</ele><time>2013-11-17T10:44:10Z</time></trkpt>
<trkpt lat="54.2859850000" lon="-2.2324360000"><ele>497</ele><time>2013-11-17T10:44:11Z</time></trkpt>
<trkpt lat="54.2859740000" lon="-2.2324460000"><ele>497</ele><time>2013-11-17T10:44:12Z</time></trkpt>
<trkpt lat="54.2859640000" lon="-2.2324560000"><ele>497</ele><time>2013-11-17T10:44:13Z</time></trkpt>
<trkpt lat="54.2859530000" lon="-2.2324650000"><ele>497</ele><time>2013-11-17T10:44:14Z</time></trkpt>
<trkpt lat="54.2859440000" lon="-2.2324740000"><ele>497</ele><time>2013-11-17T10:44:15Z</time></trkpt>
<trkpt lat="54.2859340000" lon="-2.2324840000"><ele>497</ele><time>2013-11-17T10:44:16Z</time></trkpt>
<trkpt lat="54.2859240000" lon="-2.2324920000"><ele>497</ele><time>2013-11-17T10:44:17Z</time></trkpt>
<trkpt lat="54.2859130000" lon="-2.2324980000"><ele>497</ele><time>2013-11-17T10:44:18Z</time></trkpt>
<trkpt lat="54.2859010000" lon="-2.2325020000"><ele>497</ele><time>2013-11-17T10:44:19Z</time></trkpt>
<trkpt lat="54.2858890000" lon="-2.2325060000"><ele>497</ele><time>2013-11-17T10:44:20Z</time></trkpt>
<trkpt lat="54.2858770000" lon="-2.2325100000"><ele>497</ele><time>2013-11-17T10:44:21Z</time></trkpt>
<trkpt lat="54.2858650000" lon="-2.2325140000"><ele>497</ele><time>2013-11-17T10:44:22Z</time></trkpt>
<trkpt lat="54.2858530000" lon="-2.2325190000"><ele>497</ele><time>2013-11-17T10:44:23Z</time></trkpt>
<trkpt lat="54.2858420000" lon="-2.2325260000"><ele>497</ele><time>2013-11-17T10:44:24Z</time></trkpt>
<trkpt lat="54.2858310000" lon="-2.2325330000"><ele>497</ele><time>2013-11-17T10:44:25Z</time></trkpt>
<trkpt lat="54.2858200000" lon="-2.2325390000"><ele>497</ele><time>2013-11-17T10:44:26Z</time></trkpt>
<trkpt lat="54.2858110000" lon="-2.2325470000"><ele>497</ele><time>2013-11-17T10:44:27Z</time></trkpt>
<trkpt lat="54.2858040000" lon="-2.2325590000"><ele>497</ele><time>2013-11-17T10:44:28Z</time></trkpt>
<trkpt lat="54.2857990000" lon="-2.2325710000"><ele>497</ele><time>2013-11-17T10:44:29Z</time></trkpt>
<trkpt lat="54.2857930000" lon="-2.2325860000"><ele>497</ele><time>2013-11-17T10:44:30Z</time></trkpt>
<trkpt lat="54.2857850000" lon="-2.2326000000"><ele>497</ele><time>2013-11-17T10:44:31Z</time></trkpt>
<trkpt lat="54.2857750000" lon="-2.2326080000"><ele>497</ele><time>2013-11-17T10:44:32Z</time></trkpt>
<trkpt lat="54.2857640000" lon="-2.2326140000"><ele>497</ele><time>2013-11-17T10:44:33Z</time></trkpt>
<trkpt lat="54.2857550000" lon="-2.2326190000"><ele>497</ele><time>2013-11-17T10:44:34Z</time></trkpt>
<trkpt lat="54.2857470000" lon="-2.2326260000"><ele>497</ele><time>2013-11-17T10:44:35Z</time></trkpt>
<trkpt lat="54.2857380000" lon="-2.2326300000"><ele>497</ele><time>2013-11-17T10:44:36Z</time></trkpt>
<trkpt lat="54.2857130000" lon="-2.2326380000"><ele>497</ele><time>2013-11-17T10:44:39Z</time></trkpt>
<trkpt lat="54.2856940000" lon="-2.2326530000"><ele>497</ele><time>2013-11-17T10:44:41Z</time></trkpt>
<trkpt lat="54.2856630000" lon="-2.2326610000"><ele>497</ele><time>2013-11-17T10:44:45Z</time></trkpt>
<trkpt lat="54.2856250000" lon="-2.2326380000"><ele>497</ele><time>2013-11-17T10:44:59Z</time></trkpt>
<trkpt lat="54.2856240000" lon="-2.2326370000"><ele>497</ele><time>2013-11-17T10:45:00Z</time></trkpt>
<trkpt lat="54.2856240000" lon="-2.2326350000"><ele>497</ele><time>2013-11-17T10:45:01Z</time></trkpt>
<trkpt lat="54.2856240000" lon="-2.2326330000"><ele>497</ele><time>2013-11-17T10:45:02Z</time></trkpt>
<trkpt lat="54.2856240000" lon="-2.2326310000"><ele>497</ele><time>2013-11-17T10:45:03Z</time></trkpt>
<trkpt lat="54.2856240000" lon="-2.2326290000"><ele>497</ele><time>2013-11-17T10:45:04Z</time></trkpt>
<trkpt lat="54.2856240000" lon="-2.2326280000"><ele>497</ele><time>2013-11-17T10:45:05Z</time></trkpt>
<trkpt lat="54.2856250000" lon="-2.2326300000"><ele>497</ele><time>2013-11-17T10:45:06Z</time></trkpt>
<trkpt lat="54.2856250000" lon="-2.2326300000"><ele>497</ele><time>2013-11-17T10:45:07Z</time></trkpt>
<trkpt lat="54.2856230000" lon="-2.2326300000"><ele>497</ele><time>2013-11-17T10:45:08Z</time></trkpt>
<trkpt lat="54.2856210000" lon="-2.2326290000"><ele>497</ele><time>2013-11-17T10:45:09Z</time></trkpt>
<trkpt lat="54.2856190000" lon="-2.2326290000"><ele>497</ele><time>2013-11-17T10:45:10Z</time></trkpt>
<trkpt lat="54.2855980000" lon="-2.2326530000"><ele>517</ele><time>2013-11-17T10:45:20Z</time></trkpt>
<trkpt lat="54.2855690000" lon="-2.2326780000"><ele>517</ele><time>2013-11-17T10:45:24Z</time></trkpt>
<trkpt lat="54.2855430000" lon="-2.2326910000"><ele>517</ele><time>2013-11-17T10:45:27Z</time></trkpt>
<trkpt lat="54.2855130000" lon="-2.2327030000"><ele>517</ele><time>2013-11-17T10:45:30Z</time></trkpt>
<trkpt lat="54.2854900000" lon="-2.2327220000"><ele>517</ele><time>2013-11-17T10:45:33Z</time></trkpt>
<trkpt lat="54.2854460000" lon="-2.2327430000"><ele>517</ele><time>2013-11-17T10:45:39Z</time></trkpt>
<trkpt lat="54.2854200000" lon="-2.2327600000"><ele>517</ele><time>2013-11-17T10:45:42Z</time></trkpt>
<trkpt lat="54.2853890000" lon="-2.2327830000"><ele>517</ele><time>2013-11-17T10:45:46Z</time></trkpt>
<trkpt lat="54.2853630000" lon="-2.2327940000"><ele>517</ele><time>2013-11-17T10:45:49Z</time></trkpt>
<trkpt lat="54.2853350000" lon="-2.2328080000"><ele>517</ele><time>2013-11-17T10:45:52Z</time></trkpt>
<trkpt lat="54.2853040000" lon="-2.2328110000"><ele>517</ele><time>2013-11-17T10:45:56Z</time></trkpt>
<trkpt lat="54.2852720000" lon="-2.2328310000"><ele>517</ele><time>2013-11-17T10:45:59Z</time></trkpt>
<trkpt lat="54.2852490000" lon="-2.2328430000"><ele>517</ele><time>2013-11-17T10:46:01Z</time></trkpt>
<trkpt lat="54.2852190000" lon="-2.2328520000"><ele>517</ele><time>2013-11-17T10:46:04Z</time></trkpt>
<trkpt lat="54.2851920000" lon="-2.2328550000"><ele>517</ele><time>2013-11-17T10:46:06Z</time></trkpt>
<trkpt lat="54.2851670000" lon="-2.2328520000"><ele>517</ele><time>2013-11-17T10:46:08Z</time></trkpt>
<trkpt lat="54.2851410000" lon="-2.2328520000"><ele>517</ele><time>2013-11-17T10:46:10Z</time></trkpt>
<trkpt lat="54.2851170000" lon="-2.2328540000"><ele>517</ele><time>2013-11-17T10:46:12Z</time></trkpt>
<trkpt lat="54.2850930000" lon="-2.2328510000"><ele>517</ele><time>2013-11-17T10:46:14Z</time></trkpt>
<trkpt lat="54.2850650000" lon="-2.2328470000"><ele>517</ele><time>2013-11-17T10:46:16Z</time></trkpt>
<trkpt lat="54.2850390000" lon="-2.2328470000"><ele>517</ele><time>2013-11-17T10:46:18Z</time></trkpt>
<trkpt lat="54.2850150000" lon="-2.2328530000"><ele>517</ele><time>2013-11-17T10:46:20Z</time></trkpt>
<trkpt lat="54.2849910000" lon="-2.2328550000"><ele>517</ele><time>2013-11-17T10:46:22Z</time></trkpt>
<trkpt lat="54.2849660000" lon="-2.2328620000"><ele>517</ele><time>2013-11-17T10:46:24Z</time></trkpt>
<trkpt lat="54.2849410000" lon="-2.2328730000"><ele>517</ele><time>2013-11-17T10:46:26Z</time></trkpt>
<trkpt lat="54.2849160000" lon="-2.2328830000"><ele>517</ele><time>2013-11-17T10:46:28Z</time></trkpt>
<trkpt lat="54.2848940000" lon="-2.2328950000"><ele>517</ele><time>2013-11-17T10:46:30Z</time></trkpt>
<trkpt lat="54.2848650000" lon="-2.2329060000"><ele>517</ele><time>2013-11-17T10:46:33Z</time></trkpt>
<trkpt lat="54.2848450000" lon="-2.2329150000"><ele>517</ele><time>2013-11-17T10:46:35Z</time></trkpt>
<trkpt lat="54.2848200000" lon="-2.2329180000"><ele>517</ele><time>2013-11-17T10:46:37Z</time></trkpt>
<trkpt lat="54.2847960000" lon="-2.2329150000"><ele>517</ele><time>2013-11-17T10:46:39Z</time></trkpt>
<trkpt lat="54.2847730000" lon="-2.2329040000"><ele>517</ele><time>2013-11-17T10:46:41Z</time></trkpt>
<trkpt lat="54.2847420000" lon="-2.2328920000"><ele>517</ele><time>2013-11-17T10:46:44Z</time></trkpt>
<trkpt lat="54.2847210000" lon="-2.2328980000"><ele>517</ele><time>2013-11-17T10:46:46Z</time></trkpt>
<trkpt lat="54.2846820000" lon="-2.2328810000"><ele>517</ele><time>2013-11-17T10:46:51Z</time></trkpt>
<trkpt lat="54.2846610000" lon="-2.2328730000"><ele>517</ele><time>2013-11-17T10:46:53Z</time></trkpt>
<trkpt lat="54.2846350000" lon="-2.2328630000"><ele>517</ele><time>2013-11-17T10:46:55Z</time></trkpt>
<trkpt lat="54.2846120000" lon="-2.2328610000"><ele>517</ele><time>2013-11-17T10:46:57Z</time></trkpt>
<trkpt lat="54.2845880000" lon="-2.2328680000"><ele>517</ele><time>2013-11-17T10:46:59Z</time></trkpt>
<trkpt lat="54.2845570000" lon="-2.2328790000"><ele>517</ele><time>2013-11-17T10:47:02Z</time></trkpt>
<trkpt lat="54.2845300000" lon="-2.2328780000"><ele>517</ele><time>2013-11-17T10:47:04Z</time></trkpt>
<trkpt lat="54.2844970000" lon="-2.2328900000"><ele>517</ele><time>2013-11-17T10:47:07Z</time></trkpt>
<trkpt lat="54.2844710000" lon="-2.2328890000"><ele>517</ele><time>2013-11-17T10:47:09Z</time></trkpt>
<trkpt lat="54.2844400000" lon="-2.2329120000"><ele>517</ele><time>2013-11-17T10:47:12Z</time></trkpt>
<trkpt lat="54.2844040000" lon="-2.2329330000"><ele>517</ele><time>2013-11-17T10:47:17Z</time></trkpt>
<trkpt lat="54.2843780000" lon="-2.2329520000"><ele>517</ele><time>2013-11-17T10:47:19Z</time></trkpt>
<trkpt lat="54.2843570000" lon="-2.2329800000"><ele>517</ele><time>2013-11-17T10:47:21Z</time></trkpt>
<trkpt lat="54.2843250000" lon="-2.2330110000"><ele>517</ele><time>2013-11-17T10:47:24Z</time></trkpt>
<trkpt lat="54.2842990000" lon="-2.2330320000"><ele>517</ele><time>2013-11-17T10:47:26Z</time></trkpt>
<trkpt lat="54.2842790000" lon="-2.2330550000"><ele>517</ele><time>2013-11-17T10:47:28Z</time></trkpt>
<trkpt lat="54.2842550000" lon="-2.2330680000"><ele>517</ele><time>2013-11-17T10:47:30Z</time></trkpt>
<trkpt lat="54.2842260000" lon="-2.2330810000"><ele>517</ele><time>2013-11-17T10:47:33Z</time></trkpt>
<trkpt lat="54.2841990000" lon="-2.2331030000"><ele>517</ele><time>2013-11-17T10:47:36Z</time></trkpt>
<trkpt lat="54.2841680000" lon="-2.2331180000"><ele>517</ele><time>2013-11-17T10:47:40Z</time></trkpt>
<trkpt lat="54.2841370000" lon="-2.2331230000"><ele>517</ele><time>2013-11-17T10:47:43Z</time></trkpt>
<trkpt lat="54.2841050000" lon="-2.2331290000"><ele>517</ele><time>2013-11-17T10:47:46Z</time></trkpt>
<trkpt lat="54.2840680000" lon="-2.2331280000"><ele>517</ele><time>2013-11-17T10:47:49Z</time></trkpt>
<trkpt lat="54.2840430000" lon="-2.2331440000"><ele>517</ele><time>2013-11-17T10:47:52Z</time></trkpt>
<trkpt lat="54.2840120000" lon="-2.2331820000"><ele>517</ele><time>2013-11-17T10:47:55Z</time></trkpt>
<trkpt lat="54.2839870000" lon="-2.2332140000"><ele>517</ele><time>2013-11-17T10:47:57Z</time></trkpt>
<trkpt lat="54.2839610000" lon="-2.2332530000"><ele>517</ele><time>2013-11-17T10:48:00Z</time></trkpt>
<trkpt lat="54.2839410000" lon="-2.2332800000"><ele>517</ele><time>2013-11-17T10:48:02Z</time></trkpt>
<trkpt lat="54.2839120000" lon="-2.2333020000"><ele>517</ele><time>2013-11-17T10:48:05Z</time></trkpt>
<trkpt lat="54.2838890000" lon="-2.2332840000"><ele>517</ele><time>2013-11-17T10:48:08Z</time></trkpt>
<trkpt lat="54.2838730000" lon="-2.2332410000"><ele>517</ele><time>2013-11-17T10:48:11Z</time></trkpt>
<trkpt lat="54.2838490000" lon="-2.2332130000"><ele>517</ele><time>2013-11-17T10:48:14Z</time></trkpt>
<trkpt lat="54.2838290000" lon="-2.2332000000"><ele>517</ele><time>2013-11-17T10:48:16Z</time></trkpt>
<trkpt lat="54.2838050000" lon="-2.2331960000"><ele>533</ele><time>2013-11-17T10:48:19Z</time></trkpt>
<trkpt lat="54.2837790000" lon="-2.2332000000"><ele>533</ele><time>2013-11-17T10:48:22Z</time></trkpt>
<trkpt lat="54.2837640000" lon="-2.2332070000"><ele>533</ele><time>2013-11-17T10:48:23Z</time></trkpt>
<trkpt lat="54.2837550000" lon="-2.2332120000"><ele>533</ele><time>2013-11-17T10:48:24Z</time></trkpt>
<trkpt lat="54.2837460000" lon="-2.2332160000"><ele>533</ele><time>2013-11-17T10:48:25Z</time></trkpt>
<trkpt lat="54.2837370000" lon="-2.2332210000"><ele>533</ele><time>2013-11-17T10:48:26Z</time></trkpt>
<trkpt lat="54.2837270000" lon="-2.2332270000"><ele>533</ele><time>2013-11-17T10:48:27Z</time></trkpt>
<trkpt lat="54.2837180000" lon="-2.2332330000"><ele>533</ele><time>2013-11-17T10:48:28Z</time></trkpt>
<trkpt lat="54.2837090000" lon="-2.2332380000"><ele>533</ele><time>2013-11-17T10:48:29Z</time></trkpt>
<trkpt lat="54.2837000000" lon="-2.2332440000"><ele>533</ele><time>2013-11-17T10:48:30Z</time></trkpt>
<trkpt lat="54.2836910000" lon="-2.2332500000"><ele>533</ele><time>2013-11-17T10:48:31Z</time></trkpt>
<trkpt lat="54.2836820000" lon="-2.2332590000"><ele>533</ele><time>2013-11-17T10:48:32Z</time></trkpt>
<trkpt lat="54.2836740000" lon="-2.2332690000"><ele>533</ele><time>2013-11-17T10:48:33Z</time></trkpt>
<trkpt lat="54.2836650000" lon="-2.2332810000"><ele>533</ele><time>2013-11-17T10:48:34Z</time></trkpt>
<trkpt lat="54.2836560000" lon="-2.2332890000"><ele>533</ele><time>2013-11-17T10:48:35Z</time></trkpt>
<trkpt lat="54.2836470000" lon="-2.2332920000"><ele>533</ele><time>2013-11-17T10:48:36Z</time></trkpt>
<trkpt lat="54.2836360000" lon="-2.2332930000"><ele>533</ele><time>2013-11-17T10:48:37Z</time></trkpt>
<trkpt lat="54.2836270000" lon="-2.2332930000"><ele>533</ele><time>2013-11-17T10:48:38Z</time></trkpt>
<trkpt lat="54.2836170000" lon="-2.2332940000"><ele>533</ele><time>2013-11-17T10:48:39Z</time></trkpt>
<trkpt lat="54.2836060000" lon="-2.2332950000"><ele>533</ele><time>2013-11-17T10:48:40Z</time></trkpt>
<trkpt lat="54.2835960000" lon="-2.2332960000"><ele>533</ele><time>2013-11-17T10:48:41Z</time></trkpt>
<trkpt lat="54.2835860000" lon="-2.2332970000"><ele>533</ele><time>2013-11-17T10:48:42Z</time></trkpt>
<trkpt lat="54.2835780000" lon="-2.2333000000"><ele>533</ele><time>2013-11-17T10:48:43Z</time></trkpt>
<trkpt lat="54.2835690000" lon="-2.2333040000"><ele>533</ele><time>2013-11-17T10:48:44Z</time></trkpt>
<trkpt lat="54.2835600000" lon="-2.2333090000"><ele>533</ele><time>2013-11-17T10:48:45Z</time></trkpt>
<trkpt lat="54.2835520000" lon="-2.2333170000"><ele>533</ele><time>2013-11-17T10:48:46Z</time></trkpt>
<trkpt lat="54.2835440000" lon="-2.2333240000"><ele>533</ele><time>2013-11-17T10:48:47Z</time></trkpt>
<trkpt lat="54.2835380000" lon="-2.2333290000"><ele>533</ele><time>2013-11-17T10:48:48Z</time></trkpt>
<trkpt lat="54.2835310000" lon="-2.2333310000"><ele>533</ele><time>2013-11-17T10:48:49Z</time></trkpt>
<trkpt lat="54.2835220000" lon="-2.2333340000"><ele>533</ele><time>2013-11-17T10:48:50Z</time></trkpt>
<trkpt lat="54.2835130000" lon="-2.2333400000"><ele>533</ele><time>2013-11-17T10:48:51Z</time></trkpt>
<trkpt lat="54.2835040000" lon="-2.2333450000"><ele>533</ele><time>2013-11-17T10:48:52Z</time></trkpt>
<trkpt lat="54.2834940000" lon="-2.2333520000"><ele>533</ele><time>2013-11-17T10:48:53Z</time></trkpt>
<trkpt lat="54.2834840000" lon="-2.2333600000"><ele>533</ele><time>2013-11-17T10:48:54Z</time></trkpt>
<trkpt lat="54.2834740000" lon="-2.2333680000"><ele>533</ele><time>2013-11-17T10:48:55Z</time></trkpt>
<trkpt lat="54.2834650000" lon="-2.2333770000"><ele>533</ele><time>2013-11-17T10:48:56Z</time></trkpt>
<trkpt lat="54.2834570000" lon="-2.2333850000"><ele>533</ele><time>2013-11-17T10:48:57Z</time></trkpt>
<trkpt lat="54.2834470000" lon="-2.2333930000"><ele>533</ele><time>2013-11-17T10:48:58Z</time></trkpt>
<trkpt lat="54.2834390000" lon="-2.2333990000"><ele>533</ele><time>2013-11-17T10:48:59Z</time></trkpt>
<trkpt lat="54.2834310000" lon="-2.2334070000"><ele>533</ele><time>2013-11-17T10:49:00Z</time></trkpt>
<trkpt lat="54.2834220000" lon="-2.2334130000"><ele>533</ele><time>2013-11-17T10:49:01Z</time></trkpt>
<trkpt lat="54.2834140000" lon="-2.2334200000"><ele>533</ele><time>2013-11-17T10:49:02Z</time></trkpt>
<trkpt lat="54.2834070000" lon="-2.2334260000"><ele>533</ele><time>2013-11-17T10:49:03Z</time></trkpt>
<trkpt lat="54.2834000000" lon="-2.2334280000"><ele>533</ele><time>2013-11-17T10:49:04Z</time></trkpt>
<trkpt lat="54.2833910000" lon="-2.2334300000"><ele>533</ele><time>2013-11-17T10:49:05Z</time></trkpt>
<trkpt lat="54.2833840000" lon="-2.2334310000"><ele>533</ele><time>2013-11-17T10:49:06Z</time></trkpt>
<trkpt lat="54.2833770000" lon="-2.2334370000"><ele>533</ele><time>2013-11-17T10:49:07Z</time></trkpt>
<trkpt lat="54.2833700000" lon="-2.2334450000"><ele>533</ele><time>2013-11-17T10:49:08Z</time></trkpt>
<trkpt lat="54.2833630000" lon="-2.2334530000"><ele>533</ele><time>2013-11-17T10:49:09Z</time></trkpt>
<trkpt lat="54.2833550000" lon="-2.2334610000"><ele>533</ele><time>2013-11-17T10:49:10Z</time></trkpt>
<trkpt lat="54.2833470000" lon="-2.2334660000"><ele>533</ele><time>2013-11-17T10:49:11Z</time></trkpt>
<trkpt lat="54.2833390000" lon="-2.2334670000"><ele>533</ele><time>2013-11-17T10:49:12Z</time></trkpt>
<trkpt lat="54.2833310000" lon="-2.2334690000"><ele>533</ele><time>2013-11-17T10:49:13Z</time></trkpt>
<trkpt lat="54.2833240000" lon="-2.2334720000"><ele>533</ele><time>2013-11-17T10:49:14Z</time></trkpt>
<trkpt lat="54.2833160000" lon="-2.2334810000"><ele>533</ele><time>2013-11-17T10:49:15Z</time></trkpt>
<trkpt lat="54.2833080000" lon="-2.2334920000"><ele>533</ele><time>2013-11-17T10:49:16Z</time></trkpt>
<trkpt lat="54.2833010000" lon="-2.2335010000"><ele>533</ele><time>2013-11-17T10:49:17Z</time></trkpt>
<trkpt lat="54.2832940000" lon="-2.2335070000"><ele>533</ele><time>2013-11-17T10:49:18Z</time></trkpt>
<trkpt lat="54.2832890000" lon="-2.2335110000"><ele>533</ele><time>2013-11-17T10:49:19Z</time></trkpt>
<trkpt lat="54.2832840000" lon="-2.2335140000"><ele>533</ele><time>2013-11-17T10:49:20Z</time></trkpt>
<trkpt lat="54.2832770000" lon="-2.2335180000"><ele>533</ele><time>2013-11-17T10:49:21Z</time></trkpt>
<trkpt lat="54.2832680000" lon="-2.2335240000"><ele>533</ele><time>2013-11-17T10:49:22Z</time></trkpt>
<trkpt lat="54.2832590000" lon="-2.2335290000"><ele>533</ele><time>2013-11-17T10:49:23Z</time></trkpt>
<trkpt lat="54.2832490000" lon="-2.2335340000"><ele>533</ele><time>2013-11-17T10:49:24Z</time></trkpt>
<trkpt lat="54.2832380000" lon="-2.2335390000"><ele>533</ele><time>2013-11-17T10:49:25Z</time></trkpt>
<trkpt lat="54.2832280000" lon="-2.2335460000"><ele>533</ele><time>2013-11-17T10:49:26Z</time></trkpt>
<trkpt lat="54.2832180000" lon="-2.2335510000"><ele>533</ele><time>2013-11-17T10:49:27Z</time></trkpt>
<trkpt lat="54.2832070000" lon="-2.2335580000"><ele>533</ele><time>2013-11-17T10:49:28Z</time></trkpt>
<trkpt lat="54.2831970000" lon="-2.2335690000"><ele>533</ele><time>2013-11-17T10:49:29Z</time></trkpt>
<trkpt lat="54.2831870000" lon="-2.2335800000"><ele>533</ele><time>2013-11-17T10:49:30Z</time></trkpt>
<trkpt lat="54.2831770000" lon="-2.2335930000"><ele>533</ele><time>2013-11-17T10:49:31Z</time></trkpt>
<trkpt lat="54.2831680000" lon="-2.2336090000"><ele>533</ele><time>2013-11-17T10:49:32Z</time></trkpt>
<trkpt lat="54.2831630000" lon="-2.2336220000"><ele>533</ele><time>2013-11-17T10:49:33Z</time></trkpt>
<trkpt lat="54.2831600000" lon="-2.2336300000"><ele>533</ele><time>2013-11-17T10:49:34Z</time></trkpt>
<trkpt lat="54.2831550000" lon="-2.2336380000"><ele>533</ele><time>2013-11-17T10:49:35Z</time></trkpt>
<trkpt lat="54.2831480000" lon="-2.2336490000"><ele>533</ele><time>2013-11-17T10:49:36Z</time></trkpt>
<trkpt lat="54.2831390000" lon="-2.2336620000"><ele>533</ele><time>2013-11-17T10:49:37Z</time></trkpt>
<trkpt lat="54.2831290000" lon="-2.2336740000"><ele>533</ele><time>2013-11-17T10:49:38Z</time></trkpt>
<trkpt lat="54.2831210000" lon="-2.2336890000"><ele>533</ele><time>2013-11-17T10:49:39Z</time></trkpt>
<trkpt lat="54.2831130000" lon="-2.2337050000"><ele>533</ele><time>2013-11-17T10:49:40Z</time></trkpt>
<trkpt lat="54.2831060000" lon="-2.2337230000"><ele>533</ele><time>2013-11-17T10:49:41Z</time></trkpt>
<trkpt lat="54.2830990000" lon="-2.2337390000"><ele>533</ele><time>2013-11-17T10:49:42Z</time></trkpt>
<trkpt lat="54.2830930000" lon="-2.2337560000"><ele>533</ele><time>2013-11-17T10:49:43Z</time></trkpt>
<trkpt lat="54.2830860000" lon="-2.2337730000"><ele>533</ele><time>2013-11-17T10:49:44Z</time></trkpt>
<trkpt lat="54.2830810000" lon="-2.2337900000"><ele>533</ele><time>2013-11-17T10:49:45Z</time></trkpt>
<trkpt lat="54.2830770000" lon="-2.2338060000"><ele>533</ele><time>2013-11-17T10:49:46Z</time></trkpt>
<trkpt lat="54.2830730000" lon="-2.2338210000"><ele>533</ele><time>2013-11-17T10:49:47Z</time></trkpt>
<trkpt lat="54.2830670000" lon="-2.2338390000"><ele>533</ele><time>2013-11-17T10:49:48Z</time></trkpt>
<trkpt lat="54.2830590000" lon="-2.2338560000"><ele>533</ele><time>2013-11-17T10:49:49Z</time></trkpt>
<trkpt lat="54.2830530000" lon="-2.2338720000"><ele>533</ele><time>2013-11-17T10:49:50Z</time></trkpt>
<trkpt lat="54.2830480000" lon="-2.2338880000"><ele>533</ele><time>2013-11-17T10:49:51Z</time></trkpt>
<trkpt lat="54.2830420000" lon="-2.2339040000"><ele>533</ele><time>2013-11-17T10:49:52Z</time></trkpt>
<trkpt lat="54.2830360000" lon="-2.2339200000"><ele>533</ele><time>2013-11-17T10:49:53Z</time></trkpt>
<trkpt lat="54.2830290000" lon="-2.2339350000"><ele>533</ele><time>2013-11-17T10:49:54Z</time></trkpt>
<trkpt lat="54.2830210000" lon="-2.2339490000"><ele>533</ele><time>2013-11-17T10:49:55Z</time></trkpt>
<trkpt lat="54.2830130000" lon="-2.2339660000"><ele>533</ele><time>2013-11-17T10:49:56Z</time></trkpt>
<trkpt lat="54.2830060000" lon="-2.2339830000"><ele>533</ele><time>2013-11-17T10:49:57Z</time></trkpt>
<trkpt lat="54.2829980000" lon="-2.2340010000"><ele>533</ele><time>2013-11-17T10:49:58Z</time></trkpt>
<trkpt lat="54.2829920000" lon="-2.2340210000"><ele>533</ele><time>2013-11-17T10:49:59Z</time></trkpt>
<trkpt lat="54.2829860000" lon="-2.2340410000"><ele>533</ele><time>2013-11-17T10:50:00Z</time></trkpt>
<trkpt lat="54.2829820000" lon="-2.2340570000"><ele>533</ele><time>2013-11-17T10:50:01Z</time></trkpt>
<trkpt lat="54.2829770000" lon="-2.2340710000"><ele>533</ele><time>2013-11-17T10:50:02Z</time></trkpt>
<trkpt lat="54.2829710000" lon="-2.2340880000"><ele>533</ele><time>2013-11-17T10:50:03Z</time></trkpt>
<trkpt lat="54.2829660000" lon="-2.2341060000"><ele>533</ele><time>2013-11-17T10:50:04Z</time></trkpt>
<trkpt lat="54.2829620000" lon="-2.2341270000"><ele>533</ele><time>2013-11-17T10:50:05Z</time></trkpt>
<trkpt lat="54.2829610000" lon="-2.2341470000"><ele>533</ele><time>2013-11-17T10:50:06Z</time></trkpt>
<trkpt lat="54.2829600000" lon="-2.2341690000"><ele>533</ele><time>2013-11-17T10:50:07Z</time></trkpt>
<trkpt lat="54.2829600000" lon="-2.2341930000"><ele>533</ele><time>2013-11-17T10:50:08Z</time></trkpt>
<trkpt lat="54.2829600000" lon="-2.2342170000"><ele>533</ele><time>2013-11-17T10:50:09Z</time></trkpt>
<trkpt lat="54.2829580000" lon="-2.2342390000"><ele>533</ele><time>2013-11-17T10:50:10Z</time></trkpt>
<trkpt lat="54.2829550000" lon="-2.2342610000"><ele>533</ele><time>2013-11-17T10:50:11Z</time></trkpt>
<trkpt lat="54.2829510000" lon="-2.2342820000"><ele>533</ele><time>2013-11-17T10:50:12Z</time></trkpt>
<trkpt lat="54.2829480000" lon="-2.2343010000"><ele>533</ele><time>2013-11-17T10:50:13Z</time></trkpt>
<trkpt lat="54.2829450000" lon="-2.2343200000"><ele>533</ele><time>2013-11-17T10:50:14Z</time></trkpt>
<trkpt lat="54.2829420000" lon="-2.2343380000"><ele>533</ele><time>2013-11-17T10:50:15Z</time></trkpt>
<trkpt lat="54.2829390000" lon="-2.2343560000"><ele>533</ele><time>2013-11-17T10:50:16Z</time></trkpt>
<trkpt lat="54.2829340000" lon="-2.2343770000"><ele>533</ele><time>2013-11-17T10:50:17Z</time></trkpt>
<trkpt lat="54.2829290000" lon="-2.2343970000"><ele>533</ele><time>2013-11-17T10:50:18Z</time></trkpt>
<trkpt lat="54.2829250000" lon="-2.2344170000"><ele>533</ele><time>2013-11-17T10:50:19Z</time></trkpt>
<trkpt lat="54.2829220000" lon="-2.2344370000"><ele>533</ele><time>2013-11-17T10:50:20Z</time></trkpt>
<trkpt lat="54.2829210000" lon="-2.2344560000"><ele>533</ele><time>2013-11-17T10:50:21Z</time></trkpt>
<trkpt lat="54.2829210000" lon="-2.2344730000"><ele>533</ele><time>2013-11-17T10:50:22Z</time></trkpt>
<trkpt lat="54.2829190000" lon="-2.2344910000"><ele>533</ele><time>2013-11-17T10:50:23Z</time></trkpt>
<trkpt lat="54.2829160000" lon="-2.2345100000"><ele>533</ele><time>2013-11-17T10:50:24Z</time></trkpt>
<trkpt lat="54.2829100000" lon="-2.2345300000"><ele>533</ele><time>2013-11-17T10:50:25Z</time></trkpt>
<trkpt lat="54.2829040000" lon="-2.2345470000"><ele>533</ele><time>2013-11-17T10:50:26Z</time></trkpt>
<trkpt lat="54.2828990000" lon="-2.2345640000"><ele>533</ele><time>2013-11-17T10:50:27Z</time></trkpt>
<trkpt lat="54.2828940000" lon="-2.2345810000"><ele>533</ele><time>2013-11-17T10:50:28Z</time></trkpt>
<trkpt lat="54.2828900000" lon="-2.2345990000"><ele>533</ele><time>2013-11-17T10:50:29Z</time></trkpt>
<trkpt lat="54.2828840000" lon="-2.2346200000"><ele>533</ele><time>2013-11-17T10:50:30Z</time></trkpt>
<trkpt lat="54.2828800000" lon="-2.2346390000"><ele>533</ele><time>2013-11-17T10:50:31Z</time></trkpt>
<trkpt lat="54.2828760000" lon="-2.2346590000"><ele>533</ele><time>2013-11-17T10:50:32Z</time></trkpt>
<trkpt lat="54.2828740000" lon="-2.2346750000"><ele>533</ele><time>2013-11-17T10:50:33Z</time></trkpt>
<trkpt lat="54.2828710000" lon="-2.2346930000"><ele>533</ele><time>2013-11-17T10:50:34Z</time></trkpt>
<trkpt lat="54.2828680000" lon="-2.2347120000"><ele>533</ele><time>2013-11-17T10:50:35Z</time></trkpt>
<trkpt lat="54.2828650000" lon="-2.2347290000"><ele>533</ele><time>2013-11-17T10:50:36Z</time></trkpt>
<trkpt lat="54.2828640000" lon="-2.2347450000"><ele>533</ele><time>2013-11-17T10:50:37Z</time></trkpt>
<trkpt lat="54.2828610000" lon="-2.2347630000"><ele>533</ele><time>2013-11-17T10:50:38Z</time></trkpt>
<trkpt lat="54.2828600000" lon="-2.2347800000"><ele>533</ele><time>2013-11-17T10:50:39Z</time></trkpt>
<trkpt lat="54.2828590000" lon="-2.2348000000"><ele>533</ele><time>2013-11-17T10:50:40Z</time></trkpt>
<trkpt lat="54.2828590000" lon="-2.2348190000"><ele>533</ele><time>2013-11-17T10:50:41Z</time></trkpt>
<trkpt lat="54.2828580000" lon="-2.2348400000"><ele>533</ele><time>2013-11-17T10:50:42Z</time></trkpt>
<trkpt lat="54.2828570000" lon="-2.2348610000"><ele>533</ele><time>2013-11-17T10:50:43Z</time></trkpt>
<trkpt lat="54.2828530000" lon="-2.2348830000"><ele>533</ele><time>2013-11-17T10:50:44Z</time></trkpt>
<trkpt lat="54.2828480000" lon="-2.2349050000"><ele>533</ele><time>2013-11-17T10:50:45Z</time></trkpt>
<trkpt lat="54.2828430000" lon="-2.2349250000"><ele>533</ele><time>2013-11-17T10:50:46Z</time></trkpt>
<trkpt lat="54.2828400000" lon="-2.2349440000"><ele>533</ele><time>2013-11-17T10:50:47Z</time></trkpt>
<trkpt lat="54.2828360000" lon="-2.2349640000"><ele>533</ele><time>2013-11-17T10:50:48Z</time></trkpt>
<trkpt lat="54.2828310000" lon="-2.2349860000"><ele>537</ele><time>2013-11-17T10:50:49Z</time></trkpt>
<trkpt lat="54.2828280000" lon="-2.2350080000"><ele>537</ele><time>2013-11-17T10:50:50Z</time></trkpt>
<trkpt lat="54.2828250000" lon="-2.2350280000"><ele>537</ele><time>2013-11-17T10:50:51Z</time></trkpt>
<trkpt lat="54.2828250000" lon="-2.2350460000"><ele>537</ele><time>2013-11-17T10:50:52Z</time></trkpt>
<trkpt lat="54.2828240000" lon="-2.2350630000"><ele>537</ele><time>2013-11-17T10:50:53Z</time></trkpt>
<trkpt lat="54.2828210000" lon="-2.2350790000"><ele>537</ele><time>2013-11-17T10:50:54Z</time></trkpt>
<trkpt lat="54.2828160000" lon="-2.2350940000"><ele>537</ele><time>2013-11-17T10:50:55Z</time></trkpt>
<trkpt lat="54.2828090000" lon="-2.2351080000"><ele>537</ele><time>2013-11-17T10:50:56Z</time></trkpt>
<trkpt lat="54.2828020000" lon="-2.2351240000"><ele>537</ele><time>2013-11-17T10:50:57Z</time></trkpt>
<trkpt lat="54.2827960000" lon="-2.2351380000"><ele>537</ele><time>2013-11-17T10:50:58Z</time></trkpt>
<trkpt lat="54.2827910000" lon="-2.2351530000"><ele>537</ele><time>2013-11-17T10:50:59Z</time></trkpt>
<trkpt lat="54.2827860000" lon="-2.2351690000"><ele>537</ele><time>2013-11-17T10:51:00Z</time></trkpt>
<trkpt lat="54.2827790000" lon="-2.2351850000"><ele>537</ele><time>2013-11-17T10:51:01Z</time></trkpt>
<trkpt lat="54.2827720000" lon="-2.2352020000"><ele>537</ele><time>2013-11-17T10:51:02Z</time></trkpt>
<trkpt lat="54.2827650000" lon="-2.2352220000"><ele>537</ele><time>2013-11-17T10:51:03Z</time></trkpt>
<trkpt lat="54.2827590000" lon="-2.2352410000"><ele>537</ele><time>2013-11-17T10:51:04Z</time></trkpt>
<trkpt lat="54.2827530000" lon="-2.2352570000"><ele>537</ele><time>2013-11-17T10:51:05Z</time></trkpt>
<trkpt lat="54.2827470000" lon="-2.2352740000"><ele>537</ele><time>2013-11-17T10:51:06Z</time></trkpt>
<trkpt lat="54.2827410000" lon="-2.2352890000"><ele>537</ele><time>2013-11-17T10:51:07Z</time></trkpt>
<trkpt lat="54.2827350000" lon="-2.2353030000"><ele>537</ele><time>2013-11-17T10:51:08Z</time></trkpt>
<trkpt lat="54.2827290000" lon="-2.2353180000"><ele>537</ele><time>2013-11-17T10:51:09Z</time></trkpt>
<trkpt lat="54.2827240000" lon="-2.2353340000"><ele>537</ele><time>2013-11-17T10:51:10Z</time></trkpt>
<trkpt lat="54.2827190000" lon="-2.2353500000"><ele>537</ele><time>2013-11-17T10:51:11Z</time></trkpt>
<trkpt lat="54.2827140000" lon="-2.2353640000"><ele>537</ele><time>2013-11-17T10:51:12Z</time></trkpt>
<trkpt lat="54.2827080000" lon="-2.2353770000"><ele>537</ele><time>2013-11-17T10:51:13Z</time></trkpt>
<trkpt lat="54.2827050000" lon="-2.2353890000"><ele>537</ele><time>2013-11-17T10:51:14Z</time></trkpt>
<trkpt lat="54.2827040000" lon="-2.2354040000"><ele>537</ele><time>2013-11-17T10:51:15Z</time></trkpt>
<trkpt lat="54.2827060000" lon="-2.2354200000"><ele>537</ele><time>2013-11-17T10:51:16Z</time></trkpt>
<trkpt lat="54.2827080000" lon="-2.2354410000"><ele>537</ele><time>2013-11-17T10:51:17Z</time></trkpt>
<trkpt lat="54.2827090000" lon="-2.2354620000"><ele>537</ele><time>2013-11-17T10:51:18Z</time></trkpt>
<trkpt lat="54.2827090000" lon="-2.2354790000"><ele>537</ele><time>2013-11-17T10:51:19Z</time></trkpt>
<trkpt lat="54.2827100000" lon="-2.2354910000"><ele>537</ele><time>2013-11-17T10:51:20Z</time></trkpt>
<trkpt lat="54.2827120000" lon="-2.2354970000"><ele>537</ele><time>2013-11-17T10:51:21Z</time></trkpt>
<trkpt lat="54.2827140000" lon="-2.2355050000"><ele>537</ele><time>2013-11-17T10:51:22Z</time></trkpt>
<trkpt lat="54.2827120000" lon="-2.2355160000"><ele>537</ele><time>2013-11-17T10:51:23Z</time></trkpt>
<trkpt lat="54.2827090000" lon="-2.2355260000"><ele>537</ele><time>2013-11-17T10:51:24Z</time></trkpt>
<trkpt lat="54.2827030000" lon="-2.2355370000"><ele>537</ele><time>2013-11-17T10:51:25Z</time></trkpt>
<trkpt lat="54.2826950000" lon="-2.2355480000"><ele>537</ele><time>2013-11-17T10:51:26Z</time></trkpt>
<trkpt lat="54.2826880000" lon="-2.2355590000"><ele>537</ele><time>2013-11-17T10:51:27Z</time></trkpt>
<trkpt lat="54.2826800000" lon="-2.2355700000"><ele>537</ele><time>2013-11-17T10:51:28Z</time></trkpt>
<trkpt lat="54.2826730000" lon="-2.2355780000"><ele>537</ele><time>2013-11-17T10:51:29Z</time></trkpt>
<trkpt lat="54.2826640000" lon="-2.2355830000"><ele>537</ele><time>2013-11-17T10:51:30Z</time></trkpt>
<trkpt lat="54.2826560000" lon="-2.2355880000"><ele>537</ele><time>2013-11-17T10:51:31Z</time></trkpt>
<trkpt lat="54.2826490000" lon="-2.2355910000"><ele>537</ele><time>2013-11-17T10:51:32Z</time></trkpt>
<trkpt lat="54.2826420000" lon="-2.2355970000"><ele>537</ele><time>2013-11-17T10:51:33Z</time></trkpt>
<trkpt lat="54.2826360000" lon="-2.2356030000"><ele>537</ele><time>2013-11-17T10:51:34Z</time></trkpt>
<trkpt lat="54.2826300000" lon="-2.2356070000"><ele>537</ele><time>2013-11-17T10:51:35Z</time></trkpt>
<trkpt lat="54.2826250000" lon="-2.2356120000"><ele>537</ele><time>2013-11-17T10:51:36Z</time></trkpt>
<trkpt lat="54.2826190000" lon="-2.2356190000"><ele>537</ele><time>2013-11-17T10:51:37Z</time></trkpt>
<trkpt lat="54.2826140000" lon="-2.2356280000"><ele>537</ele><time>2013-11-17T10:51:38Z</time></trkpt>
<trkpt lat="54.2826090000" lon="-2.2356380000"><ele>537</ele><time>2013-11-17T10:51:39Z</time></trkpt>
<trkpt lat="54.2826040000" lon="-2.2356450000"><ele>537</ele><time>2013-11-17T10:51:40Z</time></trkpt>
<trkpt lat="54.2826000000" lon="-2.2356540000"><ele>537</ele><time>2013-11-17T10:51:41Z</time></trkpt>
<trkpt lat="54.2825950000" lon="-2.2356640000"><ele>537</ele><time>2013-11-17T10:51:42Z</time></trkpt>
<trkpt lat="54.2825890000" lon="-2.2356720000"><ele>537</ele><time>2013-11-17T10:51:43Z</time></trkpt>
<trkpt lat="54.2825820000" lon="-2.2356800000"><ele>537</ele><time>2013-11-17T10:51:44Z</time></trkpt>
<trkpt lat="54.2825730000" lon="-2.2356870000"><ele>537</ele><time>2013-11-17T10:51:45Z</time></trkpt>
<trkpt lat="54.2825400000" lon="-2.2356930000"><ele>537</ele><time>2013-11-17T10:51:50Z</time></trkpt>
<trkpt lat="54.2824930000" lon="-2.2357100000"><ele>537</ele><time>2013-11-17T10:52:08Z</time></trkpt>
<trkpt lat="54.2824690000" lon="-2.2357390000"><ele>537</ele><time>2013-11-17T10:52:13Z</time></trkpt>
<trkpt lat="54.2824470000" lon="-2.2357530000"><ele>537</ele><time>2013-11-17T10:52:16Z</time></trkpt>
<trkpt lat="54.2824220000" lon="-2.2357650000"><ele>537</ele><time>2013-11-17T10:52:19Z</time></trkpt>
<trkpt lat="54.2823970000" lon="-2.2357800000"><ele>537</ele><time>2013-11-17T10:52:22Z</time></trkpt>
<trkpt lat="54.2823720000" lon="-2.2357910000"><ele>537</ele><time>2013-11-17T10:52:25Z</time></trkpt>
<trkpt lat="54.2823330000" lon="-2.2357820000"><ele>537</ele><time>2013-11-17T10:52:29Z</time></trkpt>
<trkpt lat="54.2823730000" lon="-2.2358280000"><ele>537</ele><time>2013-11-17T10:52:59Z</time></trkpt>
<trkpt lat="54.2823840000" lon="-2.2357670000"><ele>537</ele><time>2013-11-17T10:56:05Z</time></trkpt>
<trkpt lat="54.2823120000" lon="-2.2357510000"><ele>537</ele><time>2013-11-17T10:59:12Z</time></trkpt>
<trkpt lat="54.2823500000" lon="-2.2357680000"><ele>537</ele><time>2013-11-17T10:59:44Z</time></trkpt>
<trkpt lat="54.2823010000" lon="-2.2358390000"><ele>537</ele><time>2013-11-17T11:03:31Z</time></trkpt>
<trkpt lat="54.2822710000" lon="-2.2358500000"><ele>537</ele><time>2013-11-17T11:03:39Z</time></trkpt>
<trkpt lat="54.2822450000" lon="-2.2358890000"><ele>537</ele><time>2013-11-17T11:03:42Z</time></trkpt>
<trkpt lat="54.2822150000" lon="-2.2359300000"><ele>537</ele><time>2013-11-17T11:03:45Z</time></trkpt>
<trkpt lat="54.2821820000" lon="-2.2359930000"><ele>537</ele><time>2013-11-17T11:03:49Z</time></trkpt>
<trkpt lat="54.2821550000" lon="-2.2360720000"><ele>537</ele><time>2013-11-17T11:03:54Z</time></trkpt>
<trkpt lat="54.2821470000" lon="-2.2361680000"><ele>537</ele><time>2013-11-17T11:04:00Z</time></trkpt>
<trkpt lat="54.2821170000" lon="-2.2362550000"><ele>537</ele><time>2013-11-17T11:04:05Z</time></trkpt>
<trkpt lat="54.2820940000" lon="-2.2363280000"><ele>537</ele><time>2013-11-17T11:04:09Z</time></trkpt>
<trkpt lat="54.2820640000" lon="-2.2364080000"><ele>537</ele><time>2013-11-17T11:04:14Z</time></trkpt>
<trkpt lat="54.2820410000" lon="-2.2364850000"><ele>537</ele><time>2013-11-17T11:04:19Z</time></trkpt>
<trkpt lat="54.2820360000" lon="-2.2365640000"><ele>537</ele><time>2013-11-17T11:04:23Z</time></trkpt>
<trkpt lat="54.2820220000" lon="-2.2366440000"><ele>537</ele><time>2013-11-17T11:04:27Z</time></trkpt>
<trkpt lat="54.2819970000" lon="-2.2367030000"><ele>568</ele><time>2013-11-17T11:04:31Z</time></trkpt>
<trkpt lat="54.2819730000" lon="-2.2367720000"><ele>568</ele><time>2013-11-17T11:04:36Z</time></trkpt>
<trkpt lat="54.2819450000" lon="-2.2368320000"><ele>568</ele><time>2013-11-17T11:04:40Z</time></trkpt>
<trkpt lat="54.2819130000" lon="-2.2368930000"><ele>568</ele><time>2013-11-17T11:04:44Z</time></trkpt>
<trkpt lat="54.2818870000" lon="-2.2369520000"><ele>568</ele><time>2013-11-17T11:04:49Z</time></trkpt>
<trkpt lat="54.2818610000" lon="-2.2370170000"><ele>568</ele><time>2013-11-17T11:04:54Z</time></trkpt>
<trkpt lat="54.2818410000" lon="-2.2370810000"><ele>568</ele><time>2013-11-17T11:04:59Z</time></trkpt>
<trkpt lat="54.2818090000" lon="-2.2371530000"><ele>568</ele><time>2013-11-17T11:05:03Z</time></trkpt>
<trkpt lat="54.2817800000" lon="-2.2372350000"><ele>568</ele><time>2013-11-17T11:05:07Z</time></trkpt>
<trkpt lat="54.2817430000" lon="-2.2372960000"><ele>568</ele><time>2013-11-17T11:05:11Z</time></trkpt>
<trkpt lat="54.2817400000" lon="-2.2373800000"><ele>568</ele><time>2013-11-17T11:05:16Z</time></trkpt>
<trkpt lat="54.2817480000" lon="-2.2374660000"><ele>568</ele><time>2013-11-17T11:05:22Z</time></trkpt>
<trkpt lat="54.2817060000" lon="-2.2375380000"><ele>568</ele><time>2013-11-17T11:05:27Z</time></trkpt>
<trkpt lat="54.2816750000" lon="-2.2376110000"><ele>568</ele><time>2013-11-17T11:05:33Z</time></trkpt>
<trkpt lat="54.2816420000" lon="-2.2376830000"><ele>568</ele><time>2013-11-17T11:05:39Z</time></trkpt>
<trkpt lat="54.2816090000" lon="-2.2377260000"><ele>568</ele><time>2013-11-17T11:05:43Z</time></trkpt>
<trkpt lat="54.2815760000" lon="-2.2377750000"><ele>568</ele><time>2013-11-17T11:05:46Z</time></trkpt>
<trkpt lat="54.2815390000" lon="-2.2378230000"><ele>568</ele><time>2013-11-17T11:05:51Z</time></trkpt>
<trkpt lat="54.2815230000" lon="-2.2378780000"><ele>568</ele><time>2013-11-17T11:05:55Z</time></trkpt>
<trkpt lat="54.2815020000" lon="-2.2379410000"><ele>568</ele><time>2013-11-17T11:05:59Z</time></trkpt>
<trkpt lat="54.2814960000" lon="-2.2380060000"><ele>568</ele><time>2013-11-17T11:06:03Z</time></trkpt>
<trkpt lat="54.2814750000" lon="-2.2380440000"><ele>542</ele><time>2013-11-17T11:06:06Z</time></trkpt>
<trkpt lat="54.2814500000" lon="-2.2380620000"><ele>542</ele><time>2013-11-17T11:06:09Z</time></trkpt>
<trkpt lat="54.2814290000" lon="-2.2380720000"><ele>542</ele><time>2013-11-17T11:06:11Z</time></trkpt>
<trkpt lat="54.2814070000" lon="-2.2380750000"><ele>542</ele><time>2013-11-17T11:06:13Z</time></trkpt>
<trkpt lat="54.2813850000" lon="-2.2380640000"><ele>542</ele><time>2013-11-17T11:06:16Z</time></trkpt>
<trkpt lat="54.2813550000" lon="-2.2380610000"><ele>542</ele><time>2013-11-17T11:06:20Z</time></trkpt>
<trkpt lat="54.2813230000" lon="-2.2380490000"><ele>542</ele><time>2013-11-17T11:06:24Z</time></trkpt>
<trkpt lat="54.2812940000" lon="-2.2380390000"><ele>542</ele><time>2013-11-17T11:06:27Z</time></trkpt>
<trkpt lat="54.2812650000" lon="-2.2380430000"><ele>542</ele><time>2013-11-17T11:06:30Z</time></trkpt>
<trkpt lat="54.2812340000" lon="-2.2380440000"><ele>542</ele><time>2013-11-17T11:06:33Z</time></trkpt>
<trkpt lat="54.2812000000" lon="-2.2380420000"><ele>542</ele><time>2013-11-17T11:06:36Z</time></trkpt>
<trkpt lat="54.2811780000" lon="-2.2380420000"><ele>542</ele><time>2013-11-17T11:06:38Z</time></trkpt>
<trkpt lat="54.2811540000" lon="-2.2380430000"><ele>542</ele><time>2013-11-17T11:06:40Z</time></trkpt>
<trkpt lat="54.2811290000" lon="-2.2380450000"><ele>542</ele><time>2013-11-17T11:06:42Z</time></trkpt>
<trkpt lat="54.2811050000" lon="-2.2380570000"><ele>542</ele><time>2013-11-17T11:06:44Z</time></trkpt>
<trkpt lat="54.2810820000" lon="-2.2380700000"><ele>542</ele><time>2013-11-17T11:06:46Z</time></trkpt>
<trkpt lat="54.2810590000" lon="-2.2380840000"><ele>542</ele><time>2013-11-17T11:06:48Z</time></trkpt>
<trkpt lat="54.2810380000" lon="-2.2381000000"><ele>542</ele><time>2013-11-17T11:06:50Z</time></trkpt>
<trkpt lat="54.2810170000" lon="-2.2381190000"><ele>542</ele><time>2013-11-17T11:06:52Z</time></trkpt>
<trkpt lat="54.2809940000" lon="-2.2381370000"><ele>542</ele><time>2013-11-17T11:06:54Z</time></trkpt>
<trkpt lat="54.2809660000" lon="-2.2381540000"><ele>542</ele><time>2013-11-17T11:06:56Z</time></trkpt>
<trkpt lat="54.2809560000" lon="-2.2381580000"><ele>542</ele><time>2013-11-17T11:06:57Z</time></trkpt>
<trkpt lat="54.2809460000" lon="-2.2381650000"><ele>542</ele><time>2013-11-17T11:06:58Z</time></trkpt>
<trkpt lat="54.2809360000" lon="-2.2381710000"><ele>542</ele><time>2013-11-17T11:06:59Z</time></trkpt>
<trkpt lat="54.2809260000" lon="-2.2381770000"><ele>542</ele><time>2013-11-17T11:07:00Z</time></trkpt>
<trkpt lat="54.2809160000" lon="-2.2381840000"><ele>542</ele><time>2013-11-17T11:07:01Z</time></trkpt>
<trkpt lat="54.2809050000" lon="-2.2381900000"><ele>542</ele><time>2013-11-17T11:07:02Z</time></trkpt>
<trkpt lat="54.2808950000" lon="-2.2381960000"><ele>542</ele><time>2013-11-17T11:07:03Z</time></trkpt>
<trkpt lat="54.2808860000" lon="-2.2382040000"><ele>542</ele><time>2013-11-17T11:07:04Z</time></trkpt>
<trkpt lat="54.2808760000" lon="-2.2382140000"><ele>542</ele><time>2013-11-17T11:07:05Z</time></trkpt>
<trkpt lat="54.2808640000" lon="-2.2382230000"><ele>542</ele><time>2013-11-17T11:07:06Z</time></trkpt>
<trkpt lat="54.2808510000" lon="-2.2382310000"><ele>542</ele><time>2013-11-17T11:07:07Z</time></trkpt>
<trkpt lat="54.2808400000" lon="-2.2382390000"><ele>542</ele><time>2013-11-17T11:07:08Z</time></trkpt>
<trkpt lat="54.2808290000" lon="-2.2382470000"><ele>542</ele><time>2013-11-17T11:07:09Z</time></trkpt>
<trkpt lat="54.2808190000" lon="-2.2382540000"><ele>542</ele><time>2013-11-17T11:07:10Z</time></trkpt>
<trkpt lat="54.2808080000" lon="-2.2382640000"><ele>542</ele><time>2013-11-17T11:07:11Z</time></trkpt>
<trkpt lat="54.2807980000" lon="-2.2382720000"><ele>542</ele><time>2013-11-17T11:07:12Z</time></trkpt>
<trkpt lat="54.2807870000" lon="-2.2382800000"><ele>542</ele><time>2013-11-17T11:07:13Z</time></trkpt>
<trkpt lat="54.2807780000" lon="-2.2382880000"><ele>542</ele><time>2013-11-17T11:07:14Z</time></trkpt>
<trkpt lat="54.2807690000" lon="-2.2382920000"><ele>542</ele><time>2013-11-17T11:07:15Z</time></trkpt>
<trkpt lat="54.2807600000" lon="-2.2382960000"><ele>542</ele><time>2013-11-17T11:07:16Z</time></trkpt>
<trkpt lat="54.2807490000" lon="-2.2383010000"><ele>542</ele><time>2013-11-17T11:07:17Z</time></trkpt>
<trkpt lat="54.2807390000" lon="-2.2383030000"><ele>542</ele><time>2013-11-17T11:07:18Z</time></trkpt>
<trkpt lat="54.2807270000" lon="-2.2383050000"><ele>542</ele><time>2013-11-17T11:07:19Z</time></trkpt>
<trkpt lat="54.2807150000" lon="-2.2383050000"><ele>542</ele><time>2013-11-17T11:07:20Z</time></trkpt>
<trkpt lat="54.2807030000" lon="-2.2383070000"><ele>542</ele><time>2013-11-17T11:07:21Z</time></trkpt>
<trkpt lat="54.2806930000" lon="-2.2383120000"><ele>542</ele><time>2013-11-17T11:07:22Z</time></trkpt>
<trkpt lat="54.2806830000" lon="-2.2383150000"><ele>542</ele><time>2013-11-17T11:07:23Z</time></trkpt>
<trkpt lat="54.2806740000" lon="-2.2383160000"><ele>542</ele><time>2013-11-17T11:07:24Z</time></trkpt>
<trkpt lat="54.2806670000" lon="-2.2383180000"><ele>542</ele><time>2013-11-17T11:07:25Z</time></trkpt>
<trkpt lat="54.2806620000" lon="-2.2383200000"><ele>542</ele><time>2013-11-17T11:07:26Z</time></trkpt>
<trkpt lat="54.2806570000" lon="-2.2383190000"><ele>542</ele><time>2013-11-17T11:07:27Z</time></trkpt>
<trkpt lat="54.2806510000" lon="-2.2383160000"><ele>542</ele><time>2013-11-17T11:07:28Z</time></trkpt>
<trkpt lat="54.2806460000" lon="-2.2383140000"><ele>542</ele><time>2013-11-17T11:07:29Z</time></trkpt>
<trkpt lat="54.2806450000" lon="-2.2383120000"><ele>542</ele><time>2013-11-17T11:07:30Z</time></trkpt>
<trkpt lat="54.2806430000" lon="-2.2383110000"><ele>542</ele><time>2013-11-17T11:07:31Z</time></trkpt>
<trkpt lat="54.2806420000" lon="-2.2383110000"><ele>542</ele><time>2013-11-17T11:07:32Z</time></trkpt>
<trkpt lat="54.2806350000" lon="-2.2383190000"><ele>542</ele><time>2013-11-17T11:07:37Z</time></trkpt>
<trkpt lat="54.2806310000" lon="-2.2383270000"><ele>542</ele><time>2013-11-17T11:07:38Z</time></trkpt>
<trkpt lat="54.2806260000" lon="-2.2383350000"><ele>542</ele><time>2013-11-17T11:07:39Z</time></trkpt>
<trkpt lat="54.2806190000" lon="-2.2383450000"><ele>542</ele><time>2013-11-17T11:07:40Z</time></trkpt>
<trkpt lat="54.2806120000" lon="-2.2383530000"><ele>542</ele><time>2013-11-17T11:07:41Z</time></trkpt>
<trkpt lat="54.2806060000" lon="-2.2383620000"><ele>542</ele><time>2013-11-17T11:07:42Z</time></trkpt>
<trkpt lat="54.2806000000" lon="-2.2383720000"><ele>542</ele><time>2013-11-17T11:07:43Z</time></trkpt>
<trkpt lat="54.2805940000" lon="-2.2383830000"><ele>542</ele><time>2013-11-17T11:07:44Z</time></trkpt>
<trkpt lat="54.2805880000" lon="-2.2383930000"><ele>542</ele><time>2013-11-17T11:07:45Z</time></trkpt>
<trkpt lat="54.2805810000" lon="-2.2384030000"><ele>542</ele><time>2013-11-17T11:07:46Z</time></trkpt>
<trkpt lat="54.2805750000" lon="-2.2384140000"><ele>542</ele><time>2013-11-17T11:07:47Z</time></trkpt>
<trkpt lat="54.2805680000" lon="-2.2384270000"><ele>542</ele><time>2013-11-17T11:07:48Z</time></trkpt>
<trkpt lat="54.2805600000" lon="-2.2384400000"><ele>542</ele><time>2013-11-17T11:07:49Z</time></trkpt>
<trkpt lat="54.2805520000" lon="-2.2384550000"><ele>542</ele><time>2013-11-17T11:07:50Z</time></trkpt>
<trkpt lat="54.2805440000" lon="-2.2384680000"><ele>542</ele><time>2013-11-17T11:07:51Z</time></trkpt>
<trkpt lat="54.2805350000" lon="-2.2384800000"><ele>542</ele><time>2013-11-17T11:07:52Z</time></trkpt>
<trkpt lat="54.2805270000" lon="-2.2384920000"><ele>542</ele><time>2013-11-17T11:07:53Z</time></trkpt>
<trkpt lat="54.2805170000" lon="-2.2385040000"><ele>542</ele><time>2013-11-17T11:07:54Z</time></trkpt>
<trkpt lat="54.2805070000" lon="-2.2385160000"><ele>542</ele><time>2013-11-17T11:07:55Z</time></trkpt>
<trkpt lat="54.2804970000" lon="-2.2385270000"><ele>542</ele><time>2013-11-17T11:07:56Z</time></trkpt>
<trkpt lat="54.2804890000" lon="-2.2385390000"><ele>542</ele><time>2013-11-17T11:07:57Z</time></trkpt>
<trkpt lat="54.2804810000" lon="-2.2385520000"><ele>542</ele><time>2013-11-17T11:07:58Z</time></trkpt>
<trkpt lat="54.2804680000" lon="-2.2385760000"><ele>542</ele><time>2013-11-17T11:08:00Z</time></trkpt>
<trkpt lat="54.2804550000" lon="-2.2386060000"><ele>542</ele><time>2013-11-17T11:08:02Z</time></trkpt>
<trkpt lat="54.2804400000" lon="-2.2386340000"><ele>542</ele><time>2013-11-17T11:08:04Z</time></trkpt>
<trkpt lat="54.2804240000" lon="-2.2386620000"><ele>542</ele><time>2013-11-17T11:08:06Z</time></trkpt>
<trkpt lat="54.2804060000" lon="-2.2387000000"><ele>542</ele><time>2013-11-17T11:08:09Z</time></trkpt>
<trkpt lat="54.2803910000" lon="-2.2387290000"><ele>542</ele><time>2013-11-17T11:08:11Z</time></trkpt>
<trkpt lat="54.2803720000" lon="-2.2387650000"><ele>542</ele><time>2013-11-17T11:08:13Z</time></trkpt>
<trkpt lat="54.2803520000" lon="-2.2387980000"><ele>542</ele><time>2013-11-17T11:08:15Z</time></trkpt>
<trkpt lat="54.2803270000" lon="-2.2388360000"><ele>542</ele><time>2013-11-17T11:08:18Z</time></trkpt>
<trkpt lat="54.2803080000" lon="-2.2388880000"><ele>542</ele><time>2013-11-17T11:08:21Z</time></trkpt>
<trkpt lat="54.2802880000" lon="-2.2389300000"><ele>542</ele><time>2013-11-17T11:08:24Z</time></trkpt>
<trkpt lat="54.2802640000" lon="-2.2389760000"><ele>542</ele><time>2013-11-17T11:08:28Z</time></trkpt>
<trkpt lat="54.2802440000" lon="-2.2390180000"><ele>542</ele><time>2013-11-17T11:08:32Z</time></trkpt>
<trkpt lat="54.2802010000" lon="-2.2390080000"><ele>542</ele><time>2013-11-17T11:08:43Z</time></trkpt>
<trkpt lat="54.2801700000" lon="-2.2390430000"><ele>572</ele><time>2013-11-17T11:08:46Z</time></trkpt>
<trkpt lat="54.2801510000" lon="-2.2391120000"><ele>572</ele><time>2013-11-17T11:08:49Z</time></trkpt>
<trkpt lat="54.2801260000" lon="-2.2391780000"><ele>572</ele><time>2013-11-17T11:08:52Z</time></trkpt>
<trkpt lat="54.2801070000" lon="-2.2392320000"><ele>572</ele><time>2013-11-17T11:08:55Z</time></trkpt>
<trkpt lat="54.2800900000" lon="-2.2392790000"><ele>572</ele><time>2013-11-17T11:08:58Z</time></trkpt>
<trkpt lat="54.2800600000" lon="-2.2393160000"><ele>572</ele><time>2013-11-17T11:09:01Z</time></trkpt>
<trkpt lat="54.2800260000" lon="-2.2393630000"><ele>572</ele><time>2013-11-17T11:09:04Z</time></trkpt>
<trkpt lat="54.2800010000" lon="-2.2394100000"><ele>572</ele><time>2013-11-17T11:09:07Z</time></trkpt>
<trkpt lat="54.2799780000" lon="-2.2394620000"><ele>572</ele><time>2013-11-17T11:09:10Z</time></trkpt>
<trkpt lat="54.2799490000" lon="-2.2395190000"><ele>572</ele><time>2013-11-17T11:09:14Z</time></trkpt>
<trkpt lat="54.2799300000" lon="-2.2395690000"><ele>572</ele><time>2013-11-17T11:09:17Z</time></trkpt>
<trkpt lat="54.2799080000" lon="-2.2396280000"><ele>572</ele><time>2013-11-17T11:09:20Z</time></trkpt>
<trkpt lat="54.2798790000" lon="-2.2396650000"><ele>572</ele><time>2013-11-17T11:09:23Z</time></trkpt>
<trkpt lat="54.2798460000" lon="-2.2397170000"><ele>572</ele><time>2013-11-17T11:09:26Z</time></trkpt>
<trkpt lat="54.2798190000" lon="-2.2397800000"><ele>572</ele><time>2013-11-17T11:09:29Z</time></trkpt>
<trkpt lat="54.2797950000" lon="-2.2398300000"><ele>572</ele><time>2013-11-17T11:09:32Z</time></trkpt>
<trkpt lat="54.2797640000" lon="-2.2398650000"><ele>572</ele><time>2013-11-17T11:09:36Z</time></trkpt>
<trkpt lat="54.2797350000" lon="-2.2399000000"><ele>572</ele><time>2013-11-17T11:09:39Z</time></trkpt>
<trkpt lat="54.2797030000" lon="-2.2399350000"><ele>572</ele><time>2013-11-17T11:09:42Z</time></trkpt>
<trkpt lat="54.2796760000" lon="-2.2399680000"><ele>572</ele><time>2013-11-17T11:09:45Z</time></trkpt>
<trkpt lat="54.2796520000" lon="-2.2400380000"><ele>572</ele><time>2013-11-17T11:09:51Z</time></trkpt>
<trkpt lat="54.2796220000" lon="-2.2400940000"><ele>572</ele><time>2013-11-17T11:09:55Z</time></trkpt>
<trkpt lat="54.2795930000" lon="-2.2401160000"><ele>572</ele><time>2013-11-17T11:09:57Z</time></trkpt>
<trkpt lat="54.2795610000" lon="-2.2401540000"><ele>572</ele><time>2013-11-17T11:10:00Z</time></trkpt>
<trkpt lat="54.2795160000" lon="-2.2402100000"><ele>572</ele><time>2013-11-17T11:10:05Z</time></trkpt>
<trkpt lat="54.2794880000" lon="-2.2402420000"><ele>572</ele><time>2013-11-17T11:10:08Z</time></trkpt>
<trkpt lat="54.2794590000" lon="-2.2402810000"><ele>572</ele><time>2013-11-17T11:10:11Z</time></trkpt>
<trkpt lat="54.2794200000" lon="-2.2403420000"><ele>572</ele><time>2013-11-17T11:10:29Z</time></trkpt>
<trkpt lat="54.2794180000" lon="-2.2403460000"><ele>572</ele><time>2013-11-17T11:10:30Z</time></trkpt>
<trkpt lat="54.2794140000" lon="-2.2403530000"><ele>572</ele><time>2013-11-17T11:10:31Z</time></trkpt>
<trkpt lat="54.2794100000" lon="-2.2403610000"><ele>572</ele><time>2013-11-17T11:10:32Z</time></trkpt>
<trkpt lat="54.2794060000" lon="-2.2403700000"><ele>572</ele><time>2013-11-17T11:10:33Z</time></trkpt>
<trkpt lat="54.2794000000" lon="-2.2403790000"><ele>572</ele><time>2013-11-17T11:10:34Z</time></trkpt>
<trkpt lat="54.2793950000" lon="-2.2403880000"><ele>572</ele><time>2013-11-17T11:10:35Z</time></trkpt>
<trkpt lat="54.2793890000" lon="-2.2404000000"><ele>572</ele><time>2013-11-17T11:10:36Z</time></trkpt>
<trkpt lat="54.2793810000" lon="-2.2404150000"><ele>572</ele><time>2013-11-17T11:10:37Z</time></trkpt>
<trkpt lat="54.2793740000" lon="-2.2404280000"><ele>572</ele><time>2013-11-17T11:10:38Z</time></trkpt>
<trkpt lat="54.2793670000" lon="-2.2404400000"><ele>572</ele><time>2013-11-17T11:10:39Z</time></trkpt>
<trkpt lat="54.2793590000" lon="-2.2404510000"><ele>572</ele><time>2013-11-17T11:10:40Z</time></trkpt>
<trkpt lat="54.2793500000" lon="-2.2404580000"><ele>572</ele><time>2013-11-17T11:10:41Z</time></trkpt>
<trkpt lat="54.2793400000" lon="-2.2404630000"><ele>572</ele><time>2013-11-17T11:10:42Z</time></trkpt>
<trkpt lat="54.2793320000" lon="-2.2404620000"><ele>572</ele><time>2013-11-17T11:10:43Z</time></trkpt>
<trkpt lat="54.2793250000" lon="-2.2404590000"><ele>572</ele><time>2013-11-17T11:10:44Z</time></trkpt>
<trkpt lat="54.2793200000" lon="-2.2404540000"><ele>572</ele><time>2013-11-17T11:10:45Z</time></trkpt>
<trkpt lat="54.2793150000" lon="-2.2404460000"><ele>572</ele><time>2013-11-17T11:10:46Z</time></trkpt>
<trkpt lat="54.2793120000" lon="-2.2404400000"><ele>572</ele><time>2013-11-17T11:10:47Z</time></trkpt>
<trkpt lat="54.2793120000" lon="-2.2404360000"><ele>572</ele><time>2013-11-17T11:10:48Z</time></trkpt>
<trkpt lat="54.2793100000" lon="-2.2404340000"><ele>572</ele><time>2013-11-17T11:10:49Z</time></trkpt>
<trkpt lat="54.2793090000" lon="-2.2404330000"><ele>572</ele><time>2013-11-17T11:10:50Z</time></trkpt>
<trkpt lat="54.2793080000" lon="-2.2404320000"><ele>572</ele><time>2013-11-17T11:10:51Z</time></trkpt>
<trkpt lat="54.2793080000" lon="-2.2404330000"><ele>572</ele><time>2013-11-17T11:10:52Z</time></trkpt>
<trkpt lat="54.2793080000" lon="-2.2404330000"><ele>572</ele><time>2013-11-17T11:10:53Z</time></trkpt>
<trkpt lat="54.2793080000" lon="-2.2404330000"><ele>572</ele><time>2013-11-17T11:10:54Z</time></trkpt>
<trkpt lat="54.2793080000" lon="-2.2404320000"><ele>572</ele><time>2013-11-17T11:10:55Z</time></trkpt>
<trkpt lat="54.2793090000" lon="-2.2404320000"><ele>572</ele><time>2013-11-17T11:10:56Z</time></trkpt>
<trkpt lat="54.2793090000" lon="-2.2404310000"><ele>572</ele><time>2013-11-17T11:10:57Z</time></trkpt>
<trkpt lat="54.2793090000" lon="-2.2404310000"><ele>572</ele><time>2013-11-17T11:10:58Z</time></trkpt>
<trkpt lat="54.2793090000" lon="-2.2404300000"><ele>572</ele><time>2013-11-17T11:10:59Z</time></trkpt>
<trkpt lat="54.2793080000" lon="-2.2404300000"><ele>572</ele><time>2013-11-17T11:11:00Z</time></trkpt>
<trkpt lat="54.2793080000" lon="-2.2404300000"><ele>572</ele><time>2013-11-17T11:11:01Z</time></trkpt>
<trkpt lat="54.2793070000" lon="-2.2404290000"><ele>572</ele><time>2013-11-17T11:11:02Z</time></trkpt>
<trkpt lat="54.2793070000" lon="-2.2404290000"><ele>572</ele><time>2013-11-17T11:11:03Z</time></trkpt>
<trkpt lat="54.2793080000" lon="-2.2404290000"><ele>572</ele><time>2013-11-17T11:11:04Z</time></trkpt>
<trkpt lat="54.2793110000" lon="-2.2404310000"><ele>572</ele><time>2013-11-17T11:11:05Z</time></trkpt>
<trkpt lat="54.2793140000" lon="-2.2404370000"><ele>572</ele><time>2013-11-17T11:11:06Z</time></trkpt>
<trkpt lat="54.2793180000" lon="-2.2404460000"><ele>572</ele><time>2013-11-17T11:11:07Z</time></trkpt>
<trkpt lat="54.2793220000" lon="-2.2404590000"><ele>572</ele><time>2013-11-17T11:11:08Z</time></trkpt>
<trkpt lat="54.2793240000" lon="-2.2404750000"><ele>572</ele><time>2013-11-17T11:11:09Z</time></trkpt>
<trkpt lat="54.2793220000" lon="-2.2404890000"><ele>572</ele><time>2013-11-17T11:11:10Z</time></trkpt>
<trkpt lat="54.2793040000" lon="-2.2405100000"><ele>572</ele><time>2013-11-17T11:11:13Z</time></trkpt>
<trkpt lat="54.2792830000" lon="-2.2405420000"><ele>572</ele><time>2013-11-17T11:11:15Z</time></trkpt>
<trkpt lat="54.2792550000" lon="-2.2405660000"><ele>572</ele><time>2013-11-17T11:11:18Z</time></trkpt>
<trkpt lat="54.2792340000" lon="-2.2406010000"><ele>572</ele><time>2013-11-17T11:11:20Z</time></trkpt>
<trkpt lat="54.2791980000" lon="-2.2406230000"><ele>572</ele><time>2013-11-17T11:11:24Z</time></trkpt>
<trkpt lat="54.2791700000" lon="-2.2406590000"><ele>572</ele><time>2013-11-17T11:11:26Z</time></trkpt>
<trkpt lat="54.2791370000" lon="-2.2407040000"><ele>572</ele><time>2013-11-17T11:11:29Z</time></trkpt>
<trkpt lat="54.2791030000" lon="-2.2407490000"><ele>572</ele><time>2013-11-17T11:11:32Z</time></trkpt>
<trkpt lat="54.2790690000" lon="-2.2407980000"><ele>572</ele><time>2013-11-17T11:11:35Z</time></trkpt>
<trkpt lat="54.2790240000" lon="-2.2408520000"><ele>572</ele><time>2013-11-17T11:11:39Z</time></trkpt>
<trkpt lat="54.2789660000" lon="-2.2408810000"><ele>572</ele><time>2013-11-17T11:11:45Z</time></trkpt>
<trkpt lat="54.2789340000" lon="-2.2409620000"><ele>572</ele><time>2013-11-17T11:11:50Z</time></trkpt>
<trkpt lat="54.2788910000" lon="-2.2410190000"><ele>572</ele><time>2013-11-17T11:11:53Z</time></trkpt>
<trkpt lat="54.2788450000" lon="-2.2411090000"><ele>534</ele><time>2013-11-17T11:11:58Z</time></trkpt>
<trkpt lat="54.2788050000" lon="-2.2412010000"><ele>534</ele><time>2013-11-17T11:12:02Z</time></trkpt>
<trkpt lat="54.2787610000" lon="-2.2412620000"><ele>534</ele><time>2013-11-17T11:12:06Z</time></trkpt>
<trkpt lat="54.2787160000" lon="-2.2412860000"><ele>534</ele><time>2013-11-17T11:12:11Z</time></trkpt>
<trkpt lat="54.2786780000" lon="-2.2413330000"><ele>534</ele><time>2013-11-17T11:12:18Z</time></trkpt>
<trkpt lat="54.2786440000" lon="-2.2414150000"><ele>534</ele><time>2013-11-17T11:12:25Z</time></trkpt>
<trkpt lat="54.2785980000" lon="-2.2414580000"><ele>534</ele><time>2013-11-17T11:12:30Z</time></trkpt>
<trkpt lat="54.2785520000" lon="-2.2414960000"><ele>534</ele><time>2013-11-17T11:12:34Z</time></trkpt>
<trkpt lat="54.2785130000" lon="-2.2415500000"><ele>534</ele><time>2013-11-17T11:12:38Z</time></trkpt>
<trkpt lat="54.2784620000" lon="-2.2416030000"><ele>534</ele><time>2013-11-17T11:12:43Z</time></trkpt>
<trkpt lat="54.2784230000" lon="-2.2416490000"><ele>534</ele><time>2013-11-17T11:12:46Z</time></trkpt>
<trkpt lat="54.2783820000" lon="-2.2416810000"><ele>555</ele><time>2013-11-17T11:12:49Z</time></trkpt>
<trkpt lat="54.2783410000" lon="-2.2417180000"><ele>555</ele><time>2013-11-17T11:12:52Z</time></trkpt>
<trkpt lat="54.2783040000" lon="-2.2417430000"><ele>555</ele><time>2013-11-17T11:12:55Z</time></trkpt>
<trkpt lat="54.2782680000" lon="-2.2417980000"><ele>555</ele><time>2013-11-17T11:12:59Z</time></trkpt>
<trkpt lat="54.2782400000" lon="-2.2418510000"><ele>555</ele><time>2013-11-17T11:13:02Z</time></trkpt>
<trkpt lat="54.2782030000" lon="-2.2418910000"><ele>555</ele><time>2013-11-17T11:13:06Z</time></trkpt>
<trkpt lat="54.2781700000" lon="-2.2419410000"><ele>555</ele><time>2013-11-17T11:13:10Z</time></trkpt>
<trkpt lat="54.2781450000" lon="-2.2420090000"><ele>555</ele><time>2013-11-17T11:13:14Z</time></trkpt>
<trkpt lat="54.2781090000" lon="-2.2420630000"><ele>555</ele><time>2013-11-17T11:13:18Z</time></trkpt>
<trkpt lat="54.2780670000" lon="-2.2420860000"><ele>555</ele><time>2013-11-17T11:13:21Z</time></trkpt>
<trkpt lat="54.2780280000" lon="-2.2421130000"><ele>555</ele><time>2013-11-17T11:13:24Z</time></trkpt>
<trkpt lat="54.2779860000" lon="-2.2421460000"><ele>555</ele><time>2013-11-17T11:13:28Z</time></trkpt>
<trkpt lat="54.2779430000" lon="-2.2421920000"><ele>555</ele><time>2013-11-17T11:13:32Z</time></trkpt>
<trkpt lat="54.2779040000" lon="-2.2422280000"><ele>555</ele><time>2013-11-17T11:13:35Z</time></trkpt>
<trkpt lat="54.2778690000" lon="-2.2422620000"><ele>555</ele><time>2013-11-17T11:13:38Z</time></trkpt>
<trkpt lat="54.2778260000" lon="-2.2422860000"><ele>555</ele><time>2013-11-17T11:13:42Z</time></trkpt>
<trkpt lat="54.2777880000" lon="-2.2423300000"><ele>555</ele><time>2013-11-17T11:13:47Z</time></trkpt>
<trkpt lat="54.2777490000" lon="-2.2423810000"><ele>555</ele><time>2013-11-17T11:13:52Z</time></trkpt>
<trkpt lat="54.2776930000" lon="-2.2424090000"><ele>555</ele><time>2013-11-17T11:13:57Z</time></trkpt>
<trkpt lat="54.2776540000" lon="-2.2424130000"><ele>555</ele><time>2013-11-17T11:14:00Z</time></trkpt>
<trkpt lat="54.2776040000" lon="-2.2424000000"><ele>555</ele><time>2013-11-17T11:14:04Z</time></trkpt>
<trkpt lat="54.2775600000" lon="-2.2424080000"><ele>555</ele><time>2013-11-17T11:14:07Z</time></trkpt>
<trkpt lat="54.2775200000" lon="-2.2424140000"><ele>555</ele><time>2013-11-17T11:14:10Z</time></trkpt>
<trkpt lat="54.2774900000" lon="-2.2424230000"><ele>555</ele><time>2013-11-17T11:14:12Z</time></trkpt>
<trkpt lat="54.2774580000" lon="-2.2424310000"><ele>555</ele><time>2013-11-17T11:14:14Z</time></trkpt>
<trkpt lat="54.2774300000" lon="-2.2424460000"><ele>555</ele><time>2013-11-17T11:14:16Z</time></trkpt>
<trkpt lat="54.2773940000" lon="-2.2424650000"><ele>555</ele><time>2013-11-17T11:14:19Z</time></trkpt>
<trkpt lat="54.2773700000" lon="-2.2424850000"><ele>555</ele><time>2013-11-17T11:14:21Z</time></trkpt>
<trkpt lat="54.2773360000" lon="-2.2425160000"><ele>555</ele><time>2013-11-17T11:14:24Z</time></trkpt>
<trkpt lat="54.2773120000" lon="-2.2425290000"><ele>555</ele><time>2013-11-17T11:14:26Z</time></trkpt>
<trkpt lat="54.2772490000" lon="-2.2425490000"><ele>555</ele><time>2013-11-17T11:14:47Z</time></trkpt>
<trkpt lat="54.2772220000" lon="-2.2425610000"><ele>555</ele><time>2013-11-17T11:14:50Z</time></trkpt>
<trkpt lat="54.2771940000" lon="-2.2425670000"><ele>555</ele><time>2013-11-17T11:14:53Z</time></trkpt>
<trkpt lat="54.2771680000" lon="-2.2425690000"><ele>555</ele><time>2013-11-17T11:14:56Z</time></trkpt>
<trkpt lat="54.2771370000" lon="-2.2425720000"><ele>555</ele><time>2013-11-17T11:14:59Z</time></trkpt>
<trkpt lat="54.2771150000" lon="-2.2425720000"><ele>555</ele><time>2013-11-17T11:15:01Z</time></trkpt>
<trkpt lat="54.2770900000" lon="-2.2425730000"><ele>555</ele><time>2013-11-17T11:15:03Z</time></trkpt>
<trkpt lat="54.2770640000" lon="-2.2425730000"><ele>555</ele><time>2013-11-17T11:15:05Z</time></trkpt>
<trkpt lat="54.2770410000" lon="-2.2425760000"><ele>555</ele><time>2013-11-17T11:15:07Z</time></trkpt>
<trkpt lat="54.2770180000" lon="-2.2425830000"><ele>555</ele><time>2013-11-17T11:15:09Z</time></trkpt>
<trkpt lat="54.2769960000" lon="-2.2425890000"><ele>555</ele><time>2013-11-17T11:15:11Z</time></trkpt>
<trkpt lat="54.2769710000" lon="-2.2425950000"><ele>555</ele><time>2013-11-17T11:15:13Z</time></trkpt>
<trkpt lat="54.2769450000" lon="-2.2426050000"><ele>555</ele><time>2013-11-17T11:15:15Z</time></trkpt>
<trkpt lat="54.2769200000" lon="-2.2426160000"><ele>555</ele><time>2013-11-17T11:15:17Z</time></trkpt>
<trkpt lat="54.2768980000" lon="-2.2426230000"><ele>555</ele><time>2013-11-17T11:15:19Z</time></trkpt>
<trkpt lat="54.2768770000" lon="-2.2426210000"><ele>555</ele><time>2013-11-17T11:15:21Z</time></trkpt>
<trkpt lat="54.2768570000" lon="-2.2426200000"><ele>555</ele><time>2013-11-17T11:15:23Z</time></trkpt>
<trkpt lat="54.2768360000" lon="-2.2426240000"><ele>555</ele><time>2013-11-17T11:15:25Z</time></trkpt>
<trkpt lat="54.2768150000" lon="-2.2426330000"><ele>555</ele><time>2013-11-17T11:15:27Z</time></trkpt>
<trkpt lat="54.2767890000" lon="-2.2426600000"><ele>555</ele><time>2013-11-17T11:15:30Z</time></trkpt>
<trkpt lat="54.2767620000" lon="-2.2426880000"><ele>555</ele><time>2013-11-17T11:15:33Z</time></trkpt>
<trkpt lat="54.2767380000" lon="-2.2427020000"><ele>555</ele><time>2013-11-17T11:15:35Z</time></trkpt>
<trkpt lat="54.2767160000" lon="-2.2427130000"><ele>555</ele><time>2013-11-17T11:15:37Z</time></trkpt>
<trkpt lat="54.2766830000" lon="-2.2427250000"><ele>555</ele><time>2013-11-17T11:15:40Z</time></trkpt>
<trkpt lat="54.2766590000" lon="-2.2427410000"><ele>555</ele><time>2013-11-17T11:15:42Z</time></trkpt>
<trkpt lat="54.2766370000" lon="-2.2427600000"><ele>555</ele><time>2013-11-17T11:15:44Z</time></trkpt>
<trkpt lat="54.2766140000" lon="-2.2427760000"><ele>555</ele><time>2013-11-17T11:15:46Z</time></trkpt>
<trkpt lat="54.2765920000" lon="-2.2427880000"><ele>568</ele><time>2013-11-17T11:15:48Z</time></trkpt>
<trkpt lat="54.2765610000" lon="-2.2428060000"><ele>568</ele><time>2013-11-17T11:15:51Z</time></trkpt>
<trkpt lat="54.2765300000" lon="-2.2428250000"><ele>568</ele><time>2013-11-17T11:15:54Z</time></trkpt>
<trkpt lat="54.2765050000" lon="-2.2428340000"><ele>568</ele><time>2013-11-17T11:15:56Z</time></trkpt>
<trkpt lat="54.2764790000" lon="-2.2428430000"><ele>568</ele><time>2013-11-17T11:15:58Z</time></trkpt>
<trkpt lat="54.2764540000" lon="-2.2428510000"><ele>568</ele><time>2013-11-17T11:16:00Z</time></trkpt>
<trkpt lat="54.2764220000" lon="-2.2428620000"><ele>568</ele><time>2013-11-17T11:16:03Z</time></trkpt>
<trkpt lat="54.2763900000" lon="-2.2428740000"><ele>568</ele><time>2013-11-17T11:16:06Z</time></trkpt>
<trkpt lat="54.2763670000" lon="-2.2428820000"><ele>568</ele><time>2013-11-17T11:16:08Z</time></trkpt>
<trkpt lat="54.2763340000" lon="-2.2428950000"><ele>568</ele><time>2013-11-17T11:16:11Z</time></trkpt>
<trkpt lat="54.2763080000" lon="-2.2429050000"><ele>568</ele><time>2013-11-17T11:16:13Z</time></trkpt>
<trkpt lat="54.2762800000" lon="-2.2429170000"><ele>568</ele><time>2013-11-17T11:16:15Z</time></trkpt>
<trkpt lat="54.2762580000" lon="-2.2429320000"><ele>568</ele><time>2013-11-17T11:16:17Z</time></trkpt>
<trkpt lat="54.2762320000" lon="-2.2429490000"><ele>568</ele><time>2013-11-17T11:16:19Z</time></trkpt>
<trkpt lat="54.2762070000" lon="-2.2429680000"><ele>568</ele><time>2013-11-17T11:16:21Z</time></trkpt>
<trkpt lat="54.2761820000" lon="-2.2429850000"><ele>568</ele><time>2013-11-17T11:16:23Z</time></trkpt>
<trkpt lat="54.2761580000" lon="-2.2430070000"><ele>568</ele><time>2013-11-17T11:16:25Z</time></trkpt>
<trkpt lat="54.2761350000" lon="-2.2430240000"><ele>568</ele><time>2013-11-17T11:16:27Z</time></trkpt>
<trkpt lat="54.2761120000" lon="-2.2430350000"><ele>568</ele><time>2013-11-17T11:16:29Z</time></trkpt>
<trkpt lat="54.2760900000" lon="-2.2430470000"><ele>568</ele><time>2013-11-17T11:16:31Z</time></trkpt>
<trkpt lat="54.2760640000" lon="-2.2430580000"><ele>568</ele><time>2013-11-17T11:16:33Z</time></trkpt>
<trkpt lat="54.2760380000" lon="-2.2430710000"><ele>568</ele><time>2013-11-17T11:16:35Z</time></trkpt>
<trkpt lat="54.2760150000" lon="-2.2430830000"><ele>568</ele><time>2013-11-17T11:16:37Z</time></trkpt>
<trkpt lat="54.2759930000" lon="-2.2430980000"><ele>568</ele><time>2013-11-17T11:16:39Z</time></trkpt>
<trkpt lat="54.2759660000" lon="-2.2431120000"><ele>568</ele><time>2013-11-17T11:16:41Z</time></trkpt>
<trkpt lat="54.2759410000" lon="-2.2431280000"><ele>568</ele><time>2013-11-17T11:16:43Z</time></trkpt>
<trkpt lat="54.2759150000" lon="-2.2431430000"><ele>568</ele><time>2013-11-17T11:16:45Z</time></trkpt>
<trkpt lat="54.2758880000" lon="-2.2431560000"><ele>568</ele><time>2013-11-17T11:16:47Z</time></trkpt>
<trkpt lat="54.2758610000" lon="-2.2431730000"><ele>568</ele><time>2013-11-17T11:16:49Z</time></trkpt>
<trkpt lat="54.2758350000" lon="-2.2431880000"><ele>568</ele><time>2013-11-17T11:16:51Z</time></trkpt>
<trkpt lat="54.2758040000" lon="-2.2432070000"><ele>568</ele><time>2013-11-17T11:16:53Z</time></trkpt>
<trkpt lat="54.2757790000" lon="-2.2432230000"><ele>568</ele><time>2013-11-17T11:16:55Z</time></trkpt>
<trkpt lat="54.2757520000" lon="-2.2432370000"><ele>568</ele><time>2013-11-17T11:16:57Z</time></trkpt>
<trkpt lat="54.2757270000" lon="-2.2432500000"><ele>568</ele><time>2013-11-17T11:16:59Z</time></trkpt>
<trkpt lat="54.2757010000" lon="-2.2432670000"><ele>568</ele><time>2013-11-17T11:17:01Z</time></trkpt>
<trkpt lat="54.2756760000" lon="-2.2432840000"><ele>568</ele><time>2013-11-17T11:17:03Z</time></trkpt>
<trkpt lat="54.2756510000" lon="-2.2432980000"><ele>568</ele><time>2013-11-17T11:17:05Z</time></trkpt>
<trkpt lat="54.2756270000" lon="-2.2433110000"><ele>568</ele><time>2013-11-17T11:17:07Z</time></trkpt>
<trkpt lat="54.2756050000" lon="-2.2433250000"><ele>568</ele><time>2013-11-17T11:17:09Z</time></trkpt>
<trkpt lat="54.2755780000" lon="-2.2433410000"><ele>568</ele><time>2013-11-17T11:17:11Z</time></trkpt>
<trkpt lat="54.2755480000" lon="-2.2433580000"><ele>568</ele><time>2013-11-17T11:17:13Z</time></trkpt>
<trkpt lat="54.2755240000" lon="-2.2433730000"><ele>568</ele><time>2013-11-17T11:17:15Z</time></trkpt>
<trkpt lat="54.2755020000" lon="-2.2433870000"><ele>568</ele><time>2013-11-17T11:17:17Z</time></trkpt>
<trkpt lat="54.2754820000" lon="-2.2434020000"><ele>568</ele><time>2013-11-17T11:17:19Z</time></trkpt>
<trkpt lat="54.2754580000" lon="-2.2434150000"><ele>568</ele><time>2013-11-17T11:17:21Z</time></trkpt>
<trkpt lat="54.2754320000" lon="-2.2434300000"><ele>568</ele><time>2013-11-17T11:17:23Z</time></trkpt>
<trkpt lat="54.2754050000" lon="-2.2434450000"><ele>568</ele><time>2013-11-17T11:17:25Z</time></trkpt>
<trkpt lat="54.2753780000" lon="-2.2434590000"><ele>568</ele><time>2013-11-17T11:17:27Z</time></trkpt>
<trkpt lat="54.2753550000" lon="-2.2434710000"><ele>568</ele><time>2013-11-17T11:17:29Z</time></trkpt>
<trkpt lat="54.2753330000" lon="-2.2434880000"><ele>568</ele><time>2013-11-17T11:17:31Z</time></trkpt>
<trkpt lat="54.2753120000" lon="-2.2435030000"><ele>568</ele><time>2013-11-17T11:17:33Z</time></trkpt>
<trkpt lat="54.2752930000" lon="-2.2435210000"><ele>568</ele><time>2013-11-17T11:17:35Z</time></trkpt>
<trkpt lat="54.2752700000" lon="-2.2435380000"><ele>568</ele><time>2013-11-17T11:17:37Z</time></trkpt>
<trkpt lat="54.2752500000" lon="-2.2435490000"><ele>568</ele><time>2013-11-17T11:17:39Z</time></trkpt>
<trkpt lat="54.2752210000" lon="-2.2435720000"><ele>568</ele><time>2013-11-17T11:17:42Z</time></trkpt>
<trkpt lat="54.2751970000" lon="-2.2435840000"><ele>568</ele><time>2013-11-17T11:17:44Z</time></trkpt>
<trkpt lat="54.2751730000" lon="-2.2435960000"><ele>568</ele><time>2013-11-17T11:17:46Z</time></trkpt>
<trkpt lat="54.2751510000" lon="-2.2436060000"><ele>568</ele><time>2013-11-17T11:17:48Z</time></trkpt>
<trkpt lat="54.2751280000" lon="-2.2436190000"><ele>568</ele><time>2013-11-17T11:17:50Z</time></trkpt>
<trkpt lat="54.2751030000" lon="-2.2436300000"><ele>568</ele><time>2013-11-17T11:17:52Z</time></trkpt>
<trkpt lat="54.2750770000" lon="-2.2436460000"><ele>568</ele><time>2013-11-17T11:17:54Z</time></trkpt>
<trkpt lat="54.2750510000" lon="-2.2436630000"><ele>568</ele><time>2013-11-17T11:17:56Z</time></trkpt>
<trkpt lat="54.2750260000" lon="-2.2436770000"><ele>568</ele><time>2013-11-17T11:17:58Z</time></trkpt>
<trkpt lat="54.2750050000" lon="-2.2436950000"><ele>568</ele><time>2013-11-17T11:18:00Z</time></trkpt>
<trkpt lat="54.2749850000" lon="-2.2437100000"><ele>568</ele><time>2013-11-17T11:18:02Z</time></trkpt>
<trkpt lat="54.2749600000" lon="-2.2437240000"><ele>568</ele><time>2013-11-17T11:18:04Z</time></trkpt>
<trkpt lat="54.2749370000" lon="-2.2437360000"><ele>568</ele><time>2013-11-17T11:18:06Z</time></trkpt>
<trkpt lat="54.2749150000" lon="-2.2437490000"><ele>568</ele><time>2013-11-17T11:18:08Z</time></trkpt>
<trkpt lat="54.2748890000" lon="-2.2437630000"><ele>568</ele><time>2013-11-17T11:18:10Z</time></trkpt>
<trkpt lat="54.2748630000" lon="-2.2437740000"><ele>568</ele><time>2013-11-17T11:18:12Z</time></trkpt>
<trkpt lat="54.2748370000" lon="-2.2437880000"><ele>568</ele><time>2013-11-17T11:18:14Z</time></trkpt>
<trkpt lat="54.2748110000" lon="-2.2437990000"><ele>568</ele><time>2013-11-17T11:18:16Z</time></trkpt>
<trkpt lat="54.2747850000" lon="-2.2438090000"><ele>576</ele><time>2013-11-17T11:18:18Z</time></trkpt>
<trkpt lat="54.2747600000" lon="-2.2438260000"><ele>576</ele><time>2013-11-17T11:18:20Z</time></trkpt>
<trkpt lat="54.2747360000" lon="-2.2438420000"><ele>576</ele><time>2013-11-17T11:18:22Z</time></trkpt>
<trkpt lat="54.2747120000" lon="-2.2438600000"><ele>576</ele><time>2013-11-17T11:18:24Z</time></trkpt>
<trkpt lat="54.2746890000" lon="-2.2438720000"><ele>576</ele><time>2013-11-17T11:18:26Z</time></trkpt>
<trkpt lat="54.2746680000" lon="-2.2438850000"><ele>576</ele><time>2013-11-17T11:18:28Z</time></trkpt>
<trkpt lat="54.2746470000" lon="-2.2438990000"><ele>576</ele><time>2013-11-17T11:18:30Z</time></trkpt>
<trkpt lat="54.2746240000" lon="-2.2439110000"><ele>576</ele><time>2013-11-17T11:18:32Z</time></trkpt>
<trkpt lat="54.2746000000" lon="-2.2439210000"><ele>576</ele><time>2013-11-17T11:18:34Z</time></trkpt>
<trkpt lat="54.2745780000" lon="-2.2439340000"><ele>576</ele><time>2013-11-17T11:18:36Z</time></trkpt>
<trkpt lat="54.2745500000" lon="-2.2439480000"><ele>576</ele><time>2013-11-17T11:18:38Z</time></trkpt>
<trkpt lat="54.2745390000" lon="-2.2439530000"><ele>576</ele><time>2013-11-17T11:18:39Z</time></trkpt>
<trkpt lat="54.2745260000" lon="-2.2439580000"><ele>576</ele><time>2013-11-17T11:18:40Z</time></trkpt>
<trkpt lat="54.2745130000" lon="-2.2439660000"><ele>576</ele><time>2013-11-17T11:18:41Z</time></trkpt>
<trkpt lat="54.2745030000" lon="-2.2439740000"><ele>576</ele><time>2013-11-17T11:18:42Z</time></trkpt>
<trkpt lat="54.2744940000" lon="-2.2439830000"><ele>576</ele><time>2013-11-17T11:18:43Z</time></trkpt>
<trkpt lat="54.2744880000" lon="-2.2439870000"><ele>576</ele><time>2013-11-17T11:18:44Z</time></trkpt>
<trkpt lat="54.2744800000" lon="-2.2439900000"><ele>576</ele><time>2013-11-17T11:18:45Z</time></trkpt>
<trkpt lat="54.2744660000" lon="-2.2439950000"><ele>576</ele><time>2013-11-17T11:18:46Z</time></trkpt>
<trkpt lat="54.2744530000" lon="-2.2440010000"><ele>576</ele><time>2013-11-17T11:18:47Z</time></trkpt>
<trkpt lat="54.2744420000" lon="-2.2440060000"><ele>576</ele><time>2013-11-17T11:18:48Z</time></trkpt>
<trkpt lat="54.2744150000" lon="-2.2440210000"><ele>576</ele><time>2013-11-17T11:18:50Z</time></trkpt>
<trkpt lat="54.2743980000" lon="-2.2440310000"><ele>576</ele><time>2013-11-17T11:18:51Z</time></trkpt>
<trkpt lat="54.2743860000" lon="-2.2440400000"><ele>576</ele><time>2013-11-17T11:18:52Z</time></trkpt>
<trkpt lat="54.2743740000" lon="-2.2440500000"><ele>576</ele><time>2013-11-17T11:18:53Z</time></trkpt>
<trkpt lat="54.2743590000" lon="-2.2440600000"><ele>576</ele><time>2013-11-17T11:18:54Z</time></trkpt>
<trkpt lat="54.2743440000" lon="-2.2440710000"><ele>576</ele><time>2013-11-17T11:18:55Z</time></trkpt>
<trkpt lat="54.2743310000" lon="-2.2440810000"><ele>576</ele><time>2013-11-17T11:18:56Z</time></trkpt>
<trkpt lat="54.2743180000" lon="-2.2440910000"><ele>576</ele><time>2013-11-17T11:18:57Z</time></trkpt>
<trkpt lat="54.2743070000" lon="-2.2441000000"><ele>576</ele><time>2013-11-17T11:18:58Z</time></trkpt>
<trkpt lat="54.2742970000" lon="-2.2441070000"><ele>576</ele><time>2013-11-17T11:18:59Z</time></trkpt>
<trkpt lat="54.2742860000" lon="-2.2441110000"><ele>576</ele><time>2013-11-17T11:19:00Z</time></trkpt>
<trkpt lat="54.2742740000" lon="-2.2441160000"><ele>576</ele><time>2013-11-17T11:19:01Z</time></trkpt>
<trkpt lat="54.2742620000" lon="-2.2441220000"><ele>576</ele><time>2013-11-17T11:19:02Z</time></trkpt>
<trkpt lat="54.2742490000" lon="-2.2441290000"><ele>576</ele><time>2013-11-17T11:19:03Z</time></trkpt>
<trkpt lat="54.2742360000" lon="-2.2441410000"><ele>536</ele><time>2013-11-17T11:19:04Z</time></trkpt>
<trkpt lat="54.2742230000" lon="-2.2441500000"><ele>536</ele><time>2013-11-17T11:19:05Z</time></trkpt>
<trkpt lat="54.2742100000" lon="-2.2441570000"><ele>536</ele><time>2013-11-17T11:19:06Z</time></trkpt>
<trkpt lat="54.2741990000" lon="-2.2441640000"><ele>536</ele><time>2013-11-17T11:19:07Z</time></trkpt>
<trkpt lat="54.2741880000" lon="-2.2441710000"><ele>536</ele><time>2013-11-17T11:19:08Z</time></trkpt>
<trkpt lat="54.2741770000" lon="-2.2441790000"><ele>536</ele><time>2013-11-17T11:19:09Z</time></trkpt>
<trkpt lat="54.2741670000" lon="-2.2441870000"><ele>536</ele><time>2013-11-17T11:19:10Z</time></trkpt>
<trkpt lat="54.2741570000" lon="-2.2441970000"><ele>536</ele><time>2013-11-17T11:19:11Z</time></trkpt>
<trkpt lat="54.2741470000" lon="-2.2442050000"><ele>536</ele><time>2013-11-17T11:19:12Z</time></trkpt>
<trkpt lat="54.2741370000" lon="-2.2442150000"><ele>536</ele><time>2013-11-17T11:19:13Z</time></trkpt>
<trkpt lat="54.2741260000" lon="-2.2442240000"><ele>536</ele><time>2013-11-17T11:19:14Z</time></trkpt>
<trkpt lat="54.2741160000" lon="-2.2442350000"><ele>536</ele><time>2013-11-17T11:19:15Z</time></trkpt>
<trkpt lat="54.2741090000" lon="-2.2442430000"><ele>536</ele><time>2013-11-17T11:19:16Z</time></trkpt>
<trkpt lat="54.2741020000" lon="-2.2442470000"><ele>536</ele><time>2013-11-17T11:19:17Z</time></trkpt>
<trkpt lat="54.2740940000" lon="-2.2442510000"><ele>536</ele><time>2013-11-17T11:19:18Z</time></trkpt>
<trkpt lat="54.2740840000" lon="-2.2442620000"><ele>536</ele><time>2013-11-17T11:19:19Z</time></trkpt>
<trkpt lat="54.2740750000" lon="-2.2442740000"><ele>536</ele><time>2013-11-17T11:19:20Z</time></trkpt>
<trkpt lat="54.2740650000" lon="-2.2442860000"><ele>536</ele><time>2013-11-17T11:19:21Z</time></trkpt>
<trkpt lat="54.2740530000" lon="-2.2443010000"><ele>536</ele><time>2013-11-17T11:19:22Z</time></trkpt>
<trkpt lat="54.2740420000" lon="-2.2443150000"><ele>536</ele><time>2013-11-17T11:19:23Z</time></trkpt>
<trkpt lat="54.2740300000" lon="-2.2443270000"><ele>536</ele><time>2013-11-17T11:19:24Z</time></trkpt>
<trkpt lat="54.2740180000" lon="-2.2443390000"><ele>536</ele><time>2013-11-17T11:19:25Z</time></trkpt>
<trkpt lat="54.2740080000" lon="-2.2443500000"><ele>536</ele><time>2013-11-17T11:19:26Z</time></trkpt>
<trkpt lat="54.2739970000" lon="-2.2443610000"><ele>536</ele><time>2013-11-17T11:19:27Z</time></trkpt>
<trkpt lat="54.2739860000" lon="-2.2443740000"><ele>536</ele><time>2013-11-17T11:19:28Z</time></trkpt>
<trkpt lat="54.2739760000" lon="-2.2443890000"><ele>536</ele><time>2013-11-17T11:19:29Z</time></trkpt>
<trkpt lat="54.2739660000" lon="-2.2444030000"><ele>536</ele><time>2013-11-17T11:19:30Z</time></trkpt>
<trkpt lat="54.2739560000" lon="-2.2444180000"><ele>536</ele><time>2013-11-17T11:19:31Z</time></trkpt>
<trkpt lat="54.2739450000" lon="-2.2444340000"><ele>536</ele><time>2013-11-17T11:19:32Z</time></trkpt>
<trkpt lat="54.2739340000" lon="-2.2444460000"><ele>536</ele><time>2013-11-17T11:19:33Z</time></trkpt>
<trkpt lat="54.2739220000" lon="-2.2444580000"><ele>536</ele><time>2013-11-17T11:19:34Z</time></trkpt>
<trkpt lat="54.2739120000" lon="-2.2444680000"><ele>536</ele><time>2013-11-17T11:19:35Z</time></trkpt>
<trkpt lat="54.2739020000" lon="-2.2444780000"><ele>536</ele><time>2013-11-17T11:19:36Z</time></trkpt>
<trkpt lat="54.2738890000" lon="-2.2444890000"><ele>536</ele><time>2013-11-17T11:19:37Z</time></trkpt>
<trkpt lat="54.2738800000" lon="-2.2444990000"><ele>536</ele><time>2013-11-17T11:19:38Z</time></trkpt>
<trkpt lat="54.2738690000" lon="-2.2445090000"><ele>536</ele><time>2013-11-17T11:19:39Z</time></trkpt>
<trkpt lat="54.2738580000" lon="-2.2445210000"><ele>536</ele><time>2013-11-17T11:19:40Z</time></trkpt>
<trkpt lat="54.2738480000" lon="-2.2445330000"><ele>536</ele><time>2013-11-17T11:19:41Z</time></trkpt>
<trkpt lat="54.2738400000" lon="-2.2445430000"><ele>536</ele><time>2013-11-17T11:19:42Z</time></trkpt>
<trkpt lat="54.2738320000" lon="-2.2445530000"><ele>536</ele><time>2013-11-17T11:19:43Z</time></trkpt>
<trkpt lat="54.2738240000" lon="-2.2445630000"><ele>536</ele><time>2013-11-17T11:19:44Z</time></trkpt>
<trkpt lat="54.2738150000" lon="-2.2445700000"><ele>536</ele><time>2013-11-17T11:19:45Z</time></trkpt>
<trkpt lat="54.2738060000" lon="-2.2445780000"><ele>536</ele><time>2013-11-17T11:19:46Z</time></trkpt>
<trkpt lat="54.2737950000" lon="-2.2445870000"><ele>536</ele><time>2013-11-17T11:19:47Z</time></trkpt>
<trkpt lat="54.2737840000" lon="-2.2445940000"><ele>536</ele><time>2013-11-17T11:19:48Z</time></trkpt>
<trkpt lat="54.2737740000" lon="-2.2446010000"><ele>536</ele><time>2013-11-17T11:19:49Z</time></trkpt>
<trkpt lat="54.2737660000" lon="-2.2446060000"><ele>536</ele><time>2013-11-17T11:19:50Z</time></trkpt>
<trkpt lat="54.2737570000" lon="-2.2446120000"><ele>536</ele><time>2013-11-17T11:19:51Z</time></trkpt>
<trkpt lat="54.2737440000" lon="-2.2446220000"><ele>536</ele><time>2013-11-17T11:19:52Z</time></trkpt>
<trkpt lat="54.2737310000" lon="-2.2446330000"><ele>536</ele><time>2013-11-17T11:19:53Z</time></trkpt>
<trkpt lat="54.2737200000" lon="-2.2446430000"><ele>536</ele><time>2013-11-17T11:19:54Z</time></trkpt>
<trkpt lat="54.2737080000" lon="-2.2446530000"><ele>536</ele><time>2013-11-17T11:19:55Z</time></trkpt>
<trkpt lat="54.2736960000" lon="-2.2446590000"><ele>536</ele><time>2013-11-17T11:19:56Z</time></trkpt>
<trkpt lat="54.2736850000" lon="-2.2446660000"><ele>536</ele><time>2013-11-17T11:19:57Z</time></trkpt>
<trkpt lat="54.2736760000" lon="-2.2446730000"><ele>536</ele><time>2013-11-17T11:19:58Z</time></trkpt>
<trkpt lat="54.2736660000" lon="-2.2446790000"><ele>536</ele><time>2013-11-17T11:19:59Z</time></trkpt>
<trkpt lat="54.2736550000" lon="-2.2446840000"><ele>536</ele><time>2013-11-17T11:20:00Z</time></trkpt>
<trkpt lat="54.2736440000" lon="-2.2446880000"><ele>536</ele><time>2013-11-17T11:20:01Z</time></trkpt>
<trkpt lat="54.2736310000" lon="-2.2446910000"><ele>536</ele><time>2013-11-17T11:20:02Z</time></trkpt>
<trkpt lat="54.2736180000" lon="-2.2446970000"><ele>536</ele><time>2013-11-17T11:20:03Z</time></trkpt>
<trkpt lat="54.2736040000" lon="-2.2447030000"><ele>536</ele><time>2013-11-17T11:20:04Z</time></trkpt>
<trkpt lat="54.2735920000" lon="-2.2447090000"><ele>536</ele><time>2013-11-17T11:20:05Z</time></trkpt>
<trkpt lat="54.2735800000" lon="-2.2447160000"><ele>536</ele><time>2013-11-17T11:20:06Z</time></trkpt>
<trkpt lat="54.2735690000" lon="-2.2447250000"><ele>536</ele><time>2013-11-17T11:20:07Z</time></trkpt>
<trkpt lat="54.2735590000" lon="-2.2447310000"><ele>536</ele><time>2013-11-17T11:20:08Z</time></trkpt>
<trkpt lat="54.2735480000" lon="-2.2447360000"><ele>536</ele><time>2013-11-17T11:20:09Z</time></trkpt>
<trkpt lat="54.2735370000" lon="-2.2447420000"><ele>536</ele><time>2013-11-17T11:20:10Z</time></trkpt>
<trkpt lat="54.2735260000" lon="-2.2447480000"><ele>536</ele><time>2013-11-17T11:20:11Z</time></trkpt>
<trkpt lat="54.2735150000" lon="-2.2447550000"><ele>536</ele><time>2013-11-17T11:20:12Z</time></trkpt>
<trkpt lat="54.2735050000" lon="-2.2447620000"><ele>536</ele><time>2013-11-17T11:20:13Z</time></trkpt>
<trkpt lat="54.2734970000" lon="-2.2447660000"><ele>536</ele><time>2013-11-17T11:20:14Z</time></trkpt>
<trkpt lat="54.2734880000" lon="-2.2447700000"><ele>536</ele><time>2013-11-17T11:20:15Z</time></trkpt>
<trkpt lat="54.2734770000" lon="-2.2447750000"><ele>536</ele><time>2013-11-17T11:20:16Z</time></trkpt>
<trkpt lat="54.2734660000" lon="-2.2447810000"><ele>536</ele><time>2013-11-17T11:20:17Z</time></trkpt>
<trkpt lat="54.2734520000" lon="-2.2447850000"><ele>536</ele><time>2013-11-17T11:20:18Z</time></trkpt>
<trkpt lat="54.2734380000" lon="-2.2447880000"><ele>536</ele><time>2013-11-17T11:20:19Z</time></trkpt>
<trkpt lat="54.2734240000" lon="-2.2447940000"><ele>536</ele><time>2013-11-17T11:20:20Z</time></trkpt>
<trkpt lat="54.2734100000" lon="-2.2447990000"><ele>536</ele><time>2013-11-17T11:20:21Z</time></trkpt>
<trkpt lat="54.2733960000" lon="-2.2448030000"><ele>536</ele><time>2013-11-17T11:20:22Z</time></trkpt>
<trkpt lat="54.2733820000" lon="-2.2448090000"><ele>536</ele><time>2013-11-17T11:20:23Z</time></trkpt>
<trkpt lat="54.2733680000" lon="-2.2448120000"><ele>536</ele><time>2013-11-17T11:20:24Z</time></trkpt>
<trkpt lat="54.2733540000" lon="-2.2448140000"><ele>536</ele><time>2013-11-17T11:20:25Z</time></trkpt>
<trkpt lat="54.2733410000" lon="-2.2448190000"><ele>536</ele><time>2013-11-17T11:20:26Z</time></trkpt>
<trkpt lat="54.2733280000" lon="-2.2448230000"><ele>536</ele><time>2013-11-17T11:20:27Z</time></trkpt>
<trkpt lat="54.2733170000" lon="-2.2448270000"><ele>536</ele><time>2013-11-17T11:20:28Z</time></trkpt>
<trkpt lat="54.2733070000" lon="-2.2448330000"><ele>536</ele><time>2013-11-17T11:20:29Z</time></trkpt>
<trkpt lat="54.2732970000" lon="-2.2448410000"><ele>536</ele><time>2013-11-17T11:20:30Z</time></trkpt>
<trkpt lat="54.2732860000" lon="-2.2448460000"><ele>536</ele><time>2013-11-17T11:20:31Z</time></trkpt>
<trkpt lat="54.2732740000" lon="-2.2448510000"><ele>536</ele><time>2013-11-17T11:20:32Z</time></trkpt>
<trkpt lat="54.2732610000" lon="-2.2448570000"><ele>536</ele><time>2013-11-17T11:20:33Z</time></trkpt>
<trkpt lat="54.2732480000" lon="-2.2448600000"><ele>536</ele><time>2013-11-17T11:20:34Z</time></trkpt>
<trkpt lat="54.2732360000" lon="-2.2448650000"><ele>536</ele><time>2013-11-17T11:20:35Z</time></trkpt>
<trkpt lat="54.2732220000" lon="-2.2448700000"><ele>536</ele><time>2013-11-17T11:20:36Z</time></trkpt>
<trkpt lat="54.2732080000" lon="-2.2448760000"><ele>536</ele><time>2013-11-17T11:20:37Z</time></trkpt>
<trkpt lat="54.2731940000" lon="-2.2448810000"><ele>536</ele><time>2013-11-17T11:20:38Z</time></trkpt>
<trkpt lat="54.2731800000" lon="-2.2448860000"><ele>536</ele><time>2013-11-17T11:20:39Z</time></trkpt>
<trkpt lat="54.2731660000" lon="-2.2448890000"><ele>536</ele><time>2013-11-17T11:20:40Z</time></trkpt>
<trkpt lat="54.2731510000" lon="-2.2448930000"><ele>536</ele><time>2013-11-17T11:20:41Z</time></trkpt>
<trkpt lat="54.2731360000" lon="-2.2448970000"><ele>536</ele><time>2013-11-17T11:20:42Z</time></trkpt>
<trkpt lat="54.2731240000" lon="-2.2448990000"><ele>536</ele><time>2013-11-17T11:20:43Z</time></trkpt>
<trkpt lat="54.2731120000" lon="-2.2449030000"><ele>536</ele><time>2013-11-17T11:20:44Z</time></trkpt>
<trkpt lat="54.2731010000" lon="-2.2449090000"><ele>536</ele><time>2013-11-17T11:20:45Z</time></trkpt>
<trkpt lat="54.2730890000" lon="-2.2449130000"><ele>536</ele><time>2013-11-17T11:20:46Z</time></trkpt>
<trkpt lat="54.2730780000" lon="-2.2449160000"><ele>536</ele><time>2013-11-17T11:20:47Z</time></trkpt>
<trkpt lat="54.2730670000" lon="-2.2449180000"><ele>536</ele><time>2013-11-17T11:20:48Z</time></trkpt>
<trkpt lat="54.2730540000" lon="-2.2449180000"><ele>536</ele><time>2013-11-17T11:20:49Z</time></trkpt>
<trkpt lat="54.2730400000" lon="-2.2449190000"><ele>536</ele><time>2013-11-17T11:20:50Z</time></trkpt>
<trkpt lat="54.2730240000" lon="-2.2449210000"><ele>536</ele><time>2013-11-17T11:20:51Z</time></trkpt>
<trkpt lat="54.2730120000" lon="-2.2449220000"><ele>536</ele><time>2013-11-17T11:20:52Z</time></trkpt>
<trkpt lat="54.2729980000" lon="-2.2449240000"><ele>536</ele><time>2013-11-17T11:20:53Z</time></trkpt>
<trkpt lat="54.2729790000" lon="-2.2449330000"><ele>557</ele><time>2013-11-17T11:20:55Z</time></trkpt>
<trkpt lat="54.2729510000" lon="-2.2449460000"><ele>557</ele><time>2013-11-17T11:20:57Z</time></trkpt>
<trkpt lat="54.2729280000" lon="-2.2449530000"><ele>557</ele><time>2013-11-17T11:20:59Z</time></trkpt>
<trkpt lat="54.2729050000" lon="-2.2449550000"><ele>557</ele><time>2013-11-17T11:21:01Z</time></trkpt>
<trkpt lat="54.2728820000" lon="-2.2449540000"><ele>557</ele><time>2013-11-17T11:21:03Z</time></trkpt>
<trkpt lat="54.2728560000" lon="-2.2449570000"><ele>557</ele><time>2013-11-17T11:21:05Z</time></trkpt>
<trkpt lat="54.2728310000" lon="-2.2449610000"><ele>557</ele><time>2013-11-17T11:21:07Z</time></trkpt>
<trkpt lat="54.2728050000" lon="-2.2449690000"><ele>557</ele><time>2013-11-17T11:21:09Z</time></trkpt>
<trkpt lat="54.2727840000" lon="-2.2449810000"><ele>557</ele><time>2013-11-17T11:21:11Z</time></trkpt>
<trkpt lat="54.2727640000" lon="-2.2449990000"><ele>557</ele><time>2013-11-17T11:21:13Z</time></trkpt>
<trkpt lat="54.2727430000" lon="-2.2450110000"><ele>557</ele><time>2013-11-17T11:21:15Z</time></trkpt>
<trkpt lat="54.2727210000" lon="-2.2450210000"><ele>557</ele><time>2013-11-17T11:21:17Z</time></trkpt>
<trkpt lat="54.2726970000" lon="-2.2450310000"><ele>557</ele><time>2013-11-17T11:21:19Z</time></trkpt>
<trkpt lat="54.2726720000" lon="-2.2450420000"><ele>557</ele><time>2013-11-17T11:21:21Z</time></trkpt>
<trkpt lat="54.2726490000" lon="-2.2450480000"><ele>557</ele><time>2013-11-17T11:21:23Z</time></trkpt>
<trkpt lat="54.2726210000" lon="-2.2450560000"><ele>557</ele><time>2013-11-17T11:21:25Z</time></trkpt>
<trkpt lat="54.2725930000" lon="-2.2450680000"><ele>557</ele><time>2013-11-17T11:21:27Z</time></trkpt>
<trkpt lat="54.2725640000" lon="-2.2450930000"><ele>557</ele><time>2013-11-17T11:21:29Z</time></trkpt>
<trkpt lat="54.2725330000" lon="-2.2451170000"><ele>557</ele><time>2013-11-17T11:21:31Z</time></trkpt>
<trkpt lat="54.2725040000" lon="-2.2451300000"><ele>557</ele><time>2013-11-17T11:21:33Z</time></trkpt>
<trkpt lat="54.2724790000" lon="-2.2451410000"><ele>557</ele><time>2013-11-17T11:21:35Z</time></trkpt>
<trkpt lat="54.2724500000" lon="-2.2451580000"><ele>557</ele><time>2013-11-17T11:21:37Z</time></trkpt>
<trkpt lat="54.2724230000" lon="-2.2451740000"><ele>557</ele><time>2013-11-17T11:21:39Z</time></trkpt>
<trkpt lat="54.2724030000" lon="-2.2451850000"><ele>557</ele><time>2013-11-17T11:21:41Z</time></trkpt>
<trkpt lat="54.2723830000" lon="-2.2452010000"><ele>557</ele><time>2013-11-17T11:21:43Z</time></trkpt>
<trkpt lat="54.2723610000" lon="-2.2452150000"><ele>557</ele><time>2013-11-17T11:21:45Z</time></trkpt>
<trkpt lat="54.2723380000" lon="-2.2452220000"><ele>557</ele><time>2013-11-17T11:21:47Z</time></trkpt>
<trkpt lat="54.2723150000" lon="-2.2452350000"><ele>557</ele><time>2013-11-17T11:21:49Z</time></trkpt>
<trkpt lat="54.2722850000" lon="-2.2452570000"><ele>557</ele><time>2013-11-17T11:21:52Z</time></trkpt>
<trkpt lat="54.2722510000" lon="-2.2452600000"><ele>557</ele><time>2013-11-17T11:21:55Z</time></trkpt>
<trkpt lat="54.2722260000" lon="-2.2452520000"><ele>557</ele><time>2013-11-17T11:21:57Z</time></trkpt>
<trkpt lat="54.2721540000" lon="-2.2452590000"><ele>557</ele><time>2013-11-17T11:22:16Z</time></trkpt>
<trkpt lat="54.2721210000" lon="-2.2452640000"><ele>557</ele><time>2013-11-17T11:22:20Z</time></trkpt>
<trkpt lat="54.2720760000" lon="-2.2452620000"><ele>557</ele><time>2013-11-17T11:22:25Z</time></trkpt>
<trkpt lat="54.2720520000" lon="-2.2452570000"><ele>557</ele><time>2013-11-17T11:22:27Z</time></trkpt>
<trkpt lat="54.2720240000" lon="-2.2452530000"><ele>557</ele><time>2013-11-17T11:22:29Z</time></trkpt>
<trkpt lat="54.2719910000" lon="-2.2452500000"><ele>557</ele><time>2013-11-17T11:22:31Z</time></trkpt>
<trkpt lat="54.2719580000" lon="-2.2452550000"><ele>557</ele><time>2013-11-17T11:22:33Z</time></trkpt>
<trkpt lat="54.2719240000" lon="-2.2452580000"><ele>557</ele><time>2013-11-17T11:22:35Z</time></trkpt>
<trkpt lat="54.2718940000" lon="-2.2452580000"><ele>557</ele><time>2013-11-17T11:22:37Z</time></trkpt>
<trkpt lat="54.2718670000" lon="-2.2452640000"><ele>557</ele><time>2013-11-17T11:22:39Z</time></trkpt>
<trkpt lat="54.2718400000" lon="-2.2452650000"><ele>557</ele><time>2013-11-17T11:22:41Z</time></trkpt>
<trkpt lat="54.2718150000" lon="-2.2452660000"><ele>557</ele><time>2013-11-17T11:22:43Z</time></trkpt>
<trkpt lat="54.2717920000" lon="-2.2452640000"><ele>557</ele><time>2013-11-17T11:22:45Z</time></trkpt>
<trkpt lat="54.2717660000" lon="-2.2452630000"><ele>557</ele><time>2013-11-17T11:22:47Z</time></trkpt>
<trkpt lat="54.2717350000" lon="-2.2452670000"><ele>557</ele><time>2013-11-17T11:22:49Z</time></trkpt>
<trkpt lat="54.2717100000" lon="-2.2452720000"><ele>557</ele><time>2013-11-17T11:22:51Z</time></trkpt>
<trkpt lat="54.2716830000" lon="-2.2452710000"><ele>557</ele><time>2013-11-17T11:22:53Z</time></trkpt>
<trkpt lat="54.2716530000" lon="-2.2452620000"><ele>557</ele><time>2013-11-17T11:22:55Z</time></trkpt>
<trkpt lat="54.2716260000" lon="-2.2452620000"><ele>557</ele><time>2013-11-17T11:22:57Z</time></trkpt>
<trkpt lat="54.2716010000" lon="-2.2452760000"><ele>557</ele><time>2013-11-17T11:22:59Z</time></trkpt>
<trkpt lat="54.2715750000" lon="-2.2452770000"><ele>557</ele><time>2013-11-17T11:23:01Z</time></trkpt>
<trkpt lat="54.2715470000" lon="-2.2452770000"><ele>557</ele><time>2013-11-17T11:23:03Z</time></trkpt>
<trkpt lat="54.2715240000" lon="-2.2452800000"><ele>557</ele><time>2013-11-17T11:23:05Z</time></trkpt>
<trkpt lat="54.2714980000" lon="-2.2452860000"><ele>557</ele><time>2013-11-17T11:23:07Z</time></trkpt>
<trkpt lat="54.2714710000" lon="-2.2452940000"><ele>557</ele><time>2013-11-17T11:23:09Z</time></trkpt>
<trkpt lat="54.2714450000" lon="-2.2453040000"><ele>557</ele><time>2013-11-17T11:23:11Z</time></trkpt>
<trkpt lat="54.2714170000" lon="-2.2453160000"><ele>557</ele><time>2013-11-17T11:23:13Z</time></trkpt>
<trkpt lat="54.2713850000" lon="-2.2453220000"><ele>557</ele><time>2013-11-17T11:23:15Z</time></trkpt>
<trkpt lat="54.2713580000" lon="-2.2453290000"><ele>557</ele><time>2013-11-17T11:23:17Z</time></trkpt>
<trkpt lat="54.2713330000" lon="-2.2453320000"><ele>557</ele><time>2013-11-17T11:23:19Z</time></trkpt>
<trkpt lat="54.2712910000" lon="-2.2453590000"><ele>557</ele><time>2013-11-17T11:23:28Z</time></trkpt>
<trkpt lat="54.2712620000" lon="-2.2453690000"><ele>557</ele><time>2013-11-17T11:23:31Z</time></trkpt>
<trkpt lat="54.2712340000" lon="-2.2453700000"><ele>557</ele><time>2013-11-17T11:23:33Z</time></trkpt>
<trkpt lat="54.2711880000" lon="-2.2453600000"><ele>568</ele><time>2013-11-17T11:23:38Z</time></trkpt>
<trkpt lat="54.2711520000" lon="-2.2453580000"><ele>568</ele><time>2013-11-17T11:23:41Z</time></trkpt>
<trkpt lat="54.2711280000" lon="-2.2453590000"><ele>568</ele><time>2013-11-17T11:23:43Z</time></trkpt>
<trkpt lat="54.2711010000" lon="-2.2453690000"><ele>568</ele><time>2013-11-17T11:23:45Z</time></trkpt>
<trkpt lat="54.2710690000" lon="-2.2453720000"><ele>568</ele><time>2013-11-17T11:23:47Z</time></trkpt>
<trkpt lat="54.2710390000" lon="-2.2453720000"><ele>568</ele><time>2013-11-17T11:23:49Z</time></trkpt>
<trkpt lat="54.2710080000" lon="-2.2453720000"><ele>568</ele><time>2013-11-17T11:23:51Z</time></trkpt>
<trkpt lat="54.2709720000" lon="-2.2453750000"><ele>568</ele><time>2013-11-17T11:23:53Z</time></trkpt>
<trkpt lat="54.2709590000" lon="-2.2453760000"><ele>568</ele><time>2013-11-17T11:23:54Z</time></trkpt>
<trkpt lat="54.2709460000" lon="-2.2453760000"><ele>568</ele><time>2013-11-17T11:23:55Z</time></trkpt>
<trkpt lat="54.2709300000" lon="-2.2453770000"><ele>568</ele><time>2013-11-17T11:23:56Z</time></trkpt>
<trkpt lat="54.2709140000" lon="-2.2453800000"><ele>568</ele><time>2013-11-17T11:23:57Z</time></trkpt>
<trkpt lat="54.2708990000" lon="-2.2453830000"><ele>568</ele><time>2013-11-17T11:23:58Z</time></trkpt>
<trkpt lat="54.2708830000" lon="-2.2453840000"><ele>568</ele><time>2013-11-17T11:23:59Z</time></trkpt>
<trkpt lat="54.2708670000" lon="-2.2453850000"><ele>568</ele><time>2013-11-17T11:24:00Z</time></trkpt>
<trkpt lat="54.2708520000" lon="-2.2453860000"><ele>568</ele><time>2013-11-17T11:24:01Z</time></trkpt>
<trkpt lat="54.2708370000" lon="-2.2453890000"><ele>568</ele><time>2013-11-17T11:24:02Z</time></trkpt>
<trkpt lat="54.2708220000" lon="-2.2453910000"><ele>568</ele><time>2013-11-17T11:24:03Z</time></trkpt>
<trkpt lat="54.2708070000" lon="-2.2453940000"><ele>568</ele><time>2013-11-17T11:24:04Z</time></trkpt>
<trkpt lat="54.2707920000" lon="-2.2453990000"><ele>568</ele><time>2013-11-17T11:24:05Z</time></trkpt>
<trkpt lat="54.2707760000" lon="-2.2454040000"><ele>568</ele><time>2013-11-17T11:24:06Z</time></trkpt>
<trkpt lat="54.2707610000" lon="-2.2454080000"><ele>568</ele><time>2013-11-17T11:24:07Z</time></trkpt>
<trkpt lat="54.2707450000" lon="-2.2454130000"><ele>568</ele><time>2013-11-17T11:24:08Z</time></trkpt>
<trkpt lat="54.2707290000" lon="-2.2454160000"><ele>568</ele><time>2013-11-17T11:24:09Z</time></trkpt>
<trkpt lat="54.2707150000" lon="-2.2454170000"><ele>568</ele><time>2013-11-17T11:24:10Z</time></trkpt>
<trkpt lat="54.2707020000" lon="-2.2454170000"><ele>568</ele><time>2013-11-17T11:24:11Z</time></trkpt>
<trkpt lat="54.2706890000" lon="-2.2454190000"><ele>568</ele><time>2013-11-17T11:24:12Z</time></trkpt>
<trkpt lat="54.2706780000" lon="-2.2454210000"><ele>568</ele><time>2013-11-17T11:24:13Z</time></trkpt>
<trkpt lat="54.2706650000" lon="-2.2454230000"><ele>568</ele><time>2013-11-17T11:24:14Z</time></trkpt>
<trkpt lat="54.2706560000" lon="-2.2454240000"><ele>568</ele><time>2013-11-17T11:24:15Z</time></trkpt>
<trkpt lat="54.2706470000" lon="-2.2454250000"><ele>568</ele><time>2013-11-17T11:24:16Z</time></trkpt>
<trkpt lat="54.2706390000" lon="-2.2454260000"><ele>568</ele><time>2013-11-17T11:24:17Z</time></trkpt>
<trkpt lat="54.2706290000" lon="-2.2454260000"><ele>568</ele><time>2013-11-17T11:24:18Z</time></trkpt>
<trkpt lat="54.2706180000" lon="-2.2454280000"><ele>568</ele><time>2013-11-17T11:24:19Z</time></trkpt>
<trkpt lat="54.2706050000" lon="-2.2454330000"><ele>568</ele><time>2013-11-17T11:24:20Z</time></trkpt>
<trkpt lat="54.2705930000" lon="-2.2454360000"><ele>568</ele><time>2013-11-17T11:24:21Z</time></trkpt>
<trkpt lat="54.2705790000" lon="-2.2454370000"><ele>568</ele><time>2013-11-17T11:24:22Z</time></trkpt>
<trkpt lat="54.2705660000" lon="-2.2454370000"><ele>568</ele><time>2013-11-17T11:24:23Z</time></trkpt>
<trkpt lat="54.2705530000" lon="-2.2454370000"><ele>568</ele><time>2013-11-17T11:24:24Z</time></trkpt>
<trkpt lat="54.2705390000" lon="-2.2454370000"><ele>568</ele><time>2013-11-17T11:24:25Z</time></trkpt>
<trkpt lat="54.2705250000" lon="-2.2454360000"><ele>568</ele><time>2013-11-17T11:24:26Z</time></trkpt>
<trkpt lat="54.2705110000" lon="-2.2454350000"><ele>568</ele><time>2013-11-17T11:24:27Z</time></trkpt>
<trkpt lat="54.2704960000" lon="-2.2454350000"><ele>568</ele><time>2013-11-17T11:24:28Z</time></trkpt>
<trkpt lat="54.2704790000" lon="-2.2454360000"><ele>568</ele><time>2013-11-17T11:24:29Z</time></trkpt>
<trkpt lat="54.2704630000" lon="-2.2454350000"><ele>568</ele><time>2013-11-17T11:24:30Z</time></trkpt>
<trkpt lat="54.2704470000" lon="-2.2454340000"><ele>568</ele><time>2013-11-17T11:24:31Z</time></trkpt>
<trkpt lat="54.2704310000" lon="-2.2454340000"><ele>568</ele><time>2013-11-17T11:24:32Z</time></trkpt>
<trkpt lat="54.2704160000" lon="-2.2454340000"><ele>568</ele><time>2013-11-17T11:24:33Z</time></trkpt>
<trkpt lat="54.2704010000" lon="-2.2454330000"><ele>568</ele><time>2013-11-17T11:24:34Z</time></trkpt>
<trkpt lat="54.2703860000" lon="-2.2454340000"><ele>568</ele><time>2013-11-17T11:24:35Z</time></trkpt>
<trkpt lat="54.2703720000" lon="-2.2454330000"><ele>568</ele><time>2013-11-17T11:24:36Z</time></trkpt>
<trkpt lat="54.2703570000" lon="-2.2454340000"><ele>568</ele><time>2013-11-17T11:24:37Z</time></trkpt>
<trkpt lat="54.2703420000" lon="-2.2454380000"><ele>568</ele><time>2013-11-17T11:24:38Z</time></trkpt>
<trkpt lat="54.2703280000" lon="-2.2454410000"><ele>568</ele><time>2013-11-17T11:24:39Z</time></trkpt>
<trkpt lat="54.2703130000" lon="-2.2454440000"><ele>568</ele><time>2013-11-17T11:24:40Z</time></trkpt>
<trkpt lat="54.2702970000" lon="-2.2454470000"><ele>568</ele><time>2013-11-17T11:24:41Z</time></trkpt>
<trkpt lat="54.2702830000" lon="-2.2454520000"><ele>568</ele><time>2013-11-17T11:24:42Z</time></trkpt>
<trkpt lat="54.2702690000" lon="-2.2454570000"><ele>568</ele><time>2013-11-17T11:24:43Z</time></trkpt>
<trkpt lat="54.2702570000" lon="-2.2454590000"><ele>568</ele><time>2013-11-17T11:24:44Z</time></trkpt>
<trkpt lat="54.2702430000" lon="-2.2454610000"><ele>568</ele><time>2013-11-17T11:24:45Z</time></trkpt>
<trkpt lat="54.2702290000" lon="-2.2454620000"><ele>568</ele><time>2013-11-17T11:24:46Z</time></trkpt>
<trkpt lat="54.2702150000" lon="-2.2454600000"><ele>568</ele><time>2013-11-17T11:24:47Z</time></trkpt>
<trkpt lat="54.2701990000" lon="-2.2454630000"><ele>568</ele><time>2013-11-17T11:24:48Z</time></trkpt>
<trkpt lat="54.2701840000" lon="-2.2454650000"><ele>568</ele><time>2013-11-17T11:24:49Z</time></trkpt>
<trkpt lat="54.2701690000" lon="-2.2454650000"><ele>568</ele><time>2013-11-17T11:24:50Z</time></trkpt>
<trkpt lat="54.2701550000" lon="-2.2454660000"><ele>568</ele><time>2013-11-17T11:24:51Z</time></trkpt>
<trkpt lat="54.2701420000" lon="-2.2454700000"><ele>568</ele><time>2013-11-17T11:24:52Z</time></trkpt>
<trkpt lat="54.2701290000" lon="-2.2454730000"><ele>568</ele><time>2013-11-17T11:24:53Z</time></trkpt>
<trkpt lat="54.2701160000" lon="-2.2454750000"><ele>568</ele><time>2013-11-17T11:24:54Z</time></trkpt>
<trkpt lat="54.2701020000" lon="-2.2454770000"><ele>568</ele><time>2013-11-17T11:24:55Z</time></trkpt>
<trkpt lat="54.2700880000" lon="-2.2454780000"><ele>568</ele><time>2013-11-17T11:24:56Z</time></trkpt>
<trkpt lat="54.2700760000" lon="-2.2454800000"><ele>568</ele><time>2013-11-17T11:24:57Z</time></trkpt>
<trkpt lat="54.2700650000" lon="-2.2454820000"><ele>568</ele><time>2013-11-17T11:24:58Z</time></trkpt>
<trkpt lat="54.2700550000" lon="-2.2454850000"><ele>568</ele><time>2013-11-17T11:24:59Z</time></trkpt>
<trkpt lat="54.2700440000" lon="-2.2454890000"><ele>568</ele><time>2013-11-17T11:25:00Z</time></trkpt>
<trkpt lat="54.2700330000" lon="-2.2454940000"><ele>568</ele><time>2013-11-17T11:25:01Z</time></trkpt>
<trkpt lat="54.2700230000" lon="-2.2454960000"><ele>568</ele><time>2013-11-17T11:25:02Z</time></trkpt>
<trkpt lat="54.2700120000" lon="-2.2454970000"><ele>568</ele><time>2013-11-17T11:25:03Z</time></trkpt>
<trkpt lat="54.2700010000" lon="-2.2454950000"><ele>568</ele><time>2013-11-17T11:25:04Z</time></trkpt>
<trkpt lat="54.2699920000" lon="-2.2454960000"><ele>568</ele><time>2013-11-17T11:25:05Z</time></trkpt>
<trkpt lat="54.2699840000" lon="-2.2454960000"><ele>568</ele><time>2013-11-17T11:25:06Z</time></trkpt>
<trkpt lat="54.2699760000" lon="-2.2454950000"><ele>568</ele><time>2013-11-17T11:25:07Z</time></trkpt>
<trkpt lat="54.2699690000" lon="-2.2454950000"><ele>568</ele><time>2013-11-17T11:25:08Z</time></trkpt>
<trkpt lat="54.2699590000" lon="-2.2454970000"><ele>568</ele><time>2013-11-17T11:25:09Z</time></trkpt>
<trkpt lat="54.2699540000" lon="-2.2455000000"><ele>568</ele><time>2013-11-17T11:25:10Z</time></trkpt>
<trkpt lat="54.2699510000" lon="-2.2455020000"><ele>568</ele><time>2013-11-17T11:25:11Z</time></trkpt>
<trkpt lat="54.2699490000" lon="-2.2455040000"><ele>568</ele><time>2013-11-17T11:25:12Z</time></trkpt>
<trkpt lat="54.2699470000" lon="-2.2455050000"><ele>568</ele><time>2013-11-17T11:25:13Z</time></trkpt>
<trkpt lat="54.2699460000" lon="-2.2455060000"><ele>568</ele><time>2013-11-17T11:25:14Z</time></trkpt>
<trkpt lat="54.2699460000" lon="-2.2455060000"><ele>568</ele><time>2013-11-17T11:25:15Z</time></trkpt>
<trkpt lat="54.2699470000" lon="-2.2455060000"><ele>568</ele><time>2013-11-17T11:25:16Z</time></trkpt>
<trkpt lat="54.2699490000" lon="-2.2455060000"><ele>568</ele><time>2013-11-17T11:25:17Z</time></trkpt>
<trkpt lat="54.2699500000" lon="-2.2455060000"><ele>568</ele><time>2013-11-17T11:25:18Z</time></trkpt>
<trkpt lat="54.2699490000" lon="-2.2455050000"><ele>568</ele><time>2013-11-17T11:25:19Z</time></trkpt>
<trkpt lat="54.2699440000" lon="-2.2455020000"><ele>568</ele><time>2013-11-17T11:25:20Z</time></trkpt>
<trkpt lat="54.2699370000" lon="-2.2454970000"><ele>568</ele><time>2013-11-17T11:25:21Z</time></trkpt>
<trkpt lat="54.2699270000" lon="-2.2454920000"><ele>568</ele><time>2013-11-17T11:25:22Z</time></trkpt>
<trkpt lat="54.2699160000" lon="-2.2454880000"><ele>568</ele><time>2013-11-17T11:25:23Z</time></trkpt>
<trkpt lat="54.2699080000" lon="-2.2454820000"><ele>568</ele><time>2013-11-17T11:25:24Z</time></trkpt>
<trkpt lat="54.2698990000" lon="-2.2454720000"><ele>568</ele><time>2013-11-17T11:25:25Z</time></trkpt>
<trkpt lat="54.2698890000" lon="-2.2454600000"><ele>568</ele><time>2013-11-17T11:25:26Z</time></trkpt>
<trkpt lat="54.2698790000" lon="-2.2454480000"><ele>568</ele><time>2013-11-17T11:25:27Z</time></trkpt>
<trkpt lat="54.2698700000" lon="-2.2454340000"><ele>568</ele><time>2013-11-17T11:25:28Z</time></trkpt>
<trkpt lat="54.2698610000" lon="-2.2454190000"><ele>568</ele><time>2013-11-17T11:25:29Z</time></trkpt>
<trkpt lat="54.2698510000" lon="-2.2454060000"><ele>568</ele><time>2013-11-17T11:25:30Z</time></trkpt>
<trkpt lat="54.2698410000" lon="-2.2453950000"><ele>568</ele><time>2013-11-17T11:25:31Z</time></trkpt>
<trkpt lat="54.2698330000" lon="-2.2453870000"><ele>568</ele><time>2013-11-17T11:25:32Z</time></trkpt>
<trkpt lat="54.2698220000" lon="-2.2453790000"><ele>568</ele><time>2013-11-17T11:25:33Z</time></trkpt>
<trkpt lat="54.2698100000" lon="-2.2453730000"><ele>568</ele><time>2013-11-17T11:25:34Z</time></trkpt>
<trkpt lat="54.2698000000" lon="-2.2453630000"><ele>568</ele><time>2013-11-17T11:25:35Z</time></trkpt>
<trkpt lat="54.2697920000" lon="-2.2453450000"><ele>568</ele><time>2013-11-17T11:25:36Z</time></trkpt>
<trkpt lat="54.2697820000" lon="-2.2453280000"><ele>568</ele><time>2013-11-17T11:25:37Z</time></trkpt>
<trkpt lat="54.2697700000" lon="-2.2453160000"><ele>568</ele><time>2013-11-17T11:25:38Z</time></trkpt>
<trkpt lat="54.2697580000" lon="-2.2453050000"><ele>568</ele><time>2013-11-17T11:25:39Z</time></trkpt>
<trkpt lat="54.2697480000" lon="-2.2452980000"><ele>568</ele><time>2013-11-17T11:25:40Z</time></trkpt>
<trkpt lat="54.2697360000" lon="-2.2452890000"><ele>568</ele><time>2013-11-17T11:25:41Z</time></trkpt>
<trkpt lat="54.2697230000" lon="-2.2452810000"><ele>568</ele><time>2013-11-17T11:25:42Z</time></trkpt>
<trkpt lat="54.2697100000" lon="-2.2452730000"><ele>568</ele><time>2013-11-17T11:25:43Z</time></trkpt>
<trkpt lat="54.2696990000" lon="-2.2452650000"><ele>568</ele><time>2013-11-17T11:25:44Z</time></trkpt>
<trkpt lat="54.2696890000" lon="-2.2452570000"><ele>568</ele><time>2013-11-17T11:25:45Z</time></trkpt>
<trkpt lat="54.2696780000" lon="-2.2452490000"><ele>568</ele><time>2013-11-17T11:25:46Z</time></trkpt>
<trkpt lat="54.2696650000" lon="-2.2452420000"><ele>568</ele><time>2013-11-17T11:25:47Z</time></trkpt>
<trkpt lat="54.2696530000" lon="-2.2452390000"><ele>568</ele><time>2013-11-17T11:25:48Z</time></trkpt>
<trkpt lat="54.2696400000" lon="-2.2452360000"><ele>568</ele><time>2013-11-17T11:25:49Z</time></trkpt>
<trkpt lat="54.2696280000" lon="-2.2452350000"><ele>568</ele><time>2013-11-17T11:25:50Z</time></trkpt>
<trkpt lat="54.2696150000" lon="-2.2452330000"><ele>568</ele><time>2013-11-17T11:25:51Z</time></trkpt>
<trkpt lat="54.2696010000" lon="-2.2452320000"><ele>568</ele><time>2013-11-17T11:25:52Z</time></trkpt>
<trkpt lat="54.2695870000" lon="-2.2452330000"><ele>568</ele><time>2013-11-17T11:25:53Z</time></trkpt>
<trkpt lat="54.2695750000" lon="-2.2452340000"><ele>568</ele><time>2013-11-17T11:25:54Z</time></trkpt>
<trkpt lat="54.2695630000" lon="-2.2452300000"><ele>568</ele><time>2013-11-17T11:25:55Z</time></trkpt>
<trkpt lat="54.2695510000" lon="-2.2452240000"><ele>568</ele><time>2013-11-17T11:25:56Z</time></trkpt>
<trkpt lat="54.2695400000" lon="-2.2452160000"><ele>568</ele><time>2013-11-17T11:25:57Z</time></trkpt>
<trkpt lat="54.2695300000" lon="-2.2452040000"><ele>568</ele><time>2013-11-17T11:25:58Z</time></trkpt>
<trkpt lat="54.2695200000" lon="-2.2451960000"><ele>568</ele><time>2013-11-17T11:25:59Z</time></trkpt>
<trkpt lat="54.2695090000" lon="-2.2451910000"><ele>568</ele><time>2013-11-17T11:26:00Z</time></trkpt>
<trkpt lat="54.2694940000" lon="-2.2451850000"><ele>568</ele><time>2013-11-17T11:26:01Z</time></trkpt>
<trkpt lat="54.2694810000" lon="-2.2451770000"><ele>568</ele><time>2013-11-17T11:26:02Z</time></trkpt>
<trkpt lat="54.2694680000" lon="-2.2451690000"><ele>568</ele><time>2013-11-17T11:26:03Z</time></trkpt>
<trkpt lat="54.2694560000" lon="-2.2451620000"><ele>568</ele><time>2013-11-17T11:26:04Z</time></trkpt>
<trkpt lat="54.2694440000" lon="-2.2451550000"><ele>568</ele><time>2013-11-17T11:26:05Z</time></trkpt>
<trkpt lat="54.2694320000" lon="-2.2451500000"><ele>568</ele><time>2013-11-17T11:26:06Z</time></trkpt>
<trkpt lat="54.2694190000" lon="-2.2451450000"><ele>568</ele><time>2013-11-17T11:26:07Z</time></trkpt>
<trkpt lat="54.2694060000" lon="-2.2451400000"><ele>568</ele><time>2013-11-17T11:26:08Z</time></trkpt>
<trkpt lat="54.2693950000" lon="-2.2451370000"><ele>568</ele><time>2013-11-17T11:26:09Z</time></trkpt>
<trkpt lat="54.2693830000" lon="-2.2451340000"><ele>568</ele><time>2013-11-17T11:26:10Z</time></trkpt>
<trkpt lat="54.2693710000" lon="-2.2451300000"><ele>568</ele><time>2013-11-17T11:26:11Z</time></trkpt>
<trkpt lat="54.2693580000" lon="-2.2451220000"><ele>568</ele><time>2013-11-17T11:26:12Z</time></trkpt>
<trkpt lat="54.2693450000" lon="-2.2451140000"><ele>568</ele><time>2013-11-17T11:26:13Z</time></trkpt>
<trkpt lat="54.2693320000" lon="-2.2451080000"><ele>568</ele><time>2013-11-17T11:26:14Z</time></trkpt>
<trkpt lat="54.2693190000" lon="-2.2451030000"><ele>568</ele><time>2013-11-17T11:26:15Z</time></trkpt>
<trkpt lat="54.2693050000" lon="-2.2450980000"><ele>568</ele><time>2013-11-17T11:26:16Z</time></trkpt>
<trkpt lat="54.2692900000" lon="-2.2450930000"><ele>568</ele><time>2013-11-17T11:26:17Z</time></trkpt>
<trkpt lat="54.2692760000" lon="-2.2450880000"><ele>568</ele><time>2013-11-17T11:26:18Z</time></trkpt>
<trkpt lat="54.2692620000" lon="-2.2450840000"><ele>568</ele><time>2013-11-17T11:26:19Z</time></trkpt>
<trkpt lat="54.2692470000" lon="-2.2450810000"><ele>568</ele><time>2013-11-17T11:26:20Z</time></trkpt>
<trkpt lat="54.2692340000" lon="-2.2450800000"><ele>568</ele><time>2013-11-17T11:26:21Z</time></trkpt>
<trkpt lat="54.2692210000" lon="-2.2450810000"><ele>568</ele><time>2013-11-17T11:26:22Z</time></trkpt>
<trkpt lat="54.2692090000" lon="-2.2450800000"><ele>568</ele><time>2013-11-17T11:26:23Z</time></trkpt>
<trkpt lat="54.2691950000" lon="-2.2450800000"><ele>568</ele><time>2013-11-17T11:26:24Z</time></trkpt>
<trkpt lat="54.2691830000" lon="-2.2450790000"><ele>568</ele><time>2013-11-17T11:26:25Z</time></trkpt>
<trkpt lat="54.2691690000" lon="-2.2450790000"><ele>568</ele><time>2013-11-17T11:26:26Z</time></trkpt>
<trkpt lat="54.2691580000" lon="-2.2450800000"><ele>568</ele><time>2013-11-17T11:26:27Z</time></trkpt>
<trkpt lat="54.2691470000" lon="-2.2450780000"><ele>568</ele><time>2013-11-17T11:26:28Z</time></trkpt>
<trkpt lat="54.2691340000" lon="-2.2450730000"><ele>568</ele><time>2013-11-17T11:26:29Z</time></trkpt>
<trkpt lat="54.2691220000" lon="-2.2450680000"><ele>568</ele><time>2013-11-17T11:26:30Z</time></trkpt>
<trkpt lat="54.2691120000" lon="-2.2450610000"><ele>568</ele><time>2013-11-17T11:26:31Z</time></trkpt>
<trkpt lat="54.2691040000" lon="-2.2450610000"><ele>568</ele><time>2013-11-17T11:26:32Z</time></trkpt>
<trkpt lat="54.2690950000" lon="-2.2450660000"><ele>568</ele><time>2013-11-17T11:26:33Z</time></trkpt>
<trkpt lat="54.2690860000" lon="-2.2450710000"><ele>568</ele><time>2013-11-17T11:26:34Z</time></trkpt>
<trkpt lat="54.2690780000" lon="-2.2450720000"><ele>568</ele><time>2013-11-17T11:26:35Z</time></trkpt>
<trkpt lat="54.2690700000" lon="-2.2450680000"><ele>568</ele><time>2013-11-17T11:26:36Z</time></trkpt>
<trkpt lat="54.2690410000" lon="-2.2450680000"><ele>568</ele><time>2013-11-17T11:26:39Z</time></trkpt>
<trkpt lat="54.2690150000" lon="-2.2450630000"><ele>568</ele><time>2013-11-17T11:26:41Z</time></trkpt>
<trkpt lat="54.2689910000" lon="-2.2450510000"><ele>568</ele><time>2013-11-17T11:26:43Z</time></trkpt>
<trkpt lat="54.2689660000" lon="-2.2450420000"><ele>568</ele><time>2013-11-17T11:26:45Z</time></trkpt>
<trkpt lat="54.2689430000" lon="-2.2450280000"><ele>568</ele><time>2013-11-17T11:26:47Z</time></trkpt>
<trkpt lat="54.2689200000" lon="-2.2450130000"><ele>568</ele><time>2013-11-17T11:26:49Z</time></trkpt>
<trkpt lat="54.2688940000" lon="-2.2450130000"><ele>568</ele><time>2013-11-17T11:26:51Z</time></trkpt>
<trkpt lat="54.2688700000" lon="-2.2450150000"><ele>568</ele><time>2013-11-17T11:26:53Z</time></trkpt>
<trkpt lat="54.2688450000" lon="-2.2450190000"><ele>568</ele><time>2013-11-17T11:26:55Z</time></trkpt>
<trkpt lat="54.2688200000" lon="-2.2450200000"><ele>568</ele><time>2013-11-17T11:26:57Z</time></trkpt>
<trkpt lat="54.2687970000" lon="-2.2450200000"><ele>568</ele><time>2013-11-17T11:26:59Z</time></trkpt>
<trkpt lat="54.2687700000" lon="-2.2450220000"><ele>568</ele><time>2013-11-17T11:27:01Z</time></trkpt>
<trkpt lat="54.2687440000" lon="-2.2450220000"><ele>568</ele><time>2013-11-17T11:27:03Z</time></trkpt>
<trkpt lat="54.2687140000" lon="-2.2450120000"><ele>568</ele><time>2013-11-17T11:27:05Z</time></trkpt>
<trkpt lat="54.2686910000" lon="-2.2450040000"><ele>568</ele><time>2013-11-17T11:27:07Z</time></trkpt>
<trkpt lat="54.2686680000" lon="-2.2449930000"><ele>568</ele><time>2013-11-17T11:27:09Z</time></trkpt>
<trkpt lat="54.2686450000" lon="-2.2449860000"><ele>568</ele><time>2013-11-17T11:27:11Z</time></trkpt>
<trkpt lat="54.2686220000" lon="-2.2449830000"><ele>568</ele><time>2013-11-17T11:27:13Z</time></trkpt>
<trkpt lat="54.2685960000" lon="-2.2449830000"><ele>568</ele><time>2013-11-17T11:27:15Z</time></trkpt>
<trkpt lat="54.2685730000" lon="-2.2449750000"><ele>568</ele><time>2013-11-17T11:27:17Z</time></trkpt>
<trkpt lat="54.2685480000" lon="-2.2449620000"><ele>568</ele><time>2013-11-17T11:27:19Z</time></trkpt>
<trkpt lat="54.2685220000" lon="-2.2449550000"><ele>568</ele><time>2013-11-17T11:27:21Z</time></trkpt>
<trkpt lat="54.2684980000" lon="-2.2449510000"><ele>568</ele><time>2013-11-17T11:27:23Z</time></trkpt>
<trkpt lat="54.2684760000" lon="-2.2449490000"><ele>568</ele><time>2013-11-17T11:27:25Z</time></trkpt>
<trkpt lat="54.2684560000" lon="-2.2449210000"><ele>568</ele><time>2013-11-17T11:27:28Z</time></trkpt>
<trkpt lat="54.2684310000" lon="-2.2448950000"><ele>568</ele><time>2013-11-17T11:27:31Z</time></trkpt>
<trkpt lat="54.2684120000" lon="-2.2448820000"><ele>568</ele><time>2013-11-17T11:27:33Z</time></trkpt>
<trkpt lat="54.2683940000" lon="-2.2448600000"><ele>568</ele><time>2013-11-17T11:27:35Z</time></trkpt>
<trkpt lat="54.2683690000" lon="-2.2448420000"><ele>568</ele><time>2013-11-17T11:27:37Z</time></trkpt>
<trkpt lat="54.2683440000" lon="-2.2448320000"><ele>568</ele><time>2013-11-17T11:27:39Z</time></trkpt>
<trkpt lat="54.2683210000" lon="-2.2448160000"><ele>568</ele><time>2013-11-17T11:27:41Z</time></trkpt>
<trkpt lat="54.2683020000" lon="-2.2447950000"><ele>568</ele><time>2013-11-17T11:27:43Z</time></trkpt>
<trkpt lat="54.2682800000" lon="-2.2447710000"><ele>568</ele><time>2013-11-17T11:27:45Z</time></trkpt>
<trkpt lat="54.2682650000" lon="-2.2447530000"><ele>568</ele><time>2013-11-17T11:27:47Z</time></trkpt>
<trkpt lat="54.2682500000" lon="-2.2447360000"><ele>568</ele><time>2013-11-17T11:27:49Z</time></trkpt>
<trkpt lat="54.2682320000" lon="-2.2447130000"><ele>568</ele><time>2013-11-17T11:27:51Z</time></trkpt>
<trkpt lat="54.2682090000" lon="-2.2446890000"><ele>568</ele><time>2013-11-17T11:27:53Z</time></trkpt>
<trkpt lat="54.2681870000" lon="-2.2446680000"><ele>568</ele><time>2013-11-17T11:27:55Z</time></trkpt>
<trkpt lat="54.2681670000" lon="-2.2446510000"><ele>568</ele><time>2013-11-17T11:27:57Z</time></trkpt>
<trkpt lat="54.2681500000" lon="-2.2446080000"><ele>568</ele><time>2013-11-17T11:28:00Z</time></trkpt>
<trkpt lat="54.2681320000" lon="-2.2445770000"><ele>568</ele><time>2013-11-17T11:28:03Z</time></trkpt>
<trkpt lat="54.2681080000" lon="-2.2445570000"><ele>568</ele><time>2013-11-17T11:28:05Z</time></trkpt>
<trkpt lat="54.2680880000" lon="-2.2445430000"><ele>568</ele><time>2013-11-17T11:28:07Z</time></trkpt>
<trkpt lat="54.2680630000" lon="-2.2445170000"><ele>568</ele><time>2013-11-17T11:28:09Z</time></trkpt>
<trkpt lat="54.2680370000" lon="-2.2445020000"><ele>568</ele><time>2013-11-17T11:28:11Z</time></trkpt>
<trkpt lat="54.2680100000" lon="-2.2444850000"><ele>568</ele><time>2013-11-17T11:28:13Z</time></trkpt>
<trkpt lat="54.2679870000" lon="-2.2444720000"><ele>568</ele><time>2013-11-17T11:28:15Z</time></trkpt>
<trkpt lat="54.2679650000" lon="-2.2444590000"><ele>568</ele><time>2013-11-17T11:28:17Z</time></trkpt>
<trkpt lat="54.2679420000" lon="-2.2444430000"><ele>568</ele><time>2013-11-17T11:28:19Z</time></trkpt>
<trkpt lat="54.2679180000" lon="-2.2444240000"><ele>568</ele><time>2013-11-17T11:28:21Z</time></trkpt>
<trkpt lat="54.2678960000" lon="-2.2444020000"><ele>568</ele><time>2013-11-17T11:28:23Z</time></trkpt>
<trkpt lat="54.2678750000" lon="-2.2443960000"><ele>568</ele><time>2013-11-17T11:28:25Z</time></trkpt>
<trkpt lat="54.2678480000" lon="-2.2443900000"><ele>568</ele><time>2013-11-17T11:28:28Z</time></trkpt>
<trkpt lat="54.2678280000" lon="-2.2443880000"><ele>568</ele><time>2013-11-17T11:28:30Z</time></trkpt>
<trkpt lat="54.2678030000" lon="-2.2443890000"><ele>568</ele><time>2013-11-17T11:28:33Z</time></trkpt>
<trkpt lat="54.2677730000" lon="-2.2443980000"><ele>568</ele><time>2013-11-17T11:28:36Z</time></trkpt>
<trkpt lat="54.2677500000" lon="-2.2444090000"><ele>568</ele><time>2013-11-17T11:28:38Z</time></trkpt>
<trkpt lat="54.2677240000" lon="-2.2444060000"><ele>568</ele><time>2013-11-17T11:28:40Z</time></trkpt>
<trkpt lat="54.2677010000" lon="-2.2444110000"><ele>568</ele><time>2013-11-17T11:28:42Z</time></trkpt>
<trkpt lat="54.2676780000" lon="-2.2444260000"><ele>568</ele><time>2013-11-17T11:28:44Z</time></trkpt>
<trkpt lat="54.2676570000" lon="-2.2444270000"><ele>568</ele><time>2013-11-17T11:28:46Z</time></trkpt>
<trkpt lat="54.2676300000" lon="-2.2444220000"><ele>568</ele><time>2013-11-17T11:28:48Z</time></trkpt>
<trkpt lat="54.2676040000" lon="-2.2444120000"><ele>574</ele><time>2013-11-17T11:28:50Z</time></trkpt>
<trkpt lat="54.2675740000" lon="-2.2444040000"><ele>574</ele><time>2013-11-17T11:28:52Z</time></trkpt>
<trkpt lat="54.2675490000" lon="-2.2444020000"><ele>574</ele><time>2013-11-17T11:28:54Z</time></trkpt>
<trkpt lat="54.2675240000" lon="-2.2443960000"><ele>574</ele><time>2013-11-17T11:28:56Z</time></trkpt>
<trkpt lat="54.2675010000" lon="-2.2443900000"><ele>574</ele><time>2013-11-17T11:28:58Z</time></trkpt>
<trkpt lat="54.2674770000" lon="-2.2443840000"><ele>574</ele><time>2013-11-17T11:29:00Z</time></trkpt>
<trkpt lat="54.2674560000" lon="-2.2443880000"><ele>574</ele><time>2013-11-17T11:29:02Z</time></trkpt>
<trkpt lat="54.2674360000" lon="-2.2444010000"><ele>574</ele><time>2013-11-17T11:29:04Z</time></trkpt>
<trkpt lat="54.2674160000" lon="-2.2444040000"><ele>574</ele><time>2013-11-17T11:29:06Z</time></trkpt>
<trkpt lat="54.2673930000" lon="-2.2444040000"><ele>574</ele><time>2013-11-17T11:29:08Z</time></trkpt>
<trkpt lat="54.2673730000" lon="-2.2443840000"><ele>574</ele><time>2013-11-17T11:29:10Z</time></trkpt>
<trkpt lat="54.2673510000" lon="-2.2443520000"><ele>574</ele><time>2013-11-17T11:29:12Z</time></trkpt>
<trkpt lat="54.2673310000" lon="-2.2443280000"><ele>574</ele><time>2013-11-17T11:29:14Z</time></trkpt>
<trkpt lat="54.2673100000" lon="-2.2443090000"><ele>574</ele><time>2013-11-17T11:29:16Z</time></trkpt>
<trkpt lat="54.2672850000" lon="-2.2442890000"><ele>574</ele><time>2013-11-17T11:29:19Z</time></trkpt>
<trkpt lat="54.2672630000" lon="-2.2442650000"><ele>574</ele><time>2013-11-17T11:29:22Z</time></trkpt>
<trkpt lat="54.2672450000" lon="-2.2442430000"><ele>574</ele><time>2013-11-17T11:29:24Z</time></trkpt>
<trkpt lat="54.2672230000" lon="-2.2442230000"><ele>574</ele><time>2013-11-17T11:29:26Z</time></trkpt>
<trkpt lat="54.2671980000" lon="-2.2442100000"><ele>574</ele><time>2013-11-17T11:29:28Z</time></trkpt>
<trkpt lat="54.2671690000" lon="-2.2441970000"><ele>574</ele><time>2013-11-17T11:29:30Z</time></trkpt>
<trkpt lat="54.2671590000" lon="-2.2441870000"><ele>574</ele><time>2013-11-17T11:29:31Z</time></trkpt>
<trkpt lat="54.2671490000" lon="-2.2441740000"><ele>574</ele><time>2013-11-17T11:29:32Z</time></trkpt>
<trkpt lat="54.2671400000" lon="-2.2441600000"><ele>574</ele><time>2013-11-17T11:29:33Z</time></trkpt>
<trkpt lat="54.2671310000" lon="-2.2441450000"><ele>574</ele><time>2013-11-17T11:29:34Z</time></trkpt>
<trkpt lat="54.2671210000" lon="-2.2441300000"><ele>574</ele><time>2013-11-17T11:29:35Z</time></trkpt>
<trkpt lat="54.2671120000" lon="-2.2441170000"><ele>574</ele><time>2013-11-17T11:29:36Z</time></trkpt>
<trkpt lat="54.2671060000" lon="-2.2441050000"><ele>574</ele><time>2013-11-17T11:29:37Z</time></trkpt>
<trkpt lat="54.2670990000" lon="-2.2440940000"><ele>571</ele><time>2013-11-17T11:29:38Z</time></trkpt>
<trkpt lat="54.2670940000" lon="-2.2440860000"><ele>571</ele><time>2013-11-17T11:29:39Z</time></trkpt>
<trkpt lat="54.2670790000" lon="-2.2440540000"><ele>571</ele><time>2013-11-17T11:29:42Z</time></trkpt>
<trkpt lat="54.2670570000" lon="-2.2440170000"><ele>571</ele><time>2013-11-17T11:29:45Z</time></trkpt>
<trkpt lat="54.2670370000" lon="-2.2440080000"><ele>571</ele><time>2013-11-17T11:29:47Z</time></trkpt>
<trkpt lat="54.2670110000" lon="-2.2440050000"><ele>571</ele><time>2013-11-17T11:29:50Z</time></trkpt>
<trkpt lat="54.2669810000" lon="-2.2440110000"><ele>571</ele><time>2013-11-17T11:29:53Z</time></trkpt>
<trkpt lat="54.2669530000" lon="-2.2440250000"><ele>571</ele><time>2013-11-17T11:29:56Z</time></trkpt>
<trkpt lat="54.2669290000" lon="-2.2440630000"><ele>571</ele><time>2013-11-17T11:29:59Z</time></trkpt>
<trkpt lat="54.2669120000" lon="-2.2440940000"><ele>571</ele><time>2013-11-17T11:30:01Z</time></trkpt>
<trkpt lat="54.2668960000" lon="-2.2441240000"><ele>574</ele><time>2013-11-17T11:30:03Z</time></trkpt>
<trkpt lat="54.2668730000" lon="-2.2441450000"><ele>574</ele><time>2013-11-17T11:30:05Z</time></trkpt>
<trkpt lat="54.2668500000" lon="-2.2441590000"><ele>574</ele><time>2013-11-17T11:30:07Z</time></trkpt>
<trkpt lat="54.2668290000" lon="-2.2441840000"><ele>574</ele><time>2013-11-17T11:30:10Z</time></trkpt>
<trkpt lat="54.2668070000" lon="-2.2442260000"><ele>574</ele><time>2013-11-17T11:30:14Z</time></trkpt>
<trkpt lat="54.2667850000" lon="-2.2442520000"><ele>574</ele><time>2013-11-17T11:30:16Z</time></trkpt>
<trkpt lat="54.2667620000" lon="-2.2442700000"><ele>574</ele><time>2013-11-17T11:30:18Z</time></trkpt>
<trkpt lat="54.2667310000" lon="-2.2442940000"><ele>574</ele><time>2013-11-17T11:30:21Z</time></trkpt>
<trkpt lat="54.2667070000" lon="-2.2443020000"><ele>574</ele><time>2013-11-17T11:30:23Z</time></trkpt>
<trkpt lat="54.2666800000" lon="-2.2443060000"><ele>574</ele><time>2013-11-17T11:30:26Z</time></trkpt>
<trkpt lat="54.2666580000" lon="-2.2443130000"><ele>574</ele><time>2013-11-17T11:30:28Z</time></trkpt>
<trkpt lat="54.2666300000" lon="-2.2443220000"><ele>574</ele><time>2013-11-17T11:30:31Z</time></trkpt>
<trkpt lat="54.2666060000" lon="-2.2443280000"><ele>574</ele><time>2013-11-17T11:30:34Z</time></trkpt>
<trkpt lat="54.2665830000" lon="-2.2443440000"><ele>574</ele><time>2013-11-17T11:30:38Z</time></trkpt>
<trkpt lat="54.2665580000" lon="-2.2443460000"><ele>574</ele><time>2013-11-17T11:30:41Z</time></trkpt>
<trkpt lat="54.2665340000" lon="-2.2443490000"><ele>574</ele><time>2013-11-17T11:30:43Z</time></trkpt>
<trkpt lat="54.2665100000" lon="-2.2443570000"><ele>574</ele><time>2013-11-17T11:30:46Z</time></trkpt>
<trkpt lat="54.2664860000" lon="-2.2443760000"><ele>574</ele><time>2013-11-17T11:30:50Z</time></trkpt>
<trkpt lat="54.2664650000" lon="-2.2444010000"><ele>574</ele><time>2013-11-17T11:30:53Z</time></trkpt>
<trkpt lat="54.2664360000" lon="-2.2444360000"><ele>574</ele><time>2013-11-17T11:30:58Z</time></trkpt>
<trkpt lat="54.2664110000" lon="-2.2444360000"><ele>574</ele><time>2013-11-17T11:31:01Z</time></trkpt>
<trkpt lat="54.2663820000" lon="-2.2444160000"><ele>574</ele><time>2013-11-17T11:31:04Z</time></trkpt>
<trkpt lat="54.2663590000" lon="-2.2444050000"><ele>574</ele><time>2013-11-17T11:31:06Z</time></trkpt>
<trkpt lat="54.2663300000" lon="-2.2443990000"><ele>574</ele><time>2013-11-17T11:31:09Z</time></trkpt>
<trkpt lat="54.2663050000" lon="-2.2443950000"><ele>574</ele><time>2013-11-17T11:31:12Z</time></trkpt>
<trkpt lat="54.2662790000" lon="-2.2443900000"><ele>574</ele><time>2013-11-17T11:31:15Z</time></trkpt>
<trkpt lat="54.2662550000" lon="-2.2443720000"><ele>574</ele><time>2013-11-17T11:31:18Z</time></trkpt>
<trkpt lat="54.2662330000" lon="-2.2443610000"><ele>574</ele><time>2013-11-17T11:31:21Z</time></trkpt>
<trkpt lat="54.2662040000" lon="-2.2443680000"><ele>574</ele><time>2013-11-17T11:31:24Z</time></trkpt>
<trkpt lat="54.2661790000" lon="-2.2443650000"><ele>574</ele><time>2013-11-17T11:31:26Z</time></trkpt>
<trkpt lat="54.2661570000" lon="-2.2443670000"><ele>574</ele><time>2013-11-17T11:31:28Z</time></trkpt>
<trkpt lat="54.2661340000" lon="-2.2443850000"><ele>574</ele><time>2013-11-17T11:31:30Z</time></trkpt>
<trkpt lat="54.2661150000" lon="-2.2444090000"><ele>574</ele><time>2013-11-17T11:31:32Z</time></trkpt>
<trkpt lat="54.2660900000" lon="-2.2444370000"><ele>574</ele><time>2013-11-17T11:31:35Z</time></trkpt>
<trkpt lat="54.2660640000" lon="-2.2444590000"><ele>574</ele><time>2013-11-17T11:31:38Z</time></trkpt>
<trkpt lat="54.2660410000" lon="-2.2444800000"><ele>574</ele><time>2013-11-17T11:31:41Z</time></trkpt>
<trkpt lat="54.2660200000" lon="-2.2444890000"><ele>574</ele><time>2013-11-17T11:31:44Z</time></trkpt>
<trkpt lat="54.2660000000" lon="-2.2444990000"><ele>574</ele><time>2013-11-17T11:31:47Z</time></trkpt>
<trkpt lat="54.2659790000" lon="-2.2445100000"><ele>574</ele><time>2013-11-17T11:31:49Z</time></trkpt>
<trkpt lat="54.2659540000" lon="-2.2445340000"><ele>574</ele><time>2013-11-17T11:31:52Z</time></trkpt>
<trkpt lat="54.2659260000" lon="-2.2445530000"><ele>574</ele><time>2013-11-17T11:31:55Z</time></trkpt>
<trkpt lat="54.2658950000" lon="-2.2445530000"><ele>574</ele><time>2013-11-17T11:31:58Z</time></trkpt>
<trkpt lat="54.2658710000" lon="-2.2445440000"><ele>574</ele><time>2013-11-17T11:32:01Z</time></trkpt>
<trkpt lat="54.2658440000" lon="-2.2445420000"><ele>574</ele><time>2013-11-17T11:32:04Z</time></trkpt>
<trkpt lat="54.2658180000" lon="-2.2445470000"><ele>574</ele><time>2013-11-17T11:32:07Z</time></trkpt>
<trkpt lat="54.2657930000" lon="-2.2445500000"><ele>589</ele><time>2013-11-17T11:32:10Z</time></trkpt>
<trkpt lat="54.2657710000" lon="-2.2445520000"><ele>589</ele><time>2013-11-17T11:32:12Z</time></trkpt>
<trkpt lat="54.2657480000" lon="-2.2445550000"><ele>589</ele><time>2013-11-17T11:32:14Z</time></trkpt>
<trkpt lat="54.2657130000" lon="-2.2445750000"><ele>589</ele><time>2013-11-17T11:32:18Z</time></trkpt>
<trkpt lat="54.2656900000" lon="-2.2445840000"><ele>589</ele><time>2013-11-17T11:32:20Z</time></trkpt>
<trkpt lat="54.2656700000" lon="-2.2445990000"><ele>589</ele><time>2013-11-17T11:32:22Z</time></trkpt>
<trkpt lat="54.2656460000" lon="-2.2446100000"><ele>589</ele><time>2013-11-17T11:32:25Z</time></trkpt>
<trkpt lat="54.2656170000" lon="-2.2446000000"><ele>589</ele><time>2013-11-17T11:32:28Z</time></trkpt>
<trkpt lat="54.2655850000" lon="-2.2445880000"><ele>589</ele><time>2013-11-17T11:32:32Z</time></trkpt>
<trkpt lat="54.2655660000" lon="-2.2445840000"><ele>589</ele><time>2013-11-17T11:32:34Z</time></trkpt>
<trkpt lat="54.2655440000" lon="-2.2445690000"><ele>589</ele><time>2013-11-17T11:32:36Z</time></trkpt>
<trkpt lat="54.2655360000" lon="-2.2445640000"><ele>589</ele><time>2013-11-17T11:32:37Z</time></trkpt>
<trkpt lat="54.2655260000" lon="-2.2445590000"><ele>589</ele><time>2013-11-17T11:32:38Z</time></trkpt>
<trkpt lat="54.2655160000" lon="-2.2445560000"><ele>589</ele><time>2013-11-17T11:32:39Z</time></trkpt>
<trkpt lat="54.2655080000" lon="-2.2445620000"><ele>589</ele><time>2013-11-17T11:32:40Z</time></trkpt>
<trkpt lat="54.2655010000" lon="-2.2445720000"><ele>589</ele><time>2013-11-17T11:32:41Z</time></trkpt>
<trkpt lat="54.2654940000" lon="-2.2445820000"><ele>589</ele><time>2013-11-17T11:32:42Z</time></trkpt>
<trkpt lat="54.2654880000" lon="-2.2445890000"><ele>589</ele><time>2013-11-17T11:32:43Z</time></trkpt>
<trkpt lat="54.2654810000" lon="-2.2445930000"><ele>589</ele><time>2013-11-17T11:32:44Z</time></trkpt>
<trkpt lat="54.2654750000" lon="-2.2445980000"><ele>589</ele><time>2013-11-17T11:32:45Z</time></trkpt>
<trkpt lat="54.2654680000" lon="-2.2446000000"><ele>589</ele><time>2013-11-17T11:32:46Z</time></trkpt>
<trkpt lat="54.2654630000" lon="-2.2445990000"><ele>589</ele><time>2013-11-17T11:32:47Z</time></trkpt>
<trkpt lat="54.2654590000" lon="-2.2445980000"><ele>589</ele><time>2013-11-17T11:32:48Z</time></trkpt>
<trkpt lat="54.2654570000" lon="-2.2445970000"><ele>589</ele><time>2013-11-17T11:32:49Z</time></trkpt>
<trkpt lat="54.2654520000" lon="-2.2445900000"><ele>589</ele><time>2013-11-17T11:32:50Z</time></trkpt>
<trkpt lat="54.2654460000" lon="-2.2445790000"><ele>589</ele><time>2013-11-17T11:32:51Z</time></trkpt>
<trkpt lat="54.2654400000" lon="-2.2445660000"><ele>589</ele><time>2013-11-17T11:32:52Z</time></trkpt>
<trkpt lat="54.2654340000" lon="-2.2445540000"><ele>589</ele><time>2013-11-17T11:32:53Z</time></trkpt>
<trkpt lat="54.2654280000" lon="-2.2445410000"><ele>589</ele><time>2013-11-17T11:32:54Z</time></trkpt>
<trkpt lat="54.2654240000" lon="-2.2445260000"><ele>589</ele><time>2013-11-17T11:32:55Z</time></trkpt>
<trkpt lat="54.2654200000" lon="-2.2445090000"><ele>589</ele><time>2013-11-17T11:32:56Z</time></trkpt>
<trkpt lat="54.2654160000" lon="-2.2444930000"><ele>589</ele><time>2013-11-17T11:32:57Z</time></trkpt>
<trkpt lat="54.2654110000" lon="-2.2444770000"><ele>589</ele><time>2013-11-17T11:32:58Z</time></trkpt>
<trkpt lat="54.2654070000" lon="-2.2444610000"><ele>589</ele><time>2013-11-17T11:32:59Z</time></trkpt>
<trkpt lat="54.2654050000" lon="-2.2444430000"><ele>589</ele><time>2013-11-17T11:33:00Z</time></trkpt>
<trkpt lat="54.2654030000" lon="-2.2444230000"><ele>589</ele><time>2013-11-17T11:33:01Z</time></trkpt>
<trkpt lat="54.2654020000" lon="-2.2444050000"><ele>589</ele><time>2013-11-17T11:33:02Z</time></trkpt>
<trkpt lat="54.2654000000" lon="-2.2443850000"><ele>589</ele><time>2013-11-17T11:33:03Z</time></trkpt>
<trkpt lat="54.2653970000" lon="-2.2443670000"><ele>589</ele><time>2013-11-17T11:33:04Z</time></trkpt>
<trkpt lat="54.2653920000" lon="-2.2443500000"><ele>589</ele><time>2013-11-17T11:33:05Z</time></trkpt>
<trkpt lat="54.2653880000" lon="-2.2443300000"><ele>589</ele><time>2013-11-17T11:33:06Z</time></trkpt>
<trkpt lat="54.2653830000" lon="-2.2443120000"><ele>589</ele><time>2013-11-17T11:33:07Z</time></trkpt>
<trkpt lat="54.2653760000" lon="-2.2442950000"><ele>589</ele><time>2013-11-17T11:33:08Z</time></trkpt>
<trkpt lat="54.2653690000" lon="-2.2442780000"><ele>589</ele><time>2013-11-17T11:33:09Z</time></trkpt>
<trkpt lat="54.2653620000" lon="-2.2442620000"><ele>589</ele><time>2013-11-17T11:33:10Z</time></trkpt>
<trkpt lat="54.2653560000" lon="-2.2442480000"><ele>589</ele><time>2013-11-17T11:33:11Z</time></trkpt>
<trkpt lat="54.2653500000" lon="-2.2442350000"><ele>589</ele><time>2013-11-17T11:33:12Z</time></trkpt>
<trkpt lat="54.2653440000" lon="-2.2442200000"><ele>589</ele><time>2013-11-17T11:33:13Z</time></trkpt>
<trkpt lat="54.2653370000" lon="-2.2442070000"><ele>589</ele><time>2013-11-17T11:33:14Z</time></trkpt>
<trkpt lat="54.2653310000" lon="-2.2441950000"><ele>589</ele><time>2013-11-17T11:33:15Z</time></trkpt>
<trkpt lat="54.2653250000" lon="-2.2441840000"><ele>589</ele><time>2013-11-17T11:33:16Z</time></trkpt>
<trkpt lat="54.2653190000" lon="-2.2441730000"><ele>589</ele><time>2013-11-17T11:33:17Z</time></trkpt>
<trkpt lat="54.2653120000" lon="-2.2441630000"><ele>589</ele><time>2013-11-17T11:33:18Z</time></trkpt>
<trkpt lat="54.2653050000" lon="-2.2441520000"><ele>589</ele><time>2013-11-17T11:33:19Z</time></trkpt>
<trkpt lat="54.2652980000" lon="-2.2441450000"><ele>589</ele><time>2013-11-17T11:33:20Z</time></trkpt>
<trkpt lat="54.2652940000" lon="-2.2441390000"><ele>589</ele><time>2013-11-17T11:33:21Z</time></trkpt>
<trkpt lat="54.2652900000" lon="-2.2441270000"><ele>589</ele><time>2013-11-17T11:33:22Z</time></trkpt>
<trkpt lat="54.2652850000" lon="-2.2441140000"><ele>589</ele><time>2013-11-17T11:33:23Z</time></trkpt>
<trkpt lat="54.2652790000" lon="-2.2441040000"><ele>589</ele><time>2013-11-17T11:33:24Z</time></trkpt>
<trkpt lat="54.2652730000" lon="-2.2440950000"><ele>589</ele><time>2013-11-17T11:33:25Z</time></trkpt>
<trkpt lat="54.2652660000" lon="-2.2440860000"><ele>589</ele><time>2013-11-17T11:33:26Z</time></trkpt>
<trkpt lat="54.2652590000" lon="-2.2440800000"><ele>583</ele><time>2013-11-17T11:33:27Z</time></trkpt>
<trkpt lat="54.2652500000" lon="-2.2440770000"><ele>583</ele><time>2013-11-17T11:33:28Z</time></trkpt>
<trkpt lat="54.2652430000" lon="-2.2440710000"><ele>583</ele><time>2013-11-17T11:33:29Z</time></trkpt>
<trkpt lat="54.2652360000" lon="-2.2440580000"><ele>583</ele><time>2013-11-17T11:33:30Z</time></trkpt>
<trkpt lat="54.2652330000" lon="-2.2440420000"><ele>583</ele><time>2013-11-17T11:33:31Z</time></trkpt>
<trkpt lat="54.2652300000" lon="-2.2440250000"><ele>583</ele><time>2013-11-17T11:33:32Z</time></trkpt>
<trkpt lat="54.2652270000" lon="-2.2440110000"><ele>583</ele><time>2013-11-17T11:33:33Z</time></trkpt>
<trkpt lat="54.2652220000" lon="-2.2439940000"><ele>583</ele><time>2013-11-17T11:33:34Z</time></trkpt>
<trkpt lat="54.2652170000" lon="-2.2439780000"><ele>583</ele><time>2013-11-17T11:33:35Z</time></trkpt>
<trkpt lat="54.2652110000" lon="-2.2439660000"><ele>583</ele><time>2013-11-17T11:33:36Z</time></trkpt>
<trkpt lat="54.2652060000" lon="-2.2439670000"><ele>583</ele><time>2013-11-17T11:33:37Z</time></trkpt>
<trkpt lat="54.2651990000" lon="-2.2439780000"><ele>583</ele><time>2013-11-17T11:33:38Z</time></trkpt>
<trkpt lat="54.2651930000" lon="-2.2439930000"><ele>583</ele><time>2013-11-17T11:33:39Z</time></trkpt>
<trkpt lat="54.2651850000" lon="-2.2440070000"><ele>583</ele><time>2013-11-17T11:33:40Z</time></trkpt>
<trkpt lat="54.2651760000" lon="-2.2440160000"><ele>583</ele><time>2013-11-17T11:33:41Z</time></trkpt>
<trkpt lat="54.2651680000" lon="-2.2440230000"><ele>583</ele><time>2013-11-17T11:33:42Z</time></trkpt>
<trkpt lat="54.2651590000" lon="-2.2440270000"><ele>583</ele><time>2013-11-17T11:33:43Z</time></trkpt>
<trkpt lat="54.2651500000" lon="-2.2440300000"><ele>583</ele><time>2013-11-17T11:33:44Z</time></trkpt>
<trkpt lat="54.2651420000" lon="-2.2440330000"><ele>583</ele><time>2013-11-17T11:33:45Z</time></trkpt>
<trkpt lat="54.2651320000" lon="-2.2440360000"><ele>583</ele><time>2013-11-17T11:33:46Z</time></trkpt>
<trkpt lat="54.2651230000" lon="-2.2440390000"><ele>583</ele><time>2013-11-17T11:33:47Z</time></trkpt>
<trkpt lat="54.2651140000" lon="-2.2440440000"><ele>583</ele><time>2013-11-17T11:33:48Z</time></trkpt>
<trkpt lat="54.2651050000" lon="-2.2440440000"><ele>583</ele><time>2013-11-17T11:33:49Z</time></trkpt>
<trkpt lat="54.2650970000" lon="-2.2440410000"><ele>583</ele><time>2013-11-17T11:33:50Z</time></trkpt>
<trkpt lat="54.2650890000" lon="-2.2440370000"><ele>583</ele><time>2013-11-17T11:33:51Z</time></trkpt>
<trkpt lat="54.2650590000" lon="-2.2440450000"><ele>583</ele><time>2013-11-17T11:33:57Z</time></trkpt>
<trkpt lat="54.2650360000" lon="-2.2440590000"><ele>583</ele><time>2013-11-17T11:34:00Z</time></trkpt>
<trkpt lat="54.2650080000" lon="-2.2440780000"><ele>583</ele><time>2013-11-17T11:34:03Z</time></trkpt>
<trkpt lat="54.2649790000" lon="-2.2440700000"><ele>583</ele><time>2013-11-17T11:34:06Z</time></trkpt>
<trkpt lat="54.2649490000" lon="-2.2440810000"><ele>583</ele><time>2013-11-17T11:34:09Z</time></trkpt>
<trkpt lat="54.2649150000" lon="-2.2440860000"><ele>589</ele><time>2013-11-17T11:34:12Z</time></trkpt>
<trkpt lat="54.2648910000" lon="-2.2440860000"><ele>589</ele><time>2013-11-17T11:34:15Z</time></trkpt>
<trkpt lat="54.2648630000" lon="-2.2440820000"><ele>583</ele><time>2013-11-17T11:34:18Z</time></trkpt>
<trkpt lat="54.2648400000" lon="-2.2440940000"><ele>589</ele><time>2013-11-17T11:34:20Z</time></trkpt>
<trkpt lat="54.2648180000" lon="-2.2441070000"><ele>589</ele><time>2013-11-17T11:34:22Z</time></trkpt>
<trkpt lat="54.2647920000" lon="-2.2441140000"><ele>589</ele><time>2013-11-17T11:34:24Z</time></trkpt>
<trkpt lat="54.2647560000" lon="-2.2441130000"><ele>589</ele><time>2013-11-17T11:34:27Z</time></trkpt>
<trkpt lat="54.2647330000" lon="-2.2441090000"><ele>589</ele><time>2013-11-17T11:34:29Z</time></trkpt>
<trkpt lat="54.2647080000" lon="-2.2441040000"><ele>589</ele><time>2013-11-17T11:34:31Z</time></trkpt>
<trkpt lat="54.2646730000" lon="-2.2441050000"><ele>589</ele><time>2013-11-17T11:34:34Z</time></trkpt>
<trkpt lat="54.2646490000" lon="-2.2440970000"><ele>589</ele><time>2013-11-17T11:34:36Z</time></trkpt>
<trkpt lat="54.2646190000" lon="-2.2440870000"><ele>589</ele><time>2013-11-17T11:34:38Z</time></trkpt>
<trkpt lat="54.2645950000" lon="-2.2440750000"><ele>583</ele><time>2013-11-17T11:34:40Z</time></trkpt>
<trkpt lat="54.2645730000" lon="-2.2440640000"><ele>583</ele><time>2013-11-17T11:34:42Z</time></trkpt>
<trkpt lat="54.2645480000" lon="-2.2440730000"><ele>583</ele><time>2013-11-17T11:34:46Z</time></trkpt>
<trkpt lat="54.2645180000" lon="-2.2440770000"><ele>583</ele><time>2013-11-17T11:34:49Z</time></trkpt>
<trkpt lat="54.2644880000" lon="-2.2440920000"><ele>589</ele><time>2013-11-17T11:34:52Z</time></trkpt>
<trkpt lat="54.2644540000" lon="-2.2440900000"><ele>589</ele><time>2013-11-17T11:34:55Z</time></trkpt>
<trkpt lat="54.2644170000" lon="-2.2440920000"><ele>589</ele><time>2013-11-17T11:34:58Z</time></trkpt>
<trkpt lat="54.2643890000" lon="-2.2441040000"><ele>589</ele><time>2013-11-17T11:35:00Z</time></trkpt>
<trkpt lat="54.2643650000" lon="-2.2441220000"><ele>589</ele><time>2013-11-17T11:35:02Z</time></trkpt>
<trkpt lat="54.2643280000" lon="-2.2441320000"><ele>589</ele><time>2013-11-17T11:35:05Z</time></trkpt>
<trkpt lat="54.2642960000" lon="-2.2441340000"><ele>589</ele><time>2013-11-17T11:35:08Z</time></trkpt>
<trkpt lat="54.2642660000" lon="-2.2441350000"><ele>589</ele><time>2013-11-17T11:35:11Z</time></trkpt>
<trkpt lat="54.2642420000" lon="-2.2441420000"><ele>589</ele><time>2013-11-17T11:35:14Z</time></trkpt>
<trkpt lat="54.2642150000" lon="-2.2441460000"><ele>589</ele><time>2013-11-17T11:35:17Z</time></trkpt>
<trkpt lat="54.2641860000" lon="-2.2441460000"><ele>589</ele><time>2013-11-17T11:35:20Z</time></trkpt>
<trkpt lat="54.2641620000" lon="-2.2441470000"><ele>589</ele><time>2013-11-17T11:35:22Z</time></trkpt>
<trkpt lat="54.2641310000" lon="-2.2441460000"><ele>589</ele><time>2013-11-17T11:35:25Z</time></trkpt>
<trkpt lat="54.2641020000" lon="-2.2441510000"><ele>589</ele><time>2013-11-17T11:35:28Z</time></trkpt>
<trkpt lat="54.2640810000" lon="-2.2441670000"><ele>589</ele><time>2013-11-17T11:35:30Z</time></trkpt>
<trkpt lat="54.2640590000" lon="-2.2441780000"><ele>589</ele><time>2013-11-17T11:35:32Z</time></trkpt>
<trkpt lat="54.2640360000" lon="-2.2441940000"><ele>589</ele><time>2013-11-17T11:35:34Z</time></trkpt>
<trkpt lat="54.2640070000" lon="-2.2442110000"><ele>610</ele><time>2013-11-17T11:35:37Z</time></trkpt>
<trkpt lat="54.2639730000" lon="-2.2442100000"><ele>610</ele><time>2013-11-17T11:35:40Z</time></trkpt>
<trkpt lat="54.2639460000" lon="-2.2442110000"><ele>610</ele><time>2013-11-17T11:35:42Z</time></trkpt>
<trkpt lat="54.2639130000" lon="-2.2442130000"><ele>610</ele><time>2013-11-17T11:35:45Z</time></trkpt>
<trkpt lat="54.2638840000" lon="-2.2442110000"><ele>610</ele><time>2013-11-17T11:35:48Z</time></trkpt>
<trkpt lat="54.2638610000" lon="-2.2442180000"><ele>610</ele><time>2013-11-17T11:35:50Z</time></trkpt>
<trkpt lat="54.2638310000" lon="-2.2442190000"><ele>610</ele><time>2013-11-17T11:35:53Z</time></trkpt>
<trkpt lat="54.2638030000" lon="-2.2442150000"><ele>610</ele><time>2013-11-17T11:35:56Z</time></trkpt>
<trkpt lat="54.2637710000" lon="-2.2442240000"><ele>610</ele><time>2013-11-17T11:35:59Z</time></trkpt>
<trkpt lat="54.2637460000" lon="-2.2442290000"><ele>610</ele><time>2013-11-17T11:36:01Z</time></trkpt>
<trkpt lat="54.2637190000" lon="-2.2442340000"><ele>610</ele><time>2013-11-17T11:36:03Z</time></trkpt>
<trkpt lat="54.2636930000" lon="-2.2442380000"><ele>610</ele><time>2013-11-17T11:36:05Z</time></trkpt>
<trkpt lat="54.2636680000" lon="-2.2442390000"><ele>610</ele><time>2013-11-17T11:36:07Z</time></trkpt>
<trkpt lat="54.2636410000" lon="-2.2442390000"><ele>610</ele><time>2013-11-17T11:36:09Z</time></trkpt>
<trkpt lat="54.2636180000" lon="-2.2442370000"><ele>610</ele><time>2013-11-17T11:36:11Z</time></trkpt>
<trkpt lat="54.2635980000" lon="-2.2442320000"><ele>610</ele><time>2013-11-17T11:36:13Z</time></trkpt>
<trkpt lat="54.2635680000" lon="-2.2442350000"><ele>610</ele><time>2013-11-17T11:36:16Z</time></trkpt>
<trkpt lat="54.2635450000" lon="-2.2442360000"><ele>610</ele><time>2013-11-17T11:36:18Z</time></trkpt>
<trkpt lat="54.2635200000" lon="-2.2442370000"><ele>610</ele><time>2013-11-17T11:36:20Z</time></trkpt>
<trkpt lat="54.2634900000" lon="-2.2442390000"><ele>610</ele><time>2013-11-17T11:36:22Z</time></trkpt>
<trkpt lat="54.2634790000" lon="-2.2442370000"><ele>610</ele><time>2013-11-17T11:36:23Z</time></trkpt>
<trkpt lat="54.2634670000" lon="-2.2442360000"><ele>610</ele><time>2013-11-17T11:36:24Z</time></trkpt>
<trkpt lat="54.2634560000" lon="-2.2442340000"><ele>610</ele><time>2013-11-17T11:36:25Z</time></trkpt>
<trkpt lat="54.2634430000" lon="-2.2442340000"><ele>610</ele><time>2013-11-17T11:36:26Z</time></trkpt>
<trkpt lat="54.2634290000" lon="-2.2442330000"><ele>610</ele><time>2013-11-17T11:36:27Z</time></trkpt>
<trkpt lat="54.2634170000" lon="-2.2442330000"><ele>610</ele><time>2013-11-17T11:36:28Z</time></trkpt>
<trkpt lat="54.2634040000" lon="-2.2442320000"><ele>610</ele><time>2013-11-17T11:36:29Z</time></trkpt>
<trkpt lat="54.2633940000" lon="-2.2442330000"><ele>610</ele><time>2013-11-17T11:36:30Z</time></trkpt>
<trkpt lat="54.2633830000" lon="-2.2442350000"><ele>610</ele><time>2013-11-17T11:36:31Z</time></trkpt>
<trkpt lat="54.2633720000" lon="-2.2442360000"><ele>610</ele><time>2013-11-17T11:36:32Z</time></trkpt>
<trkpt lat="54.2633590000" lon="-2.2442380000"><ele>610</ele><time>2013-11-17T11:36:33Z</time></trkpt>
<trkpt lat="54.2633460000" lon="-2.2442430000"><ele>610</ele><time>2013-11-17T11:36:34Z</time></trkpt>
<trkpt lat="54.2633330000" lon="-2.2442450000"><ele>610</ele><time>2013-11-17T11:36:35Z</time></trkpt>
<trkpt lat="54.2633200000" lon="-2.2442480000"><ele>610</ele><time>2013-11-17T11:36:36Z</time></trkpt>
<trkpt lat="54.2633080000" lon="-2.2442510000"><ele>610</ele><time>2013-11-17T11:36:37Z</time></trkpt>
<trkpt lat="54.2632970000" lon="-2.2442540000"><ele>610</ele><time>2013-11-17T11:36:38Z</time></trkpt>
<trkpt lat="54.2632860000" lon="-2.2442570000"><ele>610</ele><time>2013-11-17T11:36:39Z</time></trkpt>
<trkpt lat="54.2632740000" lon="-2.2442590000"><ele>610</ele><time>2013-11-17T11:36:40Z</time></trkpt>
<trkpt lat="54.2632630000" lon="-2.2442590000"><ele>610</ele><time>2013-11-17T11:36:41Z</time></trkpt>
<trkpt lat="54.2632530000" lon="-2.2442620000"><ele>610</ele><time>2013-11-17T11:36:42Z</time></trkpt>
<trkpt lat="54.2632420000" lon="-2.2442640000"><ele>610</ele><time>2013-11-17T11:36:43Z</time></trkpt>
<trkpt lat="54.2632300000" lon="-2.2442640000"><ele>610</ele><time>2013-11-17T11:36:44Z</time></trkpt>
<trkpt lat="54.2632180000" lon="-2.2442630000"><ele>610</ele><time>2013-11-17T11:36:45Z</time></trkpt>
<trkpt lat="54.2632070000" lon="-2.2442630000"><ele>610</ele><time>2013-11-17T11:36:46Z</time></trkpt>
<trkpt lat="54.2631960000" lon="-2.2442620000"><ele>610</ele><time>2013-11-17T11:36:47Z</time></trkpt>
<trkpt lat="54.2631850000" lon="-2.2442590000"><ele>610</ele><time>2013-11-17T11:36:48Z</time></trkpt>
<trkpt lat="54.2631750000" lon="-2.2442580000"><ele>610</ele><time>2013-11-17T11:36:49Z</time></trkpt>
<trkpt lat="54.2631650000" lon="-2.2442580000"><ele>610</ele><time>2013-11-17T11:36:50Z</time></trkpt>
<trkpt lat="54.2631550000" lon="-2.2442560000"><ele>610</ele><time>2013-11-17T11:36:51Z</time></trkpt>
<trkpt lat="54.2631460000" lon="-2.2442570000"><ele>610</ele><time>2013-11-17T11:36:52Z</time></trkpt>
<trkpt lat="54.2631360000" lon="-2.2442590000"><ele>610</ele><time>2013-11-17T11:36:53Z</time></trkpt>
<trkpt lat="54.2631260000" lon="-2.2442600000"><ele>610</ele><time>2013-11-17T11:36:54Z</time></trkpt>
<trkpt lat="54.2631150000" lon="-2.2442620000"><ele>610</ele><time>2013-11-17T11:36:55Z</time></trkpt>
<trkpt lat="54.2631030000" lon="-2.2442630000"><ele>610</ele><time>2013-11-17T11:36:56Z</time></trkpt>
<trkpt lat="54.2630930000" lon="-2.2442650000"><ele>610</ele><time>2013-11-17T11:36:57Z</time></trkpt>
<trkpt lat="54.2630830000" lon="-2.2442670000"><ele>610</ele><time>2013-11-17T11:36:58Z</time></trkpt>
<trkpt lat="54.2630740000" lon="-2.2442670000"><ele>610</ele><time>2013-11-17T11:36:59Z</time></trkpt>
<trkpt lat="54.2630650000" lon="-2.2442680000"><ele>610</ele><time>2013-11-17T11:37:00Z</time></trkpt>
<trkpt lat="54.2630550000" lon="-2.2442680000"><ele>610</ele><time>2013-11-17T11:37:01Z</time></trkpt>
<trkpt lat="54.2630460000" lon="-2.2442690000"><ele>610</ele><time>2013-11-17T11:37:02Z</time></trkpt>
<trkpt lat="54.2630380000" lon="-2.2442690000"><ele>610</ele><time>2013-11-17T11:37:03Z</time></trkpt>
<trkpt lat="54.2630290000" lon="-2.2442700000"><ele>610</ele><time>2013-11-17T11:37:04Z</time></trkpt>
<trkpt lat="54.2630200000" lon="-2.2442690000"><ele>610</ele><time>2013-11-17T11:37:05Z</time></trkpt>
<trkpt lat="54.2630110000" lon="-2.2442710000"><ele>610</ele><time>2013-11-17T11:37:06Z</time></trkpt>
<trkpt lat="54.2630020000" lon="-2.2442720000"><ele>610</ele><time>2013-11-17T11:37:07Z</time></trkpt>
<trkpt lat="54.2629930000" lon="-2.2442710000"><ele>610</ele><time>2013-11-17T11:37:08Z</time></trkpt>
<trkpt lat="54.2629830000" lon="-2.2442710000"><ele>610</ele><time>2013-11-17T11:37:09Z</time></trkpt>
<trkpt lat="54.2629720000" lon="-2.2442680000"><ele>610</ele><time>2013-11-17T11:37:10Z</time></trkpt>
<trkpt lat="54.2629630000" lon="-2.2442620000"><ele>610</ele><time>2013-11-17T11:37:11Z</time></trkpt>
<trkpt lat="54.2629530000" lon="-2.2442580000"><ele>610</ele><time>2013-11-17T11:37:12Z</time></trkpt>
<trkpt lat="54.2629430000" lon="-2.2442570000"><ele>610</ele><time>2013-11-17T11:37:13Z</time></trkpt>
<trkpt lat="54.2629330000" lon="-2.2442550000"><ele>610</ele><time>2013-11-17T11:37:14Z</time></trkpt>
<trkpt lat="54.2629240000" lon="-2.2442520000"><ele>610</ele><time>2013-11-17T11:37:15Z</time></trkpt>
<trkpt lat="54.2629140000" lon="-2.2442500000"><ele>610</ele><time>2013-11-17T11:37:16Z</time></trkpt>
<trkpt lat="54.2629070000" lon="-2.2442480000"><ele>610</ele><time>2013-11-17T11:37:17Z</time></trkpt>
<trkpt lat="54.2628980000" lon="-2.2442480000"><ele>610</ele><time>2013-11-17T11:37:18Z</time></trkpt>
<trkpt lat="54.2628880000" lon="-2.2442500000"><ele>610</ele><time>2013-11-17T11:37:19Z</time></trkpt>
<trkpt lat="54.2628780000" lon="-2.2442520000"><ele>610</ele><time>2013-11-17T11:37:20Z</time></trkpt>
<trkpt lat="54.2628670000" lon="-2.2442510000"><ele>610</ele><time>2013-11-17T11:37:21Z</time></trkpt>
<trkpt lat="54.2628560000" lon="-2.2442490000"><ele>610</ele><time>2013-11-17T11:37:22Z</time></trkpt>
<trkpt lat="54.2628440000" lon="-2.2442490000"><ele>610</ele><time>2013-11-17T11:37:23Z</time></trkpt>
<trkpt lat="54.2628320000" lon="-2.2442490000"><ele>610</ele><time>2013-11-17T11:37:24Z</time></trkpt>
<trkpt lat="54.2628200000" lon="-2.2442480000"><ele>610</ele><time>2013-11-17T11:37:25Z</time></trkpt>
<trkpt lat="54.2628090000" lon="-2.2442490000"><ele>610</ele><time>2013-11-17T11:37:26Z</time></trkpt>
<trkpt lat="54.2627980000" lon="-2.2442460000"><ele>610</ele><time>2013-11-17T11:37:27Z</time></trkpt>
<trkpt lat="54.2627850000" lon="-2.2442400000"><ele>610</ele><time>2013-11-17T11:37:28Z</time></trkpt>
<trkpt lat="54.2627730000" lon="-2.2442350000"><ele>610</ele><time>2013-11-17T11:37:29Z</time></trkpt>
<trkpt lat="54.2627640000" lon="-2.2442340000"><ele>610</ele><time>2013-11-17T11:37:30Z</time></trkpt>
<trkpt lat="54.2627550000" lon="-2.2442320000"><ele>610</ele><time>2013-11-17T11:37:31Z</time></trkpt>
<trkpt lat="54.2627450000" lon="-2.2442320000"><ele>610</ele><time>2013-11-17T11:37:32Z</time></trkpt>
<trkpt lat="54.2627350000" lon="-2.2442300000"><ele>610</ele><time>2013-11-17T11:37:33Z</time></trkpt>
<trkpt lat="54.2627240000" lon="-2.2442270000"><ele>610</ele><time>2013-11-17T11:37:34Z</time></trkpt>
<trkpt lat="54.2627130000" lon="-2.2442250000"><ele>610</ele><time>2013-11-17T11:37:35Z</time></trkpt>
<trkpt lat="54.2627020000" lon="-2.2442240000"><ele>610</ele><time>2013-11-17T11:37:36Z</time></trkpt>
<trkpt lat="54.2626900000" lon="-2.2442220000"><ele>610</ele><time>2013-11-17T11:37:37Z</time></trkpt>
<trkpt lat="54.2626780000" lon="-2.2442160000"><ele>610</ele><time>2013-11-17T11:37:38Z</time></trkpt>
<trkpt lat="54.2626670000" lon="-2.2442090000"><ele>610</ele><time>2013-11-17T11:37:39Z</time></trkpt>
<trkpt lat="54.2626550000" lon="-2.2442060000"><ele>610</ele><time>2013-11-17T11:37:40Z</time></trkpt>
<trkpt lat="54.2626430000" lon="-2.2442070000"><ele>610</ele><time>2013-11-17T11:37:41Z</time></trkpt>
<trkpt lat="54.2626320000" lon="-2.2442080000"><ele>610</ele><time>2013-11-17T11:37:42Z</time></trkpt>
<trkpt lat="54.2626200000" lon="-2.2442070000"><ele>610</ele><time>2013-11-17T11:37:43Z</time></trkpt>
<trkpt lat="54.2626080000" lon="-2.2442060000"><ele>610</ele><time>2013-11-17T11:37:44Z</time></trkpt>
<trkpt lat="54.2625960000" lon="-2.2442040000"><ele>610</ele><time>2013-11-17T11:37:45Z</time></trkpt>
<trkpt lat="54.2625850000" lon="-2.2442030000"><ele>610</ele><time>2013-11-17T11:37:46Z</time></trkpt>
<trkpt lat="54.2625750000" lon="-2.2441960000"><ele>610</ele><time>2013-11-17T11:37:47Z</time></trkpt>
<trkpt lat="54.2625650000" lon="-2.2441890000"><ele>610</ele><time>2013-11-17T11:37:48Z</time></trkpt>
<trkpt lat="54.2625530000" lon="-2.2441850000"><ele>610</ele><time>2013-11-17T11:37:49Z</time></trkpt>
<trkpt lat="54.2625410000" lon="-2.2441800000"><ele>610</ele><time>2013-11-17T11:37:50Z</time></trkpt>
<trkpt lat="54.2625290000" lon="-2.2441750000"><ele>610</ele><time>2013-11-17T11:37:51Z</time></trkpt>
<trkpt lat="54.2625180000" lon="-2.2441710000"><ele>610</ele><time>2013-11-17T11:37:52Z</time></trkpt>
<trkpt lat="54.2625070000" lon="-2.2441660000"><ele>610</ele><time>2013-11-17T11:37:53Z</time></trkpt>
<trkpt lat="54.2624960000" lon="-2.2441600000"><ele>610</ele><time>2013-11-17T11:37:54Z</time></trkpt>
<trkpt lat="54.2624850000" lon="-2.2441550000"><ele>610</ele><time>2013-11-17T11:37:55Z</time></trkpt>
<trkpt lat="54.2624740000" lon="-2.2441490000"><ele>610</ele><time>2013-11-17T11:37:56Z</time></trkpt>
<trkpt lat="54.2624640000" lon="-2.2441440000"><ele>610</ele><time>2013-11-17T11:37:57Z</time></trkpt>
<trkpt lat="54.2624530000" lon="-2.2441360000"><ele>610</ele><time>2013-11-17T11:37:58Z</time></trkpt>
<trkpt lat="54.2624430000" lon="-2.2441260000"><ele>610</ele><time>2013-11-17T11:37:59Z</time></trkpt>
<trkpt lat="54.2624320000" lon="-2.2441180000"><ele>610</ele><time>2013-11-17T11:38:00Z</time></trkpt>
<trkpt lat="54.2624110000" lon="-2.2441090000"><ele>610</ele><time>2013-11-17T11:38:02Z</time></trkpt>
<trkpt lat="54.2623860000" lon="-2.2440830000"><ele>610</ele><time>2013-11-17T11:38:04Z</time></trkpt>
<trkpt lat="54.2623690000" lon="-2.2440600000"><ele>597</ele><time>2013-11-17T11:38:06Z</time></trkpt>
<trkpt lat="54.2623410000" lon="-2.2440550000"><ele>597</ele><time>2013-11-17T11:38:09Z</time></trkpt>
<trkpt lat="54.2623130000" lon="-2.2440570000"><ele>597</ele><time>2013-11-17T11:38:12Z</time></trkpt>
<trkpt lat="54.2622830000" lon="-2.2440530000"><ele>597</ele><time>2013-11-17T11:38:15Z</time></trkpt>
<trkpt lat="54.2622560000" lon="-2.2440540000"><ele>597</ele><time>2013-11-17T11:38:18Z</time></trkpt>
<trkpt lat="54.2622230000" lon="-2.2440440000"><ele>597</ele><time>2013-11-17T11:38:22Z</time></trkpt>
<trkpt lat="54.2621860000" lon="-2.2440260000"><ele>624</ele><time>2013-11-17T11:38:30Z</time></trkpt>
<trkpt lat="54.2621540000" lon="-2.2439970000"><ele>624</ele><time>2013-11-17T11:38:36Z</time></trkpt>
<trkpt lat="54.2621220000" lon="-2.2440010000"><ele>624</ele><time>2013-11-17T11:38:39Z</time></trkpt>
<trkpt lat="54.2620940000" lon="-2.2439990000"><ele>624</ele><time>2013-11-17T11:38:42Z</time></trkpt>
<trkpt lat="54.2620640000" lon="-2.2440050000"><ele>624</ele><time>2013-11-17T11:38:45Z</time></trkpt>
<trkpt lat="54.2620330000" lon="-2.2440100000"><ele>624</ele><time>2013-11-17T11:38:48Z</time></trkpt>
<trkpt lat="54.2620070000" lon="-2.2440130000"><ele>624</ele><time>2013-11-17T11:38:50Z</time></trkpt>
<trkpt lat="54.2619820000" lon="-2.2440080000"><ele>624</ele><time>2013-11-17T11:38:52Z</time></trkpt>
<trkpt lat="54.2619590000" lon="-2.2439910000"><ele>624</ele><time>2013-11-17T11:38:54Z</time></trkpt>
<trkpt lat="54.2619340000" lon="-2.2439750000"><ele>624</ele><time>2013-11-17T11:38:56Z</time></trkpt>
<trkpt lat="54.2619070000" lon="-2.2439570000"><ele>624</ele><time>2013-11-17T11:38:59Z</time></trkpt>
<trkpt lat="54.2618840000" lon="-2.2439610000"><ele>624</ele><time>2013-11-17T11:39:02Z</time></trkpt>
<trkpt lat="54.2618640000" lon="-2.2439730000"><ele>624</ele><time>2013-11-17T11:39:05Z</time></trkpt>
<trkpt lat="54.2618400000" lon="-2.2439810000"><ele>624</ele><time>2013-11-17T11:39:08Z</time></trkpt>
<trkpt lat="54.2618220000" lon="-2.2439900000"><ele>624</ele><time>2013-11-17T11:39:10Z</time></trkpt>
<trkpt lat="54.2618020000" lon="-2.2439970000"><ele>624</ele><time>2013-11-17T11:39:12Z</time></trkpt>
<trkpt lat="54.2617820000" lon="-2.2440010000"><ele>624</ele><time>2013-11-17T11:39:14Z</time></trkpt>
<trkpt lat="54.2617600000" lon="-2.2440030000"><ele>624</ele><time>2013-11-17T11:39:16Z</time></trkpt>
<trkpt lat="54.2617330000" lon="-2.2440080000"><ele>624</ele><time>2013-11-17T11:39:18Z</time></trkpt>
<trkpt lat="54.2617100000" lon="-2.2440100000"><ele>624</ele><time>2013-11-17T11:39:20Z</time></trkpt>
<trkpt lat="54.2616900000" lon="-2.2440150000"><ele>624</ele><time>2013-11-17T11:39:22Z</time></trkpt>
<trkpt lat="54.2616720000" lon="-2.2440280000"><ele>624</ele><time>2013-11-17T11:39:24Z</time></trkpt>
<trkpt lat="54.2616490000" lon="-2.2440390000"><ele>624</ele><time>2013-11-17T11:39:27Z</time></trkpt>
<trkpt lat="54.2616190000" lon="-2.2440510000"><ele>624</ele><time>2013-11-17T11:39:30Z</time></trkpt>
<trkpt lat="54.2615980000" lon="-2.2440680000"><ele>633</ele><time>2013-11-17T11:39:32Z</time></trkpt>
<trkpt lat="54.2615780000" lon="-2.2440850000"><ele>633</ele><time>2013-11-17T11:39:34Z</time></trkpt>
<trkpt lat="54.2615580000" lon="-2.2441080000"><ele>633</ele><time>2013-11-17T11:39:36Z</time></trkpt>
<trkpt lat="54.2615340000" lon="-2.2441260000"><ele>633</ele><time>2013-11-17T11:39:38Z</time></trkpt>
<trkpt lat="54.2615150000" lon="-2.2441360000"><ele>633</ele><time>2013-11-17T11:39:40Z</time></trkpt>
<trkpt lat="54.2614980000" lon="-2.2441490000"><ele>633</ele><time>2013-11-17T11:39:42Z</time></trkpt>
<trkpt lat="54.2614730000" lon="-2.2441570000"><ele>633</ele><time>2013-11-17T11:39:45Z</time></trkpt>
<trkpt lat="54.2614520000" lon="-2.2441630000"><ele>633</ele><time>2013-11-17T11:39:47Z</time></trkpt>
<trkpt lat="54.2614310000" lon="-2.2441740000"><ele>633</ele><time>2013-11-17T11:39:49Z</time></trkpt>
<trkpt lat="54.2614110000" lon="-2.2441910000"><ele>633</ele><time>2013-11-17T11:39:51Z</time></trkpt>
<trkpt lat="54.2613890000" lon="-2.2442080000"><ele>633</ele><time>2013-11-17T11:39:53Z</time></trkpt>
<trkpt lat="54.2613670000" lon="-2.2442300000"><ele>633</ele><time>2013-11-17T11:39:55Z</time></trkpt>
<trkpt lat="54.2613500000" lon="-2.2442520000"><ele>633</ele><time>2013-11-17T11:39:57Z</time></trkpt>
<trkpt lat="54.2613300000" lon="-2.2442680000"><ele>633</ele><time>2013-11-17T11:39:59Z</time></trkpt>
<trkpt lat="54.2613010000" lon="-2.2442800000"><ele>633</ele><time>2013-11-17T11:40:02Z</time></trkpt>
<trkpt lat="54.2612740000" lon="-2.2442800000"><ele>633</ele><time>2013-11-17T11:40:05Z</time></trkpt>
<trkpt lat="54.2612500000" lon="-2.2442880000"><ele>633</ele><time>2013-11-17T11:40:08Z</time></trkpt>
<trkpt lat="54.2612290000" lon="-2.2443020000"><ele>633</ele><time>2013-11-17T11:40:11Z</time></trkpt>
<trkpt lat="54.2612040000" lon="-2.2443190000"><ele>633</ele><time>2013-11-17T11:40:14Z</time></trkpt>
<trkpt lat="54.2611820000" lon="-2.2443470000"><ele>633</ele><time>2013-11-17T11:40:17Z</time></trkpt>
<trkpt lat="54.2611560000" lon="-2.2443720000"><ele>633</ele><time>2013-11-17T11:40:20Z</time></trkpt>
<trkpt lat="54.2611310000" lon="-2.2444050000"><ele>633</ele><time>2013-11-17T11:40:23Z</time></trkpt>
<trkpt lat="54.2611090000" lon="-2.2444300000"><ele>633</ele><time>2013-11-17T11:40:25Z</time></trkpt>
<trkpt lat="54.2610870000" lon="-2.2444460000"><ele>633</ele><time>2013-11-17T11:40:27Z</time></trkpt>
<trkpt lat="54.2610660000" lon="-2.2444510000"><ele>633</ele><time>2013-11-17T11:40:29Z</time></trkpt>
<trkpt lat="54.2610450000" lon="-2.2444460000"><ele>633</ele><time>2013-11-17T11:40:31Z</time></trkpt>
<trkpt lat="54.2610260000" lon="-2.2444600000"><ele>633</ele><time>2013-11-17T11:40:33Z</time></trkpt>
<trkpt lat="54.2610020000" lon="-2.2444690000"><ele>633</ele><time>2013-11-17T11:40:35Z</time></trkpt>
<trkpt lat="54.2609830000" lon="-2.2444790000"><ele>633</ele><time>2013-11-17T11:40:37Z</time></trkpt>
<trkpt lat="54.2609630000" lon="-2.2444970000"><ele>633</ele><time>2013-11-17T11:40:39Z</time></trkpt>
<trkpt lat="54.2609450000" lon="-2.2445240000"><ele>633</ele><time>2013-11-17T11:40:41Z</time></trkpt>
<trkpt lat="54.2609280000" lon="-2.2445450000"><ele>633</ele><time>2013-11-17T11:40:43Z</time></trkpt>
<trkpt lat="54.2609090000" lon="-2.2445720000"><ele>633</ele><time>2013-11-17T11:40:45Z</time></trkpt>
<trkpt lat="54.2609000000" lon="-2.2445770000"><ele>633</ele><time>2013-11-17T11:40:46Z</time></trkpt>
<trkpt lat="54.2608910000" lon="-2.2445840000"><ele>633</ele><time>2013-11-17T11:40:47Z</time></trkpt>
<trkpt lat="54.2608810000" lon="-2.2445900000"><ele>633</ele><time>2013-11-17T11:40:48Z</time></trkpt>
<trkpt lat="54.2608720000" lon="-2.2445960000"><ele>633</ele><time>2013-11-17T11:40:49Z</time></trkpt>
<trkpt lat="54.2608630000" lon="-2.2446020000"><ele>633</ele><time>2013-11-17T11:40:50Z</time></trkpt>
<trkpt lat="54.2608540000" lon="-2.2446090000"><ele>633</ele><time>2013-11-17T11:40:51Z</time></trkpt>
<trkpt lat="54.2608470000" lon="-2.2446110000"><ele>633</ele><time>2013-11-17T11:40:52Z</time></trkpt>
<trkpt lat="54.2608410000" lon="-2.2446090000"><ele>633</ele><time>2013-11-17T11:40:53Z</time></trkpt>
<trkpt lat="54.2608380000" lon="-2.2446100000"><ele>633</ele><time>2013-11-17T11:40:54Z</time></trkpt>
<trkpt lat="54.2608360000" lon="-2.2446150000"><ele>633</ele><time>2013-11-17T11:40:55Z</time></trkpt>
<trkpt lat="54.2608350000" lon="-2.2446170000"><ele>633</ele><time>2013-11-17T11:40:56Z</time></trkpt>
<trkpt lat="54.2608350000" lon="-2.2446170000"><ele>633</ele><time>2013-11-17T11:40:57Z</time></trkpt>
<trkpt lat="54.2608350000" lon="-2.2446170000"><ele>633</ele><time>2013-11-17T11:40:58Z</time></trkpt>
<trkpt lat="54.2608350000" lon="-2.2446160000"><ele>633</ele><time>2013-11-17T11:40:59Z</time></trkpt>
<trkpt lat="54.2608360000" lon="-2.2446150000"><ele>633</ele><time>2013-11-17T11:41:00Z</time></trkpt>
<trkpt lat="54.2608360000" lon="-2.2446150000"><ele>633</ele><time>2013-11-17T11:41:01Z</time></trkpt>
<trkpt lat="54.2608370000" lon="-2.2446150000"><ele>633</ele><time>2013-11-17T11:41:02Z</time></trkpt>
<trkpt lat="54.2608380000" lon="-2.2446150000"><ele>633</ele><time>2013-11-17T11:41:03Z</time></trkpt>
<trkpt lat="54.2608380000" lon="-2.2446150000"><ele>633</ele><time>2013-11-17T11:41:04Z</time></trkpt>
<trkpt lat="54.2608380000" lon="-2.2446150000"><ele>633</ele><time>2013-11-17T11:41:05Z</time></trkpt>
<trkpt lat="54.2608380000" lon="-2.2446150000"><ele>633</ele><time>2013-11-17T11:41:06Z</time></trkpt>
<trkpt lat="54.2608390000" lon="-2.2446140000"><ele>633</ele><time>2013-11-17T11:41:07Z</time></trkpt>
<trkpt lat="54.2608400000" lon="-2.2446140000"><ele>633</ele><time>2013-11-17T11:41:08Z</time></trkpt>
<trkpt lat="54.2608400000" lon="-2.2446140000"><ele>633</ele><time>2013-11-17T11:41:09Z</time></trkpt>
<trkpt lat="54.2608380000" lon="-2.2446190000"><ele>633</ele><time>2013-11-17T11:41:10Z</time></trkpt>
<trkpt lat="54.2608320000" lon="-2.2446260000"><ele>633</ele><time>2013-11-17T11:41:11Z</time></trkpt>
<trkpt lat="54.2608240000" lon="-2.2446330000"><ele>633</ele><time>2013-11-17T11:41:12Z</time></trkpt>
<trkpt lat="54.2608160000" lon="-2.2446400000"><ele>633</ele><time>2013-11-17T11:41:13Z</time></trkpt>
<trkpt lat="54.2608080000" lon="-2.2446490000"><ele>633</ele><time>2013-11-17T11:41:14Z</time></trkpt>
<trkpt lat="54.2608000000" lon="-2.2446600000"><ele>633</ele><time>2013-11-17T11:41:15Z</time></trkpt>
<trkpt lat="54.2607920000" lon="-2.2446700000"><ele>633</ele><time>2013-11-17T11:41:16Z</time></trkpt>
<trkpt lat="54.2607840000" lon="-2.2446800000"><ele>633</ele><time>2013-11-17T11:41:17Z</time></trkpt>
<trkpt lat="54.2607760000" lon="-2.2446890000"><ele>633</ele><time>2013-11-17T11:41:18Z</time></trkpt>
<trkpt lat="54.2607690000" lon="-2.2446970000"><ele>633</ele><time>2013-11-17T11:41:19Z</time></trkpt>
<trkpt lat="54.2607600000" lon="-2.2447060000"><ele>633</ele><time>2013-11-17T11:41:20Z</time></trkpt>
<trkpt lat="54.2607490000" lon="-2.2447140000"><ele>633</ele><time>2013-11-17T11:41:21Z</time></trkpt>
<trkpt lat="54.2607370000" lon="-2.2447200000"><ele>633</ele><time>2013-11-17T11:41:22Z</time></trkpt>
<trkpt lat="54.2607280000" lon="-2.2447280000"><ele>633</ele><time>2013-11-17T11:41:23Z</time></trkpt>
<trkpt lat="54.2607190000" lon="-2.2447360000"><ele>633</ele><time>2013-11-17T11:41:24Z</time></trkpt>
<trkpt lat="54.2607100000" lon="-2.2447510000"><ele>633</ele><time>2013-11-17T11:41:25Z</time></trkpt>
<trkpt lat="54.2607010000" lon="-2.2447680000"><ele>633</ele><time>2013-11-17T11:41:26Z</time></trkpt>
<trkpt lat="54.2606950000" lon="-2.2447800000"><ele>633</ele><time>2013-11-17T11:41:27Z</time></trkpt>
<trkpt lat="54.2606880000" lon="-2.2447880000"><ele>633</ele><time>2013-11-17T11:41:28Z</time></trkpt>
<trkpt lat="54.2606800000" lon="-2.2447910000"><ele>633</ele><time>2013-11-17T11:41:29Z</time></trkpt>
<trkpt lat="54.2606720000" lon="-2.2447950000"><ele>633</ele><time>2013-11-17T11:41:30Z</time></trkpt>
<trkpt lat="54.2606530000" lon="-2.2448080000"><ele>633</ele><time>2013-11-17T11:41:33Z</time></trkpt>
<trkpt lat="54.2606290000" lon="-2.2448360000"><ele>633</ele><time>2013-11-17T11:41:36Z</time></trkpt>
<trkpt lat="54.2606150000" lon="-2.2448570000"><ele>633</ele><time>2013-11-17T11:41:38Z</time></trkpt>
<trkpt lat="54.2605960000" lon="-2.2448830000"><ele>633</ele><time>2013-11-17T11:41:40Z</time></trkpt>
<trkpt lat="54.2605720000" lon="-2.2449130000"><ele>633</ele><time>2013-11-17T11:41:42Z</time></trkpt>
<trkpt lat="54.2605440000" lon="-2.2449470000"><ele>633</ele><time>2013-11-17T11:41:45Z</time></trkpt>
<trkpt lat="54.2605210000" lon="-2.2449730000"><ele>633</ele><time>2013-11-17T11:41:47Z</time></trkpt>
<trkpt lat="54.2605010000" lon="-2.2449980000"><ele>633</ele><time>2013-11-17T11:41:49Z</time></trkpt>
<trkpt lat="54.2604830000" lon="-2.2450260000"><ele>633</ele><time>2013-11-17T11:41:51Z</time></trkpt>
<trkpt lat="54.2604660000" lon="-2.2450540000"><ele>633</ele><time>2013-11-17T11:41:53Z</time></trkpt>
<trkpt lat="54.2604500000" lon="-2.2450720000"><ele>633</ele><time>2013-11-17T11:41:55Z</time></trkpt>
<trkpt lat="54.2604350000" lon="-2.2451010000"><ele>633</ele><time>2013-11-17T11:41:57Z</time></trkpt>
<trkpt lat="54.2604190000" lon="-2.2451320000"><ele>633</ele><time>2013-11-17T11:41:59Z</time></trkpt>
<trkpt lat="54.2603960000" lon="-2.2451600000"><ele>652</ele><time>2013-11-17T11:42:01Z</time></trkpt>
<trkpt lat="54.2603780000" lon="-2.2451870000"><ele>652</ele><time>2013-11-17T11:42:03Z</time></trkpt>
<trkpt lat="54.2603530000" lon="-2.2452200000"><ele>652</ele><time>2013-11-17T11:42:05Z</time></trkpt>
<trkpt lat="54.2603290000" lon="-2.2452500000"><ele>652</ele><time>2013-11-17T11:42:07Z</time></trkpt>
<trkpt lat="54.2603120000" lon="-2.2452730000"><ele>652</ele><time>2013-11-17T11:42:09Z</time></trkpt>
<trkpt lat="54.2602940000" lon="-2.2453000000"><ele>652</ele><time>2013-11-17T11:42:11Z</time></trkpt>
<trkpt lat="54.2602760000" lon="-2.2453280000"><ele>652</ele><time>2013-11-17T11:42:13Z</time></trkpt>
<trkpt lat="54.2602580000" lon="-2.2453620000"><ele>652</ele><time>2013-11-17T11:42:15Z</time></trkpt>
<trkpt lat="54.2602400000" lon="-2.2453910000"><ele>652</ele><time>2013-11-17T11:42:17Z</time></trkpt>
<trkpt lat="54.2602260000" lon="-2.2454160000"><ele>652</ele><time>2013-11-17T11:42:19Z</time></trkpt>
<trkpt lat="54.2602210000" lon="-2.2454350000"><ele>652</ele><time>2013-11-17T11:42:24Z</time></trkpt>
<trkpt lat="54.2602210000" lon="-2.2454350000"><ele>652</ele><time>2013-11-17T11:42:25Z</time></trkpt>
<trkpt lat="54.2602220000" lon="-2.2454350000"><ele>652</ele><time>2013-11-17T11:42:26Z</time></trkpt>
<trkpt lat="54.2602240000" lon="-2.2454330000"><ele>652</ele><time>2013-11-17T11:42:27Z</time></trkpt>
<trkpt lat="54.2601910000" lon="-2.2454470000"><ele>652</ele><time>2013-11-17T11:42:36Z</time></trkpt>
<trkpt lat="54.2601690000" lon="-2.2454780000"><ele>652</ele><time>2013-11-17T11:42:38Z</time></trkpt>
<trkpt lat="54.2601600000" lon="-2.2455170000"><ele>652</ele><time>2013-11-17T11:42:40Z</time></trkpt>
<trkpt lat="54.2601470000" lon="-2.2455450000"><ele>652</ele><time>2013-11-17T11:42:42Z</time></trkpt>
<trkpt lat="54.2601310000" lon="-2.2455720000"><ele>652</ele><time>2013-11-17T11:42:45Z</time></trkpt>
<trkpt lat="54.2601170000" lon="-2.2456140000"><ele>652</ele><time>2013-11-17T11:42:48Z</time></trkpt>
<trkpt lat="54.2601080000" lon="-2.2456480000"><ele>652</ele><time>2013-11-17T11:42:50Z</time></trkpt>
<trkpt lat="54.2600910000" lon="-2.2456950000"><ele>652</ele><time>2013-11-17T11:42:53Z</time></trkpt>
<trkpt lat="54.2600730000" lon="-2.2457350000"><ele>652</ele><time>2013-11-17T11:42:55Z</time></trkpt>
<trkpt lat="54.2600570000" lon="-2.2457650000"><ele>652</ele><time>2013-11-17T11:42:57Z</time></trkpt>
<trkpt lat="54.2600380000" lon="-2.2457910000"><ele>652</ele><time>2013-11-17T11:43:00Z</time></trkpt>
<trkpt lat="54.2600210000" lon="-2.2458380000"><ele>652</ele><time>2013-11-17T11:43:03Z</time></trkpt>
<trkpt lat="54.2600110000" lon="-2.2458800000"><ele>652</ele><time>2013-11-17T11:43:05Z</time></trkpt>
<trkpt lat="54.2599990000" lon="-2.2459220000"><ele>652</ele><time>2013-11-17T11:43:08Z</time></trkpt>
<trkpt lat="54.2599890000" lon="-2.2459690000"><ele>652</ele><time>2013-11-17T11:43:11Z</time></trkpt>
<trkpt lat="54.2599740000" lon="-2.2460110000"><ele>652</ele><time>2013-11-17T11:43:14Z</time></trkpt>
<trkpt lat="54.2599620000" lon="-2.2460500000"><ele>652</ele><time>2013-11-17T11:43:16Z</time></trkpt>
<trkpt lat="54.2599380000" lon="-2.2460810000"><ele>652</ele><time>2013-11-17T11:43:19Z</time></trkpt>
<trkpt lat="54.2598960000" lon="-2.2460820000"><ele>652</ele><time>2013-11-17T11:43:29Z</time></trkpt>
<trkpt lat="54.2598710000" lon="-2.2460680000"><ele>652</ele><time>2013-11-17T11:43:32Z</time></trkpt>
<trkpt lat="54.2598440000" lon="-2.2460550000"><ele>652</ele><time>2013-11-17T11:43:35Z</time></trkpt>
<trkpt lat="54.2598200000" lon="-2.2460530000"><ele>652</ele><time>2013-11-17T11:43:37Z</time></trkpt>
<trkpt lat="54.2597930000" lon="-2.2460500000"><ele>652</ele><time>2013-11-17T11:43:39Z</time></trkpt>
<trkpt lat="54.2597700000" lon="-2.2460400000"><ele>652</ele><time>2013-11-17T11:43:41Z</time></trkpt>
<trkpt lat="54.2597510000" lon="-2.2460240000"><ele>652</ele><time>2013-11-17T11:43:43Z</time></trkpt>
<trkpt lat="54.2597260000" lon="-2.2459950000"><ele>652</ele><time>2013-11-17T11:43:46Z</time></trkpt>
<trkpt lat="54.2596750000" lon="-2.2459700000"><ele>652</ele><time>2013-11-17T11:43:52Z</time></trkpt>
<trkpt lat="54.2596540000" lon="-2.2459600000"><ele>652</ele><time>2013-11-17T11:43:54Z</time></trkpt>
<trkpt lat="54.2596310000" lon="-2.2459580000"><ele>652</ele><time>2013-11-17T11:43:56Z</time></trkpt>
<trkpt lat="54.2595970000" lon="-2.2459500000"><ele>652</ele><time>2013-11-17T11:43:59Z</time></trkpt>
<trkpt lat="54.2595710000" lon="-2.2459430000"><ele>652</ele><time>2013-11-17T11:44:01Z</time></trkpt>
<trkpt lat="54.2595220000" lon="-2.2459500000"><ele>652</ele><time>2013-11-17T11:44:06Z</time></trkpt>
<trkpt lat="54.2594780000" lon="-2.2459490000"><ele>652</ele><time>2013-11-17T11:44:13Z</time></trkpt>
<trkpt lat="54.2594400000" lon="-2.2459810000"><ele>652</ele><time>2013-11-17T11:44:19Z</time></trkpt>
<trkpt lat="54.2594130000" lon="-2.2459750000"><ele>652</ele><time>2013-11-17T11:44:21Z</time></trkpt>
<trkpt lat="54.2594040000" lon="-2.2459790000"><ele>652</ele><time>2013-11-17T11:44:22Z</time></trkpt>
<trkpt lat="54.2593980000" lon="-2.2459850000"><ele>652</ele><time>2013-11-17T11:44:23Z</time></trkpt>
<trkpt lat="54.2593960000" lon="-2.2459870000"><ele>652</ele><time>2013-11-17T11:44:24Z</time></trkpt>
<trkpt lat="54.2593930000" lon="-2.2459860000"><ele>652</ele><time>2013-11-17T11:44:25Z</time></trkpt>
<trkpt lat="54.2593890000" lon="-2.2459870000"><ele>652</ele><time>2013-11-17T11:44:26Z</time></trkpt>
<trkpt lat="54.2593820000" lon="-2.2459880000"><ele>652</ele><time>2013-11-17T11:44:27Z</time></trkpt>
<trkpt lat="54.2593730000" lon="-2.2459880000"><ele>652</ele><time>2013-11-17T11:44:28Z</time></trkpt>
<trkpt lat="54.2593650000" lon="-2.2459860000"><ele>652</ele><time>2013-11-17T11:44:29Z</time></trkpt>
<trkpt lat="54.2593560000" lon="-2.2459830000"><ele>652</ele><time>2013-11-17T11:44:30Z</time></trkpt>
<trkpt lat="54.2593480000" lon="-2.2459810000"><ele>652</ele><time>2013-11-17T11:44:31Z</time></trkpt>
<trkpt lat="54.2593400000" lon="-2.2459820000"><ele>652</ele><time>2013-11-17T11:44:32Z</time></trkpt>
<trkpt lat="54.2593320000" lon="-2.2459820000"><ele>652</ele><time>2013-11-17T11:44:33Z</time></trkpt>
<trkpt lat="54.2593240000" lon="-2.2459800000"><ele>652</ele><time>2013-11-17T11:44:34Z</time></trkpt>
<trkpt lat="54.2593160000" lon="-2.2459780000"><ele>652</ele><time>2013-11-17T11:44:35Z</time></trkpt>
<trkpt lat="54.2593070000" lon="-2.2459760000"><ele>652</ele><time>2013-11-17T11:44:36Z</time></trkpt>
<trkpt lat="54.2592990000" lon="-2.2459750000"><ele>652</ele><time>2013-11-17T11:44:37Z</time></trkpt>
<trkpt lat="54.2592900000" lon="-2.2459730000"><ele>652</ele><time>2013-11-17T11:44:38Z</time></trkpt>
<trkpt lat="54.2592810000" lon="-2.2459690000"><ele>652</ele><time>2013-11-17T11:44:39Z</time></trkpt>
<trkpt lat="54.2592720000" lon="-2.2459630000"><ele>652</ele><time>2013-11-17T11:44:40Z</time></trkpt>
<trkpt lat="54.2592640000" lon="-2.2459610000"><ele>652</ele><time>2013-11-17T11:44:41Z</time></trkpt>
<trkpt lat="54.2592560000" lon="-2.2459580000"><ele>652</ele><time>2013-11-17T11:44:42Z</time></trkpt>
<trkpt lat="54.2592490000" lon="-2.2459560000"><ele>652</ele><time>2013-11-17T11:44:43Z</time></trkpt>
<trkpt lat="54.2592410000" lon="-2.2459530000"><ele>652</ele><time>2013-11-17T11:44:44Z</time></trkpt>
<trkpt lat="54.2592320000" lon="-2.2459520000"><ele>652</ele><time>2013-11-17T11:44:45Z</time></trkpt>
<trkpt lat="54.2592240000" lon="-2.2459490000"><ele>652</ele><time>2013-11-17T11:44:46Z</time></trkpt>
<trkpt lat="54.2592150000" lon="-2.2459470000"><ele>652</ele><time>2013-11-17T11:44:47Z</time></trkpt>
<trkpt lat="54.2592070000" lon="-2.2459460000"><ele>652</ele><time>2013-11-17T11:44:48Z</time></trkpt>
<trkpt lat="54.2592000000" lon="-2.2459450000"><ele>652</ele><time>2013-11-17T11:44:49Z</time></trkpt>
<trkpt lat="54.2591920000" lon="-2.2459430000"><ele>652</ele><time>2013-11-17T11:44:50Z</time></trkpt>
<trkpt lat="54.2591850000" lon="-2.2459390000"><ele>652</ele><time>2013-11-17T11:44:51Z</time></trkpt>
<trkpt lat="54.2591780000" lon="-2.2459360000"><ele>652</ele><time>2013-11-17T11:44:52Z</time></trkpt>
<trkpt lat="54.2591700000" lon="-2.2459370000"><ele>652</ele><time>2013-11-17T11:44:53Z</time></trkpt>
<trkpt lat="54.2591620000" lon="-2.2459390000"><ele>652</ele><time>2013-11-17T11:44:54Z</time></trkpt>
<trkpt lat="54.2591530000" lon="-2.2459390000"><ele>652</ele><time>2013-11-17T11:44:55Z</time></trkpt>
<trkpt lat="54.2591450000" lon="-2.2459370000"><ele>652</ele><time>2013-11-17T11:44:56Z</time></trkpt>
<trkpt lat="54.2591380000" lon="-2.2459330000"><ele>652</ele><time>2013-11-17T11:44:57Z</time></trkpt>
<trkpt lat="54.2591320000" lon="-2.2459300000"><ele>652</ele><time>2013-11-17T11:44:58Z</time></trkpt>
<trkpt lat="54.2591250000" lon="-2.2459280000"><ele>652</ele><time>2013-11-17T11:44:59Z</time></trkpt>
<trkpt lat="54.2591180000" lon="-2.2459270000"><ele>652</ele><time>2013-11-17T11:45:00Z</time></trkpt>
<trkpt lat="54.2591100000" lon="-2.2459260000"><ele>652</ele><time>2013-11-17T11:45:01Z</time></trkpt>
<trkpt lat="54.2591020000" lon="-2.2459260000"><ele>652</ele><time>2013-11-17T11:45:02Z</time></trkpt>
<trkpt lat="54.2590950000" lon="-2.2459250000"><ele>652</ele><time>2013-11-17T11:45:03Z</time></trkpt>
<trkpt lat="54.2590880000" lon="-2.2459220000"><ele>652</ele><time>2013-11-17T11:45:04Z</time></trkpt>
<trkpt lat="54.2590810000" lon="-2.2459170000"><ele>652</ele><time>2013-11-17T11:45:05Z</time></trkpt>
<trkpt lat="54.2590750000" lon="-2.2459140000"><ele>652</ele><time>2013-11-17T11:45:06Z</time></trkpt>
<trkpt lat="54.2590670000" lon="-2.2459120000"><ele>652</ele><time>2013-11-17T11:45:07Z</time></trkpt>
<trkpt lat="54.2590590000" lon="-2.2459150000"><ele>652</ele><time>2013-11-17T11:45:08Z</time></trkpt>
<trkpt lat="54.2590520000" lon="-2.2459160000"><ele>652</ele><time>2013-11-17T11:45:09Z</time></trkpt>
<trkpt lat="54.2590440000" lon="-2.2459190000"><ele>652</ele><time>2013-11-17T11:45:10Z</time></trkpt>
<trkpt lat="54.2590380000" lon="-2.2459230000"><ele>652</ele><time>2013-11-17T11:45:11Z</time></trkpt>
<trkpt lat="54.2590320000" lon="-2.2459300000"><ele>652</ele><time>2013-11-17T11:45:12Z</time></trkpt>
<trkpt lat="54.2590260000" lon="-2.2459320000"><ele>652</ele><time>2013-11-17T11:45:13Z</time></trkpt>
<trkpt lat="54.2590190000" lon="-2.2459290000"><ele>652</ele><time>2013-11-17T11:45:14Z</time></trkpt>
<trkpt lat="54.2590120000" lon="-2.2459230000"><ele>652</ele><time>2013-11-17T11:45:15Z</time></trkpt>
<trkpt lat="54.2590040000" lon="-2.2459170000"><ele>652</ele><time>2013-11-17T11:45:16Z</time></trkpt>
<trkpt lat="54.2589960000" lon="-2.2459120000"><ele>652</ele><time>2013-11-17T11:45:17Z</time></trkpt>
<trkpt lat="54.2589870000" lon="-2.2459080000"><ele>652</ele><time>2013-11-17T11:45:18Z</time></trkpt>
<trkpt lat="54.2589790000" lon="-2.2459060000"><ele>652</ele><time>2013-11-17T11:45:19Z</time></trkpt>
<trkpt lat="54.2589730000" lon="-2.2459040000"><ele>652</ele><time>2013-11-17T11:45:20Z</time></trkpt>
<trkpt lat="54.2589680000" lon="-2.2459040000"><ele>652</ele><time>2013-11-17T11:45:21Z</time></trkpt>
<trkpt lat="54.2589610000" lon="-2.2459070000"><ele>652</ele><time>2013-11-17T11:45:22Z</time></trkpt>
<trkpt lat="54.2589550000" lon="-2.2459070000"><ele>652</ele><time>2013-11-17T11:45:23Z</time></trkpt>
<trkpt lat="54.2589490000" lon="-2.2459040000"><ele>652</ele><time>2013-11-17T11:45:24Z</time></trkpt>
<trkpt lat="54.2589430000" lon="-2.2459050000"><ele>652</ele><time>2013-11-17T11:45:25Z</time></trkpt>
<trkpt lat="54.2589370000" lon="-2.2459080000"><ele>652</ele><time>2013-11-17T11:45:26Z</time></trkpt>
<trkpt lat="54.2589300000" lon="-2.2459100000"><ele>652</ele><time>2013-11-17T11:45:27Z</time></trkpt>
<trkpt lat="54.2589230000" lon="-2.2459130000"><ele>652</ele><time>2013-11-17T11:45:28Z</time></trkpt>
<trkpt lat="54.2589180000" lon="-2.2459180000"><ele>652</ele><time>2013-11-17T11:45:29Z</time></trkpt>
<trkpt lat="54.2589150000" lon="-2.2459210000"><ele>652</ele><time>2013-11-17T11:45:30Z</time></trkpt>
<trkpt lat="54.2589150000" lon="-2.2459210000"><ele>652</ele><time>2013-11-17T11:45:31Z</time></trkpt>
<trkpt lat="54.2589150000" lon="-2.2459190000"><ele>652</ele><time>2013-11-17T11:45:32Z</time></trkpt>
<trkpt lat="54.2589150000" lon="-2.2459180000"><ele>652</ele><time>2013-11-17T11:45:33Z</time></trkpt>
<trkpt lat="54.2589150000" lon="-2.2459170000"><ele>652</ele><time>2013-11-17T11:45:34Z</time></trkpt>
<trkpt lat="54.2589150000" lon="-2.2459170000"><ele>652</ele><time>2013-11-17T11:45:35Z</time></trkpt>
<trkpt lat="54.2589150000" lon="-2.2459160000"><ele>652</ele><time>2013-11-17T11:45:36Z</time></trkpt>
<trkpt lat="54.2589140000" lon="-2.2459140000"><ele>652</ele><time>2013-11-17T11:45:37Z</time></trkpt>
<trkpt lat="54.2589100000" lon="-2.2459140000"><ele>652</ele><time>2013-11-17T11:45:38Z</time></trkpt>
<trkpt lat="54.2589030000" lon="-2.2459170000"><ele>652</ele><time>2013-11-17T11:45:39Z</time></trkpt>
<trkpt lat="54.2588950000" lon="-2.2459200000"><ele>652</ele><time>2013-11-17T11:45:40Z</time></trkpt>
<trkpt lat="54.2588870000" lon="-2.2459230000"><ele>652</ele><time>2013-11-17T11:45:41Z</time></trkpt>
<trkpt lat="54.2588780000" lon="-2.2459240000"><ele>652</ele><time>2013-11-17T11:45:42Z</time></trkpt>
<trkpt lat="54.2588680000" lon="-2.2459220000"><ele>652</ele><time>2013-11-17T11:45:43Z</time></trkpt>
<trkpt lat="54.2588590000" lon="-2.2459240000"><ele>652</ele><time>2013-11-17T11:45:44Z</time></trkpt>
<trkpt lat="54.2588490000" lon="-2.2459250000"><ele>652</ele><time>2013-11-17T11:45:45Z</time></trkpt>
<trkpt lat="54.2588400000" lon="-2.2459250000"><ele>652</ele><time>2013-11-17T11:45:46Z</time></trkpt>
<trkpt lat="54.2588300000" lon="-2.2459220000"><ele>652</ele><time>2013-11-17T11:45:47Z</time></trkpt>
<trkpt lat="54.2588260000" lon="-2.2459190000"><ele>652</ele><time>2013-11-17T11:45:48Z</time></trkpt>
<trkpt lat="54.2588500000" lon="-2.2459100000"><ele>652</ele><time>2013-11-17T11:45:52Z</time></trkpt>
<trkpt lat="54.2588710000" lon="-2.2459090000"><ele>652</ele><time>2013-11-17T11:45:55Z</time></trkpt>
<trkpt lat="54.2589170000" lon="-2.2459860000"><ele>652</ele><time>2013-11-17T11:46:17Z</time></trkpt>
<trkpt lat="54.2588850000" lon="-2.2459810000"><ele>652</ele><time>2013-11-17T11:46:21Z</time></trkpt>
<trkpt lat="54.2588580000" lon="-2.2459870000"><ele>652</ele><time>2013-11-17T11:46:24Z</time></trkpt>
<trkpt lat="54.2588250000" lon="-2.2459680000"><ele>652</ele><time>2013-11-17T11:46:27Z</time></trkpt>
<trkpt lat="54.2588010000" lon="-2.2459490000"><ele>652</ele><time>2013-11-17T11:46:29Z</time></trkpt>
<trkpt lat="54.2587770000" lon="-2.2459380000"><ele>652</ele><time>2013-11-17T11:46:31Z</time></trkpt>
<trkpt lat="54.2587510000" lon="-2.2459230000"><ele>652</ele><time>2013-11-17T11:46:33Z</time></trkpt>
<trkpt lat="54.2587250000" lon="-2.2459090000"><ele>652</ele><time>2013-11-17T11:46:35Z</time></trkpt>
<trkpt lat="54.2586990000" lon="-2.2458990000"><ele>652</ele><time>2013-11-17T11:46:37Z</time></trkpt>
<trkpt lat="54.2586710000" lon="-2.2458810000"><ele>652</ele><time>2013-11-17T11:46:39Z</time></trkpt>
<trkpt lat="54.2586420000" lon="-2.2458650000"><ele>652</ele><time>2013-11-17T11:46:41Z</time></trkpt>
<trkpt lat="54.2586180000" lon="-2.2458480000"><ele>652</ele><time>2013-11-17T11:46:43Z</time></trkpt>
<trkpt lat="54.2585940000" lon="-2.2458460000"><ele>664</ele><time>2013-11-17T11:46:45Z</time></trkpt>
<trkpt lat="54.2585680000" lon="-2.2458500000"><ele>664</ele><time>2013-11-17T11:46:47Z</time></trkpt>
<trkpt lat="54.2585420000" lon="-2.2458430000"><ele>664</ele><time>2013-11-17T11:46:50Z</time></trkpt>
<trkpt lat="54.2585120000" lon="-2.2458230000"><ele>664</ele><time>2013-11-17T11:46:53Z</time></trkpt>
<trkpt lat="54.2584850000" lon="-2.2458210000"><ele>664</ele><time>2013-11-17T11:46:57Z</time></trkpt>
<trkpt lat="54.2584550000" lon="-2.2458420000"><ele>664</ele><time>2013-11-17T11:47:08Z</time></trkpt>
<trkpt lat="54.2584150000" lon="-2.2458080000"><ele>664</ele><time>2013-11-17T11:47:11Z</time></trkpt>
<trkpt lat="54.2583720000" lon="-2.2457700000"><ele>664</ele><time>2013-11-17T11:47:14Z</time></trkpt>
<trkpt lat="54.2583310000" lon="-2.2457530000"><ele>664</ele><time>2013-11-17T11:47:17Z</time></trkpt>
<trkpt lat="54.2582970000" lon="-2.2457620000"><ele>664</ele><time>2013-11-17T11:47:20Z</time></trkpt>
<trkpt lat="54.2582650000" lon="-2.2457710000"><ele>664</ele><time>2013-11-17T11:47:23Z</time></trkpt>
<trkpt lat="54.2582290000" lon="-2.2457800000"><ele>664</ele><time>2013-11-17T11:47:26Z</time></trkpt>
<trkpt lat="54.2582020000" lon="-2.2457900000"><ele>664</ele><time>2013-11-17T11:47:29Z</time></trkpt>
<trkpt lat="54.2581760000" lon="-2.2458040000"><ele>664</ele><time>2013-11-17T11:47:32Z</time></trkpt>
<trkpt lat="54.2581510000" lon="-2.2458300000"><ele>664</ele><time>2013-11-17T11:47:37Z</time></trkpt>
<trkpt lat="54.2581250000" lon="-2.2458620000"><ele>664</ele><time>2013-11-17T11:47:41Z</time></trkpt>
<trkpt lat="54.2580980000" lon="-2.2458800000"><ele>664</ele><time>2013-11-17T11:47:44Z</time></trkpt>
<trkpt lat="54.2580770000" lon="-2.2459180000"><ele>664</ele><time>2013-11-17T11:47:59Z</time></trkpt>
<trkpt lat="54.2580550000" lon="-2.2459300000"><ele>664</ele><time>2013-11-17T11:48:03Z</time></trkpt>
<trkpt lat="54.2580350000" lon="-2.2459560000"><ele>664</ele><time>2013-11-17T11:48:06Z</time></trkpt>
<trkpt lat="54.2580100000" lon="-2.2459820000"><ele>664</ele><time>2013-11-17T11:48:11Z</time></trkpt>
<trkpt lat="54.2579890000" lon="-2.2460710000"><ele>664</ele><time>2013-11-17T11:48:23Z</time></trkpt>
<trkpt lat="54.2579840000" lon="-2.2460770000"><ele>664</ele><time>2013-11-17T11:48:24Z</time></trkpt>
<trkpt lat="54.2579760000" lon="-2.2460850000"><ele>664</ele><time>2013-11-17T11:48:25Z</time></trkpt>
<trkpt lat="54.2579650000" lon="-2.2460940000"><ele>664</ele><time>2013-11-17T11:48:26Z</time></trkpt>
<trkpt lat="54.2579540000" lon="-2.2461050000"><ele>664</ele><time>2013-11-17T11:48:27Z</time></trkpt>
<trkpt lat="54.2579420000" lon="-2.2461170000"><ele>664</ele><time>2013-11-17T11:48:28Z</time></trkpt>
<trkpt lat="54.2579300000" lon="-2.2461320000"><ele>664</ele><time>2013-11-17T11:48:29Z</time></trkpt>
<trkpt lat="54.2579220000" lon="-2.2461430000"><ele>664</ele><time>2013-11-17T11:48:30Z</time></trkpt>
<trkpt lat="54.2579150000" lon="-2.2461500000"><ele>664</ele><time>2013-11-17T11:48:31Z</time></trkpt>
<trkpt lat="54.2579080000" lon="-2.2461600000"><ele>664</ele><time>2013-11-17T11:48:32Z</time></trkpt>
<trkpt lat="54.2579030000" lon="-2.2461740000"><ele>664</ele><time>2013-11-17T11:48:33Z</time></trkpt>
<trkpt lat="54.2578970000" lon="-2.2461840000"><ele>664</ele><time>2013-11-17T11:48:34Z</time></trkpt>
<trkpt lat="54.2578880000" lon="-2.2461890000"><ele>664</ele><time>2013-11-17T11:48:35Z</time></trkpt>
<trkpt lat="54.2578780000" lon="-2.2461900000"><ele>664</ele><time>2013-11-17T11:48:36Z</time></trkpt>
<trkpt lat="54.2578660000" lon="-2.2461900000"><ele>664</ele><time>2013-11-17T11:48:37Z</time></trkpt>
<trkpt lat="54.2578550000" lon="-2.2461900000"><ele>664</ele><time>2013-11-17T11:48:38Z</time></trkpt>
<trkpt lat="54.2578440000" lon="-2.2461900000"><ele>664</ele><time>2013-11-17T11:48:39Z</time></trkpt>
<trkpt lat="54.2578320000" lon="-2.2461910000"><ele>664</ele><time>2013-11-17T11:48:40Z</time></trkpt>
<trkpt lat="54.2578210000" lon="-2.2461950000"><ele>664</ele><time>2013-11-17T11:48:41Z</time></trkpt>
<trkpt lat="54.2578110000" lon="-2.2462030000"><ele>664</ele><time>2013-11-17T11:48:42Z</time></trkpt>
<trkpt lat="54.2578010000" lon="-2.2462120000"><ele>664</ele><time>2013-11-17T11:48:43Z</time></trkpt>
<trkpt lat="54.2577910000" lon="-2.2462210000"><ele>664</ele><time>2013-11-17T11:48:44Z</time></trkpt>
<trkpt lat="54.2577810000" lon="-2.2462290000"><ele>664</ele><time>2013-11-17T11:48:45Z</time></trkpt>
<trkpt lat="54.2577720000" lon="-2.2462400000"><ele>664</ele><time>2013-11-17T11:48:46Z</time></trkpt>
<trkpt lat="54.2577650000" lon="-2.2462540000"><ele>664</ele><time>2013-11-17T11:48:47Z</time></trkpt>
<trkpt lat="54.2577570000" lon="-2.2462680000"><ele>664</ele><time>2013-11-17T11:48:48Z</time></trkpt>
<trkpt lat="54.2577490000" lon="-2.2462770000"><ele>664</ele><time>2013-11-17T11:48:49Z</time></trkpt>
<trkpt lat="54.2577390000" lon="-2.2462820000"><ele>664</ele><time>2013-11-17T11:48:50Z</time></trkpt>
<trkpt lat="54.2577290000" lon="-2.2462860000"><ele>664</ele><time>2013-11-17T11:48:51Z</time></trkpt>
<trkpt lat="54.2577210000" lon="-2.2462930000"><ele>664</ele><time>2013-11-17T11:48:52Z</time></trkpt>
<trkpt lat="54.2577120000" lon="-2.2463030000"><ele>664</ele><time>2013-11-17T11:48:53Z</time></trkpt>
<trkpt lat="54.2577030000" lon="-2.2463130000"><ele>664</ele><time>2013-11-17T11:48:54Z</time></trkpt>
<trkpt lat="54.2576940000" lon="-2.2463230000"><ele>664</ele><time>2013-11-17T11:48:55Z</time></trkpt>
<trkpt lat="54.2576840000" lon="-2.2463320000"><ele>664</ele><time>2013-11-17T11:48:56Z</time></trkpt>
<trkpt lat="54.2576730000" lon="-2.2463360000"><ele>664</ele><time>2013-11-17T11:48:57Z</time></trkpt>
<trkpt lat="54.2576590000" lon="-2.2463360000"><ele>664</ele><time>2013-11-17T11:48:58Z</time></trkpt>
<trkpt lat="54.2576480000" lon="-2.2463330000"><ele>664</ele><time>2013-11-17T11:48:59Z</time></trkpt>
<trkpt lat="54.2576380000" lon="-2.2463290000"><ele>664</ele><time>2013-11-17T11:49:00Z</time></trkpt>
<trkpt lat="54.2576280000" lon="-2.2463220000"><ele>664</ele><time>2013-11-17T11:49:01Z</time></trkpt>
<trkpt lat="54.2576220000" lon="-2.2463140000"><ele>664</ele><time>2013-11-17T11:49:02Z</time></trkpt>
<trkpt lat="54.2576190000" lon="-2.2463080000"><ele>664</ele><time>2013-11-17T11:49:03Z</time></trkpt>
<trkpt lat="54.2576190000" lon="-2.2463000000"><ele>664</ele><time>2013-11-17T11:49:04Z</time></trkpt>
<trkpt lat="54.2576170000" lon="-2.2462610000"><ele>664</ele><time>2013-11-17T11:49:07Z</time></trkpt>
<trkpt lat="54.2576120000" lon="-2.2462130000"><ele>664</ele><time>2013-11-17T11:49:10Z</time></trkpt>
<trkpt lat="54.2576080000" lon="-2.2461780000"><ele>664</ele><time>2013-11-17T11:49:12Z</time></trkpt>
<trkpt lat="54.2575950000" lon="-2.2461460000"><ele>664</ele><time>2013-11-17T11:49:14Z</time></trkpt>
<trkpt lat="54.2575760000" lon="-2.2461350000"><ele>664</ele><time>2013-11-17T11:49:16Z</time></trkpt>
<trkpt lat="54.2575540000" lon="-2.2461330000"><ele>664</ele><time>2013-11-17T11:49:18Z</time></trkpt>
<trkpt lat="54.2575280000" lon="-2.2461280000"><ele>664</ele><time>2013-11-17T11:49:20Z</time></trkpt>
<trkpt lat="54.2575180000" lon="-2.2461240000"><ele>664</ele><time>2013-11-17T11:49:21Z</time></trkpt>
<trkpt lat="54.2575090000" lon="-2.2461180000"><ele>664</ele><time>2013-11-17T11:49:22Z</time></trkpt>
<trkpt lat="54.2574990000" lon="-2.2461140000"><ele>664</ele><time>2013-11-17T11:49:23Z</time></trkpt>
<trkpt lat="54.2574870000" lon="-2.2461160000"><ele>664</ele><time>2013-11-17T11:49:24Z</time></trkpt>
<trkpt lat="54.2574730000" lon="-2.2461140000"><ele>664</ele><time>2013-11-17T11:49:25Z</time></trkpt>
<trkpt lat="54.2574590000" lon="-2.2461080000"><ele>664</ele><time>2013-11-17T11:49:26Z</time></trkpt>
<trkpt lat="54.2574380000" lon="-2.2460940000"><ele>664</ele><time>2013-11-17T11:49:28Z</time></trkpt>
<trkpt lat="54.2574120000" lon="-2.2460780000"><ele>664</ele><time>2013-11-17T11:49:30Z</time></trkpt>
<trkpt lat="54.2573900000" lon="-2.2460760000"><ele>664</ele><time>2013-11-17T11:49:32Z</time></trkpt>
<trkpt lat="54.2573690000" lon="-2.2460690000"><ele>664</ele><time>2013-11-17T11:49:34Z</time></trkpt>
<trkpt lat="54.2573450000" lon="-2.2460610000"><ele>664</ele><time>2013-11-17T11:49:36Z</time></trkpt>
<trkpt lat="54.2573220000" lon="-2.2460640000"><ele>664</ele><time>2013-11-17T11:49:38Z</time></trkpt>
<trkpt lat="54.2572980000" lon="-2.2460650000"><ele>664</ele><time>2013-11-17T11:49:40Z</time></trkpt>
<trkpt lat="54.2572810000" lon="-2.2460520000"><ele>664</ele><time>2013-11-17T11:49:42Z</time></trkpt>
<trkpt lat="54.2572680000" lon="-2.2460200000"><ele>664</ele><time>2013-11-17T11:49:44Z</time></trkpt>
<trkpt lat="54.2572530000" lon="-2.2459890000"><ele>664</ele><time>2013-11-17T11:49:46Z</time></trkpt>
<trkpt lat="54.2572400000" lon="-2.2459640000"><ele>664</ele><time>2013-11-17T11:49:48Z</time></trkpt>
<trkpt lat="54.2572180000" lon="-2.2459460000"><ele>664</ele><time>2013-11-17T11:49:51Z</time></trkpt>
<trkpt lat="54.2571990000" lon="-2.2459430000"><ele>664</ele><time>2013-11-17T11:49:53Z</time></trkpt>
<trkpt lat="54.2571760000" lon="-2.2459450000"><ele>664</ele><time>2013-11-17T11:49:55Z</time></trkpt>
<trkpt lat="54.2571690000" lon="-2.2459410000"><ele>664</ele><time>2013-11-17T11:49:56Z</time></trkpt>
<trkpt lat="54.2571400000" lon="-2.2459350000"><ele>664</ele><time>2013-11-17T11:49:59Z</time></trkpt>
<trkpt lat="54.2571290000" lon="-2.2459370000"><ele>664</ele><time>2013-11-17T11:50:00Z</time></trkpt>
<trkpt lat="54.2571170000" lon="-2.2459410000"><ele>664</ele><time>2013-11-17T11:50:01Z</time></trkpt>
<trkpt lat="54.2571090000" lon="-2.2459420000"><ele>664</ele><time>2013-11-17T11:50:02Z</time></trkpt>
<trkpt lat="54.2571000000" lon="-2.2459450000"><ele>664</ele><time>2013-11-17T11:50:03Z</time></trkpt>
<trkpt lat="54.2570910000" lon="-2.2459530000"><ele>664</ele><time>2013-11-17T11:50:04Z</time></trkpt>
<trkpt lat="54.2570800000" lon="-2.2459590000"><ele>664</ele><time>2013-11-17T11:50:05Z</time></trkpt>
<trkpt lat="54.2570690000" lon="-2.2459670000"><ele>664</ele><time>2013-11-17T11:50:06Z</time></trkpt>
<trkpt lat="54.2570610000" lon="-2.2459690000"><ele>664</ele><time>2013-11-17T11:50:07Z</time></trkpt>
<trkpt lat="54.2570550000" lon="-2.2459660000"><ele>664</ele><time>2013-11-17T11:50:08Z</time></trkpt>
<trkpt lat="54.2570280000" lon="-2.2459400000"><ele>664</ele><time>2013-11-17T11:50:12Z</time></trkpt>
<trkpt lat="54.2570060000" lon="-2.2459230000"><ele>664</ele><time>2013-11-17T11:50:14Z</time></trkpt>
<trkpt lat="54.2569830000" lon="-2.2459150000"><ele>664</ele><time>2013-11-17T11:50:17Z</time></trkpt>
<trkpt lat="54.2569630000" lon="-2.2459230000"><ele>664</ele><time>2013-11-17T11:50:20Z</time></trkpt>
<trkpt lat="54.2569370000" lon="-2.2458960000"><ele>664</ele><time>2013-11-17T11:50:23Z</time></trkpt>
<trkpt lat="54.2569180000" lon="-2.2458330000"><ele>664</ele><time>2013-11-17T11:50:27Z</time></trkpt>
<trkpt lat="54.2569030000" lon="-2.2457960000"><ele>664</ele><time>2013-11-17T11:50:30Z</time></trkpt>
<trkpt lat="54.2568850000" lon="-2.2457920000"><ele>664</ele><time>2013-11-17T11:50:32Z</time></trkpt>
<trkpt lat="54.2568660000" lon="-2.2457870000"><ele>664</ele><time>2013-11-17T11:50:34Z</time></trkpt>
<trkpt lat="54.2568450000" lon="-2.2457560000"><ele>664</ele><time>2013-11-17T11:50:37Z</time></trkpt>
<trkpt lat="54.2568290000" lon="-2.2457340000"><ele>664</ele><time>2013-11-17T11:50:39Z</time></trkpt>
<trkpt lat="54.2568170000" lon="-2.2457190000"><ele>663</ele><time>2013-11-17T11:50:40Z</time></trkpt>
<trkpt lat="54.2568100000" lon="-2.2457090000"><ele>663</ele><time>2013-11-17T11:50:41Z</time></trkpt>
<trkpt lat="54.2568040000" lon="-2.2456940000"><ele>663</ele><time>2013-11-17T11:50:42Z</time></trkpt>
<trkpt lat="54.2568010000" lon="-2.2456790000"><ele>663</ele><time>2013-11-17T11:50:43Z</time></trkpt>
<trkpt lat="54.2568000000" lon="-2.2456610000"><ele>663</ele><time>2013-11-17T11:50:44Z</time></trkpt>
<trkpt lat="54.2567980000" lon="-2.2456370000"><ele>663</ele><time>2013-11-17T11:50:45Z</time></trkpt>
<trkpt lat="54.2567960000" lon="-2.2456140000"><ele>663</ele><time>2013-11-17T11:50:46Z</time></trkpt>
<trkpt lat="54.2567940000" lon="-2.2455980000"><ele>663</ele><time>2013-11-17T11:50:47Z</time></trkpt>
<trkpt lat="54.2567710000" lon="-2.2455540000"><ele>663</ele><time>2013-11-17T11:50:56Z</time></trkpt>
<trkpt lat="54.2567700000" lon="-2.2455550000"><ele>663</ele><time>2013-11-17T11:50:57Z</time></trkpt>
<trkpt lat="54.2567690000" lon="-2.2455560000"><ele>663</ele><time>2013-11-17T11:50:58Z</time></trkpt>
<trkpt lat="54.2567680000" lon="-2.2455570000"><ele>663</ele><time>2013-11-17T11:50:59Z</time></trkpt>
<trkpt lat="54.2567680000" lon="-2.2455570000"><ele>663</ele><time>2013-11-17T11:51:00Z</time></trkpt>
<trkpt lat="54.2567670000" lon="-2.2455580000"><ele>663</ele><time>2013-11-17T11:51:01Z</time></trkpt>
<trkpt lat="54.2567670000" lon="-2.2455590000"><ele>663</ele><time>2013-11-17T11:51:02Z</time></trkpt>
<trkpt lat="54.2567680000" lon="-2.2455610000"><ele>663</ele><time>2013-11-17T11:51:03Z</time></trkpt>
<trkpt lat="54.2567690000" lon="-2.2455610000"><ele>663</ele><time>2013-11-17T11:51:04Z</time></trkpt>
<trkpt lat="54.2567660000" lon="-2.2455650000"><ele>663</ele><time>2013-11-17T11:51:05Z</time></trkpt>
<trkpt lat="54.2567600000" lon="-2.2455640000"><ele>663</ele><time>2013-11-17T11:51:06Z</time></trkpt>
<trkpt lat="54.2567550000" lon="-2.2455630000"><ele>663</ele><time>2013-11-17T11:51:07Z</time></trkpt>
<trkpt lat="54.2567500000" lon="-2.2455600000"><ele>663</ele><time>2013-11-17T11:51:08Z</time></trkpt>
<trkpt lat="54.2567480000" lon="-2.2455590000"><ele>663</ele><time>2013-11-17T11:51:09Z</time></trkpt>
<trkpt lat="54.2567480000" lon="-2.2455590000"><ele>663</ele><time>2013-11-17T11:51:10Z</time></trkpt>
<trkpt lat="54.2567480000" lon="-2.2455580000"><ele>663</ele><time>2013-11-17T11:51:11Z</time></trkpt>
<trkpt lat="54.2567490000" lon="-2.2455570000"><ele>663</ele><time>2013-11-17T11:51:12Z</time></trkpt>
<trkpt lat="54.2567490000" lon="-2.2455560000"><ele>663</ele><time>2013-11-17T11:51:13Z</time></trkpt>
<trkpt lat="54.2567500000" lon="-2.2455550000"><ele>663</ele><time>2013-11-17T11:51:14Z</time></trkpt>
<trkpt lat="54.2567500000" lon="-2.2455540000"><ele>663</ele><time>2013-11-17T11:51:15Z</time></trkpt>
<trkpt lat="54.2567510000" lon="-2.2455550000"><ele>663</ele><time>2013-11-17T11:51:16Z</time></trkpt>
<trkpt lat="54.2567500000" lon="-2.2455550000"><ele>663</ele><time>2013-11-17T11:51:17Z</time></trkpt>
<trkpt lat="54.2567510000" lon="-2.2455550000"><ele>663</ele><time>2013-11-17T11:51:18Z</time></trkpt>
<trkpt lat="54.2567540000" lon="-2.2455510000"><ele>663</ele><time>2013-11-17T11:51:19Z</time></trkpt>
<trkpt lat="54.2567710000" lon="-2.2455290000"><ele>663</ele><time>2013-11-17T11:51:43Z</time></trkpt>
<trkpt lat="54.2567720000" lon="-2.2455280000"><ele>663</ele><time>2013-11-17T11:51:44Z</time></trkpt>
<trkpt lat="54.2567720000" lon="-2.2455270000"><ele>663</ele><time>2013-11-17T11:51:45Z</time></trkpt>
<trkpt lat="54.2567690000" lon="-2.2455310000"><ele>663</ele><time>2013-11-17T11:51:46Z</time></trkpt>
<trkpt lat="54.2567680000" lon="-2.2455330000"><ele>663</ele><time>2013-11-17T11:51:47Z</time></trkpt>
<trkpt lat="54.2567690000" lon="-2.2455340000"><ele>663</ele><time>2013-11-17T11:51:48Z</time></trkpt>
<trkpt lat="54.2567690000" lon="-2.2455360000"><ele>663</ele><time>2013-11-17T11:51:49Z</time></trkpt>
<trkpt lat="54.2567660000" lon="-2.2455360000"><ele>663</ele><time>2013-11-17T11:51:50Z</time></trkpt>
<trkpt lat="54.2567640000" lon="-2.2455300000"><ele>663</ele><time>2013-11-17T11:51:51Z</time></trkpt>
<trkpt lat="54.2567880000" lon="-2.2455160000"><ele>663</ele><time>2013-11-17T11:51:56Z</time></trkpt>
<trkpt lat="54.2567800000" lon="-2.2455220000"><ele>663</ele><time>2013-11-17T11:52:04Z</time></trkpt>
<trkpt lat="54.2567790000" lon="-2.2455240000"><ele>663</ele><time>2013-11-17T11:52:05Z</time></trkpt>
<trkpt lat="54.2567770000" lon="-2.2455250000"><ele>663</ele><time>2013-11-17T11:52:06Z</time></trkpt>
<trkpt lat="54.2567740000" lon="-2.2455250000"><ele>663</ele><time>2013-11-17T11:52:07Z</time></trkpt>
<trkpt lat="54.2567720000" lon="-2.2455280000"><ele>663</ele><time>2013-11-17T11:52:08Z</time></trkpt>
<trkpt lat="54.2567710000" lon="-2.2455280000"><ele>663</ele><time>2013-11-17T11:52:09Z</time></trkpt>
<trkpt lat="54.2567680000" lon="-2.2455310000"><ele>663</ele><time>2013-11-17T11:52:10Z</time></trkpt>
<trkpt lat="54.2567630000" lon="-2.2455300000"><ele>663</ele><time>2013-11-17T11:52:11Z</time></trkpt>
<trkpt lat="54.2567590000" lon="-2.2455290000"><ele>663</ele><time>2013-11-17T11:52:12Z</time></trkpt>
<trkpt lat="54.2567580000" lon="-2.2455270000"><ele>663</ele><time>2013-11-17T11:52:13Z</time></trkpt>
<trkpt lat="54.2567570000" lon="-2.2455260000"><ele>663</ele><time>2013-11-17T11:52:14Z</time></trkpt>
<trkpt lat="54.2567560000" lon="-2.2455230000"><ele>663</ele><time>2013-11-17T11:52:15Z</time></trkpt>
<trkpt lat="54.2567560000" lon="-2.2455220000"><ele>663</ele><time>2013-11-17T11:52:16Z</time></trkpt>
<trkpt lat="54.2567550000" lon="-2.2455230000"><ele>663</ele><time>2013-11-17T11:52:17Z</time></trkpt>
<trkpt lat="54.2567560000" lon="-2.2455250000"><ele>663</ele><time>2013-11-17T11:52:18Z</time></trkpt>
<trkpt lat="54.2567570000" lon="-2.2455270000"><ele>663</ele><time>2013-11-17T11:52:19Z</time></trkpt>
<trkpt lat="54.2567580000" lon="-2.2455300000"><ele>663</ele><time>2013-11-17T11:52:20Z</time></trkpt>
<trkpt lat="54.2567590000" lon="-2.2455310000"><ele>663</ele><time>2013-11-17T11:52:21Z</time></trkpt>
<trkpt lat="54.2567590000" lon="-2.2455320000"><ele>663</ele><time>2013-11-17T11:52:22Z</time></trkpt>
<trkpt lat="54.2567580000" lon="-2.2455340000"><ele>663</ele><time>2013-11-17T11:52:23Z</time></trkpt>
<trkpt lat="54.2567570000" lon="-2.2455350000"><ele>663</ele><time>2013-11-17T11:52:24Z</time></trkpt>
<trkpt lat="54.2567570000" lon="-2.2455360000"><ele>663</ele><time>2013-11-17T11:52:25Z</time></trkpt>
<trkpt lat="54.2567570000" lon="-2.2455370000"><ele>663</ele><time>2013-11-17T11:52:26Z</time></trkpt>
<trkpt lat="54.2567570000" lon="-2.2455380000"><ele>663</ele><time>2013-11-17T11:52:27Z</time></trkpt>
<trkpt lat="54.2567580000" lon="-2.2455400000"><ele>663</ele><time>2013-11-17T11:52:28Z</time></trkpt>
<trkpt lat="54.2567590000" lon="-2.2455420000"><ele>663</ele><time>2013-11-17T11:52:29Z</time></trkpt>
<trkpt lat="54.2567600000" lon="-2.2455430000"><ele>663</ele><time>2013-11-17T11:52:30Z</time></trkpt>
<trkpt lat="54.2567610000" lon="-2.2455420000"><ele>663</ele><time>2013-11-17T11:52:31Z</time></trkpt>
<trkpt lat="54.2567610000" lon="-2.2455410000"><ele>663</ele><time>2013-11-17T11:52:32Z</time></trkpt>
<trkpt lat="54.2567580000" lon="-2.2455440000"><ele>663</ele><time>2013-11-17T11:52:33Z</time></trkpt>
<trkpt lat="54.2567570000" lon="-2.2455470000"><ele>663</ele><time>2013-11-17T11:52:34Z</time></trkpt>
<trkpt lat="54.2567560000" lon="-2.2455480000"><ele>663</ele><time>2013-11-17T11:52:35Z</time></trkpt>
<trkpt lat="54.2567560000" lon="-2.2455500000"><ele>663</ele><time>2013-11-17T11:52:36Z</time></trkpt>
<trkpt lat="54.2567550000" lon="-2.2455530000"><ele>663</ele><time>2013-11-17T11:52:37Z</time></trkpt>
<trkpt lat="54.2567560000" lon="-2.2455520000"><ele>663</ele><time>2013-11-17T11:52:38Z</time></trkpt>
<trkpt lat="54.2567560000" lon="-2.2455510000"><ele>663</ele><time>2013-11-17T11:52:39Z</time></trkpt>
<trkpt lat="54.2567550000" lon="-2.2455500000"><ele>663</ele><time>2013-11-17T11:52:40Z</time></trkpt>
<trkpt lat="54.2567540000" lon="-2.2455510000"><ele>663</ele><time>2013-11-17T11:52:41Z</time></trkpt>
<trkpt lat="54.2567530000" lon="-2.2455520000"><ele>663</ele><time>2013-11-17T11:52:42Z</time></trkpt>
<trkpt lat="54.2567520000" lon="-2.2455540000"><ele>663</ele><time>2013-11-17T11:52:43Z</time></trkpt>
<trkpt lat="54.2567520000" lon="-2.2455540000"><ele>663</ele><time>2013-11-17T11:52:44Z</time></trkpt>
<trkpt lat="54.2567520000" lon="-2.2455540000"><ele>663</ele><time>2013-11-17T11:52:45Z</time></trkpt>
<trkpt lat="54.2567520000" lon="-2.2455530000"><ele>663</ele><time>2013-11-17T11:52:46Z</time></trkpt>
<trkpt lat="54.2567510000" lon="-2.2455520000"><ele>663</ele><time>2013-11-17T11:52:47Z</time></trkpt>
<trkpt lat="54.2567530000" lon="-2.2455480000"><ele>663</ele><time>2013-11-17T11:52:48Z</time></trkpt>
<trkpt lat="54.2567540000" lon="-2.2455490000"><ele>663</ele><time>2013-11-17T11:52:49Z</time></trkpt>
<trkpt lat="54.2567520000" lon="-2.2455520000"><ele>663</ele><time>2013-11-17T11:52:50Z</time></trkpt>
<trkpt lat="54.2567530000" lon="-2.2455520000"><ele>663</ele><time>2013-11-17T11:52:51Z</time></trkpt>
<trkpt lat="54.2567520000" lon="-2.2455520000"><ele>663</ele><time>2013-11-17T11:52:52Z</time></trkpt>
<trkpt lat="54.2567500000" lon="-2.2455520000"><ele>663</ele><time>2013-11-17T11:52:53Z</time></trkpt>
<trkpt lat="54.2567490000" lon="-2.2455520000"><ele>663</ele><time>2013-11-17T11:52:54Z</time></trkpt>
<trkpt lat="54.2567500000" lon="-2.2455510000"><ele>663</ele><time>2013-11-17T11:52:55Z</time></trkpt>
<trkpt lat="54.2567500000" lon="-2.2455510000"><ele>663</ele><time>2013-11-17T11:52:56Z</time></trkpt>
<trkpt lat="54.2567500000" lon="-2.2455540000"><ele>663</ele><time>2013-11-17T11:52:57Z</time></trkpt>
<trkpt lat="54.2567480000" lon="-2.2455580000"><ele>663</ele><time>2013-11-17T11:52:58Z</time></trkpt>
<trkpt lat="54.2567460000" lon="-2.2455610000"><ele>663</ele><time>2013-11-17T11:52:59Z</time></trkpt>
<trkpt lat="54.2567460000" lon="-2.2455630000"><ele>663</ele><time>2013-11-17T11:53:00Z</time></trkpt>
<trkpt lat="54.2567450000" lon="-2.2455660000"><ele>663</ele><time>2013-11-17T11:53:01Z</time></trkpt>
<trkpt lat="54.2567440000" lon="-2.2455700000"><ele>663</ele><time>2013-11-17T11:53:02Z</time></trkpt>
<trkpt lat="54.2567440000" lon="-2.2455720000"><ele>663</ele><time>2013-11-17T11:53:03Z</time></trkpt>
<trkpt lat="54.2567440000" lon="-2.2455750000"><ele>663</ele><time>2013-11-17T11:53:04Z</time></trkpt>
<trkpt lat="54.2567440000" lon="-2.2455770000"><ele>663</ele><time>2013-11-17T11:53:05Z</time></trkpt>
<trkpt lat="54.2567440000" lon="-2.2455780000"><ele>663</ele><time>2013-11-17T11:53:06Z</time></trkpt>
<trkpt lat="54.2567440000" lon="-2.2455790000"><ele>663</ele><time>2013-11-17T11:53:07Z</time></trkpt>
<trkpt lat="54.2567450000" lon="-2.2455800000"><ele>663</ele><time>2013-11-17T11:53:08Z</time></trkpt>
<trkpt lat="54.2567500000" lon="-2.2455770000"><ele>663</ele><time>2013-11-17T11:53:09Z</time></trkpt>
<trkpt lat="54.2567510000" lon="-2.2455760000"><ele>663</ele><time>2013-11-17T11:53:10Z</time></trkpt>
<trkpt lat="54.2567510000" lon="-2.2455750000"><ele>663</ele><time>2013-11-17T11:53:11Z</time></trkpt>
<trkpt lat="54.2567520000" lon="-2.2455740000"><ele>663</ele><time>2013-11-17T11:53:12Z</time></trkpt>
<trkpt lat="54.2567520000" lon="-2.2455730000"><ele>663</ele><time>2013-11-17T11:53:13Z</time></trkpt>
<trkpt lat="54.2567510000" lon="-2.2455740000"><ele>663</ele><time>2013-11-17T11:53:14Z</time></trkpt>
<trkpt lat="54.2567500000" lon="-2.2455740000"><ele>663</ele><time>2013-11-17T11:53:15Z</time></trkpt>
<trkpt lat="54.2567480000" lon="-2.2455750000"><ele>663</ele><time>2013-11-17T11:53:16Z</time></trkpt>
<trkpt lat="54.2567470000" lon="-2.2455750000"><ele>663</ele><time>2013-11-17T11:53:17Z</time></trkpt>
<trkpt lat="54.2567480000" lon="-2.2455750000"><ele>663</ele><time>2013-11-17T11:53:18Z</time></trkpt>
<trkpt lat="54.2567500000" lon="-2.2455780000"><ele>663</ele><time>2013-11-17T11:53:19Z</time></trkpt>
<trkpt lat="54.2567510000" lon="-2.2455800000"><ele>663</ele><time>2013-11-17T11:53:20Z</time></trkpt>
<trkpt lat="54.2567520000" lon="-2.2455790000"><ele>663</ele><time>2013-11-17T11:53:21Z</time></trkpt>
<trkpt lat="54.2567530000" lon="-2.2455780000"><ele>663</ele><time>2013-11-17T11:53:22Z</time></trkpt>
<trkpt lat="54.2567530000" lon="-2.2455780000"><ele>663</ele><time>2013-11-17T11:53:23Z</time></trkpt>
<trkpt lat="54.2567540000" lon="-2.2455790000"><ele>663</ele><time>2013-11-17T11:53:24Z</time></trkpt>
<trkpt lat="54.2567550000" lon="-2.2455800000"><ele>663</ele><time>2013-11-17T11:53:25Z</time></trkpt>
<trkpt lat="54.2567570000" lon="-2.2455800000"><ele>663</ele><time>2013-11-17T11:53:26Z</time></trkpt>
<trkpt lat="54.2567600000" lon="-2.2455760000"><ele>663</ele><time>2013-11-17T11:53:27Z</time></trkpt>
<trkpt lat="54.2567620000" lon="-2.2455730000"><ele>663</ele><time>2013-11-17T11:53:28Z</time></trkpt>
<trkpt lat="54.2567640000" lon="-2.2455700000"><ele>663</ele><time>2013-11-17T11:53:29Z</time></trkpt>
<trkpt lat="54.2567630000" lon="-2.2455680000"><ele>663</ele><time>2013-11-17T11:53:30Z</time></trkpt>
<trkpt lat="54.2567630000" lon="-2.2455650000"><ele>663</ele><time>2013-11-17T11:53:31Z</time></trkpt>
<trkpt lat="54.2567640000" lon="-2.2455670000"><ele>663</ele><time>2013-11-17T11:53:32Z</time></trkpt>
<trkpt lat="54.2567650000" lon="-2.2455700000"><ele>663</ele><time>2013-11-17T11:53:33Z</time></trkpt>
<trkpt lat="54.2567670000" lon="-2.2455720000"><ele>663</ele><time>2013-11-17T11:53:34Z</time></trkpt>
<trkpt lat="54.2567670000" lon="-2.2455770000"><ele>663</ele><time>2013-11-17T11:53:45Z</time></trkpt>
<trkpt lat="54.2567660000" lon="-2.2455800000"><ele>663</ele></trkpt>
<trkpt lat="54.2567660000" lon="-2.2455830000"><ele>663</ele><time>2013-11-17T11:53:47Z</time></trkpt>
<trkpt lat="54.2567690000" lon="-2.2455800000"><ele>663</ele><time>2013-11-17T11:53:48Z</time></trkpt>
<trkpt lat="54.2567710000" lon="-2.2455760000"><ele>663</ele><time>2013-11-17T11:53:49Z</time></trkpt>
<trkpt lat="54.2567720000" lon="-2.2455710000"><ele>663</ele><time>2013-11-17T11:53:50Z</time></trkpt>
<trkpt lat="54.2567730000" lon="-2.2455670000"><ele>663</ele><time>2013-11-17T11:53:51Z</time></trkpt>
<trkpt lat="54.2567740000" lon="-2.2455650000"><ele>663</ele><time>2013-11-17T11:53:52Z</time></trkpt>
<trkpt lat="54.2567730000" lon="-2.2455660000"><ele>663</ele><time>2013-11-17T11:53:53Z</time></trkpt>
<trkpt lat="54.2567690000" lon="-2.2455710000"><ele>663</ele><time>2013-11-17T11:53:54Z</time></trkpt>
<trkpt lat="54.2567670000" lon="-2.2455720000"><ele>663</ele><time>2013-11-17T11:53:55Z</time></trkpt>
<trkpt lat="54.2567670000" lon="-2.2455730000"><ele>663</ele><time>2013-11-17T11:53:56Z</time></trkpt>
<trkpt lat="54.2567680000" lon="-2.2455720000"><ele>663</ele><time>2013-11-17T11:53:57Z</time></trkpt>
<trkpt lat="54.2567680000" lon="-2.2455720000"><ele>663</ele><time>2013-11-17T11:53:58Z</time></trkpt>
<trkpt lat="54.2567660000" lon="-2.2455720000"><ele>663</ele><time>2013-11-17T11:53:59Z</time></trkpt>
<trkpt lat="54.2567630000" lon="-2.2455710000"><ele>663</ele><time>2013-11-17T11:54:00Z</time></trkpt>
<trkpt lat="54.2567610000" lon="-2.2455700000"><ele>663</ele><time>2013-11-17T11:54:01Z</time></trkpt>
<trkpt lat="54.2567610000" lon="-2.2455710000"><ele>663</ele><time>2013-11-17T11:54:02Z</time></trkpt>
<trkpt lat="54.2567640000" lon="-2.2455720000"><ele>663</ele><time>2013-11-17T11:54:03Z</time></trkpt>
<trkpt lat="54.2567650000" lon="-2.2455810000"><ele>663</ele><time>2013-11-17T11:54:04Z</time></trkpt>
<trkpt lat="54.2567640000" lon="-2.2455900000"><ele>663</ele><time>2013-11-17T11:54:05Z</time></trkpt>
<trkpt lat="54.2567660000" lon="-2.2455950000"><ele>663</ele><time>2013-11-17T11:54:06Z</time></trkpt>
<trkpt lat="54.2567680000" lon="-2.2455990000"><ele>663</ele><time>2013-11-17T11:54:07Z</time></trkpt>
<trkpt lat="54.2567720000" lon="-2.2456020000"><ele>663</ele><time>2013-11-17T11:54:08Z</time></trkpt>
<trkpt lat="54.2567750000" lon="-2.2456040000"><ele>663</ele><time>2013-11-17T11:54:09Z</time></trkpt>
<trkpt lat="54.2567770000" lon="-2.2456070000"><ele>663</ele><time>2013-11-17T11:54:10Z</time></trkpt>
<trkpt lat="54.2567780000" lon="-2.2456090000"><ele>663</ele><time>2013-11-17T11:54:11Z</time></trkpt>
<trkpt lat="54.2567820000" lon="-2.2456150000"><ele>663</ele><time>2013-11-17T11:54:12Z</time></trkpt>
<trkpt lat="54.2567890000" lon="-2.2456230000"><ele>663</ele><time>2013-11-17T11:54:13Z</time></trkpt>
<trkpt lat="54.2567920000" lon="-2.2456300000"><ele>663</ele><time>2013-11-17T11:54:14Z</time></trkpt>
<trkpt lat="54.2567910000" lon="-2.2456360000"><ele>663</ele><time>2013-11-17T11:54:15Z</time></trkpt>
<trkpt lat="54.2567910000" lon="-2.2456420000"><ele>663</ele><time>2013-11-17T11:54:16Z</time></trkpt>
<trkpt lat="54.2567910000" lon="-2.2456460000"><ele>663</ele><time>2013-11-17T11:54:17Z</time></trkpt>
<trkpt lat="54.2567920000" lon="-2.2456490000"><ele>663</ele><time>2013-11-17T11:54:18Z</time></trkpt>
<trkpt lat="54.2567930000" lon="-2.2456510000"><ele>663</ele><time>2013-11-17T11:54:19Z</time></trkpt>
<trkpt lat="54.2567930000" lon="-2.2456500000"><ele>663</ele><time>2013-11-17T11:54:20Z</time></trkpt>
<trkpt lat="54.2567930000" lon="-2.2456480000"><ele>663</ele><time>2013-11-17T11:54:21Z</time></trkpt>
<trkpt lat="54.2567900000" lon="-2.2456500000"><ele>663</ele><time>2013-11-17T11:54:22Z</time></trkpt>
<trkpt lat="54.2567900000" lon="-2.2456560000"><ele>663</ele><time>2013-11-17T11:54:23Z</time></trkpt>
<trkpt lat="54.2567900000" lon="-2.2456600000"><ele>663</ele><time>2013-11-17T11:54:24Z</time></trkpt>
<trkpt lat="54.2567900000" lon="-2.2456610000"><ele>663</ele><time>2013-11-17T11:54:25Z</time></trkpt>
<trkpt lat="54.2567880000" lon="-2.2456600000"><ele>663</ele><time>2013-11-17T11:54:26Z</time></trkpt>
<trkpt lat="54.2567880000" lon="-2.2456580000"><ele>663</ele><time>2013-11-17T11:54:27Z</time></trkpt>
<trkpt lat="54.2567890000" lon="-2.2456590000"><ele>663</ele><time>2013-11-17T11:54:28Z</time></trkpt>
<trkpt lat="54.2567890000" lon="-2.2456590000"><ele>663</ele><time>2013-11-17T11:54:29Z</time></trkpt>
<trkpt lat="54.2567880000" lon="-2.2456560000"><ele>663</ele><time>2013-11-17T11:54:30Z</time></trkpt>
<trkpt lat="54.2567860000" lon="-2.2456540000"><ele>663</ele><time>2013-11-17T11:54:31Z</time></trkpt>
<trkpt lat="54.2567850000" lon="-2.2456510000"><ele>663</ele><time>2013-11-17T11:54:32Z</time></trkpt>
<trkpt lat="54.2567850000" lon="-2.2456500000"><ele>663</ele><time>2013-11-17T11:54:33Z</time></trkpt>
<trkpt lat="54.2567850000" lon="-2.2456500000"><ele>663</ele><time>2013-11-17T11:54:34Z</time></trkpt>
<trkpt lat="54.2567850000" lon="-2.2456500000"><ele>663</ele><time>2013-11-17T11:54:35Z</time></trkpt>
<trkpt lat="54.2567840000" lon="-2.2456500000"><ele>663</ele><time>2013-11-17T11:54:36Z</time></trkpt>
<trkpt lat="54.2567840000" lon="-2.2456510000"><ele>663</ele><time>2013-11-17T11:54:37Z</time></trkpt>
<trkpt lat="54.2567850000" lon="-2.2456510000"><ele>663</ele><time>2013-11-17T11:54:38Z</time></trkpt>
<trkpt lat="54.2567840000" lon="-2.2456530000"><ele>663</ele><time>2013-11-17T11:54:39Z</time></trkpt>
<trkpt lat="54.2567830000" lon="-2.2456550000"><ele>663</ele><time>2013-11-17T11:54:40Z</time></trkpt>
<trkpt lat="54.2567830000" lon="-2.2456580000"><ele>663</ele><time>2013-11-17T11:54:41Z</time></trkpt>
<trkpt lat="54.2567830000" lon="-2.2456590000"><ele>663</ele><time>2013-11-17T11:54:42Z</time></trkpt>
<trkpt lat="54.2567820000" lon="-2.2456610000"><ele>663</ele><time>2013-11-17T11:54:43Z</time></trkpt>
<trkpt lat="54.2567810000" lon="-2.2456610000"><ele>663</ele><time>2013-11-17T11:54:44Z</time></trkpt>
<trkpt lat="54.2567810000" lon="-2.2456620000"><ele>663</ele><time>2013-11-17T11:54:45Z</time></trkpt>
<trkpt lat="54.2567810000" lon="-2.2456620000"><ele>663</ele><time>2013-11-17T11:54:46Z</time></trkpt>
<trkpt lat="54.2567800000" lon="-2.2456620000"><ele>663</ele><time>2013-11-17T11:54:47Z</time></trkpt>
<trkpt lat="54.2567790000" lon="-2.2456640000"><ele>663</ele><time>2013-11-17T11:54:48Z</time></trkpt>
<trkpt lat="54.2567780000" lon="-2.2456650000"><ele>663</ele><time>2013-11-17T11:54:49Z</time></trkpt>
<trkpt lat="54.2567780000" lon="-2.2456660000"><ele>663</ele><time>2013-11-17T11:54:50Z</time></trkpt>
<trkpt lat="54.2567800000" lon="-2.2456660000"><ele>663</ele><time>2013-11-17T11:54:51Z</time></trkpt>
<trkpt lat="54.2567800000" lon="-2.2456670000"><ele>663</ele><time>2013-11-17T11:54:52Z</time></trkpt>
<trkpt lat="54.2567800000" lon="-2.2456670000"><ele>663</ele><time>2013-11-17T11:54:53Z</time></trkpt>
<trkpt lat="54.2567810000" lon="-2.2456670000"><ele>663</ele></trkpt>
<trkpt lat="54.2567820000" lon="-2.2456670000"><ele>663</ele><time>2013-11-17T11:54:55Z</time></trkpt>
<trkpt lat="54.2567840000" lon="-2.2456650000"><ele>663</ele><time>2013-11-17T11:54:56Z</time></trkpt>
<trkpt lat="54.2567850000" lon="-2.2456610000"><ele>663</ele><time>2013-11-17T11:54:57Z</time></trkpt>
<trkpt lat="54.2567850000" lon="-2.2456590000"><ele>663</ele><time>2013-11-17T11:54:58Z</time></trkpt>
<trkpt lat="54.2567850000" lon="-2.2456580000"><ele>663</ele><time>2013-11-17T11:54:59Z</time></trkpt>
<trkpt lat="54.2567850000" lon="-2.2456580000"><ele>663</ele><time>2013-11-17T11:55:01Z</time></trkpt>
<trkpt lat="54.2567850000" lon="-2.2456570000"><ele>663</ele><time>2013-11-17T11:55:02Z</time></trkpt>
<trkpt lat="54.2567860000" lon="-2.2456570000"><ele>663</ele><time>2013-11-17T11:55:03Z</time></trkpt>
<trkpt lat="54.2567850000" lon="-2.2456560000"><ele>663</ele><time>2013-11-17T11:55:04Z</time></trkpt>
<trkpt lat="54.2567850000" lon="-2.2456520000"><ele>663</ele><time>2013-11-17T11:55:05Z</time></trkpt>
<trkpt lat="54.2567850000" lon="-2.2456380000"><ele>663</ele><time>2013-11-17T11:55:06Z</time></trkpt>
<trkpt lat="54.2567840000" lon="-2.2456270000"><ele>663</ele><time>2013-11-17T11:55:07Z</time></trkpt>
<trkpt lat="54.2567830000" lon="-2.2456200000"><ele>663</ele><time>2013-11-17T11:55:08Z</time></trkpt>
<trkpt lat="54.2567820000" lon="-2.2456110000"><ele>663</ele><time>2013-11-17T11:55:09Z</time></trkpt>
<trkpt lat="54.2567800000" lon="-2.2456000000"><ele>663</ele><time>2013-11-17T11:55:10Z</time></trkpt>
<trkpt lat="54.2567790000" lon="-2.2455960000"><ele>663</ele><time>2013-11-17T11:55:11Z</time></trkpt>
<trkpt lat="54.2567780000" lon="-2.2455930000"><ele>663</ele><time>2013-11-17T11:55:12Z</time></trkpt>
<trkpt lat="54.2567750000" lon="-2.2455950000"><ele>663</ele><time>2013-11-17T11:55:13Z</time></trkpt>
<trkpt lat="54.2567720000" lon="-2.2455950000"><ele>663</ele><time>2013-11-17T11:55:14Z</time></trkpt>
<trkpt lat="54.2567710000" lon="-2.2455960000"><ele>663</ele><time>2013-11-17T11:55:15Z</time></trkpt>
<trkpt lat="54.2567710000" lon="-2.2455950000"><ele>663</ele><time>2013-11-17T11:55:16Z</time></trkpt>
<trkpt lat="54.2567700000" lon="-2.2455930000"><ele>663</ele><time>2013-11-17T11:55:17Z</time></trkpt>
<trkpt lat="54.2567700000" lon="-2.2455950000"><ele>663</ele><time>2013-11-17T11:55:18Z</time></trkpt>
<trkpt lat="54.2567700000" lon="-2.2455960000"><ele>663</ele><time>2013-11-17T11:55:19Z</time></trkpt>
<trkpt lat="54.2567710000" lon="-2.2455960000"><ele>663</ele><time>2013-11-17T11:55:20Z</time></trkpt>
<trkpt lat="54.2567710000" lon="-2.2455960000"><ele>663</ele><time>2013-11-17T11:55:21Z</time></trkpt>
<trkpt lat="54.2567710000" lon="-2.2455980000"><ele>663</ele><time>2013-11-17T11:55:22Z</time></trkpt>
<trkpt lat="54.2567720000" lon="-2.2456000000"><ele>663</ele><time>2013-11-17T11:55:23Z</time></trkpt>
<trkpt lat="54.2567720000" lon="-2.2456010000"><ele>663</ele><time>2013-11-17T11:55:24Z</time></trkpt>
<trkpt lat="54.2567720000" lon="-2.2456020000"><ele>663</ele><time>2013-11-17T11:55:25Z</time></trkpt>
<trkpt lat="54.2567750000" lon="-2.2455990000"><ele>663</ele><time>2013-11-17T11:55:26Z</time></trkpt>
<trkpt lat="54.2567770000" lon="-2.2455960000"><ele>663</ele><time>2013-11-17T11:55:27Z</time></trkpt>
<trkpt lat="54.2567770000" lon="-2.2455950000"><ele>663</ele><time>2013-11-17T11:55:28Z</time></trkpt>
<trkpt lat="54.2567790000" lon="-2.2455930000"><ele>663</ele><time>2013-11-17T11:55:29Z</time></trkpt>
<trkpt lat="54.2567800000" lon="-2.2455920000"><ele>663</ele><time>2013-11-17T11:55:30Z</time></trkpt>
<trkpt lat="54.2567800000" lon="-2.2455920000"><ele>663</ele><time>2013-11-17T11:55:31Z</time></trkpt>
<trkpt lat="54.2567790000" lon="-2.2455920000"><ele>663</ele><time>2013-11-17T11:55:32Z</time></trkpt>
<trkpt lat="54.2567790000" lon="-2.2455910000"><ele>663</ele><time>2013-11-17T11:55:33Z</time></trkpt>
<trkpt lat="54.2567780000" lon="-2.2455920000"><ele>663</ele><time>2013-11-17T11:55:34Z</time></trkpt>
<trkpt lat="54.2567780000" lon="-2.2455940000"><ele>663</ele><time>2013-11-17T11:55:35Z</time></trkpt>
<trkpt lat="54.2567770000" lon="-2.2455950000"><ele>663</ele><time>2013-11-17T11:55:36Z</time></trkpt>
<trkpt lat="54.2567780000" lon="-2.2455920000"><ele>663</ele><time>2013-11-17T11:55:37Z</time></trkpt>
<trkpt lat="54.2567810000" lon="-2.2455890000"><ele>663</ele><time>2013-11-17T11:55:38Z</time></trkpt>
<trkpt lat="54.2567860000" lon="-2.2455860000"><ele>663</ele><time>2013-11-17T11:55:39Z</time></trkpt>
<trkpt lat="54.2567900000" lon="-2.2455800000"><ele>663</ele><time>2013-11-17T11:55:40Z</time></trkpt>
<trkpt lat="54.2567910000" lon="-2.2455730000"><ele>663</ele><time>2013-11-17T11:55:44Z</time></trkpt>
<trkpt lat="54.2567900000" lon="-2.2455730000"><ele>663</ele><time>2013-11-17T11:55:45Z</time></trkpt>
<trkpt lat="54.2568010000" lon="-2.2455900000"><ele>663</ele><time>2013-11-17T11:55:51Z</time></trkpt>
<trkpt lat="54.2568010000" lon="-2.2455940000"><ele>663</ele><time>2013-11-17T11:55:52Z</time></trkpt>
<trkpt lat="54.2568000000" lon="-2.2455980000"><ele>663</ele><time>2013-11-17T11:55:53Z</time></trkpt>
<trkpt lat="54.2568140000" lon="-2.2456330000"><ele>663</ele><time>2013-11-17T11:55:59Z</time></trkpt>
<trkpt lat="54.2568300000" lon="-2.2456830000"><ele>664</ele><time>2013-11-17T11:56:02Z</time></trkpt>
<trkpt lat="54.2568130000" lon="-2.2457420000"><ele>663</ele><time>2013-11-17T11:56:06Z</time></trkpt>
<trkpt lat="54.2567760000" lon="-2.2457890000"><ele>663</ele><time>2013-11-17T11:56:09Z</time></trkpt>
<trkpt lat="54.2567450000" lon="-2.2458130000"><ele>663</ele><time>2013-11-17T11:56:11Z</time></trkpt>
<trkpt lat="54.2567170000" lon="-2.2458460000"><ele>663</ele><time>2013-11-17T11:56:13Z</time></trkpt>
<trkpt lat="54.2566960000" lon="-2.2458850000"><ele>663</ele><time>2013-11-17T11:56:15Z</time></trkpt>
<trkpt lat="54.2566780000" lon="-2.2459180000"><ele>663</ele><time>2013-11-17T11:56:16Z</time></trkpt>
<trkpt lat="54.2566680000" lon="-2.2459370000"><ele>663</ele><time>2013-11-17T11:56:17Z</time></trkpt>
<trkpt lat="54.2566580000" lon="-2.2459560000"><ele>663</ele><time>2013-11-17T11:56:18Z</time></trkpt>
<trkpt lat="54.2566490000" lon="-2.2459750000"><ele>663</ele><time>2013-11-17T11:56:19Z</time></trkpt>
<trkpt lat="54.2566430000" lon="-2.2459930000"><ele>663</ele><time>2013-11-17T11:56:20Z</time></trkpt>
<trkpt lat="54.2566370000" lon="-2.2460100000"><ele>663</ele><time>2013-11-17T11:56:21Z</time></trkpt>
<trkpt lat="54.2566320000" lon="-2.2460270000"><ele>663</ele><time>2013-11-17T11:56:22Z</time></trkpt>
<trkpt lat="54.2566260000" lon="-2.2460410000"><ele>663</ele><time>2013-11-17T11:56:23Z</time></trkpt>
<trkpt lat="54.2566220000" lon="-2.2460570000"><ele>663</ele><time>2013-11-17T11:56:24Z</time></trkpt>
<trkpt lat="54.2565950000" lon="-2.2460990000"><ele>663</ele><time>2013-11-17T11:56:31Z</time></trkpt>
<trkpt lat="54.2565640000" lon="-2.2461290000"><ele>663</ele><time>2013-11-17T11:56:35Z</time></trkpt>
<trkpt lat="54.2565450000" lon="-2.2461820000"><ele>663</ele><time>2013-11-17T11:56:38Z</time></trkpt>
<trkpt lat="54.2565310000" lon="-2.2462450000"><ele>663</ele><time>2013-11-17T11:56:41Z</time></trkpt>
<trkpt lat="54.2565190000" lon="-2.2462920000"><ele>663</ele><time>2013-11-17T11:56:43Z</time></trkpt>
<trkpt lat="54.2565160000" lon="-2.2463380000"><ele>663</ele><time>2013-11-17T11:56:45Z</time></trkpt>
<trkpt lat="54.2565100000" lon="-2.2463890000"><ele>663</ele><time>2013-11-17T11:56:48Z</time></trkpt>
<trkpt lat="54.2565010000" lon="-2.2464460000"><ele>663</ele><time>2013-11-17T11:56:51Z</time></trkpt>
<trkpt lat="54.2564870000" lon="-2.2465080000"><ele>663</ele><time>2013-11-17T11:56:54Z</time></trkpt>
<trkpt lat="54.2564690000" lon="-2.2465590000"><ele>663</ele><time>2013-11-17T11:56:57Z</time></trkpt>
<trkpt lat="54.2564490000" lon="-2.2466100000"><ele>663</ele><time>2013-11-17T11:57:00Z</time></trkpt>
<trkpt lat="54.2564250000" lon="-2.2466580000"><ele>663</ele><time>2013-11-17T11:57:03Z</time></trkpt>
<trkpt lat="54.2564180000" lon="-2.2467130000"><ele>663</ele><time>2013-11-17T11:57:06Z</time></trkpt>
<trkpt lat="54.2564080000" lon="-2.2467700000"><ele>663</ele><time>2013-11-17T11:57:11Z</time></trkpt>
<trkpt lat="54.2563870000" lon="-2.2468080000"><ele>663</ele><time>2013-11-17T11:57:14Z</time></trkpt>
<trkpt lat="54.2563770000" lon="-2.2468680000"><ele>663</ele><time>2013-11-17T11:57:17Z</time></trkpt>
<trkpt lat="54.2563910000" lon="-2.2469340000"><ele>663</ele><time>2013-11-17T11:57:21Z</time></trkpt>
<trkpt lat="54.2563930000" lon="-2.2469930000"><ele>663</ele><time>2013-11-17T11:57:24Z</time></trkpt>
<trkpt lat="54.2563850000" lon="-2.2470360000"><ele>663</ele><time>2013-11-17T11:57:26Z</time></trkpt>
<trkpt lat="54.2563800000" lon="-2.2470800000"><ele>663</ele><time>2013-11-17T11:57:28Z</time></trkpt>
<trkpt lat="54.2563750000" lon="-2.2471210000"><ele>656</ele><time>2013-11-17T11:57:30Z</time></trkpt>
<trkpt lat="54.2563660000" lon="-2.2471680000"><ele>656</ele><time>2013-11-17T11:57:32Z</time></trkpt>
<trkpt lat="54.2563640000" lon="-2.2471840000"><ele>656</ele><time>2013-11-17T11:57:33Z</time></trkpt>
<trkpt lat="54.2563610000" lon="-2.2472030000"><ele>656</ele><time>2013-11-17T11:57:34Z</time></trkpt>
<trkpt lat="54.2563550000" lon="-2.2472230000"><ele>656</ele><time>2013-11-17T11:57:35Z</time></trkpt>
<trkpt lat="54.2563500000" lon="-2.2472440000"><ele>656</ele><time>2013-11-17T11:57:36Z</time></trkpt>
<trkpt lat="54.2563410000" lon="-2.2472700000"><ele>656</ele><time>2013-11-17T11:57:37Z</time></trkpt>
<trkpt lat="54.2563330000" lon="-2.2472940000"><ele>656</ele><time>2013-11-17T11:57:38Z</time></trkpt>
<trkpt lat="54.2563270000" lon="-2.2473180000"><ele>656</ele><time>2013-11-17T11:57:39Z</time></trkpt>
<trkpt lat="54.2563140000" lon="-2.2473630000"><ele>656</ele><time>2013-11-17T11:57:42Z</time></trkpt>
<trkpt lat="54.2562950000" lon="-2.2474040000"><ele>656</ele><time>2013-11-17T11:57:45Z</time></trkpt>
<trkpt lat="54.2562710000" lon="-2.2474290000"><ele>656</ele><time>2013-11-17T11:57:47Z</time></trkpt>
<trkpt lat="54.2562440000" lon="-2.2474600000"><ele>656</ele><time>2013-11-17T11:57:49Z</time></trkpt>
<trkpt lat="54.2562200000" lon="-2.2474880000"><ele>656</ele><time>2013-11-17T11:57:51Z</time></trkpt>
<trkpt lat="54.2561970000" lon="-2.2475020000"><ele>656</ele><time>2013-11-17T11:57:53Z</time></trkpt>
<trkpt lat="54.2561710000" lon="-2.2475260000"><ele>656</ele><time>2013-11-17T11:57:55Z</time></trkpt>
<trkpt lat="54.2561470000" lon="-2.2475500000"><ele>656</ele><time>2013-11-17T11:57:57Z</time></trkpt>
<trkpt lat="54.2561260000" lon="-2.2475730000"><ele>656</ele><time>2013-11-17T11:57:59Z</time></trkpt>
<trkpt lat="54.2561110000" lon="-2.2476070000"><ele>656</ele><time>2013-11-17T11:58:01Z</time></trkpt>
<trkpt lat="54.2560970000" lon="-2.2476470000"><ele>656</ele><time>2013-11-17T11:58:03Z</time></trkpt>
<trkpt lat="54.2560820000" lon="-2.2476890000"><ele>656</ele><time>2013-11-17T11:58:05Z</time></trkpt>
<trkpt lat="54.2560570000" lon="-2.2477220000"><ele>656</ele><time>2013-11-17T11:58:08Z</time></trkpt>
<trkpt lat="54.2560340000" lon="-2.2477390000"><ele>656</ele><time>2013-11-17T11:58:10Z</time></trkpt>
<trkpt lat="54.2559930000" lon="-2.2477700000"><ele>656</ele><time>2013-11-17T11:58:12Z</time></trkpt>
<trkpt lat="54.2559640000" lon="-2.2477970000"><ele>656</ele><time>2013-11-17T11:58:14Z</time></trkpt>
<trkpt lat="54.2559410000" lon="-2.2478150000"><ele>656</ele><time>2013-11-17T11:58:16Z</time></trkpt>
<trkpt lat="54.2559180000" lon="-2.2478410000"><ele>656</ele><time>2013-11-17T11:58:18Z</time></trkpt>
<trkpt lat="54.2558880000" lon="-2.2478710000"><ele>656</ele><time>2013-11-17T11:58:20Z</time></trkpt>
<trkpt lat="54.2558780000" lon="-2.2478820000"><ele>656</ele><time>2013-11-17T11:58:21Z</time></trkpt>
<trkpt lat="54.2558660000" lon="-2.2478930000"><ele>656</ele><time>2013-11-17T11:58:22Z</time></trkpt>
<trkpt lat="54.2558540000" lon="-2.2479050000"><ele>656</ele><time>2013-11-17T11:58:23Z</time></trkpt>
<trkpt lat="54.2558430000" lon="-2.2479150000"><ele>656</ele><time>2013-11-17T11:58:24Z</time></trkpt>
<trkpt lat="54.2558320000" lon="-2.2479240000"><ele>656</ele><time>2013-11-17T11:58:25Z</time></trkpt>
<trkpt lat="54.2558210000" lon="-2.2479310000"><ele>656</ele><time>2013-11-17T11:58:26Z</time></trkpt>
<trkpt lat="54.2558110000" lon="-2.2479390000"><ele>656</ele><time>2013-11-17T11:58:27Z</time></trkpt>
<trkpt lat="54.2557990000" lon="-2.2479500000"><ele>656</ele><time>2013-11-17T11:58:28Z</time></trkpt>
<trkpt lat="54.2557880000" lon="-2.2479640000"><ele>656</ele><time>2013-11-17T11:58:29Z</time></trkpt>
<trkpt lat="54.2557780000" lon="-2.2479770000"><ele>656</ele><time>2013-11-17T11:58:30Z</time></trkpt>
<trkpt lat="54.2557660000" lon="-2.2479900000"><ele>656</ele><time>2013-11-17T11:58:31Z</time></trkpt>
<trkpt lat="54.2557550000" lon="-2.2480020000"><ele>656</ele><time>2013-11-17T11:58:32Z</time></trkpt>
<trkpt lat="54.2557430000" lon="-2.2480090000"><ele>656</ele><time>2013-11-17T11:58:33Z</time></trkpt>
<trkpt lat="54.2557310000" lon="-2.2480180000"><ele>656</ele><time>2013-11-17T11:58:34Z</time></trkpt>
<trkpt lat="54.2557190000" lon="-2.2480280000"><ele>656</ele><time>2013-11-17T11:58:35Z</time></trkpt>
<trkpt lat="54.2557080000" lon="-2.2480420000"><ele>656</ele><time>2013-11-17T11:58:36Z</time></trkpt>
<trkpt lat="54.2556990000" lon="-2.2480540000"><ele>656</ele><time>2013-11-17T11:58:37Z</time></trkpt>
<trkpt lat="54.2556900000" lon="-2.2480660000"><ele>656</ele><time>2013-11-17T11:58:38Z</time></trkpt>
<trkpt lat="54.2556790000" lon="-2.2480750000"><ele>656</ele><time>2013-11-17T11:58:39Z</time></trkpt>
<trkpt lat="54.2556680000" lon="-2.2480830000"><ele>656</ele><time>2013-11-17T11:58:40Z</time></trkpt>
<trkpt lat="54.2556570000" lon="-2.2480910000"><ele>656</ele><time>2013-11-17T11:58:41Z</time></trkpt>
<trkpt lat="54.2556470000" lon="-2.2480990000"><ele>656</ele><time>2013-11-17T11:58:42Z</time></trkpt>
<trkpt lat="54.2556380000" lon="-2.2481120000"><ele>656</ele><time>2013-11-17T11:58:43Z</time></trkpt>
<trkpt lat="54.2556280000" lon="-2.2481230000"><ele>656</ele><time>2013-11-17T11:58:44Z</time></trkpt>
<trkpt lat="54.2556190000" lon="-2.2481370000"><ele>656</ele><time>2013-11-17T11:58:45Z</time></trkpt>
<trkpt lat="54.2556080000" lon="-2.2481500000"><ele>656</ele><time>2013-11-17T11:58:46Z</time></trkpt>
<trkpt lat="54.2555990000" lon="-2.2481640000"><ele>656</ele><time>2013-11-17T11:58:47Z</time></trkpt>
<trkpt lat="54.2555920000" lon="-2.2481770000"><ele>656</ele><time>2013-11-17T11:58:48Z</time></trkpt>
<trkpt lat="54.2555830000" lon="-2.2481900000"><ele>656</ele><time>2013-11-17T11:58:49Z</time></trkpt>
<trkpt lat="54.2555780000" lon="-2.2482020000"><ele>656</ele><time>2013-11-17T11:58:50Z</time></trkpt>
<trkpt lat="54.2555720000" lon="-2.2482140000"><ele>656</ele><time>2013-11-17T11:58:51Z</time></trkpt>
<trkpt lat="54.2555650000" lon="-2.2482260000"><ele>656</ele><time>2013-11-17T11:58:52Z</time></trkpt>
<trkpt lat="54.2555550000" lon="-2.2482390000"><ele>656</ele><time>2013-11-17T11:58:53Z</time></trkpt>
<trkpt lat="54.2555450000" lon="-2.2482440000"><ele>656</ele><time>2013-11-17T11:58:54Z</time></trkpt>
<trkpt lat="54.2555340000" lon="-2.2482510000"><ele>656</ele><time>2013-11-17T11:58:55Z</time></trkpt>
<trkpt lat="54.2555240000" lon="-2.2482580000"><ele>656</ele><time>2013-11-17T11:58:56Z</time></trkpt>
<trkpt lat="54.2555140000" lon="-2.2482660000"><ele>656</ele><time>2013-11-17T11:58:57Z</time></trkpt>
<trkpt lat="54.2555020000" lon="-2.2482740000"><ele>656</ele><time>2013-11-17T11:58:58Z</time></trkpt>
<trkpt lat="54.2554890000" lon="-2.2482790000"><ele>656</ele><time>2013-11-17T11:58:59Z</time></trkpt>
<trkpt lat="54.2554780000" lon="-2.2482840000"><ele>656</ele><time>2013-11-17T11:59:00Z</time></trkpt>
<trkpt lat="54.2554650000" lon="-2.2482880000"><ele>656</ele><time>2013-11-17T11:59:01Z</time></trkpt>
<trkpt lat="54.2554520000" lon="-2.2482920000"><ele>656</ele><time>2013-11-17T11:59:02Z</time></trkpt>
<trkpt lat="54.2554400000" lon="-2.2482990000"><ele>656</ele><time>2013-11-17T11:59:03Z</time></trkpt>
<trkpt lat="54.2554270000" lon="-2.2483060000"><ele>656</ele><time>2013-11-17T11:59:04Z</time></trkpt>
<trkpt lat="54.2554140000" lon="-2.2483120000"><ele>656</ele><time>2013-11-17T11:59:05Z</time></trkpt>
<trkpt lat="54.2554010000" lon="-2.2483180000"><ele>656</ele><time>2013-11-17T11:59:06Z</time></trkpt>
<trkpt lat="54.2553880000" lon="-2.2483260000"><ele>656</ele><time>2013-11-17T11:59:07Z</time></trkpt>
<trkpt lat="54.2553770000" lon="-2.2483370000"><ele>656</ele><time>2013-11-17T11:59:08Z</time></trkpt>
<trkpt lat="54.2553650000" lon="-2.2483490000"><ele>656</ele><time>2013-11-17T11:59:09Z</time></trkpt>
<trkpt lat="54.2553520000" lon="-2.2483570000"><ele>656</ele><time>2013-11-17T11:59:10Z</time></trkpt>
<trkpt lat="54.2553400000" lon="-2.2483640000"><ele>656</ele><time>2013-11-17T11:59:11Z</time></trkpt>
<trkpt lat="54.2553280000" lon="-2.2483720000"><ele>656</ele><time>2013-11-17T11:59:12Z</time></trkpt>
<trkpt lat="54.2553160000" lon="-2.2483800000"><ele>656</ele><time>2013-11-17T11:59:13Z</time></trkpt>
<trkpt lat="54.2553040000" lon="-2.2483870000"><ele>656</ele><time>2013-11-17T11:59:14Z</time></trkpt>
<trkpt lat="54.2552920000" lon="-2.2483940000"><ele>656</ele><time>2013-11-17T11:59:15Z</time></trkpt>
<trkpt lat="54.2552790000" lon="-2.2484000000"><ele>656</ele><time>2013-11-17T11:59:16Z</time></trkpt>
<trkpt lat="54.2552670000" lon="-2.2484020000"><ele>656</ele><time>2013-11-17T11:59:17Z</time></trkpt>
<trkpt lat="54.2552540000" lon="-2.2484070000"><ele>656</ele><time>2013-11-17T11:59:18Z</time></trkpt>
<trkpt lat="54.2552390000" lon="-2.2484150000"><ele>656</ele><time>2013-11-17T11:59:19Z</time></trkpt>
<trkpt lat="54.2552260000" lon="-2.2484250000"><ele>656</ele><time>2013-11-17T11:59:20Z</time></trkpt>
<trkpt lat="54.2552130000" lon="-2.2484330000"><ele>656</ele><time>2013-11-17T11:59:21Z</time></trkpt>
<trkpt lat="54.2552020000" lon="-2.2484440000"><ele>656</ele><time>2013-11-17T11:59:22Z</time></trkpt>
<trkpt lat="54.2551910000" lon="-2.2484540000"><ele>656</ele><time>2013-11-17T11:59:23Z</time></trkpt>
<trkpt lat="54.2551800000" lon="-2.2484600000"><ele>656</ele><time>2013-11-17T11:59:24Z</time></trkpt>
<trkpt lat="54.2551690000" lon="-2.2484660000"><ele>656</ele><time>2013-11-17T11:59:25Z</time></trkpt>
<trkpt lat="54.2551570000" lon="-2.2484730000"><ele>656</ele><time>2013-11-17T11:59:26Z</time></trkpt>
<trkpt lat="54.2551450000" lon="-2.2484810000"><ele>656</ele><time>2013-11-17T11:59:27Z</time></trkpt>
<trkpt lat="54.2551320000" lon="-2.2484880000"><ele>656</ele><time>2013-11-17T11:59:28Z</time></trkpt>
<trkpt lat="54.2551170000" lon="-2.2484970000"><ele>656</ele><time>2013-11-17T11:59:29Z</time></trkpt>
<trkpt lat="54.2551020000" lon="-2.2485070000"><ele>656</ele><time>2013-11-17T11:59:30Z</time></trkpt>
<trkpt lat="54.2550890000" lon="-2.2485160000"><ele>656</ele><time>2013-11-17T11:59:31Z</time></trkpt>
<trkpt lat="54.2550780000" lon="-2.2485270000"><ele>656</ele><time>2013-11-17T11:59:32Z</time></trkpt>
<trkpt lat="54.2550670000" lon="-2.2485390000"><ele>656</ele><time>2013-11-17T11:59:33Z</time></trkpt>
<trkpt lat="54.2550550000" lon="-2.2485490000"><ele>656</ele><time>2013-11-17T11:59:34Z</time></trkpt>
<trkpt lat="54.2550430000" lon="-2.2485580000"><ele>656</ele><time>2013-11-17T11:59:35Z</time></trkpt>
<trkpt lat="54.2550310000" lon="-2.2485650000"><ele>656</ele><time>2013-11-17T11:59:36Z</time></trkpt>
<trkpt lat="54.2550190000" lon="-2.2485730000"><ele>656</ele><time>2013-11-17T11:59:37Z</time></trkpt>
<trkpt lat="54.2550090000" lon="-2.2485790000"><ele>653</ele><time>2013-11-17T11:59:38Z</time></trkpt>
<trkpt lat="54.2549990000" lon="-2.2485870000"><ele>653</ele><time>2013-11-17T11:59:39Z</time></trkpt>
<trkpt lat="54.2549870000" lon="-2.2485960000"><ele>653</ele><time>2013-11-17T11:59:40Z</time></trkpt>
<trkpt lat="54.2549750000" lon="-2.2486060000"><ele>653</ele><time>2013-11-17T11:59:41Z</time></trkpt>
<trkpt lat="54.2549630000" lon="-2.2486140000"><ele>653</ele><time>2013-11-17T11:59:42Z</time></trkpt>
<trkpt lat="54.2549520000" lon="-2.2486220000"><ele>653</ele><time>2013-11-17T11:59:43Z</time></trkpt>
<trkpt lat="54.2549400000" lon="-2.2486260000"><ele>653</ele><time>2013-11-17T11:59:44Z</time></trkpt>
<trkpt lat="54.2549300000" lon="-2.2486270000"><ele>653</ele><time>2013-11-17T11:59:45Z</time></trkpt>
<trkpt lat="54.2548970000" lon="-2.2486250000"><ele>653</ele><time>2013-11-17T11:59:48Z</time></trkpt>
<trkpt lat="54.2548720000" lon="-2.2486310000"><ele>653</ele><time>2013-11-17T11:59:50Z</time></trkpt>
<trkpt lat="54.2548500000" lon="-2.2486380000"><ele>653</ele><time>2013-11-17T11:59:52Z</time></trkpt>
<trkpt lat="54.2548230000" lon="-2.2486520000"><ele>653</ele><time>2013-11-17T11:59:54Z</time></trkpt>
<trkpt lat="54.2547990000" lon="-2.2486800000"><ele>653</ele><time>2013-11-17T11:59:56Z</time></trkpt>
<trkpt lat="54.2547760000" lon="-2.2487140000"><ele>653</ele><time>2013-11-17T11:59:58Z</time></trkpt>
<trkpt lat="54.2547570000" lon="-2.2487550000"><ele>653</ele><time>2013-11-17T12:00:01Z</time></trkpt>
<trkpt lat="54.2547450000" lon="-2.2487990000"><ele>653</ele><time>2013-11-17T12:00:03Z</time></trkpt>
<trkpt lat="54.2547300000" lon="-2.2488460000"><ele>653</ele><time>2013-11-17T12:00:05Z</time></trkpt>
<trkpt lat="54.2547180000" lon="-2.2488870000"><ele>653</ele><time>2013-11-17T12:00:07Z</time></trkpt>
<trkpt lat="54.2547060000" lon="-2.2489190000"><ele>653</ele><time>2013-11-17T12:00:09Z</time></trkpt>
<trkpt lat="54.2546900000" lon="-2.2489520000"><ele>653</ele><time>2013-11-17T12:00:11Z</time></trkpt>
<trkpt lat="54.2546800000" lon="-2.2489880000"><ele>653</ele><time>2013-11-17T12:00:13Z</time></trkpt>
<trkpt lat="54.2546700000" lon="-2.2490390000"><ele>653</ele><time>2013-11-17T12:00:16Z</time></trkpt>
<trkpt lat="54.2546560000" lon="-2.2490840000"><ele>653</ele><time>2013-11-17T12:00:19Z</time></trkpt>
<trkpt lat="54.2546430000" lon="-2.2491260000"><ele>653</ele><time>2013-11-17T12:00:21Z</time></trkpt>
<trkpt lat="54.2546290000" lon="-2.2491600000"><ele>653</ele><time>2013-11-17T12:00:23Z</time></trkpt>
<trkpt lat="54.2546150000" lon="-2.2491910000"><ele>653</ele><time>2013-11-17T12:00:25Z</time></trkpt>
<trkpt lat="54.2546020000" lon="-2.2492260000"><ele>653</ele><time>2013-11-17T12:00:27Z</time></trkpt>
<trkpt lat="54.2545880000" lon="-2.2492650000"><ele>653</ele><time>2013-11-17T12:00:29Z</time></trkpt>
<trkpt lat="54.2545670000" lon="-2.2493080000"><ele>653</ele><time>2013-11-17T12:00:31Z</time></trkpt>
<trkpt lat="54.2545580000" lon="-2.2493730000"><ele>653</ele><time>2013-11-17T12:00:34Z</time></trkpt>
<trkpt lat="54.2545560000" lon="-2.2494410000"><ele>653</ele><time>2013-11-17T12:00:37Z</time></trkpt>
<trkpt lat="54.2545570000" lon="-2.2494970000"><ele>653</ele><time>2013-11-17T12:00:40Z</time></trkpt>
<trkpt lat="54.2545700000" lon="-2.2495410000"><ele>653</ele><time>2013-11-17T12:00:43Z</time></trkpt>
<trkpt lat="54.2545830000" lon="-2.2495790000"><ele>653</ele><time>2013-11-17T12:00:45Z</time></trkpt>
<trkpt lat="54.2545940000" lon="-2.2496390000"><ele>653</ele><time>2013-11-17T12:00:48Z</time></trkpt>
<trkpt lat="54.2546000000" lon="-2.2496880000"><ele>653</ele><time>2013-11-17T12:00:51Z</time></trkpt>
<trkpt lat="54.2546210000" lon="-2.2497370000"><ele>653</ele><time>2013-11-17T12:00:55Z</time></trkpt>
<trkpt lat="54.2546450000" lon="-2.2497900000"><ele>653</ele><time>2013-11-17T12:00:59Z</time></trkpt>
<trkpt lat="54.2546590000" lon="-2.2498720000"><ele>653</ele><time>2013-11-17T12:01:04Z</time></trkpt>
<trkpt lat="54.2546560000" lon="-2.2499710000"><ele>653</ele><time>2013-11-17T12:01:09Z</time></trkpt>
<trkpt lat="54.2546500000" lon="-2.2500310000"><ele>653</ele><time>2013-11-17T12:01:12Z</time></trkpt>
<trkpt lat="54.2546390000" lon="-2.2501000000"><ele>653</ele><time>2013-11-17T12:01:15Z</time></trkpt>
<trkpt lat="54.2546300000" lon="-2.2501480000"><ele>653</ele><time>2013-11-17T12:01:17Z</time></trkpt>
<trkpt lat="54.2546220000" lon="-2.2502030000"><ele>635</ele><time>2013-11-17T12:01:19Z</time></trkpt>
<trkpt lat="54.2546200000" lon="-2.2502540000"><ele>635</ele><time>2013-11-17T12:01:21Z</time></trkpt>
<trkpt lat="54.2546180000" lon="-2.2503050000"><ele>635</ele><time>2013-11-17T12:01:23Z</time></trkpt>
<trkpt lat="54.2546150000" lon="-2.2503530000"><ele>635</ele><time>2013-11-17T12:01:25Z</time></trkpt>
<trkpt lat="54.2546110000" lon="-2.2504030000"><ele>635</ele><time>2013-11-17T12:01:27Z</time></trkpt>
<trkpt lat="54.2546060000" lon="-2.2504540000"><ele>635</ele><time>2013-11-17T12:01:29Z</time></trkpt>
<trkpt lat="54.2546010000" lon="-2.2504980000"><ele>635</ele><time>2013-11-17T12:01:31Z</time></trkpt>
<trkpt lat="54.2546040000" lon="-2.2505550000"><ele>635</ele><time>2013-11-17T12:01:33Z</time></trkpt>
<trkpt lat="54.2546030000" lon="-2.2506140000"><ele>635</ele><time>2013-11-17T12:01:37Z</time></trkpt>
<trkpt lat="54.2545980000" lon="-2.2506600000"><ele>635</ele><time>2013-11-17T12:01:39Z</time></trkpt>
<trkpt lat="54.2545910000" lon="-2.2507030000"><ele>635</ele><time>2013-11-17T12:01:41Z</time></trkpt>
<trkpt lat="54.2545860000" lon="-2.2507560000"><ele>635</ele><time>2013-11-17T12:01:44Z</time></trkpt>
<trkpt lat="54.2545810000" lon="-2.2508170000"><ele>635</ele><time>2013-11-17T12:01:47Z</time></trkpt>
<trkpt lat="54.2545750000" lon="-2.2508710000"><ele>635</ele><time>2013-11-17T12:01:49Z</time></trkpt>
<trkpt lat="54.2545760000" lon="-2.2509390000"><ele>635</ele><time>2013-11-17T12:01:52Z</time></trkpt>
<trkpt lat="54.2545780000" lon="-2.2510020000"><ele>635</ele><time>2013-11-17T12:01:55Z</time></trkpt>
<trkpt lat="54.2545710000" lon="-2.2510650000"><ele>635</ele><time>2013-11-17T12:01:58Z</time></trkpt>
<trkpt lat="54.2545600000" lon="-2.2511310000"><ele>635</ele><time>2013-11-17T12:02:01Z</time></trkpt>
<trkpt lat="54.2545550000" lon="-2.2511800000"><ele>635</ele><time>2013-11-17T12:02:03Z</time></trkpt>
<trkpt lat="54.2545460000" lon="-2.2512400000"><ele>635</ele><time>2013-11-17T12:02:06Z</time></trkpt>
<trkpt lat="54.2545340000" lon="-2.2512900000"><ele>635</ele><time>2013-11-17T12:02:09Z</time></trkpt>
<trkpt lat="54.2545200000" lon="-2.2513420000"><ele>635</ele><time>2013-11-17T12:02:12Z</time></trkpt>
<trkpt lat="54.2545120000" lon="-2.2513900000"><ele>635</ele><time>2013-11-17T12:02:14Z</time></trkpt>
<trkpt lat="54.2545030000" lon="-2.2514390000"><ele>635</ele><time>2013-11-17T12:02:16Z</time></trkpt>
<trkpt lat="54.2544870000" lon="-2.2515030000"><ele>635</ele><time>2013-11-17T12:02:19Z</time></trkpt>
<trkpt lat="54.2544760000" lon="-2.2515470000"><ele>635</ele><time>2013-11-17T12:02:21Z</time></trkpt>
<trkpt lat="54.2544570000" lon="-2.2515960000"><ele>635</ele><time>2013-11-17T12:02:24Z</time></trkpt>
<trkpt lat="54.2544380000" lon="-2.2516270000"><ele>635</ele><time>2013-11-17T12:02:28Z</time></trkpt>
<trkpt lat="54.2544250000" lon="-2.2516830000"><ele>635</ele><time>2013-11-17T12:02:32Z</time></trkpt>
<trkpt lat="54.2544130000" lon="-2.2517310000"><ele>635</ele><time>2013-11-17T12:02:34Z</time></trkpt>
<trkpt lat="54.2544000000" lon="-2.2517810000"><ele>635</ele><time>2013-11-17T12:02:36Z</time></trkpt>
<trkpt lat="54.2543860000" lon="-2.2518220000"><ele>635</ele><time>2013-11-17T12:02:38Z</time></trkpt>
<trkpt lat="54.2543730000" lon="-2.2518670000"><ele>635</ele><time>2013-11-17T12:02:40Z</time></trkpt>
<trkpt lat="54.2543570000" lon="-2.2519090000"><ele>635</ele><time>2013-11-17T12:02:42Z</time></trkpt>
<trkpt lat="54.2543450000" lon="-2.2519540000"><ele>635</ele><time>2013-11-17T12:02:44Z</time></trkpt>
<trkpt lat="54.2543340000" lon="-2.2519900000"><ele>635</ele><time>2013-11-17T12:02:46Z</time></trkpt>
<trkpt lat="54.2543270000" lon="-2.2520170000"><ele>635</ele><time>2013-11-17T12:02:49Z</time></trkpt>
<trkpt lat="54.2543260000" lon="-2.2520220000"><ele>635</ele><time>2013-11-17T12:02:50Z</time></trkpt>
<trkpt lat="54.2543240000" lon="-2.2520310000"><ele>635</ele><time>2013-11-17T12:02:51Z</time></trkpt>
<trkpt lat="54.2543200000" lon="-2.2520430000"><ele>635</ele><time>2013-11-17T12:02:52Z</time></trkpt>
<trkpt lat="54.2543160000" lon="-2.2520600000"><ele>635</ele><time>2013-11-17T12:02:53Z</time></trkpt>
<trkpt lat="54.2543120000" lon="-2.2520760000"><ele>635</ele><time>2013-11-17T12:02:54Z</time></trkpt>
<trkpt lat="54.2543090000" lon="-2.2520920000"><ele>635</ele><time>2013-11-17T12:02:55Z</time></trkpt>
<trkpt lat="54.2543040000" lon="-2.2521100000"><ele>635</ele><time>2013-11-17T12:02:56Z</time></trkpt>
<trkpt lat="54.2542980000" lon="-2.2521300000"><ele>635</ele><time>2013-11-17T12:02:57Z</time></trkpt>
<trkpt lat="54.2542910000" lon="-2.2521500000"><ele>635</ele><time>2013-11-17T12:02:58Z</time></trkpt>
<trkpt lat="54.2542840000" lon="-2.2521690000"><ele>635</ele><time>2013-11-17T12:02:59Z</time></trkpt>
<trkpt lat="54.2542800000" lon="-2.2521860000"><ele>635</ele><time>2013-11-17T12:03:00Z</time></trkpt>
<trkpt lat="54.2542760000" lon="-2.2522100000"><ele>635</ele><time>2013-11-17T12:03:01Z</time></trkpt>
<trkpt lat="54.2542730000" lon="-2.2522270000"><ele>635</ele><time>2013-11-17T12:03:02Z</time></trkpt>
<trkpt lat="54.2542710000" lon="-2.2522410000"><ele>635</ele><time>2013-11-17T12:03:03Z</time></trkpt>
<trkpt lat="54.2542670000" lon="-2.2522580000"><ele>635</ele><time>2013-11-17T12:03:04Z</time></trkpt>
<trkpt lat="54.2542650000" lon="-2.2522760000"><ele>635</ele><time>2013-11-17T12:03:05Z</time></trkpt>
<trkpt lat="54.2542650000" lon="-2.2522940000"><ele>635</ele><time>2013-11-17T12:03:06Z</time></trkpt>
<trkpt lat="54.2542650000" lon="-2.2523130000"><ele>635</ele><time>2013-11-17T12:03:07Z</time></trkpt>
<trkpt lat="54.2542710000" lon="-2.2523310000"><ele>635</ele><time>2013-11-17T12:03:08Z</time></trkpt>
<trkpt lat="54.2542750000" lon="-2.2523510000"><ele>635</ele><time>2013-11-17T12:03:09Z</time></trkpt>
<trkpt lat="54.2542790000" lon="-2.2523690000"><ele>635</ele><time>2013-11-17T12:03:10Z</time></trkpt>
<trkpt lat="54.2542870000" lon="-2.2523840000"><ele>635</ele><time>2013-11-17T12:03:11Z</time></trkpt>
<trkpt lat="54.2542950000" lon="-2.2523960000"><ele>635</ele><time>2013-11-17T12:03:12Z</time></trkpt>
<trkpt lat="54.2543050000" lon="-2.2524080000"><ele>635</ele><time>2013-11-17T12:03:13Z</time></trkpt>
<trkpt lat="54.2543120000" lon="-2.2524210000"><ele>635</ele></trkpt>
<trkpt lat="54.2543190000" lon="-2.2524320000"><ele>635</ele><time>2013-11-17T12:03:15Z</time></trkpt>
<trkpt lat="54.2543280000" lon="-2.2524450000"><ele>635</ele><time>2013-11-17T12:03:16Z</time></trkpt>
<trkpt lat="54.2543370000" lon="-2.2524580000"><ele>635</ele><time>2013-11-17T12:03:17Z</time></trkpt>
<trkpt lat="54.2543450000" lon="-2.2524710000"><ele>635</ele><time>2013-11-17T12:03:18Z</time></trkpt>
<trkpt lat="54.2543530000" lon="-2.2524850000"><ele>635</ele><time>2013-11-17T12:03:19Z</time></trkpt>
<trkpt lat="54.2543600000" lon="-2.2525010000"><ele>635</ele><time>2013-11-17T12:03:20Z</time></trkpt>
<trkpt lat="54.2543640000" lon="-2.2525180000"><ele>635</ele><time>2013-11-17T12:03:21Z</time></trkpt>
<trkpt lat="54.2543690000" lon="-2.2525340000"><ele>635</ele><time>2013-11-17T12:03:22Z</time></trkpt>
<trkpt lat="54.2543750000" lon="-2.2525480000"><ele>635</ele><time>2013-11-17T12:03:23Z</time></trkpt>
<trkpt lat="54.2543820000" lon="-2.2525620000"><ele>635</ele><time>2013-11-17T12:03:24Z</time></trkpt>
<trkpt lat="54.2543910000" lon="-2.2525750000"><ele>635</ele><time>2013-11-17T12:03:25Z</time></trkpt>
<trkpt lat="54.2543990000" lon="-2.2525880000"><ele>635</ele><time>2013-11-17T12:03:26Z</time></trkpt>
<trkpt lat="54.2544090000" lon="-2.2526020000"><ele>635</ele><time>2013-11-17T12:03:27Z</time></trkpt>
<trkpt lat="54.2544170000" lon="-2.2526140000"><ele>635</ele><time>2013-11-17T12:03:28Z</time></trkpt>
<trkpt lat="54.2544250000" lon="-2.2526280000"><ele>635</ele><time>2013-11-17T12:03:29Z</time></trkpt>
<trkpt lat="54.2544370000" lon="-2.2526420000"><ele>635</ele><time>2013-11-17T12:03:30Z</time></trkpt>
<trkpt lat="54.2544500000" lon="-2.2526570000"><ele>635</ele><time>2013-11-17T12:03:31Z</time></trkpt>
<trkpt lat="54.2544620000" lon="-2.2526710000"><ele>635</ele><time>2013-11-17T12:03:32Z</time></trkpt>
<trkpt lat="54.2544740000" lon="-2.2526780000"><ele>635</ele><time>2013-11-17T12:03:33Z</time></trkpt>
<trkpt lat="54.2544990000" lon="-2.2526820000"><ele>635</ele><time>2013-11-17T12:03:35Z</time></trkpt>
<trkpt lat="54.2545190000" lon="-2.2526980000"><ele>635</ele><time>2013-11-17T12:03:37Z</time></trkpt>
<trkpt lat="54.2545390000" lon="-2.2527360000"><ele>635</ele><time>2013-11-17T12:03:40Z</time></trkpt>
<trkpt lat="54.2545530000" lon="-2.2527850000"><ele>635</ele><time>2013-11-17T12:03:43Z</time></trkpt>
<trkpt lat="54.2545610000" lon="-2.2528360000"><ele>635</ele><time>2013-11-17T12:03:46Z</time></trkpt>
<trkpt lat="54.2545810000" lon="-2.2528870000"><ele>635</ele><time>2013-11-17T12:03:49Z</time></trkpt>
<trkpt lat="54.2545990000" lon="-2.2529220000"><ele>635</ele><time>2013-11-17T12:03:51Z</time></trkpt>
<trkpt lat="54.2546170000" lon="-2.2529560000"><ele>635</ele><time>2013-11-17T12:03:53Z</time></trkpt>
<trkpt lat="54.2546300000" lon="-2.2529910000"><ele>635</ele><time>2013-11-17T12:03:55Z</time></trkpt>
<trkpt lat="54.2546390000" lon="-2.2530300000"><ele>635</ele><time>2013-11-17T12:03:57Z</time></trkpt>
<trkpt lat="54.2546560000" lon="-2.2530840000"><ele>635</ele><time>2013-11-17T12:04:00Z</time></trkpt>
<trkpt lat="54.2546760000" lon="-2.2531230000"><ele>635</ele><time>2013-11-17T12:04:03Z</time></trkpt>
<trkpt lat="54.2546950000" lon="-2.2531510000"><ele>635</ele><time>2013-11-17T12:04:06Z</time></trkpt>
<trkpt lat="54.2547190000" lon="-2.2531930000"><ele>635</ele><time>2013-11-17T12:04:09Z</time></trkpt>
<trkpt lat="54.2547290000" lon="-2.2532650000"><ele>611</ele><time>2013-11-17T12:04:16Z</time></trkpt>
<trkpt lat="54.2547310000" lon="-2.2533210000"><ele>611</ele><time>2013-11-17T12:04:19Z</time></trkpt>
<trkpt lat="54.2547420000" lon="-2.2533830000"><ele>611</ele><time>2013-11-17T12:04:22Z</time></trkpt>
<trkpt lat="54.2547610000" lon="-2.2534370000"><ele>611</ele><time>2013-11-17T12:04:25Z</time></trkpt>
<trkpt lat="54.2547700000" lon="-2.2535080000"><ele>611</ele><time>2013-11-17T12:04:28Z</time></trkpt>
<trkpt lat="54.2547700000" lon="-2.2535720000"><ele>611</ele><time>2013-11-17T12:04:31Z</time></trkpt>
<trkpt lat="54.2547780000" lon="-2.2536280000"><ele>611</ele><time>2013-11-17T12:04:34Z</time></trkpt>
<trkpt lat="54.2547850000" lon="-2.2536720000"><ele>611</ele><time>2013-11-17T12:04:36Z</time></trkpt>
<trkpt lat="54.2547860000" lon="-2.2537160000"><ele>611</ele><time>2013-11-17T12:04:38Z</time></trkpt>
<trkpt lat="54.2547890000" lon="-2.2537690000"><ele>611</ele><time>2013-11-17T12:04:41Z</time></trkpt>
<trkpt lat="54.2547900000" lon="-2.2538140000"><ele>611</ele><time>2013-11-17T12:04:44Z</time></trkpt>
<trkpt lat="54.2548000000" lon="-2.2538680000"><ele>611</ele><time>2013-11-17T12:04:48Z</time></trkpt>
<trkpt lat="54.2548180000" lon="-2.2539140000"><ele>611</ele><time>2013-11-17T12:04:51Z</time></trkpt>
<trkpt lat="54.2548390000" lon="-2.2539540000"><ele>611</ele><time>2013-11-17T12:04:54Z</time></trkpt>
<trkpt lat="54.2548550000" lon="-2.2539980000"><ele>611</ele><time>2013-11-17T12:04:57Z</time></trkpt>
<trkpt lat="54.2548680000" lon="-2.2540480000"><ele>611</ele><time>2013-11-17T12:05:00Z</time></trkpt>
<trkpt lat="54.2548710000" lon="-2.2540920000"><ele>611</ele><time>2013-11-17T12:05:03Z</time></trkpt>
<trkpt lat="54.2548750000" lon="-2.2541390000"><ele>611</ele><time>2013-11-17T12:05:06Z</time></trkpt>
<trkpt lat="54.2548850000" lon="-2.2542090000"><ele>611</ele><time>2013-11-17T12:05:12Z</time></trkpt>
<trkpt lat="54.2548820000" lon="-2.2542700000"><ele>611</ele><time>2013-11-17T12:05:17Z</time></trkpt>
<trkpt lat="54.2548950000" lon="-2.2543420000"><ele>611</ele><time>2013-11-17T12:05:24Z</time></trkpt>
<trkpt lat="54.2549000000" lon="-2.2544320000"><ele>611</ele><time>2013-11-17T12:05:29Z</time></trkpt>
<trkpt lat="54.2548980000" lon="-2.2544860000"><ele>611</ele><time>2013-11-17T12:05:31Z</time></trkpt>
<trkpt lat="54.2548810000" lon="-2.2545520000"><ele>611</ele><time>2013-11-17T12:05:37Z</time></trkpt>
<trkpt lat="54.2548680000" lon="-2.2546260000"><ele>611</ele><time>2013-11-17T12:05:48Z</time></trkpt>
<trkpt lat="54.2548890000" lon="-2.2546550000"><ele>611</ele><time>2013-11-17T12:05:53Z</time></trkpt>
<trkpt lat="54.2548770000" lon="-2.2546960000"><ele>611</ele><time>2013-11-17T12:05:57Z</time></trkpt>
<trkpt lat="54.2548780000" lon="-2.2547660000"><ele>611</ele><time>2013-11-17T12:06:02Z</time></trkpt>
<trkpt lat="54.2548840000" lon="-2.2548370000"><ele>611</ele><time>2013-11-17T12:06:09Z</time></trkpt>
<trkpt lat="54.2548750000" lon="-2.2548890000"><ele>611</ele><time>2013-11-17T12:06:12Z</time></trkpt>
<trkpt lat="54.2548690000" lon="-2.2549330000"><ele>611</ele><time>2013-11-17T12:06:15Z</time></trkpt>
<trkpt lat="54.2548720000" lon="-2.2549760000"><ele>611</ele><time>2013-11-17T12:06:18Z</time></trkpt>
<trkpt lat="54.2548720000" lon="-2.2550160000"><ele>611</ele><time>2013-11-17T12:06:20Z</time></trkpt>
<trkpt lat="54.2548750000" lon="-2.2550650000"><ele>611</ele><time>2013-11-17T12:06:23Z</time></trkpt>
<trkpt lat="54.2548790000" lon="-2.2550830000"><ele>611</ele><time>2013-11-17T12:06:24Z</time></trkpt>
<trkpt lat="54.2548840000" lon="-2.2550910000"><ele>611</ele><time>2013-11-17T12:06:25Z</time></trkpt>
<trkpt lat="54.2548910000" lon="-2.2550980000"><ele>611</ele><time>2013-11-17T12:06:26Z</time></trkpt>
<trkpt lat="54.2548990000" lon="-2.2551010000"><ele>611</ele><time>2013-11-17T12:06:27Z</time></trkpt>
<trkpt lat="54.2549070000" lon="-2.2551030000"><ele>611</ele><time>2013-11-17T12:06:28Z</time></trkpt>
<trkpt lat="54.2549170000" lon="-2.2551030000"><ele>611</ele><time>2013-11-17T12:06:29Z</time></trkpt>
<trkpt lat="54.2549260000" lon="-2.2551060000"><ele>611</ele><time>2013-11-17T12:06:30Z</time></trkpt>
<trkpt lat="54.2549310000" lon="-2.2551110000"><ele>611</ele><time>2013-11-17T12:06:31Z</time></trkpt>
<trkpt lat="54.2549320000" lon="-2.2551210000"><ele>611</ele><time>2013-11-17T12:06:32Z</time></trkpt>
<trkpt lat="54.2549310000" lon="-2.2551290000"><ele>611</ele><time>2013-11-17T12:06:33Z</time></trkpt>
<trkpt lat="54.2549240000" lon="-2.2551400000"><ele>611</ele><time>2013-11-17T12:06:34Z</time></trkpt>
<trkpt lat="54.2549170000" lon="-2.2551480000"><ele>611</ele><time>2013-11-17T12:06:35Z</time></trkpt>
<trkpt lat="54.2549100000" lon="-2.2551550000"><ele>611</ele><time>2013-11-17T12:06:36Z</time></trkpt>
<trkpt lat="54.2549040000" lon="-2.2551650000"><ele>611</ele><time>2013-11-17T12:06:37Z</time></trkpt>
<trkpt lat="54.2549000000" lon="-2.2551740000"><ele>611</ele><time>2013-11-17T12:06:38Z</time></trkpt>
<trkpt lat="54.2548940000" lon="-2.2551830000"><ele>611</ele><time>2013-11-17T12:06:39Z</time></trkpt>
<trkpt lat="54.2548890000" lon="-2.2551910000"><ele>611</ele><time>2013-11-17T12:06:40Z</time></trkpt>
<trkpt lat="54.2548860000" lon="-2.2552010000"><ele>611</ele><time>2013-11-17T12:06:41Z</time></trkpt>
<trkpt lat="54.2548860000" lon="-2.2552110000"><ele>611</ele><time>2013-11-17T12:06:42Z</time></trkpt>
<trkpt lat="54.2548870000" lon="-2.2552190000"><ele>611</ele><time>2013-11-17T12:06:43Z</time></trkpt>
<trkpt lat="54.2548890000" lon="-2.2552250000"><ele>611</ele><time>2013-11-17T12:06:44Z</time></trkpt>
<trkpt lat="54.2548910000" lon="-2.2552300000"><ele>611</ele><time>2013-11-17T12:06:45Z</time></trkpt>
<trkpt lat="54.2548960000" lon="-2.2552380000"><ele>611</ele><time>2013-11-17T12:06:46Z</time></trkpt>
<trkpt lat="54.2549010000" lon="-2.2552470000"><ele>611</ele><time>2013-11-17T12:06:47Z</time></trkpt>
<trkpt lat="54.2549020000" lon="-2.2552560000"><ele>611</ele><time>2013-11-17T12:06:48Z</time></trkpt>
<trkpt lat="54.2549010000" lon="-2.2552680000"><ele>611</ele><time>2013-11-17T12:06:49Z</time></trkpt>
<trkpt lat="54.2549020000" lon="-2.2552760000"><ele>611</ele><time>2013-11-17T12:06:50Z</time></trkpt>
<trkpt lat="54.2549080000" lon="-2.2552790000"><ele>611</ele><time>2013-11-17T12:06:51Z</time></trkpt>
<trkpt lat="54.2549160000" lon="-2.2552780000"><ele>611</ele><time>2013-11-17T12:06:52Z</time></trkpt>
<trkpt lat="54.2549230000" lon="-2.2552760000"><ele>611</ele><time>2013-11-17T12:06:53Z</time></trkpt>
<trkpt lat="54.2549300000" lon="-2.2552760000"><ele>611</ele><time>2013-11-17T12:06:54Z</time></trkpt>
<trkpt lat="54.2549360000" lon="-2.2552810000"><ele>611</ele><time>2013-11-17T12:06:55Z</time></trkpt>
<trkpt lat="54.2549400000" lon="-2.2552870000"><ele>611</ele><time>2013-11-17T12:06:56Z</time></trkpt>
<trkpt lat="54.2549400000" lon="-2.2552930000"><ele>611</ele><time>2013-11-17T12:06:57Z</time></trkpt>
<trkpt lat="54.2549390000" lon="-2.2553000000"><ele>611</ele><time>2013-11-17T12:06:58Z</time></trkpt>
<trkpt lat="54.2549410000" lon="-2.2553050000"><ele>611</ele><time>2013-11-17T12:06:59Z</time></trkpt>
<trkpt lat="54.2549430000" lon="-2.2553130000"><ele>611</ele><time>2013-11-17T12:07:00Z</time></trkpt>
<trkpt lat="54.2549470000" lon="-2.2553220000"><ele>611</ele><time>2013-11-17T12:07:01Z</time></trkpt>
<trkpt lat="54.2549520000" lon="-2.2553310000"><ele>611</ele><time>2013-11-17T12:07:02Z</time></trkpt>
<trkpt lat="54.2549540000" lon="-2.2553460000"><ele>611</ele><time>2013-11-17T12:07:03Z</time></trkpt>
<trkpt lat="54.2549560000" lon="-2.2553610000"><ele>611</ele><time>2013-11-17T12:07:04Z</time></trkpt>
<trkpt lat="54.2549620000" lon="-2.2553750000"><ele>611</ele><time>2013-11-17T12:07:05Z</time></trkpt>
<trkpt lat="54.2549690000" lon="-2.2553850000"><ele>611</ele><time>2013-11-17T12:07:06Z</time></trkpt>
<trkpt lat="54.2549790000" lon="-2.2553930000"><ele>611</ele><time>2013-11-17T12:07:07Z</time></trkpt>
<trkpt lat="54.2549880000" lon="-2.2553990000"><ele>611</ele><time>2013-11-17T12:07:08Z</time></trkpt>
<trkpt lat="54.2549930000" lon="-2.2554060000"><ele>611</ele><time>2013-11-17T12:07:09Z</time></trkpt>
<trkpt lat="54.2549960000" lon="-2.2554140000"><ele>611</ele><time>2013-11-17T12:07:10Z</time></trkpt>
<trkpt lat="54.2549990000" lon="-2.2554260000"><ele>611</ele><time>2013-11-17T12:07:11Z</time></trkpt>
<trkpt lat="54.2550010000" lon="-2.2554420000"><ele>581</ele><time>2013-11-17T12:07:12Z</time></trkpt>
<trkpt lat="54.2550030000" lon="-2.2554610000"><ele>581</ele><time>2013-11-17T12:07:13Z</time></trkpt>
<trkpt lat="54.2550020000" lon="-2.2554780000"><ele>581</ele><time>2013-11-17T12:07:14Z</time></trkpt>
<trkpt lat="54.2550010000" lon="-2.2554890000"><ele>581</ele><time>2013-11-17T12:07:15Z</time></trkpt>
<trkpt lat="54.2550020000" lon="-2.2554910000"><ele>581</ele><time>2013-11-17T12:07:16Z</time></trkpt>
<trkpt lat="54.2550030000" lon="-2.2554880000"><ele>581</ele><time>2013-11-17T12:07:17Z</time></trkpt>
<trkpt lat="54.2550030000" lon="-2.2554860000"><ele>581</ele><time>2013-11-17T12:07:18Z</time></trkpt>
<trkpt lat="54.2550020000" lon="-2.2554830000"><ele>581</ele><time>2013-11-17T12:07:19Z</time></trkpt>
<trkpt lat="54.2550010000" lon="-2.2554800000"><ele>581</ele><time>2013-11-17T12:07:20Z</time></trkpt>
<trkpt lat="54.2550000000" lon="-2.2554780000"><ele>611</ele><time>2013-11-17T12:07:21Z</time></trkpt>
<trkpt lat="54.2549990000" lon="-2.2554750000"><ele>611</ele><time>2013-11-17T12:07:22Z</time></trkpt>
<trkpt lat="54.2549990000" lon="-2.2554740000"><ele>611</ele><time>2013-11-17T12:07:23Z</time></trkpt>
<trkpt lat="54.2550010000" lon="-2.2554740000"><ele>581</ele><time>2013-11-17T12:07:24Z</time></trkpt>
<trkpt lat="54.2550030000" lon="-2.2554750000"><ele>581</ele><time>2013-11-17T12:07:25Z</time></trkpt>
<trkpt lat="54.2550040000" lon="-2.2554770000"><ele>581</ele><time>2013-11-17T12:07:26Z</time></trkpt>
<trkpt lat="54.2550020000" lon="-2.2554820000"><ele>581</ele><time>2013-11-17T12:07:27Z</time></trkpt>
<trkpt lat="54.2549980000" lon="-2.2554920000"><ele>611</ele><time>2013-11-17T12:07:28Z</time></trkpt>
<trkpt lat="54.2549940000" lon="-2.2555070000"><ele>611</ele><time>2013-11-17T12:07:29Z</time></trkpt>
<trkpt lat="54.2549910000" lon="-2.2555220000"><ele>611</ele><time>2013-11-17T12:07:30Z</time></trkpt>
<trkpt lat="54.2549870000" lon="-2.2555370000"><ele>611</ele><time>2013-11-17T12:07:31Z</time></trkpt>
<trkpt lat="54.2549840000" lon="-2.2555520000"><ele>611</ele><time>2013-11-17T12:07:32Z</time></trkpt>
<trkpt lat="54.2549800000" lon="-2.2555670000"><ele>611</ele><time>2013-11-17T12:07:33Z</time></trkpt>
<trkpt lat="54.2549750000" lon="-2.2555830000"><ele>611</ele><time>2013-11-17T12:07:34Z</time></trkpt>
<trkpt lat="54.2549680000" lon="-2.2556000000"><ele>611</ele><time>2013-11-17T12:07:35Z</time></trkpt>
<trkpt lat="54.2549590000" lon="-2.2556160000"><ele>611</ele><time>2013-11-17T12:07:36Z</time></trkpt>
<trkpt lat="54.2549510000" lon="-2.2556310000"><ele>611</ele><time>2013-11-17T12:07:37Z</time></trkpt>
<trkpt lat="54.2549430000" lon="-2.2556490000"><ele>611</ele><time>2013-11-17T12:07:38Z</time></trkpt>
<trkpt lat="54.2549350000" lon="-2.2556660000"><ele>611</ele><time>2013-11-17T12:07:39Z</time></trkpt>
<trkpt lat="54.2549290000" lon="-2.2556840000"><ele>611</ele><time>2013-11-17T12:07:40Z</time></trkpt>
<trkpt lat="54.2549280000" lon="-2.2557010000"><ele>611</ele><time>2013-11-17T12:07:41Z</time></trkpt>
<trkpt lat="54.2549310000" lon="-2.2557160000"><ele>611</ele><time>2013-11-17T12:07:42Z</time></trkpt>
<trkpt lat="54.2549350000" lon="-2.2557270000"><ele>611</ele><time>2013-11-17T12:07:43Z</time></trkpt>
<trkpt lat="54.2549350000" lon="-2.2557400000"><ele>611</ele><time>2013-11-17T12:07:44Z</time></trkpt>
<trkpt lat="54.2549340000" lon="-2.2557560000"><ele>611</ele><time>2013-11-17T12:07:45Z</time></trkpt>
<trkpt lat="54.2549310000" lon="-2.2557690000"><ele>611</ele><time>2013-11-17T12:07:46Z</time></trkpt>
<trkpt lat="54.2549270000" lon="-2.2557770000"><ele>611</ele><time>2013-11-17T12:07:47Z</time></trkpt>
<trkpt lat="54.2549260000" lon="-2.2557810000"><ele>611</ele><time>2013-11-17T12:07:48Z</time></trkpt>
<trkpt lat="54.2549250000" lon="-2.2557830000"><ele>611</ele><time>2013-11-17T12:07:49Z</time></trkpt>
<trkpt lat="54.2549260000" lon="-2.2557830000"><ele>611</ele><time>2013-11-17T12:07:50Z</time></trkpt>
<trkpt lat="54.2549260000" lon="-2.2557850000"><ele>611</ele><time>2013-11-17T12:07:51Z</time></trkpt>
<trkpt lat="54.2549260000" lon="-2.2557890000"><ele>611</ele><time>2013-11-17T12:07:52Z</time></trkpt>
<trkpt lat="54.2549240000" lon="-2.2557890000"><ele>611</ele><time>2013-11-17T12:07:53Z</time></trkpt>
<trkpt lat="54.2549220000" lon="-2.2557860000"><ele>611</ele><time>2013-11-17T12:07:54Z</time></trkpt>
<trkpt lat="54.2549200000" lon="-2.2557850000"><ele>611</ele><time>2013-11-17T12:07:55Z</time></trkpt>
<trkpt lat="54.2549180000" lon="-2.2557850000"><ele>611</ele><time>2013-11-17T12:07:56Z</time></trkpt>
<trkpt lat="54.2549170000" lon="-2.2557860000"><ele>611</ele><time>2013-11-17T12:07:57Z</time></trkpt>
<trkpt lat="54.2549160000" lon="-2.2557860000"><ele>611</ele><time>2013-11-17T12:07:58Z</time></trkpt>
<trkpt lat="54.2549150000" lon="-2.2557860000"><ele>611</ele><time>2013-11-17T12:07:59Z</time></trkpt>
<trkpt lat="54.2549150000" lon="-2.2557850000"><ele>611</ele><time>2013-11-17T12:08:00Z</time></trkpt>
<trkpt lat="54.2549160000" lon="-2.2557850000"><ele>611</ele><time>2013-11-17T12:08:01Z</time></trkpt>
<trkpt lat="54.2549160000" lon="-2.2557850000"><ele>611</ele><time>2013-11-17T12:08:02Z</time></trkpt>
<trkpt lat="54.2549170000" lon="-2.2557860000"><ele>611</ele><time>2013-11-17T12:08:03Z</time></trkpt>
<trkpt lat="54.2549180000" lon="-2.2557880000"><ele>611</ele><time>2013-11-17T12:08:04Z</time></trkpt>
<trkpt lat="54.2549190000" lon="-2.2557900000"><ele>611</ele><time>2013-11-17T12:08:05Z</time></trkpt>
<trkpt lat="54.2549200000" lon="-2.2557900000"><ele>611</ele><time>2013-11-17T12:08:06Z</time></trkpt>
<trkpt lat="54.2549220000" lon="-2.2557900000"><ele>611</ele><time>2013-11-17T12:08:07Z</time></trkpt>
<trkpt lat="54.2549230000" lon="-2.2557920000"><ele>611</ele><time>2013-11-17T12:08:08Z</time></trkpt>
<trkpt lat="54.2549230000" lon="-2.2557920000"><ele>611</ele><time>2013-11-17T12:08:09Z</time></trkpt>
<trkpt lat="54.2549250000" lon="-2.2557910000"><ele>611</ele><time>2013-11-17T12:08:10Z</time></trkpt>
<trkpt lat="54.2549230000" lon="-2.2557900000"><ele>611</ele><time>2013-11-17T12:08:11Z</time></trkpt>
<trkpt lat="54.2549210000" lon="-2.2557880000"><ele>611</ele><time>2013-11-17T12:08:12Z</time></trkpt>
<trkpt lat="54.2549200000" lon="-2.2557910000"><ele>611</ele><time>2013-11-17T12:08:13Z</time></trkpt>
<trkpt lat="54.2549210000" lon="-2.2557960000"><ele>611</ele><time>2013-11-17T12:08:14Z</time></trkpt>
<trkpt lat="54.2549210000" lon="-2.2558000000"><ele>611</ele><time>2013-11-17T12:08:15Z</time></trkpt>
<trkpt lat="54.2549220000" lon="-2.2558020000"><ele>611</ele><time>2013-11-17T12:08:16Z</time></trkpt>
<trkpt lat="54.2549240000" lon="-2.2558000000"><ele>611</ele><time>2013-11-17T12:08:17Z</time></trkpt>
<trkpt lat="54.2549250000" lon="-2.2557990000"><ele>611</ele><time>2013-11-17T12:08:18Z</time></trkpt>
<trkpt lat="54.2549250000" lon="-2.2557970000"><ele>611</ele><time>2013-11-17T12:08:19Z</time></trkpt>
<trkpt lat="54.2549250000" lon="-2.2557950000"><ele>611</ele><time>2013-11-17T12:08:20Z</time></trkpt>
<trkpt lat="54.2549240000" lon="-2.2557930000"><ele>611</ele><time>2013-11-17T12:08:21Z</time></trkpt>
<trkpt lat="54.2549210000" lon="-2.2557940000"><ele>611</ele><time>2013-11-17T12:08:22Z</time></trkpt>
<trkpt lat="54.2549170000" lon="-2.2557960000"><ele>611</ele><time>2013-11-17T12:08:23Z</time></trkpt>
<trkpt lat="54.2549130000" lon="-2.2558000000"><ele>611</ele><time>2013-11-17T12:08:24Z</time></trkpt>
<trkpt lat="54.2549080000" lon="-2.2558030000"><ele>611</ele><time>2013-11-17T12:08:25Z</time></trkpt>
<trkpt lat="54.2549020000" lon="-2.2558080000"><ele>611</ele><time>2013-11-17T12:08:26Z</time></trkpt>
<trkpt lat="54.2548960000" lon="-2.2558130000"><ele>611</ele><time>2013-11-17T12:08:27Z</time></trkpt>
<trkpt lat="54.2548900000" lon="-2.2558150000"><ele>611</ele><time>2013-11-17T12:08:28Z</time></trkpt>
<trkpt lat="54.2548860000" lon="-2.2558160000"><ele>611</ele><time>2013-11-17T12:08:29Z</time></trkpt>
<trkpt lat="54.2548830000" lon="-2.2558140000"><ele>611</ele><time>2013-11-17T12:08:30Z</time></trkpt>
<trkpt lat="54.2548820000" lon="-2.2558110000"><ele>611</ele><time>2013-11-17T12:08:31Z</time></trkpt>
<trkpt lat="54.2548820000" lon="-2.2558130000"><ele>611</ele><time>2013-11-17T12:08:32Z</time></trkpt>
<trkpt lat="54.2548810000" lon="-2.2558180000"><ele>611</ele><time>2013-11-17T12:08:33Z</time></trkpt>
<trkpt lat="54.2548820000" lon="-2.2558220000"><ele>611</ele><time>2013-11-17T12:08:34Z</time></trkpt>
<trkpt lat="54.2548850000" lon="-2.2558230000"><ele>611</ele><time>2013-11-17T12:08:35Z</time></trkpt>
<trkpt lat="54.2548890000" lon="-2.2558250000"><ele>611</ele><time>2013-11-17T12:08:36Z</time></trkpt>
<trkpt lat="54.2548940000" lon="-2.2558270000"><ele>611</ele><time>2013-11-17T12:08:37Z</time></trkpt>
<trkpt lat="54.2548940000" lon="-2.2558290000"><ele>611</ele><time>2013-11-17T12:08:38Z</time></trkpt>
<trkpt lat="54.2548920000" lon="-2.2558290000"><ele>611</ele><time>2013-11-17T12:08:39Z</time></trkpt>
<trkpt lat="54.2548900000" lon="-2.2558280000"><ele>611</ele><time>2013-11-17T12:08:40Z</time></trkpt>
<trkpt lat="54.2548880000" lon="-2.2558270000"><ele>611</ele><time>2013-11-17T12:08:41Z</time></trkpt>
<trkpt lat="54.2548880000" lon="-2.2558250000"><ele>611</ele><time>2013-11-17T12:08:42Z</time></trkpt>
<trkpt lat="54.2548880000" lon="-2.2558260000"><ele>611</ele><time>2013-11-17T12:08:43Z</time></trkpt>
<trkpt lat="54.2548830000" lon="-2.2558270000"><ele>611</ele><time>2013-11-17T12:08:44Z</time></trkpt>
<trkpt lat="54.2548630000" lon="-2.2558550000"><ele>611</ele><time>2013-11-17T12:08:47Z</time></trkpt>
<trkpt lat="54.2548480000" lon="-2.2558840000"><ele>611</ele><time>2013-11-17T12:08:49Z</time></trkpt>
<trkpt lat="54.2548350000" lon="-2.2558960000"><ele>611</ele><time>2013-11-17T12:08:50Z</time></trkpt>
<trkpt lat="54.2548270000" lon="-2.2558980000"><ele>611</ele><time>2013-11-17T12:08:51Z</time></trkpt>
<trkpt lat="54.2547970000" lon="-2.2559190000"><ele>611</ele><time>2013-11-17T12:08:54Z</time></trkpt>
<trkpt lat="54.2547720000" lon="-2.2559360000"><ele>611</ele><time>2013-11-17T12:08:56Z</time></trkpt>
<trkpt lat="54.2547500000" lon="-2.2559580000"><ele>611</ele><time>2013-11-17T12:08:58Z</time></trkpt>
<trkpt lat="54.2547260000" lon="-2.2559800000"><ele>611</ele><time>2013-11-17T12:09:00Z</time></trkpt>
<trkpt lat="54.2547070000" lon="-2.2560090000"><ele>611</ele><time>2013-11-17T12:09:02Z</time></trkpt>
<trkpt lat="54.2546770000" lon="-2.2560440000"><ele>611</ele><time>2013-11-17T12:09:04Z</time></trkpt>
<trkpt lat="54.2546690000" lon="-2.2560590000"><ele>611</ele><time>2013-11-17T12:09:05Z</time></trkpt>
<trkpt lat="54.2546600000" lon="-2.2560720000"><ele>611</ele><time>2013-11-17T12:09:06Z</time></trkpt>
<trkpt lat="54.2546530000" lon="-2.2560860000"><ele>611</ele><time>2013-11-17T12:09:07Z</time></trkpt>
<trkpt lat="54.2546450000" lon="-2.2561000000"><ele>611</ele><time>2013-11-17T12:09:08Z</time></trkpt>
<trkpt lat="54.2546350000" lon="-2.2561150000"><ele>611</ele><time>2013-11-17T12:09:09Z</time></trkpt>
<trkpt lat="54.2546300000" lon="-2.2561280000"><ele>611</ele><time>2013-11-17T12:09:10Z</time></trkpt>
<trkpt lat="54.2546210000" lon="-2.2561430000"><ele>611</ele><time>2013-11-17T12:09:11Z</time></trkpt>
<trkpt lat="54.2546120000" lon="-2.2561640000"><ele>611</ele><time>2013-11-17T12:09:12Z</time></trkpt>
<trkpt lat="54.2546040000" lon="-2.2561820000"><ele>611</ele><time>2013-11-17T12:09:13Z</time></trkpt>
<trkpt lat="54.2545970000" lon="-2.2561990000"><ele>611</ele><time>2013-11-17T12:09:14Z</time></trkpt>
<trkpt lat="54.2545890000" lon="-2.2562150000"><ele>611</ele><time>2013-11-17T12:09:15Z</time></trkpt>
<trkpt lat="54.2545780000" lon="-2.2562320000"><ele>611</ele><time>2013-11-17T12:09:16Z</time></trkpt>
<trkpt lat="54.2545720000" lon="-2.2562470000"><ele>611</ele><time>2013-11-17T12:09:17Z</time></trkpt>
<trkpt lat="54.2545620000" lon="-2.2562640000"><ele>611</ele><time>2013-11-17T12:09:18Z</time></trkpt>
<trkpt lat="54.2545530000" lon="-2.2562830000"><ele>611</ele><time>2013-11-17T12:09:19Z</time></trkpt>
<trkpt lat="54.2545440000" lon="-2.2563040000"><ele>556</ele><time>2013-11-17T12:09:20Z</time></trkpt>
<trkpt lat="54.2545350000" lon="-2.2563180000"><ele>556</ele><time>2013-11-17T12:09:21Z</time></trkpt>
<trkpt lat="54.2545280000" lon="-2.2563280000"><ele>556</ele><time>2013-11-17T12:09:22Z</time></trkpt>
<trkpt lat="54.2545210000" lon="-2.2563390000"><ele>556</ele><time>2013-11-17T12:09:23Z</time></trkpt>
<trkpt lat="54.2545140000" lon="-2.2563530000"><ele>556</ele><time>2013-11-17T12:09:24Z</time></trkpt>
<trkpt lat="54.2545040000" lon="-2.2563670000"><ele>556</ele><time>2013-11-17T12:09:25Z</time></trkpt>
<trkpt lat="54.2544940000" lon="-2.2563850000"><ele>556</ele><time>2013-11-17T12:09:26Z</time></trkpt>
<trkpt lat="54.2544830000" lon="-2.2564050000"><ele>556</ele><time>2013-11-17T12:09:27Z</time></trkpt>
<trkpt lat="54.2544730000" lon="-2.2564240000"><ele>556</ele><time>2013-11-17T12:09:28Z</time></trkpt>
<trkpt lat="54.2544520000" lon="-2.2564500000"><ele>556</ele><time>2013-11-17T12:09:30Z</time></trkpt>
<trkpt lat="54.2544290000" lon="-2.2564630000"><ele>556</ele><time>2013-11-17T12:09:32Z</time></trkpt>
<trkpt lat="54.2544080000" lon="-2.2564710000"><ele>556</ele><time>2013-11-17T12:09:34Z</time></trkpt>
<trkpt lat="54.2543810000" lon="-2.2564960000"><ele>556</ele><time>2013-11-17T12:09:37Z</time></trkpt>
<trkpt lat="54.2543600000" lon="-2.2565270000"><ele>556</ele><time>2013-11-17T12:09:40Z</time></trkpt>
<trkpt lat="54.2543280000" lon="-2.2565510000"><ele>556</ele><time>2013-11-17T12:09:43Z</time></trkpt>
<trkpt lat="54.2542930000" lon="-2.2565660000"><ele>556</ele><time>2013-11-17T12:09:46Z</time></trkpt>
<trkpt lat="54.2542650000" lon="-2.2565970000"><ele>556</ele><time>2013-11-17T12:09:49Z</time></trkpt>
<trkpt lat="54.2542370000" lon="-2.2566350000"><ele>556</ele><time>2013-11-17T12:09:52Z</time></trkpt>
<trkpt lat="54.2542120000" lon="-2.2566680000"><ele>556</ele><time>2013-11-17T12:09:54Z</time></trkpt>
<trkpt lat="54.2541830000" lon="-2.2566960000"><ele>556</ele><time>2013-11-17T12:09:56Z</time></trkpt>
<trkpt lat="54.2541610000" lon="-2.2567200000"><ele>556</ele><time>2013-11-17T12:09:58Z</time></trkpt>
<trkpt lat="54.2541370000" lon="-2.2567460000"><ele>556</ele><time>2013-11-17T12:10:00Z</time></trkpt>
<trkpt lat="54.2541090000" lon="-2.2567780000"><ele>556</ele><time>2013-11-17T12:10:02Z</time></trkpt>
<trkpt lat="54.2540970000" lon="-2.2567930000"><ele>556</ele><time>2013-11-17T12:10:03Z</time></trkpt>
<trkpt lat="54.2540860000" lon="-2.2568110000"><ele>556</ele><time>2013-11-17T12:10:04Z</time></trkpt>
<trkpt lat="54.2540740000" lon="-2.2568270000"><ele>556</ele><time>2013-11-17T12:10:05Z</time></trkpt>
<trkpt lat="54.2540650000" lon="-2.2568430000"><ele>556</ele><time>2013-11-17T12:10:06Z</time></trkpt>
<trkpt lat="54.2540580000" lon="-2.2568570000"><ele>556</ele><time>2013-11-17T12:10:07Z</time></trkpt>
<trkpt lat="54.2540500000" lon="-2.2568700000"><ele>556</ele><time>2013-11-17T12:10:08Z</time></trkpt>
<trkpt lat="54.2540430000" lon="-2.2568820000"><ele>556</ele><time>2013-11-17T12:10:09Z</time></trkpt>
<trkpt lat="54.2540350000" lon="-2.2568930000"><ele>556</ele><time>2013-11-17T12:10:10Z</time></trkpt>
<trkpt lat="54.2540250000" lon="-2.2569040000"><ele>556</ele><time>2013-11-17T12:10:11Z</time></trkpt>
<trkpt lat="54.2540080000" lon="-2.2569260000"><ele>556</ele><time>2013-11-17T12:10:13Z</time></trkpt>
<trkpt lat="54.2539930000" lon="-2.2569520000"><ele>556</ele><time>2013-11-17T12:10:15Z</time></trkpt>
<trkpt lat="54.2539790000" lon="-2.2569720000"><ele>556</ele><time>2013-11-17T12:10:16Z</time></trkpt>
<trkpt lat="54.2539700000" lon="-2.2569860000"><ele>556</ele><time>2013-11-17T12:10:17Z</time></trkpt>
<trkpt lat="54.2539600000" lon="-2.2569980000"><ele>556</ele><time>2013-11-17T12:10:18Z</time></trkpt>
<trkpt lat="54.2539510000" lon="-2.2570110000"><ele>556</ele><time>2013-11-17T12:10:19Z</time></trkpt>
<trkpt lat="54.2539440000" lon="-2.2570260000"><ele>556</ele><time>2013-11-17T12:10:20Z</time></trkpt>
<trkpt lat="54.2539330000" lon="-2.2570370000"><ele>556</ele><time>2013-11-17T12:10:21Z</time></trkpt>
<trkpt lat="54.2539200000" lon="-2.2570480000"><ele>556</ele><time>2013-11-17T12:10:22Z</time></trkpt>
<trkpt lat="54.2539080000" lon="-2.2570570000"><ele>556</ele><time>2013-11-17T12:10:23Z</time></trkpt>
<trkpt lat="54.2538990000" lon="-2.2570680000"><ele>556</ele><time>2013-11-17T12:10:24Z</time></trkpt>
<trkpt lat="54.2538890000" lon="-2.2570800000"><ele>556</ele><time>2013-11-17T12:10:25Z</time></trkpt>
<trkpt lat="54.2538760000" lon="-2.2570940000"><ele>556</ele><time>2013-11-17T12:10:26Z</time></trkpt>
<trkpt lat="54.2538570000" lon="-2.2571120000"><ele>556</ele><time>2013-11-17T12:10:28Z</time></trkpt>
<trkpt lat="54.2538400000" lon="-2.2571350000"><ele>556</ele><time>2013-11-17T12:10:30Z</time></trkpt>
<trkpt lat="54.2538240000" lon="-2.2571590000"><ele>556</ele><time>2013-11-17T12:10:32Z</time></trkpt>
<trkpt lat="54.2537990000" lon="-2.2571960000"><ele>556</ele><time>2013-11-17T12:10:34Z</time></trkpt>
<trkpt lat="54.2537900000" lon="-2.2572050000"><ele>556</ele><time>2013-11-17T12:10:35Z</time></trkpt>
<trkpt lat="54.2537790000" lon="-2.2572150000"><ele>556</ele><time>2013-11-17T12:10:36Z</time></trkpt>
<trkpt lat="54.2537610000" lon="-2.2572330000"><ele>556</ele><time>2013-11-17T12:10:38Z</time></trkpt>
<trkpt lat="54.2537370000" lon="-2.2572570000"><ele>556</ele><time>2013-11-17T12:10:40Z</time></trkpt>
<trkpt lat="54.2537170000" lon="-2.2572760000"><ele>556</ele><time>2013-11-17T12:10:42Z</time></trkpt>
<trkpt lat="54.2536900000" lon="-2.2573040000"><ele>556</ele><time>2013-11-17T12:10:44Z</time></trkpt>
<trkpt lat="54.2536790000" lon="-2.2573190000"><ele>556</ele><time>2013-11-17T12:10:45Z</time></trkpt>
<trkpt lat="54.2536670000" lon="-2.2573370000"><ele>556</ele><time>2013-11-17T12:10:46Z</time></trkpt>
<trkpt lat="54.2536600000" lon="-2.2573480000"><ele>556</ele><time>2013-11-17T12:10:47Z</time></trkpt>
<trkpt lat="54.2536350000" lon="-2.2573730000"><ele>556</ele><time>2013-11-17T12:10:50Z</time></trkpt>
<trkpt lat="54.2536140000" lon="-2.2574020000"><ele>556</ele><time>2013-11-17T12:10:52Z</time></trkpt>
<trkpt lat="54.2535950000" lon="-2.2574250000"><ele>556</ele><time>2013-11-17T12:10:53Z</time></trkpt>
<trkpt lat="54.2535840000" lon="-2.2574340000"><ele>556</ele><time>2013-11-17T12:10:54Z</time></trkpt>
<trkpt lat="54.2535750000" lon="-2.2574430000"><ele>556</ele><time>2013-11-17T12:10:55Z</time></trkpt>
<trkpt lat="54.2535580000" lon="-2.2574600000"><ele>556</ele><time>2013-11-17T12:10:57Z</time></trkpt>
<trkpt lat="54.2535340000" lon="-2.2574780000"><ele>556</ele><time>2013-11-17T12:10:59Z</time></trkpt>
<trkpt lat="54.2535090000" lon="-2.2574980000"><ele>556</ele><time>2013-11-17T12:11:01Z</time></trkpt>
<trkpt lat="54.2534860000" lon="-2.2575270000"><ele>556</ele><time>2013-11-17T12:11:03Z</time></trkpt>
<trkpt lat="54.2534700000" lon="-2.2575600000"><ele>556</ele><time>2013-11-17T12:11:05Z</time></trkpt>
<trkpt lat="54.2534540000" lon="-2.2575880000"><ele>556</ele><time>2013-11-17T12:11:07Z</time></trkpt>
<trkpt lat="54.2534370000" lon="-2.2576240000"><ele>556</ele><time>2013-11-17T12:11:09Z</time></trkpt>
<trkpt lat="54.2534210000" lon="-2.2576640000"><ele>556</ele><time>2013-11-17T12:11:11Z</time></trkpt>
<trkpt lat="54.2534060000" lon="-2.2577030000"><ele>556</ele><time>2013-11-17T12:11:13Z</time></trkpt>
<trkpt lat="54.2533860000" lon="-2.2577400000"><ele>556</ele><time>2013-11-17T12:11:15Z</time></trkpt>
<trkpt lat="54.2533630000" lon="-2.2577790000"><ele>556</ele><time>2013-11-17T12:11:17Z</time></trkpt>
<trkpt lat="54.2533480000" lon="-2.2578000000"><ele>556</ele><time>2013-11-17T12:11:18Z</time></trkpt>
<trkpt lat="54.2533420000" lon="-2.2578110000"><ele>556</ele><time>2013-11-17T12:11:19Z</time></trkpt>
<trkpt lat="54.2533360000" lon="-2.2578270000"><ele>556</ele><time>2013-11-17T12:11:20Z</time></trkpt>
<trkpt lat="54.2533310000" lon="-2.2578400000"><ele>556</ele><time>2013-11-17T12:11:21Z</time></trkpt>
<trkpt lat="54.2533130000" lon="-2.2578720000"><ele>556</ele><time>2013-11-17T12:11:24Z</time></trkpt>
<trkpt lat="54.2533000000" lon="-2.2578930000"><ele>556</ele><time>2013-11-17T12:11:25Z</time></trkpt>
<trkpt lat="54.2532910000" lon="-2.2579060000"><ele>556</ele><time>2013-11-17T12:11:26Z</time></trkpt>
<trkpt lat="54.2532780000" lon="-2.2579200000"><ele>556</ele><time>2013-11-17T12:11:27Z</time></trkpt>
<trkpt lat="54.2532650000" lon="-2.2579350000"><ele>556</ele><time>2013-11-17T12:11:28Z</time></trkpt>
<trkpt lat="54.2532530000" lon="-2.2579510000"><ele>556</ele><time>2013-11-17T12:11:29Z</time></trkpt>
<trkpt lat="54.2532430000" lon="-2.2579680000"><ele>556</ele><time>2013-11-17T12:11:30Z</time></trkpt>
<trkpt lat="54.2532320000" lon="-2.2579870000"><ele>556</ele><time>2013-11-17T12:11:31Z</time></trkpt>
<trkpt lat="54.2532200000" lon="-2.2580020000"><ele>556</ele><time>2013-11-17T12:11:32Z</time></trkpt>
<trkpt lat="54.2532060000" lon="-2.2580140000"><ele>556</ele><time>2013-11-17T12:11:33Z</time></trkpt>
<trkpt lat="54.2531940000" lon="-2.2580270000"><ele>591</ele><time>2013-11-17T12:11:34Z</time></trkpt>
<trkpt lat="54.2531810000" lon="-2.2580390000"><ele>591</ele><time>2013-11-17T12:11:35Z</time></trkpt>
<trkpt lat="54.2531690000" lon="-2.2580540000"><ele>591</ele><time>2013-11-17T12:11:36Z</time></trkpt>
<trkpt lat="54.2531590000" lon="-2.2580710000"><ele>591</ele><time>2013-11-17T12:11:37Z</time></trkpt>
<trkpt lat="54.2531470000" lon="-2.2580860000"><ele>591</ele><time>2013-11-17T12:11:38Z</time></trkpt>
<trkpt lat="54.2531350000" lon="-2.2580980000"><ele>591</ele><time>2013-11-17T12:11:39Z</time></trkpt>
<trkpt lat="54.2531240000" lon="-2.2581110000"><ele>591</ele><time>2013-11-17T12:11:40Z</time></trkpt>
<trkpt lat="54.2531120000" lon="-2.2581260000"><ele>591</ele><time>2013-11-17T12:11:41Z</time></trkpt>
<trkpt lat="54.2531000000" lon="-2.2581390000"><ele>591</ele><time>2013-11-17T12:11:42Z</time></trkpt>
<trkpt lat="54.2530880000" lon="-2.2581520000"><ele>591</ele><time>2013-11-17T12:11:43Z</time></trkpt>
<trkpt lat="54.2530760000" lon="-2.2581640000"><ele>591</ele><time>2013-11-17T12:11:44Z</time></trkpt>
<trkpt lat="54.2530640000" lon="-2.2581750000"><ele>591</ele><time>2013-11-17T12:11:45Z</time></trkpt>
<trkpt lat="54.2530510000" lon="-2.2581860000"><ele>591</ele><time>2013-11-17T12:11:46Z</time></trkpt>
<trkpt lat="54.2530390000" lon="-2.2581990000"><ele>591</ele><time>2013-11-17T12:11:47Z</time></trkpt>
<trkpt lat="54.2530280000" lon="-2.2582130000"><ele>591</ele><time>2013-11-17T12:11:48Z</time></trkpt>
<trkpt lat="54.2530180000" lon="-2.2582270000"><ele>591</ele><time>2013-11-17T12:11:49Z</time></trkpt>
<trkpt lat="54.2530080000" lon="-2.2582390000"><ele>591</ele><time>2013-11-17T12:11:50Z</time></trkpt>
<trkpt lat="54.2529970000" lon="-2.2582510000"><ele>591</ele><time>2013-11-17T12:11:51Z</time></trkpt>
<trkpt lat="54.2529860000" lon="-2.2582630000"><ele>591</ele><time>2013-11-17T12:11:52Z</time></trkpt>
<trkpt lat="54.2529750000" lon="-2.2582740000"><ele>591</ele><time>2013-11-17T12:11:53Z</time></trkpt>
<trkpt lat="54.2529650000" lon="-2.2582870000"><ele>591</ele><time>2013-11-17T12:11:54Z</time></trkpt>
<trkpt lat="54.2529540000" lon="-2.2583010000"><ele>591</ele><time>2013-11-17T12:11:55Z</time></trkpt>
<trkpt lat="54.2529430000" lon="-2.2583140000"><ele>591</ele><time>2013-11-17T12:11:56Z</time></trkpt>
<trkpt lat="54.2529320000" lon="-2.2583270000"><ele>591</ele><time>2013-11-17T12:11:57Z</time></trkpt>
<trkpt lat="54.2529220000" lon="-2.2583400000"><ele>591</ele><time>2013-11-17T12:11:58Z</time></trkpt>
<trkpt lat="54.2529110000" lon="-2.2583530000"><ele>591</ele><time>2013-11-17T12:11:59Z</time></trkpt>
<trkpt lat="54.2528990000" lon="-2.2583650000"><ele>591</ele><time>2013-11-17T12:12:00Z</time></trkpt>
<trkpt lat="54.2528880000" lon="-2.2583750000"><ele>591</ele><time>2013-11-17T12:12:01Z</time></trkpt>
<trkpt lat="54.2528690000" lon="-2.2583900000"><ele>591</ele><time>2013-11-17T12:12:02Z</time></trkpt>
<trkpt lat="54.2528490000" lon="-2.2584050000"><ele>591</ele><time>2013-11-17T12:12:03Z</time></trkpt>
<trkpt lat="54.2528360000" lon="-2.2584180000"><ele>591</ele><time>2013-11-17T12:12:04Z</time></trkpt>
<trkpt lat="54.2528250000" lon="-2.2584310000"><ele>591</ele><time>2013-11-17T12:12:05Z</time></trkpt>
<trkpt lat="54.2528150000" lon="-2.2584440000"><ele>591</ele><time>2013-11-17T12:12:06Z</time></trkpt>
<trkpt lat="54.2528040000" lon="-2.2584590000"><ele>591</ele><time>2013-11-17T12:12:07Z</time></trkpt>
<trkpt lat="54.2527940000" lon="-2.2584730000"><ele>591</ele><time>2013-11-17T12:12:08Z</time></trkpt>
<trkpt lat="54.2527840000" lon="-2.2584860000"><ele>591</ele><time>2013-11-17T12:12:09Z</time></trkpt>
<trkpt lat="54.2527730000" lon="-2.2585010000"><ele>591</ele><time>2013-11-17T12:12:10Z</time></trkpt>
<trkpt lat="54.2527620000" lon="-2.2585170000"><ele>591</ele><time>2013-11-17T12:12:11Z</time></trkpt>
<trkpt lat="54.2527500000" lon="-2.2585340000"><ele>591</ele><time>2013-11-17T12:12:12Z</time></trkpt>
<trkpt lat="54.2527400000" lon="-2.2585490000"><ele>591</ele><time>2013-11-17T12:12:13Z</time></trkpt>
<trkpt lat="54.2527320000" lon="-2.2585640000"><ele>591</ele><time>2013-11-17T12:12:14Z</time></trkpt>
<trkpt lat="54.2527220000" lon="-2.2585790000"><ele>591</ele><time>2013-11-17T12:12:15Z</time></trkpt>
<trkpt lat="54.2527130000" lon="-2.2585930000"><ele>591</ele><time>2013-11-17T12:12:16Z</time></trkpt>
<trkpt lat="54.2527040000" lon="-2.2586050000"><ele>591</ele><time>2013-11-17T12:12:17Z</time></trkpt>
<trkpt lat="54.2526950000" lon="-2.2586170000"><ele>591</ele><time>2013-11-17T12:12:18Z</time></trkpt>
<trkpt lat="54.2526840000" lon="-2.2586330000"><ele>591</ele><time>2013-11-17T12:12:19Z</time></trkpt>
<trkpt lat="54.2526740000" lon="-2.2586480000"><ele>591</ele><time>2013-11-17T12:12:20Z</time></trkpt>
<trkpt lat="54.2526640000" lon="-2.2586610000"><ele>591</ele><time>2013-11-17T12:12:21Z</time></trkpt>
<trkpt lat="54.2526510000" lon="-2.2586750000"><ele>591</ele><time>2013-11-17T12:12:22Z</time></trkpt>
<trkpt lat="54.2526380000" lon="-2.2586870000"><ele>591</ele><time>2013-11-17T12:12:23Z</time></trkpt>
<trkpt lat="54.2526270000" lon="-2.2586950000"><ele>591</ele><time>2013-11-17T12:12:24Z</time></trkpt>
<trkpt lat="54.2526070000" lon="-2.2587240000"><ele>591</ele><time>2013-11-17T12:12:27Z</time></trkpt>
<trkpt lat="54.2525890000" lon="-2.2587610000"><ele>591</ele><time>2013-11-17T12:12:29Z</time></trkpt>
<trkpt lat="54.2525710000" lon="-2.2587950000"><ele>591</ele><time>2013-11-17T12:12:31Z</time></trkpt>
<trkpt lat="54.2525470000" lon="-2.2588310000"><ele>591</ele><time>2013-11-17T12:12:33Z</time></trkpt>
<trkpt lat="54.2525290000" lon="-2.2588610000"><ele>591</ele><time>2013-11-17T12:12:35Z</time></trkpt>
<trkpt lat="54.2525120000" lon="-2.2588910000"><ele>591</ele><time>2013-11-17T12:12:37Z</time></trkpt>
<trkpt lat="54.2524940000" lon="-2.2589270000"><ele>591</ele><time>2013-11-17T12:12:40Z</time></trkpt>
<trkpt lat="54.2524780000" lon="-2.2589720000"><ele>591</ele><time>2013-11-17T12:12:43Z</time></trkpt>
<trkpt lat="54.2524310000" lon="-2.2590320000"><ele>591</ele><time>2013-11-17T12:12:53Z</time></trkpt>
<trkpt lat="54.2524040000" lon="-2.2590600000"><ele>591</ele><time>2013-11-17T12:12:56Z</time></trkpt>
<trkpt lat="54.2523800000" lon="-2.2590850000"><ele>591</ele><time>2013-11-17T12:12:58Z</time></trkpt>
<trkpt lat="54.2523550000" lon="-2.2591120000"><ele>591</ele><time>2013-11-17T12:13:00Z</time></trkpt>
<trkpt lat="54.2523260000" lon="-2.2591350000"><ele>591</ele><time>2013-11-17T12:13:03Z</time></trkpt>
<trkpt lat="54.2523040000" lon="-2.2591550000"><ele>591</ele><time>2013-11-17T12:13:05Z</time></trkpt>
<trkpt lat="54.2522820000" lon="-2.2591740000"><ele>591</ele><time>2013-11-17T12:13:07Z</time></trkpt>
<trkpt lat="54.2522590000" lon="-2.2591980000"><ele>591</ele><time>2013-11-17T12:13:09Z</time></trkpt>
<trkpt lat="54.2522330000" lon="-2.2592200000"><ele>591</ele><time>2013-11-17T12:13:11Z</time></trkpt>
<trkpt lat="54.2522120000" lon="-2.2592300000"><ele>591</ele><time>2013-11-17T12:13:13Z</time></trkpt>
<trkpt lat="54.2521780000" lon="-2.2592530000"><ele>591</ele><time>2013-11-17T12:13:16Z</time></trkpt>
<trkpt lat="54.2521560000" lon="-2.2592740000"><ele>591</ele><time>2013-11-17T12:13:18Z</time></trkpt>
<trkpt lat="54.2521260000" lon="-2.2592940000"><ele>591</ele><time>2013-11-17T12:13:20Z</time></trkpt>
<trkpt lat="54.2521020000" lon="-2.2593120000"><ele>591</ele><time>2013-11-17T12:13:22Z</time></trkpt>
<trkpt lat="54.2520800000" lon="-2.2593310000"><ele>591</ele><time>2013-11-17T12:13:24Z</time></trkpt>
<trkpt lat="54.2520510000" lon="-2.2593540000"><ele>591</ele><time>2013-11-17T12:13:26Z</time></trkpt>
<trkpt lat="54.2520250000" lon="-2.2593730000"><ele>531</ele><time>2013-11-17T12:13:28Z</time></trkpt>
<trkpt lat="54.2520010000" lon="-2.2593980000"><ele>531</ele><time>2013-11-17T12:13:30Z</time></trkpt>
<trkpt lat="54.2519790000" lon="-2.2594180000"><ele>531</ele><time>2013-11-17T12:13:32Z</time></trkpt>
<trkpt lat="54.2519520000" lon="-2.2594480000"><ele>531</ele><time>2013-11-17T12:13:34Z</time></trkpt>
<trkpt lat="54.2519260000" lon="-2.2594770000"><ele>531</ele><time>2013-11-17T12:13:36Z</time></trkpt>
<trkpt lat="54.2519010000" lon="-2.2595090000"><ele>531</ele><time>2013-11-17T12:13:38Z</time></trkpt>
<trkpt lat="54.2518810000" lon="-2.2595310000"><ele>531</ele><time>2013-11-17T12:13:40Z</time></trkpt>
<trkpt lat="54.2518590000" lon="-2.2595610000"><ele>531</ele><time>2013-11-17T12:13:42Z</time></trkpt>
<trkpt lat="54.2518340000" lon="-2.2595890000"><ele>531</ele><time>2013-11-17T12:13:44Z</time></trkpt>
<trkpt lat="54.2518040000" lon="-2.2596180000"><ele>531</ele><time>2013-11-17T12:13:47Z</time></trkpt>
<trkpt lat="54.2517760000" lon="-2.2596470000"><ele>531</ele><time>2013-11-17T12:13:50Z</time></trkpt>
<trkpt lat="54.2517540000" lon="-2.2596730000"><ele>531</ele><time>2013-11-17T12:13:52Z</time></trkpt>
<trkpt lat="54.2517240000" lon="-2.2596910000"><ele>531</ele><time>2013-11-17T12:13:54Z</time></trkpt>
<trkpt lat="54.2516950000" lon="-2.2597050000"><ele>531</ele><time>2013-11-17T12:13:56Z</time></trkpt>
<trkpt lat="54.2516700000" lon="-2.2597170000"><ele>531</ele><time>2013-11-17T12:13:58Z</time></trkpt>
<trkpt lat="54.2516470000" lon="-2.2597280000"><ele>531</ele><time>2013-11-17T12:14:00Z</time></trkpt>
<trkpt lat="54.2516210000" lon="-2.2597470000"><ele>531</ele><time>2013-11-17T12:14:02Z</time></trkpt>
<trkpt lat="54.2515990000" lon="-2.2597720000"><ele>531</ele><time>2013-11-17T12:14:04Z</time></trkpt>
<trkpt lat="54.2515800000" lon="-2.2597980000"><ele>531</ele><time>2013-11-17T12:14:06Z</time></trkpt>
<trkpt lat="54.2515530000" lon="-2.2598270000"><ele>531</ele><time>2013-11-17T12:14:09Z</time></trkpt>
<trkpt lat="54.2515290000" lon="-2.2598400000"><ele>531</ele><time>2013-11-17T12:14:11Z</time></trkpt>
<trkpt lat="54.2515050000" lon="-2.2598500000"><ele>531</ele><time>2013-11-17T12:14:13Z</time></trkpt>
<trkpt lat="54.2514790000" lon="-2.2598640000"><ele>531</ele><time>2013-11-17T12:14:15Z</time></trkpt>
<trkpt lat="54.2514550000" lon="-2.2598770000"><ele>531</ele><time>2013-11-17T12:14:17Z</time></trkpt>
<trkpt lat="54.2514220000" lon="-2.2598970000"><ele>531</ele><time>2013-11-17T12:14:20Z</time></trkpt>
<trkpt lat="54.2514010000" lon="-2.2599180000"><ele>531</ele><time>2013-11-17T12:14:22Z</time></trkpt>
<trkpt lat="54.2513710000" lon="-2.2599500000"><ele>568</ele><time>2013-11-17T12:14:25Z</time></trkpt>
<trkpt lat="54.2513460000" lon="-2.2599720000"><ele>568</ele><time>2013-11-17T12:14:27Z</time></trkpt>
<trkpt lat="54.2513260000" lon="-2.2599950000"><ele>568</ele><time>2013-11-17T12:14:29Z</time></trkpt>
<trkpt lat="54.2512940000" lon="-2.2600230000"><ele>568</ele><time>2013-11-17T12:14:32Z</time></trkpt>
<trkpt lat="54.2512630000" lon="-2.2600340000"><ele>568</ele><time>2013-11-17T12:14:34Z</time></trkpt>
<trkpt lat="54.2512370000" lon="-2.2600540000"><ele>568</ele><time>2013-11-17T12:14:36Z</time></trkpt>
<trkpt lat="54.2512090000" lon="-2.2600690000"><ele>568</ele><time>2013-11-17T12:14:38Z</time></trkpt>
<trkpt lat="54.2511790000" lon="-2.2600790000"><ele>568</ele><time>2013-11-17T12:14:40Z</time></trkpt>
<trkpt lat="54.2511480000" lon="-2.2600870000"><ele>568</ele><time>2013-11-17T12:14:42Z</time></trkpt>
<trkpt lat="54.2511150000" lon="-2.2600950000"><ele>568</ele><time>2013-11-17T12:14:44Z</time></trkpt>
<trkpt lat="54.2510840000" lon="-2.2601020000"><ele>568</ele><time>2013-11-17T12:14:46Z</time></trkpt>
<trkpt lat="54.2510600000" lon="-2.2601140000"><ele>568</ele><time>2013-11-17T12:14:48Z</time></trkpt>
<trkpt lat="54.2510320000" lon="-2.2601340000"><ele>568</ele><time>2013-11-17T12:14:50Z</time></trkpt>
<trkpt lat="54.2510040000" lon="-2.2601600000"><ele>568</ele><time>2013-11-17T12:14:52Z</time></trkpt>
<trkpt lat="54.2509750000" lon="-2.2601860000"><ele>568</ele><time>2013-11-17T12:14:54Z</time></trkpt>
<trkpt lat="54.2509480000" lon="-2.2602010000"><ele>568</ele><time>2013-11-17T12:14:56Z</time></trkpt>
<trkpt lat="54.2509270000" lon="-2.2602210000"><ele>568</ele><time>2013-11-17T12:14:58Z</time></trkpt>
<trkpt lat="54.2509030000" lon="-2.2602480000"><ele>568</ele><time>2013-11-17T12:15:00Z</time></trkpt>
<trkpt lat="54.2508740000" lon="-2.2602710000"><ele>568</ele><time>2013-11-17T12:15:02Z</time></trkpt>
<trkpt lat="54.2508430000" lon="-2.2602960000"><ele>568</ele><time>2013-11-17T12:15:04Z</time></trkpt>
<trkpt lat="54.2508140000" lon="-2.2603200000"><ele>568</ele><time>2013-11-17T12:15:06Z</time></trkpt>
<trkpt lat="54.2507870000" lon="-2.2603380000"><ele>568</ele><time>2013-11-17T12:15:08Z</time></trkpt>
<trkpt lat="54.2507590000" lon="-2.2603480000"><ele>568</ele><time>2013-11-17T12:15:10Z</time></trkpt>
<trkpt lat="54.2507260000" lon="-2.2603580000"><ele>568</ele><time>2013-11-17T12:15:12Z</time></trkpt>
<trkpt lat="54.2506980000" lon="-2.2603710000"><ele>568</ele><time>2013-11-17T12:15:14Z</time></trkpt>
<trkpt lat="54.2506730000" lon="-2.2603890000"><ele>568</ele><time>2013-11-17T12:15:16Z</time></trkpt>
<trkpt lat="54.2506490000" lon="-2.2604070000"><ele>568</ele><time>2013-11-17T12:15:18Z</time></trkpt>
<trkpt lat="54.2506230000" lon="-2.2604260000"><ele>568</ele><time>2013-11-17T12:15:20Z</time></trkpt>
<trkpt lat="54.2506010000" lon="-2.2604510000"><ele>568</ele><time>2013-11-17T12:15:22Z</time></trkpt>
<trkpt lat="54.2505780000" lon="-2.2604750000"><ele>568</ele><time>2013-11-17T12:15:24Z</time></trkpt>
<trkpt lat="54.2505480000" lon="-2.2605030000"><ele>568</ele><time>2013-11-17T12:15:26Z</time></trkpt>
<trkpt lat="54.2505360000" lon="-2.2605100000"><ele>568</ele><time>2013-11-17T12:15:27Z</time></trkpt>
<trkpt lat="54.2505240000" lon="-2.2605200000"><ele>568</ele><time>2013-11-17T12:15:28Z</time></trkpt>
<trkpt lat="54.2505110000" lon="-2.2605300000"><ele>568</ele><time>2013-11-17T12:15:29Z</time></trkpt>
<trkpt lat="54.2504980000" lon="-2.2605390000"><ele>568</ele><time>2013-11-17T12:15:30Z</time></trkpt>
<trkpt lat="54.2504840000" lon="-2.2605480000"><ele>568</ele><time>2013-11-17T12:15:31Z</time></trkpt>
<trkpt lat="54.2504710000" lon="-2.2605570000"><ele>568</ele><time>2013-11-17T12:15:32Z</time></trkpt>
<trkpt lat="54.2504580000" lon="-2.2605660000"><ele>568</ele><time>2013-11-17T12:15:33Z</time></trkpt>
<trkpt lat="54.2504450000" lon="-2.2605760000"><ele>568</ele><time>2013-11-17T12:15:34Z</time></trkpt>
<trkpt lat="54.2504320000" lon="-2.2605850000"><ele>568</ele><time>2013-11-17T12:15:35Z</time></trkpt>
<trkpt lat="54.2504180000" lon="-2.2605930000"><ele>568</ele><time>2013-11-17T12:15:36Z</time></trkpt>
<trkpt lat="54.2504040000" lon="-2.2605990000"><ele>568</ele><time>2013-11-17T12:15:37Z</time></trkpt>
<trkpt lat="54.2503890000" lon="-2.2606030000"><ele>568</ele><time>2013-11-17T12:15:38Z</time></trkpt>
<trkpt lat="54.2503750000" lon="-2.2606090000"><ele>568</ele><time>2013-11-17T12:15:39Z</time></trkpt>
<trkpt lat="54.2503620000" lon="-2.2606180000"><ele>568</ele><time>2013-11-17T12:15:40Z</time></trkpt>
<trkpt lat="54.2503490000" lon="-2.2606280000"><ele>568</ele><time>2013-11-17T12:15:41Z</time></trkpt>
<trkpt lat="54.2503380000" lon="-2.2606380000"><ele>568</ele><time>2013-11-17T12:15:42Z</time></trkpt>
<trkpt lat="54.2503250000" lon="-2.2606460000"><ele>568</ele><time>2013-11-17T12:15:43Z</time></trkpt>
<trkpt lat="54.2503140000" lon="-2.2606500000"><ele>568</ele><time>2013-11-17T12:15:44Z</time></trkpt>
<trkpt lat="54.2503040000" lon="-2.2606570000"><ele>568</ele><time>2013-11-17T12:15:45Z</time></trkpt>
<trkpt lat="54.2502940000" lon="-2.2606640000"><ele>568</ele><time>2013-11-17T12:15:46Z</time></trkpt>
<trkpt lat="54.2502830000" lon="-2.2606730000"><ele>568</ele><time>2013-11-17T12:15:47Z</time></trkpt>
<trkpt lat="54.2502720000" lon="-2.2606820000"><ele>568</ele><time>2013-11-17T12:15:48Z</time></trkpt>
<trkpt lat="54.2502600000" lon="-2.2606930000"><ele>568</ele><time>2013-11-17T12:15:49Z</time></trkpt>
<trkpt lat="54.2502500000" lon="-2.2607020000"><ele>568</ele><time>2013-11-17T12:15:50Z</time></trkpt>
<trkpt lat="54.2502380000" lon="-2.2607090000"><ele>568</ele><time>2013-11-17T12:15:51Z</time></trkpt>
<trkpt lat="54.2502260000" lon="-2.2607160000"><ele>568</ele><time>2013-11-17T12:15:52Z</time></trkpt>
<trkpt lat="54.2502150000" lon="-2.2607230000"><ele>568</ele><time>2013-11-17T12:15:53Z</time></trkpt>
<trkpt lat="54.2502030000" lon="-2.2607310000"><ele>568</ele><time>2013-11-17T12:15:54Z</time></trkpt>
<trkpt lat="54.2501900000" lon="-2.2607360000"><ele>568</ele><time>2013-11-17T12:15:55Z</time></trkpt>
<trkpt lat="54.2501780000" lon="-2.2607390000"><ele>568</ele><time>2013-11-17T12:15:56Z</time></trkpt>
<trkpt lat="54.2501640000" lon="-2.2607440000"><ele>568</ele><time>2013-11-17T12:15:57Z</time></trkpt>
<trkpt lat="54.2501490000" lon="-2.2607520000"><ele>568</ele><time>2013-11-17T12:15:58Z</time></trkpt>
<trkpt lat="54.2501360000" lon="-2.2607610000"><ele>568</ele><time>2013-11-17T12:15:59Z</time></trkpt>
<trkpt lat="54.2501250000" lon="-2.2607690000"><ele>568</ele><time>2013-11-17T12:16:00Z</time></trkpt>
<trkpt lat="54.2501140000" lon="-2.2607770000"><ele>568</ele><time>2013-11-17T12:16:01Z</time></trkpt>
<trkpt lat="54.2501020000" lon="-2.2607850000"><ele>568</ele><time>2013-11-17T12:16:02Z</time></trkpt>
<trkpt lat="54.2500910000" lon="-2.2607950000"><ele>568</ele><time>2013-11-17T12:16:03Z</time></trkpt>
<trkpt lat="54.2500790000" lon="-2.2608020000"><ele>568</ele><time>2013-11-17T12:16:04Z</time></trkpt>
<trkpt lat="54.2500670000" lon="-2.2608110000"><ele>568</ele><time>2013-11-17T12:16:05Z</time></trkpt>
<trkpt lat="54.2500530000" lon="-2.2608240000"><ele>568</ele><time>2013-11-17T12:16:06Z</time></trkpt>
<trkpt lat="54.2500420000" lon="-2.2608350000"><ele>568</ele><time>2013-11-17T12:16:07Z</time></trkpt>
<trkpt lat="54.2500300000" lon="-2.2608440000"><ele>568</ele><time>2013-11-17T12:16:08Z</time></trkpt>
<trkpt lat="54.2500180000" lon="-2.2608510000"><ele>568</ele><time>2013-11-17T12:16:09Z</time></trkpt>
<trkpt lat="54.2500060000" lon="-2.2608570000"><ele>568</ele><time>2013-11-17T12:16:10Z</time></trkpt>
<trkpt lat="54.2499950000" lon="-2.2608630000"><ele>568</ele><time>2013-11-17T12:16:11Z</time></trkpt>
<trkpt lat="54.2499820000" lon="-2.2608710000"><ele>568</ele><time>2013-11-17T12:16:12Z</time></trkpt>
<trkpt lat="54.2499700000" lon="-2.2608790000"><ele>568</ele><time>2013-11-17T12:16:13Z</time></trkpt>
<trkpt lat="54.2499570000" lon="-2.2608870000"><ele>568</ele><time>2013-11-17T12:16:14Z</time></trkpt>
<trkpt lat="54.2499440000" lon="-2.2608980000"><ele>568</ele><time>2013-11-17T12:16:15Z</time></trkpt>
<trkpt lat="54.2499330000" lon="-2.2609080000"><ele>568</ele><time>2013-11-17T12:16:16Z</time></trkpt>
<trkpt lat="54.2499220000" lon="-2.2609180000"><ele>568</ele><time>2013-11-17T12:16:17Z</time></trkpt>
<trkpt lat="54.2499100000" lon="-2.2609270000"><ele>568</ele><time>2013-11-17T12:16:18Z</time></trkpt>
<trkpt lat="54.2498990000" lon="-2.2609350000"><ele>568</ele><time>2013-11-17T12:16:19Z</time></trkpt>
<trkpt lat="54.2498890000" lon="-2.2609440000"><ele>568</ele><time>2013-11-17T12:16:20Z</time></trkpt>
<trkpt lat="54.2498790000" lon="-2.2609540000"><ele>568</ele><time>2013-11-17T12:16:21Z</time></trkpt>
<trkpt lat="54.2498660000" lon="-2.2609610000"><ele>568</ele><time>2013-11-17T12:16:22Z</time></trkpt>
<trkpt lat="54.2498520000" lon="-2.2609680000"><ele>568</ele><time>2013-11-17T12:16:23Z</time></trkpt>
<trkpt lat="54.2498380000" lon="-2.2609760000"><ele>568</ele><time>2013-11-17T12:16:24Z</time></trkpt>
<trkpt lat="54.2498230000" lon="-2.2609810000"><ele>568</ele><time>2013-11-17T12:16:25Z</time></trkpt>
<trkpt lat="54.2498100000" lon="-2.2609910000"><ele>568</ele><time>2013-11-17T12:16:26Z</time></trkpt>
<trkpt lat="54.2497980000" lon="-2.2609990000"><ele>568</ele><time>2013-11-17T12:16:27Z</time></trkpt>
<trkpt lat="54.2497840000" lon="-2.2610070000"><ele>568</ele><time>2013-11-17T12:16:28Z</time></trkpt>
<trkpt lat="54.2497700000" lon="-2.2610140000"><ele>568</ele><time>2013-11-17T12:16:29Z</time></trkpt>
<trkpt lat="54.2497570000" lon="-2.2610210000"><ele>568</ele><time>2013-11-17T12:16:30Z</time></trkpt>
<trkpt lat="54.2497450000" lon="-2.2610270000"><ele>568</ele><time>2013-11-17T12:16:31Z</time></trkpt>
<trkpt lat="54.2497330000" lon="-2.2610360000"><ele>568</ele><time>2013-11-17T12:16:32Z</time></trkpt>
<trkpt lat="54.2497210000" lon="-2.2610450000"><ele>568</ele><time>2013-11-17T12:16:33Z</time></trkpt>
<trkpt lat="54.2497100000" lon="-2.2610550000"><ele>568</ele><time>2013-11-17T12:16:34Z</time></trkpt>
<trkpt lat="54.2497010000" lon="-2.2610640000"><ele>568</ele><time>2013-11-17T12:16:35Z</time></trkpt>
<trkpt lat="54.2496900000" lon="-2.2610720000"><ele>568</ele><time>2013-11-17T12:16:36Z</time></trkpt>
<trkpt lat="54.2496770000" lon="-2.2610830000"><ele>568</ele><time>2013-11-17T12:16:37Z</time></trkpt>
<trkpt lat="54.2496650000" lon="-2.2610940000"><ele>568</ele><time>2013-11-17T12:16:38Z</time></trkpt>
<trkpt lat="54.2496540000" lon="-2.2611040000"><ele>568</ele><time>2013-11-17T12:16:39Z</time></trkpt>
<trkpt lat="54.2496410000" lon="-2.2611110000"><ele>568</ele><time>2013-11-17T12:16:40Z</time></trkpt>
<trkpt lat="54.2496270000" lon="-2.2611190000"><ele>568</ele><time>2013-11-17T12:16:41Z</time></trkpt>
<trkpt lat="54.2496110000" lon="-2.2611280000"><ele>568</ele><time>2013-11-17T12:16:42Z</time></trkpt>
<trkpt lat="54.2495980000" lon="-2.2611370000"><ele>568</ele><time>2013-11-17T12:16:43Z</time></trkpt>
<trkpt lat="54.2495840000" lon="-2.2611430000"><ele>578</ele><time>2013-11-17T12:16:44Z</time></trkpt>
<trkpt lat="54.2495710000" lon="-2.2611510000"><ele>578</ele><time>2013-11-17T12:16:45Z</time></trkpt>
<trkpt lat="54.2495580000" lon="-2.2611570000"><ele>578</ele><time>2013-11-17T12:16:46Z</time></trkpt>
<trkpt lat="54.2495450000" lon="-2.2611650000"><ele>578</ele><time>2013-11-17T12:16:47Z</time></trkpt>
<trkpt lat="54.2495320000" lon="-2.2611720000"><ele>578</ele><time>2013-11-17T12:16:48Z</time></trkpt>
<trkpt lat="54.2495190000" lon="-2.2611810000"><ele>578</ele><time>2013-11-17T12:16:49Z</time></trkpt>
<trkpt lat="54.2495040000" lon="-2.2611880000"><ele>578</ele><time>2013-11-17T12:16:50Z</time></trkpt>
<trkpt lat="54.2494910000" lon="-2.2611930000"><ele>578</ele><time>2013-11-17T12:16:51Z</time></trkpt>
<trkpt lat="54.2494770000" lon="-2.2612030000"><ele>578</ele><time>2013-11-17T12:16:52Z</time></trkpt>
<trkpt lat="54.2494640000" lon="-2.2612130000"><ele>578</ele><time>2013-11-17T12:16:53Z</time></trkpt>
<trkpt lat="54.2494510000" lon="-2.2612210000"><ele>578</ele><time>2013-11-17T12:16:54Z</time></trkpt>
<trkpt lat="54.2494370000" lon="-2.2612290000"><ele>578</ele><time>2013-11-17T12:16:55Z</time></trkpt>
<trkpt lat="54.2494240000" lon="-2.2612370000"><ele>578</ele><time>2013-11-17T12:16:56Z</time></trkpt>
<trkpt lat="54.2494100000" lon="-2.2612460000"><ele>578</ele><time>2013-11-17T12:16:57Z</time></trkpt>
<trkpt lat="54.2493970000" lon="-2.2612570000"><ele>578</ele><time>2013-11-17T12:16:58Z</time></trkpt>
<trkpt lat="54.2493830000" lon="-2.2612690000"><ele>578</ele><time>2013-11-17T12:16:59Z</time></trkpt>
<trkpt lat="54.2493690000" lon="-2.2612770000"><ele>578</ele><time>2013-11-17T12:17:00Z</time></trkpt>
<trkpt lat="54.2493560000" lon="-2.2612820000"><ele>578</ele><time>2013-11-17T12:17:01Z</time></trkpt>
<trkpt lat="54.2493430000" lon="-2.2612910000"><ele>578</ele><time>2013-11-17T12:17:02Z</time></trkpt>
<trkpt lat="54.2493310000" lon="-2.2612980000"><ele>578</ele><time>2013-11-17T12:17:03Z</time></trkpt>
<trkpt lat="54.2493180000" lon="-2.2613060000"><ele>578</ele><time>2013-11-17T12:17:04Z</time></trkpt>
<trkpt lat="54.2493050000" lon="-2.2613150000"><ele>578</ele><time>2013-11-17T12:17:05Z</time></trkpt>
<trkpt lat="54.2492920000" lon="-2.2613240000"><ele>578</ele><time>2013-11-17T12:17:06Z</time></trkpt>
<trkpt lat="54.2492780000" lon="-2.2613320000"><ele>578</ele><time>2013-11-17T12:17:07Z</time></trkpt>
<trkpt lat="54.2492650000" lon="-2.2613380000"><ele>578</ele><time>2013-11-17T12:17:08Z</time></trkpt>
<trkpt lat="54.2492520000" lon="-2.2613470000"><ele>578</ele><time>2013-11-17T12:17:09Z</time></trkpt>
<trkpt lat="54.2492390000" lon="-2.2613550000"><ele>578</ele><time>2013-11-17T12:17:10Z</time></trkpt>
<trkpt lat="54.2492260000" lon="-2.2613600000"><ele>578</ele><time>2013-11-17T12:17:11Z</time></trkpt>
<trkpt lat="54.2492120000" lon="-2.2613660000"><ele>578</ele><time>2013-11-17T12:17:12Z</time></trkpt>
<trkpt lat="54.2492000000" lon="-2.2613730000"><ele>578</ele><time>2013-11-17T12:17:13Z</time></trkpt>
<trkpt lat="54.2491850000" lon="-2.2613780000"><ele>578</ele><time>2013-11-17T12:17:14Z</time></trkpt>
<trkpt lat="54.2491720000" lon="-2.2613850000"><ele>578</ele><time>2013-11-17T12:17:15Z</time></trkpt>
<trkpt lat="54.2491610000" lon="-2.2613910000"><ele>578</ele><time>2013-11-17T12:17:16Z</time></trkpt>
<trkpt lat="54.2491480000" lon="-2.2613960000"><ele>578</ele><time>2013-11-17T12:17:17Z</time></trkpt>
<trkpt lat="54.2491350000" lon="-2.2614010000"><ele>578</ele><time>2013-11-17T12:17:18Z</time></trkpt>
<trkpt lat="54.2491230000" lon="-2.2614050000"><ele>578</ele><time>2013-11-17T12:17:19Z</time></trkpt>
<trkpt lat="54.2491100000" lon="-2.2614120000"><ele>578</ele><time>2013-11-17T12:17:20Z</time></trkpt>
<trkpt lat="54.2490960000" lon="-2.2614200000"><ele>578</ele><time>2013-11-17T12:17:21Z</time></trkpt>
<trkpt lat="54.2490820000" lon="-2.2614260000"><ele>578</ele><time>2013-11-17T12:17:22Z</time></trkpt>
<trkpt lat="54.2490660000" lon="-2.2614330000"><ele>578</ele><time>2013-11-17T12:17:23Z</time></trkpt>
<trkpt lat="54.2490510000" lon="-2.2614390000"><ele>578</ele><time>2013-11-17T12:17:24Z</time></trkpt>
<trkpt lat="54.2490370000" lon="-2.2614440000"><ele>578</ele><time>2013-11-17T12:17:25Z</time></trkpt>
<trkpt lat="54.2490230000" lon="-2.2614510000"><ele>578</ele><time>2013-11-17T12:17:26Z</time></trkpt>
<trkpt lat="54.2490100000" lon="-2.2614580000"><ele>578</ele><time>2013-11-17T12:17:27Z</time></trkpt>
<trkpt lat="54.2489960000" lon="-2.2614650000"><ele>578</ele><time>2013-11-17T12:17:28Z</time></trkpt>
<trkpt lat="54.2489830000" lon="-2.2614720000"><ele>578</ele><time>2013-11-17T12:17:29Z</time></trkpt>
<trkpt lat="54.2489690000" lon="-2.2614780000"><ele>578</ele><time>2013-11-17T12:17:30Z</time></trkpt>
<trkpt lat="54.2489550000" lon="-2.2614830000"><ele>578</ele><time>2013-11-17T12:17:31Z</time></trkpt>
<trkpt lat="54.2489410000" lon="-2.2614890000"><ele>578</ele><time>2013-11-17T12:17:32Z</time></trkpt>
<trkpt lat="54.2489270000" lon="-2.2614960000"><ele>578</ele><time>2013-11-17T12:17:33Z</time></trkpt>
<trkpt lat="54.2489130000" lon="-2.2615030000"><ele>578</ele><time>2013-11-17T12:17:34Z</time></trkpt>
<trkpt lat="54.2489000000" lon="-2.2615070000"><ele>578</ele><time>2013-11-17T12:17:35Z</time></trkpt>
<trkpt lat="54.2488890000" lon="-2.2615130000"><ele>578</ele><time>2013-11-17T12:17:36Z</time></trkpt>
<trkpt lat="54.2488780000" lon="-2.2615170000"><ele>578</ele><time>2013-11-17T12:17:37Z</time></trkpt>
<trkpt lat="54.2488640000" lon="-2.2615240000"><ele>578</ele><time>2013-11-17T12:17:38Z</time></trkpt>
<trkpt lat="54.2488510000" lon="-2.2615330000"><ele>578</ele><time>2013-11-17T12:17:39Z</time></trkpt>
<trkpt lat="54.2488360000" lon="-2.2615410000"><ele>578</ele><time>2013-11-17T12:17:40Z</time></trkpt>
<trkpt lat="54.2488210000" lon="-2.2615470000"><ele>578</ele><time>2013-11-17T12:17:41Z</time></trkpt>
<trkpt lat="54.2488080000" lon="-2.2615520000"><ele>578</ele><time>2013-11-17T12:17:42Z</time></trkpt>
<trkpt lat="54.2487940000" lon="-2.2615580000"><ele>578</ele><time>2013-11-17T12:17:43Z</time></trkpt>
<trkpt lat="54.2487800000" lon="-2.2615650000"><ele>578</ele><time>2013-11-17T12:17:44Z</time></trkpt>
<trkpt lat="54.2487670000" lon="-2.2615730000"><ele>578</ele><time>2013-11-17T12:17:45Z</time></trkpt>
<trkpt lat="54.2487530000" lon="-2.2615800000"><ele>578</ele><time>2013-11-17T12:17:46Z</time></trkpt>
<trkpt lat="54.2487400000" lon="-2.2615850000"><ele>578</ele><time>2013-11-17T12:17:47Z</time></trkpt>
<trkpt lat="54.2487280000" lon="-2.2615890000"><ele>578</ele><time>2013-11-17T12:17:48Z</time></trkpt>
<trkpt lat="54.2487160000" lon="-2.2615940000"><ele>578</ele><time>2013-11-17T12:17:49Z</time></trkpt>
<trkpt lat="54.2487030000" lon="-2.2615970000"><ele>578</ele><time>2013-11-17T12:17:50Z</time></trkpt>
<trkpt lat="54.2486910000" lon="-2.2616010000"><ele>578</ele><time>2013-11-17T12:17:51Z</time></trkpt>
<trkpt lat="54.2486780000" lon="-2.2616060000"><ele>578</ele><time>2013-11-17T12:17:52Z</time></trkpt>
<trkpt lat="54.2486640000" lon="-2.2616120000"><ele>578</ele><time>2013-11-17T12:17:53Z</time></trkpt>
<trkpt lat="54.2486510000" lon="-2.2616190000"><ele>578</ele><time>2013-11-17T12:17:54Z</time></trkpt>
<trkpt lat="54.2486380000" lon="-2.2616260000"><ele>578</ele><time>2013-11-17T12:17:55Z</time></trkpt>
<trkpt lat="54.2486250000" lon="-2.2616320000"><ele>578</ele><time>2013-11-17T12:17:56Z</time></trkpt>
<trkpt lat="54.2486120000" lon="-2.2616380000"><ele>578</ele><time>2013-11-17T12:17:57Z</time></trkpt>
<trkpt lat="54.2485990000" lon="-2.2616450000"><ele>578</ele><time>2013-11-17T12:17:58Z</time></trkpt>
<trkpt lat="54.2485870000" lon="-2.2616530000"><ele>578</ele><time>2013-11-17T12:17:59Z</time></trkpt>
<trkpt lat="54.2485740000" lon="-2.2616560000"><ele>578</ele><time>2013-11-17T12:18:00Z</time></trkpt>
<trkpt lat="54.2485610000" lon="-2.2616580000"><ele>578</ele><time>2013-11-17T12:18:01Z</time></trkpt>
<trkpt lat="54.2485460000" lon="-2.2616650000"><ele>578</ele><time>2013-11-17T12:18:02Z</time></trkpt>
<trkpt lat="54.2485320000" lon="-2.2616710000"><ele>578</ele><time>2013-11-17T12:18:03Z</time></trkpt>
<trkpt lat="54.2485170000" lon="-2.2616760000"><ele>578</ele><time>2013-11-17T12:18:04Z</time></trkpt>
<trkpt lat="54.2485040000" lon="-2.2616810000"><ele>578</ele><time>2013-11-17T12:18:05Z</time></trkpt>
<trkpt lat="54.2484910000" lon="-2.2616860000"><ele>578</ele><time>2013-11-17T12:18:06Z</time></trkpt>
<trkpt lat="54.2484780000" lon="-2.2616900000"><ele>578</ele><time>2013-11-17T12:18:07Z</time></trkpt>
<trkpt lat="54.2484650000" lon="-2.2616940000"><ele>578</ele><time>2013-11-17T12:18:08Z</time></trkpt>
<trkpt lat="54.2484510000" lon="-2.2616990000"><ele>578</ele><time>2013-11-17T12:18:09Z</time></trkpt>
<trkpt lat="54.2484380000" lon="-2.2617040000"><ele>578</ele><time>2013-11-17T12:18:10Z</time></trkpt>
<trkpt lat="54.2484250000" lon="-2.2617100000"><ele>578</ele><time>2013-11-17T12:18:11Z</time></trkpt>
<trkpt lat="54.2484120000" lon="-2.2617150000"><ele>578</ele><time>2013-11-17T12:18:12Z</time></trkpt>
<trkpt lat="54.2484000000" lon="-2.2617200000"><ele>578</ele><time>2013-11-17T12:18:13Z</time></trkpt>
<trkpt lat="54.2483900000" lon="-2.2617250000"><ele>578</ele><time>2013-11-17T12:18:14Z</time></trkpt>
<trkpt lat="54.2483780000" lon="-2.2617300000"><ele>578</ele><time>2013-11-17T12:18:15Z</time></trkpt>
<trkpt lat="54.2483650000" lon="-2.2617350000"><ele>578</ele><time>2013-11-17T12:18:16Z</time></trkpt>
<trkpt lat="54.2483520000" lon="-2.2617410000"><ele>578</ele><time>2013-11-17T12:18:17Z</time></trkpt>
<trkpt lat="54.2483400000" lon="-2.2617460000"><ele>578</ele><time>2013-11-17T12:18:18Z</time></trkpt>
<trkpt lat="54.2483280000" lon="-2.2617510000"><ele>578</ele><time>2013-11-17T12:18:19Z</time></trkpt>
<trkpt lat="54.2483150000" lon="-2.2617560000"><ele>578</ele><time>2013-11-17T12:18:20Z</time></trkpt>
<trkpt lat="54.2483000000" lon="-2.2617620000"><ele>578</ele><time>2013-11-17T12:18:21Z</time></trkpt>
<trkpt lat="54.2482850000" lon="-2.2617720000"><ele>578</ele><time>2013-11-17T12:18:22Z</time></trkpt>
<trkpt lat="54.2482700000" lon="-2.2617800000"><ele>578</ele><time>2013-11-17T12:18:23Z</time></trkpt>
<trkpt lat="54.2482560000" lon="-2.2617850000"><ele>578</ele><time>2013-11-17T12:18:24Z</time></trkpt>
<trkpt lat="54.2482430000" lon="-2.2617860000"><ele>578</ele><time>2013-11-17T12:18:25Z</time></trkpt>
<trkpt lat="54.2482300000" lon="-2.2617870000"><ele>578</ele><time>2013-11-17T12:18:26Z</time></trkpt>
<trkpt lat="54.2482180000" lon="-2.2617880000"><ele>578</ele><time>2013-11-17T12:18:27Z</time></trkpt>
<trkpt lat="54.2482060000" lon="-2.2617920000"><ele>578</ele><time>2013-11-17T12:18:28Z</time></trkpt>
<trkpt lat="54.2481930000" lon="-2.2617970000"><ele>578</ele><time>2013-11-17T12:18:29Z</time></trkpt>
<trkpt lat="54.2481810000" lon="-2.2618020000"><ele>578</ele><time>2013-11-17T12:18:30Z</time></trkpt>
<trkpt lat="54.2481670000" lon="-2.2618060000"><ele>578</ele><time>2013-11-17T12:18:31Z</time></trkpt>
<trkpt lat="54.2481530000" lon="-2.2618100000"><ele>578</ele><time>2013-11-17T12:18:32Z</time></trkpt>
<trkpt lat="54.2481380000" lon="-2.2618160000"><ele>578</ele><time>2013-11-17T12:18:33Z</time></trkpt>
<trkpt lat="54.2481260000" lon="-2.2618200000"><ele>578</ele><time>2013-11-17T12:18:34Z</time></trkpt>
<trkpt lat="54.2481120000" lon="-2.2618230000"><ele>578</ele><time>2013-11-17T12:18:35Z</time></trkpt>
<trkpt lat="54.2481000000" lon="-2.2618290000"><ele>578</ele><time>2013-11-17T12:18:36Z</time></trkpt>
<trkpt lat="54.2480870000" lon="-2.2618370000"><ele>578</ele><time>2013-11-17T12:18:37Z</time></trkpt>
<trkpt lat="54.2480740000" lon="-2.2618440000"><ele>578</ele><time>2013-11-17T12:18:38Z</time></trkpt>
<trkpt lat="54.2480610000" lon="-2.2618490000"><ele>578</ele><time>2013-11-17T12:18:39Z</time></trkpt>
<trkpt lat="54.2480480000" lon="-2.2618540000"><ele>578</ele><time>2013-11-17T12:18:40Z</time></trkpt>
<trkpt lat="54.2480360000" lon="-2.2618580000"><ele>578</ele><time>2013-11-17T12:18:41Z</time></trkpt>
<trkpt lat="54.2480240000" lon="-2.2618610000"><ele>578</ele><time>2013-11-17T12:18:42Z</time></trkpt>
<trkpt lat="54.2480120000" lon="-2.2618670000"><ele>578</ele><time>2013-11-17T12:18:43Z</time></trkpt>
<trkpt lat="54.2479990000" lon="-2.2618730000"><ele>578</ele><time>2013-11-17T12:18:44Z</time></trkpt>
<trkpt lat="54.2479870000" lon="-2.2618780000"><ele>578</ele><time>2013-11-17T12:18:45Z</time></trkpt>
<trkpt lat="54.2479730000" lon="-2.2618820000"><ele>578</ele><time>2013-11-17T12:18:46Z</time></trkpt>
<trkpt lat="54.2479600000" lon="-2.2618850000"><ele>578</ele><time>2013-11-17T12:18:47Z</time></trkpt>
<trkpt lat="54.2479470000" lon="-2.2618900000"><ele>578</ele><time>2013-11-17T12:18:48Z</time></trkpt>
<trkpt lat="54.2479350000" lon="-2.2618960000"><ele>578</ele><time>2013-11-17T12:18:49Z</time></trkpt>
<trkpt lat="54.2479210000" lon="-2.2619030000"><ele>578</ele><time>2013-11-17T12:18:50Z</time></trkpt>
<trkpt lat="54.2479090000" lon="-2.2619090000"><ele>578</ele><time>2013-11-17T12:18:51Z</time></trkpt>
<trkpt lat="54.2478960000" lon="-2.2619150000"><ele>578</ele><time>2013-11-17T12:18:52Z</time></trkpt>
<trkpt lat="54.2478830000" lon="-2.2619210000"><ele>578</ele><time>2013-11-17T12:18:53Z</time></trkpt>
<trkpt lat="54.2478700000" lon="-2.2619270000"><ele>578</ele><time>2013-11-17T12:18:54Z</time></trkpt>
<trkpt lat="54.2478570000" lon="-2.2619320000"><ele>578</ele><time>2013-11-17T12:18:55Z</time></trkpt>
<trkpt lat="54.2478450000" lon="-2.2619380000"><ele>578</ele><time>2013-11-17T12:18:56Z</time></trkpt>
<trkpt lat="54.2478320000" lon="-2.2619430000"><ele>578</ele><time>2013-11-17T12:18:57Z</time></trkpt>
<trkpt lat="54.2478200000" lon="-2.2619480000"><ele>578</ele><time>2013-11-17T12:18:58Z</time></trkpt>
<trkpt lat="54.2478070000" lon="-2.2619540000"><ele>578</ele><time>2013-11-17T12:18:59Z</time></trkpt>
<trkpt lat="54.2477940000" lon="-2.2619600000"><ele>578</ele><time>2013-11-17T12:19:00Z</time></trkpt>
<trkpt lat="54.2477810000" lon="-2.2619660000"><ele>578</ele><time>2013-11-17T12:19:01Z</time></trkpt>
<trkpt lat="54.2477690000" lon="-2.2619710000"><ele>578</ele><time>2013-11-17T12:19:02Z</time></trkpt>
<trkpt lat="54.2477570000" lon="-2.2619750000"><ele>578</ele><time>2013-11-17T12:19:03Z</time></trkpt>
<trkpt lat="54.2477450000" lon="-2.2619820000"><ele>578</ele><time>2013-11-17T12:19:04Z</time></trkpt>
<trkpt lat="54.2477330000" lon="-2.2619870000"><ele>578</ele><time>2013-11-17T12:19:05Z</time></trkpt>
<trkpt lat="54.2477220000" lon="-2.2619910000"><ele>578</ele><time>2013-11-17T12:19:06Z</time></trkpt>
<trkpt lat="54.2477100000" lon="-2.2619950000"><ele>578</ele><time>2013-11-17T12:19:07Z</time></trkpt>
<trkpt lat="54.2476990000" lon="-2.2619990000"><ele>578</ele><time>2013-11-17T12:19:08Z</time></trkpt>
<trkpt lat="54.2476870000" lon="-2.2620030000"><ele>578</ele><time>2013-11-17T12:19:09Z</time></trkpt>
<trkpt lat="54.2476750000" lon="-2.2620080000"><ele>578</ele><time>2013-11-17T12:19:10Z</time></trkpt>
<trkpt lat="54.2476620000" lon="-2.2620150000"><ele>578</ele><time>2013-11-17T12:19:11Z</time></trkpt>
<trkpt lat="54.2476500000" lon="-2.2620220000"><ele>578</ele><time>2013-11-17T12:19:12Z</time></trkpt>
<trkpt lat="54.2476370000" lon="-2.2620280000"><ele>578</ele><time>2013-11-17T12:19:13Z</time></trkpt>
<trkpt lat="54.2476250000" lon="-2.2620340000"><ele>578</ele><time>2013-11-17T12:19:14Z</time></trkpt>
<trkpt lat="54.2476140000" lon="-2.2620390000"><ele>578</ele><time>2013-11-17T12:19:15Z</time></trkpt>
<trkpt lat="54.2476020000" lon="-2.2620460000"><ele>578</ele><time>2013-11-17T12:19:16Z</time></trkpt>
<trkpt lat="54.2475900000" lon="-2.2620500000"><ele>578</ele><time>2013-11-17T12:19:17Z</time></trkpt>
<trkpt lat="54.2475770000" lon="-2.2620530000"><ele>578</ele><time>2013-11-17T12:19:18Z</time></trkpt>
<trkpt lat="54.2475650000" lon="-2.2620560000"><ele>578</ele><time>2013-11-17T12:19:19Z</time></trkpt>
<trkpt lat="54.2475520000" lon="-2.2620610000"><ele>578</ele><time>2013-11-17T12:19:20Z</time></trkpt>
<trkpt lat="54.2475390000" lon="-2.2620680000"><ele>578</ele><time>2013-11-17T12:19:21Z</time></trkpt>
<trkpt lat="54.2475240000" lon="-2.2620740000"><ele>578</ele><time>2013-11-17T12:19:22Z</time></trkpt>
<trkpt lat="54.2475100000" lon="-2.2620790000"><ele>578</ele><time>2013-11-17T12:19:23Z</time></trkpt>
<trkpt lat="54.2474960000" lon="-2.2620850000"><ele>578</ele><time>2013-11-17T12:19:24Z</time></trkpt>
<trkpt lat="54.2474820000" lon="-2.2620920000"><ele>578</ele><time>2013-11-17T12:19:25Z</time></trkpt>
<trkpt lat="54.2474700000" lon="-2.2620980000"><ele>578</ele><time>2013-11-17T12:19:26Z</time></trkpt>
<trkpt lat="54.2474580000" lon="-2.2621050000"><ele>578</ele><time>2013-11-17T12:19:27Z</time></trkpt>
<trkpt lat="54.2474450000" lon="-2.2621130000"><ele>578</ele><time>2013-11-17T12:19:28Z</time></trkpt>
<trkpt lat="54.2474320000" lon="-2.2621200000"><ele>578</ele><time>2013-11-17T12:19:29Z</time></trkpt>
<trkpt lat="54.2474200000" lon="-2.2621260000"><ele>578</ele><time>2013-11-17T12:19:30Z</time></trkpt>
<trkpt lat="54.2474060000" lon="-2.2621330000"><ele>578</ele><time>2013-11-17T12:19:31Z</time></trkpt>
<trkpt lat="54.2473930000" lon="-2.2621390000"><ele>578</ele><time>2013-11-17T12:19:32Z</time></trkpt>
<trkpt lat="54.2473800000" lon="-2.2621430000"><ele>578</ele><time>2013-11-17T12:19:33Z</time></trkpt>
<trkpt lat="54.2473680000" lon="-2.2621470000"><ele>578</ele><time>2013-11-17T12:19:34Z</time></trkpt>
<trkpt lat="54.2473570000" lon="-2.2621510000"><ele>578</ele><time>2013-11-17T12:19:35Z</time></trkpt>
<trkpt lat="54.2473450000" lon="-2.2621570000"><ele>578</ele><time>2013-11-17T12:19:36Z</time></trkpt>
<trkpt lat="54.2473320000" lon="-2.2621640000"><ele>578</ele><time>2013-11-17T12:19:37Z</time></trkpt>
<trkpt lat="54.2473190000" lon="-2.2621720000"><ele>578</ele><time>2013-11-17T12:19:38Z</time></trkpt>
<trkpt lat="54.2473060000" lon="-2.2621790000"><ele>578</ele><time>2013-11-17T12:19:39Z</time></trkpt>
<trkpt lat="54.2472920000" lon="-2.2621860000"><ele>578</ele><time>2013-11-17T12:19:40Z</time></trkpt>
<trkpt lat="54.2472790000" lon="-2.2621910000"><ele>578</ele><time>2013-11-17T12:19:41Z</time></trkpt>
<trkpt lat="54.2472660000" lon="-2.2621960000"><ele>578</ele><time>2013-11-17T12:19:42Z</time></trkpt>
<trkpt lat="54.2472530000" lon="-2.2622020000"><ele>578</ele><time>2013-11-17T12:19:43Z</time></trkpt>
<trkpt lat="54.2472400000" lon="-2.2622080000"><ele>578</ele><time>2013-11-17T12:19:44Z</time></trkpt>
<trkpt lat="54.2472270000" lon="-2.2622140000"><ele>578</ele><time>2013-11-17T12:19:45Z</time></trkpt>
<trkpt lat="54.2472140000" lon="-2.2622200000"><ele>578</ele><time>2013-11-17T12:19:46Z</time></trkpt>
<trkpt lat="54.2472010000" lon="-2.2622260000"><ele>578</ele><time>2013-11-17T12:19:47Z</time></trkpt>
<trkpt lat="54.2471870000" lon="-2.2622330000"><ele>578</ele><time>2013-11-17T12:19:48Z</time></trkpt>
<trkpt lat="54.2471740000" lon="-2.2622400000"><ele>578</ele><time>2013-11-17T12:19:49Z</time></trkpt>
<trkpt lat="54.2471600000" lon="-2.2622450000"><ele>578</ele><time>2013-11-17T12:19:50Z</time></trkpt>
<trkpt lat="54.2471470000" lon="-2.2622520000"><ele>578</ele><time>2013-11-17T12:19:51Z</time></trkpt>
<trkpt lat="54.2471350000" lon="-2.2622580000"><ele>578</ele><time>2013-11-17T12:19:52Z</time></trkpt>
<trkpt lat="54.2471230000" lon="-2.2622640000"><ele>578</ele><time>2013-11-17T12:19:53Z</time></trkpt>
<trkpt lat="54.2471110000" lon="-2.2622680000"><ele>578</ele><time>2013-11-17T12:19:54Z</time></trkpt>
<trkpt lat="54.2470980000" lon="-2.2622740000"><ele>578</ele><time>2013-11-17T12:19:55Z</time></trkpt>
<trkpt lat="54.2470860000" lon="-2.2622790000"><ele>578</ele><time>2013-11-17T12:19:56Z</time></trkpt>
<trkpt lat="54.2470730000" lon="-2.2622850000"><ele>578</ele><time>2013-11-17T12:19:57Z</time></trkpt>
<trkpt lat="54.2470600000" lon="-2.2622900000"><ele>578</ele><time>2013-11-17T12:19:58Z</time></trkpt>
<trkpt lat="54.2470470000" lon="-2.2622960000"><ele>578</ele><time>2013-11-17T12:19:59Z</time></trkpt>
<trkpt lat="54.2470350000" lon="-2.2623020000"><ele>578</ele><time>2013-11-17T12:20:00Z</time></trkpt>
<trkpt lat="54.2470220000" lon="-2.2623090000"><ele>578</ele><time>2013-11-17T12:20:01Z</time></trkpt>
<trkpt lat="54.2470110000" lon="-2.2623140000"><ele>578</ele><time>2013-11-17T12:20:02Z</time></trkpt>
<trkpt lat="54.2469990000" lon="-2.2623200000"><ele>578</ele><time>2013-11-17T12:20:03Z</time></trkpt>
<trkpt lat="54.2469880000" lon="-2.2623250000"><ele>578</ele><time>2013-11-17T12:20:04Z</time></trkpt>
<trkpt lat="54.2469770000" lon="-2.2623300000"><ele>578</ele><time>2013-11-17T12:20:05Z</time></trkpt>
<trkpt lat="54.2469660000" lon="-2.2623340000"><ele>578</ele><time>2013-11-17T12:20:06Z</time></trkpt>
<trkpt lat="54.2469540000" lon="-2.2623390000"><ele>578</ele><time>2013-11-17T12:20:07Z</time></trkpt>
<trkpt lat="54.2469430000" lon="-2.2623450000"><ele>578</ele><time>2013-11-17T12:20:08Z</time></trkpt>
<trkpt lat="54.2469320000" lon="-2.2623510000"><ele>578</ele><time>2013-11-17T12:20:09Z</time></trkpt>
<trkpt lat="54.2469210000" lon="-2.2623560000"><ele>578</ele><time>2013-11-17T12:20:10Z</time></trkpt>
<trkpt lat="54.2469090000" lon="-2.2623600000"><ele>578</ele><time>2013-11-17T12:20:11Z</time></trkpt>
<trkpt lat="54.2468970000" lon="-2.2623630000"><ele>578</ele><time>2013-11-17T12:20:12Z</time></trkpt>
<trkpt lat="54.2468870000" lon="-2.2623670000"><ele>578</ele><time>2013-11-17T12:20:13Z</time></trkpt>
<trkpt lat="54.2468780000" lon="-2.2623700000"><ele>578</ele><time>2013-11-17T12:20:14Z</time></trkpt>
<trkpt lat="54.2468670000" lon="-2.2623760000"><ele>578</ele><time>2013-11-17T12:20:15Z</time></trkpt>
<trkpt lat="54.2468540000" lon="-2.2623850000"><ele>578</ele><time>2013-11-17T12:20:16Z</time></trkpt>
<trkpt lat="54.2468430000" lon="-2.2623930000"><ele>569</ele><time>2013-11-17T12:20:17Z</time></trkpt>
<trkpt lat="54.2468320000" lon="-2.2624000000"><ele>569</ele><time>2013-11-17T12:20:18Z</time></trkpt>
<trkpt lat="54.2468210000" lon="-2.2624060000"><ele>569</ele><time>2013-11-17T12:20:19Z</time></trkpt>
<trkpt lat="54.2468110000" lon="-2.2624090000"><ele>569</ele><time>2013-11-17T12:20:20Z</time></trkpt>
<trkpt lat="54.2468000000" lon="-2.2624130000"><ele>569</ele><time>2013-11-17T12:20:21Z</time></trkpt>
<trkpt lat="54.2467880000" lon="-2.2624190000"><ele>569</ele><time>2013-11-17T12:20:22Z</time></trkpt>
<trkpt lat="54.2467780000" lon="-2.2624260000"><ele>569</ele><time>2013-11-17T12:20:23Z</time></trkpt>
<trkpt lat="54.2467680000" lon="-2.2624320000"><ele>569</ele><time>2013-11-17T12:20:24Z</time></trkpt>
<trkpt lat="54.2467570000" lon="-2.2624380000"><ele>569</ele><time>2013-11-17T12:20:25Z</time></trkpt>
<trkpt lat="54.2467460000" lon="-2.2624440000"><ele>569</ele><time>2013-11-17T12:20:26Z</time></trkpt>
<trkpt lat="54.2467350000" lon="-2.2624470000"><ele>569</ele><time>2013-11-17T12:20:27Z</time></trkpt>
<trkpt lat="54.2467240000" lon="-2.2624500000"><ele>569</ele><time>2013-11-17T12:20:28Z</time></trkpt>
<trkpt lat="54.2467130000" lon="-2.2624520000"><ele>569</ele><time>2013-11-17T12:20:29Z</time></trkpt>
<trkpt lat="54.2467040000" lon="-2.2624520000"><ele>569</ele><time>2013-11-17T12:20:30Z</time></trkpt>
<trkpt lat="54.2466930000" lon="-2.2624530000"><ele>569</ele><time>2013-11-17T12:20:31Z</time></trkpt>
<trkpt lat="54.2466810000" lon="-2.2624580000"><ele>569</ele><time>2013-11-17T12:20:32Z</time></trkpt>
<trkpt lat="54.2466680000" lon="-2.2624630000"><ele>569</ele><time>2013-11-17T12:20:33Z</time></trkpt>
<trkpt lat="54.2466540000" lon="-2.2624690000"><ele>569</ele><time>2013-11-17T12:20:34Z</time></trkpt>
<trkpt lat="54.2466400000" lon="-2.2624750000"><ele>569</ele></trkpt>
<trkpt lat="54.2466270000" lon="-2.2624810000"><ele>569</ele><time>2013-11-17T12:20:36Z</time></trkpt>
<trkpt lat="54.2466130000" lon="-2.2624880000"><ele>569</ele><time>2013-11-17T12:20:37Z</time></trkpt>
<trkpt lat="54.2465980000" lon="-2.2624950000"><ele>569</ele><time>2013-11-17T12:20:38Z</time></trkpt>
<trkpt lat="54.2465850000" lon="-2.2625040000"><ele>569</ele><time>2013-11-17T12:20:39Z</time></trkpt>
<trkpt lat="54.2465710000" lon="-2.2625110000"><ele>569</ele><time>2013-11-17T12:20:40Z</time></trkpt>
<trkpt lat="54.2465580000" lon="-2.2625160000"><ele>569</ele><time>2013-11-17T12:20:41Z</time></trkpt>
<trkpt lat="54.2465450000" lon="-2.2625210000"><ele>569</ele><time>2013-11-17T12:20:42Z</time></trkpt>
<trkpt lat="54.2465320000" lon="-2.2625270000"><ele>569</ele><time>2013-11-17T12:20:43Z</time></trkpt>
<trkpt lat="54.2465180000" lon="-2.2625320000"><ele>569</ele><time>2013-11-17T12:20:44Z</time></trkpt>
<trkpt lat="54.2465050000" lon="-2.2625340000"><ele>569</ele><time>2013-11-17T12:20:45Z</time></trkpt>
<trkpt lat="54.2464920000" lon="-2.2625370000"><ele>569</ele><time>2013-11-17T12:20:46Z</time></trkpt>
<trkpt lat="54.2464790000" lon="-2.2625410000"><ele>569</ele><time>2013-11-17T12:20:47Z</time></trkpt>
<trkpt lat="54.2464670000" lon="-2.2625460000"><ele>569</ele><time>2013-11-17T12:20:48Z</time></trkpt>
<trkpt lat="54.2464530000" lon="-2.2625510000"><ele>569</ele><time>2013-11-17T12:20:49Z</time></trkpt>
<trkpt lat="54.2464410000" lon="-2.2625540000"><ele>569</ele><time>2013-11-17T12:20:50Z</time></trkpt>
<trkpt lat="54.2464280000" lon="-2.2625590000"><ele>569</ele><time>2013-11-17T12:20:51Z</time></trkpt>
<trkpt lat="54.2464160000" lon="-2.2625630000"><ele>569</ele><time>2013-11-17T12:20:52Z</time></trkpt>
<trkpt lat="54.2464040000" lon="-2.2625660000"><ele>569</ele><time>2013-11-17T12:20:53Z</time></trkpt>
<trkpt lat="54.2463920000" lon="-2.2625710000"><ele>569</ele><time>2013-11-17T12:20:54Z</time></trkpt>
<trkpt lat="54.2463790000" lon="-2.2625780000"><ele>569</ele><time>2013-11-17T12:20:55Z</time></trkpt>
<trkpt lat="54.2463660000" lon="-2.2625850000"><ele>569</ele><time>2013-11-17T12:20:56Z</time></trkpt>
<trkpt lat="54.2463520000" lon="-2.2625910000"><ele>569</ele><time>2013-11-17T12:20:57Z</time></trkpt>
<trkpt lat="54.2463400000" lon="-2.2625970000"><ele>569</ele><time>2013-11-17T12:20:58Z</time></trkpt>
<trkpt lat="54.2463290000" lon="-2.2626000000"><ele>569</ele><time>2013-11-17T12:20:59Z</time></trkpt>
<trkpt lat="54.2463180000" lon="-2.2626010000"><ele>569</ele><time>2013-11-17T12:21:00Z</time></trkpt>
<trkpt lat="54.2463050000" lon="-2.2626060000"><ele>569</ele><time>2013-11-17T12:21:01Z</time></trkpt>
<trkpt lat="54.2462930000" lon="-2.2626100000"><ele>569</ele><time>2013-11-17T12:21:02Z</time></trkpt>
<trkpt lat="54.2462800000" lon="-2.2626140000"><ele>569</ele><time>2013-11-17T12:21:03Z</time></trkpt>
<trkpt lat="54.2462680000" lon="-2.2626190000"><ele>569</ele><time>2013-11-17T12:21:04Z</time></trkpt>
<trkpt lat="54.2462580000" lon="-2.2626250000"><ele>569</ele><time>2013-11-17T12:21:05Z</time></trkpt>
<trkpt lat="54.2462470000" lon="-2.2626310000"><ele>569</ele><time>2013-11-17T12:21:06Z</time></trkpt>
<trkpt lat="54.2462350000" lon="-2.2626380000"><ele>569</ele><time>2013-11-17T12:21:07Z</time></trkpt>
<trkpt lat="54.2462240000" lon="-2.2626450000"><ele>569</ele><time>2013-11-17T12:21:08Z</time></trkpt>
<trkpt lat="54.2462120000" lon="-2.2626520000"><ele>569</ele><time>2013-11-17T12:21:09Z</time></trkpt>
<trkpt lat="54.2462010000" lon="-2.2626580000"><ele>569</ele><time>2013-11-17T12:21:10Z</time></trkpt>
<trkpt lat="54.2461900000" lon="-2.2626630000"><ele>569</ele><time>2013-11-17T12:21:11Z</time></trkpt>
<trkpt lat="54.2461800000" lon="-2.2626680000"><ele>569</ele><time>2013-11-17T12:21:12Z</time></trkpt>
<trkpt lat="54.2461680000" lon="-2.2626740000"><ele>569</ele><time>2013-11-17T12:21:13Z</time></trkpt>
<trkpt lat="54.2461560000" lon="-2.2626790000"><ele>569</ele><time>2013-11-17T12:21:14Z</time></trkpt>
<trkpt lat="54.2461440000" lon="-2.2626840000"><ele>569</ele><time>2013-11-17T12:21:15Z</time></trkpt>
<trkpt lat="54.2461320000" lon="-2.2626890000"><ele>569</ele><time>2013-11-17T12:21:16Z</time></trkpt>
<trkpt lat="54.2461200000" lon="-2.2626940000"><ele>569</ele><time>2013-11-17T12:21:17Z</time></trkpt>
<trkpt lat="54.2461080000" lon="-2.2626990000"><ele>569</ele><time>2013-11-17T12:21:18Z</time></trkpt>
<trkpt lat="54.2460960000" lon="-2.2627060000"><ele>569</ele><time>2013-11-17T12:21:19Z</time></trkpt>
<trkpt lat="54.2460840000" lon="-2.2627130000"><ele>569</ele><time>2013-11-17T12:21:20Z</time></trkpt>
<trkpt lat="54.2460720000" lon="-2.2627180000"><ele>569</ele><time>2013-11-17T12:21:21Z</time></trkpt>
<trkpt lat="54.2460600000" lon="-2.2627210000"><ele>569</ele><time>2013-11-17T12:21:22Z</time></trkpt>
<trkpt lat="54.2460480000" lon="-2.2627260000"><ele>569</ele><time>2013-11-17T12:21:23Z</time></trkpt>
<trkpt lat="54.2460370000" lon="-2.2627310000"><ele>569</ele><time>2013-11-17T12:21:24Z</time></trkpt>
<trkpt lat="54.2460280000" lon="-2.2627340000"><ele>569</ele><time>2013-11-17T12:21:25Z</time></trkpt>
<trkpt lat="54.2460190000" lon="-2.2627330000"><ele>569</ele><time>2013-11-17T12:21:26Z</time></trkpt>
<trkpt lat="54.2460100000" lon="-2.2627310000"><ele>569</ele><time>2013-11-17T12:21:27Z</time></trkpt>
<trkpt lat="54.2460000000" lon="-2.2627330000"><ele>569</ele><time>2013-11-17T12:21:28Z</time></trkpt>
<trkpt lat="54.2459920000" lon="-2.2627350000"><ele>563</ele><time>2013-11-17T12:21:29Z</time></trkpt>
<trkpt lat="54.2459850000" lon="-2.2627350000"><ele>563</ele><time>2013-11-17T12:21:30Z</time></trkpt>
<trkpt lat="54.2459790000" lon="-2.2627340000"><ele>563</ele><time>2013-11-17T12:21:31Z</time></trkpt>
<trkpt lat="54.2459740000" lon="-2.2627330000"><ele>563</ele><time>2013-11-17T12:21:32Z</time></trkpt>
<trkpt lat="54.2459670000" lon="-2.2627310000"><ele>563</ele><time>2013-11-17T12:21:33Z</time></trkpt>
<trkpt lat="54.2459620000" lon="-2.2627280000"><ele>563</ele><time>2013-11-17T12:21:34Z</time></trkpt>
<trkpt lat="54.2459590000" lon="-2.2627260000"><ele>563</ele><time>2013-11-17T12:21:35Z</time></trkpt>
<trkpt lat="54.2459580000" lon="-2.2627260000"><ele>563</ele><time>2013-11-17T12:21:36Z</time></trkpt>
<trkpt lat="54.2459580000" lon="-2.2627270000"><ele>563</ele><time>2013-11-17T12:21:37Z</time></trkpt>
<trkpt lat="54.2459580000" lon="-2.2627280000"><ele>563</ele><time>2013-11-17T12:21:38Z</time></trkpt>
<trkpt lat="54.2459590000" lon="-2.2627300000"><ele>563</ele><time>2013-11-17T12:21:39Z</time></trkpt>
<trkpt lat="54.2459590000" lon="-2.2627320000"><ele>563</ele><time>2013-11-17T12:21:40Z</time></trkpt>
<trkpt lat="54.2459600000" lon="-2.2627350000"><ele>563</ele><time>2013-11-17T12:21:41Z</time></trkpt>
<trkpt lat="54.2459590000" lon="-2.2627350000"><ele>563</ele><time>2013-11-17T12:21:42Z</time></trkpt>
<trkpt lat="54.2459590000" lon="-2.2627350000"><ele>563</ele><time>2013-11-17T12:21:43Z</time></trkpt>
<trkpt lat="54.2459580000" lon="-2.2627310000"><ele>563</ele><time>2013-11-17T12:21:44Z</time></trkpt>
<trkpt lat="54.2459580000" lon="-2.2627290000"><ele>563</ele><time>2013-11-17T12:21:45Z</time></trkpt>
<trkpt lat="54.2459580000" lon="-2.2627270000"><ele>563</ele><time>2013-11-17T12:21:46Z</time></trkpt>
<trkpt lat="54.2459580000" lon="-2.2627260000"><ele>563</ele><time>2013-11-17T12:21:47Z</time></trkpt>
<trkpt lat="54.2459580000" lon="-2.2627230000"><ele>563</ele><time>2013-11-17T12:21:48Z</time></trkpt>
<trkpt lat="54.2459580000" lon="-2.2627220000"><ele>563</ele><time>2013-11-17T12:21:49Z</time></trkpt>
<trkpt lat="54.2459590000" lon="-2.2627210000"><ele>563</ele><time>2013-11-17T12:21:50Z</time></trkpt>
<trkpt lat="54.2459570000" lon="-2.2627200000"><ele>563</ele><time>2013-11-17T12:21:51Z</time></trkpt>
<trkpt lat="54.2459560000" lon="-2.2627210000"><ele>563</ele><time>2013-11-17T12:21:52Z</time></trkpt>
<trkpt lat="54.2459540000" lon="-2.2627230000"><ele>563</ele><time>2013-11-17T12:21:53Z</time></trkpt>
<trkpt lat="54.2459530000" lon="-2.2627250000"><ele>563</ele><time>2013-11-17T12:21:54Z</time></trkpt>
<trkpt lat="54.2459520000" lon="-2.2627280000"><ele>563</ele><time>2013-11-17T12:21:55Z</time></trkpt>
<trkpt lat="54.2459520000" lon="-2.2627310000"><ele>563</ele><time>2013-11-17T12:21:56Z</time></trkpt>
<trkpt lat="54.2459490000" lon="-2.2627320000"><ele>563</ele><time>2013-11-17T12:21:57Z</time></trkpt>
<trkpt lat="54.2459470000" lon="-2.2627360000"><ele>563</ele><time>2013-11-17T12:21:58Z</time></trkpt>
<trkpt lat="54.2459470000" lon="-2.2627400000"><ele>563</ele><time>2013-11-17T12:21:59Z</time></trkpt>
<trkpt lat="54.2459470000" lon="-2.2627400000"><ele>563</ele><time>2013-11-17T12:22:00Z</time></trkpt>
<trkpt lat="54.2459480000" lon="-2.2627400000"><ele>563</ele><time>2013-11-17T12:22:01Z</time></trkpt>
<trkpt lat="54.2459480000" lon="-2.2627420000"><ele>563</ele><time>2013-11-17T12:22:02Z</time></trkpt>
<trkpt lat="54.2459500000" lon="-2.2627430000"><ele>563</ele><time>2013-11-17T12:22:03Z</time></trkpt>
<trkpt lat="54.2459510000" lon="-2.2627420000"><ele>563</ele><time>2013-11-17T12:22:04Z</time></trkpt>
<trkpt lat="54.2459520000" lon="-2.2627400000"><ele>563</ele><time>2013-11-17T12:22:05Z</time></trkpt>
<trkpt lat="54.2459530000" lon="-2.2627400000"><ele>563</ele><time>2013-11-17T12:22:06Z</time></trkpt>
<trkpt lat="54.2459540000" lon="-2.2627420000"><ele>563</ele><time>2013-11-17T12:22:07Z</time></trkpt>
<trkpt lat="54.2459550000" lon="-2.2627430000"><ele>563</ele><time>2013-11-17T12:22:08Z</time></trkpt>
<trkpt lat="54.2459550000" lon="-2.2627440000"><ele>563</ele><time>2013-11-17T12:22:09Z</time></trkpt>
<trkpt lat="54.2459540000" lon="-2.2627430000"><ele>563</ele><time>2013-11-17T12:22:10Z</time></trkpt>
<trkpt lat="54.2459540000" lon="-2.2627420000"><ele>563</ele><time>2013-11-17T12:22:11Z</time></trkpt>
<trkpt lat="54.2459560000" lon="-2.2627420000"><ele>563</ele><time>2013-11-17T12:22:12Z</time></trkpt>
<trkpt lat="54.2459580000" lon="-2.2627430000"><ele>563</ele><time>2013-11-17T12:22:13Z</time></trkpt>
<trkpt lat="54.2459620000" lon="-2.2627460000"><ele>563</ele><time>2013-11-17T12:22:14Z</time></trkpt>
<trkpt lat="54.2459650000" lon="-2.2627460000"><ele>563</ele><time>2013-11-17T12:22:15Z</time></trkpt>
<trkpt lat="54.2459660000" lon="-2.2627440000"><ele>563</ele><time>2013-11-17T12:22:16Z</time></trkpt>
<trkpt lat="54.2459670000" lon="-2.2627440000"><ele>563</ele><time>2013-11-17T12:22:17Z</time></trkpt>
<trkpt lat="54.2459670000" lon="-2.2627440000"><ele>563</ele><time>2013-11-17T12:22:18Z</time></trkpt>
<trkpt lat="54.2459690000" lon="-2.2627420000"><ele>563</ele><time>2013-11-17T12:22:19Z</time></trkpt>
<trkpt lat="54.2459710000" lon="-2.2627410000"><ele>563</ele><time>2013-11-17T12:22:20Z</time></trkpt>
<trkpt lat="54.2459710000" lon="-2.2627390000"><ele>563</ele><time>2013-11-17T12:22:21Z</time></trkpt>
<trkpt lat="54.2459710000" lon="-2.2627370000"><ele>563</ele><time>2013-11-17T12:22:22Z</time></trkpt>
<trkpt lat="54.2459720000" lon="-2.2627360000"><ele>563</ele><time>2013-11-17T12:22:23Z</time></trkpt>
<trkpt lat="54.2459720000" lon="-2.2627330000"><ele>563</ele><time>2013-11-17T12:22:24Z</time></trkpt>
<trkpt lat="54.2459720000" lon="-2.2627320000"><ele>563</ele><time>2013-11-17T12:22:25Z</time></trkpt>
<trkpt lat="54.2459720000" lon="-2.2627300000"><ele>563</ele><time>2013-11-17T12:22:26Z</time></trkpt>
<trkpt lat="54.2459710000" lon="-2.2627290000"><ele>563</ele><time>2013-11-17T12:22:27Z</time></trkpt>
<trkpt lat="54.2459710000" lon="-2.2627260000"><ele>563</ele><time>2013-11-17T12:22:28Z</time></trkpt>
<trkpt lat="54.2459700000" lon="-2.2627240000"><ele>563</ele><time>2013-11-17T12:22:29Z</time></trkpt>
<trkpt lat="54.2459700000" lon="-2.2627250000"><ele>563</ele><time>2013-11-17T12:22:30Z</time></trkpt>
<trkpt lat="54.2459700000" lon="-2.2627250000"><ele>563</ele><time>2013-11-17T12:22:31Z</time></trkpt>
<trkpt lat="54.2459700000" lon="-2.2627280000"><ele>563</ele><time>2013-11-17T12:22:32Z</time></trkpt>
<trkpt lat="54.2459700000" lon="-2.2627300000"><ele>563</ele><time>2013-11-17T12:22:33Z</time></trkpt>
<trkpt lat="54.2459700000" lon="-2.2627310000"><ele>563</ele><time>2013-11-17T12:22:34Z</time></trkpt>
<trkpt lat="54.2459700000" lon="-2.2627330000"><ele>563</ele><time>2013-11-17T12:22:35Z</time></trkpt>
<trkpt lat="54.2459700000" lon="-2.2627350000"><ele>563</ele><time>2013-11-17T12:22:36Z</time></trkpt>
<trkpt lat="54.2459700000" lon="-2.2627350000"><ele>563</ele><time>2013-11-17T12:22:37Z</time></trkpt>
<trkpt lat="54.2459680000" lon="-2.2627340000"><ele>563</ele><time>2013-11-17T12:22:38Z</time></trkpt>
<trkpt lat="54.2459660000" lon="-2.2627310000"><ele>563</ele><time>2013-11-17T12:22:39Z</time></trkpt>
<trkpt lat="54.2459660000" lon="-2.2627300000"><ele>563</ele><time>2013-11-17T12:22:40Z</time></trkpt>
<trkpt lat="54.2459660000" lon="-2.2627320000"><ele>563</ele><time>2013-11-17T12:22:41Z</time></trkpt>
<trkpt lat="54.2459670000" lon="-2.2627360000"><ele>563</ele><time>2013-11-17T12:22:42Z</time></trkpt>
<trkpt lat="54.2459680000" lon="-2.2627360000"><ele>563</ele><time>2013-11-17T12:22:43Z</time></trkpt>
<trkpt lat="54.2459700000" lon="-2.2627370000"><ele>563</ele><time>2013-11-17T12:22:44Z</time></trkpt>
<trkpt lat="54.2459700000" lon="-2.2627360000"><ele>563</ele><time>2013-11-17T12:22:45Z</time></trkpt>
<trkpt lat="54.2459700000" lon="-2.2627340000"><ele>563</ele><time>2013-11-17T12:22:46Z</time></trkpt>
<trkpt lat="54.2459700000" lon="-2.2627320000"><ele>563</ele><time>2013-11-17T12:22:47Z</time></trkpt>
<trkpt lat="54.2459690000" lon="-2.2627320000"><ele>563</ele><time>2013-11-17T12:22:48Z</time></trkpt>
<trkpt lat="54.2459690000" lon="-2.2627310000"><ele>563</ele><time>2013-11-17T12:22:49Z</time></trkpt>
<trkpt lat="54.2459680000" lon="-2.2627270000"><ele>563</ele><time>2013-11-17T12:22:50Z</time></trkpt>
<trkpt lat="54.2459670000" lon="-2.2627240000"><ele>563</ele><time>2013-11-17T12:22:51Z</time></trkpt>
<trkpt lat="54.2459660000" lon="-2.2627220000"><ele>563</ele><time>2013-11-17T12:22:52Z</time></trkpt>
<trkpt lat="54.2459650000" lon="-2.2627200000"><ele>563</ele><time>2013-11-17T12:22:53Z</time></trkpt>
<trkpt lat="54.2459640000" lon="-2.2627160000"><ele>563</ele><time>2013-11-17T12:22:54Z</time></trkpt>
<trkpt lat="54.2459620000" lon="-2.2627130000"><ele>563</ele><time>2013-11-17T12:22:55Z</time></trkpt>
<trkpt lat="54.2459620000" lon="-2.2627090000"><ele>563</ele><time>2013-11-17T12:22:56Z</time></trkpt>
<trkpt lat="54.2459610000" lon="-2.2627060000"><ele>563</ele><time>2013-11-17T12:22:57Z</time></trkpt>
<trkpt lat="54.2459620000" lon="-2.2627050000"><ele>563</ele><time>2013-11-17T12:22:58Z</time></trkpt>
<trkpt lat="54.2459610000" lon="-2.2627050000"><ele>563</ele><time>2013-11-17T12:22:59Z</time></trkpt>
<trkpt lat="54.2459620000" lon="-2.2627040000"><ele>563</ele><time>2013-11-17T12:23:00Z</time></trkpt>
<trkpt lat="54.2459620000" lon="-2.2627030000"><ele>563</ele><time>2013-11-17T12:23:01Z</time></trkpt>
<trkpt lat="54.2459600000" lon="-2.2627000000"><ele>563</ele><time>2013-11-17T12:23:02Z</time></trkpt>
<trkpt lat="54.2459590000" lon="-2.2626960000"><ele>563</ele><time>2013-11-17T12:23:03Z</time></trkpt>
<trkpt lat="54.2459580000" lon="-2.2626950000"><ele>563</ele><time>2013-11-17T12:23:04Z</time></trkpt>
<trkpt lat="54.2459580000" lon="-2.2626960000"><ele>563</ele><time>2013-11-17T12:23:05Z</time></trkpt>
<trkpt lat="54.2459580000" lon="-2.2626960000"><ele>563</ele><time>2013-11-17T12:23:06Z</time></trkpt>
<trkpt lat="54.2459570000" lon="-2.2626960000"><ele>563</ele><time>2013-11-17T12:23:07Z</time></trkpt>
<trkpt lat="54.2459570000" lon="-2.2626940000"><ele>563</ele><time>2013-11-17T12:23:08Z</time></trkpt>
<trkpt lat="54.2459580000" lon="-2.2626910000"><ele>563</ele><time>2013-11-17T12:23:09Z</time></trkpt>
<trkpt lat="54.2459580000" lon="-2.2626890000"><ele>563</ele><time>2013-11-17T12:23:10Z</time></trkpt>
<trkpt lat="54.2459570000" lon="-2.2626890000"><ele>563</ele><time>2013-11-17T12:23:11Z</time></trkpt>
<trkpt lat="54.2459570000" lon="-2.2626880000"><ele>563</ele><time>2013-11-17T12:23:12Z</time></trkpt>
<trkpt lat="54.2459560000" lon="-2.2626880000"><ele>563</ele><time>2013-11-17T12:23:13Z</time></trkpt>
<trkpt lat="54.2459560000" lon="-2.2626870000"><ele>563</ele><time>2013-11-17T12:23:14Z</time></trkpt>
<trkpt lat="54.2459560000" lon="-2.2626870000"><ele>563</ele><time>2013-11-17T12:23:15Z</time></trkpt>
<trkpt lat="54.2459560000" lon="-2.2626870000"><ele>563</ele><time>2013-11-17T12:23:16Z</time></trkpt>
<trkpt lat="54.2459550000" lon="-2.2626880000"><ele>563</ele><time>2013-11-17T12:23:17Z</time></trkpt>
<trkpt lat="54.2459560000" lon="-2.2626890000"><ele>563</ele><time>2013-11-17T12:23:18Z</time></trkpt>
<trkpt lat="54.2459580000" lon="-2.2626920000"><ele>563</ele><time>2013-11-17T12:23:19Z</time></trkpt>
<trkpt lat="54.2459590000" lon="-2.2626940000"><ele>563</ele><time>2013-11-17T12:23:20Z</time></trkpt>
<trkpt lat="54.2459580000" lon="-2.2626980000"><ele>563</ele><time>2013-11-17T12:23:21Z</time></trkpt>
<trkpt lat="54.2459570000" lon="-2.2627010000"><ele>563</ele><time>2013-11-17T12:23:22Z</time></trkpt>
<trkpt lat="54.2459580000" lon="-2.2627060000"><ele>563</ele><time>2013-11-17T12:23:23Z</time></trkpt>
<trkpt lat="54.2459520000" lon="-2.2626520000"><ele>563</ele><time>2013-11-17T12:23:53Z</time></trkpt>
<trkpt lat="54.2459620000" lon="-2.2626010000"><ele>563</ele><time>2013-11-17T12:24:10Z</time></trkpt>
<trkpt lat="54.2459660000" lon="-2.2625510000"><ele>563</ele><time>2013-11-17T12:24:13Z</time></trkpt>
<trkpt lat="54.2459620000" lon="-2.2624950000"><ele>563</ele><time>2013-11-17T12:24:16Z</time></trkpt>
<trkpt lat="54.2459520000" lon="-2.2624450000"><ele>563</ele><time>2013-11-17T12:24:19Z</time></trkpt>
<trkpt lat="54.2459410000" lon="-2.2624120000"><ele>563</ele><time>2013-11-17T12:24:21Z</time></trkpt>
<trkpt lat="54.2459320000" lon="-2.2623700000"><ele>565</ele><time>2013-11-17T12:24:24Z</time></trkpt>
<trkpt lat="54.2459240000" lon="-2.2623180000"><ele>565</ele><time>2013-11-17T12:24:27Z</time></trkpt>
<trkpt lat="54.2459110000" lon="-2.2622750000"><ele>565</ele><time>2013-11-17T12:24:30Z</time></trkpt>
<trkpt lat="54.2459090000" lon="-2.2622340000"><ele>565</ele><time>2013-11-17T12:24:33Z</time></trkpt>
<trkpt lat="54.2459070000" lon="-2.2621880000"><ele>565</ele><time>2013-11-17T12:24:36Z</time></trkpt>
<trkpt lat="54.2459090000" lon="-2.2621370000"><ele>565</ele><time>2013-11-17T12:24:39Z</time></trkpt>
<trkpt lat="54.2459030000" lon="-2.2620840000"><ele>565</ele><time>2013-11-17T12:24:42Z</time></trkpt>
<trkpt lat="54.2459010000" lon="-2.2620250000"><ele>565</ele><time>2013-11-17T12:24:46Z</time></trkpt>
<trkpt lat="54.2458970000" lon="-2.2619820000"><ele>565</ele><time>2013-11-17T12:24:48Z</time></trkpt>
<trkpt lat="54.2458870000" lon="-2.2619410000"><ele>565</ele><time>2013-11-17T12:24:50Z</time></trkpt>
<trkpt lat="54.2458820000" lon="-2.2618970000"><ele>565</ele><time>2013-11-17T12:24:52Z</time></trkpt>
<trkpt lat="54.2458800000" lon="-2.2618460000"><ele>565</ele><time>2013-11-17T12:24:55Z</time></trkpt>
<trkpt lat="54.2458770000" lon="-2.2618050000"><ele>565</ele><time>2013-11-17T12:24:57Z</time></trkpt>
<trkpt lat="54.2458700000" lon="-2.2617590000"><ele>565</ele><time>2013-11-17T12:24:59Z</time></trkpt>
<trkpt lat="54.2458650000" lon="-2.2617150000"><ele>565</ele><time>2013-11-17T12:25:01Z</time></trkpt>
<trkpt lat="54.2458570000" lon="-2.2616590000"><ele>565</ele><time>2013-11-17T12:25:03Z</time></trkpt>
<trkpt lat="54.2458490000" lon="-2.2616140000"><ele>565</ele><time>2013-11-17T12:25:05Z</time></trkpt>
<trkpt lat="54.2458430000" lon="-2.2615690000"><ele>565</ele><time>2013-11-17T12:25:07Z</time></trkpt>
<trkpt lat="54.2458400000" lon="-2.2615230000"><ele>565</ele><time>2013-11-17T12:25:09Z</time></trkpt>
<trkpt lat="54.2458400000" lon="-2.2614790000"><ele>565</ele><time>2013-11-17T12:25:11Z</time></trkpt>
<trkpt lat="54.2458390000" lon="-2.2614370000"><ele>565</ele><time>2013-11-17T12:25:13Z</time></trkpt>
<trkpt lat="54.2458360000" lon="-2.2613770000"><ele>565</ele><time>2013-11-17T12:25:16Z</time></trkpt>
<trkpt lat="54.2458300000" lon="-2.2613150000"><ele>565</ele><time>2013-11-17T12:25:19Z</time></trkpt>
<trkpt lat="54.2458270000" lon="-2.2612540000"><ele>565</ele><time>2013-11-17T12:25:22Z</time></trkpt>
<trkpt lat="54.2458260000" lon="-2.2612100000"><ele>565</ele><time>2013-11-17T12:25:24Z</time></trkpt>
<trkpt lat="54.2458250000" lon="-2.2611690000"><ele>565</ele><time>2013-11-17T12:25:26Z</time></trkpt>
<trkpt lat="54.2458230000" lon="-2.2611170000"><ele>565</ele><time>2013-11-17T12:25:28Z</time></trkpt>
<trkpt lat="54.2458230000" lon="-2.2610680000"><ele>565</ele><time>2013-11-17T12:25:30Z</time></trkpt>
<trkpt lat="54.2458220000" lon="-2.2610200000"><ele>565</ele><time>2013-11-17T12:25:32Z</time></trkpt>
<trkpt lat="54.2458200000" lon="-2.2609780000"><ele>565</ele><time>2013-11-17T12:25:34Z</time></trkpt>
<trkpt lat="54.2458190000" lon="-2.2609310000"><ele>565</ele><time>2013-11-17T12:25:36Z</time></trkpt>
<trkpt lat="54.2458180000" lon="-2.2608880000"><ele>565</ele><time>2013-11-17T12:25:38Z</time></trkpt>
<trkpt lat="54.2458180000" lon="-2.2608430000"><ele>565</ele><time>2013-11-17T12:25:40Z</time></trkpt>
<trkpt lat="54.2458160000" lon="-2.2607940000"><ele>565</ele><time>2013-11-17T12:25:42Z</time></trkpt>
<trkpt lat="54.2458170000" lon="-2.2607370000"><ele>565</ele><time>2013-11-17T12:25:45Z</time></trkpt>
<trkpt lat="54.2458170000" lon="-2.2606930000"><ele>565</ele><time>2013-11-17T12:25:47Z</time></trkpt>
<trkpt lat="54.2458140000" lon="-2.2606510000"><ele>565</ele><time>2013-11-17T12:25:49Z</time></trkpt>
<trkpt lat="54.2458050000" lon="-2.2606080000"><ele>565</ele><time>2013-11-17T12:25:51Z</time></trkpt>
<trkpt lat="54.2457980000" lon="-2.2605670000"><ele>565</ele><time>2013-11-17T12:25:53Z</time></trkpt>
<trkpt lat="54.2457910000" lon="-2.2605240000"><ele>565</ele><time>2013-11-17T12:25:55Z</time></trkpt>
<trkpt lat="54.2457920000" lon="-2.2604640000"><ele>565</ele><time>2013-11-17T12:25:58Z</time></trkpt>
<trkpt lat="54.2457900000" lon="-2.2604210000"><ele>565</ele><time>2013-11-17T12:26:00Z</time></trkpt>
<trkpt lat="54.2457870000" lon="-2.2603750000"><ele>565</ele><time>2013-11-17T12:26:02Z</time></trkpt>
<trkpt lat="54.2457880000" lon="-2.2603180000"><ele>565</ele><time>2013-11-17T12:26:05Z</time></trkpt>
<trkpt lat="54.2457860000" lon="-2.2602570000"><ele>565</ele><time>2013-11-17T12:26:08Z</time></trkpt>
<trkpt lat="54.2457830000" lon="-2.2601980000"><ele>565</ele><time>2013-11-17T12:26:11Z</time></trkpt>
<trkpt lat="54.2457770000" lon="-2.2601510000"><ele>565</ele><time>2013-11-17T12:26:13Z</time></trkpt>
<trkpt lat="54.2457660000" lon="-2.2600990000"><ele>565</ele><time>2013-11-17T12:26:15Z</time></trkpt>
<trkpt lat="54.2457570000" lon="-2.2600530000"><ele>565</ele><time>2013-11-17T12:26:17Z</time></trkpt>
<trkpt lat="54.2457510000" lon="-2.2600110000"><ele>565</ele><time>2013-11-17T12:26:19Z</time></trkpt>
<trkpt lat="54.2457440000" lon="-2.2599730000"><ele>565</ele><time>2013-11-17T12:26:21Z</time></trkpt>
<trkpt lat="54.2457340000" lon="-2.2599230000"><ele>565</ele><time>2013-11-17T12:26:23Z</time></trkpt>
<trkpt lat="54.2457320000" lon="-2.2599030000"><ele>565</ele><time>2013-11-17T12:26:24Z</time></trkpt>
<trkpt lat="54.2457300000" lon="-2.2598820000"><ele>565</ele><time>2013-11-17T12:26:25Z</time></trkpt>
<trkpt lat="54.2457280000" lon="-2.2598610000"><ele>565</ele><time>2013-11-17T12:26:26Z</time></trkpt>
<trkpt lat="54.2457250000" lon="-2.2598400000"><ele>565</ele><time>2013-11-17T12:26:27Z</time></trkpt>
<trkpt lat="54.2457210000" lon="-2.2598190000"><ele>565</ele><time>2013-11-17T12:26:28Z</time></trkpt>
<trkpt lat="54.2457180000" lon="-2.2597960000"><ele>565</ele><time>2013-11-17T12:26:29Z</time></trkpt>
<trkpt lat="54.2457140000" lon="-2.2597750000"><ele>565</ele><time>2013-11-17T12:26:30Z</time></trkpt>
<trkpt lat="54.2457110000" lon="-2.2597560000"><ele>565</ele><time>2013-11-17T12:26:31Z</time></trkpt>
<trkpt lat="54.2457090000" lon="-2.2597360000"><ele>565</ele><time>2013-11-17T12:26:32Z</time></trkpt>
<trkpt lat="54.2457070000" lon="-2.2597140000"><ele>565</ele><time>2013-11-17T12:26:33Z</time></trkpt>
<trkpt lat="54.2457040000" lon="-2.2596910000"><ele>565</ele><time>2013-11-17T12:26:34Z</time></trkpt>
<trkpt lat="54.2457010000" lon="-2.2596690000"><ele>565</ele><time>2013-11-17T12:26:35Z</time></trkpt>
<trkpt lat="54.2456970000" lon="-2.2596460000"><ele>565</ele><time>2013-11-17T12:26:36Z</time></trkpt>
<trkpt lat="54.2456930000" lon="-2.2596230000"><ele>565</ele><time>2013-11-17T12:26:37Z</time></trkpt>
<trkpt lat="54.2456890000" lon="-2.2596030000"><ele>565</ele><time>2013-11-17T12:26:38Z</time></trkpt>
<trkpt lat="54.2456870000" lon="-2.2595840000"><ele>565</ele><time>2013-11-17T12:26:39Z</time></trkpt>
<trkpt lat="54.2456830000" lon="-2.2595610000"><ele>565</ele><time>2013-11-17T12:26:40Z</time></trkpt>
<trkpt lat="54.2456790000" lon="-2.2595430000"><ele>565</ele><time>2013-11-17T12:26:41Z</time></trkpt>
<trkpt lat="54.2456760000" lon="-2.2595270000"><ele>565</ele><time>2013-11-17T12:26:42Z</time></trkpt>
<trkpt lat="54.2456730000" lon="-2.2595130000"><ele>565</ele><time>2013-11-17T12:26:43Z</time></trkpt>
<trkpt lat="54.2456710000" lon="-2.2595070000"><ele>565</ele><time>2013-11-17T12:26:44Z</time></trkpt>
<trkpt lat="54.2456710000" lon="-2.2595020000"><ele>565</ele><time>2013-11-17T12:26:45Z</time></trkpt>
<trkpt lat="54.2456730000" lon="-2.2594970000"><ele>565</ele><time>2013-11-17T12:26:46Z</time></trkpt>
<trkpt lat="54.2456770000" lon="-2.2594950000"><ele>565</ele><time>2013-11-17T12:26:47Z</time></trkpt>
<trkpt lat="54.2456790000" lon="-2.2594940000"><ele>565</ele><time>2013-11-17T12:26:48Z</time></trkpt>
<trkpt lat="54.2456780000" lon="-2.2594900000"><ele>565</ele><time>2013-11-17T12:26:49Z</time></trkpt>
<trkpt lat="54.2456770000" lon="-2.2594830000"><ele>565</ele><time>2013-11-17T12:26:50Z</time></trkpt>
<trkpt lat="54.2456770000" lon="-2.2594750000"><ele>565</ele><time>2013-11-17T12:26:51Z</time></trkpt>
<trkpt lat="54.2456770000" lon="-2.2594720000"><ele>565</ele><time>2013-11-17T12:26:52Z</time></trkpt>
<trkpt lat="54.2456780000" lon="-2.2594740000"><ele>565</ele><time>2013-11-17T12:26:53Z</time></trkpt>
<trkpt lat="54.2456790000" lon="-2.2594750000"><ele>565</ele><time>2013-11-17T12:26:54Z</time></trkpt>
<trkpt lat="54.2456790000" lon="-2.2594790000"><ele>565</ele><time>2013-11-17T12:26:55Z</time></trkpt>
<trkpt lat="54.2456800000" lon="-2.2594850000"><ele>565</ele><time>2013-11-17T12:26:56Z</time></trkpt>
<trkpt lat="54.2456820000" lon="-2.2594890000"><ele>565</ele><time>2013-11-17T12:26:57Z</time></trkpt>
<trkpt lat="54.2456850000" lon="-2.2594910000"><ele>565</ele><time>2013-11-17T12:26:58Z</time></trkpt>
<trkpt lat="54.2456900000" lon="-2.2594830000"><ele>565</ele><time>2013-11-17T12:26:59Z</time></trkpt>
<trkpt lat="54.2456910000" lon="-2.2594690000"><ele>565</ele><time>2013-11-17T12:27:00Z</time></trkpt>
<trkpt lat="54.2456890000" lon="-2.2594530000"><ele>565</ele><time>2013-11-17T12:27:01Z</time></trkpt>
<trkpt lat="54.2456850000" lon="-2.2594380000"><ele>565</ele><time>2013-11-17T12:27:02Z</time></trkpt>
<trkpt lat="54.2456810000" lon="-2.2594230000"><ele>565</ele><time>2013-11-17T12:27:03Z</time></trkpt>
<trkpt lat="54.2456770000" lon="-2.2594080000"><ele>565</ele><time>2013-11-17T12:27:04Z</time></trkpt>
<trkpt lat="54.2456730000" lon="-2.2593880000"><ele>565</ele><time>2013-11-17T12:27:05Z</time></trkpt>
<trkpt lat="54.2456690000" lon="-2.2593670000"><ele>565</ele><time>2013-11-17T12:27:06Z</time></trkpt>
<trkpt lat="54.2456640000" lon="-2.2593460000"><ele>565</ele><time>2013-11-17T12:27:07Z</time></trkpt>
<trkpt lat="54.2456600000" lon="-2.2593290000"><ele>565</ele><time>2013-11-17T12:27:08Z</time></trkpt>
<trkpt lat="54.2456550000" lon="-2.2593120000"><ele>570</ele><time>2013-11-17T12:27:09Z</time></trkpt>
<trkpt lat="54.2456500000" lon="-2.2592940000"><ele>570</ele><time>2013-11-17T12:27:10Z</time></trkpt>
<trkpt lat="54.2456460000" lon="-2.2592740000"><ele>570</ele><time>2013-11-17T12:27:11Z</time></trkpt>
<trkpt lat="54.2456420000" lon="-2.2592560000"><ele>570</ele><time>2013-11-17T12:27:12Z</time></trkpt>
<trkpt lat="54.2456380000" lon="-2.2592390000"><ele>570</ele><time>2013-11-17T12:27:13Z</time></trkpt>
<trkpt lat="54.2456340000" lon="-2.2592240000"><ele>570</ele><time>2013-11-17T12:27:14Z</time></trkpt>
<trkpt lat="54.2456310000" lon="-2.2592090000"><ele>570</ele><time>2013-11-17T12:27:15Z</time></trkpt>
<trkpt lat="54.2456260000" lon="-2.2591900000"><ele>570</ele><time>2013-11-17T12:27:16Z</time></trkpt>
<trkpt lat="54.2456200000" lon="-2.2591680000"><ele>570</ele><time>2013-11-17T12:27:17Z</time></trkpt>
<trkpt lat="54.2456150000" lon="-2.2591470000"><ele>570</ele><time>2013-11-17T12:27:18Z</time></trkpt>
<trkpt lat="54.2456110000" lon="-2.2591270000"><ele>570</ele><time>2013-11-17T12:27:19Z</time></trkpt>
<trkpt lat="54.2456080000" lon="-2.2591050000"><ele>570</ele><time>2013-11-17T12:27:20Z</time></trkpt>
<trkpt lat="54.2456080000" lon="-2.2590860000"><ele>570</ele><time>2013-11-17T12:27:21Z</time></trkpt>
<trkpt lat="54.2456060000" lon="-2.2590660000"><ele>570</ele><time>2013-11-17T12:27:22Z</time></trkpt>
<trkpt lat="54.2456030000" lon="-2.2590450000"><ele>570</ele><time>2013-11-17T12:27:23Z</time></trkpt>
<trkpt lat="54.2455990000" lon="-2.2590270000"><ele>570</ele><time>2013-11-17T12:27:24Z</time></trkpt>
<trkpt lat="54.2455960000" lon="-2.2590100000"><ele>570</ele><time>2013-11-17T12:27:25Z</time></trkpt>
<trkpt lat="54.2455920000" lon="-2.2589920000"><ele>570</ele><time>2013-11-17T12:27:26Z</time></trkpt>
<trkpt lat="54.2455870000" lon="-2.2589740000"><ele>570</ele><time>2013-11-17T12:27:27Z</time></trkpt>
<trkpt lat="54.2455830000" lon="-2.2589540000"><ele>570</ele><time>2013-11-17T12:27:28Z</time></trkpt>
<trkpt lat="54.2455780000" lon="-2.2589320000"><ele>570</ele><time>2013-11-17T12:27:29Z</time></trkpt>
<trkpt lat="54.2455740000" lon="-2.2589120000"><ele>570</ele><time>2013-11-17T12:27:30Z</time></trkpt>
<trkpt lat="54.2455700000" lon="-2.2588920000"><ele>570</ele><time>2013-11-17T12:27:31Z</time></trkpt>
<trkpt lat="54.2455660000" lon="-2.2588700000"><ele>570</ele><time>2013-11-17T12:27:32Z</time></trkpt>
<trkpt lat="54.2455630000" lon="-2.2588500000"><ele>570</ele><time>2013-11-17T12:27:33Z</time></trkpt>
<trkpt lat="54.2455590000" lon="-2.2588300000"><ele>570</ele><time>2013-11-17T12:27:34Z</time></trkpt>
<trkpt lat="54.2455550000" lon="-2.2588080000"><ele>570</ele><time>2013-11-17T12:27:35Z</time></trkpt>
<trkpt lat="54.2455500000" lon="-2.2587830000"><ele>570</ele><time>2013-11-17T12:27:36Z</time></trkpt>
<trkpt lat="54.2455460000" lon="-2.2587580000"><ele>570</ele><time>2013-11-17T12:27:37Z</time></trkpt>
<trkpt lat="54.2455430000" lon="-2.2587350000"><ele>570</ele><time>2013-11-17T12:27:38Z</time></trkpt>
<trkpt lat="54.2455400000" lon="-2.2587140000"><ele>570</ele><time>2013-11-17T12:27:39Z</time></trkpt>
<trkpt lat="54.2455370000" lon="-2.2586910000"><ele>570</ele><time>2013-11-17T12:27:40Z</time></trkpt>
<trkpt lat="54.2455330000" lon="-2.2586650000"><ele>570</ele><time>2013-11-17T12:27:41Z</time></trkpt>
<trkpt lat="54.2455290000" lon="-2.2586420000"><ele>570</ele><time>2013-11-17T12:27:42Z</time></trkpt>
<trkpt lat="54.2455260000" lon="-2.2586200000"><ele>570</ele><time>2013-11-17T12:27:43Z</time></trkpt>
<trkpt lat="54.2455230000" lon="-2.2585970000"><ele>570</ele><time>2013-11-17T12:27:44Z</time></trkpt>
<trkpt lat="54.2455200000" lon="-2.2585750000"><ele>570</ele><time>2013-11-17T12:27:45Z</time></trkpt>
<trkpt lat="54.2455150000" lon="-2.2585540000"><ele>570</ele><time>2013-11-17T12:27:46Z</time></trkpt>
<trkpt lat="54.2455110000" lon="-2.2585320000"><ele>570</ele><time>2013-11-17T12:27:47Z</time></trkpt>
<trkpt lat="54.2455060000" lon="-2.2585100000"><ele>570</ele><time>2013-11-17T12:27:48Z</time></trkpt>
<trkpt lat="54.2455020000" lon="-2.2584890000"><ele>570</ele><time>2013-11-17T12:27:49Z</time></trkpt>
<trkpt lat="54.2454990000" lon="-2.2584670000"><ele>570</ele><time>2013-11-17T12:27:50Z</time></trkpt>
<trkpt lat="54.2454960000" lon="-2.2584450000"><ele>570</ele><time>2013-11-17T12:27:51Z</time></trkpt>
<trkpt lat="54.2454920000" lon="-2.2584250000"><ele>570</ele><time>2013-11-17T12:27:52Z</time></trkpt>
<trkpt lat="54.2454880000" lon="-2.2584040000"><ele>570</ele><time>2013-11-17T12:27:53Z</time></trkpt>
<trkpt lat="54.2454840000" lon="-2.2583830000"><ele>570</ele><time>2013-11-17T12:27:54Z</time></trkpt>
<trkpt lat="54.2454800000" lon="-2.2583640000"><ele>570</ele><time>2013-11-17T12:27:55Z</time></trkpt>
<trkpt lat="54.2454760000" lon="-2.2583430000"><ele>570</ele><time>2013-11-17T12:27:56Z</time></trkpt>
<trkpt lat="54.2454720000" lon="-2.2583220000"><ele>570</ele><time>2013-11-17T12:27:57Z</time></trkpt>
<trkpt lat="54.2454690000" lon="-2.2583020000"><ele>570</ele><time>2013-11-17T12:27:58Z</time></trkpt>
<trkpt lat="54.2454660000" lon="-2.2582810000"><ele>570</ele><time>2013-11-17T12:27:59Z</time></trkpt>
<trkpt lat="54.2454650000" lon="-2.2582590000"><ele>570</ele><time>2013-11-17T12:28:00Z</time></trkpt>
<trkpt lat="54.2454630000" lon="-2.2582360000"><ele>570</ele><time>2013-11-17T12:28:01Z</time></trkpt>
<trkpt lat="54.2454600000" lon="-2.2582130000"><ele>570</ele><time>2013-11-17T12:28:02Z</time></trkpt>
<trkpt lat="54.2454570000" lon="-2.2581930000"><ele>570</ele><time>2013-11-17T12:28:03Z</time></trkpt>
<trkpt lat="54.2454550000" lon="-2.2581730000"><ele>570</ele><time>2013-11-17T12:28:04Z</time></trkpt>
<trkpt lat="54.2454520000" lon="-2.2581500000"><ele>570</ele><time>2013-11-17T12:28:05Z</time></trkpt>
<trkpt lat="54.2454490000" lon="-2.2581270000"><ele>570</ele><time>2013-11-17T12:28:06Z</time></trkpt>
<trkpt lat="54.2454460000" lon="-2.2581030000"><ele>570</ele><time>2013-11-17T12:28:07Z</time></trkpt>
<trkpt lat="54.2454430000" lon="-2.2580800000"><ele>570</ele><time>2013-11-17T12:28:08Z</time></trkpt>
<trkpt lat="54.2454390000" lon="-2.2580580000"><ele>570</ele><time>2013-11-17T12:28:09Z</time></trkpt>
<trkpt lat="54.2454350000" lon="-2.2580360000"><ele>570</ele><time>2013-11-17T12:28:10Z</time></trkpt>
<trkpt lat="54.2454320000" lon="-2.2580130000"><ele>570</ele><time>2013-11-17T12:28:11Z</time></trkpt>
<trkpt lat="54.2454280000" lon="-2.2579900000"><ele>570</ele><time>2013-11-17T12:28:12Z</time></trkpt>
<trkpt lat="54.2454230000" lon="-2.2579670000"><ele>570</ele><time>2013-11-17T12:28:13Z</time></trkpt>
<trkpt lat="54.2454180000" lon="-2.2579450000"><ele>570</ele><time>2013-11-17T12:28:14Z</time></trkpt>
<trkpt lat="54.2454130000" lon="-2.2579200000"><ele>570</ele><time>2013-11-17T12:28:15Z</time></trkpt>
<trkpt lat="54.2454080000" lon="-2.2578970000"><ele>570</ele><time>2013-11-17T12:28:16Z</time></trkpt>
<trkpt lat="54.2454040000" lon="-2.2578750000"><ele>570</ele><time>2013-11-17T12:28:17Z</time></trkpt>
<trkpt lat="54.2454010000" lon="-2.2578520000"><ele>570</ele><time>2013-11-17T12:28:18Z</time></trkpt>
<trkpt lat="54.2453990000" lon="-2.2578300000"><ele>570</ele><time>2013-11-17T12:28:19Z</time></trkpt>
<trkpt lat="54.2453960000" lon="-2.2578080000"><ele>570</ele><time>2013-11-17T12:28:20Z</time></trkpt>
<trkpt lat="54.2453950000" lon="-2.2577890000"><ele>570</ele><time>2013-11-17T12:28:21Z</time></trkpt>
<trkpt lat="54.2453930000" lon="-2.2577700000"><ele>570</ele><time>2013-11-17T12:28:22Z</time></trkpt>
<trkpt lat="54.2453910000" lon="-2.2577490000"><ele>570</ele><time>2013-11-17T12:28:23Z</time></trkpt>
<trkpt lat="54.2453860000" lon="-2.2577260000"><ele>570</ele><time>2013-11-17T12:28:24Z</time></trkpt>
<trkpt lat="54.2453820000" lon="-2.2577030000"><ele>570</ele><time>2013-11-17T12:28:25Z</time></trkpt>
<trkpt lat="54.2453770000" lon="-2.2576800000"><ele>570</ele><time>2013-11-17T12:28:26Z</time></trkpt>
<trkpt lat="54.2453740000" lon="-2.2576560000"><ele>570</ele><time>2013-11-17T12:28:27Z</time></trkpt>
<trkpt lat="54.2453710000" lon="-2.2576360000"><ele>570</ele><time>2013-11-17T12:28:28Z</time></trkpt>
<trkpt lat="54.2453700000" lon="-2.2576180000"><ele>570</ele><time>2013-11-17T12:28:29Z</time></trkpt>
<trkpt lat="54.2453690000" lon="-2.2575980000"><ele>570</ele><time>2013-11-17T12:28:30Z</time></trkpt>
<trkpt lat="54.2453660000" lon="-2.2575790000"><ele>570</ele><time>2013-11-17T12:28:31Z</time></trkpt>
<trkpt lat="54.2453620000" lon="-2.2575600000"><ele>570</ele><time>2013-11-17T12:28:32Z</time></trkpt>
<trkpt lat="54.2453580000" lon="-2.2575410000"><ele>570</ele><time>2013-11-17T12:28:33Z</time></trkpt>
<trkpt lat="54.2453550000" lon="-2.2575200000"><ele>570</ele><time>2013-11-17T12:28:34Z</time></trkpt>
<trkpt lat="54.2453530000" lon="-2.2574990000"><ele>570</ele><time>2013-11-17T12:28:35Z</time></trkpt>
<trkpt lat="54.2453510000" lon="-2.2574760000"><ele>570</ele><time>2013-11-17T12:28:36Z</time></trkpt>
<trkpt lat="54.2453490000" lon="-2.2574540000"><ele>570</ele><time>2013-11-17T12:28:37Z</time></trkpt>
<trkpt lat="54.2453470000" lon="-2.2574320000"><ele>570</ele><time>2013-11-17T12:28:38Z</time></trkpt>
<trkpt lat="54.2453440000" lon="-2.2574110000"><ele>570</ele><time>2013-11-17T12:28:39Z</time></trkpt>
<trkpt lat="54.2453430000" lon="-2.2573900000"><ele>570</ele><time>2013-11-17T12:28:40Z</time></trkpt>
<trkpt lat="54.2453420000" lon="-2.2573660000"><ele>570</ele><time>2013-11-17T12:28:41Z</time></trkpt>
<trkpt lat="54.2453410000" lon="-2.2573430000"><ele>570</ele><time>2013-11-17T12:28:42Z</time></trkpt>
<trkpt lat="54.2453400000" lon="-2.2573180000"><ele>570</ele><time>2013-11-17T12:28:43Z</time></trkpt>
<trkpt lat="54.2453380000" lon="-2.2572950000"><ele>570</ele><time>2013-11-17T12:28:44Z</time></trkpt>
<trkpt lat="54.2453370000" lon="-2.2572730000"><ele>570</ele><time>2013-11-17T12:28:45Z</time></trkpt>
<trkpt lat="54.2453370000" lon="-2.2572500000"><ele>570</ele><time>2013-11-17T12:28:46Z</time></trkpt>
<trkpt lat="54.2453360000" lon="-2.2572260000"><ele>570</ele><time>2013-11-17T12:28:47Z</time></trkpt>
<trkpt lat="54.2453340000" lon="-2.2572030000"><ele>570</ele><time>2013-11-17T12:28:48Z</time></trkpt>
<trkpt lat="54.2453330000" lon="-2.2571790000"><ele>570</ele><time>2013-11-17T12:28:49Z</time></trkpt>
<trkpt lat="54.2453310000" lon="-2.2571550000"><ele>570</ele><time>2013-11-17T12:28:50Z</time></trkpt>
<trkpt lat="54.2453290000" lon="-2.2571310000"><ele>570</ele><time>2013-11-17T12:28:51Z</time></trkpt>
<trkpt lat="54.2453260000" lon="-2.2571080000"><ele>570</ele><time>2013-11-17T12:28:52Z</time></trkpt>
<trkpt lat="54.2453240000" lon="-2.2570840000"><ele>570</ele><time>2013-11-17T12:28:53Z</time></trkpt>
<trkpt lat="54.2453210000" lon="-2.2570590000"><ele>570</ele><time>2013-11-17T12:28:54Z</time></trkpt>
<trkpt lat="54.2453180000" lon="-2.2570360000"><ele>570</ele><time>2013-11-17T12:28:55Z</time></trkpt>
<trkpt lat="54.2453150000" lon="-2.2570130000"><ele>570</ele><time>2013-11-17T12:28:56Z</time></trkpt>
<trkpt lat="54.2453110000" lon="-2.2569890000"><ele>570</ele><time>2013-11-17T12:28:57Z</time></trkpt>
<trkpt lat="54.2453090000" lon="-2.2569670000"><ele>570</ele><time>2013-11-17T12:28:58Z</time></trkpt>
<trkpt lat="54.2453070000" lon="-2.2569450000"><ele>570</ele><time>2013-11-17T12:28:59Z</time></trkpt>
<trkpt lat="54.2453050000" lon="-2.2569230000"><ele>570</ele><time>2013-11-17T12:29:00Z</time></trkpt>
<trkpt lat="54.2453030000" lon="-2.2569030000"><ele>570</ele><time>2013-11-17T12:29:01Z</time></trkpt>
<trkpt lat="54.2452990000" lon="-2.2568860000"><ele>570</ele><time>2013-11-17T12:29:02Z</time></trkpt>
<trkpt lat="54.2452950000" lon="-2.2568700000"><ele>570</ele><time>2013-11-17T12:29:03Z</time></trkpt>
<trkpt lat="54.2452900000" lon="-2.2568490000"><ele>570</ele><time>2013-11-17T12:29:04Z</time></trkpt>
<trkpt lat="54.2452850000" lon="-2.2568270000"><ele>570</ele><time>2013-11-17T12:29:05Z</time></trkpt>
<trkpt lat="54.2452810000" lon="-2.2568040000"><ele>570</ele><time>2013-11-17T12:29:06Z</time></trkpt>
<trkpt lat="54.2452770000" lon="-2.2567800000"><ele>570</ele><time>2013-11-17T12:29:07Z</time></trkpt>
<trkpt lat="54.2452730000" lon="-2.2567590000"><ele>570</ele><time>2013-11-17T12:29:08Z</time></trkpt>
<trkpt lat="54.2452700000" lon="-2.2567390000"><ele>570</ele><time>2013-11-17T12:29:09Z</time></trkpt>
<trkpt lat="54.2452660000" lon="-2.2567170000"><ele>570</ele><time>2013-11-17T12:29:10Z</time></trkpt>
<trkpt lat="54.2452630000" lon="-2.2566940000"><ele>570</ele><time>2013-11-17T12:29:11Z</time></trkpt>
<trkpt lat="54.2452580000" lon="-2.2566720000"><ele>570</ele><time>2013-11-17T12:29:12Z</time></trkpt>
<trkpt lat="54.2452550000" lon="-2.2566500000"><ele>570</ele><time>2013-11-17T12:29:13Z</time></trkpt>
<trkpt lat="54.2452510000" lon="-2.2566270000"><ele>570</ele><time>2013-11-17T12:29:14Z</time></trkpt>
<trkpt lat="54.2452480000" lon="-2.2566040000"><ele>570</ele><time>2013-11-17T12:29:15Z</time></trkpt>
<trkpt lat="54.2452440000" lon="-2.2565810000"><ele>570</ele><time>2013-11-17T12:29:16Z</time></trkpt>
<trkpt lat="54.2452380000" lon="-2.2565580000"><ele>570</ele><time>2013-11-17T12:29:17Z</time></trkpt>
<trkpt lat="54.2452340000" lon="-2.2565350000"><ele>570</ele><time>2013-11-17T12:29:18Z</time></trkpt>
<trkpt lat="54.2452300000" lon="-2.2565120000"><ele>570</ele><time>2013-11-17T12:29:19Z</time></trkpt>
<trkpt lat="54.2452280000" lon="-2.2564910000"><ele>570</ele><time>2013-11-17T12:29:20Z</time></trkpt>
<trkpt lat="54.2452250000" lon="-2.2564680000"><ele>570</ele><time>2013-11-17T12:29:21Z</time></trkpt>
<trkpt lat="54.2452240000" lon="-2.2564490000"><ele>570</ele><time>2013-11-17T12:29:22Z</time></trkpt>
<trkpt lat="54.2452220000" lon="-2.2564280000"><ele>570</ele><time>2013-11-17T12:29:23Z</time></trkpt>
<trkpt lat="54.2452190000" lon="-2.2564100000"><ele>570</ele><time>2013-11-17T12:29:24Z</time></trkpt>
<trkpt lat="54.2452160000" lon="-2.2563880000"><ele>570</ele><time>2013-11-17T12:29:25Z</time></trkpt>
<trkpt lat="54.2452130000" lon="-2.2563660000"><ele>570</ele><time>2013-11-17T12:29:26Z</time></trkpt>
<trkpt lat="54.2452100000" lon="-2.2563440000"><ele>570</ele><time>2013-11-17T12:29:27Z</time></trkpt>
<trkpt lat="54.2452080000" lon="-2.2563230000"><ele>570</ele><time>2013-11-17T12:29:28Z</time></trkpt>
<trkpt lat="54.2452060000" lon="-2.2563020000"><ele>570</ele><time>2013-11-17T12:29:29Z</time></trkpt>
<trkpt lat="54.2452040000" lon="-2.2562790000"><ele>570</ele><time>2013-11-17T12:29:30Z</time></trkpt>
<trkpt lat="54.2452000000" lon="-2.2562560000"><ele>570</ele><time>2013-11-17T12:29:31Z</time></trkpt>
<trkpt lat="54.2451980000" lon="-2.2562340000"><ele>578</ele><time>2013-11-17T12:29:32Z</time></trkpt>
<trkpt lat="54.2451950000" lon="-2.2562140000"><ele>578</ele><time>2013-11-17T12:29:33Z</time></trkpt>
<trkpt lat="54.2451920000" lon="-2.2561910000"><ele>578</ele><time>2013-11-17T12:29:34Z</time></trkpt>
<trkpt lat="54.2451890000" lon="-2.2561690000"><ele>578</ele><time>2013-11-17T12:29:35Z</time></trkpt>
<trkpt lat="54.2451850000" lon="-2.2561470000"><ele>578</ele><time>2013-11-17T12:29:36Z</time></trkpt>
<trkpt lat="54.2451820000" lon="-2.2561250000"><ele>578</ele><time>2013-11-17T12:29:37Z</time></trkpt>
<trkpt lat="54.2451770000" lon="-2.2561030000"><ele>578</ele><time>2013-11-17T12:29:38Z</time></trkpt>
<trkpt lat="54.2451740000" lon="-2.2560820000"><ele>578</ele><time>2013-11-17T12:29:39Z</time></trkpt>
<trkpt lat="54.2451720000" lon="-2.2560620000"><ele>578</ele><time>2013-11-17T12:29:40Z</time></trkpt>
<trkpt lat="54.2451720000" lon="-2.2560420000"><ele>578</ele><time>2013-11-17T12:29:41Z</time></trkpt>
<trkpt lat="54.2451710000" lon="-2.2560200000"><ele>578</ele><time>2013-11-17T12:29:42Z</time></trkpt>
<trkpt lat="54.2451690000" lon="-2.2559960000"><ele>578</ele><time>2013-11-17T12:29:43Z</time></trkpt>
<trkpt lat="54.2451670000" lon="-2.2559720000"><ele>578</ele><time>2013-11-17T12:29:44Z</time></trkpt>
<trkpt lat="54.2451640000" lon="-2.2559480000"><ele>578</ele><time>2013-11-17T12:29:45Z</time></trkpt>
<trkpt lat="54.2451600000" lon="-2.2559240000"><ele>578</ele><time>2013-11-17T12:29:46Z</time></trkpt>
<trkpt lat="54.2451570000" lon="-2.2558990000"><ele>578</ele><time>2013-11-17T12:29:47Z</time></trkpt>
<trkpt lat="54.2451540000" lon="-2.2558750000"><ele>578</ele><time>2013-11-17T12:29:48Z</time></trkpt>
<trkpt lat="54.2451520000" lon="-2.2558530000"><ele>578</ele><time>2013-11-17T12:29:49Z</time></trkpt>
<trkpt lat="54.2451500000" lon="-2.2558300000"><ele>578</ele><time>2013-11-17T12:29:50Z</time></trkpt>
<trkpt lat="54.2451470000" lon="-2.2558090000"><ele>578</ele><time>2013-11-17T12:29:51Z</time></trkpt>
<trkpt lat="54.2451450000" lon="-2.2557870000"><ele>578</ele><time>2013-11-17T12:29:52Z</time></trkpt>
<trkpt lat="54.2451410000" lon="-2.2557660000"><ele>578</ele><time>2013-11-17T12:29:53Z</time></trkpt>
<trkpt lat="54.2451370000" lon="-2.2557440000"><ele>578</ele><time>2013-11-17T12:29:54Z</time></trkpt>
<trkpt lat="54.2451340000" lon="-2.2557240000"><ele>578</ele><time>2013-11-17T12:29:55Z</time></trkpt>
<trkpt lat="54.2451320000" lon="-2.2557020000"><ele>578</ele><time>2013-11-17T12:29:56Z</time></trkpt>
<trkpt lat="54.2451290000" lon="-2.2556790000"><ele>578</ele><time>2013-11-17T12:29:57Z</time></trkpt>
<trkpt lat="54.2451250000" lon="-2.2556570000"><ele>578</ele><time>2013-11-17T12:29:58Z</time></trkpt>
<trkpt lat="54.2451220000" lon="-2.2556370000"><ele>578</ele><time>2013-11-17T12:29:59Z</time></trkpt>
<trkpt lat="54.2451190000" lon="-2.2556180000"><ele>578</ele><time>2013-11-17T12:30:00Z</time></trkpt>
<trkpt lat="54.2451170000" lon="-2.2555960000"><ele>578</ele><time>2013-11-17T12:30:01Z</time></trkpt>
<trkpt lat="54.2451130000" lon="-2.2555740000"><ele>578</ele><time>2013-11-17T12:30:02Z</time></trkpt>
<trkpt lat="54.2451100000" lon="-2.2555510000"><ele>578</ele><time>2013-11-17T12:30:03Z</time></trkpt>
<trkpt lat="54.2451060000" lon="-2.2555310000"><ele>578</ele><time>2013-11-17T12:30:04Z</time></trkpt>
<trkpt lat="54.2451010000" lon="-2.2555130000"><ele>578</ele><time>2013-11-17T12:30:05Z</time></trkpt>
<trkpt lat="54.2450960000" lon="-2.2554960000"><ele>578</ele><time>2013-11-17T12:30:06Z</time></trkpt>
<trkpt lat="54.2450940000" lon="-2.2554790000"><ele>578</ele><time>2013-11-17T12:30:07Z</time></trkpt>
<trkpt lat="54.2450920000" lon="-2.2554600000"><ele>578</ele><time>2013-11-17T12:30:08Z</time></trkpt>
<trkpt lat="54.2450900000" lon="-2.2554390000"><ele>578</ele><time>2013-11-17T12:30:09Z</time></trkpt>
<trkpt lat="54.2450860000" lon="-2.2554180000"><ele>578</ele><time>2013-11-17T12:30:10Z</time></trkpt>
<trkpt lat="54.2450830000" lon="-2.2553980000"><ele>578</ele><time>2013-11-17T12:30:11Z</time></trkpt>
<trkpt lat="54.2450810000" lon="-2.2553770000"><ele>578</ele><time>2013-11-17T12:30:12Z</time></trkpt>
<trkpt lat="54.2450780000" lon="-2.2553540000"><ele>578</ele><time>2013-11-17T12:30:13Z</time></trkpt>
<trkpt lat="54.2450770000" lon="-2.2553290000"><ele>578</ele><time>2013-11-17T12:30:14Z</time></trkpt>
<trkpt lat="54.2450740000" lon="-2.2553040000"><ele>578</ele><time>2013-11-17T12:30:15Z</time></trkpt>
<trkpt lat="54.2450710000" lon="-2.2552810000"><ele>578</ele><time>2013-11-17T12:30:16Z</time></trkpt>
<trkpt lat="54.2450670000" lon="-2.2552570000"><ele>578</ele><time>2013-11-17T12:30:17Z</time></trkpt>
<trkpt lat="54.2450640000" lon="-2.2552300000"><ele>578</ele><time>2013-11-17T12:30:18Z</time></trkpt>
<trkpt lat="54.2450610000" lon="-2.2552050000"><ele>578</ele><time>2013-11-17T12:30:19Z</time></trkpt>
<trkpt lat="54.2450570000" lon="-2.2551800000"><ele>578</ele><time>2013-11-17T12:30:20Z</time></trkpt>
<trkpt lat="54.2450540000" lon="-2.2551560000"><ele>578</ele><time>2013-11-17T12:30:21Z</time></trkpt>
<trkpt lat="54.2450500000" lon="-2.2551350000"><ele>578</ele><time>2013-11-17T12:30:22Z</time></trkpt>
<trkpt lat="54.2450470000" lon="-2.2551150000"><ele>578</ele><time>2013-11-17T12:30:23Z</time></trkpt>
<trkpt lat="54.2450410000" lon="-2.2550920000"><ele>578</ele><time>2013-11-17T12:30:24Z</time></trkpt>
<trkpt lat="54.2450340000" lon="-2.2550670000"><ele>578</ele><time>2013-11-17T12:30:25Z</time></trkpt>
<trkpt lat="54.2450300000" lon="-2.2550460000"><ele>578</ele><time>2013-11-17T12:30:26Z</time></trkpt>
<trkpt lat="54.2450260000" lon="-2.2550240000"><ele>578</ele><time>2013-11-17T12:30:27Z</time></trkpt>
<trkpt lat="54.2450240000" lon="-2.2550020000"><ele>578</ele><time>2013-11-17T12:30:28Z</time></trkpt>
<trkpt lat="54.2450230000" lon="-2.2549790000"><ele>578</ele><time>2013-11-17T12:30:29Z</time></trkpt>
<trkpt lat="54.2450220000" lon="-2.2549550000"><ele>578</ele><time>2013-11-17T12:30:30Z</time></trkpt>
<trkpt lat="54.2450190000" lon="-2.2549320000"><ele>578</ele><time>2013-11-17T12:30:31Z</time></trkpt>
<trkpt lat="54.2450140000" lon="-2.2549100000"><ele>578</ele><time>2013-11-17T12:30:32Z</time></trkpt>
<trkpt lat="54.2450110000" lon="-2.2548890000"><ele>578</ele><time>2013-11-17T12:30:33Z</time></trkpt>
<trkpt lat="54.2450060000" lon="-2.2548700000"><ele>578</ele><time>2013-11-17T12:30:34Z</time></trkpt>
<trkpt lat="54.2450030000" lon="-2.2548510000"><ele>578</ele><time>2013-11-17T12:30:35Z</time></trkpt>
<trkpt lat="54.2450010000" lon="-2.2548300000"><ele>578</ele><time>2013-11-17T12:30:36Z</time></trkpt>
<trkpt lat="54.2449990000" lon="-2.2548070000"><ele>578</ele><time>2013-11-17T12:30:37Z</time></trkpt>
<trkpt lat="54.2449970000" lon="-2.2547870000"><ele>578</ele><time>2013-11-17T12:30:38Z</time></trkpt>
<trkpt lat="54.2449930000" lon="-2.2547650000"><ele>578</ele><time>2013-11-17T12:30:39Z</time></trkpt>
<trkpt lat="54.2449890000" lon="-2.2547420000"><ele>578</ele><time>2013-11-17T12:30:40Z</time></trkpt>
<trkpt lat="54.2449850000" lon="-2.2547210000"><ele>578</ele><time>2013-11-17T12:30:41Z</time></trkpt>
<trkpt lat="54.2449820000" lon="-2.2547000000"><ele>578</ele><time>2013-11-17T12:30:42Z</time></trkpt>
<trkpt lat="54.2449820000" lon="-2.2546880000"><ele>578</ele><time>2013-11-17T12:30:43Z</time></trkpt>
<trkpt lat="54.2449720000" lon="-2.2546210000"><ele>578</ele><time>2013-11-17T12:30:46Z</time></trkpt>
<trkpt lat="54.2449640000" lon="-2.2545830000"><ele>578</ele><time>2013-11-17T12:30:48Z</time></trkpt>
<trkpt lat="54.2449580000" lon="-2.2545430000"><ele>578</ele><time>2013-11-17T12:30:50Z</time></trkpt>
<trkpt lat="54.2449480000" lon="-2.2544970000"><ele>578</ele><time>2013-11-17T12:30:52Z</time></trkpt>
<trkpt lat="54.2449400000" lon="-2.2544530000"><ele>578</ele><time>2013-11-17T12:30:54Z</time></trkpt>
<trkpt lat="54.2449330000" lon="-2.2544110000"><ele>578</ele><time>2013-11-17T12:30:56Z</time></trkpt>
<trkpt lat="54.2449310000" lon="-2.2543820000"><ele>578</ele><time>2013-11-17T12:30:57Z</time></trkpt>
<trkpt lat="54.2449280000" lon="-2.2543640000"><ele>578</ele><time>2013-11-17T12:30:58Z</time></trkpt>
<trkpt lat="54.2449260000" lon="-2.2543440000"><ele>578</ele><time>2013-11-17T12:30:59Z</time></trkpt>
<trkpt lat="54.2449230000" lon="-2.2543230000"><ele>578</ele><time>2013-11-17T12:31:00Z</time></trkpt>
<trkpt lat="54.2449200000" lon="-2.2543020000"><ele>578</ele><time>2013-11-17T12:31:01Z</time></trkpt>
<trkpt lat="54.2449170000" lon="-2.2542810000"><ele>578</ele><time>2013-11-17T12:31:02Z</time></trkpt>
<trkpt lat="54.2449130000" lon="-2.2542570000"><ele>578</ele><time>2013-11-17T12:31:03Z</time></trkpt>
<trkpt lat="54.2449110000" lon="-2.2542380000"><ele>578</ele><time>2013-11-17T12:31:04Z</time></trkpt>
<trkpt lat="54.2449100000" lon="-2.2542210000"><ele>578</ele><time>2013-11-17T12:31:05Z</time></trkpt>
<trkpt lat="54.2449070000" lon="-2.2542020000"><ele>578</ele><time>2013-11-17T12:31:06Z</time></trkpt>
<trkpt lat="54.2449030000" lon="-2.2541850000"><ele>578</ele><time>2013-11-17T12:31:07Z</time></trkpt>
<trkpt lat="54.2449000000" lon="-2.2541670000"><ele>578</ele><time>2013-11-17T12:31:08Z</time></trkpt>
<trkpt lat="54.2448980000" lon="-2.2541470000"><ele>578</ele><time>2013-11-17T12:31:09Z</time></trkpt>
<trkpt lat="54.2448940000" lon="-2.2541270000"><ele>578</ele><time>2013-11-17T12:31:10Z</time></trkpt>
<trkpt lat="54.2448910000" lon="-2.2541070000"><ele>578</ele><time>2013-11-17T12:31:11Z</time></trkpt>
<trkpt lat="54.2448870000" lon="-2.2540850000"><ele>578</ele><time>2013-11-17T12:31:12Z</time></trkpt>
<trkpt lat="54.2448830000" lon="-2.2540640000"><ele>578</ele><time>2013-11-17T12:31:13Z</time></trkpt>
<trkpt lat="54.2448790000" lon="-2.2540400000"><ele>578</ele><time>2013-11-17T12:31:14Z</time></trkpt>
<trkpt lat="54.2448750000" lon="-2.2540170000"><ele>578</ele><time>2013-11-17T12:31:15Z</time></trkpt>
<trkpt lat="54.2448720000" lon="-2.2539970000"><ele>578</ele><time>2013-11-17T12:31:16Z</time></trkpt>
<trkpt lat="54.2448680000" lon="-2.2539760000"><ele>578</ele><time>2013-11-17T12:31:17Z</time></trkpt>
<trkpt lat="54.2448650000" lon="-2.2539570000"><ele>578</ele><time>2013-11-17T12:31:18Z</time></trkpt>
<trkpt lat="54.2448620000" lon="-2.2539380000"><ele>578</ele><time>2013-11-17T12:31:19Z</time></trkpt>
<trkpt lat="54.2448590000" lon="-2.2539190000"><ele>578</ele><time>2013-11-17T12:31:20Z</time></trkpt>
<trkpt lat="54.2448540000" lon="-2.2539000000"><ele>578</ele><time>2013-11-17T12:31:21Z</time></trkpt>
<trkpt lat="54.2448500000" lon="-2.2538800000"><ele>578</ele><time>2013-11-17T12:31:22Z</time></trkpt>
<trkpt lat="54.2448460000" lon="-2.2538580000"><ele>578</ele><time>2013-11-17T12:31:23Z</time></trkpt>
<trkpt lat="54.2448420000" lon="-2.2538370000"><ele>578</ele><time>2013-11-17T12:31:24Z</time></trkpt>
<trkpt lat="54.2448380000" lon="-2.2538170000"><ele>578</ele><time>2013-11-17T12:31:25Z</time></trkpt>
<trkpt lat="54.2448340000" lon="-2.2537960000"><ele>578</ele><time>2013-11-17T12:31:26Z</time></trkpt>
<trkpt lat="54.2448300000" lon="-2.2537740000"><ele>578</ele><time>2013-11-17T12:31:27Z</time></trkpt>
<trkpt lat="54.2448250000" lon="-2.2537510000"><ele>578</ele><time>2013-11-17T12:31:28Z</time></trkpt>
<trkpt lat="54.2448200000" lon="-2.2537290000"><ele>578</ele><time>2013-11-17T12:31:29Z</time></trkpt>
<trkpt lat="54.2448160000" lon="-2.2537080000"><ele>578</ele><time>2013-11-17T12:31:30Z</time></trkpt>
<trkpt lat="54.2448120000" lon="-2.2536850000"><ele>578</ele><time>2013-11-17T12:31:31Z</time></trkpt>
<trkpt lat="54.2448070000" lon="-2.2536650000"><ele>578</ele><time>2013-11-17T12:31:32Z</time></trkpt>
<trkpt lat="54.2448030000" lon="-2.2536450000"><ele>578</ele><time>2013-11-17T12:31:33Z</time></trkpt>
<trkpt lat="54.2447970000" lon="-2.2536260000"><ele>578</ele><time>2013-11-17T12:31:34Z</time></trkpt>
<trkpt lat="54.2447910000" lon="-2.2536060000"><ele>578</ele><time>2013-11-17T12:31:35Z</time></trkpt>
<trkpt lat="54.2447850000" lon="-2.2535880000"><ele>578</ele><time>2013-11-17T12:31:36Z</time></trkpt>
<trkpt lat="54.2447790000" lon="-2.2535680000"><ele>578</ele><time>2013-11-17T12:31:37Z</time></trkpt>
<trkpt lat="54.2447730000" lon="-2.2535470000"><ele>578</ele><time>2013-11-17T12:31:38Z</time></trkpt>
<trkpt lat="54.2447670000" lon="-2.2535250000"><ele>578</ele><time>2013-11-17T12:31:39Z</time></trkpt>
<trkpt lat="54.2447600000" lon="-2.2535030000"><ele>578</ele><time>2013-11-17T12:31:40Z</time></trkpt>
<trkpt lat="54.2447550000" lon="-2.2534800000"><ele>578</ele><time>2013-11-17T12:31:41Z</time></trkpt>
<trkpt lat="54.2447510000" lon="-2.2534580000"><ele>578</ele><time>2013-11-17T12:31:42Z</time></trkpt>
<trkpt lat="54.2447480000" lon="-2.2534380000"><ele>578</ele><time>2013-11-17T12:31:43Z</time></trkpt>
<trkpt lat="54.2447440000" lon="-2.2534170000"><ele>578</ele><time>2013-11-17T12:31:44Z</time></trkpt>
<trkpt lat="54.2447400000" lon="-2.2533950000"><ele>578</ele><time>2013-11-17T12:31:45Z</time></trkpt>
<trkpt lat="54.2447360000" lon="-2.2533740000"><ele>578</ele><time>2013-11-17T12:31:46Z</time></trkpt>
<trkpt lat="54.2447310000" lon="-2.2533520000"><ele>578</ele><time>2013-11-17T12:31:47Z</time></trkpt>
<trkpt lat="54.2447250000" lon="-2.2533270000"><ele>578</ele><time>2013-11-17T12:31:48Z</time></trkpt>
<trkpt lat="54.2447200000" lon="-2.2533040000"><ele>578</ele><time>2013-11-17T12:31:49Z</time></trkpt>
<trkpt lat="54.2447160000" lon="-2.2532810000"><ele>578</ele><time>2013-11-17T12:31:50Z</time></trkpt>
<trkpt lat="54.2447140000" lon="-2.2532590000"><ele>578</ele><time>2013-11-17T12:31:51Z</time></trkpt>
<trkpt lat="54.2447110000" lon="-2.2532400000"><ele>578</ele><time>2013-11-17T12:31:52Z</time></trkpt>
<trkpt lat="54.2447070000" lon="-2.2532220000"><ele>578</ele><time>2013-11-17T12:31:53Z</time></trkpt>
<trkpt lat="54.2447030000" lon="-2.2532010000"><ele>578</ele><time>2013-11-17T12:31:54Z</time></trkpt>
<trkpt lat="54.2446990000" lon="-2.2531790000"><ele>578</ele><time>2013-11-17T12:31:55Z</time></trkpt>
<trkpt lat="54.2446950000" lon="-2.2531560000"><ele>582</ele><time>2013-11-17T12:31:56Z</time></trkpt>
<trkpt lat="54.2446910000" lon="-2.2531330000"><ele>582</ele><time>2013-11-17T12:31:57Z</time></trkpt>
<trkpt lat="54.2446860000" lon="-2.2531090000"><ele>582</ele><time>2013-11-17T12:31:58Z</time></trkpt>
<trkpt lat="54.2446820000" lon="-2.2530840000"><ele>582</ele><time>2013-11-17T12:31:59Z</time></trkpt>
<trkpt lat="54.2446780000" lon="-2.2530610000"><ele>582</ele><time>2013-11-17T12:32:00Z</time></trkpt>
<trkpt lat="54.2446730000" lon="-2.2530350000"><ele>582</ele><time>2013-11-17T12:32:01Z</time></trkpt>
<trkpt lat="54.2446680000" lon="-2.2530110000"><ele>582</ele><time>2013-11-17T12:32:02Z</time></trkpt>
<trkpt lat="54.2446630000" lon="-2.2529880000"><ele>582</ele><time>2013-11-17T12:32:03Z</time></trkpt>
<trkpt lat="54.2446590000" lon="-2.2529650000"><ele>582</ele><time>2013-11-17T12:32:04Z</time></trkpt>
<trkpt lat="54.2446540000" lon="-2.2529430000"><ele>582</ele><time>2013-11-17T12:32:05Z</time></trkpt>
<trkpt lat="54.2446500000" lon="-2.2529210000"><ele>582</ele><time>2013-11-17T12:32:06Z</time></trkpt>
<trkpt lat="54.2446470000" lon="-2.2528990000"><ele>582</ele><time>2013-11-17T12:32:07Z</time></trkpt>
<trkpt lat="54.2446440000" lon="-2.2528760000"><ele>582</ele><time>2013-11-17T12:32:08Z</time></trkpt>
<trkpt lat="54.2446400000" lon="-2.2528500000"><ele>582</ele><time>2013-11-17T12:32:09Z</time></trkpt>
<trkpt lat="54.2446360000" lon="-2.2528250000"><ele>582</ele><time>2013-11-17T12:32:10Z</time></trkpt>
<trkpt lat="54.2446330000" lon="-2.2528010000"><ele>582</ele><time>2013-11-17T12:32:11Z</time></trkpt>
<trkpt lat="54.2446300000" lon="-2.2527770000"><ele>582</ele><time>2013-11-17T12:32:12Z</time></trkpt>
<trkpt lat="54.2446280000" lon="-2.2527540000"><ele>582</ele><time>2013-11-17T12:32:13Z</time></trkpt>
<trkpt lat="54.2446270000" lon="-2.2527340000"><ele>582</ele><time>2013-11-17T12:32:14Z</time></trkpt>
<trkpt lat="54.2446270000" lon="-2.2527120000"><ele>582</ele><time>2013-11-17T12:32:15Z</time></trkpt>
<trkpt lat="54.2446250000" lon="-2.2526880000"><ele>582</ele><time>2013-11-17T12:32:16Z</time></trkpt>
<trkpt lat="54.2446240000" lon="-2.2526660000"><ele>582</ele><time>2013-11-17T12:32:17Z</time></trkpt>
<trkpt lat="54.2446240000" lon="-2.2526450000"><ele>582</ele><time>2013-11-17T12:32:18Z</time></trkpt>
<trkpt lat="54.2446230000" lon="-2.2526240000"><ele>582</ele><time>2013-11-17T12:32:19Z</time></trkpt>
<trkpt lat="54.2446230000" lon="-2.2526060000"><ele>582</ele><time>2013-11-17T12:32:20Z</time></trkpt>
<trkpt lat="54.2446230000" lon="-2.2525860000"><ele>582</ele><time>2013-11-17T12:32:21Z</time></trkpt>
<trkpt lat="54.2446230000" lon="-2.2525660000"><ele>582</ele><time>2013-11-17T12:32:22Z</time></trkpt>
<trkpt lat="54.2446230000" lon="-2.2525470000"><ele>582</ele><time>2013-11-17T12:32:23Z</time></trkpt>
<trkpt lat="54.2446230000" lon="-2.2525290000"><ele>582</ele><time>2013-11-17T12:32:24Z</time></trkpt>
<trkpt lat="54.2446230000" lon="-2.2525090000"><ele>582</ele><time>2013-11-17T12:32:25Z</time></trkpt>
<trkpt lat="54.2446220000" lon="-2.2524870000"><ele>582</ele><time>2013-11-17T12:32:26Z</time></trkpt>
<trkpt lat="54.2446200000" lon="-2.2524660000"><ele>582</ele><time>2013-11-17T12:32:27Z</time></trkpt>
<trkpt lat="54.2446190000" lon="-2.2524470000"><ele>582</ele><time>2013-11-17T12:32:28Z</time></trkpt>
<trkpt lat="54.2446190000" lon="-2.2524280000"><ele>582</ele><time>2013-11-17T12:32:29Z</time></trkpt>
<trkpt lat="54.2446210000" lon="-2.2524070000"><ele>582</ele><time>2013-11-17T12:32:30Z</time></trkpt>
<trkpt lat="54.2446210000" lon="-2.2523880000"><ele>582</ele><time>2013-11-17T12:32:31Z</time></trkpt>
<trkpt lat="54.2446240000" lon="-2.2523670000"><ele>582</ele><time>2013-11-17T12:32:32Z</time></trkpt>
<trkpt lat="54.2446260000" lon="-2.2523430000"><ele>582</ele><time>2013-11-17T12:32:33Z</time></trkpt>
<trkpt lat="54.2446260000" lon="-2.2523180000"><ele>582</ele><time>2013-11-17T12:32:34Z</time></trkpt>
<trkpt lat="54.2446250000" lon="-2.2522930000"><ele>582</ele><time>2013-11-17T12:32:35Z</time></trkpt>
<trkpt lat="54.2446250000" lon="-2.2522700000"><ele>582</ele><time>2013-11-17T12:32:36Z</time></trkpt>
<trkpt lat="54.2446260000" lon="-2.2522480000"><ele>582</ele><time>2013-11-17T12:32:37Z</time></trkpt>
<trkpt lat="54.2446270000" lon="-2.2522270000"><ele>582</ele><time>2013-11-17T12:32:38Z</time></trkpt>
<trkpt lat="54.2446280000" lon="-2.2522060000"><ele>582</ele><time>2013-11-17T12:32:39Z</time></trkpt>
<trkpt lat="54.2446280000" lon="-2.2521840000"><ele>582</ele><time>2013-11-17T12:32:40Z</time></trkpt>
<trkpt lat="54.2446260000" lon="-2.2521650000"><ele>582</ele><time>2013-11-17T12:32:41Z</time></trkpt>
<trkpt lat="54.2446260000" lon="-2.2521470000"><ele>582</ele><time>2013-11-17T12:32:42Z</time></trkpt>
<trkpt lat="54.2446250000" lon="-2.2521290000"><ele>582</ele><time>2013-11-17T12:32:43Z</time></trkpt>
<trkpt lat="54.2446250000" lon="-2.2521080000"><ele>582</ele><time>2013-11-17T12:32:44Z</time></trkpt>
<trkpt lat="54.2446260000" lon="-2.2520880000"><ele>582</ele><time>2013-11-17T12:32:45Z</time></trkpt>
<trkpt lat="54.2446270000" lon="-2.2520660000"><ele>582</ele><time>2013-11-17T12:32:46Z</time></trkpt>
<trkpt lat="54.2446280000" lon="-2.2520430000"><ele>582</ele><time>2013-11-17T12:32:47Z</time></trkpt>
<trkpt lat="54.2446290000" lon="-2.2520220000"><ele>582</ele><time>2013-11-17T12:32:48Z</time></trkpt>
<trkpt lat="54.2446290000" lon="-2.2520020000"><ele>582</ele><time>2013-11-17T12:32:49Z</time></trkpt>
<trkpt lat="54.2446280000" lon="-2.2519810000"><ele>582</ele><time>2013-11-17T12:32:50Z</time></trkpt>
<trkpt lat="54.2446260000" lon="-2.2519610000"><ele>582</ele><time>2013-11-17T12:32:51Z</time></trkpt>
<trkpt lat="54.2446260000" lon="-2.2519410000"><ele>582</ele><time>2013-11-17T12:32:52Z</time></trkpt>
<trkpt lat="54.2446290000" lon="-2.2519230000"><ele>582</ele><time>2013-11-17T12:32:53Z</time></trkpt>
<trkpt lat="54.2446300000" lon="-2.2519030000"><ele>582</ele><time>2013-11-17T12:32:54Z</time></trkpt>
<trkpt lat="54.2446310000" lon="-2.2518840000"><ele>582</ele><time>2013-11-17T12:32:55Z</time></trkpt>
<trkpt lat="54.2446320000" lon="-2.2518650000"><ele>582</ele><time>2013-11-17T12:32:56Z</time></trkpt>
<trkpt lat="54.2446330000" lon="-2.2518440000"><ele>582</ele><time>2013-11-17T12:32:57Z</time></trkpt>
<trkpt lat="54.2446350000" lon="-2.2518230000"><ele>582</ele><time>2013-11-17T12:32:58Z</time></trkpt>
<trkpt lat="54.2446360000" lon="-2.2518040000"><ele>582</ele><time>2013-11-17T12:32:59Z</time></trkpt>
<trkpt lat="54.2446350000" lon="-2.2517830000"><ele>582</ele><time>2013-11-17T12:33:00Z</time></trkpt>
<trkpt lat="54.2446360000" lon="-2.2517630000"><ele>582</ele><time>2013-11-17T12:33:01Z</time></trkpt>
<trkpt lat="54.2446370000" lon="-2.2517430000"><ele>582</ele><time>2013-11-17T12:33:02Z</time></trkpt>
<trkpt lat="54.2446370000" lon="-2.2517200000"><ele>582</ele><time>2013-11-17T12:33:03Z</time></trkpt>
<trkpt lat="54.2446370000" lon="-2.2516990000"><ele>582</ele><time>2013-11-17T12:33:04Z</time></trkpt>
<trkpt lat="54.2446370000" lon="-2.2516780000"><ele>582</ele><time>2013-11-17T12:33:05Z</time></trkpt>
<trkpt lat="54.2446370000" lon="-2.2516560000"><ele>582</ele><time>2013-11-17T12:33:06Z</time></trkpt>
<trkpt lat="54.2446360000" lon="-2.2516340000"><ele>582</ele><time>2013-11-17T12:33:07Z</time></trkpt>
<trkpt lat="54.2446370000" lon="-2.2516130000"><ele>582</ele><time>2013-11-17T12:33:08Z</time></trkpt>
<trkpt lat="54.2446370000" lon="-2.2515930000"><ele>582</ele><time>2013-11-17T12:33:09Z</time></trkpt>
<trkpt lat="54.2446380000" lon="-2.2515730000"><ele>582</ele><time>2013-11-17T12:33:10Z</time></trkpt>
<trkpt lat="54.2446380000" lon="-2.2515510000"><ele>582</ele><time>2013-11-17T12:33:11Z</time></trkpt>
<trkpt lat="54.2446390000" lon="-2.2515290000"><ele>582</ele><time>2013-11-17T12:33:12Z</time></trkpt>
<trkpt lat="54.2446390000" lon="-2.2515050000"><ele>582</ele><time>2013-11-17T12:33:13Z</time></trkpt>
<trkpt lat="54.2446410000" lon="-2.2514840000"><ele>582</ele><time>2013-11-17T12:33:14Z</time></trkpt>
<trkpt lat="54.2446420000" lon="-2.2514630000"><ele>582</ele><time>2013-11-17T12:33:15Z</time></trkpt>
<trkpt lat="54.2446430000" lon="-2.2514430000"><ele>582</ele><time>2013-11-17T12:33:16Z</time></trkpt>
<trkpt lat="54.2446430000" lon="-2.2514230000"><ele>582</ele><time>2013-11-17T12:33:17Z</time></trkpt>
<trkpt lat="54.2446430000" lon="-2.2514030000"><ele>582</ele><time>2013-11-17T12:33:18Z</time></trkpt>
<trkpt lat="54.2446440000" lon="-2.2513840000"><ele>582</ele><time>2013-11-17T12:33:19Z</time></trkpt>
<trkpt lat="54.2446440000" lon="-2.2513660000"><ele>582</ele><time>2013-11-17T12:33:20Z</time></trkpt>
<trkpt lat="54.2446430000" lon="-2.2513460000"><ele>582</ele><time>2013-11-17T12:33:21Z</time></trkpt>
<trkpt lat="54.2446450000" lon="-2.2513250000"><ele>582</ele><time>2013-11-17T12:33:22Z</time></trkpt>
<trkpt lat="54.2446470000" lon="-2.2513040000"><ele>582</ele><time>2013-11-17T12:33:23Z</time></trkpt>
<trkpt lat="54.2446490000" lon="-2.2512840000"><ele>582</ele><time>2013-11-17T12:33:24Z</time></trkpt>
<trkpt lat="54.2446500000" lon="-2.2512630000"><ele>582</ele><time>2013-11-17T12:33:25Z</time></trkpt>
<trkpt lat="54.2446500000" lon="-2.2512410000"><ele>582</ele><time>2013-11-17T12:33:26Z</time></trkpt>
<trkpt lat="54.2446490000" lon="-2.2512200000"><ele>582</ele><time>2013-11-17T12:33:27Z</time></trkpt>
<trkpt lat="54.2446490000" lon="-2.2512000000"><ele>582</ele><time>2013-11-17T12:33:28Z</time></trkpt>
<trkpt lat="54.2446510000" lon="-2.2511820000"><ele>582</ele><time>2013-11-17T12:33:29Z</time></trkpt>
<trkpt lat="54.2446520000" lon="-2.2511610000"><ele>582</ele><time>2013-11-17T12:33:30Z</time></trkpt>
<trkpt lat="54.2446520000" lon="-2.2511390000"><ele>582</ele><time>2013-11-17T12:33:31Z</time></trkpt>
<trkpt lat="54.2446500000" lon="-2.2511160000"><ele>582</ele><time>2013-11-17T12:33:32Z</time></trkpt>
<trkpt lat="54.2446490000" lon="-2.2510940000"><ele>582</ele><time>2013-11-17T12:33:33Z</time></trkpt>
<trkpt lat="54.2446490000" lon="-2.2510690000"><ele>582</ele><time>2013-11-17T12:33:34Z</time></trkpt>
<trkpt lat="54.2446490000" lon="-2.2510440000"><ele>582</ele><time>2013-11-17T12:33:35Z</time></trkpt>
<trkpt lat="54.2446480000" lon="-2.2510230000"><ele>582</ele><time>2013-11-17T12:33:36Z</time></trkpt>
<trkpt lat="54.2446500000" lon="-2.2510020000"><ele>582</ele><time>2013-11-17T12:33:37Z</time></trkpt>
<trkpt lat="54.2446520000" lon="-2.2509850000"><ele>582</ele><time>2013-11-17T12:33:38Z</time></trkpt>
<trkpt lat="54.2446550000" lon="-2.2509670000"><ele>582</ele><time>2013-11-17T12:33:39Z</time></trkpt>
<trkpt lat="54.2446570000" lon="-2.2509440000"><ele>582</ele><time>2013-11-17T12:33:40Z</time></trkpt>
<trkpt lat="54.2446590000" lon="-2.2509220000"><ele>582</ele><time>2013-11-17T12:33:41Z</time></trkpt>
<trkpt lat="54.2446610000" lon="-2.2508980000"><ele>582</ele><time>2013-11-17T12:33:42Z</time></trkpt>
<trkpt lat="54.2446650000" lon="-2.2508740000"><ele>582</ele><time>2013-11-17T12:33:43Z</time></trkpt>
<trkpt lat="54.2446670000" lon="-2.2508510000"><ele>582</ele><time>2013-11-17T12:33:44Z</time></trkpt>
<trkpt lat="54.2446680000" lon="-2.2508270000"><ele>582</ele><time>2013-11-17T12:33:45Z</time></trkpt>
<trkpt lat="54.2446700000" lon="-2.2508040000"><ele>582</ele><time>2013-11-17T12:33:46Z</time></trkpt>
<trkpt lat="54.2446710000" lon="-2.2507830000"><ele>582</ele><time>2013-11-17T12:33:47Z</time></trkpt>
<trkpt lat="54.2446720000" lon="-2.2507630000"><ele>582</ele><time>2013-11-17T12:33:48Z</time></trkpt>
<trkpt lat="54.2446730000" lon="-2.2507420000"><ele>582</ele><time>2013-11-17T12:33:49Z</time></trkpt>
<trkpt lat="54.2446750000" lon="-2.2507180000"><ele>582</ele><time>2013-11-17T12:33:50Z</time></trkpt>
<trkpt lat="54.2446760000" lon="-2.2506940000"><ele>582</ele><time>2013-11-17T12:33:51Z</time></trkpt>
<trkpt lat="54.2446780000" lon="-2.2506710000"><ele>582</ele><time>2013-11-17T12:33:52Z</time></trkpt>
<trkpt lat="54.2446790000" lon="-2.2506500000"><ele>582</ele><time>2013-11-17T12:33:53Z</time></trkpt>
<trkpt lat="54.2446790000" lon="-2.2506290000"><ele>582</ele><time>2013-11-17T12:33:54Z</time></trkpt>
<trkpt lat="54.2446800000" lon="-2.2506080000"><ele>582</ele><time>2013-11-17T12:33:55Z</time></trkpt>
<trkpt lat="54.2446820000" lon="-2.2505860000"><ele>582</ele><time>2013-11-17T12:33:56Z</time></trkpt>
<trkpt lat="54.2446840000" lon="-2.2505640000"><ele>582</ele><time>2013-11-17T12:33:57Z</time></trkpt>
<trkpt lat="54.2446860000" lon="-2.2505430000"><ele>582</ele><time>2013-11-17T12:33:58Z</time></trkpt>
<trkpt lat="54.2446880000" lon="-2.2505240000"><ele>582</ele><time>2013-11-17T12:33:59Z</time></trkpt>
<trkpt lat="54.2446880000" lon="-2.2505040000"><ele>582</ele><time>2013-11-17T12:34:00Z</time></trkpt>
<trkpt lat="54.2446880000" lon="-2.2504840000"><ele>582</ele><time>2013-11-17T12:34:01Z</time></trkpt>
<trkpt lat="54.2446870000" lon="-2.2504630000"><ele>582</ele><time>2013-11-17T12:34:02Z</time></trkpt>
<trkpt lat="54.2446880000" lon="-2.2504420000"><ele>582</ele><time>2013-11-17T12:34:03Z</time></trkpt>
<trkpt lat="54.2446890000" lon="-2.2504210000"><ele>582</ele><time>2013-11-17T12:34:04Z</time></trkpt>
<trkpt lat="54.2446900000" lon="-2.2504030000"><ele>582</ele><time>2013-11-17T12:34:05Z</time></trkpt>
<trkpt lat="54.2446920000" lon="-2.2503830000"><ele>582</ele><time>2013-11-17T12:34:06Z</time></trkpt>
<trkpt lat="54.2446940000" lon="-2.2503650000"><ele>582</ele><time>2013-11-17T12:34:07Z</time></trkpt>
<trkpt lat="54.2446960000" lon="-2.2503450000"><ele>582</ele><time>2013-11-17T12:34:08Z</time></trkpt>
<trkpt lat="54.2446980000" lon="-2.2503260000"><ele>582</ele><time>2013-11-17T12:34:09Z</time></trkpt>
<trkpt lat="54.2446980000" lon="-2.2503050000"><ele>582</ele><time>2013-11-17T12:34:10Z</time></trkpt>
<trkpt lat="54.2446970000" lon="-2.2502840000"><ele>582</ele><time>2013-11-17T12:34:11Z</time></trkpt>
<trkpt lat="54.2446960000" lon="-2.2502620000"><ele>582</ele><time>2013-11-17T12:34:12Z</time></trkpt>
<trkpt lat="54.2446960000" lon="-2.2502430000"><ele>582</ele><time>2013-11-17T12:34:13Z</time></trkpt>
<trkpt lat="54.2446960000" lon="-2.2502220000"><ele>582</ele><time>2013-11-17T12:34:14Z</time></trkpt>
<trkpt lat="54.2446970000" lon="-2.2502020000"><ele>582</ele><time>2013-11-17T12:34:15Z</time></trkpt>
<trkpt lat="54.2447000000" lon="-2.2501810000"><ele>582</ele><time>2013-11-17T12:34:16Z</time></trkpt>
<trkpt lat="54.2447010000" lon="-2.2501560000"><ele>582</ele><time>2013-11-17T12:34:17Z</time></trkpt>
<trkpt lat="54.2447020000" lon="-2.2501310000"><ele>582</ele><time>2013-11-17T12:34:18Z</time></trkpt>
<trkpt lat="54.2447030000" lon="-2.2501080000"><ele>582</ele><time>2013-11-17T12:34:19Z</time></trkpt>
<trkpt lat="54.2447030000" lon="-2.2500860000"><ele>577</ele><time>2013-11-17T12:34:20Z</time></trkpt>
<trkpt lat="54.2447020000" lon="-2.2500660000"><ele>577</ele><time>2013-11-17T12:34:21Z</time></trkpt>
<trkpt lat="54.2447030000" lon="-2.2500460000"><ele>577</ele><time>2013-11-17T12:34:22Z</time></trkpt>
<trkpt lat="54.2447050000" lon="-2.2500240000"><ele>577</ele><time>2013-11-17T12:34:23Z</time></trkpt>
<trkpt lat="54.2447070000" lon="-2.2500020000"><ele>577</ele><time>2013-11-17T12:34:24Z</time></trkpt>
<trkpt lat="54.2447080000" lon="-2.2499800000"><ele>577</ele><time>2013-11-17T12:34:25Z</time></trkpt>
<trkpt lat="54.2447090000" lon="-2.2499570000"><ele>577</ele><time>2013-11-17T12:34:26Z</time></trkpt>
<trkpt lat="54.2447100000" lon="-2.2499350000"><ele>577</ele><time>2013-11-17T12:34:27Z</time></trkpt>
<trkpt lat="54.2447090000" lon="-2.2499120000"><ele>577</ele><time>2013-11-17T12:34:28Z</time></trkpt>
<trkpt lat="54.2447090000" lon="-2.2498910000"><ele>577</ele><time>2013-11-17T12:34:29Z</time></trkpt>
<trkpt lat="54.2447100000" lon="-2.2498690000"><ele>577</ele><time>2013-11-17T12:34:30Z</time></trkpt>
<trkpt lat="54.2447110000" lon="-2.2498460000"><ele>577</ele><time>2013-11-17T12:34:31Z</time></trkpt>
<trkpt lat="54.2447130000" lon="-2.2498210000"><ele>577</ele><time>2013-11-17T12:34:32Z</time></trkpt>
<trkpt lat="54.2447150000" lon="-2.2497970000"><ele>577</ele><time>2013-11-17T12:34:33Z</time></trkpt>
<trkpt lat="54.2447160000" lon="-2.2497740000"><ele>577</ele><time>2013-11-17T12:34:34Z</time></trkpt>
<trkpt lat="54.2447190000" lon="-2.2497520000"><ele>577</ele><time>2013-11-17T12:34:35Z</time></trkpt>
<trkpt lat="54.2447220000" lon="-2.2497310000"><ele>577</ele><time>2013-11-17T12:34:36Z</time></trkpt>
<trkpt lat="54.2447250000" lon="-2.2497110000"><ele>577</ele><time>2013-11-17T12:34:37Z</time></trkpt>
<trkpt lat="54.2447280000" lon="-2.2496900000"><ele>577</ele><time>2013-11-17T12:34:38Z</time></trkpt>
<trkpt lat="54.2447300000" lon="-2.2496670000"><ele>577</ele><time>2013-11-17T12:34:39Z</time></trkpt>
<trkpt lat="54.2447320000" lon="-2.2496440000"><ele>577</ele><time>2013-11-17T12:34:40Z</time></trkpt>
<trkpt lat="54.2447330000" lon="-2.2496210000"><ele>577</ele><time>2013-11-17T12:34:41Z</time></trkpt>
<trkpt lat="54.2447330000" lon="-2.2495970000"><ele>577</ele><time>2013-11-17T12:34:42Z</time></trkpt>
<trkpt lat="54.2447350000" lon="-2.2495740000"><ele>577</ele><time>2013-11-17T12:34:43Z</time></trkpt>
<trkpt lat="54.2447380000" lon="-2.2495510000"><ele>577</ele><time>2013-11-17T12:34:44Z</time></trkpt>
<trkpt lat="54.2447420000" lon="-2.2495280000"><ele>577</ele><time>2013-11-17T12:34:45Z</time></trkpt>
<trkpt lat="54.2447460000" lon="-2.2495050000"><ele>577</ele><time>2013-11-17T12:34:46Z</time></trkpt>
<trkpt lat="54.2447470000" lon="-2.2494830000"><ele>577</ele><time>2013-11-17T12:34:47Z</time></trkpt>
<trkpt lat="54.2447470000" lon="-2.2494610000"><ele>577</ele><time>2013-11-17T12:34:48Z</time></trkpt>
<trkpt lat="54.2447470000" lon="-2.2494380000"><ele>577</ele><time>2013-11-17T12:34:49Z</time></trkpt>
<trkpt lat="54.2447470000" lon="-2.2494160000"><ele>577</ele><time>2013-11-17T12:34:50Z</time></trkpt>
<trkpt lat="54.2447460000" lon="-2.2493920000"><ele>577</ele><time>2013-11-17T12:34:51Z</time></trkpt>
<trkpt lat="54.2447470000" lon="-2.2493680000"><ele>577</ele><time>2013-11-17T12:34:52Z</time></trkpt>
<trkpt lat="54.2447510000" lon="-2.2493490000"><ele>577</ele><time>2013-11-17T12:34:53Z</time></trkpt>
<trkpt lat="54.2447550000" lon="-2.2493290000"><ele>577</ele><time>2013-11-17T12:34:54Z</time></trkpt>
<trkpt lat="54.2447590000" lon="-2.2493070000"><ele>577</ele><time>2013-11-17T12:34:55Z</time></trkpt>
<trkpt lat="54.2447640000" lon="-2.2492870000"><ele>577</ele><time>2013-11-17T12:34:56Z</time></trkpt>
<trkpt lat="54.2447660000" lon="-2.2492630000"><ele>577</ele><time>2013-11-17T12:34:57Z</time></trkpt>
<trkpt lat="54.2447680000" lon="-2.2492390000"><ele>577</ele><time>2013-11-17T12:34:58Z</time></trkpt>
<trkpt lat="54.2447700000" lon="-2.2492160000"><ele>577</ele><time>2013-11-17T12:34:59Z</time></trkpt>
<trkpt lat="54.2447720000" lon="-2.2491950000"><ele>577</ele><time>2013-11-17T12:35:00Z</time></trkpt>
<trkpt lat="54.2447730000" lon="-2.2491720000"><ele>577</ele><time>2013-11-17T12:35:01Z</time></trkpt>
<trkpt lat="54.2447740000" lon="-2.2491510000"><ele>577</ele><time>2013-11-17T12:35:02Z</time></trkpt>
<trkpt lat="54.2447760000" lon="-2.2491300000"><ele>577</ele><time>2013-11-17T12:35:03Z</time></trkpt>
<trkpt lat="54.2447760000" lon="-2.2491070000"><ele>577</ele><time>2013-11-17T12:35:04Z</time></trkpt>
<trkpt lat="54.2447760000" lon="-2.2490820000"><ele>577</ele><time>2013-11-17T12:35:05Z</time></trkpt>
<trkpt lat="54.2447760000" lon="-2.2490600000"><ele>577</ele><time>2013-11-17T12:35:06Z</time></trkpt>
<trkpt lat="54.2447760000" lon="-2.2490380000"><ele>577</ele><time>2013-11-17T12:35:07Z</time></trkpt>
<trkpt lat="54.2447770000" lon="-2.2490160000"><ele>577</ele><time>2013-11-17T12:35:08Z</time></trkpt>
<trkpt lat="54.2447770000" lon="-2.2489950000"><ele>577</ele><time>2013-11-17T12:35:09Z</time></trkpt>
<trkpt lat="54.2447770000" lon="-2.2489760000"><ele>577</ele><time>2013-11-17T12:35:10Z</time></trkpt>
<trkpt lat="54.2447770000" lon="-2.2489540000"><ele>577</ele><time>2013-11-17T12:35:11Z</time></trkpt>
<trkpt lat="54.2447770000" lon="-2.2489320000"><ele>577</ele><time>2013-11-17T12:35:12Z</time></trkpt>
<trkpt lat="54.2447800000" lon="-2.2489110000"><ele>577</ele><time>2013-11-17T12:35:13Z</time></trkpt>
<trkpt lat="54.2447830000" lon="-2.2488920000"><ele>577</ele><time>2013-11-17T12:35:14Z</time></trkpt>
<trkpt lat="54.2447850000" lon="-2.2488720000"><ele>577</ele><time>2013-11-17T12:35:15Z</time></trkpt>
<trkpt lat="54.2447860000" lon="-2.2488520000"><ele>577</ele><time>2013-11-17T12:35:16Z</time></trkpt>
<trkpt lat="54.2447870000" lon="-2.2488310000"><ele>577</ele><time>2013-11-17T12:35:17Z</time></trkpt>
<trkpt lat="54.2447880000" lon="-2.2488110000"><ele>577</ele><time>2013-11-17T12:35:18Z</time></trkpt>
<trkpt lat="54.2447890000" lon="-2.2487910000"><ele>577</ele><time>2013-11-17T12:35:19Z</time></trkpt>
<trkpt lat="54.2447910000" lon="-2.2487720000"><ele>577</ele><time>2013-11-17T12:35:20Z</time></trkpt>
<trkpt lat="54.2447930000" lon="-2.2487540000"><ele>577</ele><time>2013-11-17T12:35:21Z</time></trkpt>
<trkpt lat="54.2447970000" lon="-2.2487340000"><ele>577</ele><time>2013-11-17T12:35:22Z</time></trkpt>
<trkpt lat="54.2447990000" lon="-2.2487140000"><ele>577</ele><time>2013-11-17T12:35:23Z</time></trkpt>
<trkpt lat="54.2448000000" lon="-2.2486930000"><ele>577</ele><time>2013-11-17T12:35:24Z</time></trkpt>
<trkpt lat="54.2448020000" lon="-2.2486710000"><ele>577</ele><time>2013-11-17T12:35:25Z</time></trkpt>
<trkpt lat="54.2448050000" lon="-2.2486500000"><ele>577</ele><time>2013-11-17T12:35:26Z</time></trkpt>
<trkpt lat="54.2448080000" lon="-2.2486320000"><ele>577</ele><time>2013-11-17T12:35:27Z</time></trkpt>
<trkpt lat="54.2448100000" lon="-2.2486140000"><ele>577</ele><time>2013-11-17T12:35:28Z</time></trkpt>
<trkpt lat="54.2448120000" lon="-2.2485940000"><ele>577</ele><time>2013-11-17T12:35:29Z</time></trkpt>
<trkpt lat="54.2448150000" lon="-2.2485730000"><ele>577</ele><time>2013-11-17T12:35:30Z</time></trkpt>
<trkpt lat="54.2448190000" lon="-2.2485520000"><ele>577</ele><time>2013-11-17T12:35:31Z</time></trkpt>
<trkpt lat="54.2448210000" lon="-2.2485300000"><ele>577</ele><time>2013-11-17T12:35:32Z</time></trkpt>
<trkpt lat="54.2448220000" lon="-2.2485100000"><ele>577</ele><time>2013-11-17T12:35:33Z</time></trkpt>
<trkpt lat="54.2448240000" lon="-2.2484880000"><ele>577</ele><time>2013-11-17T12:35:34Z</time></trkpt>
<trkpt lat="54.2448270000" lon="-2.2484690000"><ele>577</ele><time>2013-11-17T12:35:35Z</time></trkpt>
<trkpt lat="54.2448290000" lon="-2.2484500000"><ele>577</ele><time>2013-11-17T12:35:36Z</time></trkpt>
<trkpt lat="54.2448280000" lon="-2.2484290000"><ele>577</ele><time>2013-11-17T12:35:37Z</time></trkpt>
<trkpt lat="54.2448290000" lon="-2.2484080000"><ele>577</ele><time>2013-11-17T12:35:38Z</time></trkpt>
<trkpt lat="54.2448310000" lon="-2.2483890000"><ele>577</ele><time>2013-11-17T12:35:39Z</time></trkpt>
<trkpt lat="54.2448330000" lon="-2.2483680000"><ele>577</ele><time>2013-11-17T12:35:40Z</time></trkpt>
<trkpt lat="54.2448380000" lon="-2.2483480000"><ele>577</ele><time>2013-11-17T12:35:41Z</time></trkpt>
<trkpt lat="54.2448430000" lon="-2.2483270000"><ele>577</ele><time>2013-11-17T12:35:42Z</time></trkpt>
<trkpt lat="54.2448470000" lon="-2.2483040000"><ele>577</ele><time>2013-11-17T12:35:43Z</time></trkpt>
<trkpt lat="54.2448510000" lon="-2.2482790000"><ele>577</ele><time>2013-11-17T12:35:44Z</time></trkpt>
<trkpt lat="54.2448550000" lon="-2.2482570000"><ele>577</ele><time>2013-11-17T12:35:45Z</time></trkpt>
<trkpt lat="54.2448600000" lon="-2.2482360000"><ele>577</ele><time>2013-11-17T12:35:46Z</time></trkpt>
<trkpt lat="54.2448620000" lon="-2.2482170000"><ele>577</ele><time>2013-11-17T12:35:47Z</time></trkpt>
<trkpt lat="54.2448650000" lon="-2.2481980000"><ele>577</ele><time>2013-11-17T12:35:48Z</time></trkpt>
<trkpt lat="54.2448680000" lon="-2.2481790000"><ele>577</ele><time>2013-11-17T12:35:49Z</time></trkpt>
<trkpt lat="54.2448700000" lon="-2.2481560000"><ele>577</ele><time>2013-11-17T12:35:50Z</time></trkpt>
<trkpt lat="54.2448710000" lon="-2.2481320000"><ele>577</ele><time>2013-11-17T12:35:51Z</time></trkpt>
<trkpt lat="54.2448730000" lon="-2.2481130000"><ele>577</ele><time>2013-11-17T12:35:52Z</time></trkpt>
<trkpt lat="54.2448800000" lon="-2.2480940000"><ele>577</ele><time>2013-11-17T12:35:53Z</time></trkpt>
<trkpt lat="54.2448860000" lon="-2.2480740000"><ele>577</ele><time>2013-11-17T12:35:54Z</time></trkpt>
<trkpt lat="54.2448890000" lon="-2.2480520000"><ele>577</ele><time>2013-11-17T12:35:55Z</time></trkpt>
<trkpt lat="54.2448920000" lon="-2.2480290000"><ele>577</ele><time>2013-11-17T12:35:56Z</time></trkpt>
<trkpt lat="54.2448960000" lon="-2.2480070000"><ele>577</ele><time>2013-11-17T12:35:57Z</time></trkpt>
<trkpt lat="54.2448990000" lon="-2.2479860000"><ele>577</ele><time>2013-11-17T12:35:58Z</time></trkpt>
<trkpt lat="54.2449020000" lon="-2.2479660000"><ele>577</ele><time>2013-11-17T12:35:59Z</time></trkpt>
<trkpt lat="54.2449060000" lon="-2.2479430000"><ele>577</ele><time>2013-11-17T12:36:00Z</time></trkpt>
<trkpt lat="54.2449090000" lon="-2.2479180000"><ele>577</ele><time>2013-11-17T12:36:01Z</time></trkpt>
<trkpt lat="54.2449130000" lon="-2.2478960000"><ele>577</ele><time>2013-11-17T12:36:02Z</time></trkpt>
<trkpt lat="54.2449150000" lon="-2.2478760000"><ele>577</ele><time>2013-11-17T12:36:03Z</time></trkpt>
<trkpt lat="54.2449170000" lon="-2.2478550000"><ele>577</ele><time>2013-11-17T12:36:04Z</time></trkpt>
<trkpt lat="54.2449190000" lon="-2.2478350000"><ele>577</ele><time>2013-11-17T12:36:05Z</time></trkpt>
<trkpt lat="54.2449210000" lon="-2.2478150000"><ele>577</ele><time>2013-11-17T12:36:06Z</time></trkpt>
<trkpt lat="54.2449240000" lon="-2.2477940000"><ele>577</ele><time>2013-11-17T12:36:07Z</time></trkpt>
<trkpt lat="54.2449250000" lon="-2.2477760000"><ele>577</ele><time>2013-11-17T12:36:08Z</time></trkpt>
<trkpt lat="54.2449280000" lon="-2.2477570000"><ele>577</ele><time>2013-11-17T12:36:09Z</time></trkpt>
<trkpt lat="54.2449310000" lon="-2.2477350000"><ele>577</ele><time>2013-11-17T12:36:10Z</time></trkpt>
<trkpt lat="54.2449320000" lon="-2.2477120000"><ele>577</ele><time>2013-11-17T12:36:11Z</time></trkpt>
<trkpt lat="54.2449330000" lon="-2.2476890000"><ele>577</ele><time>2013-11-17T12:36:12Z</time></trkpt>
<trkpt lat="54.2449360000" lon="-2.2476670000"><ele>577</ele><time>2013-11-17T12:36:13Z</time></trkpt>
<trkpt lat="54.2449390000" lon="-2.2476470000"><ele>577</ele><time>2013-11-17T12:36:14Z</time></trkpt>
<trkpt lat="54.2449420000" lon="-2.2476270000"><ele>577</ele><time>2013-11-17T12:36:15Z</time></trkpt>
<trkpt lat="54.2449420000" lon="-2.2476060000"><ele>577</ele><time>2013-11-17T12:36:16Z</time></trkpt>
<trkpt lat="54.2449450000" lon="-2.2475860000"><ele>577</ele><time>2013-11-17T12:36:17Z</time></trkpt>
<trkpt lat="54.2449460000" lon="-2.2475640000"><ele>577</ele><time>2013-11-17T12:36:18Z</time></trkpt>
<trkpt lat="54.2449470000" lon="-2.2475400000"><ele>577</ele><time>2013-11-17T12:36:19Z</time></trkpt>
<trkpt lat="54.2449510000" lon="-2.2475210000"><ele>577</ele><time>2013-11-17T12:36:20Z</time></trkpt>
<trkpt lat="54.2449560000" lon="-2.2475010000"><ele>577</ele><time>2013-11-17T12:36:21Z</time></trkpt>
<trkpt lat="54.2449590000" lon="-2.2474790000"><ele>577</ele><time>2013-11-17T12:36:22Z</time></trkpt>
<trkpt lat="54.2449600000" lon="-2.2474560000"><ele>577</ele><time>2013-11-17T12:36:23Z</time></trkpt>
<trkpt lat="54.2449620000" lon="-2.2474340000"><ele>577</ele><time>2013-11-17T12:36:24Z</time></trkpt>
<trkpt lat="54.2449620000" lon="-2.2474100000"><ele>577</ele><time>2013-11-17T12:36:25Z</time></trkpt>
<trkpt lat="54.2449630000" lon="-2.2473870000"><ele>577</ele><time>2013-11-17T12:36:26Z</time></trkpt>
<trkpt lat="54.2449650000" lon="-2.2473630000"><ele>577</ele><time>2013-11-17T12:36:27Z</time></trkpt>
<trkpt lat="54.2449670000" lon="-2.2473390000"><ele>577</ele><time>2013-11-17T12:36:28Z</time></trkpt>
<trkpt lat="54.2449700000" lon="-2.2473160000"><ele>577</ele><time>2013-11-17T12:36:29Z</time></trkpt>
<trkpt lat="54.2449720000" lon="-2.2472910000"><ele>577</ele><time>2013-11-17T12:36:30Z</time></trkpt>
<trkpt lat="54.2449740000" lon="-2.2472690000"><ele>577</ele><time>2013-11-17T12:36:31Z</time></trkpt>
<trkpt lat="54.2449770000" lon="-2.2472480000"><ele>577</ele><time>2013-11-17T12:36:32Z</time></trkpt>
<trkpt lat="54.2449790000" lon="-2.2472230000"><ele>577</ele><time>2013-11-17T12:36:33Z</time></trkpt>
<trkpt lat="54.2449820000" lon="-2.2472000000"><ele>577</ele><time>2013-11-17T12:36:34Z</time></trkpt>
<trkpt lat="54.2449860000" lon="-2.2471790000"><ele>577</ele><time>2013-11-17T12:36:35Z</time></trkpt>
<trkpt lat="54.2449900000" lon="-2.2471610000"><ele>577</ele><time>2013-11-17T12:36:36Z</time></trkpt>
<trkpt lat="54.2449920000" lon="-2.2471410000"><ele>577</ele><time>2013-11-17T12:36:37Z</time></trkpt>
<trkpt lat="54.2449950000" lon="-2.2471150000"><ele>577</ele><time>2013-11-17T12:36:38Z</time></trkpt>
<trkpt lat="54.2449980000" lon="-2.2470930000"><ele>577</ele><time>2013-11-17T12:36:39Z</time></trkpt>
<trkpt lat="54.2450010000" lon="-2.2470710000"><ele>577</ele><time>2013-11-17T12:36:40Z</time></trkpt>
<trkpt lat="54.2450040000" lon="-2.2470480000"><ele>577</ele><time>2013-11-17T12:36:41Z</time></trkpt>
<trkpt lat="54.2450080000" lon="-2.2470260000"><ele>570</ele><time>2013-11-17T12:36:42Z</time></trkpt>
<trkpt lat="54.2450110000" lon="-2.2470040000"><ele>570</ele><time>2013-11-17T12:36:43Z</time></trkpt>
<trkpt lat="54.2450140000" lon="-2.2469820000"><ele>570</ele><time>2013-11-17T12:36:44Z</time></trkpt>
<trkpt lat="54.2450180000" lon="-2.2469610000"><ele>570</ele><time>2013-11-17T12:36:45Z</time></trkpt>
<trkpt lat="54.2450210000" lon="-2.2469400000"><ele>570</ele><time>2013-11-17T12:36:46Z</time></trkpt>
<trkpt lat="54.2450250000" lon="-2.2469160000"><ele>570</ele><time>2013-11-17T12:36:47Z</time></trkpt>
<trkpt lat="54.2450300000" lon="-2.2468910000"><ele>570</ele><time>2013-11-17T12:36:48Z</time></trkpt>
<trkpt lat="54.2450360000" lon="-2.2468660000"><ele>570</ele><time>2013-11-17T12:36:49Z</time></trkpt>
<trkpt lat="54.2450410000" lon="-2.2468430000"><ele>570</ele><time>2013-11-17T12:36:50Z</time></trkpt>
<trkpt lat="54.2450460000" lon="-2.2468200000"><ele>570</ele><time>2013-11-17T12:36:51Z</time></trkpt>
<trkpt lat="54.2450500000" lon="-2.2467950000"><ele>570</ele><time>2013-11-17T12:36:52Z</time></trkpt>
<trkpt lat="54.2450530000" lon="-2.2467730000"><ele>570</ele><time>2013-11-17T12:36:53Z</time></trkpt>
<trkpt lat="54.2450550000" lon="-2.2467510000"><ele>570</ele><time>2013-11-17T12:36:54Z</time></trkpt>
<trkpt lat="54.2450580000" lon="-2.2467270000"><ele>570</ele><time>2013-11-17T12:36:55Z</time></trkpt>
<trkpt lat="54.2450620000" lon="-2.2467060000"><ele>570</ele><time>2013-11-17T12:36:56Z</time></trkpt>
<trkpt lat="54.2450660000" lon="-2.2466830000"><ele>570</ele><time>2013-11-17T12:36:57Z</time></trkpt>
<trkpt lat="54.2450690000" lon="-2.2466600000"><ele>570</ele><time>2013-11-17T12:36:58Z</time></trkpt>
<trkpt lat="54.2450700000" lon="-2.2466390000"><ele>570</ele><time>2013-11-17T12:36:59Z</time></trkpt>
<trkpt lat="54.2450700000" lon="-2.2466170000"><ele>570</ele><time>2013-11-17T12:37:00Z</time></trkpt>
<trkpt lat="54.2450710000" lon="-2.2465970000"><ele>570</ele><time>2013-11-17T12:37:01Z</time></trkpt>
<trkpt lat="54.2450710000" lon="-2.2465750000"><ele>570</ele><time>2013-11-17T12:37:02Z</time></trkpt>
<trkpt lat="54.2450720000" lon="-2.2465540000"><ele>570</ele><time>2013-11-17T12:37:03Z</time></trkpt>
<trkpt lat="54.2450710000" lon="-2.2465360000"><ele>570</ele><time>2013-11-17T12:37:04Z</time></trkpt>
<trkpt lat="54.2450680000" lon="-2.2465150000"><ele>570</ele><time>2013-11-17T12:37:05Z</time></trkpt>
<trkpt lat="54.2450660000" lon="-2.2464950000"><ele>570</ele><time>2013-11-17T12:37:06Z</time></trkpt>
<trkpt lat="54.2450640000" lon="-2.2464710000"><ele>570</ele><time>2013-11-17T12:37:07Z</time></trkpt>
<trkpt lat="54.2450620000" lon="-2.2464480000"><ele>570</ele><time>2013-11-17T12:37:08Z</time></trkpt>
<trkpt lat="54.2450610000" lon="-2.2464260000"><ele>570</ele><time>2013-11-17T12:37:09Z</time></trkpt>
<trkpt lat="54.2450600000" lon="-2.2464050000"><ele>570</ele><time>2013-11-17T12:37:10Z</time></trkpt>
<trkpt lat="54.2450590000" lon="-2.2463840000"><ele>570</ele><time>2013-11-17T12:37:11Z</time></trkpt>
<trkpt lat="54.2450580000" lon="-2.2463610000"><ele>570</ele><time>2013-11-17T12:37:12Z</time></trkpt>
<trkpt lat="54.2450570000" lon="-2.2463400000"><ele>570</ele><time>2013-11-17T12:37:13Z</time></trkpt>
<trkpt lat="54.2450560000" lon="-2.2463170000"><ele>570</ele><time>2013-11-17T12:37:14Z</time></trkpt>
<trkpt lat="54.2450550000" lon="-2.2462960000"><ele>570</ele><time>2013-11-17T12:37:15Z</time></trkpt>
<trkpt lat="54.2450550000" lon="-2.2462730000"><ele>570</ele><time>2013-11-17T12:37:16Z</time></trkpt>
<trkpt lat="54.2450580000" lon="-2.2462500000"><ele>570</ele><time>2013-11-17T12:37:17Z</time></trkpt>
<trkpt lat="54.2450580000" lon="-2.2462310000"><ele>570</ele><time>2013-11-17T12:37:18Z</time></trkpt>
<trkpt lat="54.2450570000" lon="-2.2462090000"><ele>570</ele><time>2013-11-17T12:37:19Z</time></trkpt>
<trkpt lat="54.2450570000" lon="-2.2461870000"><ele>570</ele><time>2013-11-17T12:37:20Z</time></trkpt>
<trkpt lat="54.2450590000" lon="-2.2461650000"><ele>570</ele><time>2013-11-17T12:37:21Z</time></trkpt>
<trkpt lat="54.2450630000" lon="-2.2461440000"><ele>570</ele><time>2013-11-17T12:37:22Z</time></trkpt>
<trkpt lat="54.2450670000" lon="-2.2461240000"><ele>570</ele><time>2013-11-17T12:37:23Z</time></trkpt>
<trkpt lat="54.2450700000" lon="-2.2461010000"><ele>570</ele><time>2013-11-17T12:37:24Z</time></trkpt>
<trkpt lat="54.2450720000" lon="-2.2460770000"><ele>570</ele><time>2013-11-17T12:37:25Z</time></trkpt>
<trkpt lat="54.2450740000" lon="-2.2460530000"><ele>570</ele><time>2013-11-17T12:37:26Z</time></trkpt>
<trkpt lat="54.2450780000" lon="-2.2460300000"><ele>570</ele><time>2013-11-17T12:37:27Z</time></trkpt>
<trkpt lat="54.2450810000" lon="-2.2460060000"><ele>570</ele><time>2013-11-17T12:37:28Z</time></trkpt>
<trkpt lat="54.2450840000" lon="-2.2459810000"><ele>570</ele><time>2013-11-17T12:37:29Z</time></trkpt>
<trkpt lat="54.2450860000" lon="-2.2459550000"><ele>570</ele><time>2013-11-17T12:37:30Z</time></trkpt>
<trkpt lat="54.2450900000" lon="-2.2459320000"><ele>570</ele><time>2013-11-17T12:37:31Z</time></trkpt>
<trkpt lat="54.2450970000" lon="-2.2459080000"><ele>570</ele><time>2013-11-17T12:37:32Z</time></trkpt>
<trkpt lat="54.2451020000" lon="-2.2458830000"><ele>570</ele><time>2013-11-17T12:37:33Z</time></trkpt>
<trkpt lat="54.2451140000" lon="-2.2458390000"><ele>570</ele><time>2013-11-17T12:37:35Z</time></trkpt>
<trkpt lat="54.2451260000" lon="-2.2457930000"><ele>570</ele><time>2013-11-17T12:37:37Z</time></trkpt>
<trkpt lat="54.2451330000" lon="-2.2457490000"><ele>570</ele><time>2013-11-17T12:37:39Z</time></trkpt>
<trkpt lat="54.2451420000" lon="-2.2457090000"><ele>570</ele><time>2013-11-17T12:37:41Z</time></trkpt>
<trkpt lat="54.2451450000" lon="-2.2456830000"><ele>570</ele><time>2013-11-17T12:37:42Z</time></trkpt>
<trkpt lat="54.2451480000" lon="-2.2456650000"><ele>570</ele><time>2013-11-17T12:37:43Z</time></trkpt>
<trkpt lat="54.2451510000" lon="-2.2456460000"><ele>570</ele><time>2013-11-17T12:37:44Z</time></trkpt>
<trkpt lat="54.2451560000" lon="-2.2456250000"><ele>570</ele><time>2013-11-17T12:37:45Z</time></trkpt>
<trkpt lat="54.2451600000" lon="-2.2456040000"><ele>570</ele><time>2013-11-17T12:37:46Z</time></trkpt>
<trkpt lat="54.2451630000" lon="-2.2455820000"><ele>570</ele><time>2013-11-17T12:37:47Z</time></trkpt>
<trkpt lat="54.2451670000" lon="-2.2455590000"><ele>570</ele><time>2013-11-17T12:37:48Z</time></trkpt>
<trkpt lat="54.2451700000" lon="-2.2455380000"><ele>570</ele><time>2013-11-17T12:37:49Z</time></trkpt>
<trkpt lat="54.2451730000" lon="-2.2455180000"><ele>570</ele><time>2013-11-17T12:37:50Z</time></trkpt>
<trkpt lat="54.2451750000" lon="-2.2454950000"><ele>570</ele><time>2013-11-17T12:37:51Z</time></trkpt>
<trkpt lat="54.2451760000" lon="-2.2454730000"><ele>570</ele><time>2013-11-17T12:37:52Z</time></trkpt>
<trkpt lat="54.2451800000" lon="-2.2454500000"><ele>570</ele><time>2013-11-17T12:37:53Z</time></trkpt>
<trkpt lat="54.2451850000" lon="-2.2454250000"><ele>570</ele><time>2013-11-17T12:37:54Z</time></trkpt>
<trkpt lat="54.2451880000" lon="-2.2454010000"><ele>570</ele><time>2013-11-17T12:37:55Z</time></trkpt>
<trkpt lat="54.2451920000" lon="-2.2453790000"><ele>570</ele><time>2013-11-17T12:37:56Z</time></trkpt>
<trkpt lat="54.2451950000" lon="-2.2453560000"><ele>570</ele><time>2013-11-17T12:37:57Z</time></trkpt>
<trkpt lat="54.2452000000" lon="-2.2453360000"><ele>570</ele><time>2013-11-17T12:37:58Z</time></trkpt>
<trkpt lat="54.2452040000" lon="-2.2453160000"><ele>570</ele><time>2013-11-17T12:37:59Z</time></trkpt>
<trkpt lat="54.2452080000" lon="-2.2452970000"><ele>570</ele><time>2013-11-17T12:38:00Z</time></trkpt>
<trkpt lat="54.2452130000" lon="-2.2452770000"><ele>570</ele><time>2013-11-17T12:38:01Z</time></trkpt>
<trkpt lat="54.2452160000" lon="-2.2452550000"><ele>570</ele><time>2013-11-17T12:38:02Z</time></trkpt>
<trkpt lat="54.2452180000" lon="-2.2452340000"><ele>570</ele><time>2013-11-17T12:38:03Z</time></trkpt>
<trkpt lat="54.2452200000" lon="-2.2452120000"><ele>570</ele><time>2013-11-17T12:38:04Z</time></trkpt>
<trkpt lat="54.2452230000" lon="-2.2451910000"><ele>570</ele><time>2013-11-17T12:38:05Z</time></trkpt>
<trkpt lat="54.2452260000" lon="-2.2451690000"><ele>570</ele><time>2013-11-17T12:38:06Z</time></trkpt>
<trkpt lat="54.2452290000" lon="-2.2451470000"><ele>570</ele><time>2013-11-17T12:38:07Z</time></trkpt>
<trkpt lat="54.2452330000" lon="-2.2451250000"><ele>570</ele><time>2013-11-17T12:38:08Z</time></trkpt>
<trkpt lat="54.2452370000" lon="-2.2451040000"><ele>570</ele><time>2013-11-17T12:38:09Z</time></trkpt>
<trkpt lat="54.2452390000" lon="-2.2450860000"><ele>570</ele><time>2013-11-17T12:38:10Z</time></trkpt>
<trkpt lat="54.2452430000" lon="-2.2450660000"><ele>570</ele><time>2013-11-17T12:38:11Z</time></trkpt>
<trkpt lat="54.2452470000" lon="-2.2450460000"><ele>570</ele><time>2013-11-17T12:38:12Z</time></trkpt>
<trkpt lat="54.2452500000" lon="-2.2450240000"><ele>570</ele><time>2013-11-17T12:38:13Z</time></trkpt>
<trkpt lat="54.2452530000" lon="-2.2450050000"><ele>570</ele><time>2013-11-17T12:38:14Z</time></trkpt>
<trkpt lat="54.2452550000" lon="-2.2449840000"><ele>570</ele><time>2013-11-17T12:38:15Z</time></trkpt>
<trkpt lat="54.2452590000" lon="-2.2449650000"><ele>570</ele><time>2013-11-17T12:38:16Z</time></trkpt>
<trkpt lat="54.2452620000" lon="-2.2449490000"><ele>570</ele><time>2013-11-17T12:38:17Z</time></trkpt>
<trkpt lat="54.2452680000" lon="-2.2449320000"><ele>570</ele><time>2013-11-17T12:38:18Z</time></trkpt>
<trkpt lat="54.2452720000" lon="-2.2449150000"><ele>570</ele><time>2013-11-17T12:38:19Z</time></trkpt>
<trkpt lat="54.2452760000" lon="-2.2448960000"><ele>570</ele><time>2013-11-17T12:38:20Z</time></trkpt>
<trkpt lat="54.2452810000" lon="-2.2448740000"><ele>570</ele><time>2013-11-17T12:38:21Z</time></trkpt>
<trkpt lat="54.2452850000" lon="-2.2448520000"><ele>570</ele><time>2013-11-17T12:38:22Z</time></trkpt>
<trkpt lat="54.2452870000" lon="-2.2448300000"><ele>570</ele><time>2013-11-17T12:38:23Z</time></trkpt>
<trkpt lat="54.2452890000" lon="-2.2448090000"><ele>570</ele><time>2013-11-17T12:38:24Z</time></trkpt>
<trkpt lat="54.2452920000" lon="-2.2447900000"><ele>570</ele><time>2013-11-17T12:38:25Z</time></trkpt>
<trkpt lat="54.2452930000" lon="-2.2447690000"><ele>570</ele><time>2013-11-17T12:38:26Z</time></trkpt>
<trkpt lat="54.2452970000" lon="-2.2447480000"><ele>570</ele><time>2013-11-17T12:38:27Z</time></trkpt>
<trkpt lat="54.2453010000" lon="-2.2447260000"><ele>570</ele><time>2013-11-17T12:38:28Z</time></trkpt>
<trkpt lat="54.2453050000" lon="-2.2447030000"><ele>570</ele><time>2013-11-17T12:38:29Z</time></trkpt>
<trkpt lat="54.2453080000" lon="-2.2446790000"><ele>570</ele><time>2013-11-17T12:38:30Z</time></trkpt>
<trkpt lat="54.2453110000" lon="-2.2446560000"><ele>570</ele><time>2013-11-17T12:38:31Z</time></trkpt>
<trkpt lat="54.2453150000" lon="-2.2446360000"><ele>570</ele><time>2013-11-17T12:38:32Z</time></trkpt>
<trkpt lat="54.2453180000" lon="-2.2446190000"><ele>570</ele><time>2013-11-17T12:38:33Z</time></trkpt>
<trkpt lat="54.2453230000" lon="-2.2446000000"><ele>570</ele><time>2013-11-17T12:38:34Z</time></trkpt>
<trkpt lat="54.2453270000" lon="-2.2445800000"><ele>570</ele><time>2013-11-17T12:38:35Z</time></trkpt>
<trkpt lat="54.2453320000" lon="-2.2445570000"><ele>570</ele><time>2013-11-17T12:38:36Z</time></trkpt>
<trkpt lat="54.2453370000" lon="-2.2445340000"><ele>570</ele><time>2013-11-17T12:38:37Z</time></trkpt>
<trkpt lat="54.2453420000" lon="-2.2445130000"><ele>570</ele><time>2013-11-17T12:38:38Z</time></trkpt>
<trkpt lat="54.2453460000" lon="-2.2444880000"><ele>570</ele><time>2013-11-17T12:38:39Z</time></trkpt>
<trkpt lat="54.2453490000" lon="-2.2444640000"><ele>570</ele><time>2013-11-17T12:38:40Z</time></trkpt>
<trkpt lat="54.2453530000" lon="-2.2444400000"><ele>570</ele><time>2013-11-17T12:38:41Z</time></trkpt>
<trkpt lat="54.2453570000" lon="-2.2444150000"><ele>570</ele><time>2013-11-17T12:38:42Z</time></trkpt>
<trkpt lat="54.2453610000" lon="-2.2443920000"><ele>570</ele><time>2013-11-17T12:38:43Z</time></trkpt>
<trkpt lat="54.2453650000" lon="-2.2443690000"><ele>570</ele><time>2013-11-17T12:38:44Z</time></trkpt>
<trkpt lat="54.2453680000" lon="-2.2443480000"><ele>570</ele><time>2013-11-17T12:38:45Z</time></trkpt>
<trkpt lat="54.2453740000" lon="-2.2443310000"><ele>570</ele><time>2013-11-17T12:38:46Z</time></trkpt>
<trkpt lat="54.2453910000" lon="-2.2442990000"><ele>570</ele><time>2013-11-17T12:38:48Z</time></trkpt>
<trkpt lat="54.2453990000" lon="-2.2442520000"><ele>570</ele><time>2013-11-17T12:38:50Z</time></trkpt>
<trkpt lat="54.2454040000" lon="-2.2441790000"><ele>570</ele><time>2013-11-17T12:38:53Z</time></trkpt>
<trkpt lat="54.2454220000" lon="-2.2441310000"><ele>570</ele><time>2013-11-17T12:38:55Z</time></trkpt>
<trkpt lat="54.2454330000" lon="-2.2440730000"><ele>570</ele><time>2013-11-17T12:38:58Z</time></trkpt>
<trkpt lat="54.2454440000" lon="-2.2440190000"><ele>570</ele><time>2013-11-17T12:39:01Z</time></trkpt>
<trkpt lat="54.2454580000" lon="-2.2439530000"><ele>564</ele><time>2013-11-17T12:39:04Z</time></trkpt>
<trkpt lat="54.2454660000" lon="-2.2439110000"><ele>564</ele><time>2013-11-17T12:39:06Z</time></trkpt>
<trkpt lat="54.2454760000" lon="-2.2438480000"><ele>564</ele><time>2013-11-17T12:39:09Z</time></trkpt>
<trkpt lat="54.2454810000" lon="-2.2437940000"><ele>564</ele><time>2013-11-17T12:39:11Z</time></trkpt>
<trkpt lat="54.2454860000" lon="-2.2437190000"><ele>564</ele><time>2013-11-17T12:39:14Z</time></trkpt>
<trkpt lat="54.2455050000" lon="-2.2436510000"><ele>564</ele><time>2013-11-17T12:39:17Z</time></trkpt>
<trkpt lat="54.2455120000" lon="-2.2435930000"><ele>564</ele><time>2013-11-17T12:39:19Z</time></trkpt>
<trkpt lat="54.2455360000" lon="-2.2435330000"><ele>564</ele><time>2013-11-17T12:39:22Z</time></trkpt>
<trkpt lat="54.2455510000" lon="-2.2434900000"><ele>564</ele><time>2013-11-17T12:39:24Z</time></trkpt>
<trkpt lat="54.2455640000" lon="-2.2434350000"><ele>564</ele><time>2013-11-17T12:39:27Z</time></trkpt>
<trkpt lat="54.2455650000" lon="-2.2433810000"><ele>564</ele><time>2013-11-17T12:39:29Z</time></trkpt>
<trkpt lat="54.2455720000" lon="-2.2433250000"><ele>564</ele><time>2013-11-17T12:39:32Z</time></trkpt>
<trkpt lat="54.2455870000" lon="-2.2432710000"><ele>564</ele><time>2013-11-17T12:39:35Z</time></trkpt>
<trkpt lat="54.2456020000" lon="-2.2432240000"><ele>564</ele><time>2013-11-17T12:39:38Z</time></trkpt>
<trkpt lat="54.2456140000" lon="-2.2431620000"><ele>564</ele><time>2013-11-17T12:39:41Z</time></trkpt>
<trkpt lat="54.2456150000" lon="-2.2431040000"><ele>564</ele><time>2013-11-17T12:39:44Z</time></trkpt>
<trkpt lat="54.2456220000" lon="-2.2430520000"><ele>564</ele><time>2013-11-17T12:39:47Z</time></trkpt>
<trkpt lat="54.2456320000" lon="-2.2430020000"><ele>564</ele><time>2013-11-17T12:39:50Z</time></trkpt>
<trkpt lat="54.2456380000" lon="-2.2429400000"><ele>564</ele><time>2013-11-17T12:39:53Z</time></trkpt>
<trkpt lat="54.2456430000" lon="-2.2428990000"><ele>564</ele><time>2013-11-17T12:39:55Z</time></trkpt>
<trkpt lat="54.2456430000" lon="-2.2428480000"><ele>564</ele><time>2013-11-17T12:39:57Z</time></trkpt>
<trkpt lat="54.2456460000" lon="-2.2428030000"><ele>564</ele><time>2013-11-17T12:39:59Z</time></trkpt>
<trkpt lat="54.2456570000" lon="-2.2427560000"><ele>564</ele><time>2013-11-17T12:40:02Z</time></trkpt>
<trkpt lat="54.2456600000" lon="-2.2427070000"><ele>564</ele><time>2013-11-17T12:40:04Z</time></trkpt>
<trkpt lat="54.2456680000" lon="-2.2426500000"><ele>564</ele><time>2013-11-17T12:40:06Z</time></trkpt>
<trkpt lat="54.2456820000" lon="-2.2425950000"><ele>564</ele><time>2013-11-17T12:40:09Z</time></trkpt>
<trkpt lat="54.2456920000" lon="-2.2425410000"><ele>564</ele><time>2013-11-17T12:40:12Z</time></trkpt>
<trkpt lat="54.2457010000" lon="-2.2424730000"><ele>564</ele><time>2013-11-17T12:40:16Z</time></trkpt>
<trkpt lat="54.2457170000" lon="-2.2424350000"><ele>564</ele><time>2013-11-17T12:40:18Z</time></trkpt>
<trkpt lat="54.2457350000" lon="-2.2424000000"><ele>564</ele><time>2013-11-17T12:40:20Z</time></trkpt>
<trkpt lat="54.2457490000" lon="-2.2423550000"><ele>564</ele><time>2013-11-17T12:40:23Z</time></trkpt>
<trkpt lat="54.2457610000" lon="-2.2422870000"><ele>564</ele><time>2013-11-17T12:40:26Z</time></trkpt>
<trkpt lat="54.2457620000" lon="-2.2422200000"><ele>564</ele><time>2013-11-17T12:40:29Z</time></trkpt>
<trkpt lat="54.2457690000" lon="-2.2421590000"><ele>564</ele><time>2013-11-17T12:40:32Z</time></trkpt>
<trkpt lat="54.2457760000" lon="-2.2420910000"><ele>564</ele><time>2013-11-17T12:40:35Z</time></trkpt>
<trkpt lat="54.2457910000" lon="-2.2420410000"><ele>564</ele><time>2013-11-17T12:40:37Z</time></trkpt>
<trkpt lat="54.2458060000" lon="-2.2419760000"><ele>564</ele><time>2013-11-17T12:40:40Z</time></trkpt>
<trkpt lat="54.2458210000" lon="-2.2419120000"><ele>564</ele><time>2013-11-17T12:40:43Z</time></trkpt>
<trkpt lat="54.2458320000" lon="-2.2418690000"><ele>564</ele><time>2013-11-17T12:40:45Z</time></trkpt>
<trkpt lat="54.2458420000" lon="-2.2418260000"><ele>564</ele><time>2013-11-17T12:40:47Z</time></trkpt>
<trkpt lat="54.2458520000" lon="-2.2417620000"><ele>564</ele><time>2013-11-17T12:40:50Z</time></trkpt>
<trkpt lat="54.2458620000" lon="-2.2417020000"><ele>564</ele><time>2013-11-17T12:40:53Z</time></trkpt>
<trkpt lat="54.2458550000" lon="-2.2416390000"><ele>564</ele><time>2013-11-17T12:41:03Z</time></trkpt>
<trkpt lat="54.2458410000" lon="-2.2415870000"><ele>564</ele><time>2013-11-17T12:41:10Z</time></trkpt>
<trkpt lat="54.2458290000" lon="-2.2415780000"><ele>564</ele><time>2013-11-17T12:41:36Z</time></trkpt>
<trkpt lat="54.2458310000" lon="-2.2415770000"><ele>564</ele><time>2013-11-17T12:41:37Z</time></trkpt>
<trkpt lat="54.2458310000" lon="-2.2415750000"><ele>564</ele><time>2013-11-17T12:41:38Z</time></trkpt>
<trkpt lat="54.2458320000" lon="-2.2415750000"><ele>564</ele><time>2013-11-17T12:41:39Z</time></trkpt>
<trkpt lat="54.2458340000" lon="-2.2415720000"><ele>564</ele><time>2013-11-17T12:41:40Z</time></trkpt>
<trkpt lat="54.2458340000" lon="-2.2415690000"><ele>564</ele><time>2013-11-17T12:41:41Z</time></trkpt>
<trkpt lat="54.2458350000" lon="-2.2415680000"><ele>564</ele><time>2013-11-17T12:41:42Z</time></trkpt>
<trkpt lat="54.2458350000" lon="-2.2415670000"><ele>564</ele><time>2013-11-17T12:41:43Z</time></trkpt>
<trkpt lat="54.2458360000" lon="-2.2415660000"><ele>564</ele><time>2013-11-17T12:41:44Z</time></trkpt>
<trkpt lat="54.2458360000" lon="-2.2415640000"><ele>564</ele><time>2013-11-17T12:41:45Z</time></trkpt>
<trkpt lat="54.2458360000" lon="-2.2415640000"><ele>564</ele><time>2013-11-17T12:41:46Z</time></trkpt>
<trkpt lat="54.2458360000" lon="-2.2415650000"><ele>564</ele><time>2013-11-17T12:41:47Z</time></trkpt>
<trkpt lat="54.2458360000" lon="-2.2415650000"><ele>564</ele><time>2013-11-17T12:41:48Z</time></trkpt>
<trkpt lat="54.2458350000" lon="-2.2415630000"><ele>564</ele><time>2013-11-17T12:41:50Z</time></trkpt>
<trkpt lat="54.2458360000" lon="-2.2415630000"><ele>564</ele><time>2013-11-17T12:41:51Z</time></trkpt>
<trkpt lat="54.2458370000" lon="-2.2415660000"><ele>564</ele><time>2013-11-17T12:41:52Z</time></trkpt>
<trkpt lat="54.2458370000" lon="-2.2415680000"><ele>564</ele><time>2013-11-17T12:41:53Z</time></trkpt>
<trkpt lat="54.2458370000" lon="-2.2415690000"><ele>564</ele><time>2013-11-17T12:41:54Z</time></trkpt>
<trkpt lat="54.2458380000" lon="-2.2415690000"><ele>564</ele><time>2013-11-17T12:41:55Z</time></trkpt>
<trkpt lat="54.2458380000" lon="-2.2415690000"><ele>564</ele><time>2013-11-17T12:41:56Z</time></trkpt>
<trkpt lat="54.2458380000" lon="-2.2415690000"><ele>564</ele><time>2013-11-17T12:41:57Z</time></trkpt>
<trkpt lat="54.2458380000" lon="-2.2415690000"><ele>564</ele><time>2013-11-17T12:41:58Z</time></trkpt>
<trkpt lat="54.2458380000" lon="-2.2415690000"><ele>564</ele><time>2013-11-17T12:41:59Z</time></trkpt>
<trkpt lat="54.2458380000" lon="-2.2415690000"><ele>564</ele><time>2013-11-17T12:42:00Z</time></trkpt>
<trkpt lat="54.2458380000" lon="-2.2415690000"><ele>564</ele><time>2013-11-17T12:42:02Z</time></trkpt>
<trkpt lat="54.2458380000" lon="-2.2415690000"><ele>564</ele><time>2013-11-17T12:42:03Z</time></trkpt>
<trkpt lat="54.2458390000" lon="-2.2415690000"><ele>564</ele><time>2013-11-17T12:42:04Z</time></trkpt>
<trkpt lat="54.2458390000" lon="-2.2415690000"><ele>564</ele><time>2013-11-17T12:42:06Z</time></trkpt>
<trkpt lat="54.2458380000" lon="-2.2415690000"><ele>564</ele><time>2013-11-17T12:42:07Z</time></trkpt>
<trkpt lat="54.2458380000" lon="-2.2415690000"><ele>564</ele><time>2013-11-17T12:42:08Z</time></trkpt>
<trkpt lat="54.2458380000" lon="-2.2415700000"><ele>564</ele><time>2013-11-17T12:42:09Z</time></trkpt>
<trkpt lat="54.2458380000" lon="-2.2415700000"><ele>564</ele><time>2013-11-17T12:42:10Z</time></trkpt>
<trkpt lat="54.2458380000" lon="-2.2415700000"><ele>564</ele><time>2013-11-17T12:42:11Z</time></trkpt>
<trkpt lat="54.2458380000" lon="-2.2415700000"><ele>564</ele><time>2013-11-17T12:42:12Z</time></trkpt>
<trkpt lat="54.2458380000" lon="-2.2415700000"><ele>564</ele><time>2013-11-17T12:42:13Z</time></trkpt>
<trkpt lat="54.2458370000" lon="-2.2415680000"><ele>564</ele><time>2013-11-17T12:42:14Z</time></trkpt>
<trkpt lat="54.2458370000" lon="-2.2415680000"><ele>564</ele><time>2013-11-17T12:42:15Z</time></trkpt>
<trkpt lat="54.2458370000" lon="-2.2415680000"><ele>564</ele><time>2013-11-17T12:42:16Z</time></trkpt>
<trkpt lat="54.2458360000" lon="-2.2415680000"><ele>564</ele><time>2013-11-17T12:42:17Z</time></trkpt>
<trkpt lat="54.2458350000" lon="-2.2415680000"><ele>564</ele><time>2013-11-17T12:42:18Z</time></trkpt>
<trkpt lat="54.2458340000" lon="-2.2415690000"><ele>564</ele><time>2013-11-17T12:42:19Z</time></trkpt>
<trkpt lat="54.2458340000" lon="-2.2415690000"><ele>564</ele><time>2013-11-17T12:42:20Z</time></trkpt>
<trkpt lat="54.2458340000" lon="-2.2415680000"><ele>564</ele><time>2013-11-17T12:42:21Z</time></trkpt>
<trkpt lat="54.2458340000" lon="-2.2415680000"><ele>564</ele><time>2013-11-17T12:42:22Z</time></trkpt>
<trkpt lat="54.2458340000" lon="-2.2415690000"><ele>564</ele><time>2013-11-17T12:42:23Z</time></trkpt>
<trkpt lat="54.2458350000" lon="-2.2415710000"><ele>564</ele><time>2013-11-17T12:42:24Z</time></trkpt>
<trkpt lat="54.2458350000" lon="-2.2415710000"><ele>564</ele><time>2013-11-17T12:42:25Z</time></trkpt>
<trkpt lat="54.2458350000" lon="-2.2415710000"><ele>564</ele><time>2013-11-17T12:42:26Z</time></trkpt>
<trkpt lat="54.2458350000" lon="-2.2415700000"><ele>564</ele><time>2013-11-17T12:42:27Z</time></trkpt>
<trkpt lat="54.2458360000" lon="-2.2415700000"><ele>564</ele><time>2013-11-17T12:42:28Z</time></trkpt>
<trkpt lat="54.2458360000" lon="-2.2415700000"><ele>564</ele><time>2013-11-17T12:42:29Z</time></trkpt>
<trkpt lat="54.2458360000" lon="-2.2415690000"><ele>564</ele><time>2013-11-17T12:42:30Z</time></trkpt>
<trkpt lat="54.2458360000" lon="-2.2415690000"><ele>564</ele><time>2013-11-17T12:42:31Z</time></trkpt>
<trkpt lat="54.2458360000" lon="-2.2415680000"><ele>564</ele><time>2013-11-17T12:42:32Z</time></trkpt>
<trkpt lat="54.2458350000" lon="-2.2415670000"><ele>564</ele><time>2013-11-17T12:42:33Z</time></trkpt>
<trkpt lat="54.2458350000" lon="-2.2415660000"><ele>564</ele><time>2013-11-17T12:42:34Z</time></trkpt>
<trkpt lat="54.2458350000" lon="-2.2415660000"><ele>564</ele><time>2013-11-17T12:42:35Z</time></trkpt>
<trkpt lat="54.2458350000" lon="-2.2415660000"><ele>564</ele><time>2013-11-17T12:42:36Z</time></trkpt>
<trkpt lat="54.2458350000" lon="-2.2415660000"><ele>564</ele><time>2013-11-17T12:42:38Z</time></trkpt>
<trkpt lat="54.2458340000" lon="-2.2415660000"><ele>564</ele><time>2013-11-17T12:42:39Z</time></trkpt>
<trkpt lat="54.2458340000" lon="-2.2415660000"><ele>564</ele><time>2013-11-17T12:42:40Z</time></trkpt>
<trkpt lat="54.2458340000" lon="-2.2415660000"><ele>564</ele><time>2013-11-17T12:42:42Z</time></trkpt>
<trkpt lat="54.2458340000" lon="-2.2415670000"><ele>564</ele><time>2013-11-17T12:42:43Z</time></trkpt>
<trkpt lat="54.2458340000" lon="-2.2415670000"><ele>564</ele><time>2013-11-17T12:42:44Z</time></trkpt>
<trkpt lat="54.2458340000" lon="-2.2415670000"><ele>564</ele><time>2013-11-17T12:42:45Z</time></trkpt>
<trkpt lat="54.2458340000" lon="-2.2415670000"><ele>564</ele><time>2013-11-17T12:42:46Z</time></trkpt>
<trkpt lat="54.2458340000" lon="-2.2415680000"><ele>564</ele><time>2013-11-17T12:42:47Z</time></trkpt>
<trkpt lat="54.2458340000" lon="-2.2415680000"><ele>564</ele><time>2013-11-17T12:42:48Z</time></trkpt>
<trkpt lat="54.2458340000" lon="-2.2415680000"><ele>564</ele><time>2013-11-17T12:42:49Z</time></trkpt>
<trkpt lat="54.2458340000" lon="-2.2415690000"><ele>564</ele><time>2013-11-17T12:42:50Z</time></trkpt>
<trkpt lat="54.2458340000" lon="-2.2415690000"><ele>564</ele><time>2013-11-17T12:42:51Z</time></trkpt>
<trkpt lat="54.2458340000" lon="-2.2415690000"><ele>564</ele><time>2013-11-17T12:42:52Z</time></trkpt>
<trkpt lat="54.2458340000" lon="-2.2415700000"><ele>564</ele><time>2013-11-17T12:42:53Z</time></trkpt>
<trkpt lat="54.2458340000" lon="-2.2415700000"><ele>564</ele><time>2013-11-17T12:42:54Z</time></trkpt>
<trkpt lat="54.2458340000" lon="-2.2415700000"><ele>564</ele><time>2013-11-17T12:42:55Z</time></trkpt>
<trkpt lat="54.2458340000" lon="-2.2415710000"><ele>564</ele><time>2013-11-17T12:42:56Z</time></trkpt>
<trkpt lat="54.2458340000" lon="-2.2415710000"><ele>564</ele><time>2013-11-17T12:42:57Z</time></trkpt>
<trkpt lat="54.2458340000" lon="-2.2415710000"><ele>564</ele><time>2013-11-17T12:42:58Z</time></trkpt>
<trkpt lat="54.2458340000" lon="-2.2415720000"><ele>564</ele><time>2013-11-17T12:42:59Z</time></trkpt>
<trkpt lat="54.2458330000" lon="-2.2415740000"><ele>564</ele><time>2013-11-17T12:43:00Z</time></trkpt>
<trkpt lat="54.2458330000" lon="-2.2415750000"><ele>564</ele><time>2013-11-17T12:43:01Z</time></trkpt>
<trkpt lat="54.2458320000" lon="-2.2415760000"><ele>564</ele><time>2013-11-17T12:43:02Z</time></trkpt>
<trkpt lat="54.2458320000" lon="-2.2415760000"><ele>564</ele><time>2013-11-17T12:43:03Z</time></trkpt>
<trkpt lat="54.2458330000" lon="-2.2415750000"><ele>564</ele><time>2013-11-17T12:43:04Z</time></trkpt>
<trkpt lat="54.2458340000" lon="-2.2415750000"><ele>564</ele><time>2013-11-17T12:43:05Z</time></trkpt>
<trkpt lat="54.2458340000" lon="-2.2415750000"><ele>564</ele><time>2013-11-17T12:43:06Z</time></trkpt>
<trkpt lat="54.2458340000" lon="-2.2415750000"><ele>564</ele><time>2013-11-17T12:43:07Z</time></trkpt>
<trkpt lat="54.2458340000" lon="-2.2415750000"><ele>564</ele><time>2013-11-17T12:43:08Z</time></trkpt>
<trkpt lat="54.2458340000" lon="-2.2415760000"><ele>564</ele><time>2013-11-17T12:43:09Z</time></trkpt>
<trkpt lat="54.2458340000" lon="-2.2415770000"><ele>564</ele><time>2013-11-17T12:43:10Z</time></trkpt>
<trkpt lat="54.2458340000" lon="-2.2415780000"><ele>564</ele><time>2013-11-17T12:43:11Z</time></trkpt>
<trkpt lat="54.2458340000" lon="-2.2415780000"><ele>564</ele><time>2013-11-17T12:43:12Z</time></trkpt>
<trkpt lat="54.2458340000" lon="-2.2415780000"><ele>564</ele><time>2013-11-17T12:43:13Z</time></trkpt>
<trkpt lat="54.2458350000" lon="-2.2415780000"><ele>564</ele><time>2013-11-17T12:43:14Z</time></trkpt>
<trkpt lat="54.2458350000" lon="-2.2415770000"><ele>564</ele><time>2013-11-17T12:43:15Z</time></trkpt>
<trkpt lat="54.2458350000" lon="-2.2415770000"><ele>564</ele><time>2013-11-17T12:43:16Z</time></trkpt>
<trkpt lat="54.2458350000" lon="-2.2415780000"><ele>564</ele><time>2013-11-17T12:43:17Z</time></trkpt>
<trkpt lat="54.2458360000" lon="-2.2415780000"><ele>564</ele><time>2013-11-17T12:43:18Z</time></trkpt>
<trkpt lat="54.2458360000" lon="-2.2415790000"><ele>564</ele><time>2013-11-17T12:43:19Z</time></trkpt>
<trkpt lat="54.2458350000" lon="-2.2415800000"><ele>564</ele><time>2013-11-17T12:43:20Z</time></trkpt>
<trkpt lat="54.2458350000" lon="-2.2415810000"><ele>564</ele><time>2013-11-17T12:43:21Z</time></trkpt>
<trkpt lat="54.2458360000" lon="-2.2415800000"><ele>564</ele><time>2013-11-17T12:43:22Z</time></trkpt>
<trkpt lat="54.2458360000" lon="-2.2415800000"><ele>564</ele><time>2013-11-17T12:43:23Z</time></trkpt>
<trkpt lat="54.2458360000" lon="-2.2415800000"><ele>564</ele><time>2013-11-17T12:43:24Z</time></trkpt>
<trkpt lat="54.2458360000" lon="-2.2415810000"><ele>564</ele><time>2013-11-17T12:43:25Z</time></trkpt>
<trkpt lat="54.2458360000" lon="-2.2415820000"><ele>564</ele><time>2013-11-17T12:43:26Z</time></trkpt>
<trkpt lat="54.2458350000" lon="-2.2415830000"><ele>564</ele><time>2013-11-17T12:43:27Z</time></trkpt>
<trkpt lat="54.2458350000" lon="-2.2415830000"><ele>564</ele><time>2013-11-17T12:43:28Z</time></trkpt>
<trkpt lat="54.2458350000" lon="-2.2415830000"><ele>564</ele><time>2013-11-17T12:43:29Z</time></trkpt>
<trkpt lat="54.2458350000" lon="-2.2415840000"><ele>564</ele><time>2013-11-17T12:43:30Z</time></trkpt>
<trkpt lat="54.2458340000" lon="-2.2415840000"><ele>564</ele><time>2013-11-17T12:43:31Z</time></trkpt>
<trkpt lat="54.2458340000" lon="-2.2415850000"><ele>564</ele><time>2013-11-17T12:43:32Z</time></trkpt>
<trkpt lat="54.2458330000" lon="-2.2415850000"><ele>564</ele><time>2013-11-17T12:43:33Z</time></trkpt>
<trkpt lat="54.2458330000" lon="-2.2415850000"><ele>564</ele><time>2013-11-17T12:43:34Z</time></trkpt>
<trkpt lat="54.2458340000" lon="-2.2415850000"><ele>564</ele><time>2013-11-17T12:43:35Z</time></trkpt>
<trkpt lat="54.2458340000" lon="-2.2415850000"><ele>564</ele><time>2013-11-17T12:43:36Z</time></trkpt>
<trkpt lat="54.2458340000" lon="-2.2415850000"><ele>564</ele><time>2013-11-17T12:43:37Z</time></trkpt>
<trkpt lat="54.2458350000" lon="-2.2415850000"><ele>564</ele><time>2013-11-17T12:43:38Z</time></trkpt>
<trkpt lat="54.2458350000" lon="-2.2415850000"><ele>564</ele><time>2013-11-17T12:43:39Z</time></trkpt>
<trkpt lat="54.2458350000" lon="-2.2415850000"><ele>564</ele><time>2013-11-17T12:43:40Z</time></trkpt>
<trkpt lat="54.2458350000" lon="-2.2415850000"><ele>564</ele><time>2013-11-17T12:43:41Z</time></trkpt>
<trkpt lat="54.2458340000" lon="-2.2415850000"><ele>564</ele><time>2013-11-17T12:43:42Z</time></trkpt>
<trkpt lat="54.2458330000" lon="-2.2415840000"><ele>564</ele><time>2013-11-17T12:43:43Z</time></trkpt>
<trkpt lat="54.2458330000" lon="-2.2415830000"><ele>564</ele><time>2013-11-17T12:43:44Z</time></trkpt>
<trkpt lat="54.2458320000" lon="-2.2415820000"><ele>564</ele><time>2013-11-17T12:43:45Z</time></trkpt>
<trkpt lat="54.2458320000" lon="-2.2415810000"><ele>564</ele><time>2013-11-17T12:43:46Z</time></trkpt>
<trkpt lat="54.2458320000" lon="-2.2415800000"><ele>564</ele><time>2013-11-17T12:43:47Z</time></trkpt>
<trkpt lat="54.2458320000" lon="-2.2415790000"><ele>564</ele><time>2013-11-17T12:43:48Z</time></trkpt>
<trkpt lat="54.2458330000" lon="-2.2415790000"><ele>564</ele><time>2013-11-17T12:43:49Z</time></trkpt>
<trkpt lat="54.2458330000" lon="-2.2415790000"><ele>564</ele><time>2013-11-17T12:43:50Z</time></trkpt>
<trkpt lat="54.2458340000" lon="-2.2415780000"><ele>564</ele><time>2013-11-17T12:43:51Z</time></trkpt>
<trkpt lat="54.2458340000" lon="-2.2415780000"><ele>564</ele><time>2013-11-17T12:43:52Z</time></trkpt>
<trkpt lat="54.2458330000" lon="-2.2415770000"><ele>564</ele><time>2013-11-17T12:43:53Z</time></trkpt>
<trkpt lat="54.2458340000" lon="-2.2415750000"><ele>564</ele><time>2013-11-17T12:43:54Z</time></trkpt>
<trkpt lat="54.2458340000" lon="-2.2415740000"><ele>564</ele><time>2013-11-17T12:43:55Z</time></trkpt>
<trkpt lat="54.2458340000" lon="-2.2415730000"><ele>564</ele><time>2013-11-17T12:43:56Z</time></trkpt>
<trkpt lat="54.2458350000" lon="-2.2415710000"><ele>564</ele><time>2013-11-17T12:43:57Z</time></trkpt>
<trkpt lat="54.2458340000" lon="-2.2415720000"><ele>564</ele><time>2013-11-17T12:43:58Z</time></trkpt>
<trkpt lat="54.2458330000" lon="-2.2415750000"><ele>564</ele><time>2013-11-17T12:43:59Z</time></trkpt>
<trkpt lat="54.2458320000" lon="-2.2415750000"><ele>564</ele><time>2013-11-17T12:44:00Z</time></trkpt>
<trkpt lat="54.2458320000" lon="-2.2415730000"><ele>564</ele><time>2013-11-17T12:44:01Z</time></trkpt>
<trkpt lat="54.2458330000" lon="-2.2415730000"><ele>564</ele><time>2013-11-17T12:44:02Z</time></trkpt>
<trkpt lat="54.2458330000" lon="-2.2415730000"><ele>564</ele><time>2013-11-17T12:44:03Z</time></trkpt>
<trkpt lat="54.2458330000" lon="-2.2415720000"><ele>564</ele><time>2013-11-17T12:44:04Z</time></trkpt>
<trkpt lat="54.2458330000" lon="-2.2415720000"><ele>564</ele><time>2013-11-17T12:44:05Z</time></trkpt>
<trkpt lat="54.2458340000" lon="-2.2415700000"><ele>564</ele><time>2013-11-17T12:44:06Z</time></trkpt>
<trkpt lat="54.2458340000" lon="-2.2415680000"><ele>564</ele><time>2013-11-17T12:44:07Z</time></trkpt>
<trkpt lat="54.2458340000" lon="-2.2415670000"><ele>564</ele><time>2013-11-17T12:44:08Z</time></trkpt>
<trkpt lat="54.2458340000" lon="-2.2415670000"><ele>564</ele><time>2013-11-17T12:44:09Z</time></trkpt>
<trkpt lat="54.2458340000" lon="-2.2415670000"><ele>564</ele><time>2013-11-17T12:44:10Z</time></trkpt>
<trkpt lat="54.2458340000" lon="-2.2415650000"><ele>564</ele><time>2013-11-17T12:44:11Z</time></trkpt>
<trkpt lat="54.2458330000" lon="-2.2415630000"><ele>564</ele><time>2013-11-17T12:44:12Z</time></trkpt>
<trkpt lat="54.2458330000" lon="-2.2415630000"><ele>564</ele><time>2013-11-17T12:44:13Z</time></trkpt>
<trkpt lat="54.2458340000" lon="-2.2415620000"><ele>564</ele><time>2013-11-17T12:44:14Z</time></trkpt>
<trkpt lat="54.2458350000" lon="-2.2415610000"><ele>564</ele><time>2013-11-17T12:44:15Z</time></trkpt>
<trkpt lat="54.2458350000" lon="-2.2415580000"><ele>564</ele><time>2013-11-17T12:44:16Z</time></trkpt>
<trkpt lat="54.2458360000" lon="-2.2415550000"><ele>564</ele><time>2013-11-17T12:44:17Z</time></trkpt>
<trkpt lat="54.2458370000" lon="-2.2415520000"><ele>564</ele><time>2013-11-17T12:44:18Z</time></trkpt>
<trkpt lat="54.2458360000" lon="-2.2415520000"><ele>564</ele><time>2013-11-17T12:44:19Z</time></trkpt>
<trkpt lat="54.2458360000" lon="-2.2415520000"><ele>564</ele><time>2013-11-17T12:44:20Z</time></trkpt>
<trkpt lat="54.2458360000" lon="-2.2415530000"><ele>564</ele><time>2013-11-17T12:44:21Z</time></trkpt>
<trkpt lat="54.2458370000" lon="-2.2415520000"><ele>564</ele><time>2013-11-17T12:44:22Z</time></trkpt>
<trkpt lat="54.2458390000" lon="-2.2415470000"><ele>564</ele><time>2013-11-17T12:44:23Z</time></trkpt>
<trkpt lat="54.2458420000" lon="-2.2415420000"><ele>564</ele><time>2013-11-17T12:44:24Z</time></trkpt>
<trkpt lat="54.2458440000" lon="-2.2415380000"><ele>564</ele><time>2013-11-17T12:44:25Z</time></trkpt>
<trkpt lat="54.2458460000" lon="-2.2415330000"><ele>564</ele><time>2013-11-17T12:44:26Z</time></trkpt>
<trkpt lat="54.2458480000" lon="-2.2415320000"><ele>564</ele><time>2013-11-17T12:44:27Z</time></trkpt>
<trkpt lat="54.2458490000" lon="-2.2415320000"><ele>564</ele><time>2013-11-17T12:44:28Z</time></trkpt>
<trkpt lat="54.2458490000" lon="-2.2415330000"><ele>564</ele><time>2013-11-17T12:44:29Z</time></trkpt>
<trkpt lat="54.2458500000" lon="-2.2415320000"><ele>564</ele><time>2013-11-17T12:44:30Z</time></trkpt>
<trkpt lat="54.2458500000" lon="-2.2415310000"><ele>564</ele><time>2013-11-17T12:44:31Z</time></trkpt>
<trkpt lat="54.2458500000" lon="-2.2415290000"><ele>564</ele><time>2013-11-17T12:44:32Z</time></trkpt>
<trkpt lat="54.2458500000" lon="-2.2415290000"><ele>564</ele><time>2013-11-17T12:44:33Z</time></trkpt>
<trkpt lat="54.2458460000" lon="-2.2415400000"><ele>564</ele><time>2013-11-17T12:44:40Z</time></trkpt>
<trkpt lat="54.2458450000" lon="-2.2415400000"><ele>564</ele><time>2013-11-17T12:44:41Z</time></trkpt>
<trkpt lat="54.2458440000" lon="-2.2415410000"><ele>564</ele><time>2013-11-17T12:44:42Z</time></trkpt>
<trkpt lat="54.2458440000" lon="-2.2415410000"><ele>564</ele><time>2013-11-17T12:44:43Z</time></trkpt>
<trkpt lat="54.2458440000" lon="-2.2415400000"><ele>564</ele><time>2013-11-17T12:44:44Z</time></trkpt>
<trkpt lat="54.2458450000" lon="-2.2415370000"><ele>564</ele><time>2013-11-17T12:44:45Z</time></trkpt>
<trkpt lat="54.2458430000" lon="-2.2415360000"><ele>564</ele><time>2013-11-17T12:44:51Z</time></trkpt>
<trkpt lat="54.2458420000" lon="-2.2415380000"><ele>564</ele><time>2013-11-17T12:44:52Z</time></trkpt>
<trkpt lat="54.2458410000" lon="-2.2415400000"><ele>564</ele><time>2013-11-17T12:44:53Z</time></trkpt>
<trkpt lat="54.2458400000" lon="-2.2415430000"><ele>564</ele><time>2013-11-17T12:44:54Z</time></trkpt>
<trkpt lat="54.2458390000" lon="-2.2415470000"><ele>564</ele><time>2013-11-17T12:44:55Z</time></trkpt>
<trkpt lat="54.2458380000" lon="-2.2415490000"><ele>564</ele><time>2013-11-17T12:44:56Z</time></trkpt>
<trkpt lat="54.2458370000" lon="-2.2415510000"><ele>564</ele><time>2013-11-17T12:44:57Z</time></trkpt>
<trkpt lat="54.2458360000" lon="-2.2415530000"><ele>564</ele><time>2013-11-17T12:44:58Z</time></trkpt>
<trkpt lat="54.2458350000" lon="-2.2415540000"><ele>564</ele><time>2013-11-17T12:44:59Z</time></trkpt>
<trkpt lat="54.2458350000" lon="-2.2415550000"><ele>564</ele><time>2013-11-17T12:45:00Z</time></trkpt>
<trkpt lat="54.2458340000" lon="-2.2415550000"><ele>564</ele><time>2013-11-17T12:45:01Z</time></trkpt>
<trkpt lat="54.2458340000" lon="-2.2415560000"><ele>564</ele><time>2013-11-17T12:45:02Z</time></trkpt>
<trkpt lat="54.2458340000" lon="-2.2415580000"><ele>564</ele><time>2013-11-17T12:45:03Z</time></trkpt>
<trkpt lat="54.2458340000" lon="-2.2415600000"><ele>564</ele><time>2013-11-17T12:45:04Z</time></trkpt>
<trkpt lat="54.2458340000" lon="-2.2415610000"><ele>564</ele><time>2013-11-17T12:45:05Z</time></trkpt>
<trkpt lat="54.2458340000" lon="-2.2415620000"><ele>564</ele><time>2013-11-17T12:45:06Z</time></trkpt>
<trkpt lat="54.2458340000" lon="-2.2415640000"><ele>564</ele><time>2013-11-17T12:45:07Z</time></trkpt>
<trkpt lat="54.2458340000" lon="-2.2415640000"><ele>564</ele><time>2013-11-17T12:45:08Z</time></trkpt>
<trkpt lat="54.2458340000" lon="-2.2415650000"><ele>564</ele><time>2013-11-17T12:45:09Z</time></trkpt>
<trkpt lat="54.2458340000" lon="-2.2415660000"><ele>564</ele><time>2013-11-17T12:45:10Z</time></trkpt>
<trkpt lat="54.2458350000" lon="-2.2415660000"><ele>564</ele><time>2013-11-17T12:45:11Z</time></trkpt>
<trkpt lat="54.2458350000" lon="-2.2415660000"><ele>564</ele><time>2013-11-17T12:45:12Z</time></trkpt>
<trkpt lat="54.2458350000" lon="-2.2415660000"><ele>564</ele><time>2013-11-17T12:45:13Z</time></trkpt>
<trkpt lat="54.2458350000" lon="-2.2415670000"><ele>564</ele><time>2013-11-17T12:45:14Z</time></trkpt>
<trkpt lat="54.2458350000" lon="-2.2415670000"><ele>564</ele><time>2013-11-17T12:45:15Z</time></trkpt>
<trkpt lat="54.2458350000" lon="-2.2415670000"><ele>564</ele><time>2013-11-17T12:45:16Z</time></trkpt>
<trkpt lat="54.2458350000" lon="-2.2415670000"><ele>564</ele><time>2013-11-17T12:45:17Z</time></trkpt>
<trkpt lat="54.2458350000" lon="-2.2415670000"><ele>564</ele><time>2013-11-17T12:45:18Z</time></trkpt>
<trkpt lat="54.2458350000" lon="-2.2415670000"><ele>564</ele><time>2013-11-17T12:45:19Z</time></trkpt>
<trkpt lat="54.2458350000" lon="-2.2415670000"><ele>564</ele><time>2013-11-17T12:45:20Z</time></trkpt>
<trkpt lat="54.2458340000" lon="-2.2415670000"><ele>564</ele><time>2013-11-17T12:45:21Z</time></trkpt>
<trkpt lat="54.2458340000" lon="-2.2415670000"><ele>564</ele><time>2013-11-17T12:45:22Z</time></trkpt>
<trkpt lat="54.2458340000" lon="-2.2415670000"><ele>564</ele><time>2013-11-17T12:45:23Z</time></trkpt>
<trkpt lat="54.2458340000" lon="-2.2415670000"><ele>564</ele><time>2013-11-17T12:45:26Z</time></trkpt>
<trkpt lat="54.2458340000" lon="-2.2415670000"><ele>564</ele><time>2013-11-17T12:45:28Z</time></trkpt>
<trkpt lat="54.2458340000" lon="-2.2415670000"><ele>564</ele><time>2013-11-17T12:45:29Z</time></trkpt>
<trkpt lat="54.2458340000" lon="-2.2415680000"><ele>564</ele><time>2013-11-17T12:45:30Z</time></trkpt>
<trkpt lat="54.2458340000" lon="-2.2415680000"><ele>564</ele><time>2013-11-17T12:45:31Z</time></trkpt>
<trkpt lat="54.2458340000" lon="-2.2415680000"><ele>564</ele><time>2013-11-17T12:45:32Z</time></trkpt>
<trkpt lat="54.2458340000" lon="-2.2415680000"><ele>564</ele><time>2013-11-17T12:45:34Z</time></trkpt>
<trkpt lat="54.2458340000" lon="-2.2415680000"><ele>564</ele><time>2013-11-17T12:45:35Z</time></trkpt>
<trkpt lat="54.2458340000" lon="-2.2415680000"><ele>564</ele><time>2013-11-17T12:45:36Z</time></trkpt>
<trkpt lat="54.2458340000" lon="-2.2415680000"><ele>564</ele><time>2013-11-17T12:45:37Z</time></trkpt>
<trkpt lat="54.2458350000" lon="-2.2415680000"><ele>564</ele><time>2013-11-17T12:45:38Z</time></trkpt>
<trkpt lat="54.2458350000" lon="-2.2415680000"><ele>564</ele><time>2013-11-17T12:45:39Z</time></trkpt>
<trkpt lat="54.2458350000" lon="-2.2415680000"><ele>564</ele><time>2013-11-17T12:45:40Z</time></trkpt>
<trkpt lat="54.2458360000" lon="-2.2415690000"><ele>564</ele><time>2013-11-17T12:45:41Z</time></trkpt>
<trkpt lat="54.2458360000" lon="-2.2415690000"><ele>564</ele><time>2013-11-17T12:45:42Z</time></trkpt>
<trkpt lat="54.2458360000" lon="-2.2415690000"><ele>564</ele><time>2013-11-17T12:45:43Z</time></trkpt>
<trkpt lat="54.2458370000" lon="-2.2415690000"><ele>564</ele><time>2013-11-17T12:45:44Z</time></trkpt>
<trkpt lat="54.2458370000" lon="-2.2415690000"><ele>564</ele><time>2013-11-17T12:45:45Z</time></trkpt>
<trkpt lat="54.2458370000" lon="-2.2415690000"><ele>564</ele><time>2013-11-17T12:45:46Z</time></trkpt>
<trkpt lat="54.2458360000" lon="-2.2415690000"><ele>564</ele><time>2013-11-17T12:45:47Z</time></trkpt>
<trkpt lat="54.2458370000" lon="-2.2415690000"><ele>564</ele><time>2013-11-17T12:45:48Z</time></trkpt>
<trkpt lat="54.2458370000" lon="-2.2415690000"><ele>564</ele><time>2013-11-17T12:45:49Z</time></trkpt>
<trkpt lat="54.2458360000" lon="-2.2415690000"><ele>564</ele><time>2013-11-17T12:45:50Z</time></trkpt>
<trkpt lat="54.2458360000" lon="-2.2415700000"><ele>564</ele><time>2013-11-17T12:45:51Z</time></trkpt>
<trkpt lat="54.2458360000" lon="-2.2415690000"><ele>564</ele><time>2013-11-17T12:45:52Z</time></trkpt>
<trkpt lat="54.2458360000" lon="-2.2415690000"><ele>564</ele><time>2013-11-17T12:45:53Z</time></trkpt>
<trkpt lat="54.2458360000" lon="-2.2415690000"><ele>564</ele><time>2013-11-17T12:45:54Z</time></trkpt>
<trkpt lat="54.2458360000" lon="-2.2415700000"><ele>564</ele><time>2013-11-17T12:45:55Z</time></trkpt>
<trkpt lat="54.2458360000" lon="-2.2415710000"><ele>564</ele><time>2013-11-17T12:45:56Z</time></trkpt>
<trkpt lat="54.2458370000" lon="-2.2415720000"><ele>564</ele><time>2013-11-17T12:45:57Z</time></trkpt>
<trkpt lat="54.2458370000" lon="-2.2415720000"><ele>564</ele><time>2013-11-17T12:45:58Z</time></trkpt>
<trkpt lat="54.2458380000" lon="-2.2415730000"><ele>564</ele><time>2013-11-17T12:45:59Z</time></trkpt>
<trkpt lat="54.2458390000" lon="-2.2415730000"><ele>564</ele><time>2013-11-17T12:46:00Z</time></trkpt>
<trkpt lat="54.2458390000" lon="-2.2415730000"><ele>564</ele><time>2013-11-17T12:46:01Z</time></trkpt>
<trkpt lat="54.2458390000" lon="-2.2415740000"><ele>564</ele><time>2013-11-17T12:46:02Z</time></trkpt>
<trkpt lat="54.2458390000" lon="-2.2415730000"><ele>564</ele><time>2013-11-17T12:46:03Z</time></trkpt>
<trkpt lat="54.2458380000" lon="-2.2415720000"><ele>564</ele><time>2013-11-17T12:46:04Z</time></trkpt>
<trkpt lat="54.2458380000" lon="-2.2415720000"><ele>564</ele><time>2013-11-17T12:46:05Z</time></trkpt>
<trkpt lat="54.2458380000" lon="-2.2415710000"><ele>564</ele><time>2013-11-17T12:46:06Z</time></trkpt>
<trkpt lat="54.2458380000" lon="-2.2415710000"><ele>564</ele><time>2013-11-17T12:46:07Z</time></trkpt>
<trkpt lat="54.2458380000" lon="-2.2415700000"><ele>564</ele><time>2013-11-17T12:46:08Z</time></trkpt>
<trkpt lat="54.2458380000" lon="-2.2415700000"><ele>564</ele><time>2013-11-17T12:46:09Z</time></trkpt>
<trkpt lat="54.2458380000" lon="-2.2415700000"><ele>564</ele><time>2013-11-17T12:46:10Z</time></trkpt>
<trkpt lat="54.2458380000" lon="-2.2415700000"><ele>564</ele><time>2013-11-17T12:46:11Z</time></trkpt>
<trkpt lat="54.2458380000" lon="-2.2415690000"><ele>564</ele><time>2013-11-17T12:46:12Z</time></trkpt>
<trkpt lat="54.2458390000" lon="-2.2415690000"><ele>564</ele><time>2013-11-17T12:46:13Z</time></trkpt>
<trkpt lat="54.2458390000" lon="-2.2415700000"><ele>564</ele><time>2013-11-17T12:46:14Z</time></trkpt>
<trkpt lat="54.2458390000" lon="-2.2415700000"><ele>564</ele><time>2013-11-17T12:46:15Z</time></trkpt>
<trkpt lat="54.2458390000" lon="-2.2415700000"><ele>564</ele><time>2013-11-17T12:46:16Z</time></trkpt>
<trkpt lat="54.2458380000" lon="-2.2415700000"><ele>564</ele><time>2013-11-17T12:46:17Z</time></trkpt>
<trkpt lat="54.2458370000" lon="-2.2415690000"><ele>564</ele><time>2013-11-17T12:46:18Z</time></trkpt>
<trkpt lat="54.2458370000" lon="-2.2415690000"><ele>564</ele><time>2013-11-17T12:46:19Z</time></trkpt>
<trkpt lat="54.2458370000" lon="-2.2415690000"><ele>564</ele><time>2013-11-17T12:46:20Z</time></trkpt>
<trkpt lat="54.2458370000" lon="-2.2415690000"><ele>564</ele><time>2013-11-17T12:46:21Z</time></trkpt>
<trkpt lat="54.2458370000" lon="-2.2415690000"><ele>564</ele><time>2013-11-17T12:46:22Z</time></trkpt>
<trkpt lat="54.2458380000" lon="-2.2415690000"><ele>564</ele><time>2013-11-17T12:46:23Z</time></trkpt>
<trkpt lat="54.2458380000" lon="-2.2415700000"><ele>564</ele><time>2013-11-17T12:46:24Z</time></trkpt>
<trkpt lat="54.2458400000" lon="-2.2415710000"><ele>564</ele><time>2013-11-17T12:46:25Z</time></trkpt>
<trkpt lat="54.2458400000" lon="-2.2415720000"><ele>564</ele><time>2013-11-17T12:46:26Z</time></trkpt>
<trkpt lat="54.2458410000" lon="-2.2415720000"><ele>564</ele><time>2013-11-17T12:46:27Z</time></trkpt>
<trkpt lat="54.2458410000" lon="-2.2415720000"><ele>564</ele><time>2013-11-17T12:46:28Z</time></trkpt>
<trkpt lat="54.2458410000" lon="-2.2415720000"><ele>564</ele><time>2013-11-17T12:46:29Z</time></trkpt>
<trkpt lat="54.2458410000" lon="-2.2415720000"><ele>564</ele><time>2013-11-17T12:46:30Z</time></trkpt>
<trkpt lat="54.2458420000" lon="-2.2415720000"><ele>564</ele><time>2013-11-17T12:46:31Z</time></trkpt>
<trkpt lat="54.2458420000" lon="-2.2415720000"><ele>564</ele><time>2013-11-17T12:46:32Z</time></trkpt>
<trkpt lat="54.2458420000" lon="-2.2415730000"><ele>564</ele><time>2013-11-17T12:46:33Z</time></trkpt>
<trkpt lat="54.2458420000" lon="-2.2415730000"><ele>564</ele><time>2013-11-17T12:46:34Z</time></trkpt>
<trkpt lat="54.2458430000" lon="-2.2415730000"><ele>564</ele><time>2013-11-17T12:46:35Z</time></trkpt>
<trkpt lat="54.2458430000" lon="-2.2415730000"><ele>564</ele><time>2013-11-17T12:46:36Z</time></trkpt>
<trkpt lat="54.2458430000" lon="-2.2415730000"><ele>564</ele><time>2013-11-17T12:46:37Z</time></trkpt>
<trkpt lat="54.2458430000" lon="-2.2415730000"><ele>564</ele><time>2013-11-17T12:46:38Z</time></trkpt>
<trkpt lat="54.2458430000" lon="-2.2415720000"><ele>564</ele><time>2013-11-17T12:46:39Z</time></trkpt>
<trkpt lat="54.2458430000" lon="-2.2415720000"><ele>564</ele><time>2013-11-17T12:46:40Z</time></trkpt>
<trkpt lat="54.2458420000" lon="-2.2415700000"><ele>564</ele><time>2013-11-17T12:46:41Z</time></trkpt>
<trkpt lat="54.2458420000" lon="-2.2415710000"><ele>564</ele><time>2013-11-17T12:46:42Z</time></trkpt>
<trkpt lat="54.2458420000" lon="-2.2415710000"><ele>564</ele><time>2013-11-17T12:46:43Z</time></trkpt>
<trkpt lat="54.2458420000" lon="-2.2415720000"><ele>564</ele><time>2013-11-17T12:46:44Z</time></trkpt>
<trkpt lat="54.2458420000" lon="-2.2415720000"><ele>564</ele><time>2013-11-17T12:46:45Z</time></trkpt>
<trkpt lat="54.2458420000" lon="-2.2415710000"><ele>564</ele><time>2013-11-17T12:46:46Z</time></trkpt>
<trkpt lat="54.2458420000" lon="-2.2415700000"><ele>564</ele><time>2013-11-17T12:46:47Z</time></trkpt>
<trkpt lat="54.2458430000" lon="-2.2415700000"><ele>564</ele><time>2013-11-17T12:46:48Z</time></trkpt>
<trkpt lat="54.2458430000" lon="-2.2415700000"><ele>564</ele><time>2013-11-17T12:46:49Z</time></trkpt>
<trkpt lat="54.2458420000" lon="-2.2415690000"><ele>564</ele><time>2013-11-17T12:46:50Z</time></trkpt>
<trkpt lat="54.2458420000" lon="-2.2415690000"><ele>564</ele><time>2013-11-17T12:46:51Z</time></trkpt>
<trkpt lat="54.2458420000" lon="-2.2415700000"><ele>564</ele><time>2013-11-17T12:46:52Z</time></trkpt>
<trkpt lat="54.2458420000" lon="-2.2415700000"><ele>564</ele><time>2013-11-17T12:46:53Z</time></trkpt>
<trkpt lat="54.2458420000" lon="-2.2415700000"><ele>564</ele><time>2013-11-17T12:46:54Z</time></trkpt>
<trkpt lat="54.2458420000" lon="-2.2415700000"><ele>564</ele><time>2013-11-17T12:46:57Z</time></trkpt>
<trkpt lat="54.2458420000" lon="-2.2415700000"><ele>564</ele><time>2013-11-17T12:46:59Z</time></trkpt>
<trkpt lat="54.2458420000" lon="-2.2415700000"><ele>564</ele><time>2013-11-17T12:47:00Z</time></trkpt>
<trkpt lat="54.2458410000" lon="-2.2415700000"><ele>564</ele><time>2013-11-17T12:47:02Z</time></trkpt>
<trkpt lat="54.2458410000" lon="-2.2415700000"><ele>564</ele><time>2013-11-17T12:47:03Z</time></trkpt>
<trkpt lat="54.2458410000" lon="-2.2415700000"><ele>564</ele><time>2013-11-17T12:47:04Z</time></trkpt>
<trkpt lat="54.2458410000" lon="-2.2415700000"><ele>564</ele><time>2013-11-17T12:47:05Z</time></trkpt>
<trkpt lat="54.2458410000" lon="-2.2415690000"><ele>564</ele><time>2013-11-17T12:47:06Z</time></trkpt>
<trkpt lat="54.2458410000" lon="-2.2415690000"><ele>564</ele><time>2013-11-17T12:47:07Z</time></trkpt>
<trkpt lat="54.2458410000" lon="-2.2415690000"><ele>564</ele><time>2013-11-17T12:47:08Z</time></trkpt>
<trkpt lat="54.2458420000" lon="-2.2415690000"><ele>564</ele><time>2013-11-17T12:47:09Z</time></trkpt>
<trkpt lat="54.2458410000" lon="-2.2415690000"><ele>564</ele><time>2013-11-17T12:47:10Z</time></trkpt>
<trkpt lat="54.2458410000" lon="-2.2415680000"><ele>564</ele></trkpt>
<trkpt lat="54.2458410000" lon="-2.2415680000"><ele>564</ele><time>2013-11-17T12:47:12Z</time></trkpt>
<trkpt lat="54.2458410000" lon="-2.2415670000"><ele>564</ele><time>2013-11-17T12:47:13Z</time></trkpt>
<trkpt lat="54.2458400000" lon="-2.2415670000"><ele>564</ele><time>2013-11-17T12:47:14Z</time></trkpt>
<trkpt lat="54.2458400000" lon="-2.2415670000"><ele>564</ele><time>2013-11-17T12:47:15Z</time></trkpt>
<trkpt lat="54.2458400000" lon="-2.2415660000"><ele>564</ele><time>2013-11-17T12:47:16Z</time></trkpt>
<trkpt lat="54.2458400000" lon="-2.2415660000"><ele>564</ele><time>2013-11-17T12:47:17Z</time></trkpt>
<trkpt lat="54.2458400000" lon="-2.2415650000"><ele>564</ele><time>2013-11-17T12:47:18Z</time></trkpt>
<trkpt lat="54.2458400000" lon="-2.2415650000"><ele>564</ele><time>2013-11-17T12:47:19Z</time></trkpt>
<trkpt lat="54.2458400000" lon="-2.2415650000"><ele>564</ele><time>2013-11-17T12:47:21Z</time></trkpt>
<trkpt lat="54.2458400000" lon="-2.2415650000"><ele>564</ele><time>2013-11-17T12:47:22Z</time></trkpt>
<trkpt lat="54.2458400000" lon="-2.2415650000"><ele>564</ele><time>2013-11-17T12:47:23Z</time></trkpt>
<trkpt lat="54.2458400000" lon="-2.2415650000"><ele>564</ele><time>2013-11-17T12:47:25Z</time></trkpt>
<trkpt lat="54.2458400000" lon="-2.2415650000"><ele>564</ele><time>2013-11-17T12:47:27Z</time></trkpt>
<trkpt lat="54.2458400000" lon="-2.2415650000"><ele>564</ele><time>2013-11-17T12:47:28Z</time></trkpt>
<trkpt lat="54.2458400000" lon="-2.2415650000"><ele>564</ele><time>2013-11-17T12:47:29Z</time></trkpt>
<trkpt lat="54.2458400000" lon="-2.2415650000"><ele>564</ele><time>2013-11-17T12:47:30Z</time></trkpt>
<trkpt lat="54.2458390000" lon="-2.2415650000"><ele>564</ele><time>2013-11-17T12:47:31Z</time></trkpt>
<trkpt lat="54.2458390000" lon="-2.2415650000"><ele>564</ele><time>2013-11-17T12:47:32Z</time></trkpt>
<trkpt lat="54.2458390000" lon="-2.2415650000"><ele>564</ele><time>2013-11-17T12:47:33Z</time></trkpt>
<trkpt lat="54.2458390000" lon="-2.2415650000"><ele>564</ele><time>2013-11-17T12:47:34Z</time></trkpt>
<trkpt lat="54.2458390000" lon="-2.2415640000"><ele>564</ele><time>2013-11-17T12:47:35Z</time></trkpt>
<trkpt lat="54.2458390000" lon="-2.2415640000"><ele>564</ele><time>2013-11-17T12:47:36Z</time></trkpt>
<trkpt lat="54.2458390000" lon="-2.2415640000"><ele>564</ele><time>2013-11-17T12:47:37Z</time></trkpt>
<trkpt lat="54.2458390000" lon="-2.2415640000"><ele>564</ele><time>2013-11-17T12:47:38Z</time></trkpt>
<trkpt lat="54.2458390000" lon="-2.2415640000"><ele>564</ele><time>2013-11-17T12:47:39Z</time></trkpt>
<trkpt lat="54.2458390000" lon="-2.2415640000"><ele>564</ele><time>2013-11-17T12:47:40Z</time></trkpt>
<trkpt lat="54.2458390000" lon="-2.2415640000"><ele>564</ele><time>2013-11-17T12:47:41Z</time></trkpt>
<trkpt lat="54.2458390000" lon="-2.2415630000"><ele>564</ele><time>2013-11-17T12:47:42Z</time></trkpt>
<trkpt lat="54.2458390000" lon="-2.2415630000"><ele>564</ele><time>2013-11-17T12:47:43Z</time></trkpt>
<trkpt lat="54.2458390000" lon="-2.2415630000"><ele>564</ele><time>2013-11-17T12:47:44Z</time></trkpt>
<trkpt lat="54.2458390000" lon="-2.2415630000"><ele>564</ele><time>2013-11-17T12:47:45Z</time></trkpt>
<trkpt lat="54.2458390000" lon="-2.2415630000"><ele>564</ele><time>2013-11-17T12:47:46Z</time></trkpt>
<trkpt lat="54.2458380000" lon="-2.2415630000"><ele>564</ele><time>2013-11-17T12:47:47Z</time></trkpt>
<trkpt lat="54.2458380000" lon="-2.2415630000"><ele>564</ele><time>2013-11-17T12:47:48Z</time></trkpt>
<trkpt lat="54.2458380000" lon="-2.2415630000"><ele>564</ele><time>2013-11-17T12:47:49Z</time></trkpt>
<trkpt lat="54.2458380000" lon="-2.2415630000"><ele>564</ele><time>2013-11-17T12:47:50Z</time></trkpt>
<trkpt lat="54.2458380000" lon="-2.2415620000"><ele>564</ele><time>2013-11-17T12:47:51Z</time></trkpt>
<trkpt lat="54.2458380000" lon="-2.2415620000"><ele>564</ele><time>2013-11-17T12:47:52Z</time></trkpt>
<trkpt lat="54.2458380000" lon="-2.2415620000"><ele>564</ele><time>2013-11-17T12:47:53Z</time></trkpt>
<trkpt lat="54.2458380000" lon="-2.2415620000"><ele>564</ele><time>2013-11-17T12:47:54Z</time></trkpt>
<trkpt lat="54.2458380000" lon="-2.2415620000"><ele>564</ele><time>2013-11-17T12:47:55Z</time></trkpt>
<trkpt lat="54.2458380000" lon="-2.2415620000"><ele>564</ele><time>2013-11-17T12:47:56Z</time></trkpt>
<trkpt lat="54.2458380000" lon="-2.2415620000"><ele>564</ele><time>2013-11-17T12:47:58Z</time></trkpt>
<trkpt lat="54.2458380000" lon="-2.2415620000"><ele>564</ele><time>2013-11-17T12:47:59Z</time></trkpt>
<trkpt lat="54.2458380000" lon="-2.2415620000"><ele>564</ele><time>2013-11-17T12:48:01Z</time></trkpt>
<trkpt lat="54.2458380000" lon="-2.2415620000"><ele>564</ele><time>2013-11-17T12:48:05Z</time></trkpt>
<trkpt lat="54.2458380000" lon="-2.2415610000"><ele>564</ele><time>2013-11-17T12:48:08Z</time></trkpt>
<trkpt lat="54.2458380000" lon="-2.2415610000"><ele>564</ele><time>2013-11-17T12:48:10Z</time></trkpt>
<trkpt lat="54.2458380000" lon="-2.2415610000"><ele>564</ele><time>2013-11-17T12:48:12Z</time></trkpt>
<trkpt lat="54.2458380000" lon="-2.2415610000"><ele>564</ele><time>2013-11-17T12:48:13Z</time></trkpt>
<trkpt lat="54.2458380000" lon="-2.2415610000"><ele>564</ele><time>2013-11-17T12:48:15Z</time></trkpt>
<trkpt lat="54.2458380000" lon="-2.2415610000"><ele>564</ele><time>2013-11-17T12:48:16Z</time></trkpt>
<trkpt lat="54.2458380000" lon="-2.2415610000"><ele>564</ele><time>2013-11-17T12:48:19Z</time></trkpt>
<trkpt lat="54.2458380000" lon="-2.2415610000"><ele>564</ele><time>2013-11-17T12:48:20Z</time></trkpt>
<trkpt lat="54.2458380000" lon="-2.2415610000"><ele>564</ele><time>2013-11-17T12:48:21Z</time></trkpt>
<trkpt lat="54.2458380000" lon="-2.2415600000"><ele>564</ele><time>2013-11-17T12:48:22Z</time></trkpt>
<trkpt lat="54.2458380000" lon="-2.2415600000"><ele>564</ele><time>2013-11-17T12:48:23Z</time></trkpt>
<trkpt lat="54.2458380000" lon="-2.2415600000"><ele>564</ele><time>2013-11-17T12:48:24Z</time></trkpt>
<trkpt lat="54.2458380000" lon="-2.2415600000"><ele>564</ele><time>2013-11-17T12:48:25Z</time></trkpt>
<trkpt lat="54.2458380000" lon="-2.2415600000"><ele>564</ele><time>2013-11-17T12:48:26Z</time></trkpt>
<trkpt lat="54.2458380000" lon="-2.2415600000"><ele>564</ele><time>2013-11-17T12:48:28Z</time></trkpt>
<trkpt lat="54.2458380000" lon="-2.2415590000"><ele>564</ele><time>2013-11-17T12:48:29Z</time></trkpt>
<trkpt lat="54.2458380000" lon="-2.2415590000"><ele>564</ele><time>2013-11-17T12:48:30Z</time></trkpt>
<trkpt lat="54.2458380000" lon="-2.2415590000"><ele>564</ele><time>2013-11-17T12:48:31Z</time></trkpt>
<trkpt lat="54.2458380000" lon="-2.2415590000"><ele>564</ele><time>2013-11-17T12:48:32Z</time></trkpt>
<trkpt lat="54.2458390000" lon="-2.2415590000"><ele>564</ele><time>2013-11-17T12:48:33Z</time></trkpt>
<trkpt lat="54.2458390000" lon="-2.2415600000"><ele>564</ele><time>2013-11-17T12:48:34Z</time></trkpt>
<trkpt lat="54.2458400000" lon="-2.2415600000"><ele>564</ele><time>2013-11-17T12:48:35Z</time></trkpt>
<trkpt lat="54.2458400000" lon="-2.2415610000"><ele>564</ele><time>2013-11-17T12:48:36Z</time></trkpt>
<trkpt lat="54.2458400000" lon="-2.2415610000"><ele>564</ele><time>2013-11-17T12:48:37Z</time></trkpt>
<trkpt lat="54.2458400000" lon="-2.2415620000"><ele>564</ele><time>2013-11-17T12:48:38Z</time></trkpt>
<trkpt lat="54.2458390000" lon="-2.2415610000"><ele>564</ele><time>2013-11-17T12:48:39Z</time></trkpt>
<trkpt lat="54.2458390000" lon="-2.2415610000"><ele>564</ele><time>2013-11-17T12:48:40Z</time></trkpt>
<trkpt lat="54.2458380000" lon="-2.2415610000"><ele>564</ele><time>2013-11-17T12:48:41Z</time></trkpt>
<trkpt lat="54.2458380000" lon="-2.2415600000"><ele>564</ele><time>2013-11-17T12:48:42Z</time></trkpt>
<trkpt lat="54.2458370000" lon="-2.2415600000"><ele>564</ele><time>2013-11-17T12:48:43Z</time></trkpt>
<trkpt lat="54.2458370000" lon="-2.2415600000"><ele>564</ele><time>2013-11-17T12:48:44Z</time></trkpt>
<trkpt lat="54.2458370000" lon="-2.2415610000"><ele>564</ele><time>2013-11-17T12:48:45Z</time></trkpt>
<trkpt lat="54.2458370000" lon="-2.2415610000"><ele>564</ele><time>2013-11-17T12:48:46Z</time></trkpt>
<trkpt lat="54.2458380000" lon="-2.2415610000"><ele>564</ele><time>2013-11-17T12:48:48Z</time></trkpt>
<trkpt lat="54.2458380000" lon="-2.2415610000"><ele>564</ele><time>2013-11-17T12:48:49Z</time></trkpt>
<trkpt lat="54.2458380000" lon="-2.2415620000"><ele>564</ele><time>2013-11-17T12:48:50Z</time></trkpt>
<trkpt lat="54.2458380000" lon="-2.2415620000"><ele>564</ele><time>2013-11-17T12:48:51Z</time></trkpt>
<trkpt lat="54.2458380000" lon="-2.2415620000"><ele>564</ele><time>2013-11-17T12:48:52Z</time></trkpt>
<trkpt lat="54.2458380000" lon="-2.2415620000"><ele>564</ele><time>2013-11-17T12:48:53Z</time></trkpt>
<trkpt lat="54.2458380000" lon="-2.2415630000"><ele>564</ele><time>2013-11-17T12:48:54Z</time></trkpt>
<trkpt lat="54.2458380000" lon="-2.2415630000"><ele>564</ele><time>2013-11-17T12:48:55Z</time></trkpt>
<trkpt lat="54.2458380000" lon="-2.2415620000"><ele>564</ele><time>2013-11-17T12:48:56Z</time></trkpt>
<trkpt lat="54.2458380000" lon="-2.2415620000"><ele>564</ele><time>2013-11-17T12:48:57Z</time></trkpt>
<trkpt lat="54.2458380000" lon="-2.2415610000"><ele>564</ele><time>2013-11-17T12:48:58Z</time></trkpt>
<trkpt lat="54.2458380000" lon="-2.2415610000"><ele>564</ele><time>2013-11-17T12:48:59Z</time></trkpt>
<trkpt lat="54.2458380000" lon="-2.2415610000"><ele>564</ele><time>2013-11-17T12:49:00Z</time></trkpt>
<trkpt lat="54.2458380000" lon="-2.2415610000"><ele>564</ele><time>2013-11-17T12:49:01Z</time></trkpt>
<trkpt lat="54.2458380000" lon="-2.2415610000"><ele>564</ele><time>2013-11-17T12:49:03Z</time></trkpt>
<trkpt lat="54.2458370000" lon="-2.2415610000"><ele>564</ele><time>2013-11-17T12:49:04Z</time></trkpt>
<trkpt lat="54.2458370000" lon="-2.2415610000"><ele>564</ele><time>2013-11-17T12:49:05Z</time></trkpt>
<trkpt lat="54.2458370000" lon="-2.2415600000"><ele>564</ele><time>2013-11-17T12:49:06Z</time></trkpt>
<trkpt lat="54.2458370000" lon="-2.2415600000"><ele>564</ele><time>2013-11-17T12:49:07Z</time></trkpt>
<trkpt lat="54.2458370000" lon="-2.2415600000"><ele>564</ele><time>2013-11-17T12:49:08Z</time></trkpt>
<trkpt lat="54.2458370000" lon="-2.2415600000"><ele>564</ele><time>2013-11-17T12:49:09Z</time></trkpt>
<trkpt lat="54.2458370000" lon="-2.2415600000"><ele>564</ele><time>2013-11-17T12:49:10Z</time></trkpt>
<trkpt lat="54.2458370000" lon="-2.2415600000"><ele>564</ele><time>2013-11-17T12:49:11Z</time></trkpt>
<trkpt lat="54.2458360000" lon="-2.2415600000"><ele>564</ele><time>2013-11-17T12:49:12Z</time></trkpt>
<trkpt lat="54.2458360000" lon="-2.2415600000"><ele>564</ele><time>2013-11-17T12:49:13Z</time></trkpt>
<trkpt lat="54.2458360000" lon="-2.2415600000"><ele>564</ele><time>2013-11-17T12:49:14Z</time></trkpt>
<trkpt lat="54.2458360000" lon="-2.2415600000"><ele>564</ele><time>2013-11-17T12:49:15Z</time></trkpt>
<trkpt lat="54.2458360000" lon="-2.2415600000"><ele>564</ele><time>2013-11-17T12:49:16Z</time></trkpt>
<trkpt lat="54.2458350000" lon="-2.2415600000"><ele>564</ele><time>2013-11-17T12:49:17Z</time></trkpt>
<trkpt lat="54.2458350000" lon="-2.2415590000"><ele>564</ele><time>2013-11-17T12:49:18Z</time></trkpt>
<trkpt lat="54.2458340000" lon="-2.2415580000"><ele>564</ele><time>2013-11-17T12:49:19Z</time></trkpt>
<trkpt lat="54.2458330000" lon="-2.2415560000"><ele>564</ele><time>2013-11-17T12:49:20Z</time></trkpt>
<trkpt lat="54.2458330000" lon="-2.2415550000"><ele>564</ele></trkpt>
<trkpt lat="54.2458330000" lon="-2.2415550000"><ele>564</ele><time>2013-11-17T12:49:22Z</time></trkpt>
<trkpt lat="54.2458320000" lon="-2.2415550000"><ele>564</ele><time>2013-11-17T12:49:23Z</time></trkpt>
<trkpt lat="54.2458310000" lon="-2.2415540000"><ele>564</ele><time>2013-11-17T12:49:24Z</time></trkpt>
<trkpt lat="54.2458310000" lon="-2.2415540000"><ele>564</ele><time>2013-11-17T12:49:25Z</time></trkpt>
<trkpt lat="54.2458310000" lon="-2.2415540000"><ele>564</ele><time>2013-11-17T12:49:26Z</time></trkpt>
<trkpt lat="54.2458310000" lon="-2.2415540000"><ele>564</ele><time>2013-11-17T12:49:27Z</time></trkpt>
<trkpt lat="54.2458310000" lon="-2.2415540000"><ele>564</ele><time>2013-11-17T12:49:28Z</time></trkpt>
<trkpt lat="54.2458300000" lon="-2.2415540000"><ele>564</ele><time>2013-11-17T12:49:29Z</time></trkpt>
<trkpt lat="54.2458300000" lon="-2.2415540000"><ele>564</ele><time>2013-11-17T12:49:30Z</time></trkpt>
<trkpt lat="54.2458300000" lon="-2.2415540000"><ele>564</ele><time>2013-11-17T12:49:31Z</time></trkpt>
<trkpt lat="54.2458300000" lon="-2.2415540000"><ele>564</ele><time>2013-11-17T12:49:32Z</time></trkpt>
<trkpt lat="54.2458300000" lon="-2.2415540000"><ele>564</ele><time>2013-11-17T12:49:33Z</time></trkpt>
<trkpt lat="54.2458300000" lon="-2.2415540000"><ele>564</ele><time>2013-11-17T12:49:34Z</time></trkpt>
<trkpt lat="54.2458290000" lon="-2.2415540000"><ele>564</ele><time>2013-11-17T12:49:35Z</time></trkpt>
<trkpt lat="54.2458290000" lon="-2.2415540000"><ele>564</ele><time>2013-11-17T12:49:36Z</time></trkpt>
<trkpt lat="54.2458290000" lon="-2.2415550000"><ele>564</ele><time>2013-11-17T12:49:37Z</time></trkpt>
<trkpt lat="54.2458290000" lon="-2.2415550000"><ele>564</ele><time>2013-11-17T12:49:38Z</time></trkpt>
<trkpt lat="54.2458290000" lon="-2.2415550000"><ele>564</ele><time>2013-11-17T12:49:39Z</time></trkpt>
<trkpt lat="54.2458280000" lon="-2.2415550000"><ele>564</ele><time>2013-11-17T12:49:40Z</time></trkpt>
<trkpt lat="54.2458280000" lon="-2.2415540000"><ele>564</ele><time>2013-11-17T12:49:41Z</time></trkpt>
<trkpt lat="54.2458270000" lon="-2.2415540000"><ele>564</ele><time>2013-11-17T12:49:42Z</time></trkpt>
<trkpt lat="54.2458270000" lon="-2.2415550000"><ele>564</ele><time>2013-11-17T12:49:43Z</time></trkpt>
<trkpt lat="54.2458270000" lon="-2.2415550000"><ele>564</ele><time>2013-11-17T12:49:44Z</time></trkpt>
<trkpt lat="54.2458270000" lon="-2.2415550000"><ele>564</ele><time>2013-11-17T12:49:45Z</time></trkpt>
<trkpt lat="54.2458260000" lon="-2.2415550000"><ele>564</ele><time>2013-11-17T12:49:46Z</time></trkpt>
<trkpt lat="54.2458260000" lon="-2.2415550000"><ele>564</ele><time>2013-11-17T12:49:47Z</time></trkpt>
<trkpt lat="54.2458260000" lon="-2.2415550000"><ele>564</ele><time>2013-11-17T12:49:48Z</time></trkpt>
<trkpt lat="54.2458260000" lon="-2.2415550000"><ele>564</ele><time>2013-11-17T12:49:49Z</time></trkpt>
<trkpt lat="54.2458260000" lon="-2.2415550000"><ele>564</ele><time>2013-11-17T12:49:50Z</time></trkpt>
<trkpt lat="54.2458250000" lon="-2.2415550000"><ele>564</ele><time>2013-11-17T12:49:51Z</time></trkpt>
<trkpt lat="54.2458250000" lon="-2.2415560000"><ele>564</ele><time>2013-11-17T12:49:52Z</time></trkpt>
<trkpt lat="54.2458250000" lon="-2.2415560000"><ele>564</ele><time>2013-11-17T12:49:53Z</time></trkpt>
<trkpt lat="54.2458250000" lon="-2.2415560000"><ele>564</ele><time>2013-11-17T12:49:54Z</time></trkpt>
<trkpt lat="54.2458250000" lon="-2.2415560000"><ele>564</ele><time>2013-11-17T12:49:55Z</time></trkpt>
<trkpt lat="54.2458250000" lon="-2.2415560000"><ele>564</ele><time>2013-11-17T12:49:56Z</time></trkpt>
<trkpt lat="54.2458250000" lon="-2.2415560000"><ele>564</ele><time>2013-11-17T12:49:57Z</time></trkpt>
<trkpt lat="54.2458250000" lon="-2.2415570000"><ele>564</ele><time>2013-11-17T12:49:58Z</time></trkpt>
<trkpt lat="54.2458250000" lon="-2.2415570000"><ele>564</ele><time>2013-11-17T12:49:59Z</time></trkpt>
<trkpt lat="54.2458250000" lon="-2.2415570000"><ele>564</ele><time>2013-11-17T12:50:00Z</time></trkpt>
<trkpt lat="54.2458250000" lon="-2.2415570000"><ele>564</ele><time>2013-11-17T12:50:01Z</time></trkpt>
<trkpt lat="54.2458250000" lon="-2.2415570000"><ele>564</ele><time>2013-11-17T12:50:02Z</time></trkpt>
<trkpt lat="54.2458250000" lon="-2.2415570000"><ele>564</ele><time>2013-11-17T12:50:03Z</time></trkpt>
<trkpt lat="54.2458250000" lon="-2.2415570000"><ele>564</ele><time>2013-11-17T12:50:04Z</time></trkpt>
<trkpt lat="54.2458250000" lon="-2.2415570000"><ele>564</ele><time>2013-11-17T12:50:05Z</time></trkpt>
<trkpt lat="54.2458240000" lon="-2.2415570000"><ele>564</ele><time>2013-11-17T12:50:07Z</time></trkpt>
<trkpt lat="54.2458240000" lon="-2.2415570000"><ele>564</ele><time>2013-11-17T12:50:08Z</time></trkpt>
<trkpt lat="54.2458240000" lon="-2.2415580000"><ele>564</ele><time>2013-11-17T12:50:09Z</time></trkpt>
<trkpt lat="54.2458240000" lon="-2.2415580000"><ele>564</ele><time>2013-11-17T12:50:10Z</time></trkpt>
<trkpt lat="54.2458240000" lon="-2.2415580000"><ele>564</ele><time>2013-11-17T12:50:11Z</time></trkpt>
<trkpt lat="54.2458240000" lon="-2.2415580000"><ele>564</ele><time>2013-11-17T12:50:12Z</time></trkpt>
<trkpt lat="54.2458240000" lon="-2.2415580000"><ele>564</ele><time>2013-11-17T12:50:13Z</time></trkpt>
<trkpt lat="54.2458240000" lon="-2.2415580000"><ele>564</ele><time>2013-11-17T12:50:14Z</time></trkpt>
<trkpt lat="54.2458240000" lon="-2.2415580000"><ele>564</ele><time>2013-11-17T12:50:15Z</time></trkpt>
<trkpt lat="54.2458240000" lon="-2.2415590000"><ele>564</ele><time>2013-11-17T12:50:16Z</time></trkpt>
<trkpt lat="54.2458250000" lon="-2.2415590000"><ele>564</ele><time>2013-11-17T12:50:17Z</time></trkpt>
<trkpt lat="54.2458250000" lon="-2.2415590000"><ele>564</ele><time>2013-11-17T12:50:18Z</time></trkpt>
<trkpt lat="54.2458250000" lon="-2.2415580000"><ele>564</ele><time>2013-11-17T12:50:19Z</time></trkpt>
<trkpt lat="54.2458250000" lon="-2.2415580000"><ele>564</ele><time>2013-11-17T12:50:20Z</time></trkpt>
<trkpt lat="54.2458250000" lon="-2.2415580000"><ele>564</ele><time>2013-11-17T12:50:21Z</time></trkpt>
<trkpt lat="54.2458260000" lon="-2.2415580000"><ele>564</ele><time>2013-11-17T12:50:22Z</time></trkpt>
<trkpt lat="54.2458260000" lon="-2.2415580000"><ele>564</ele></trkpt>
<trkpt lat="54.2458260000" lon="-2.2415580000"><ele>564</ele><time>2013-11-17T12:50:24Z</time></trkpt>
<trkpt lat="54.2458260000" lon="-2.2415590000"><ele>564</ele><time>2013-11-17T12:50:25Z</time></trkpt>
<trkpt lat="54.2458270000" lon="-2.2415590000"><ele>564</ele><time>2013-11-17T12:50:26Z</time></trkpt>
<trkpt lat="54.2458270000" lon="-2.2415580000"><ele>564</ele><time>2013-11-17T12:50:27Z</time></trkpt>
<trkpt lat="54.2458280000" lon="-2.2415560000"><ele>564</ele><time>2013-11-17T12:50:28Z</time></trkpt>
<trkpt lat="54.2458270000" lon="-2.2415560000"><ele>564</ele><time>2013-11-17T12:50:29Z</time></trkpt>
<trkpt lat="54.2458270000" lon="-2.2415550000"><ele>564</ele><time>2013-11-17T12:50:30Z</time></trkpt>
<trkpt lat="54.2458270000" lon="-2.2415540000"><ele>564</ele><time>2013-11-17T12:50:31Z</time></trkpt>
<trkpt lat="54.2458280000" lon="-2.2415550000"><ele>564</ele><time>2013-11-17T12:50:32Z</time></trkpt>
<trkpt lat="54.2458290000" lon="-2.2415550000"><ele>564</ele><time>2013-11-17T12:50:33Z</time></trkpt>
<trkpt lat="54.2458300000" lon="-2.2415560000"><ele>564</ele><time>2013-11-17T12:50:34Z</time></trkpt>
<trkpt lat="54.2458300000" lon="-2.2415560000"><ele>564</ele><time>2013-11-17T12:50:35Z</time></trkpt>
<trkpt lat="54.2458300000" lon="-2.2415550000"><ele>564</ele><time>2013-11-17T12:50:36Z</time></trkpt>
<trkpt lat="54.2458300000" lon="-2.2415550000"><ele>564</ele><time>2013-11-17T12:50:37Z</time></trkpt>
<trkpt lat="54.2458300000" lon="-2.2415540000"><ele>564</ele><time>2013-11-17T12:50:38Z</time></trkpt>
<trkpt lat="54.2458300000" lon="-2.2415540000"><ele>564</ele><time>2013-11-17T12:50:39Z</time></trkpt>
<trkpt lat="54.2458300000" lon="-2.2415550000"><ele>564</ele><time>2013-11-17T12:50:40Z</time></trkpt>
<trkpt lat="54.2458300000" lon="-2.2415550000"><ele>564</ele><time>2013-11-17T12:50:41Z</time></trkpt>
<trkpt lat="54.2458300000" lon="-2.2415550000"><ele>564</ele><time>2013-11-17T12:50:42Z</time></trkpt>
<trkpt lat="54.2458300000" lon="-2.2415550000"><ele>564</ele><time>2013-11-17T12:50:43Z</time></trkpt>
<trkpt lat="54.2458310000" lon="-2.2415550000"><ele>564</ele><time>2013-11-17T12:50:44Z</time></trkpt>
<trkpt lat="54.2458310000" lon="-2.2415560000"><ele>564</ele><time>2013-11-17T12:50:45Z</time></trkpt>
<trkpt lat="54.2458320000" lon="-2.2415580000"><ele>564</ele><time>2013-11-17T12:50:46Z</time></trkpt>
<trkpt lat="54.2458340000" lon="-2.2415600000"><ele>564</ele><time>2013-11-17T12:50:47Z</time></trkpt>
<trkpt lat="54.2458340000" lon="-2.2415630000"><ele>564</ele><time>2013-11-17T12:50:48Z</time></trkpt>
<trkpt lat="54.2458330000" lon="-2.2415650000"><ele>564</ele><time>2013-11-17T12:50:49Z</time></trkpt>
<trkpt lat="54.2458330000" lon="-2.2415670000"><ele>564</ele><time>2013-11-17T12:50:50Z</time></trkpt>
<trkpt lat="54.2458340000" lon="-2.2415700000"><ele>564</ele><time>2013-11-17T12:50:51Z</time></trkpt>
<trkpt lat="54.2458340000" lon="-2.2415710000"><ele>564</ele><time>2013-11-17T12:50:52Z</time></trkpt>
<trkpt lat="54.2458340000" lon="-2.2415720000"><ele>564</ele><time>2013-11-17T12:50:53Z</time></trkpt>
<trkpt lat="54.2458340000" lon="-2.2415710000"><ele>564</ele></trkpt>
<trkpt lat="54.2458330000" lon="-2.2415700000"><ele>564</ele><time>2013-11-17T12:50:55Z</time></trkpt>
<trkpt lat="54.2458320000" lon="-2.2415680000"><ele>564</ele><time>2013-11-17T12:50:56Z</time></trkpt>
<trkpt lat="54.2458300000" lon="-2.2415670000"><ele>564</ele><time>2013-11-17T12:50:57Z</time></trkpt>
<trkpt lat="54.2458290000" lon="-2.2415660000"><ele>564</ele><time>2013-11-17T12:50:58Z</time></trkpt>
<trkpt lat="54.2458280000" lon="-2.2415640000"><ele>564</ele><time>2013-11-17T12:50:59Z</time></trkpt>
<trkpt lat="54.2458280000" lon="-2.2415640000"><ele>564</ele><time>2013-11-17T12:51:00Z</time></trkpt>
<trkpt lat="54.2458280000" lon="-2.2415630000"><ele>564</ele><time>2013-11-17T12:51:01Z</time></trkpt>
<trkpt lat="54.2458280000" lon="-2.2415650000"><ele>564</ele><time>2013-11-17T12:51:02Z</time></trkpt>
<trkpt lat="54.2458290000" lon="-2.2415660000"><ele>564</ele><time>2013-11-17T12:51:03Z</time></trkpt>
<trkpt lat="54.2458290000" lon="-2.2415670000"><ele>564</ele><time>2013-11-17T12:51:04Z</time></trkpt>
<trkpt lat="54.2458290000" lon="-2.2415670000"><ele>564</ele><time>2013-11-17T12:51:05Z</time></trkpt>
<trkpt lat="54.2458290000" lon="-2.2415670000"><ele>564</ele><time>2013-11-17T12:51:06Z</time></trkpt>
<trkpt lat="54.2458300000" lon="-2.2415670000"><ele>564</ele><time>2013-11-17T12:51:07Z</time></trkpt>
<trkpt lat="54.2458320000" lon="-2.2415690000"><ele>564</ele><time>2013-11-17T12:51:08Z</time></trkpt>
<trkpt lat="54.2458330000" lon="-2.2415700000"><ele>564</ele><time>2013-11-17T12:51:09Z</time></trkpt>
<trkpt lat="54.2458330000" lon="-2.2415710000"><ele>564</ele><time>2013-11-17T12:51:10Z</time></trkpt>
<trkpt lat="54.2458340000" lon="-2.2415710000"><ele>564</ele><time>2013-11-17T12:51:11Z</time></trkpt>
<trkpt lat="54.2458340000" lon="-2.2415710000"><ele>564</ele><time>2013-11-17T12:51:12Z</time></trkpt>
<trkpt lat="54.2458340000" lon="-2.2415710000"><ele>564</ele><time>2013-11-17T12:51:13Z</time></trkpt>
<trkpt lat="54.2458340000" lon="-2.2415720000"><ele>564</ele><time>2013-11-17T12:51:14Z</time></trkpt>
<trkpt lat="54.2458350000" lon="-2.2415720000"><ele>564</ele><time>2013-11-17T12:51:15Z</time></trkpt>
<trkpt lat="54.2458340000" lon="-2.2415720000"><ele>564</ele><time>2013-11-17T12:51:16Z</time></trkpt>
<trkpt lat="54.2458340000" lon="-2.2415710000"><ele>564</ele><time>2013-11-17T12:51:17Z</time></trkpt>
<trkpt lat="54.2458330000" lon="-2.2415710000"><ele>564</ele><time>2013-11-17T12:51:18Z</time></trkpt>
<trkpt lat="54.2458330000" lon="-2.2415710000"><ele>564</ele><time>2013-11-17T12:51:19Z</time></trkpt>
<trkpt lat="54.2458330000" lon="-2.2415720000"><ele>564</ele><time>2013-11-17T12:51:20Z</time></trkpt>
<trkpt lat="54.2458330000" lon="-2.2415730000"><ele>564</ele><time>2013-11-17T12:51:21Z</time></trkpt>
<trkpt lat="54.2458340000" lon="-2.2415730000"><ele>564</ele><time>2013-11-17T12:51:22Z</time></trkpt>
<trkpt lat="54.2458340000" lon="-2.2415740000"><ele>564</ele><time>2013-11-17T12:51:23Z</time></trkpt>
<trkpt lat="54.2458350000" lon="-2.2415750000"><ele>564</ele><time>2013-11-17T12:51:24Z</time></trkpt>
<trkpt lat="54.2458350000" lon="-2.2415750000"><ele>564</ele></trkpt>
<trkpt lat="54.2458350000" lon="-2.2415740000"><ele>564</ele><time>2013-11-17T12:51:26Z</time></trkpt>
<trkpt lat="54.2458350000" lon="-2.2415740000"><ele>564</ele><time>2013-11-17T12:51:27Z</time></trkpt>
<trkpt lat="54.2458360000" lon="-2.2415750000"><ele>564</ele><time>2013-11-17T12:51:28Z</time></trkpt>
<trkpt lat="54.2458360000" lon="-2.2415760000"><ele>564</ele><time>2013-11-17T12:51:29Z</time></trkpt>
<trkpt lat="54.2458370000" lon="-2.2415770000"><ele>564</ele><time>2013-11-17T12:51:30Z</time></trkpt>
<trkpt lat="54.2458380000" lon="-2.2415770000"><ele>564</ele><time>2013-11-17T12:51:31Z</time></trkpt>
<trkpt lat="54.2458390000" lon="-2.2415770000"><ele>564</ele><time>2013-11-17T12:51:32Z</time></trkpt>
<trkpt lat="54.2458400000" lon="-2.2415760000"><ele>564</ele><time>2013-11-17T12:51:33Z</time></trkpt>
<trkpt lat="54.2458400000" lon="-2.2415760000"><ele>564</ele><time>2013-11-17T12:51:34Z</time></trkpt>
<trkpt lat="54.2458410000" lon="-2.2415760000"><ele>564</ele><time>2013-11-17T12:51:35Z</time></trkpt>
<trkpt lat="54.2458420000" lon="-2.2415760000"><ele>564</ele><time>2013-11-17T12:51:36Z</time></trkpt>
<trkpt lat="54.2458410000" lon="-2.2415760000"><ele>564</ele><time>2013-11-17T12:51:37Z</time></trkpt>
<trkpt lat="54.2458400000" lon="-2.2415760000"><ele>564</ele><time>2013-11-17T12:51:38Z</time></trkpt>
<trkpt lat="54.2458410000" lon="-2.2415760000"><ele>564</ele><time>2013-11-17T12:51:39Z</time></trkpt>
<trkpt lat="54.2458410000" lon="-2.2415750000"><ele>564</ele><time>2013-11-17T12:51:40Z</time></trkpt>
<trkpt lat="54.2458410000" lon="-2.2415750000"><ele>564</ele><time>2013-11-17T12:51:41Z</time></trkpt>
<trkpt lat="54.2458400000" lon="-2.2415750000"><ele>564</ele><time>2013-11-17T12:51:42Z</time></trkpt>
<trkpt lat="54.2458390000" lon="-2.2415730000"><ele>564</ele><time>2013-11-17T12:51:43Z</time></trkpt>
<trkpt lat="54.2458380000" lon="-2.2415720000"><ele>564</ele><time>2013-11-17T12:51:44Z</time></trkpt>
<trkpt lat="54.2458380000" lon="-2.2415710000"><ele>564</ele><time>2013-11-17T12:51:45Z</time></trkpt>
<trkpt lat="54.2458380000" lon="-2.2415710000"><ele>564</ele><time>2013-11-17T12:51:46Z</time></trkpt>
<trkpt lat="54.2458380000" lon="-2.2415720000"><ele>564</ele><time>2013-11-17T12:51:47Z</time></trkpt>
<trkpt lat="54.2458390000" lon="-2.2415710000"><ele>564</ele><time>2013-11-17T12:51:48Z</time></trkpt>
<trkpt lat="54.2458390000" lon="-2.2415710000"><ele>564</ele><time>2013-11-17T12:51:49Z</time></trkpt>
<trkpt lat="54.2458390000" lon="-2.2415700000"><ele>564</ele><time>2013-11-17T12:51:50Z</time></trkpt>
<trkpt lat="54.2458390000" lon="-2.2415700000"><ele>564</ele><time>2013-11-17T12:51:51Z</time></trkpt>
<trkpt lat="54.2458380000" lon="-2.2415700000"><ele>564</ele><time>2013-11-17T12:51:52Z</time></trkpt>
<trkpt lat="54.2458380000" lon="-2.2415690000"><ele>564</ele><time>2013-11-17T12:51:53Z</time></trkpt>
<trkpt lat="54.2458370000" lon="-2.2415680000"><ele>564</ele><time>2013-11-17T12:51:54Z</time></trkpt>
<trkpt lat="54.2458370000" lon="-2.2415680000"><ele>564</ele><time>2013-11-17T12:51:55Z</time></trkpt>
<trkpt lat="54.2458370000" lon="-2.2415670000"><ele>564</ele><time>2013-11-17T12:51:56Z</time></trkpt>
<trkpt lat="54.2458370000" lon="-2.2415670000"><ele>564</ele><time>2013-11-17T12:51:57Z</time></trkpt>
<trkpt lat="54.2458380000" lon="-2.2415680000"><ele>564</ele><time>2013-11-17T12:51:58Z</time></trkpt>
<trkpt lat="54.2458380000" lon="-2.2415690000"><ele>564</ele><time>2013-11-17T12:51:59Z</time></trkpt>
<trkpt lat="54.2458390000" lon="-2.2415690000"><ele>564</ele><time>2013-11-17T12:52:00Z</time></trkpt>
<trkpt lat="54.2458400000" lon="-2.2415670000"><ele>564</ele><time>2013-11-17T12:52:01Z</time></trkpt>
<trkpt lat="54.2458410000" lon="-2.2415660000"><ele>564</ele><time>2013-11-17T12:52:02Z</time></trkpt>
<trkpt lat="54.2458410000" lon="-2.2415660000"><ele>564</ele><time>2013-11-17T12:52:03Z</time></trkpt>
<trkpt lat="54.2458410000" lon="-2.2415660000"><ele>564</ele><time>2013-11-17T12:52:04Z</time></trkpt>
<trkpt lat="54.2458410000" lon="-2.2415650000"><ele>564</ele><time>2013-11-17T12:52:05Z</time></trkpt>
<trkpt lat="54.2458420000" lon="-2.2415650000"><ele>564</ele><time>2013-11-17T12:52:06Z</time></trkpt>
<trkpt lat="54.2458430000" lon="-2.2415670000"><ele>564</ele><time>2013-11-17T12:52:07Z</time></trkpt>
<trkpt lat="54.2458450000" lon="-2.2415680000"><ele>564</ele><time>2013-11-17T12:52:08Z</time></trkpt>
<trkpt lat="54.2458450000" lon="-2.2415690000"><ele>564</ele><time>2013-11-17T12:52:09Z</time></trkpt>
<trkpt lat="54.2458460000" lon="-2.2415690000"><ele>564</ele><time>2013-11-17T12:52:10Z</time></trkpt>
<trkpt lat="54.2458460000" lon="-2.2415700000"><ele>564</ele><time>2013-11-17T12:52:11Z</time></trkpt>
<trkpt lat="54.2458470000" lon="-2.2415700000"><ele>564</ele><time>2013-11-17T12:52:12Z</time></trkpt>
<trkpt lat="54.2458480000" lon="-2.2415710000"><ele>564</ele><time>2013-11-17T12:52:13Z</time></trkpt>
<trkpt lat="54.2458480000" lon="-2.2415710000"><ele>564</ele><time>2013-11-17T12:52:14Z</time></trkpt>
<trkpt lat="54.2458490000" lon="-2.2415710000"><ele>564</ele><time>2013-11-17T12:52:15Z</time></trkpt>
<trkpt lat="54.2458490000" lon="-2.2415720000"><ele>564</ele><time>2013-11-17T12:52:16Z</time></trkpt>
<trkpt lat="54.2458500000" lon="-2.2415720000"><ele>564</ele><time>2013-11-17T12:52:17Z</time></trkpt>
<trkpt lat="54.2458490000" lon="-2.2415740000"><ele>564</ele><time>2013-11-17T12:52:18Z</time></trkpt>
<trkpt lat="54.2458500000" lon="-2.2415740000"><ele>564</ele><time>2013-11-17T12:52:19Z</time></trkpt>
<trkpt lat="54.2458500000" lon="-2.2415750000"><ele>564</ele><time>2013-11-17T12:52:20Z</time></trkpt>
<trkpt lat="54.2458510000" lon="-2.2415750000"><ele>564</ele><time>2013-11-17T12:52:21Z</time></trkpt>
<trkpt lat="54.2458500000" lon="-2.2415750000"><ele>564</ele><time>2013-11-17T12:52:22Z</time></trkpt>
<trkpt lat="54.2458500000" lon="-2.2415740000"><ele>564</ele><time>2013-11-17T12:52:23Z</time></trkpt>
<trkpt lat="54.2458500000" lon="-2.2415740000"><ele>564</ele><time>2013-11-17T12:52:24Z</time></trkpt>
<trkpt lat="54.2458500000" lon="-2.2415730000"><ele>564</ele><time>2013-11-17T12:52:25Z</time></trkpt>
<trkpt lat="54.2458490000" lon="-2.2415720000"><ele>564</ele><time>2013-11-17T12:52:26Z</time></trkpt>
<trkpt lat="54.2458480000" lon="-2.2415710000"><ele>564</ele><time>2013-11-17T12:52:27Z</time></trkpt>
<trkpt lat="54.2458480000" lon="-2.2415700000"><ele>564</ele><time>2013-11-17T12:52:28Z</time></trkpt>
<trkpt lat="54.2458480000" lon="-2.2415710000"><ele>564</ele><time>2013-11-17T12:52:29Z</time></trkpt>
<trkpt lat="54.2458480000" lon="-2.2415710000"><ele>564</ele><time>2013-11-17T12:52:30Z</time></trkpt>
<trkpt lat="54.2458480000" lon="-2.2415710000"><ele>564</ele><time>2013-11-17T12:52:31Z</time></trkpt>
<trkpt lat="54.2458480000" lon="-2.2415700000"><ele>564</ele><time>2013-11-17T12:52:32Z</time></trkpt>
<trkpt lat="54.2458480000" lon="-2.2415700000"><ele>564</ele><time>2013-11-17T12:52:33Z</time></trkpt>
<trkpt lat="54.2458480000" lon="-2.2415700000"><ele>564</ele><time>2013-11-17T12:52:35Z</time></trkpt>
<trkpt lat="54.2458480000" lon="-2.2415700000"><ele>564</ele><time>2013-11-17T12:52:36Z</time></trkpt>
<trkpt lat="54.2458480000" lon="-2.2415700000"><ele>564</ele><time>2013-11-17T12:52:37Z</time></trkpt>
<trkpt lat="54.2458470000" lon="-2.2415710000"><ele>564</ele><time>2013-11-17T12:52:38Z</time></trkpt>
<trkpt lat="54.2458470000" lon="-2.2415710000"><ele>564</ele><time>2013-11-17T12:52:39Z</time></trkpt>
<trkpt lat="54.2458470000" lon="-2.2415710000"><ele>564</ele><time>2013-11-17T12:52:40Z</time></trkpt>
<trkpt lat="54.2458470000" lon="-2.2415710000"><ele>564</ele><time>2013-11-17T12:52:41Z</time></trkpt>
<trkpt lat="54.2458470000" lon="-2.2415710000"><ele>564</ele><time>2013-11-17T12:52:42Z</time></trkpt>
<trkpt lat="54.2458470000" lon="-2.2415710000"><ele>564</ele><time>2013-11-17T12:52:45Z</time></trkpt>
<trkpt lat="54.2458470000" lon="-2.2415710000"><ele>564</ele><time>2013-11-17T12:52:46Z</time></trkpt>
<trkpt lat="54.2458470000" lon="-2.2415710000"><ele>564</ele><time>2013-11-17T12:52:47Z</time></trkpt>
<trkpt lat="54.2458470000" lon="-2.2415710000"><ele>564</ele><time>2013-11-17T12:52:48Z</time></trkpt>
<trkpt lat="54.2458460000" lon="-2.2415710000"><ele>564</ele><time>2013-11-17T12:52:49Z</time></trkpt>
<trkpt lat="54.2458460000" lon="-2.2415700000"><ele>564</ele><time>2013-11-17T12:52:50Z</time></trkpt>
<trkpt lat="54.2458460000" lon="-2.2415700000"><ele>564</ele><time>2013-11-17T12:52:51Z</time></trkpt>
<trkpt lat="54.2458460000" lon="-2.2415700000"><ele>564</ele><time>2013-11-17T12:52:52Z</time></trkpt>
<trkpt lat="54.2458460000" lon="-2.2415690000"><ele>564</ele><time>2013-11-17T12:52:53Z</time></trkpt>
<trkpt lat="54.2458450000" lon="-2.2415680000"><ele>564</ele><time>2013-11-17T12:52:54Z</time></trkpt>
<trkpt lat="54.2458440000" lon="-2.2415670000"><ele>564</ele><time>2013-11-17T12:52:55Z</time></trkpt>
<trkpt lat="54.2458430000" lon="-2.2415660000"><ele>564</ele><time>2013-11-17T12:52:56Z</time></trkpt>
<trkpt lat="54.2458430000" lon="-2.2415650000"><ele>564</ele><time>2013-11-17T12:52:57Z</time></trkpt>
<trkpt lat="54.2458430000" lon="-2.2415640000"><ele>564</ele><time>2013-11-17T12:52:58Z</time></trkpt>
<trkpt lat="54.2458430000" lon="-2.2415640000"><ele>564</ele><time>2013-11-17T12:52:59Z</time></trkpt>
<trkpt lat="54.2458420000" lon="-2.2415660000"><ele>564</ele><time>2013-11-17T12:53:00Z</time></trkpt>
<trkpt lat="54.2458420000" lon="-2.2415690000"><ele>564</ele><time>2013-11-17T12:53:01Z</time></trkpt>
<trkpt lat="54.2458420000" lon="-2.2415710000"><ele>564</ele><time>2013-11-17T12:53:02Z</time></trkpt>
<trkpt lat="54.2458410000" lon="-2.2415710000"><ele>564</ele><time>2013-11-17T12:53:03Z</time></trkpt>
<trkpt lat="54.2458410000" lon="-2.2415700000"><ele>564</ele><time>2013-11-17T12:53:04Z</time></trkpt>
<trkpt lat="54.2458410000" lon="-2.2415710000"><ele>564</ele><time>2013-11-17T12:53:05Z</time></trkpt>
<trkpt lat="54.2458410000" lon="-2.2415730000"><ele>564</ele><time>2013-11-17T12:53:06Z</time></trkpt>
<trkpt lat="54.2458410000" lon="-2.2415730000"><ele>564</ele><time>2013-11-17T12:53:07Z</time></trkpt>
<trkpt lat="54.2458390000" lon="-2.2415750000"><ele>564</ele><time>2013-11-17T12:53:08Z</time></trkpt>
<trkpt lat="54.2458380000" lon="-2.2415760000"><ele>564</ele><time>2013-11-17T12:53:09Z</time></trkpt>
<trkpt lat="54.2458370000" lon="-2.2415770000"><ele>564</ele><time>2013-11-17T12:53:10Z</time></trkpt>
<trkpt lat="54.2458380000" lon="-2.2415760000"><ele>564</ele><time>2013-11-17T12:53:11Z</time></trkpt>
<trkpt lat="54.2458380000" lon="-2.2415750000"><ele>564</ele><time>2013-11-17T12:53:12Z</time></trkpt>
<trkpt lat="54.2458380000" lon="-2.2415740000"><ele>564</ele><time>2013-11-17T12:53:13Z</time></trkpt>
<trkpt lat="54.2458360000" lon="-2.2415740000"><ele>564</ele><time>2013-11-17T12:53:14Z</time></trkpt>
<trkpt lat="54.2458340000" lon="-2.2415750000"><ele>564</ele><time>2013-11-17T12:53:15Z</time></trkpt>
<trkpt lat="54.2458330000" lon="-2.2415770000"><ele>564</ele><time>2013-11-17T12:53:16Z</time></trkpt>
<trkpt lat="54.2458320000" lon="-2.2415780000"><ele>564</ele><time>2013-11-17T12:53:17Z</time></trkpt>
<trkpt lat="54.2458320000" lon="-2.2415780000"><ele>564</ele><time>2013-11-17T12:53:18Z</time></trkpt>
<trkpt lat="54.2458330000" lon="-2.2415780000"><ele>564</ele><time>2013-11-17T12:53:19Z</time></trkpt>
<trkpt lat="54.2458340000" lon="-2.2415790000"><ele>564</ele><time>2013-11-17T12:53:20Z</time></trkpt>
<trkpt lat="54.2458330000" lon="-2.2415810000"><ele>564</ele><time>2013-11-17T12:53:21Z</time></trkpt>
<trkpt lat="54.2458330000" lon="-2.2415830000"><ele>564</ele><time>2013-11-17T12:53:22Z</time></trkpt>
<trkpt lat="54.2458330000" lon="-2.2415840000"><ele>564</ele><time>2013-11-17T12:53:23Z</time></trkpt>
<trkpt lat="54.2458330000" lon="-2.2415840000"><ele>564</ele><time>2013-11-17T12:53:24Z</time></trkpt>
<trkpt lat="54.2458340000" lon="-2.2415840000"><ele>564</ele><time>2013-11-17T12:53:25Z</time></trkpt>
<trkpt lat="54.2458350000" lon="-2.2415840000"><ele>564</ele><time>2013-11-17T12:53:26Z</time></trkpt>
<trkpt lat="54.2458360000" lon="-2.2415840000"><ele>564</ele><time>2013-11-17T12:53:27Z</time></trkpt>
<trkpt lat="54.2458370000" lon="-2.2415840000"><ele>564</ele><time>2013-11-17T12:53:28Z</time></trkpt>
<trkpt lat="54.2458380000" lon="-2.2415840000"><ele>564</ele><time>2013-11-17T12:53:29Z</time></trkpt>
<trkpt lat="54.2458380000" lon="-2.2415850000"><ele>564</ele><time>2013-11-17T12:53:30Z</time></trkpt>
<trkpt lat="54.2458380000" lon="-2.2415850000"><ele>564</ele><time>2013-11-17T12:53:31Z</time></trkpt>
<trkpt lat="54.2458380000" lon="-2.2415840000"><ele>564</ele><time>2013-11-17T12:53:32Z</time></trkpt>
<trkpt lat="54.2458380000" lon="-2.2415840000"><ele>564</ele><time>2013-11-17T12:53:33Z</time></trkpt>
<trkpt lat="54.2458370000" lon="-2.2415840000"><ele>564</ele><time>2013-11-17T12:53:34Z</time></trkpt>
<trkpt lat="54.2458360000" lon="-2.2415830000"><ele>564</ele></trkpt>
<trkpt lat="54.2458360000" lon="-2.2415820000"><ele>564</ele><time>2013-11-17T12:53:36Z</time></trkpt>
<trkpt lat="54.2458370000" lon="-2.2415820000"><ele>564</ele><time>2013-11-17T12:53:37Z</time></trkpt>
<trkpt lat="54.2458370000" lon="-2.2415820000"><ele>564</ele><time>2013-11-17T12:53:38Z</time></trkpt>
<trkpt lat="54.2458380000" lon="-2.2415840000"><ele>564</ele><time>2013-11-17T12:53:39Z</time></trkpt>
<trkpt lat="54.2458400000" lon="-2.2415820000"><ele>564</ele><time>2013-11-17T12:53:40Z</time></trkpt>
<trkpt lat="54.2458410000" lon="-2.2415810000"><ele>564</ele><time>2013-11-17T12:53:41Z</time></trkpt>
<trkpt lat="54.2458410000" lon="-2.2415790000"><ele>564</ele><time>2013-11-17T12:53:42Z</time></trkpt>
<trkpt lat="54.2458400000" lon="-2.2415790000"><ele>564</ele><time>2013-11-17T12:53:43Z</time></trkpt>
<trkpt lat="54.2458400000" lon="-2.2415790000"><ele>564</ele><time>2013-11-17T12:53:44Z</time></trkpt>
<trkpt lat="54.2458390000" lon="-2.2415790000"><ele>564</ele><time>2013-11-17T12:53:45Z</time></trkpt>
<trkpt lat="54.2458390000" lon="-2.2415790000"><ele>564</ele><time>2013-11-17T12:53:46Z</time></trkpt>
<trkpt lat="54.2458380000" lon="-2.2415790000"><ele>564</ele><time>2013-11-17T12:53:47Z</time></trkpt>
<trkpt lat="54.2458380000" lon="-2.2415780000"><ele>564</ele><time>2013-11-17T12:53:48Z</time></trkpt>
<trkpt lat="54.2458390000" lon="-2.2415780000"><ele>564</ele><time>2013-11-17T12:53:49Z</time></trkpt>
<trkpt lat="54.2458380000" lon="-2.2415790000"><ele>564</ele><time>2013-11-17T12:53:50Z</time></trkpt>
<trkpt lat="54.2458370000" lon="-2.2415800000"><ele>564</ele><time>2013-11-17T12:53:51Z</time></trkpt>
<trkpt lat="54.2458360000" lon="-2.2415830000"><ele>564</ele><time>2013-11-17T12:53:52Z</time></trkpt>
<trkpt lat="54.2458330000" lon="-2.2415870000"><ele>564</ele><time>2013-11-17T12:53:53Z</time></trkpt>
<trkpt lat="54.2458320000" lon="-2.2415860000"><ele>564</ele><time>2013-11-17T12:53:54Z</time></trkpt>
<trkpt lat="54.2458320000" lon="-2.2415860000"><ele>564</ele><time>2013-11-17T12:53:55Z</time></trkpt>
<trkpt lat="54.2458350000" lon="-2.2415860000"><ele>564</ele><time>2013-11-17T12:53:56Z</time></trkpt>
<trkpt lat="54.2458360000" lon="-2.2415870000"><ele>564</ele><time>2013-11-17T12:53:57Z</time></trkpt>
<trkpt lat="54.2458360000" lon="-2.2415860000"><ele>564</ele><time>2013-11-17T12:53:58Z</time></trkpt>
<trkpt lat="54.2458360000" lon="-2.2415850000"><ele>564</ele><time>2013-11-17T12:53:59Z</time></trkpt>
<trkpt lat="54.2458360000" lon="-2.2415850000"><ele>564</ele><time>2013-11-17T12:54:00Z</time></trkpt>
<trkpt lat="54.2458360000" lon="-2.2415830000"><ele>564</ele><time>2013-11-17T12:54:01Z</time></trkpt>
<trkpt lat="54.2458350000" lon="-2.2415810000"><ele>564</ele><time>2013-11-17T12:54:02Z</time></trkpt>
<trkpt lat="54.2458330000" lon="-2.2415780000"><ele>564</ele><time>2013-11-17T12:54:03Z</time></trkpt>
<trkpt lat="54.2458330000" lon="-2.2415780000"><ele>564</ele><time>2013-11-17T12:54:04Z</time></trkpt>
<trkpt lat="54.2458320000" lon="-2.2415780000"><ele>564</ele><time>2013-11-17T12:54:05Z</time></trkpt>
<trkpt lat="54.2458330000" lon="-2.2415770000"><ele>564</ele><time>2013-11-17T12:54:06Z</time></trkpt>
<trkpt lat="54.2458330000" lon="-2.2415790000"><ele>564</ele><time>2013-11-17T12:54:07Z</time></trkpt>
<trkpt lat="54.2458330000" lon="-2.2415770000"><ele>564</ele><time>2013-11-17T12:54:08Z</time></trkpt>
<trkpt lat="54.2458340000" lon="-2.2415800000"><ele>564</ele><time>2013-11-17T12:54:09Z</time></trkpt>
<trkpt lat="54.2458330000" lon="-2.2415860000"><ele>564</ele><time>2013-11-17T12:54:10Z</time></trkpt>
<trkpt lat="54.2458330000" lon="-2.2415890000"><ele>564</ele><time>2013-11-17T12:54:11Z</time></trkpt>
<trkpt lat="54.2458330000" lon="-2.2415890000"><ele>564</ele><time>2013-11-17T12:54:12Z</time></trkpt>
<trkpt lat="54.2458330000" lon="-2.2415880000"><ele>564</ele><time>2013-11-17T12:54:13Z</time></trkpt>
<trkpt lat="54.2458330000" lon="-2.2415860000"><ele>564</ele><time>2013-11-17T12:54:14Z</time></trkpt>
<trkpt lat="54.2458310000" lon="-2.2415850000"><ele>564</ele><time>2013-11-17T12:54:15Z</time></trkpt>
<trkpt lat="54.2458300000" lon="-2.2415850000"><ele>564</ele><time>2013-11-17T12:54:16Z</time></trkpt>
<trkpt lat="54.2458280000" lon="-2.2415850000"><ele>564</ele><time>2013-11-17T12:54:17Z</time></trkpt>
<trkpt lat="54.2458280000" lon="-2.2415860000"><ele>564</ele><time>2013-11-17T12:54:18Z</time></trkpt>
<trkpt lat="54.2458270000" lon="-2.2415850000"><ele>564</ele><time>2013-11-17T12:54:19Z</time></trkpt>
<trkpt lat="54.2458250000" lon="-2.2415850000"><ele>564</ele><time>2013-11-17T12:54:20Z</time></trkpt>
<trkpt lat="54.2458260000" lon="-2.2415840000"><ele>564</ele><time>2013-11-17T12:54:21Z</time></trkpt>
<trkpt lat="54.2458250000" lon="-2.2415840000"><ele>564</ele><time>2013-11-17T12:54:22Z</time></trkpt>
<trkpt lat="54.2458250000" lon="-2.2415810000"><ele>564</ele><time>2013-11-17T12:54:23Z</time></trkpt>
<trkpt lat="54.2458260000" lon="-2.2415790000"><ele>564</ele><time>2013-11-17T12:54:24Z</time></trkpt>
<trkpt lat="54.2458270000" lon="-2.2415790000"><ele>564</ele><time>2013-11-17T12:54:25Z</time></trkpt>
<trkpt lat="54.2458280000" lon="-2.2415790000"><ele>564</ele><time>2013-11-17T12:54:26Z</time></trkpt>
<trkpt lat="54.2458280000" lon="-2.2415780000"><ele>564</ele><time>2013-11-17T12:54:27Z</time></trkpt>
<trkpt lat="54.2458260000" lon="-2.2415770000"><ele>564</ele><time>2013-11-17T12:54:28Z</time></trkpt>
<trkpt lat="54.2458240000" lon="-2.2415760000"><ele>564</ele><time>2013-11-17T12:54:29Z</time></trkpt>
<trkpt lat="54.2458240000" lon="-2.2415740000"><ele>564</ele><time>2013-11-17T12:54:30Z</time></trkpt>
<trkpt lat="54.2458240000" lon="-2.2415720000"><ele>564</ele><time>2013-11-17T12:54:31Z</time></trkpt>
<trkpt lat="54.2458250000" lon="-2.2415710000"><ele>564</ele><time>2013-11-17T12:54:32Z</time></trkpt>
<trkpt lat="54.2458260000" lon="-2.2415710000"><ele>564</ele><time>2013-11-17T12:54:33Z</time></trkpt>
<trkpt lat="54.2458250000" lon="-2.2415710000"><ele>564</ele><time>2013-11-17T12:54:34Z</time></trkpt>
<trkpt lat="54.2458240000" lon="-2.2415740000"><ele>564</ele><time>2013-11-17T12:54:35Z</time></trkpt>
<trkpt lat="54.2458230000" lon="-2.2415760000"><ele>564</ele><time>2013-11-17T12:54:36Z</time></trkpt>
<trkpt lat="54.2458220000" lon="-2.2415770000"><ele>564</ele><time>2013-11-17T12:54:37Z</time></trkpt>
<trkpt lat="54.2458220000" lon="-2.2415770000"><ele>564</ele><time>2013-11-17T12:54:38Z</time></trkpt>
<trkpt lat="54.2458220000" lon="-2.2415780000"><ele>564</ele><time>2013-11-17T12:54:39Z</time></trkpt>
<trkpt lat="54.2458220000" lon="-2.2415780000"><ele>564</ele><time>2013-11-17T12:54:40Z</time></trkpt>
<trkpt lat="54.2458220000" lon="-2.2415770000"><ele>564</ele><time>2013-11-17T12:54:41Z</time></trkpt>
<trkpt lat="54.2458230000" lon="-2.2415750000"><ele>564</ele><time>2013-11-17T12:54:42Z</time></trkpt>
<trkpt lat="54.2458230000" lon="-2.2415720000"><ele>564</ele></trkpt>
<trkpt lat="54.2458230000" lon="-2.2415710000"><ele>564</ele><time>2013-11-17T12:54:44Z</time></trkpt>
<trkpt lat="54.2458240000" lon="-2.2415700000"><ele>564</ele><time>2013-11-17T12:54:45Z</time></trkpt>
<trkpt lat="54.2458230000" lon="-2.2415690000"><ele>564</ele><time>2013-11-17T12:54:46Z</time></trkpt>
<trkpt lat="54.2458230000" lon="-2.2415680000"><ele>564</ele><time>2013-11-17T12:54:47Z</time></trkpt>
<trkpt lat="54.2458230000" lon="-2.2415680000"><ele>564</ele><time>2013-11-17T12:54:48Z</time></trkpt>
<trkpt lat="54.2458230000" lon="-2.2415690000"><ele>564</ele><time>2013-11-17T12:54:49Z</time></trkpt>
<trkpt lat="54.2458230000" lon="-2.2415690000"><ele>564</ele><time>2013-11-17T12:54:50Z</time></trkpt>
<trkpt lat="54.2458240000" lon="-2.2415680000"><ele>564</ele><time>2013-11-17T12:54:51Z</time></trkpt>
<trkpt lat="54.2458260000" lon="-2.2415660000"><ele>564</ele><time>2013-11-17T12:54:52Z</time></trkpt>
<trkpt lat="54.2458260000" lon="-2.2415640000"><ele>564</ele><time>2013-11-17T12:54:53Z</time></trkpt>
<trkpt lat="54.2458260000" lon="-2.2415650000"><ele>564</ele><time>2013-11-17T12:54:54Z</time></trkpt>
<trkpt lat="54.2458260000" lon="-2.2415670000"><ele>564</ele><time>2013-11-17T12:54:55Z</time></trkpt>
<trkpt lat="54.2458260000" lon="-2.2415680000"><ele>564</ele><time>2013-11-17T12:54:56Z</time></trkpt>
<trkpt lat="54.2458270000" lon="-2.2415680000"><ele>564</ele><time>2013-11-17T12:54:57Z</time></trkpt>
<trkpt lat="54.2458260000" lon="-2.2415670000"><ele>564</ele><time>2013-11-17T12:54:58Z</time></trkpt>
<trkpt lat="54.2458250000" lon="-2.2415670000"><ele>564</ele><time>2013-11-17T12:54:59Z</time></trkpt>
<trkpt lat="54.2458240000" lon="-2.2415690000"><ele>564</ele><time>2013-11-17T12:55:00Z</time></trkpt>
<trkpt lat="54.2458240000" lon="-2.2415710000"><ele>564</ele><time>2013-11-17T12:55:01Z</time></trkpt>
<trkpt lat="54.2458250000" lon="-2.2415730000"><ele>564</ele><time>2013-11-17T12:55:02Z</time></trkpt>
<trkpt lat="54.2458270000" lon="-2.2415760000"><ele>564</ele><time>2013-11-17T12:55:03Z</time></trkpt>
<trkpt lat="54.2458280000" lon="-2.2415780000"><ele>564</ele><time>2013-11-17T12:55:04Z</time></trkpt>
<trkpt lat="54.2458280000" lon="-2.2415800000"><ele>564</ele><time>2013-11-17T12:55:05Z</time></trkpt>
<trkpt lat="54.2458290000" lon="-2.2415810000"><ele>564</ele><time>2013-11-17T12:55:06Z</time></trkpt>
<trkpt lat="54.2458300000" lon="-2.2415810000"><ele>564</ele><time>2013-11-17T12:55:07Z</time></trkpt>
<trkpt lat="54.2458310000" lon="-2.2415820000"><ele>564</ele><time>2013-11-17T12:55:08Z</time></trkpt>
<trkpt lat="54.2458330000" lon="-2.2415830000"><ele>564</ele><time>2013-11-17T12:55:09Z</time></trkpt>
<trkpt lat="54.2458340000" lon="-2.2415830000"><ele>564</ele><time>2013-11-17T12:55:10Z</time></trkpt>
<trkpt lat="54.2458350000" lon="-2.2415820000"><ele>564</ele><time>2013-11-17T12:55:11Z</time></trkpt>
<trkpt lat="54.2458340000" lon="-2.2415800000"><ele>564</ele><time>2013-11-17T12:55:12Z</time></trkpt>
<trkpt lat="54.2458340000" lon="-2.2415770000"><ele>564</ele><time>2013-11-17T12:55:13Z</time></trkpt>
<trkpt lat="54.2458330000" lon="-2.2415750000"><ele>564</ele><time>2013-11-17T12:55:14Z</time></trkpt>
<trkpt lat="54.2458310000" lon="-2.2415740000"><ele>564</ele><time>2013-11-17T12:55:15Z</time></trkpt>
<trkpt lat="54.2458300000" lon="-2.2415730000"><ele>564</ele><time>2013-11-17T12:55:16Z</time></trkpt>
<trkpt lat="54.2458280000" lon="-2.2415730000"><ele>564</ele><time>2013-11-17T12:55:17Z</time></trkpt>
<trkpt lat="54.2458270000" lon="-2.2415730000"><ele>564</ele><time>2013-11-17T12:55:18Z</time></trkpt>
<trkpt lat="54.2458260000" lon="-2.2415740000"><ele>564</ele><time>2013-11-17T12:55:19Z</time></trkpt>
<trkpt lat="54.2458260000" lon="-2.2415750000"><ele>564</ele><time>2013-11-17T12:55:20Z</time></trkpt>
<trkpt lat="54.2458270000" lon="-2.2415770000"><ele>564</ele><time>2013-11-17T12:55:21Z</time></trkpt>
<trkpt lat="54.2458270000" lon="-2.2415790000"><ele>564</ele><time>2013-11-17T12:55:22Z</time></trkpt>
<trkpt lat="54.2458260000" lon="-2.2415800000"><ele>564</ele><time>2013-11-17T12:55:23Z</time></trkpt>
<trkpt lat="54.2458250000" lon="-2.2415790000"><ele>564</ele><time>2013-11-17T12:55:24Z</time></trkpt>
<trkpt lat="54.2458250000" lon="-2.2415770000"><ele>564</ele><time>2013-11-17T12:55:25Z</time></trkpt>
<trkpt lat="54.2458250000" lon="-2.2415750000"><ele>564</ele><time>2013-11-17T12:55:26Z</time></trkpt>
<trkpt lat="54.2458260000" lon="-2.2415720000"><ele>564</ele><time>2013-11-17T12:55:27Z</time></trkpt>
<trkpt lat="54.2458250000" lon="-2.2415690000"><ele>564</ele><time>2013-11-17T12:55:28Z</time></trkpt>
<trkpt lat="54.2458250000" lon="-2.2415690000"><ele>564</ele><time>2013-11-17T12:55:29Z</time></trkpt>
<trkpt lat="54.2458250000" lon="-2.2415680000"><ele>564</ele><time>2013-11-17T12:55:30Z</time></trkpt>
<trkpt lat="54.2458220000" lon="-2.2415660000"><ele>564</ele><time>2013-11-17T12:55:31Z</time></trkpt>
<trkpt lat="54.2458190000" lon="-2.2415630000"><ele>564</ele><time>2013-11-17T12:55:32Z</time></trkpt>
<trkpt lat="54.2458230000" lon="-2.2415620000"><ele>564</ele><time>2013-11-17T12:55:39Z</time></trkpt>
<trkpt lat="54.2458230000" lon="-2.2415620000"><ele>564</ele><time>2013-11-17T12:55:40Z</time></trkpt>
<trkpt lat="54.2458230000" lon="-2.2415600000"><ele>564</ele><time>2013-11-17T12:55:41Z</time></trkpt>
<trkpt lat="54.2458230000" lon="-2.2415610000"><ele>564</ele><time>2013-11-17T12:55:42Z</time></trkpt>
<trkpt lat="54.2458250000" lon="-2.2415610000"><ele>564</ele><time>2013-11-17T12:55:43Z</time></trkpt>
<trkpt lat="54.2458270000" lon="-2.2415620000"><ele>564</ele><time>2013-11-17T12:55:44Z</time></trkpt>
<trkpt lat="54.2458280000" lon="-2.2415640000"><ele>564</ele></trkpt>
<trkpt lat="54.2458280000" lon="-2.2415640000"><ele>564</ele><time>2013-11-17T12:55:46Z</time></trkpt>
<trkpt lat="54.2458290000" lon="-2.2415640000"><ele>564</ele><time>2013-11-17T12:55:47Z</time></trkpt>
<trkpt lat="54.2458300000" lon="-2.2415630000"><ele>564</ele><time>2013-11-17T12:55:48Z</time></trkpt>
<trkpt lat="54.2458290000" lon="-2.2415620000"><ele>564</ele><time>2013-11-17T12:55:49Z</time></trkpt>
<trkpt lat="54.2458280000" lon="-2.2415610000"><ele>564</ele><time>2013-11-17T12:55:50Z</time></trkpt>
<trkpt lat="54.2458280000" lon="-2.2415600000"><ele>564</ele><time>2013-11-17T12:55:51Z</time></trkpt>
<trkpt lat="54.2458270000" lon="-2.2415580000"><ele>564</ele><time>2013-11-17T12:55:52Z</time></trkpt>
<trkpt lat="54.2458260000" lon="-2.2415560000"><ele>564</ele><time>2013-11-17T12:55:53Z</time></trkpt>
<trkpt lat="54.2458260000" lon="-2.2415540000"><ele>564</ele><time>2013-11-17T12:55:54Z</time></trkpt>
<trkpt lat="54.2458240000" lon="-2.2415530000"><ele>564</ele><time>2013-11-17T12:55:55Z</time></trkpt>
<trkpt lat="54.2458230000" lon="-2.2415540000"><ele>564</ele><time>2013-11-17T12:55:56Z</time></trkpt>
<trkpt lat="54.2458210000" lon="-2.2415540000"><ele>564</ele><time>2013-11-17T12:55:57Z</time></trkpt>
<trkpt lat="54.2458210000" lon="-2.2415550000"><ele>564</ele><time>2013-11-17T12:55:58Z</time></trkpt>
<trkpt lat="54.2458210000" lon="-2.2415540000"><ele>564</ele><time>2013-11-17T12:55:59Z</time></trkpt>
<trkpt lat="54.2458210000" lon="-2.2415550000"><ele>564</ele><time>2013-11-17T12:56:00Z</time></trkpt>
<trkpt lat="54.2458220000" lon="-2.2415550000"><ele>564</ele><time>2013-11-17T12:56:01Z</time></trkpt>
<trkpt lat="54.2458240000" lon="-2.2415570000"><ele>564</ele><time>2013-11-17T12:56:02Z</time></trkpt>
<trkpt lat="54.2458250000" lon="-2.2415580000"><ele>564</ele><time>2013-11-17T12:56:03Z</time></trkpt>
<trkpt lat="54.2458270000" lon="-2.2415590000"><ele>564</ele><time>2013-11-17T12:56:04Z</time></trkpt>
<trkpt lat="54.2458280000" lon="-2.2415590000"><ele>564</ele><time>2013-11-17T12:56:05Z</time></trkpt>
<trkpt lat="54.2458290000" lon="-2.2415590000"><ele>564</ele><time>2013-11-17T12:56:06Z</time></trkpt>
<trkpt lat="54.2458300000" lon="-2.2415580000"><ele>564</ele><time>2013-11-17T12:56:07Z</time></trkpt>
<trkpt lat="54.2458290000" lon="-2.2415580000"><ele>564</ele><time>2013-11-17T12:56:08Z</time></trkpt>
<trkpt lat="54.2458290000" lon="-2.2415570000"><ele>564</ele><time>2013-11-17T12:56:09Z</time></trkpt>
<trkpt lat="54.2458290000" lon="-2.2415570000"><ele>564</ele><time>2013-11-17T12:56:10Z</time></trkpt>
<trkpt lat="54.2458290000" lon="-2.2415580000"><ele>564</ele><time>2013-11-17T12:56:11Z</time></trkpt>
<trkpt lat="54.2458290000" lon="-2.2415560000"><ele>564</ele><time>2013-11-17T12:56:12Z</time></trkpt>
<trkpt lat="54.2458280000" lon="-2.2415540000"><ele>564</ele><time>2013-11-17T12:56:13Z</time></trkpt>
<trkpt lat="54.2458280000" lon="-2.2415530000"><ele>564</ele><time>2013-11-17T12:56:14Z</time></trkpt>
<trkpt lat="54.2458270000" lon="-2.2415530000"><ele>564</ele><time>2013-11-17T12:56:15Z</time></trkpt>
<trkpt lat="54.2458260000" lon="-2.2415540000"><ele>564</ele><time>2013-11-17T12:56:16Z</time></trkpt>
<trkpt lat="54.2458240000" lon="-2.2415560000"><ele>564</ele><time>2013-11-17T12:56:17Z</time></trkpt>
<trkpt lat="54.2458240000" lon="-2.2415560000"><ele>564</ele><time>2013-11-17T12:56:18Z</time></trkpt>
<trkpt lat="54.2458260000" lon="-2.2415550000"><ele>564</ele><time>2013-11-17T12:56:19Z</time></trkpt>
<trkpt lat="54.2458270000" lon="-2.2415540000"><ele>564</ele><time>2013-11-17T12:56:20Z</time></trkpt>
<trkpt lat="54.2458270000" lon="-2.2415530000"><ele>564</ele><time>2013-11-17T12:56:21Z</time></trkpt>
<trkpt lat="54.2458270000" lon="-2.2415530000"><ele>564</ele><time>2013-11-17T12:56:22Z</time></trkpt>
<trkpt lat="54.2458260000" lon="-2.2415530000"><ele>564</ele><time>2013-11-17T12:56:23Z</time></trkpt>
<trkpt lat="54.2458260000" lon="-2.2415520000"><ele>564</ele><time>2013-11-17T12:56:24Z</time></trkpt>
<trkpt lat="54.2458260000" lon="-2.2415500000"><ele>564</ele><time>2013-11-17T12:56:25Z</time></trkpt>
<trkpt lat="54.2458260000" lon="-2.2415480000"><ele>564</ele><time>2013-11-17T12:56:26Z</time></trkpt>
<trkpt lat="54.2458250000" lon="-2.2415470000"><ele>564</ele><time>2013-11-17T12:56:27Z</time></trkpt>
<trkpt lat="54.2458250000" lon="-2.2415460000"><ele>564</ele><time>2013-11-17T12:56:28Z</time></trkpt>
<trkpt lat="54.2458250000" lon="-2.2415450000"><ele>564</ele><time>2013-11-17T12:56:29Z</time></trkpt>
<trkpt lat="54.2458260000" lon="-2.2415430000"><ele>564</ele><time>2013-11-17T12:56:30Z</time></trkpt>
<trkpt lat="54.2458250000" lon="-2.2415440000"><ele>564</ele><time>2013-11-17T12:56:31Z</time></trkpt>
<trkpt lat="54.2458230000" lon="-2.2415460000"><ele>564</ele><time>2013-11-17T12:56:32Z</time></trkpt>
<trkpt lat="54.2458220000" lon="-2.2415460000"><ele>564</ele><time>2013-11-17T12:56:33Z</time></trkpt>
<trkpt lat="54.2458220000" lon="-2.2415460000"><ele>564</ele><time>2013-11-17T12:56:34Z</time></trkpt>
<trkpt lat="54.2458230000" lon="-2.2415450000"><ele>564</ele><time>2013-11-17T12:56:35Z</time></trkpt>
<trkpt lat="54.2458230000" lon="-2.2415450000"><ele>564</ele><time>2013-11-17T12:56:37Z</time></trkpt>
<trkpt lat="54.2458230000" lon="-2.2415470000"><ele>564</ele><time>2013-11-17T12:56:38Z</time></trkpt>
<trkpt lat="54.2458230000" lon="-2.2415500000"><ele>564</ele><time>2013-11-17T12:56:39Z</time></trkpt>
<trkpt lat="54.2458230000" lon="-2.2415510000"><ele>564</ele><time>2013-11-17T12:56:40Z</time></trkpt>
<trkpt lat="54.2458210000" lon="-2.2415520000"><ele>564</ele><time>2013-11-17T12:56:41Z</time></trkpt>
<trkpt lat="54.2458200000" lon="-2.2415530000"><ele>564</ele><time>2013-11-17T12:56:42Z</time></trkpt>
<trkpt lat="54.2458200000" lon="-2.2415530000"><ele>564</ele><time>2013-11-17T12:56:43Z</time></trkpt>
<trkpt lat="54.2458200000" lon="-2.2415530000"><ele>564</ele><time>2013-11-17T12:56:44Z</time></trkpt>
<trkpt lat="54.2458210000" lon="-2.2415530000"><ele>564</ele><time>2013-11-17T12:56:45Z</time></trkpt>
<trkpt lat="54.2458230000" lon="-2.2415540000"><ele>564</ele><time>2013-11-17T12:56:46Z</time></trkpt>
<trkpt lat="54.2458230000" lon="-2.2415540000"><ele>564</ele></trkpt>
<trkpt lat="54.2458230000" lon="-2.2415530000"><ele>564</ele><time>2013-11-17T12:56:48Z</time></trkpt>
<trkpt lat="54.2458230000" lon="-2.2415510000"><ele>564</ele><time>2013-11-17T12:56:49Z</time></trkpt>
<trkpt lat="54.2458260000" lon="-2.2415490000"><ele>564</ele><time>2013-11-17T12:56:50Z</time></trkpt>
<trkpt lat="54.2458270000" lon="-2.2415480000"><ele>564</ele><time>2013-11-17T12:56:51Z</time></trkpt>
<trkpt lat="54.2458270000" lon="-2.2415490000"><ele>564</ele><time>2013-11-17T12:56:52Z</time></trkpt>
<trkpt lat="54.2458250000" lon="-2.2415500000"><ele>564</ele><time>2013-11-17T12:56:53Z</time></trkpt>
<trkpt lat="54.2458230000" lon="-2.2415500000"><ele>564</ele><time>2013-11-17T12:56:54Z</time></trkpt>
<trkpt lat="54.2458230000" lon="-2.2415500000"><ele>564</ele><time>2013-11-17T12:56:55Z</time></trkpt>
<trkpt lat="54.2458220000" lon="-2.2415490000"><ele>564</ele><time>2013-11-17T12:56:56Z</time></trkpt>
<trkpt lat="54.2458220000" lon="-2.2415490000"><ele>564</ele><time>2013-11-17T12:56:57Z</time></trkpt>
<trkpt lat="54.2458220000" lon="-2.2415490000"><ele>564</ele><time>2013-11-17T12:56:58Z</time></trkpt>
<trkpt lat="54.2458240000" lon="-2.2415500000"><ele>564</ele><time>2013-11-17T12:56:59Z</time></trkpt>
<trkpt lat="54.2458260000" lon="-2.2415500000"><ele>564</ele><time>2013-11-17T12:57:00Z</time></trkpt>
<trkpt lat="54.2458270000" lon="-2.2415510000"><ele>564</ele><time>2013-11-17T12:57:01Z</time></trkpt>
<trkpt lat="54.2458280000" lon="-2.2415510000"><ele>564</ele><time>2013-11-17T12:57:02Z</time></trkpt>
<trkpt lat="54.2458280000" lon="-2.2415520000"><ele>564</ele><time>2013-11-17T12:57:03Z</time></trkpt>
<trkpt lat="54.2458290000" lon="-2.2415510000"><ele>564</ele><time>2013-11-17T12:57:04Z</time></trkpt>
<trkpt lat="54.2458290000" lon="-2.2415510000"><ele>564</ele><time>2013-11-17T12:57:05Z</time></trkpt>
<trkpt lat="54.2458310000" lon="-2.2415520000"><ele>564</ele><time>2013-11-17T12:57:06Z</time></trkpt>
<trkpt lat="54.2458320000" lon="-2.2415510000"><ele>564</ele><time>2013-11-17T12:57:07Z</time></trkpt>
<trkpt lat="54.2458320000" lon="-2.2415540000"><ele>564</ele><time>2013-11-17T12:57:08Z</time></trkpt>
<trkpt lat="54.2458320000" lon="-2.2415570000"><ele>564</ele><time>2013-11-17T12:57:09Z</time></trkpt>
<trkpt lat="54.2458330000" lon="-2.2415600000"><ele>564</ele><time>2013-11-17T12:57:10Z</time></trkpt>
<trkpt lat="54.2458350000" lon="-2.2415630000"><ele>564</ele><time>2013-11-17T12:57:11Z</time></trkpt>
<trkpt lat="54.2458340000" lon="-2.2415650000"><ele>564</ele><time>2013-11-17T12:57:12Z</time></trkpt>
<trkpt lat="54.2458310000" lon="-2.2415670000"><ele>564</ele><time>2013-11-17T12:57:13Z</time></trkpt>
<trkpt lat="54.2458310000" lon="-2.2415660000"><ele>564</ele><time>2013-11-17T12:57:14Z</time></trkpt>
<trkpt lat="54.2458290000" lon="-2.2415680000"><ele>564</ele><time>2013-11-17T12:57:15Z</time></trkpt>
<trkpt lat="54.2458290000" lon="-2.2415680000"><ele>564</ele><time>2013-11-17T12:57:16Z</time></trkpt>
<trkpt lat="54.2458270000" lon="-2.2415700000"><ele>564</ele><time>2013-11-17T12:57:17Z</time></trkpt>
<trkpt lat="54.2458250000" lon="-2.2415730000"><ele>564</ele><time>2013-11-17T12:57:18Z</time></trkpt>
<trkpt lat="54.2458250000" lon="-2.2415720000"><ele>564</ele><time>2013-11-17T12:57:19Z</time></trkpt>
<trkpt lat="54.2458230000" lon="-2.2415740000"><ele>564</ele><time>2013-11-17T12:57:20Z</time></trkpt>
<trkpt lat="54.2458230000" lon="-2.2415770000"><ele>564</ele><time>2013-11-17T12:57:21Z</time></trkpt>
<trkpt lat="54.2458250000" lon="-2.2415780000"><ele>564</ele><time>2013-11-17T12:57:22Z</time></trkpt>
<trkpt lat="54.2458260000" lon="-2.2415760000"><ele>564</ele><time>2013-11-17T12:57:23Z</time></trkpt>
<trkpt lat="54.2458260000" lon="-2.2415740000"><ele>564</ele><time>2013-11-17T12:57:24Z</time></trkpt>
<trkpt lat="54.2458270000" lon="-2.2415710000"><ele>564</ele><time>2013-11-17T12:57:25Z</time></trkpt>
<trkpt lat="54.2458270000" lon="-2.2415690000"><ele>564</ele><time>2013-11-17T12:57:26Z</time></trkpt>
<trkpt lat="54.2458260000" lon="-2.2415690000"><ele>564</ele><time>2013-11-17T12:57:27Z</time></trkpt>
<trkpt lat="54.2458250000" lon="-2.2415690000"><ele>564</ele><time>2013-11-17T12:57:28Z</time></trkpt>
<trkpt lat="54.2458260000" lon="-2.2415690000"><ele>564</ele><time>2013-11-17T12:57:29Z</time></trkpt>
<trkpt lat="54.2458260000" lon="-2.2415680000"><ele>564</ele><time>2013-11-17T12:57:30Z</time></trkpt>
<trkpt lat="54.2458260000" lon="-2.2415690000"><ele>564</ele><time>2013-11-17T12:57:31Z</time></trkpt>
<trkpt lat="54.2458270000" lon="-2.2415690000"><ele>564</ele><time>2013-11-17T12:57:32Z</time></trkpt>
<trkpt lat="54.2458270000" lon="-2.2415680000"><ele>564</ele><time>2013-11-17T12:57:33Z</time></trkpt>
<trkpt lat="54.2458270000" lon="-2.2415680000"><ele>564</ele><time>2013-11-17T12:57:34Z</time></trkpt>
<trkpt lat="54.2458280000" lon="-2.2415670000"><ele>564</ele><time>2013-11-17T12:57:35Z</time></trkpt>
<trkpt lat="54.2458290000" lon="-2.2415670000"><ele>564</ele><time>2013-11-17T12:57:36Z</time></trkpt>
<trkpt lat="54.2458290000" lon="-2.2415670000"><ele>564</ele><time>2013-11-17T12:57:37Z</time></trkpt>
<trkpt lat="54.2458290000" lon="-2.2415670000"><ele>564</ele><time>2013-11-17T12:57:38Z</time></trkpt>
<trkpt lat="54.2458290000" lon="-2.2415680000"><ele>564</ele><time>2013-11-17T12:57:39Z</time></trkpt>
<trkpt lat="54.2458300000" lon="-2.2415680000"><ele>564</ele><time>2013-11-17T12:57:40Z</time></trkpt>
<trkpt lat="54.2458310000" lon="-2.2415670000"><ele>564</ele><time>2013-11-17T12:57:41Z</time></trkpt>
<trkpt lat="54.2458320000" lon="-2.2415640000"><ele>564</ele><time>2013-11-17T12:57:42Z</time></trkpt>
<trkpt lat="54.2458340000" lon="-2.2415630000"><ele>564</ele><time>2013-11-17T12:57:43Z</time></trkpt>
<trkpt lat="54.2458350000" lon="-2.2415640000"><ele>564</ele><time>2013-11-17T12:57:44Z</time></trkpt>
<trkpt lat="54.2458360000" lon="-2.2415620000"><ele>564</ele><time>2013-11-17T12:57:45Z</time></trkpt>
<trkpt lat="54.2458370000" lon="-2.2415590000"><ele>564</ele><time>2013-11-17T12:57:46Z</time></trkpt>
<trkpt lat="54.2458370000" lon="-2.2415540000"><ele>564</ele><time>2013-11-17T12:57:47Z</time></trkpt>
<trkpt lat="54.2458380000" lon="-2.2415530000"><ele>564</ele><time>2013-11-17T12:57:48Z</time></trkpt>
<trkpt lat="54.2458390000" lon="-2.2415550000"><ele>564</ele><time>2013-11-17T12:57:49Z</time></trkpt>
<trkpt lat="54.2458400000" lon="-2.2415550000"><ele>564</ele><time>2013-11-17T12:57:50Z</time></trkpt>
<trkpt lat="54.2458400000" lon="-2.2415530000"><ele>564</ele><time>2013-11-17T12:57:51Z</time></trkpt>
<trkpt lat="54.2458400000" lon="-2.2415540000"><ele>564</ele><time>2013-11-17T12:57:52Z</time></trkpt>
<trkpt lat="54.2458410000" lon="-2.2415580000"><ele>564</ele><time>2013-11-17T12:57:53Z</time></trkpt>
<trkpt lat="54.2458440000" lon="-2.2415590000"><ele>564</ele><time>2013-11-17T12:57:54Z</time></trkpt>
<trkpt lat="54.2458470000" lon="-2.2415600000"><ele>564</ele></trkpt>
<trkpt lat="54.2458510000" lon="-2.2415620000"><ele>564</ele><time>2013-11-17T12:57:56Z</time></trkpt>
<trkpt lat="54.2458620000" lon="-2.2415650000"><ele>564</ele><time>2013-11-17T12:57:57Z</time></trkpt>
<trkpt lat="54.2458720000" lon="-2.2415670000"><ele>564</ele><time>2013-11-17T12:57:58Z</time></trkpt>
<trkpt lat="54.2458820000" lon="-2.2415670000"><ele>564</ele><time>2013-11-17T12:57:59Z</time></trkpt>
<trkpt lat="54.2458910000" lon="-2.2415660000"><ele>564</ele><time>2013-11-17T12:58:00Z</time></trkpt>
<trkpt lat="54.2459000000" lon="-2.2415630000"><ele>564</ele><time>2013-11-17T12:58:01Z</time></trkpt>
<trkpt lat="54.2459090000" lon="-2.2415560000"><ele>564</ele><time>2013-11-17T12:58:02Z</time></trkpt>
<trkpt lat="54.2459140000" lon="-2.2415450000"><ele>564</ele><time>2013-11-17T12:58:03Z</time></trkpt>
<trkpt lat="54.2459180000" lon="-2.2415300000"><ele>564</ele><time>2013-11-17T12:58:04Z</time></trkpt>
<trkpt lat="54.2459220000" lon="-2.2415150000"><ele>564</ele><time>2013-11-17T12:58:05Z</time></trkpt>
<trkpt lat="54.2459250000" lon="-2.2415010000"><ele>564</ele><time>2013-11-17T12:58:06Z</time></trkpt>
<trkpt lat="54.2459280000" lon="-2.2414880000"><ele>564</ele><time>2013-11-17T12:58:07Z</time></trkpt>
<trkpt lat="54.2459320000" lon="-2.2414750000"><ele>564</ele><time>2013-11-17T12:58:08Z</time></trkpt>
<trkpt lat="54.2459360000" lon="-2.2414600000"><ele>564</ele><time>2013-11-17T12:58:09Z</time></trkpt>
<trkpt lat="54.2459380000" lon="-2.2414450000"><ele>564</ele><time>2013-11-17T12:58:10Z</time></trkpt>
<trkpt lat="54.2459400000" lon="-2.2414300000"><ele>564</ele><time>2013-11-17T12:58:11Z</time></trkpt>
<trkpt lat="54.2459430000" lon="-2.2414160000"><ele>564</ele><time>2013-11-17T12:58:12Z</time></trkpt>
<trkpt lat="54.2459450000" lon="-2.2413980000"><ele>564</ele><time>2013-11-17T12:58:13Z</time></trkpt>
<trkpt lat="54.2459480000" lon="-2.2413800000"><ele>564</ele><time>2013-11-17T12:58:14Z</time></trkpt>
<trkpt lat="54.2459520000" lon="-2.2413610000"><ele>564</ele><time>2013-11-17T12:58:15Z</time></trkpt>
<trkpt lat="54.2459550000" lon="-2.2413400000"><ele>564</ele><time>2013-11-17T12:58:16Z</time></trkpt>
<trkpt lat="54.2459580000" lon="-2.2413200000"><ele>564</ele><time>2013-11-17T12:58:17Z</time></trkpt>
<trkpt lat="54.2459610000" lon="-2.2413010000"><ele>564</ele><time>2013-11-17T12:58:18Z</time></trkpt>
<trkpt lat="54.2459650000" lon="-2.2412820000"><ele>564</ele><time>2013-11-17T12:58:19Z</time></trkpt>
<trkpt lat="54.2459690000" lon="-2.2412660000"><ele>564</ele><time>2013-11-17T12:58:20Z</time></trkpt>
<trkpt lat="54.2459720000" lon="-2.2412510000"><ele>564</ele><time>2013-11-17T12:58:21Z</time></trkpt>
<trkpt lat="54.2459750000" lon="-2.2412370000"><ele>564</ele><time>2013-11-17T12:58:22Z</time></trkpt>
<trkpt lat="54.2459780000" lon="-2.2412210000"><ele>564</ele><time>2013-11-17T12:58:23Z</time></trkpt>
<trkpt lat="54.2459810000" lon="-2.2412050000"><ele>564</ele><time>2013-11-17T12:58:24Z</time></trkpt>
<trkpt lat="54.2459840000" lon="-2.2411890000"><ele>564</ele><time>2013-11-17T12:58:25Z</time></trkpt>
<trkpt lat="54.2459870000" lon="-2.2411710000"><ele>564</ele></trkpt>
<trkpt lat="54.2459910000" lon="-2.2411530000"><ele>564</ele><time>2013-11-17T12:58:27Z</time></trkpt>
<trkpt lat="54.2459950000" lon="-2.2411350000"><ele>564</ele><time>2013-11-17T12:58:28Z</time></trkpt>
<trkpt lat="54.2459990000" lon="-2.2411180000"><ele>564</ele><time>2013-11-17T12:58:29Z</time></trkpt>
<trkpt lat="54.2460040000" lon="-2.2411010000"><ele>564</ele><time>2013-11-17T12:58:30Z</time></trkpt>
<trkpt lat="54.2460090000" lon="-2.2410830000"><ele>564</ele><time>2013-11-17T12:58:31Z</time></trkpt>
<trkpt lat="54.2460120000" lon="-2.2410620000"><ele>564</ele><time>2013-11-17T12:58:32Z</time></trkpt>
<trkpt lat="54.2460150000" lon="-2.2410430000"><ele>564</ele><time>2013-11-17T12:58:33Z</time></trkpt>
<trkpt lat="54.2460200000" lon="-2.2410270000"><ele>564</ele><time>2013-11-17T12:58:34Z</time></trkpt>
<trkpt lat="54.2460250000" lon="-2.2410120000"><ele>564</ele><time>2013-11-17T12:58:35Z</time></trkpt>
<trkpt lat="54.2460280000" lon="-2.2409950000"><ele>564</ele><time>2013-11-17T12:58:36Z</time></trkpt>
<trkpt lat="54.2460310000" lon="-2.2409770000"><ele>564</ele><time>2013-11-17T12:58:37Z</time></trkpt>
<trkpt lat="54.2460340000" lon="-2.2409580000"><ele>564</ele><time>2013-11-17T12:58:38Z</time></trkpt>
<trkpt lat="54.2460360000" lon="-2.2409380000"><ele>564</ele><time>2013-11-17T12:58:39Z</time></trkpt>
<trkpt lat="54.2460390000" lon="-2.2409190000"><ele>564</ele><time>2013-11-17T12:58:40Z</time></trkpt>
<trkpt lat="54.2460440000" lon="-2.2408970000"><ele>581</ele><time>2013-11-17T12:58:41Z</time></trkpt>
<trkpt lat="54.2460480000" lon="-2.2408750000"><ele>581</ele><time>2013-11-17T12:58:42Z</time></trkpt>
<trkpt lat="54.2460520000" lon="-2.2408550000"><ele>581</ele><time>2013-11-17T12:58:43Z</time></trkpt>
<trkpt lat="54.2460540000" lon="-2.2408390000"><ele>581</ele><time>2013-11-17T12:58:44Z</time></trkpt>
<trkpt lat="54.2460570000" lon="-2.2408240000"><ele>581</ele><time>2013-11-17T12:58:45Z</time></trkpt>
<trkpt lat="54.2460590000" lon="-2.2408100000"><ele>581</ele><time>2013-11-17T12:58:46Z</time></trkpt>
<trkpt lat="54.2460610000" lon="-2.2407940000"><ele>581</ele><time>2013-11-17T12:58:47Z</time></trkpt>
<trkpt lat="54.2460650000" lon="-2.2407770000"><ele>581</ele><time>2013-11-17T12:58:48Z</time></trkpt>
<trkpt lat="54.2460680000" lon="-2.2407600000"><ele>581</ele><time>2013-11-17T12:58:49Z</time></trkpt>
<trkpt lat="54.2460740000" lon="-2.2407430000"><ele>581</ele><time>2013-11-17T12:58:50Z</time></trkpt>
<trkpt lat="54.2460810000" lon="-2.2407250000"><ele>581</ele><time>2013-11-17T12:58:51Z</time></trkpt>
<trkpt lat="54.2460870000" lon="-2.2407050000"><ele>581</ele><time>2013-11-17T12:58:52Z</time></trkpt>
<trkpt lat="54.2460910000" lon="-2.2406870000"><ele>581</ele><time>2013-11-17T12:58:53Z</time></trkpt>
<trkpt lat="54.2460960000" lon="-2.2406680000"><ele>581</ele><time>2013-11-17T12:58:54Z</time></trkpt>
<trkpt lat="54.2461000000" lon="-2.2406480000"><ele>581</ele><time>2013-11-17T12:58:55Z</time></trkpt>
<trkpt lat="54.2461020000" lon="-2.2406290000"><ele>581</ele><time>2013-11-17T12:58:56Z</time></trkpt>
<trkpt lat="54.2461040000" lon="-2.2406160000"><ele>581</ele></trkpt>
<trkpt lat="54.2461060000" lon="-2.2406020000"><ele>581</ele><time>2013-11-17T12:58:58Z</time></trkpt>
<trkpt lat="54.2461080000" lon="-2.2405840000"><ele>581</ele><time>2013-11-17T12:58:59Z</time></trkpt>
<trkpt lat="54.2461100000" lon="-2.2405640000"><ele>581</ele><time>2013-11-17T12:59:00Z</time></trkpt>
<trkpt lat="54.2461100000" lon="-2.2405440000"><ele>581</ele><time>2013-11-17T12:59:01Z</time></trkpt>
<trkpt lat="54.2461100000" lon="-2.2405250000"><ele>581</ele><time>2013-11-17T12:59:02Z</time></trkpt>
<trkpt lat="54.2461150000" lon="-2.2405050000"><ele>581</ele><time>2013-11-17T12:59:03Z</time></trkpt>
<trkpt lat="54.2461190000" lon="-2.2404910000"><ele>581</ele><time>2013-11-17T12:59:04Z</time></trkpt>
<trkpt lat="54.2461220000" lon="-2.2404770000"><ele>581</ele><time>2013-11-17T12:59:05Z</time></trkpt>
<trkpt lat="54.2461250000" lon="-2.2404600000"><ele>581</ele><time>2013-11-17T12:59:06Z</time></trkpt>
<trkpt lat="54.2461290000" lon="-2.2404400000"><ele>581</ele><time>2013-11-17T12:59:07Z</time></trkpt>
<trkpt lat="54.2461340000" lon="-2.2404200000"><ele>581</ele><time>2013-11-17T12:59:08Z</time></trkpt>
<trkpt lat="54.2461380000" lon="-2.2404010000"><ele>581</ele><time>2013-11-17T12:59:09Z</time></trkpt>
<trkpt lat="54.2461440000" lon="-2.2403810000"><ele>581</ele><time>2013-11-17T12:59:10Z</time></trkpt>
<trkpt lat="54.2461490000" lon="-2.2403620000"><ele>581</ele><time>2013-11-17T12:59:11Z</time></trkpt>
<trkpt lat="54.2461530000" lon="-2.2403440000"><ele>581</ele><time>2013-11-17T12:59:12Z</time></trkpt>
<trkpt lat="54.2461560000" lon="-2.2403300000"><ele>581</ele><time>2013-11-17T12:59:13Z</time></trkpt>
<trkpt lat="54.2461570000" lon="-2.2403200000"><ele>581</ele><time>2013-11-17T12:59:14Z</time></trkpt>
<trkpt lat="54.2461580000" lon="-2.2403050000"><ele>581</ele><time>2013-11-17T12:59:15Z</time></trkpt>
<trkpt lat="54.2461610000" lon="-2.2402860000"><ele>581</ele><time>2013-11-17T12:59:16Z</time></trkpt>
<trkpt lat="54.2461640000" lon="-2.2402660000"><ele>581</ele><time>2013-11-17T12:59:17Z</time></trkpt>
<trkpt lat="54.2461660000" lon="-2.2402460000"><ele>581</ele><time>2013-11-17T12:59:18Z</time></trkpt>
<trkpt lat="54.2461670000" lon="-2.2402270000"><ele>581</ele><time>2013-11-17T12:59:19Z</time></trkpt>
<trkpt lat="54.2461700000" lon="-2.2402100000"><ele>581</ele><time>2013-11-17T12:59:20Z</time></trkpt>
<trkpt lat="54.2461730000" lon="-2.2401920000"><ele>581</ele><time>2013-11-17T12:59:21Z</time></trkpt>
<trkpt lat="54.2461780000" lon="-2.2401730000"><ele>581</ele><time>2013-11-17T12:59:22Z</time></trkpt>
<trkpt lat="54.2461830000" lon="-2.2401550000"><ele>581</ele><time>2013-11-17T12:59:23Z</time></trkpt>
<trkpt lat="54.2461880000" lon="-2.2401370000"><ele>581</ele><time>2013-11-17T12:59:24Z</time></trkpt>
<trkpt lat="54.2461910000" lon="-2.2401200000"><ele>581</ele><time>2013-11-17T12:59:25Z</time></trkpt>
<trkpt lat="54.2461930000" lon="-2.2401050000"><ele>581</ele><time>2013-11-17T12:59:26Z</time></trkpt>
<trkpt lat="54.2461970000" lon="-2.2400900000"><ele>581</ele><time>2013-11-17T12:59:27Z</time></trkpt>
<trkpt lat="54.2462010000" lon="-2.2400720000"><ele>581</ele></trkpt>
<trkpt lat="54.2462070000" lon="-2.2400500000"><ele>581</ele><time>2013-11-17T12:59:29Z</time></trkpt>
<trkpt lat="54.2462110000" lon="-2.2400290000"><ele>581</ele><time>2013-11-17T12:59:30Z</time></trkpt>
<trkpt lat="54.2462170000" lon="-2.2400080000"><ele>581</ele><time>2013-11-17T12:59:31Z</time></trkpt>
<trkpt lat="54.2462230000" lon="-2.2399870000"><ele>581</ele><time>2013-11-17T12:59:32Z</time></trkpt>
<trkpt lat="54.2462260000" lon="-2.2399680000"><ele>581</ele><time>2013-11-17T12:59:33Z</time></trkpt>
<trkpt lat="54.2462280000" lon="-2.2399490000"><ele>581</ele><time>2013-11-17T12:59:34Z</time></trkpt>
<trkpt lat="54.2462310000" lon="-2.2399280000"><ele>581</ele><time>2013-11-17T12:59:35Z</time></trkpt>
<trkpt lat="54.2462350000" lon="-2.2399070000"><ele>581</ele><time>2013-11-17T12:59:36Z</time></trkpt>
<trkpt lat="54.2462420000" lon="-2.2398880000"><ele>581</ele><time>2013-11-17T12:59:37Z</time></trkpt>
<trkpt lat="54.2462470000" lon="-2.2398680000"><ele>581</ele><time>2013-11-17T12:59:38Z</time></trkpt>
<trkpt lat="54.2462520000" lon="-2.2398480000"><ele>581</ele><time>2013-11-17T12:59:39Z</time></trkpt>
<trkpt lat="54.2462580000" lon="-2.2398290000"><ele>581</ele><time>2013-11-17T12:59:40Z</time></trkpt>
<trkpt lat="54.2462630000" lon="-2.2398090000"><ele>581</ele><time>2013-11-17T12:59:41Z</time></trkpt>
<trkpt lat="54.2462690000" lon="-2.2397910000"><ele>581</ele><time>2013-11-17T12:59:42Z</time></trkpt>
<trkpt lat="54.2462740000" lon="-2.2397720000"><ele>581</ele><time>2013-11-17T12:59:43Z</time></trkpt>
<trkpt lat="54.2462790000" lon="-2.2397520000"><ele>581</ele><time>2013-11-17T12:59:44Z</time></trkpt>
<trkpt lat="54.2462840000" lon="-2.2397320000"><ele>581</ele><time>2013-11-17T12:59:45Z</time></trkpt>
<trkpt lat="54.2462900000" lon="-2.2397140000"><ele>581</ele><time>2013-11-17T12:59:46Z</time></trkpt>
<trkpt lat="54.2462940000" lon="-2.2396970000"><ele>581</ele><time>2013-11-17T12:59:47Z</time></trkpt>
<trkpt lat="54.2462980000" lon="-2.2396830000"><ele>581</ele><time>2013-11-17T12:59:48Z</time></trkpt>
<trkpt lat="54.2463020000" lon="-2.2396730000"><ele>581</ele><time>2013-11-17T12:59:49Z</time></trkpt>
<trkpt lat="54.2463060000" lon="-2.2396610000"><ele>581</ele><time>2013-11-17T12:59:50Z</time></trkpt>
<trkpt lat="54.2463110000" lon="-2.2396480000"><ele>581</ele><time>2013-11-17T12:59:51Z</time></trkpt>
<trkpt lat="54.2463160000" lon="-2.2396360000"><ele>581</ele><time>2013-11-17T12:59:52Z</time></trkpt>
<trkpt lat="54.2463220000" lon="-2.2396250000"><ele>581</ele><time>2013-11-17T12:59:53Z</time></trkpt>
<trkpt lat="54.2463290000" lon="-2.2396120000"><ele>581</ele><time>2013-11-17T12:59:54Z</time></trkpt>
<trkpt lat="54.2463370000" lon="-2.2395960000"><ele>581</ele><time>2013-11-17T12:59:55Z</time></trkpt>
<trkpt lat="54.2463450000" lon="-2.2395780000"><ele>581</ele><time>2013-11-17T12:59:56Z</time></trkpt>
<trkpt lat="54.2463520000" lon="-2.2395590000"><ele>581</ele><time>2013-11-17T12:59:57Z</time></trkpt>
<trkpt lat="54.2463600000" lon="-2.2395400000"><ele>581</ele><time>2013-11-17T12:59:58Z</time></trkpt>
<trkpt lat="54.2463670000" lon="-2.2395210000"><ele>581</ele><time>2013-11-17T12:59:59Z</time></trkpt>
<trkpt lat="54.2463740000" lon="-2.2395030000"><ele>581</ele><time>2013-11-17T13:00:00Z</time></trkpt>
<trkpt lat="54.2463820000" lon="-2.2394880000"><ele>581</ele><time>2013-11-17T13:00:01Z</time></trkpt>
<trkpt lat="54.2463880000" lon="-2.2394710000"><ele>581</ele><time>2013-11-17T13:00:02Z</time></trkpt>
<trkpt lat="54.2463930000" lon="-2.2394530000"><ele>581</ele><time>2013-11-17T13:00:03Z</time></trkpt>
<trkpt lat="54.2464000000" lon="-2.2394350000"><ele>581</ele><time>2013-11-17T13:00:04Z</time></trkpt>
<trkpt lat="54.2464060000" lon="-2.2394180000"><ele>581</ele><time>2013-11-17T13:00:05Z</time></trkpt>
<trkpt lat="54.2464140000" lon="-2.2394000000"><ele>581</ele><time>2013-11-17T13:00:06Z</time></trkpt>
<trkpt lat="54.2464220000" lon="-2.2393820000"><ele>581</ele><time>2013-11-17T13:00:07Z</time></trkpt>
<trkpt lat="54.2464290000" lon="-2.2393630000"><ele>581</ele><time>2013-11-17T13:00:08Z</time></trkpt>
<trkpt lat="54.2464390000" lon="-2.2393440000"><ele>581</ele><time>2013-11-17T13:00:09Z</time></trkpt>
<trkpt lat="54.2464470000" lon="-2.2393260000"><ele>581</ele><time>2013-11-17T13:00:10Z</time></trkpt>
<trkpt lat="54.2464530000" lon="-2.2393070000"><ele>581</ele><time>2013-11-17T13:00:11Z</time></trkpt>
<trkpt lat="54.2464580000" lon="-2.2392880000"><ele>581</ele><time>2013-11-17T13:00:12Z</time></trkpt>
<trkpt lat="54.2464670000" lon="-2.2392700000"><ele>581</ele><time>2013-11-17T13:00:13Z</time></trkpt>
<trkpt lat="54.2464740000" lon="-2.2392520000"><ele>581</ele><time>2013-11-17T13:00:14Z</time></trkpt>
<trkpt lat="54.2464810000" lon="-2.2392320000"><ele>581</ele><time>2013-11-17T13:00:15Z</time></trkpt>
<trkpt lat="54.2464900000" lon="-2.2392130000"><ele>581</ele><time>2013-11-17T13:00:16Z</time></trkpt>
<trkpt lat="54.2464970000" lon="-2.2391940000"><ele>581</ele><time>2013-11-17T13:00:17Z</time></trkpt>
<trkpt lat="54.2465040000" lon="-2.2391760000"><ele>581</ele><time>2013-11-17T13:00:18Z</time></trkpt>
<trkpt lat="54.2465090000" lon="-2.2391590000"><ele>581</ele><time>2013-11-17T13:00:19Z</time></trkpt>
<trkpt lat="54.2465140000" lon="-2.2391440000"><ele>581</ele><time>2013-11-17T13:00:20Z</time></trkpt>
<trkpt lat="54.2465180000" lon="-2.2391320000"><ele>581</ele><time>2013-11-17T13:00:21Z</time></trkpt>
<trkpt lat="54.2465230000" lon="-2.2391190000"><ele>581</ele><time>2013-11-17T13:00:22Z</time></trkpt>
<trkpt lat="54.2465300000" lon="-2.2391050000"><ele>581</ele><time>2013-11-17T13:00:23Z</time></trkpt>
<trkpt lat="54.2465380000" lon="-2.2390870000"><ele>581</ele><time>2013-11-17T13:00:24Z</time></trkpt>
<trkpt lat="54.2465470000" lon="-2.2390680000"><ele>581</ele><time>2013-11-17T13:00:25Z</time></trkpt>
<trkpt lat="54.2465540000" lon="-2.2390470000"><ele>581</ele><time>2013-11-17T13:00:26Z</time></trkpt>
<trkpt lat="54.2465630000" lon="-2.2390240000"><ele>581</ele><time>2013-11-17T13:00:27Z</time></trkpt>
<trkpt lat="54.2465740000" lon="-2.2390030000"><ele>581</ele><time>2013-11-17T13:00:28Z</time></trkpt>
<trkpt lat="54.2465830000" lon="-2.2389840000"><ele>581</ele><time>2013-11-17T13:00:29Z</time></trkpt>
<trkpt lat="54.2465930000" lon="-2.2389650000"><ele>581</ele><time>2013-11-17T13:00:30Z</time></trkpt>
<trkpt lat="54.2466030000" lon="-2.2389480000"><ele>581</ele><time>2013-11-17T13:00:31Z</time></trkpt>
<trkpt lat="54.2466130000" lon="-2.2389310000"><ele>581</ele><time>2013-11-17T13:00:32Z</time></trkpt>
<trkpt lat="54.2466250000" lon="-2.2389130000"><ele>581</ele><time>2013-11-17T13:00:33Z</time></trkpt>
<trkpt lat="54.2466360000" lon="-2.2388950000"><ele>581</ele><time>2013-11-17T13:00:34Z</time></trkpt>
<trkpt lat="54.2466460000" lon="-2.2388760000"><ele>581</ele><time>2013-11-17T13:00:35Z</time></trkpt>
<trkpt lat="54.2466560000" lon="-2.2388550000"><ele>581</ele></trkpt>
<trkpt lat="54.2466670000" lon="-2.2388360000"><ele>581</ele><time>2013-11-17T13:00:37Z</time></trkpt>
<trkpt lat="54.2466770000" lon="-2.2388160000"><ele>581</ele><time>2013-11-17T13:00:38Z</time></trkpt>
<trkpt lat="54.2466840000" lon="-2.2387980000"><ele>581</ele><time>2013-11-17T13:00:39Z</time></trkpt>
<trkpt lat="54.2466890000" lon="-2.2387790000"><ele>581</ele><time>2013-11-17T13:00:40Z</time></trkpt>
<trkpt lat="54.2466950000" lon="-2.2387590000"><ele>581</ele><time>2013-11-17T13:00:41Z</time></trkpt>
<trkpt lat="54.2467020000" lon="-2.2387410000"><ele>581</ele><time>2013-11-17T13:00:42Z</time></trkpt>
<trkpt lat="54.2467100000" lon="-2.2387210000"><ele>581</ele><time>2013-11-17T13:00:43Z</time></trkpt>
<trkpt lat="54.2467190000" lon="-2.2387020000"><ele>581</ele><time>2013-11-17T13:00:44Z</time></trkpt>
<trkpt lat="54.2467300000" lon="-2.2386850000"><ele>581</ele><time>2013-11-17T13:00:45Z</time></trkpt>
<trkpt lat="54.2467440000" lon="-2.2386690000"><ele>581</ele><time>2013-11-17T13:00:46Z</time></trkpt>
<trkpt lat="54.2467550000" lon="-2.2386510000"><ele>581</ele><time>2013-11-17T13:00:47Z</time></trkpt>
<trkpt lat="54.2467640000" lon="-2.2386330000"><ele>581</ele><time>2013-11-17T13:00:48Z</time></trkpt>
<trkpt lat="54.2467710000" lon="-2.2386200000"><ele>581</ele><time>2013-11-17T13:00:49Z</time></trkpt>
<trkpt lat="54.2467730000" lon="-2.2386130000"><ele>581</ele><time>2013-11-17T13:00:50Z</time></trkpt>
<trkpt lat="54.2467730000" lon="-2.2386040000"><ele>581</ele><time>2013-11-17T13:00:51Z</time></trkpt>
<trkpt lat="54.2467760000" lon="-2.2385920000"><ele>581</ele><time>2013-11-17T13:00:52Z</time></trkpt>
<trkpt lat="54.2467840000" lon="-2.2385780000"><ele>581</ele><time>2013-11-17T13:00:53Z</time></trkpt>
<trkpt lat="54.2467900000" lon="-2.2385610000"><ele>581</ele><time>2013-11-17T13:00:54Z</time></trkpt>
<trkpt lat="54.2467990000" lon="-2.2385450000"><ele>581</ele><time>2013-11-17T13:00:55Z</time></trkpt>
<trkpt lat="54.2468080000" lon="-2.2385290000"><ele>581</ele><time>2013-11-17T13:00:56Z</time></trkpt>
<trkpt lat="54.2468160000" lon="-2.2385100000"><ele>581</ele><time>2013-11-17T13:00:57Z</time></trkpt>
<trkpt lat="54.2468230000" lon="-2.2384930000"><ele>581</ele><time>2013-11-17T13:00:58Z</time></trkpt>
<trkpt lat="54.2468310000" lon="-2.2384730000"><ele>581</ele><time>2013-11-17T13:00:59Z</time></trkpt>
<trkpt lat="54.2468370000" lon="-2.2384550000"><ele>581</ele><time>2013-11-17T13:01:00Z</time></trkpt>
<trkpt lat="54.2468450000" lon="-2.2384380000"><ele>581</ele><time>2013-11-17T13:01:01Z</time></trkpt>
<trkpt lat="54.2468540000" lon="-2.2384200000"><ele>581</ele><time>2013-11-17T13:01:02Z</time></trkpt>
<trkpt lat="54.2468640000" lon="-2.2384020000"><ele>581</ele><time>2013-11-17T13:01:03Z</time></trkpt>
<trkpt lat="54.2468730000" lon="-2.2383850000"><ele>581</ele><time>2013-11-17T13:01:04Z</time></trkpt>
<trkpt lat="54.2468850000" lon="-2.2383680000"><ele>581</ele><time>2013-11-17T13:01:05Z</time></trkpt>
<trkpt lat="54.2468950000" lon="-2.2383500000"><ele>581</ele><time>2013-11-17T13:01:06Z</time></trkpt>
<trkpt lat="54.2469060000" lon="-2.2383350000"><ele>581</ele><time>2013-11-17T13:01:07Z</time></trkpt>
<trkpt lat="54.2469160000" lon="-2.2383200000"><ele>581</ele><time>2013-11-17T13:01:08Z</time></trkpt>
<trkpt lat="54.2469240000" lon="-2.2383030000"><ele>581</ele><time>2013-11-17T13:01:09Z</time></trkpt>
<trkpt lat="54.2469320000" lon="-2.2382860000"><ele>581</ele><time>2013-11-17T13:01:10Z</time></trkpt>
<trkpt lat="54.2469420000" lon="-2.2382680000"><ele>581</ele><time>2013-11-17T13:01:11Z</time></trkpt>
<trkpt lat="54.2469530000" lon="-2.2382510000"><ele>581</ele><time>2013-11-17T13:01:12Z</time></trkpt>
<trkpt lat="54.2469640000" lon="-2.2382320000"><ele>581</ele><time>2013-11-17T13:01:13Z</time></trkpt>
<trkpt lat="54.2469760000" lon="-2.2382140000"><ele>581</ele><time>2013-11-17T13:01:14Z</time></trkpt>
<trkpt lat="54.2469880000" lon="-2.2381960000"><ele>581</ele><time>2013-11-17T13:01:15Z</time></trkpt>
<trkpt lat="54.2469980000" lon="-2.2381780000"><ele>581</ele><time>2013-11-17T13:01:16Z</time></trkpt>
<trkpt lat="54.2470090000" lon="-2.2381600000"><ele>581</ele><time>2013-11-17T13:01:17Z</time></trkpt>
<trkpt lat="54.2470200000" lon="-2.2381410000"><ele>581</ele><time>2013-11-17T13:01:18Z</time></trkpt>
<trkpt lat="54.2470290000" lon="-2.2381250000"><ele>581</ele><time>2013-11-17T13:01:19Z</time></trkpt>
<trkpt lat="54.2470380000" lon="-2.2381090000"><ele>581</ele><time>2013-11-17T13:01:20Z</time></trkpt>
<trkpt lat="54.2470480000" lon="-2.2380930000"><ele>581</ele><time>2013-11-17T13:01:21Z</time></trkpt>
<trkpt lat="54.2470580000" lon="-2.2380750000"><ele>581</ele><time>2013-11-17T13:01:22Z</time></trkpt>
<trkpt lat="54.2470680000" lon="-2.2380570000"><ele>581</ele><time>2013-11-17T13:01:23Z</time></trkpt>
<trkpt lat="54.2470760000" lon="-2.2380390000"><ele>581</ele><time>2013-11-17T13:01:24Z</time></trkpt>
<trkpt lat="54.2470830000" lon="-2.2380200000"><ele>581</ele><time>2013-11-17T13:01:25Z</time></trkpt>
<trkpt lat="54.2470900000" lon="-2.2380030000"><ele>581</ele><time>2013-11-17T13:01:26Z</time></trkpt>
<trkpt lat="54.2470980000" lon="-2.2379860000"><ele>581</ele><time>2013-11-17T13:01:27Z</time></trkpt>
<trkpt lat="54.2471060000" lon="-2.2379670000"><ele>581</ele><time>2013-11-17T13:01:28Z</time></trkpt>
<trkpt lat="54.2471130000" lon="-2.2379490000"><ele>581</ele><time>2013-11-17T13:01:29Z</time></trkpt>
<trkpt lat="54.2471230000" lon="-2.2379310000"><ele>581</ele><time>2013-11-17T13:01:30Z</time></trkpt>
<trkpt lat="54.2471340000" lon="-2.2379130000"><ele>581</ele><time>2013-11-17T13:01:31Z</time></trkpt>
<trkpt lat="54.2471440000" lon="-2.2378960000"><ele>581</ele><time>2013-11-17T13:01:32Z</time></trkpt>
<trkpt lat="54.2471520000" lon="-2.2378800000"><ele>581</ele><time>2013-11-17T13:01:33Z</time></trkpt>
<trkpt lat="54.2471620000" lon="-2.2378630000"><ele>581</ele><time>2013-11-17T13:01:34Z</time></trkpt>
<trkpt lat="54.2471740000" lon="-2.2378450000"><ele>581</ele><time>2013-11-17T13:01:35Z</time></trkpt>
<trkpt lat="54.2471840000" lon="-2.2378260000"><ele>555</ele><time>2013-11-17T13:01:36Z</time></trkpt>
<trkpt lat="54.2471940000" lon="-2.2378060000"><ele>555</ele><time>2013-11-17T13:01:37Z</time></trkpt>
<trkpt lat="54.2472040000" lon="-2.2377860000"><ele>555</ele></trkpt>
<trkpt lat="54.2472130000" lon="-2.2377660000"><ele>555</ele><time>2013-11-17T13:01:39Z</time></trkpt>
<trkpt lat="54.2472230000" lon="-2.2377480000"><ele>555</ele><time>2013-11-17T13:01:40Z</time></trkpt>
<trkpt lat="54.2472340000" lon="-2.2377300000"><ele>555</ele><time>2013-11-17T13:01:41Z</time></trkpt>
<trkpt lat="54.2472430000" lon="-2.2377130000"><ele>555</ele><time>2013-11-17T13:01:42Z</time></trkpt>
<trkpt lat="54.2472530000" lon="-2.2376940000"><ele>555</ele><time>2013-11-17T13:01:43Z</time></trkpt>
<trkpt lat="54.2472620000" lon="-2.2376750000"><ele>555</ele><time>2013-11-17T13:01:44Z</time></trkpt>
<trkpt lat="54.2472730000" lon="-2.2376570000"><ele>555</ele><time>2013-11-17T13:01:45Z</time></trkpt>
<trkpt lat="54.2472800000" lon="-2.2376380000"><ele>555</ele><time>2013-11-17T13:01:46Z</time></trkpt>
<trkpt lat="54.2472890000" lon="-2.2376190000"><ele>555</ele><time>2013-11-17T13:01:47Z</time></trkpt>
<trkpt lat="54.2472970000" lon="-2.2375990000"><ele>555</ele><time>2013-11-17T13:01:48Z</time></trkpt>
<trkpt lat="54.2473060000" lon="-2.2375820000"><ele>555</ele><time>2013-11-17T13:01:49Z</time></trkpt>
<trkpt lat="54.2473170000" lon="-2.2375650000"><ele>555</ele><time>2013-11-17T13:01:50Z</time></trkpt>
<trkpt lat="54.2473290000" lon="-2.2375480000"><ele>555</ele><time>2013-11-17T13:01:51Z</time></trkpt>
<trkpt lat="54.2473410000" lon="-2.2375310000"><ele>555</ele><time>2013-11-17T13:01:52Z</time></trkpt>
<trkpt lat="54.2473530000" lon="-2.2375150000"><ele>555</ele><time>2013-11-17T13:01:53Z</time></trkpt>
<trkpt lat="54.2473650000" lon="-2.2374980000"><ele>555</ele><time>2013-11-17T13:01:54Z</time></trkpt>
<trkpt lat="54.2473770000" lon="-2.2374810000"><ele>555</ele><time>2013-11-17T13:01:55Z</time></trkpt>
<trkpt lat="54.2473890000" lon="-2.2374650000"><ele>555</ele><time>2013-11-17T13:01:56Z</time></trkpt>
<trkpt lat="54.2474010000" lon="-2.2374490000"><ele>555</ele><time>2013-11-17T13:01:57Z</time></trkpt>
<trkpt lat="54.2474150000" lon="-2.2374320000"><ele>555</ele><time>2013-11-17T13:01:58Z</time></trkpt>
<trkpt lat="54.2474270000" lon="-2.2374140000"><ele>555</ele><time>2013-11-17T13:01:59Z</time></trkpt>
<trkpt lat="54.2474390000" lon="-2.2373970000"><ele>555</ele><time>2013-11-17T13:02:00Z</time></trkpt>
<trkpt lat="54.2474530000" lon="-2.2373810000"><ele>555</ele><time>2013-11-17T13:02:01Z</time></trkpt>
<trkpt lat="54.2474660000" lon="-2.2373650000"><ele>555</ele><time>2013-11-17T13:02:02Z</time></trkpt>
<trkpt lat="54.2474750000" lon="-2.2373490000"><ele>555</ele><time>2013-11-17T13:02:03Z</time></trkpt>
<trkpt lat="54.2474920000" lon="-2.2373200000"><ele>555</ele><time>2013-11-17T13:02:05Z</time></trkpt>
<trkpt lat="54.2475140000" lon="-2.2372780000"><ele>555</ele><time>2013-11-17T13:02:07Z</time></trkpt>
<trkpt lat="54.2475230000" lon="-2.2372610000"><ele>555</ele><time>2013-11-17T13:02:08Z</time></trkpt>
<trkpt lat="54.2475340000" lon="-2.2372420000"><ele>555</ele></trkpt>
<trkpt lat="54.2475450000" lon="-2.2372240000"><ele>555</ele><time>2013-11-17T13:02:10Z</time></trkpt>
<trkpt lat="54.2475550000" lon="-2.2372050000"><ele>555</ele><time>2013-11-17T13:02:11Z</time></trkpt>
<trkpt lat="54.2475660000" lon="-2.2371860000"><ele>555</ele><time>2013-11-17T13:02:12Z</time></trkpt>
<trkpt lat="54.2475760000" lon="-2.2371680000"><ele>555</ele><time>2013-11-17T13:02:13Z</time></trkpt>
<trkpt lat="54.2475870000" lon="-2.2371510000"><ele>555</ele><time>2013-11-17T13:02:14Z</time></trkpt>
<trkpt lat="54.2475980000" lon="-2.2371360000"><ele>555</ele><time>2013-11-17T13:02:15Z</time></trkpt>
<trkpt lat="54.2476060000" lon="-2.2371210000"><ele>555</ele><time>2013-11-17T13:02:16Z</time></trkpt>
<trkpt lat="54.2476140000" lon="-2.2371040000"><ele>555</ele><time>2013-11-17T13:02:17Z</time></trkpt>
<trkpt lat="54.2476230000" lon="-2.2370870000"><ele>555</ele><time>2013-11-17T13:02:18Z</time></trkpt>
<trkpt lat="54.2476340000" lon="-2.2370700000"><ele>555</ele><time>2013-11-17T13:02:19Z</time></trkpt>
<trkpt lat="54.2476440000" lon="-2.2370510000"><ele>555</ele><time>2013-11-17T13:02:20Z</time></trkpt>
<trkpt lat="54.2476570000" lon="-2.2370320000"><ele>555</ele><time>2013-11-17T13:02:21Z</time></trkpt>
<trkpt lat="54.2476700000" lon="-2.2370130000"><ele>555</ele><time>2013-11-17T13:02:22Z</time></trkpt>
<trkpt lat="54.2476830000" lon="-2.2369950000"><ele>555</ele><time>2013-11-17T13:02:23Z</time></trkpt>
<trkpt lat="54.2476960000" lon="-2.2369780000"><ele>555</ele><time>2013-11-17T13:02:24Z</time></trkpt>
<trkpt lat="54.2477050000" lon="-2.2369600000"><ele>555</ele><time>2013-11-17T13:02:25Z</time></trkpt>
<trkpt lat="54.2477230000" lon="-2.2369270000"><ele>555</ele><time>2013-11-17T13:02:27Z</time></trkpt>
<trkpt lat="54.2477450000" lon="-2.2368860000"><ele>555</ele><time>2013-11-17T13:02:29Z</time></trkpt>
<trkpt lat="54.2477630000" lon="-2.2368480000"><ele>555</ele><time>2013-11-17T13:02:31Z</time></trkpt>
<trkpt lat="54.2477780000" lon="-2.2368100000"><ele>555</ele><time>2013-11-17T13:02:33Z</time></trkpt>
<trkpt lat="54.2478000000" lon="-2.2367720000"><ele>555</ele><time>2013-11-17T13:02:35Z</time></trkpt>
<trkpt lat="54.2478290000" lon="-2.2367370000"><ele>555</ele><time>2013-11-17T13:02:37Z</time></trkpt>
<trkpt lat="54.2478540000" lon="-2.2367030000"><ele>583</ele><time>2013-11-17T13:02:39Z</time></trkpt>
<trkpt lat="54.2478760000" lon="-2.2366690000"><ele>583</ele><time>2013-11-17T13:02:41Z</time></trkpt>
<trkpt lat="54.2478930000" lon="-2.2366350000"><ele>583</ele><time>2013-11-17T13:02:43Z</time></trkpt>
<trkpt lat="54.2479080000" lon="-2.2366020000"><ele>583</ele><time>2013-11-17T13:02:45Z</time></trkpt>
<trkpt lat="54.2479260000" lon="-2.2365690000"><ele>583</ele><time>2013-11-17T13:02:47Z</time></trkpt>
<trkpt lat="54.2479430000" lon="-2.2365350000"><ele>583</ele><time>2013-11-17T13:02:49Z</time></trkpt>
<trkpt lat="54.2479600000" lon="-2.2364970000"><ele>583</ele><time>2013-11-17T13:02:51Z</time></trkpt>
<trkpt lat="54.2479800000" lon="-2.2364550000"><ele>583</ele><time>2013-11-17T13:02:53Z</time></trkpt>
<trkpt lat="54.2479970000" lon="-2.2364180000"><ele>583</ele><time>2013-11-17T13:02:55Z</time></trkpt>
<trkpt lat="54.2480190000" lon="-2.2363780000"><ele>583</ele><time>2013-11-17T13:02:57Z</time></trkpt>
<trkpt lat="54.2480360000" lon="-2.2363380000"><ele>583</ele><time>2013-11-17T13:02:59Z</time></trkpt>
<trkpt lat="54.2480510000" lon="-2.2363000000"><ele>583</ele><time>2013-11-17T13:03:01Z</time></trkpt>
<trkpt lat="54.2480710000" lon="-2.2362600000"><ele>583</ele><time>2013-11-17T13:03:03Z</time></trkpt>
<trkpt lat="54.2480880000" lon="-2.2362250000"><ele>583</ele><time>2013-11-17T13:03:05Z</time></trkpt>
<trkpt lat="54.2481060000" lon="-2.2361850000"><ele>583</ele><time>2013-11-17T13:03:07Z</time></trkpt>
<trkpt lat="54.2481230000" lon="-2.2361390000"><ele>583</ele><time>2013-11-17T13:03:09Z</time></trkpt>
<trkpt lat="54.2481490000" lon="-2.2361010000"><ele>583</ele><time>2013-11-17T13:03:10Z</time></trkpt>
<trkpt lat="54.2481690000" lon="-2.2360650000"><ele>583</ele><time>2013-11-17T13:03:13Z</time></trkpt>
<trkpt lat="54.2481870000" lon="-2.2360160000"><ele>583</ele><time>2013-11-17T13:03:15Z</time></trkpt>
<trkpt lat="54.2481940000" lon="-2.2359980000"><ele>583</ele><time>2013-11-17T13:03:16Z</time></trkpt>
<trkpt lat="54.2482020000" lon="-2.2359780000"><ele>583</ele><time>2013-11-17T13:03:17Z</time></trkpt>
<trkpt lat="54.2482100000" lon="-2.2359570000"><ele>583</ele><time>2013-11-17T13:03:18Z</time></trkpt>
<trkpt lat="54.2482180000" lon="-2.2359360000"><ele>583</ele><time>2013-11-17T13:03:19Z</time></trkpt>
<trkpt lat="54.2482360000" lon="-2.2359030000"><ele>583</ele><time>2013-11-17T13:03:21Z</time></trkpt>
<trkpt lat="54.2482530000" lon="-2.2358580000"><ele>583</ele><time>2013-11-17T13:03:23Z</time></trkpt>
<trkpt lat="54.2482640000" lon="-2.2358120000"><ele>583</ele><time>2013-11-17T13:03:25Z</time></trkpt>
<trkpt lat="54.2482780000" lon="-2.2357610000"><ele>583</ele><time>2013-11-17T13:03:27Z</time></trkpt>
<trkpt lat="54.2482930000" lon="-2.2357090000"><ele>583</ele><time>2013-11-17T13:03:29Z</time></trkpt>
<trkpt lat="54.2483110000" lon="-2.2356650000"><ele>583</ele><time>2013-11-17T13:03:31Z</time></trkpt>
<trkpt lat="54.2483220000" lon="-2.2356220000"><ele>583</ele><time>2013-11-17T13:03:33Z</time></trkpt>
<trkpt lat="54.2483310000" lon="-2.2355610000"><ele>583</ele><time>2013-11-17T13:03:36Z</time></trkpt>
<trkpt lat="54.2483470000" lon="-2.2355010000"><ele>583</ele><time>2013-11-17T13:03:39Z</time></trkpt>
<trkpt lat="54.2483620000" lon="-2.2354590000"><ele>583</ele><time>2013-11-17T13:03:41Z</time></trkpt>
<trkpt lat="54.2483820000" lon="-2.2354170000"><ele>583</ele><time>2013-11-17T13:03:43Z</time></trkpt>
<trkpt lat="54.2483930000" lon="-2.2353720000"><ele>583</ele><time>2013-11-17T13:03:45Z</time></trkpt>
<trkpt lat="54.2484070000" lon="-2.2353300000"><ele>583</ele><time>2013-11-17T13:03:47Z</time></trkpt>
<trkpt lat="54.2484230000" lon="-2.2352890000"><ele>583</ele><time>2013-11-17T13:03:49Z</time></trkpt>
<trkpt lat="54.2484410000" lon="-2.2352500000"><ele>583</ele><time>2013-11-17T13:03:51Z</time></trkpt>
<trkpt lat="54.2484630000" lon="-2.2352080000"><ele>583</ele><time>2013-11-17T13:03:53Z</time></trkpt>
<trkpt lat="54.2484730000" lon="-2.2351640000"><ele>583</ele><time>2013-11-17T13:03:54Z</time></trkpt>
<trkpt lat="54.2484870000" lon="-2.2351170000"><ele>583</ele><time>2013-11-17T13:03:57Z</time></trkpt>
<trkpt lat="54.2485060000" lon="-2.2350720000"><ele>583</ele><time>2013-11-17T13:03:59Z</time></trkpt>
<trkpt lat="54.2485270000" lon="-2.2350180000"><ele>583</ele><time>2013-11-17T13:04:02Z</time></trkpt>
<trkpt lat="54.2485180000" lon="-2.2349470000"><ele>583</ele><time>2013-11-17T13:04:06Z</time></trkpt>
<trkpt lat="54.2485350000" lon="-2.2348750000"><ele>583</ele><time>2013-11-17T13:04:10Z</time></trkpt>
<trkpt lat="54.2485620000" lon="-2.2348000000"><ele>583</ele><time>2013-11-17T13:04:14Z</time></trkpt>
<trkpt lat="54.2485970000" lon="-2.2347400000"><ele>569</ele><time>2013-11-17T13:04:17Z</time></trkpt>
<trkpt lat="54.2486190000" lon="-2.2346980000"><ele>569</ele><time>2013-11-17T13:04:19Z</time></trkpt>
<trkpt lat="54.2486420000" lon="-2.2346520000"><ele>569</ele><time>2013-11-17T13:04:21Z</time></trkpt>
<trkpt lat="54.2486590000" lon="-2.2346140000"><ele>569</ele><time>2013-11-17T13:04:23Z</time></trkpt>
<trkpt lat="54.2486730000" lon="-2.2345740000"><ele>569</ele><time>2013-11-17T13:04:25Z</time></trkpt>
<trkpt lat="54.2486870000" lon="-2.2345280000"><ele>569</ele><time>2013-11-17T13:04:27Z</time></trkpt>
<trkpt lat="54.2487020000" lon="-2.2344850000"><ele>569</ele><time>2013-11-17T13:04:29Z</time></trkpt>
<trkpt lat="54.2487130000" lon="-2.2344460000"><ele>569</ele><time>2013-11-17T13:04:31Z</time></trkpt>
<trkpt lat="54.2487290000" lon="-2.2344030000"><ele>569</ele><time>2013-11-17T13:04:33Z</time></trkpt>
<trkpt lat="54.2487470000" lon="-2.2343610000"><ele>569</ele><time>2013-11-17T13:04:35Z</time></trkpt>
<trkpt lat="54.2487590000" lon="-2.2343180000"><ele>569</ele><time>2013-11-17T13:04:37Z</time></trkpt>
<trkpt lat="54.2487770000" lon="-2.2342800000"><ele>569</ele><time>2013-11-17T13:04:39Z</time></trkpt>
<trkpt lat="54.2487890000" lon="-2.2342340000"><ele>569</ele><time>2013-11-17T13:04:41Z</time></trkpt>
<trkpt lat="54.2488010000" lon="-2.2341810000"><ele>569</ele><time>2013-11-17T13:04:43Z</time></trkpt>
<trkpt lat="54.2488150000" lon="-2.2341300000"><ele>569</ele><time>2013-11-17T13:04:44Z</time></trkpt>
<trkpt lat="54.2488250000" lon="-2.2340810000"><ele>569</ele><time>2013-11-17T13:04:47Z</time></trkpt>
<trkpt lat="54.2488370000" lon="-2.2340350000"><ele>569</ele><time>2013-11-17T13:04:49Z</time></trkpt>
<trkpt lat="54.2488560000" lon="-2.2339920000"><ele>569</ele><time>2013-11-17T13:04:51Z</time></trkpt>
<trkpt lat="54.2488750000" lon="-2.2339540000"><ele>569</ele><time>2013-11-17T13:04:53Z</time></trkpt>
<trkpt lat="54.2488920000" lon="-2.2339070000"><ele>569</ele><time>2013-11-17T13:04:55Z</time></trkpt>
<trkpt lat="54.2489100000" lon="-2.2338620000"><ele>569</ele><time>2013-11-17T13:04:57Z</time></trkpt>
<trkpt lat="54.2489240000" lon="-2.2338190000"><ele>569</ele><time>2013-11-17T13:04:59Z</time></trkpt>
<trkpt lat="54.2489380000" lon="-2.2337460000"><ele>569</ele><time>2013-11-17T13:05:03Z</time></trkpt>
<trkpt lat="54.2489510000" lon="-2.2336920000"><ele>569</ele><time>2013-11-17T13:05:06Z</time></trkpt>
<trkpt lat="54.2489690000" lon="-2.2336390000"><ele>569</ele><time>2013-11-17T13:05:09Z</time></trkpt>
<trkpt lat="54.2489800000" lon="-2.2336040000"><ele>569</ele><time>2013-11-17T13:05:11Z</time></trkpt>
<trkpt lat="54.2489940000" lon="-2.2335670000"><ele>569</ele><time>2013-11-17T13:05:13Z</time></trkpt>
<trkpt lat="54.2490060000" lon="-2.2335260000"><ele>569</ele><time>2013-11-17T13:05:15Z</time></trkpt>
<trkpt lat="54.2490190000" lon="-2.2334840000"><ele>569</ele><time>2013-11-17T13:05:17Z</time></trkpt>
<trkpt lat="54.2490370000" lon="-2.2334440000"><ele>569</ele><time>2013-11-17T13:05:19Z</time></trkpt>
<trkpt lat="54.2490550000" lon="-2.2334100000"><ele>569</ele><time>2013-11-17T13:05:21Z</time></trkpt>
<trkpt lat="54.2490720000" lon="-2.2333740000"><ele>569</ele><time>2013-11-17T13:05:23Z</time></trkpt>
<trkpt lat="54.2490910000" lon="-2.2333360000"><ele>569</ele><time>2013-11-17T13:05:25Z</time></trkpt>
<trkpt lat="54.2491150000" lon="-2.2332960000"><ele>569</ele><time>2013-11-17T13:05:27Z</time></trkpt>
<trkpt lat="54.2491400000" lon="-2.2332570000"><ele>569</ele><time>2013-11-17T13:05:29Z</time></trkpt>
<trkpt lat="54.2491620000" lon="-2.2332190000"><ele>569</ele><time>2013-11-17T13:05:31Z</time></trkpt>
<trkpt lat="54.2491760000" lon="-2.2331810000"><ele>569</ele><time>2013-11-17T13:05:33Z</time></trkpt>
<trkpt lat="54.2491860000" lon="-2.2331410000"><ele>569</ele><time>2013-11-17T13:05:35Z</time></trkpt>
<trkpt lat="54.2492050000" lon="-2.2331010000"><ele>569</ele><time>2013-11-17T13:05:37Z</time></trkpt>
<trkpt lat="54.2492220000" lon="-2.2330650000"><ele>569</ele><time>2013-11-17T13:05:39Z</time></trkpt>
<trkpt lat="54.2492370000" lon="-2.2330290000"><ele>569</ele><time>2013-11-17T13:05:41Z</time></trkpt>
<trkpt lat="54.2492560000" lon="-2.2329930000"><ele>569</ele><time>2013-11-17T13:05:43Z</time></trkpt>
<trkpt lat="54.2492730000" lon="-2.2329590000"><ele>569</ele><time>2013-11-17T13:05:45Z</time></trkpt>
<trkpt lat="54.2492850000" lon="-2.2329220000"><ele>569</ele><time>2013-11-17T13:05:47Z</time></trkpt>
<trkpt lat="54.2492980000" lon="-2.2328790000"><ele>569</ele><time>2013-11-17T13:05:49Z</time></trkpt>
<trkpt lat="54.2493210000" lon="-2.2328410000"><ele>569</ele><time>2013-11-17T13:05:51Z</time></trkpt>
<trkpt lat="54.2493460000" lon="-2.2328050000"><ele>569</ele><time>2013-11-17T13:05:53Z</time></trkpt>
<trkpt lat="54.2493690000" lon="-2.2327670000"><ele>569</ele><time>2013-11-17T13:05:55Z</time></trkpt>
<trkpt lat="54.2493940000" lon="-2.2327180000"><ele>569</ele><time>2013-11-17T13:05:58Z</time></trkpt>
<trkpt lat="54.2494160000" lon="-2.2326810000"><ele>569</ele><time>2013-11-17T13:06:00Z</time></trkpt>
<trkpt lat="54.2494430000" lon="-2.2326340000"><ele>569</ele><time>2013-11-17T13:06:03Z</time></trkpt>
<trkpt lat="54.2494590000" lon="-2.2326040000"><ele>569</ele><time>2013-11-17T13:06:05Z</time></trkpt>
<trkpt lat="54.2494730000" lon="-2.2325630000"><ele>569</ele><time>2013-11-17T13:06:08Z</time></trkpt>
<trkpt lat="54.2494920000" lon="-2.2325070000"><ele>569</ele><time>2013-11-17T13:06:11Z</time></trkpt>
<trkpt lat="54.2495090000" lon="-2.2324670000"><ele>569</ele><time>2013-11-17T13:06:12Z</time></trkpt>
<trkpt lat="54.2495310000" lon="-2.2324250000"><ele>569</ele><time>2013-11-17T13:06:15Z</time></trkpt>
<trkpt lat="54.2495520000" lon="-2.2323880000"><ele>569</ele><time>2013-11-17T13:06:17Z</time></trkpt>
<trkpt lat="54.2495740000" lon="-2.2323390000"><ele>569</ele><time>2013-11-17T13:06:19Z</time></trkpt>
<trkpt lat="54.2495790000" lon="-2.2323230000"><ele>569</ele><time>2013-11-17T13:06:20Z</time></trkpt>
<trkpt lat="54.2495860000" lon="-2.2323040000"><ele>569</ele><time>2013-11-17T13:06:21Z</time></trkpt>
<trkpt lat="54.2495930000" lon="-2.2322830000"><ele>569</ele><time>2013-11-17T13:06:22Z</time></trkpt>
<trkpt lat="54.2495990000" lon="-2.2322640000"><ele>569</ele><time>2013-11-17T13:06:23Z</time></trkpt>
<trkpt lat="54.2496070000" lon="-2.2322450000"><ele>569</ele><time>2013-11-17T13:06:24Z</time></trkpt>
<trkpt lat="54.2496130000" lon="-2.2322260000"><ele>569</ele><time>2013-11-17T13:06:25Z</time></trkpt>
<trkpt lat="54.2496220000" lon="-2.2322030000"><ele>569</ele><time>2013-11-17T13:06:26Z</time></trkpt>
<trkpt lat="54.2496300000" lon="-2.2321830000"><ele>569</ele><time>2013-11-17T13:06:27Z</time></trkpt>
<trkpt lat="54.2496400000" lon="-2.2321640000"><ele>569</ele><time>2013-11-17T13:06:28Z</time></trkpt>
<trkpt lat="54.2496470000" lon="-2.2321460000"><ele>569</ele><time>2013-11-17T13:06:29Z</time></trkpt>
<trkpt lat="54.2496550000" lon="-2.2321270000"><ele>569</ele><time>2013-11-17T13:06:30Z</time></trkpt>
<trkpt lat="54.2496620000" lon="-2.2321070000"><ele>588</ele><time>2013-11-17T13:06:31Z</time></trkpt>
<trkpt lat="54.2496690000" lon="-2.2320900000"><ele>588</ele><time>2013-11-17T13:06:32Z</time></trkpt>
<trkpt lat="54.2496760000" lon="-2.2320700000"><ele>588</ele><time>2013-11-17T13:06:33Z</time></trkpt>
<trkpt lat="54.2496850000" lon="-2.2320510000"><ele>588</ele><time>2013-11-17T13:06:34Z</time></trkpt>
<trkpt lat="54.2496940000" lon="-2.2320330000"><ele>588</ele><time>2013-11-17T13:06:35Z</time></trkpt>
<trkpt lat="54.2497030000" lon="-2.2320160000"><ele>588</ele><time>2013-11-17T13:06:36Z</time></trkpt>
<trkpt lat="54.2497120000" lon="-2.2319970000"><ele>588</ele><time>2013-11-17T13:06:37Z</time></trkpt>
<trkpt lat="54.2497210000" lon="-2.2319780000"><ele>588</ele><time>2013-11-17T13:06:38Z</time></trkpt>
<trkpt lat="54.2497290000" lon="-2.2319580000"><ele>588</ele><time>2013-11-17T13:06:39Z</time></trkpt>
<trkpt lat="54.2497380000" lon="-2.2319390000"><ele>588</ele><time>2013-11-17T13:06:40Z</time></trkpt>
<trkpt lat="54.2497460000" lon="-2.2319200000"><ele>588</ele><time>2013-11-17T13:06:41Z</time></trkpt>
<trkpt lat="54.2497540000" lon="-2.2319010000"><ele>588</ele><time>2013-11-17T13:06:42Z</time></trkpt>
<trkpt lat="54.2497610000" lon="-2.2318820000"><ele>588</ele><time>2013-11-17T13:06:43Z</time></trkpt>
<trkpt lat="54.2497690000" lon="-2.2318610000"><ele>588</ele></trkpt>
<trkpt lat="54.2497780000" lon="-2.2318420000"><ele>588</ele><time>2013-11-17T13:06:45Z</time></trkpt>
<trkpt lat="54.2497870000" lon="-2.2318210000"><ele>588</ele><time>2013-11-17T13:06:46Z</time></trkpt>
<trkpt lat="54.2497950000" lon="-2.2318020000"><ele>588</ele><time>2013-11-17T13:06:47Z</time></trkpt>
<trkpt lat="54.2498040000" lon="-2.2317830000"><ele>588</ele><time>2013-11-17T13:06:48Z</time></trkpt>
<trkpt lat="54.2498100000" lon="-2.2317630000"><ele>588</ele><time>2013-11-17T13:06:49Z</time></trkpt>
<trkpt lat="54.2498150000" lon="-2.2317430000"><ele>588</ele><time>2013-11-17T13:06:50Z</time></trkpt>
<trkpt lat="54.2498220000" lon="-2.2317230000"><ele>588</ele><time>2013-11-17T13:06:51Z</time></trkpt>
<trkpt lat="54.2498300000" lon="-2.2317010000"><ele>583</ele><time>2013-11-17T13:06:52Z</time></trkpt>
<trkpt lat="54.2498390000" lon="-2.2316820000"><ele>583</ele><time>2013-11-17T13:06:53Z</time></trkpt>
<trkpt lat="54.2498480000" lon="-2.2316650000"><ele>583</ele><time>2013-11-17T13:06:54Z</time></trkpt>
<trkpt lat="54.2498540000" lon="-2.2316550000"><ele>583</ele><time>2013-11-17T13:06:55Z</time></trkpt>
<trkpt lat="54.2498570000" lon="-2.2316510000"><ele>583</ele><time>2013-11-17T13:06:56Z</time></trkpt>
<trkpt lat="54.2498590000" lon="-2.2316500000"><ele>583</ele><time>2013-11-17T13:06:57Z</time></trkpt>
<trkpt lat="54.2498590000" lon="-2.2316490000"><ele>583</ele><time>2013-11-17T13:06:58Z</time></trkpt>
<trkpt lat="54.2498610000" lon="-2.2316500000"><ele>583</ele><time>2013-11-17T13:06:59Z</time></trkpt>
<trkpt lat="54.2498610000" lon="-2.2316520000"><ele>583</ele><time>2013-11-17T13:07:00Z</time></trkpt>
<trkpt lat="54.2498620000" lon="-2.2316510000"><ele>583</ele><time>2013-11-17T13:07:01Z</time></trkpt>
<trkpt lat="54.2498630000" lon="-2.2316490000"><ele>583</ele><time>2013-11-17T13:07:02Z</time></trkpt>
<trkpt lat="54.2498640000" lon="-2.2316440000"><ele>583</ele><time>2013-11-17T13:07:03Z</time></trkpt>
<trkpt lat="54.2498650000" lon="-2.2316420000"><ele>583</ele><time>2013-11-17T13:07:04Z</time></trkpt>
<trkpt lat="54.2498650000" lon="-2.2316400000"><ele>583</ele><time>2013-11-17T13:07:05Z</time></trkpt>
<trkpt lat="54.2498640000" lon="-2.2316390000"><ele>583</ele><time>2013-11-17T13:07:06Z</time></trkpt>
<trkpt lat="54.2498650000" lon="-2.2316400000"><ele>583</ele><time>2013-11-17T13:07:07Z</time></trkpt>
<trkpt lat="54.2498650000" lon="-2.2316400000"><ele>583</ele><time>2013-11-17T13:07:08Z</time></trkpt>
<trkpt lat="54.2498660000" lon="-2.2316420000"><ele>583</ele><time>2013-11-17T13:07:09Z</time></trkpt>
<trkpt lat="54.2498670000" lon="-2.2316450000"><ele>583</ele><time>2013-11-17T13:07:10Z</time></trkpt>
<trkpt lat="54.2498680000" lon="-2.2316470000"><ele>583</ele><time>2013-11-17T13:07:11Z</time></trkpt>
<trkpt lat="54.2498680000" lon="-2.2316500000"><ele>583</ele><time>2013-11-17T13:07:12Z</time></trkpt>
<trkpt lat="54.2498680000" lon="-2.2316560000"><ele>583</ele><time>2013-11-17T13:07:13Z</time></trkpt>
<trkpt lat="54.2498680000" lon="-2.2316560000"><ele>583</ele><time>2013-11-17T13:07:14Z</time></trkpt>
<trkpt lat="54.2498680000" lon="-2.2316540000"><ele>583</ele><time>2013-11-17T13:07:15Z</time></trkpt>
<trkpt lat="54.2498680000" lon="-2.2316500000"><ele>583</ele><time>2013-11-17T13:07:16Z</time></trkpt>
<trkpt lat="54.2498710000" lon="-2.2316440000"><ele>583</ele><time>2013-11-17T13:07:17Z</time></trkpt>
<trkpt lat="54.2498780000" lon="-2.2316330000"><ele>583</ele><time>2013-11-17T13:07:18Z</time></trkpt>
<trkpt lat="54.2498890000" lon="-2.2316190000"><ele>583</ele><time>2013-11-17T13:07:19Z</time></trkpt>
<trkpt lat="54.2499000000" lon="-2.2316000000"><ele>583</ele><time>2013-11-17T13:07:20Z</time></trkpt>
<trkpt lat="54.2499090000" lon="-2.2315810000"><ele>583</ele></trkpt>
<trkpt lat="54.2499180000" lon="-2.2315620000"><ele>583</ele><time>2013-11-17T13:07:22Z</time></trkpt>
<trkpt lat="54.2499250000" lon="-2.2315430000"><ele>583</ele><time>2013-11-17T13:07:23Z</time></trkpt>
<trkpt lat="54.2499320000" lon="-2.2315250000"><ele>583</ele><time>2013-11-17T13:07:24Z</time></trkpt>
<trkpt lat="54.2499400000" lon="-2.2315030000"><ele>583</ele><time>2013-11-17T13:07:25Z</time></trkpt>
<trkpt lat="54.2499480000" lon="-2.2314820000"><ele>583</ele><time>2013-11-17T13:07:26Z</time></trkpt>
<trkpt lat="54.2499570000" lon="-2.2314600000"><ele>583</ele><time>2013-11-17T13:07:27Z</time></trkpt>
<trkpt lat="54.2499670000" lon="-2.2314400000"><ele>583</ele><time>2013-11-17T13:07:28Z</time></trkpt>
<trkpt lat="54.2499740000" lon="-2.2314210000"><ele>583</ele><time>2013-11-17T13:07:29Z</time></trkpt>
<trkpt lat="54.2499810000" lon="-2.2314010000"><ele>583</ele><time>2013-11-17T13:07:30Z</time></trkpt>
<trkpt lat="54.2499880000" lon="-2.2313800000"><ele>583</ele><time>2013-11-17T13:07:31Z</time></trkpt>
<trkpt lat="54.2499940000" lon="-2.2313580000"><ele>583</ele><time>2013-11-17T13:07:32Z</time></trkpt>
<trkpt lat="54.2500020000" lon="-2.2313350000"><ele>583</ele><time>2013-11-17T13:07:33Z</time></trkpt>
<trkpt lat="54.2500120000" lon="-2.2313140000"><ele>583</ele><time>2013-11-17T13:07:34Z</time></trkpt>
<trkpt lat="54.2500220000" lon="-2.2312920000"><ele>583</ele><time>2013-11-17T13:07:35Z</time></trkpt>
<trkpt lat="54.2500350000" lon="-2.2312710000"><ele>583</ele><time>2013-11-17T13:07:36Z</time></trkpt>
<trkpt lat="54.2500450000" lon="-2.2312500000"><ele>583</ele><time>2013-11-17T13:07:37Z</time></trkpt>
<trkpt lat="54.2500530000" lon="-2.2312290000"><ele>583</ele><time>2013-11-17T13:07:38Z</time></trkpt>
<trkpt lat="54.2500620000" lon="-2.2312100000"><ele>583</ele><time>2013-11-17T13:07:39Z</time></trkpt>
<trkpt lat="54.2500700000" lon="-2.2311900000"><ele>583</ele><time>2013-11-17T13:07:40Z</time></trkpt>
<trkpt lat="54.2500770000" lon="-2.2311690000"><ele>583</ele><time>2013-11-17T13:07:41Z</time></trkpt>
<trkpt lat="54.2500840000" lon="-2.2311480000"><ele>583</ele><time>2013-11-17T13:07:42Z</time></trkpt>
<trkpt lat="54.2500930000" lon="-2.2311280000"><ele>583</ele><time>2013-11-17T13:07:43Z</time></trkpt>
<trkpt lat="54.2501020000" lon="-2.2311100000"><ele>583</ele><time>2013-11-17T13:07:44Z</time></trkpt>
<trkpt lat="54.2501090000" lon="-2.2310900000"><ele>583</ele><time>2013-11-17T13:07:45Z</time></trkpt>
<trkpt lat="54.2501160000" lon="-2.2310720000"><ele>583</ele></trkpt>
<trkpt lat="54.2501240000" lon="-2.2310530000"><ele>583</ele><time>2013-11-17T13:07:47Z</time></trkpt>
<trkpt lat="54.2501320000" lon="-2.2310330000"><ele>583</ele><time>2013-11-17T13:07:48Z</time></trkpt>
<trkpt lat="54.2501410000" lon="-2.2310140000"><ele>583</ele><time>2013-11-17T13:07:49Z</time></trkpt>
<trkpt lat="54.2501490000" lon="-2.2309950000"><ele>583</ele><time>2013-11-17T13:07:50Z</time></trkpt>
<trkpt lat="54.2501570000" lon="-2.2309770000"><ele>583</ele><time>2013-11-17T13:07:51Z</time></trkpt>
<trkpt lat="54.2501660000" lon="-2.2309580000"><ele>583</ele><time>2013-11-17T13:07:52Z</time></trkpt>
<trkpt lat="54.2501750000" lon="-2.2309380000"><ele>583</ele><time>2013-11-17T13:07:53Z</time></trkpt>
<trkpt lat="54.2501830000" lon="-2.2309180000"><ele>583</ele><time>2013-11-17T13:07:54Z</time></trkpt>
<trkpt lat="54.2501890000" lon="-2.2308990000"><ele>583</ele><time>2013-11-17T13:07:55Z</time></trkpt>
<trkpt lat="54.2501970000" lon="-2.2308770000"><ele>583</ele><time>2013-11-17T13:07:56Z</time></trkpt>
<trkpt lat="54.2502060000" lon="-2.2308550000"><ele>583</ele><time>2013-11-17T13:07:57Z</time></trkpt>
<trkpt lat="54.2502160000" lon="-2.2308340000"><ele>583</ele><time>2013-11-17T13:07:58Z</time></trkpt>
<trkpt lat="54.2502260000" lon="-2.2308170000"><ele>583</ele><time>2013-11-17T13:07:59Z</time></trkpt>
<trkpt lat="54.2502340000" lon="-2.2307980000"><ele>583</ele><time>2013-11-17T13:08:00Z</time></trkpt>
<trkpt lat="54.2502450000" lon="-2.2307760000"><ele>583</ele><time>2013-11-17T13:08:01Z</time></trkpt>
<trkpt lat="54.2502540000" lon="-2.2307550000"><ele>583</ele><time>2013-11-17T13:08:02Z</time></trkpt>
<trkpt lat="54.2502610000" lon="-2.2307340000"><ele>583</ele><time>2013-11-17T13:08:03Z</time></trkpt>
<trkpt lat="54.2502690000" lon="-2.2307130000"><ele>583</ele><time>2013-11-17T13:08:04Z</time></trkpt>
<trkpt lat="54.2502770000" lon="-2.2306910000"><ele>583</ele><time>2013-11-17T13:08:05Z</time></trkpt>
<trkpt lat="54.2502860000" lon="-2.2306700000"><ele>583</ele><time>2013-11-17T13:08:06Z</time></trkpt>
<trkpt lat="54.2502950000" lon="-2.2306500000"><ele>583</ele><time>2013-11-17T13:08:07Z</time></trkpt>
<trkpt lat="54.2503050000" lon="-2.2306290000"><ele>583</ele><time>2013-11-17T13:08:08Z</time></trkpt>
<trkpt lat="54.2503180000" lon="-2.2306080000"><ele>583</ele><time>2013-11-17T13:08:09Z</time></trkpt>
<trkpt lat="54.2503280000" lon="-2.2305870000"><ele>583</ele><time>2013-11-17T13:08:10Z</time></trkpt>
<trkpt lat="54.2503380000" lon="-2.2305670000"><ele>583</ele><time>2013-11-17T13:08:11Z</time></trkpt>
<trkpt lat="54.2503450000" lon="-2.2305470000"><ele>583</ele><time>2013-11-17T13:08:12Z</time></trkpt>
<trkpt lat="54.2503530000" lon="-2.2305260000"><ele>583</ele><time>2013-11-17T13:08:13Z</time></trkpt>
<trkpt lat="54.2503620000" lon="-2.2305040000"><ele>583</ele><time>2013-11-17T13:08:14Z</time></trkpt>
<trkpt lat="54.2503700000" lon="-2.2304810000"><ele>583</ele><time>2013-11-17T13:08:15Z</time></trkpt>
<trkpt lat="54.2503770000" lon="-2.2304610000"><ele>583</ele><time>2013-11-17T13:08:16Z</time></trkpt>
<trkpt lat="54.2503850000" lon="-2.2304410000"><ele>583</ele></trkpt>
<trkpt lat="54.2503960000" lon="-2.2304190000"><ele>583</ele><time>2013-11-17T13:08:18Z</time></trkpt>
<trkpt lat="54.2504050000" lon="-2.2303980000"><ele>583</ele><time>2013-11-17T13:08:19Z</time></trkpt>
<trkpt lat="54.2504150000" lon="-2.2303780000"><ele>583</ele><time>2013-11-17T13:08:20Z</time></trkpt>
<trkpt lat="54.2504250000" lon="-2.2303570000"><ele>583</ele><time>2013-11-17T13:08:21Z</time></trkpt>
<trkpt lat="54.2504340000" lon="-2.2303360000"><ele>583</ele><time>2013-11-17T13:08:22Z</time></trkpt>
<trkpt lat="54.2504440000" lon="-2.2303140000"><ele>583</ele><time>2013-11-17T13:08:23Z</time></trkpt>
<trkpt lat="54.2504510000" lon="-2.2302940000"><ele>583</ele><time>2013-11-17T13:08:24Z</time></trkpt>
<trkpt lat="54.2504580000" lon="-2.2302720000"><ele>583</ele><time>2013-11-17T13:08:25Z</time></trkpt>
<trkpt lat="54.2504650000" lon="-2.2302500000"><ele>583</ele><time>2013-11-17T13:08:26Z</time></trkpt>
<trkpt lat="54.2504730000" lon="-2.2302280000"><ele>583</ele><time>2013-11-17T13:08:27Z</time></trkpt>
<trkpt lat="54.2504820000" lon="-2.2302070000"><ele>583</ele><time>2013-11-17T13:08:28Z</time></trkpt>
<trkpt lat="54.2504910000" lon="-2.2301890000"><ele>583</ele><time>2013-11-17T13:08:29Z</time></trkpt>
<trkpt lat="54.2504990000" lon="-2.2301700000"><ele>583</ele><time>2013-11-17T13:08:30Z</time></trkpt>
<trkpt lat="54.2505080000" lon="-2.2301490000"><ele>583</ele><time>2013-11-17T13:08:31Z</time></trkpt>
<trkpt lat="54.2505170000" lon="-2.2301270000"><ele>583</ele><time>2013-11-17T13:08:32Z</time></trkpt>
<trkpt lat="54.2505250000" lon="-2.2301050000"><ele>583</ele><time>2013-11-17T13:08:33Z</time></trkpt>
<trkpt lat="54.2505340000" lon="-2.2300840000"><ele>583</ele><time>2013-11-17T13:08:34Z</time></trkpt>
<trkpt lat="54.2505430000" lon="-2.2300640000"><ele>583</ele><time>2013-11-17T13:08:35Z</time></trkpt>
<trkpt lat="54.2505510000" lon="-2.2300430000"><ele>583</ele><time>2013-11-17T13:08:36Z</time></trkpt>
<trkpt lat="54.2505590000" lon="-2.2300230000"><ele>583</ele><time>2013-11-17T13:08:37Z</time></trkpt>
<trkpt lat="54.2505660000" lon="-2.2300030000"><ele>583</ele><time>2013-11-17T13:08:38Z</time></trkpt>
<trkpt lat="54.2505740000" lon="-2.2299820000"><ele>583</ele><time>2013-11-17T13:08:39Z</time></trkpt>
<trkpt lat="54.2505820000" lon="-2.2299630000"><ele>583</ele><time>2013-11-17T13:08:40Z</time></trkpt>
<trkpt lat="54.2505900000" lon="-2.2299450000"><ele>583</ele><time>2013-11-17T13:08:41Z</time></trkpt>
<trkpt lat="54.2505990000" lon="-2.2299240000"><ele>583</ele><time>2013-11-17T13:08:42Z</time></trkpt>
<trkpt lat="54.2506060000" lon="-2.2299030000"><ele>583</ele><time>2013-11-17T13:08:43Z</time></trkpt>
<trkpt lat="54.2506130000" lon="-2.2298840000"><ele>583</ele><time>2013-11-17T13:08:44Z</time></trkpt>
<trkpt lat="54.2506180000" lon="-2.2298650000"><ele>583</ele><time>2013-11-17T13:08:45Z</time></trkpt>
<trkpt lat="54.2506240000" lon="-2.2298450000"><ele>583</ele><time>2013-11-17T13:08:46Z</time></trkpt>
<trkpt lat="54.2506300000" lon="-2.2298250000"><ele>583</ele><time>2013-11-17T13:08:47Z</time></trkpt>
<trkpt lat="54.2506370000" lon="-2.2298050000"><ele>583</ele></trkpt>
<trkpt lat="54.2506430000" lon="-2.2297850000"><ele>583</ele><time>2013-11-17T13:08:49Z</time></trkpt>
<trkpt lat="54.2506510000" lon="-2.2297660000"><ele>583</ele><time>2013-11-17T13:08:50Z</time></trkpt>
<trkpt lat="54.2506600000" lon="-2.2297470000"><ele>583</ele><time>2013-11-17T13:08:51Z</time></trkpt>
<trkpt lat="54.2506700000" lon="-2.2297280000"><ele>583</ele><time>2013-11-17T13:08:52Z</time></trkpt>
<trkpt lat="54.2506800000" lon="-2.2297100000"><ele>583</ele><time>2013-11-17T13:08:53Z</time></trkpt>
<trkpt lat="54.2506900000" lon="-2.2296920000"><ele>583</ele></trkpt>
<trkpt lat="54.2506990000" lon="-2.2296750000"><ele>583</ele><time>2013-11-17T13:08:55Z</time></trkpt>
<trkpt lat="54.2507070000" lon="-2.2296560000"><ele>583</ele><time>2013-11-17T13:08:56Z</time></trkpt>
<trkpt lat="54.2507140000" lon="-2.2296380000"><ele>583</ele><time>2013-11-17T13:08:57Z</time></trkpt>
<trkpt lat="54.2507230000" lon="-2.2296200000"><ele>583</ele><time>2013-11-17T13:08:58Z</time></trkpt>
<trkpt lat="54.2507320000" lon="-2.2296020000"><ele>583</ele><time>2013-11-17T13:08:59Z</time></trkpt>
<trkpt lat="54.2507400000" lon="-2.2295830000"><ele>583</ele><time>2013-11-17T13:09:00Z</time></trkpt>
<trkpt lat="54.2507480000" lon="-2.2295610000"><ele>583</ele><time>2013-11-17T13:09:01Z</time></trkpt>
<trkpt lat="54.2507560000" lon="-2.2295400000"><ele>583</ele><time>2013-11-17T13:09:02Z</time></trkpt>
<trkpt lat="54.2507630000" lon="-2.2295180000"><ele>583</ele><time>2013-11-17T13:09:03Z</time></trkpt>
<trkpt lat="54.2507680000" lon="-2.2294970000"><ele>583</ele><time>2013-11-17T13:09:04Z</time></trkpt>
<trkpt lat="54.2507730000" lon="-2.2294760000"><ele>583</ele><time>2013-11-17T13:09:05Z</time></trkpt>
<trkpt lat="54.2507820000" lon="-2.2294560000"><ele>583</ele><time>2013-11-17T13:09:06Z</time></trkpt>
<trkpt lat="54.2507910000" lon="-2.2294360000"><ele>583</ele><time>2013-11-17T13:09:07Z</time></trkpt>
<trkpt lat="54.2508010000" lon="-2.2294140000"><ele>583</ele><time>2013-11-17T13:09:08Z</time></trkpt>
<trkpt lat="54.2508060000" lon="-2.2293960000"><ele>583</ele><time>2013-11-17T13:09:09Z</time></trkpt>
<trkpt lat="54.2508100000" lon="-2.2293770000"><ele>583</ele><time>2013-11-17T13:09:10Z</time></trkpt>
<trkpt lat="54.2508160000" lon="-2.2293600000"><ele>583</ele><time>2013-11-17T13:09:11Z</time></trkpt>
<trkpt lat="54.2508210000" lon="-2.2293440000"><ele>583</ele><time>2013-11-17T13:09:12Z</time></trkpt>
<trkpt lat="54.2508260000" lon="-2.2293260000"><ele>583</ele><time>2013-11-17T13:09:13Z</time></trkpt>
<trkpt lat="54.2508330000" lon="-2.2293060000"><ele>583</ele><time>2013-11-17T13:09:14Z</time></trkpt>
<trkpt lat="54.2508390000" lon="-2.2292860000"><ele>583</ele><time>2013-11-17T13:09:15Z</time></trkpt>
<trkpt lat="54.2508420000" lon="-2.2292670000"><ele>583</ele><time>2013-11-17T13:09:16Z</time></trkpt>
<trkpt lat="54.2508470000" lon="-2.2292490000"><ele>583</ele><time>2013-11-17T13:09:17Z</time></trkpt>
<trkpt lat="54.2508550000" lon="-2.2292300000"><ele>583</ele><time>2013-11-17T13:09:18Z</time></trkpt>
<trkpt lat="54.2508630000" lon="-2.2292100000"><ele>583</ele><time>2013-11-17T13:09:19Z</time></trkpt>
<trkpt lat="54.2508710000" lon="-2.2291900000"><ele>583</ele><time>2013-11-17T13:09:20Z</time></trkpt>
<trkpt lat="54.2508810000" lon="-2.2291710000"><ele>583</ele><time>2013-11-17T13:09:21Z</time></trkpt>
<trkpt lat="54.2508920000" lon="-2.2291520000"><ele>583</ele><time>2013-11-17T13:09:22Z</time></trkpt>
<trkpt lat="54.2509040000" lon="-2.2291320000"><ele>583</ele><time>2013-11-17T13:09:23Z</time></trkpt>
<trkpt lat="54.2509150000" lon="-2.2291110000"><ele>583</ele><time>2013-11-17T13:09:24Z</time></trkpt>
<trkpt lat="54.2509270000" lon="-2.2290880000"><ele>583</ele></trkpt>
<trkpt lat="54.2509360000" lon="-2.2290680000"><ele>583</ele><time>2013-11-17T13:09:26Z</time></trkpt>
<trkpt lat="54.2509460000" lon="-2.2290500000"><ele>583</ele><time>2013-11-17T13:09:27Z</time></trkpt>
<trkpt lat="54.2509550000" lon="-2.2290330000"><ele>583</ele><time>2013-11-17T13:09:28Z</time></trkpt>
<trkpt lat="54.2509640000" lon="-2.2290140000"><ele>583</ele><time>2013-11-17T13:09:29Z</time></trkpt>
<trkpt lat="54.2509720000" lon="-2.2289960000"><ele>583</ele><time>2013-11-17T13:09:30Z</time></trkpt>
<trkpt lat="54.2509790000" lon="-2.2289800000"><ele>583</ele><time>2013-11-17T13:09:31Z</time></trkpt>
<trkpt lat="54.2509860000" lon="-2.2289630000"><ele>583</ele><time>2013-11-17T13:09:32Z</time></trkpt>
<trkpt lat="54.2509920000" lon="-2.2289440000"><ele>583</ele><time>2013-11-17T13:09:33Z</time></trkpt>
<trkpt lat="54.2510010000" lon="-2.2289230000"><ele>583</ele><time>2013-11-17T13:09:34Z</time></trkpt>
<trkpt lat="54.2510110000" lon="-2.2289010000"><ele>583</ele><time>2013-11-17T13:09:35Z</time></trkpt>
<trkpt lat="54.2510220000" lon="-2.2288800000"><ele>583</ele><time>2013-11-17T13:09:36Z</time></trkpt>
<trkpt lat="54.2510340000" lon="-2.2288610000"><ele>583</ele><time>2013-11-17T13:09:37Z</time></trkpt>
<trkpt lat="54.2510440000" lon="-2.2288400000"><ele>583</ele><time>2013-11-17T13:09:38Z</time></trkpt>
<trkpt lat="54.2510540000" lon="-2.2288190000"><ele>583</ele><time>2013-11-17T13:09:39Z</time></trkpt>
<trkpt lat="54.2510640000" lon="-2.2287970000"><ele>583</ele><time>2013-11-17T13:09:40Z</time></trkpt>
<trkpt lat="54.2510720000" lon="-2.2287780000"><ele>583</ele><time>2013-11-17T13:09:41Z</time></trkpt>
<trkpt lat="54.2510810000" lon="-2.2287570000"><ele>583</ele><time>2013-11-17T13:09:42Z</time></trkpt>
<trkpt lat="54.2510900000" lon="-2.2287360000"><ele>583</ele><time>2013-11-17T13:09:43Z</time></trkpt>
<trkpt lat="54.2510980000" lon="-2.2287170000"><ele>583</ele><time>2013-11-17T13:09:44Z</time></trkpt>
<trkpt lat="54.2511070000" lon="-2.2286980000"><ele>583</ele><time>2013-11-17T13:09:45Z</time></trkpt>
<trkpt lat="54.2511160000" lon="-2.2286780000"><ele>583</ele><time>2013-11-17T13:09:46Z</time></trkpt>
<trkpt lat="54.2511250000" lon="-2.2286580000"><ele>583</ele><time>2013-11-17T13:09:47Z</time></trkpt>
<trkpt lat="54.2511350000" lon="-2.2286360000"><ele>585</ele><time>2013-11-17T13:09:48Z</time></trkpt>
<trkpt lat="54.2511430000" lon="-2.2286150000"><ele>585</ele><time>2013-11-17T13:09:49Z</time></trkpt>
<trkpt lat="54.2511510000" lon="-2.2285930000"><ele>585</ele><time>2013-11-17T13:09:50Z</time></trkpt>
<trkpt lat="54.2511580000" lon="-2.2285730000"><ele>585</ele><time>2013-11-17T13:09:51Z</time></trkpt>
<trkpt lat="54.2511650000" lon="-2.2285530000"><ele>585</ele><time>2013-11-17T13:09:52Z</time></trkpt>
<trkpt lat="54.2511750000" lon="-2.2285320000"><ele>585</ele><time>2013-11-17T13:09:53Z</time></trkpt>
<trkpt lat="54.2511850000" lon="-2.2285120000"><ele>585</ele><time>2013-11-17T13:09:54Z</time></trkpt>
<trkpt lat="54.2511940000" lon="-2.2284920000"><ele>585</ele><time>2013-11-17T13:09:55Z</time></trkpt>
<trkpt lat="54.2512020000" lon="-2.2284730000"><ele>585</ele></trkpt>
<trkpt lat="54.2512090000" lon="-2.2284550000"><ele>585</ele><time>2013-11-17T13:09:57Z</time></trkpt>
<trkpt lat="54.2512180000" lon="-2.2284350000"><ele>585</ele><time>2013-11-17T13:09:58Z</time></trkpt>
<trkpt lat="54.2512270000" lon="-2.2284130000"><ele>585</ele><time>2013-11-17T13:09:59Z</time></trkpt>
<trkpt lat="54.2512340000" lon="-2.2283910000"><ele>585</ele><time>2013-11-17T13:10:00Z</time></trkpt>
<trkpt lat="54.2512420000" lon="-2.2283680000"><ele>585</ele><time>2013-11-17T13:10:01Z</time></trkpt>
<trkpt lat="54.2512500000" lon="-2.2283470000"><ele>585</ele><time>2013-11-17T13:10:02Z</time></trkpt>
<trkpt lat="54.2512560000" lon="-2.2283270000"><ele>585</ele><time>2013-11-17T13:10:03Z</time></trkpt>
<trkpt lat="54.2512640000" lon="-2.2283080000"><ele>585</ele><time>2013-11-17T13:10:04Z</time></trkpt>
<trkpt lat="54.2512720000" lon="-2.2282890000"><ele>585</ele><time>2013-11-17T13:10:05Z</time></trkpt>
<trkpt lat="54.2512800000" lon="-2.2282680000"><ele>585</ele><time>2013-11-17T13:10:06Z</time></trkpt>
<trkpt lat="54.2512860000" lon="-2.2282460000"><ele>585</ele><time>2013-11-17T13:10:07Z</time></trkpt>
<trkpt lat="54.2512940000" lon="-2.2282260000"><ele>585</ele><time>2013-11-17T13:10:08Z</time></trkpt>
<trkpt lat="54.2513030000" lon="-2.2282050000"><ele>585</ele><time>2013-11-17T13:10:09Z</time></trkpt>
<trkpt lat="54.2513110000" lon="-2.2281860000"><ele>585</ele><time>2013-11-17T13:10:10Z</time></trkpt>
<trkpt lat="54.2513200000" lon="-2.2281670000"><ele>585</ele><time>2013-11-17T13:10:11Z</time></trkpt>
<trkpt lat="54.2513310000" lon="-2.2281490000"><ele>585</ele><time>2013-11-17T13:10:12Z</time></trkpt>
<trkpt lat="54.2513410000" lon="-2.2281330000"><ele>585</ele><time>2013-11-17T13:10:13Z</time></trkpt>
<trkpt lat="54.2513490000" lon="-2.2281170000"><ele>585</ele><time>2013-11-17T13:10:14Z</time></trkpt>
<trkpt lat="54.2513560000" lon="-2.2281000000"><ele>585</ele><time>2013-11-17T13:10:15Z</time></trkpt>
<trkpt lat="54.2513640000" lon="-2.2280800000"><ele>585</ele><time>2013-11-17T13:10:16Z</time></trkpt>
<trkpt lat="54.2513720000" lon="-2.2280620000"><ele>585</ele><time>2013-11-17T13:10:17Z</time></trkpt>
<trkpt lat="54.2513810000" lon="-2.2280400000"><ele>585</ele><time>2013-11-17T13:10:18Z</time></trkpt>
<trkpt lat="54.2513890000" lon="-2.2280170000"><ele>585</ele><time>2013-11-17T13:10:19Z</time></trkpt>
<trkpt lat="54.2513990000" lon="-2.2279950000"><ele>585</ele><time>2013-11-17T13:10:20Z</time></trkpt>
<trkpt lat="54.2514090000" lon="-2.2279740000"><ele>585</ele><time>2013-11-17T13:10:21Z</time></trkpt>
<trkpt lat="54.2514190000" lon="-2.2279530000"><ele>585</ele><time>2013-11-17T13:10:22Z</time></trkpt>
<trkpt lat="54.2514300000" lon="-2.2279330000"><ele>585</ele><time>2013-11-17T13:10:23Z</time></trkpt>
<trkpt lat="54.2514410000" lon="-2.2279150000"><ele>585</ele><time>2013-11-17T13:10:24Z</time></trkpt>
<trkpt lat="54.2514500000" lon="-2.2278970000"><ele>585</ele><time>2013-11-17T13:10:25Z</time></trkpt>
<trkpt lat="54.2514580000" lon="-2.2278800000"><ele>585</ele><time>2013-11-17T13:10:26Z</time></trkpt>
<trkpt lat="54.2514670000" lon="-2.2278630000"><ele>585</ele></trkpt>
<trkpt lat="54.2514750000" lon="-2.2278450000"><ele>585</ele><time>2013-11-17T13:10:28Z</time></trkpt>
<trkpt lat="54.2514810000" lon="-2.2278250000"><ele>585</ele><time>2013-11-17T13:10:29Z</time></trkpt>
<trkpt lat="54.2514880000" lon="-2.2278050000"><ele>585</ele><time>2013-11-17T13:10:30Z</time></trkpt>
<trkpt lat="54.2514930000" lon="-2.2277840000"><ele>585</ele><time>2013-11-17T13:10:31Z</time></trkpt>
<trkpt lat="54.2514980000" lon="-2.2277630000"><ele>585</ele><time>2013-11-17T13:10:32Z</time></trkpt>
<trkpt lat="54.2515040000" lon="-2.2277410000"><ele>585</ele></trkpt>
<trkpt lat="54.2515110000" lon="-2.2277220000"><ele>585</ele><time>2013-11-17T13:10:34Z</time></trkpt>
<trkpt lat="54.2515170000" lon="-2.2277030000"><ele>585</ele><time>2013-11-17T13:10:35Z</time></trkpt>
<trkpt lat="54.2515240000" lon="-2.2276850000"><ele>585</ele><time>2013-11-17T13:10:36Z</time></trkpt>
<trkpt lat="54.2515340000" lon="-2.2276660000"><ele>585</ele><time>2013-11-17T13:10:37Z</time></trkpt>
<trkpt lat="54.2515420000" lon="-2.2276470000"><ele>585</ele><time>2013-11-17T13:10:38Z</time></trkpt>
<trkpt lat="54.2515520000" lon="-2.2276270000"><ele>585</ele><time>2013-11-17T13:10:39Z</time></trkpt>
<trkpt lat="54.2515600000" lon="-2.2276070000"><ele>585</ele><time>2013-11-17T13:10:40Z</time></trkpt>
<trkpt lat="54.2515690000" lon="-2.2275890000"><ele>585</ele><time>2013-11-17T13:10:41Z</time></trkpt>
<trkpt lat="54.2515750000" lon="-2.2275690000"><ele>585</ele><time>2013-11-17T13:10:42Z</time></trkpt>
<trkpt lat="54.2515820000" lon="-2.2275500000"><ele>585</ele><time>2013-11-17T13:10:43Z</time></trkpt>
<trkpt lat="54.2515880000" lon="-2.2275320000"><ele>585</ele><time>2013-11-17T13:10:44Z</time></trkpt>
<trkpt lat="54.2515940000" lon="-2.2275130000"><ele>585</ele><time>2013-11-17T13:10:45Z</time></trkpt>
<trkpt lat="54.2516010000" lon="-2.2274950000"><ele>585</ele><time>2013-11-17T13:10:46Z</time></trkpt>
<trkpt lat="54.2516090000" lon="-2.2274770000"><ele>585</ele><time>2013-11-17T13:10:47Z</time></trkpt>
<trkpt lat="54.2516170000" lon="-2.2274600000"><ele>585</ele><time>2013-11-17T13:10:48Z</time></trkpt>
<trkpt lat="54.2516240000" lon="-2.2274420000"><ele>585</ele><time>2013-11-17T13:10:49Z</time></trkpt>
<trkpt lat="54.2516320000" lon="-2.2274230000"><ele>585</ele><time>2013-11-17T13:10:50Z</time></trkpt>
<trkpt lat="54.2516390000" lon="-2.2274020000"><ele>585</ele><time>2013-11-17T13:10:51Z</time></trkpt>
<trkpt lat="54.2516460000" lon="-2.2273830000"><ele>585</ele><time>2013-11-17T13:10:52Z</time></trkpt>
<trkpt lat="54.2516530000" lon="-2.2273630000"><ele>585</ele><time>2013-11-17T13:10:53Z</time></trkpt>
<trkpt lat="54.2516590000" lon="-2.2273430000"><ele>585</ele><time>2013-11-17T13:10:54Z</time></trkpt>
<trkpt lat="54.2516660000" lon="-2.2273250000"><ele>585</ele><time>2013-11-17T13:10:55Z</time></trkpt>
<trkpt lat="54.2516740000" lon="-2.2273060000"><ele>585</ele><time>2013-11-17T13:10:56Z</time></trkpt>
<trkpt lat="54.2516840000" lon="-2.2272850000"><ele>585</ele><time>2013-11-17T13:10:57Z</time></trkpt>
<trkpt lat="54.2516910000" lon="-2.2272660000"><ele>585</ele><time>2013-11-17T13:10:58Z</time></trkpt>
<trkpt lat="54.2516950000" lon="-2.2272470000"><ele>585</ele><time>2013-11-17T13:10:59Z</time></trkpt>
<trkpt lat="54.2516990000" lon="-2.2272300000"><ele>585</ele><time>2013-11-17T13:11:00Z</time></trkpt>
<trkpt lat="54.2517020000" lon="-2.2272170000"><ele>585</ele><time>2013-11-17T13:11:01Z</time></trkpt>
<trkpt lat="54.2517060000" lon="-2.2272090000"><ele>585</ele><time>2013-11-17T13:11:02Z</time></trkpt>
<trkpt lat="54.2517110000" lon="-2.2272050000"><ele>585</ele><time>2013-11-17T13:11:03Z</time></trkpt>
<trkpt lat="54.2517140000" lon="-2.2272030000"><ele>585</ele></trkpt>
<trkpt lat="54.2517150000" lon="-2.2272040000"><ele>585</ele><time>2013-11-17T13:11:05Z</time></trkpt>
<trkpt lat="54.2517170000" lon="-2.2272070000"><ele>585</ele><time>2013-11-17T13:11:06Z</time></trkpt>
<trkpt lat="54.2517170000" lon="-2.2272040000"><ele>585</ele><time>2013-11-17T13:11:07Z</time></trkpt>
<trkpt lat="54.2517170000" lon="-2.2271960000"><ele>585</ele><time>2013-11-17T13:11:08Z</time></trkpt>
<trkpt lat="54.2517170000" lon="-2.2271860000"><ele>585</ele><time>2013-11-17T13:11:09Z</time></trkpt>
<trkpt lat="54.2517180000" lon="-2.2271750000"><ele>585</ele><time>2013-11-17T13:11:10Z</time></trkpt>
<trkpt lat="54.2517200000" lon="-2.2271670000"><ele>585</ele><time>2013-11-17T13:11:11Z</time></trkpt>
<trkpt lat="54.2517230000" lon="-2.2271640000"><ele>585</ele><time>2013-11-17T13:11:12Z</time></trkpt>
<trkpt lat="54.2517240000" lon="-2.2271580000"><ele>585</ele><time>2013-11-17T13:11:13Z</time></trkpt>
<trkpt lat="54.2517260000" lon="-2.2271480000"><ele>585</ele><time>2013-11-17T13:11:14Z</time></trkpt>
<trkpt lat="54.2517420000" lon="-2.2271060000"><ele>585</ele><time>2013-11-17T13:11:17Z</time></trkpt>
<trkpt lat="54.2517600000" lon="-2.2270650000"><ele>585</ele><time>2013-11-17T13:11:19Z</time></trkpt>
<trkpt lat="54.2517850000" lon="-2.2270200000"><ele>585</ele><time>2013-11-17T13:11:21Z</time></trkpt>
<trkpt lat="54.2517940000" lon="-2.2270020000"><ele>585</ele><time>2013-11-17T13:11:22Z</time></trkpt>
<trkpt lat="54.2518030000" lon="-2.2269850000"><ele>585</ele><time>2013-11-17T13:11:23Z</time></trkpt>
<trkpt lat="54.2518100000" lon="-2.2269690000"><ele>585</ele><time>2013-11-17T13:11:24Z</time></trkpt>
<trkpt lat="54.2518180000" lon="-2.2269500000"><ele>585</ele><time>2013-11-17T13:11:25Z</time></trkpt>
<trkpt lat="54.2518250000" lon="-2.2269320000"><ele>585</ele><time>2013-11-17T13:11:26Z</time></trkpt>
<trkpt lat="54.2518340000" lon="-2.2269160000"><ele>585</ele><time>2013-11-17T13:11:27Z</time></trkpt>
<trkpt lat="54.2518430000" lon="-2.2268990000"><ele>585</ele><time>2013-11-17T13:11:28Z</time></trkpt>
<trkpt lat="54.2518520000" lon="-2.2268810000"><ele>585</ele></trkpt>
<trkpt lat="54.2518590000" lon="-2.2268620000"><ele>585</ele><time>2013-11-17T13:11:30Z</time></trkpt>
<trkpt lat="54.2518660000" lon="-2.2268420000"><ele>585</ele><time>2013-11-17T13:11:31Z</time></trkpt>
<trkpt lat="54.2518740000" lon="-2.2268220000"><ele>585</ele><time>2013-11-17T13:11:32Z</time></trkpt>
<trkpt lat="54.2518830000" lon="-2.2268000000"><ele>585</ele><time>2013-11-17T13:11:33Z</time></trkpt>
<trkpt lat="54.2518910000" lon="-2.2267780000"><ele>585</ele><time>2013-11-17T13:11:34Z</time></trkpt>
<trkpt lat="54.2518970000" lon="-2.2267550000"><ele>585</ele></trkpt>
<trkpt lat="54.2519060000" lon="-2.2267320000"><ele>585</ele><time>2013-11-17T13:11:36Z</time></trkpt>
<trkpt lat="54.2519160000" lon="-2.2267110000"><ele>585</ele><time>2013-11-17T13:11:37Z</time></trkpt>
<trkpt lat="54.2519250000" lon="-2.2266920000"><ele>585</ele><time>2013-11-17T13:11:38Z</time></trkpt>
<trkpt lat="54.2519350000" lon="-2.2266730000"><ele>585</ele><time>2013-11-17T13:11:39Z</time></trkpt>
<trkpt lat="54.2519440000" lon="-2.2266530000"><ele>585</ele><time>2013-11-17T13:11:40Z</time></trkpt>
<trkpt lat="54.2519520000" lon="-2.2266330000"><ele>585</ele><time>2013-11-17T13:11:41Z</time></trkpt>
<trkpt lat="54.2519580000" lon="-2.2266140000"><ele>585</ele><time>2013-11-17T13:11:42Z</time></trkpt>
<trkpt lat="54.2519650000" lon="-2.2265930000"><ele>585</ele><time>2013-11-17T13:11:43Z</time></trkpt>
<trkpt lat="54.2519720000" lon="-2.2265740000"><ele>585</ele><time>2013-11-17T13:11:44Z</time></trkpt>
<trkpt lat="54.2519800000" lon="-2.2265550000"><ele>585</ele><time>2013-11-17T13:11:45Z</time></trkpt>
<trkpt lat="54.2519870000" lon="-2.2265360000"><ele>585</ele><time>2013-11-17T13:11:46Z</time></trkpt>
<trkpt lat="54.2519940000" lon="-2.2265160000"><ele>585</ele><time>2013-11-17T13:11:47Z</time></trkpt>
<trkpt lat="54.2520020000" lon="-2.2264960000"><ele>585</ele><time>2013-11-17T13:11:48Z</time></trkpt>
<trkpt lat="54.2520090000" lon="-2.2264760000"><ele>585</ele><time>2013-11-17T13:11:49Z</time></trkpt>
<trkpt lat="54.2520160000" lon="-2.2264580000"><ele>585</ele><time>2013-11-17T13:11:50Z</time></trkpt>
<trkpt lat="54.2520260000" lon="-2.2264430000"><ele>585</ele><time>2013-11-17T13:11:51Z</time></trkpt>
<trkpt lat="54.2520460000" lon="-2.2264090000"><ele>585</ele><time>2013-11-17T13:11:53Z</time></trkpt>
<trkpt lat="54.2520580000" lon="-2.2263680000"><ele>585</ele><time>2013-11-17T13:11:55Z</time></trkpt>
<trkpt lat="54.2520730000" lon="-2.2263080000"><ele>585</ele><time>2013-11-17T13:11:58Z</time></trkpt>
<trkpt lat="54.2520850000" lon="-2.2262660000"><ele>585</ele><time>2013-11-17T13:12:00Z</time></trkpt>
<trkpt lat="54.2520970000" lon="-2.2262240000"><ele>585</ele><time>2013-11-17T13:12:02Z</time></trkpt>
<trkpt lat="54.2521140000" lon="-2.2261860000"><ele>585</ele><time>2013-11-17T13:12:04Z</time></trkpt>
<trkpt lat="54.2521330000" lon="-2.2261490000"><ele>585</ele><time>2013-11-17T13:12:06Z</time></trkpt>
<trkpt lat="54.2521480000" lon="-2.2261130000"><ele>585</ele><time>2013-11-17T13:12:08Z</time></trkpt>
<trkpt lat="54.2521630000" lon="-2.2260690000"><ele>585</ele><time>2013-11-17T13:12:10Z</time></trkpt>
<trkpt lat="54.2521780000" lon="-2.2260320000"><ele>585</ele><time>2013-11-17T13:12:12Z</time></trkpt>
<trkpt lat="54.2521950000" lon="-2.2259890000"><ele>585</ele><time>2013-11-17T13:12:14Z</time></trkpt>
<trkpt lat="54.2522140000" lon="-2.2259440000"><ele>585</ele><time>2013-11-17T13:12:16Z</time></trkpt>
<trkpt lat="54.2522340000" lon="-2.2259040000"><ele>585</ele><time>2013-11-17T13:12:18Z</time></trkpt>
<trkpt lat="54.2522590000" lon="-2.2258700000"><ele>585</ele><time>2013-11-17T13:12:20Z</time></trkpt>
<trkpt lat="54.2522750000" lon="-2.2258310000"><ele>585</ele><time>2013-11-17T13:12:22Z</time></trkpt>
<trkpt lat="54.2522860000" lon="-2.2257910000"><ele>585</ele><time>2013-11-17T13:12:24Z</time></trkpt>
<trkpt lat="54.2523030000" lon="-2.2257490000"><ele>585</ele><time>2013-11-17T13:12:26Z</time></trkpt>
<trkpt lat="54.2523160000" lon="-2.2257120000"><ele>585</ele><time>2013-11-17T13:12:28Z</time></trkpt>
<trkpt lat="54.2523250000" lon="-2.2256710000"><ele>585</ele><time>2013-11-17T13:12:30Z</time></trkpt>
<trkpt lat="54.2523370000" lon="-2.2256350000"><ele>585</ele><time>2013-11-17T13:12:32Z</time></trkpt>
<trkpt lat="54.2523510000" lon="-2.2255930000"><ele>585</ele><time>2013-11-17T13:12:34Z</time></trkpt>
<trkpt lat="54.2523650000" lon="-2.2255500000"><ele>586</ele><time>2013-11-17T13:12:36Z</time></trkpt>
<trkpt lat="54.2523800000" lon="-2.2255130000"><ele>586</ele><time>2013-11-17T13:12:38Z</time></trkpt>
<trkpt lat="54.2524010000" lon="-2.2254750000"><ele>586</ele><time>2013-11-17T13:12:40Z</time></trkpt>
<trkpt lat="54.2524260000" lon="-2.2254320000"><ele>586</ele><time>2013-11-17T13:12:42Z</time></trkpt>
<trkpt lat="54.2524450000" lon="-2.2253920000"><ele>586</ele><time>2013-11-17T13:12:43Z</time></trkpt>
<trkpt lat="54.2524620000" lon="-2.2253390000"><ele>586</ele><time>2013-11-17T13:12:47Z</time></trkpt>
<trkpt lat="54.2524760000" lon="-2.2253000000"><ele>586</ele><time>2013-11-17T13:12:49Z</time></trkpt>
<trkpt lat="54.2524930000" lon="-2.2252600000"><ele>586</ele><time>2013-11-17T13:12:51Z</time></trkpt>
<trkpt lat="54.2525120000" lon="-2.2252190000"><ele>586</ele><time>2013-11-17T13:12:53Z</time></trkpt>
<trkpt lat="54.2525230000" lon="-2.2251730000"><ele>586</ele><time>2013-11-17T13:12:55Z</time></trkpt>
<trkpt lat="54.2525380000" lon="-2.2251290000"><ele>586</ele><time>2013-11-17T13:12:57Z</time></trkpt>
<trkpt lat="54.2525520000" lon="-2.2250860000"><ele>586</ele><time>2013-11-17T13:12:59Z</time></trkpt>
<trkpt lat="54.2525610000" lon="-2.2250430000"><ele>586</ele><time>2013-11-17T13:13:01Z</time></trkpt>
<trkpt lat="54.2525770000" lon="-2.2250030000"><ele>586</ele><time>2013-11-17T13:13:03Z</time></trkpt>
<trkpt lat="54.2525940000" lon="-2.2249620000"><ele>586</ele><time>2013-11-17T13:13:05Z</time></trkpt>
<trkpt lat="54.2526130000" lon="-2.2249210000"><ele>586</ele><time>2013-11-17T13:13:07Z</time></trkpt>
<trkpt lat="54.2526290000" lon="-2.2248800000"><ele>586</ele><time>2013-11-17T13:13:08Z</time></trkpt>
<trkpt lat="54.2526460000" lon="-2.2248390000"><ele>586</ele><time>2013-11-17T13:13:11Z</time></trkpt>
<trkpt lat="54.2526640000" lon="-2.2248030000"><ele>586</ele><time>2013-11-17T13:13:13Z</time></trkpt>
<trkpt lat="54.2526810000" lon="-2.2247670000"><ele>586</ele><time>2013-11-17T13:13:15Z</time></trkpt>
<trkpt lat="54.2527040000" lon="-2.2247280000"><ele>586</ele><time>2013-11-17T13:13:17Z</time></trkpt>
<trkpt lat="54.2527180000" lon="-2.2246920000"><ele>586</ele><time>2013-11-17T13:13:19Z</time></trkpt>
<trkpt lat="54.2527310000" lon="-2.2246370000"><ele>586</ele><time>2013-11-17T13:13:22Z</time></trkpt>
<trkpt lat="54.2527380000" lon="-2.2245930000"><ele>586</ele><time>2013-11-17T13:13:24Z</time></trkpt>
<trkpt lat="54.2527520000" lon="-2.2245580000"><ele>586</ele><time>2013-11-17T13:13:26Z</time></trkpt>
<trkpt lat="54.2527690000" lon="-2.2245200000"><ele>586</ele><time>2013-11-17T13:13:28Z</time></trkpt>
<trkpt lat="54.2527830000" lon="-2.2244750000"><ele>586</ele><time>2013-11-17T13:13:30Z</time></trkpt>
<trkpt lat="54.2527910000" lon="-2.2244360000"><ele>586</ele><time>2013-11-17T13:13:32Z</time></trkpt>
<trkpt lat="54.2528020000" lon="-2.2243970000"><ele>586</ele><time>2013-11-17T13:13:34Z</time></trkpt>
<trkpt lat="54.2528170000" lon="-2.2243630000"><ele>586</ele><time>2013-11-17T13:13:36Z</time></trkpt>
<trkpt lat="54.2528360000" lon="-2.2243280000"><ele>586</ele><time>2013-11-17T13:13:38Z</time></trkpt>
<trkpt lat="54.2528500000" lon="-2.2242820000"><ele>586</ele><time>2013-11-17T13:13:40Z</time></trkpt>
<trkpt lat="54.2528650000" lon="-2.2242390000"><ele>586</ele><time>2013-11-17T13:13:42Z</time></trkpt>
<trkpt lat="54.2528840000" lon="-2.2241890000"><ele>586</ele><time>2013-11-17T13:13:44Z</time></trkpt>
<trkpt lat="54.2529030000" lon="-2.2241430000"><ele>586</ele><time>2013-11-17T13:13:46Z</time></trkpt>
<trkpt lat="54.2529180000" lon="-2.2241030000"><ele>586</ele><time>2013-11-17T13:13:48Z</time></trkpt>
<trkpt lat="54.2529340000" lon="-2.2240640000"><ele>586</ele><time>2013-11-17T13:13:50Z</time></trkpt>
<trkpt lat="54.2529450000" lon="-2.2240180000"><ele>586</ele><time>2013-11-17T13:13:52Z</time></trkpt>
<trkpt lat="54.2529590000" lon="-2.2239760000"><ele>586</ele><time>2013-11-17T13:13:54Z</time></trkpt>
<trkpt lat="54.2529770000" lon="-2.2239400000"><ele>586</ele><time>2013-11-17T13:13:56Z</time></trkpt>
<trkpt lat="54.2529900000" lon="-2.2239020000"><ele>586</ele><time>2013-11-17T13:13:58Z</time></trkpt>
<trkpt lat="54.2530010000" lon="-2.2238610000"><ele>586</ele><time>2013-11-17T13:14:00Z</time></trkpt>
<trkpt lat="54.2530130000" lon="-2.2238130000"><ele>586</ele><time>2013-11-17T13:14:02Z</time></trkpt>
<trkpt lat="54.2530210000" lon="-2.2237460000"><ele>586</ele><time>2013-11-17T13:14:05Z</time></trkpt>
<trkpt lat="54.2530500000" lon="-2.2236890000"><ele>586</ele><time>2013-11-17T13:14:08Z</time></trkpt>
<trkpt lat="54.2530710000" lon="-2.2236480000"><ele>586</ele><time>2013-11-17T13:14:10Z</time></trkpt>
<trkpt lat="54.2530930000" lon="-2.2236040000"><ele>586</ele><time>2013-11-17T13:14:12Z</time></trkpt>
<trkpt lat="54.2531150000" lon="-2.2235650000"><ele>586</ele><time>2013-11-17T13:14:14Z</time></trkpt>
<trkpt lat="54.2531320000" lon="-2.2235250000"><ele>586</ele><time>2013-11-17T13:14:16Z</time></trkpt>
<trkpt lat="54.2531470000" lon="-2.2234810000"><ele>586</ele><time>2013-11-17T13:14:17Z</time></trkpt>
<trkpt lat="54.2531640000" lon="-2.2234370000"><ele>586</ele><time>2013-11-17T13:14:20Z</time></trkpt>
<trkpt lat="54.2531800000" lon="-2.2233940000"><ele>586</ele><time>2013-11-17T13:14:22Z</time></trkpt>
<trkpt lat="54.2531970000" lon="-2.2233560000"><ele>586</ele><time>2013-11-17T13:14:24Z</time></trkpt>
<trkpt lat="54.2532180000" lon="-2.2233210000"><ele>586</ele><time>2013-11-17T13:14:26Z</time></trkpt>
<trkpt lat="54.2532380000" lon="-2.2232830000"><ele>586</ele><time>2013-11-17T13:14:28Z</time></trkpt>
<trkpt lat="54.2532540000" lon="-2.2232440000"><ele>586</ele><time>2013-11-17T13:14:30Z</time></trkpt>
<trkpt lat="54.2532720000" lon="-2.2232070000"><ele>578</ele><time>2013-11-17T13:14:32Z</time></trkpt>
<trkpt lat="54.2532920000" lon="-2.2231690000"><ele>578</ele><time>2013-11-17T13:14:34Z</time></trkpt>
<trkpt lat="54.2533070000" lon="-2.2231290000"><ele>578</ele><time>2013-11-17T13:14:36Z</time></trkpt>
<trkpt lat="54.2533220000" lon="-2.2230890000"><ele>578</ele><time>2013-11-17T13:14:38Z</time></trkpt>
<trkpt lat="54.2533410000" lon="-2.2230500000"><ele>578</ele><time>2013-11-17T13:14:40Z</time></trkpt>
<trkpt lat="54.2533570000" lon="-2.2230130000"><ele>578</ele><time>2013-11-17T13:14:42Z</time></trkpt>
<trkpt lat="54.2533750000" lon="-2.2229740000"><ele>578</ele><time>2013-11-17T13:14:44Z</time></trkpt>
<trkpt lat="54.2533910000" lon="-2.2229350000"><ele>578</ele><time>2013-11-17T13:14:46Z</time></trkpt>
<trkpt lat="54.2534040000" lon="-2.2228950000"><ele>578</ele><time>2013-11-17T13:14:48Z</time></trkpt>
<trkpt lat="54.2534180000" lon="-2.2228530000"><ele>578</ele><time>2013-11-17T13:14:50Z</time></trkpt>
<trkpt lat="54.2534340000" lon="-2.2228130000"><ele>578</ele><time>2013-11-17T13:14:52Z</time></trkpt>
<trkpt lat="54.2534530000" lon="-2.2227720000"><ele>578</ele><time>2013-11-17T13:14:54Z</time></trkpt>
<trkpt lat="54.2534680000" lon="-2.2227320000"><ele>578</ele><time>2013-11-17T13:14:56Z</time></trkpt>
<trkpt lat="54.2534800000" lon="-2.2226940000"><ele>578</ele><time>2013-11-17T13:14:58Z</time></trkpt>
<trkpt lat="54.2534940000" lon="-2.2226540000"><ele>578</ele><time>2013-11-17T13:15:00Z</time></trkpt>
<trkpt lat="54.2535120000" lon="-2.2226140000"><ele>578</ele><time>2013-11-17T13:15:02Z</time></trkpt>
<trkpt lat="54.2535260000" lon="-2.2225720000"><ele>578</ele><time>2013-11-17T13:15:04Z</time></trkpt>
<trkpt lat="54.2535370000" lon="-2.2225270000"><ele>580</ele><time>2013-11-17T13:15:06Z</time></trkpt>
<trkpt lat="54.2535530000" lon="-2.2224830000"><ele>580</ele><time>2013-11-17T13:15:08Z</time></trkpt>
<trkpt lat="54.2535650000" lon="-2.2224520000"><ele>580</ele><time>2013-11-17T13:15:09Z</time></trkpt>
<trkpt lat="54.2535720000" lon="-2.2224340000"><ele>580</ele><time>2013-11-17T13:15:10Z</time></trkpt>
<trkpt lat="54.2535780000" lon="-2.2224130000"><ele>580</ele><time>2013-11-17T13:15:11Z</time></trkpt>
<trkpt lat="54.2535860000" lon="-2.2223900000"><ele>580</ele><time>2013-11-17T13:15:12Z</time></trkpt>
<trkpt lat="54.2535950000" lon="-2.2223670000"><ele>580</ele><time>2013-11-17T13:15:13Z</time></trkpt>
<trkpt lat="54.2536030000" lon="-2.2223460000"><ele>580</ele></trkpt>
<trkpt lat="54.2536090000" lon="-2.2223240000"><ele>580</ele><time>2013-11-17T13:15:15Z</time></trkpt>
<trkpt lat="54.2536170000" lon="-2.2223020000"><ele>580</ele><time>2013-11-17T13:15:16Z</time></trkpt>
<trkpt lat="54.2536230000" lon="-2.2222810000"><ele>580</ele><time>2013-11-17T13:15:17Z</time></trkpt>
<trkpt lat="54.2536310000" lon="-2.2222600000"><ele>580</ele><time>2013-11-17T13:15:18Z</time></trkpt>
<trkpt lat="54.2536390000" lon="-2.2222400000"><ele>580</ele><time>2013-11-17T13:15:19Z</time></trkpt>
<trkpt lat="54.2536470000" lon="-2.2222180000"><ele>580</ele><time>2013-11-17T13:15:20Z</time></trkpt>
<trkpt lat="54.2536540000" lon="-2.2221960000"><ele>580</ele><time>2013-11-17T13:15:21Z</time></trkpt>
<trkpt lat="54.2536610000" lon="-2.2221750000"><ele>580</ele><time>2013-11-17T13:15:22Z</time></trkpt>
<trkpt lat="54.2536680000" lon="-2.2221550000"><ele>580</ele><time>2013-11-17T13:15:23Z</time></trkpt>
<trkpt lat="54.2536760000" lon="-2.2221330000"><ele>580</ele><time>2013-11-17T13:15:24Z</time></trkpt>
<trkpt lat="54.2536850000" lon="-2.2221100000"><ele>580</ele><time>2013-11-17T13:15:25Z</time></trkpt>
<trkpt lat="54.2536920000" lon="-2.2220900000"><ele>580</ele><time>2013-11-17T13:15:26Z</time></trkpt>
<trkpt lat="54.2537000000" lon="-2.2220700000"><ele>580</ele><time>2013-11-17T13:15:27Z</time></trkpt>
<trkpt lat="54.2537070000" lon="-2.2220490000"><ele>580</ele><time>2013-11-17T13:15:28Z</time></trkpt>
<trkpt lat="54.2537140000" lon="-2.2220300000"><ele>580</ele><time>2013-11-17T13:15:29Z</time></trkpt>
<trkpt lat="54.2537210000" lon="-2.2220120000"><ele>580</ele><time>2013-11-17T13:15:30Z</time></trkpt>
<trkpt lat="54.2537290000" lon="-2.2219930000"><ele>580</ele><time>2013-11-17T13:15:31Z</time></trkpt>
<trkpt lat="54.2537370000" lon="-2.2219730000"><ele>580</ele><time>2013-11-17T13:15:32Z</time></trkpt>
<trkpt lat="54.2537440000" lon="-2.2219520000"><ele>580</ele><time>2013-11-17T13:15:33Z</time></trkpt>
<trkpt lat="54.2537510000" lon="-2.2219340000"><ele>580</ele><time>2013-11-17T13:15:34Z</time></trkpt>
<trkpt lat="54.2537570000" lon="-2.2219140000"><ele>580</ele><time>2013-11-17T13:15:35Z</time></trkpt>
<trkpt lat="54.2537610000" lon="-2.2218940000"><ele>580</ele><time>2013-11-17T13:15:36Z</time></trkpt>
<trkpt lat="54.2537660000" lon="-2.2218740000"><ele>580</ele><time>2013-11-17T13:15:37Z</time></trkpt>
<trkpt lat="54.2537720000" lon="-2.2218530000"><ele>580</ele><time>2013-11-17T13:15:38Z</time></trkpt>
<trkpt lat="54.2537780000" lon="-2.2218330000"><ele>580</ele><time>2013-11-17T13:15:39Z</time></trkpt>
<trkpt lat="54.2537850000" lon="-2.2218130000"><ele>580</ele><time>2013-11-17T13:15:40Z</time></trkpt>
<trkpt lat="54.2537920000" lon="-2.2217920000"><ele>580</ele><time>2013-11-17T13:15:41Z</time></trkpt>
<trkpt lat="54.2537960000" lon="-2.2217710000"><ele>580</ele><time>2013-11-17T13:15:42Z</time></trkpt>
<trkpt lat="54.2538020000" lon="-2.2217510000"><ele>580</ele><time>2013-11-17T13:15:43Z</time></trkpt>
<trkpt lat="54.2538090000" lon="-2.2217310000"><ele>580</ele><time>2013-11-17T13:15:44Z</time></trkpt>
<trkpt lat="54.2538160000" lon="-2.2217110000"><ele>580</ele></trkpt>
<trkpt lat="54.2538240000" lon="-2.2216920000"><ele>580</ele><time>2013-11-17T13:15:46Z</time></trkpt>
<trkpt lat="54.2538310000" lon="-2.2216730000"><ele>580</ele><time>2013-11-17T13:15:47Z</time></trkpt>
<trkpt lat="54.2538360000" lon="-2.2216540000"><ele>580</ele><time>2013-11-17T13:15:48Z</time></trkpt>
<trkpt lat="54.2538400000" lon="-2.2216330000"><ele>580</ele><time>2013-11-17T13:15:49Z</time></trkpt>
<trkpt lat="54.2538440000" lon="-2.2216130000"><ele>580</ele><time>2013-11-17T13:15:50Z</time></trkpt>
<trkpt lat="54.2538500000" lon="-2.2215930000"><ele>580</ele><time>2013-11-17T13:15:51Z</time></trkpt>
<trkpt lat="54.2538580000" lon="-2.2215730000"><ele>580</ele><time>2013-11-17T13:15:52Z</time></trkpt>
<trkpt lat="54.2538680000" lon="-2.2215550000"><ele>580</ele><time>2013-11-17T13:15:53Z</time></trkpt>
<trkpt lat="54.2538770000" lon="-2.2215370000"><ele>580</ele><time>2013-11-17T13:15:54Z</time></trkpt>
<trkpt lat="54.2538850000" lon="-2.2215180000"><ele>580</ele><time>2013-11-17T13:15:55Z</time></trkpt>
<trkpt lat="54.2538940000" lon="-2.2214970000"><ele>580</ele><time>2013-11-17T13:15:56Z</time></trkpt>
<trkpt lat="54.2539030000" lon="-2.2214780000"><ele>580</ele><time>2013-11-17T13:15:57Z</time></trkpt>
<trkpt lat="54.2539110000" lon="-2.2214600000"><ele>580</ele><time>2013-11-17T13:15:58Z</time></trkpt>
<trkpt lat="54.2539180000" lon="-2.2214420000"><ele>580</ele><time>2013-11-17T13:15:59Z</time></trkpt>
<trkpt lat="54.2539220000" lon="-2.2214230000"><ele>580</ele><time>2013-11-17T13:16:00Z</time></trkpt>
<trkpt lat="54.2539330000" lon="-2.2213900000"><ele>580</ele><time>2013-11-17T13:16:02Z</time></trkpt>
<trkpt lat="54.2539480000" lon="-2.2213480000"><ele>580</ele><time>2013-11-17T13:16:04Z</time></trkpt>
<trkpt lat="54.2539640000" lon="-2.2213090000"><ele>580</ele><time>2013-11-17T13:16:06Z</time></trkpt>
<trkpt lat="54.2539810000" lon="-2.2212700000"><ele>580</ele><time>2013-11-17T13:16:08Z</time></trkpt>
<trkpt lat="54.2539980000" lon="-2.2212300000"><ele>580</ele><time>2013-11-17T13:16:10Z</time></trkpt>
<trkpt lat="54.2540160000" lon="-2.2211930000"><ele>580</ele><time>2013-11-17T13:16:12Z</time></trkpt>
<trkpt lat="54.2540330000" lon="-2.2211550000"><ele>580</ele><time>2013-11-17T13:16:14Z</time></trkpt>
<trkpt lat="54.2540440000" lon="-2.2211250000"><ele>580</ele><time>2013-11-17T13:16:15Z</time></trkpt>
<trkpt lat="54.2540510000" lon="-2.2211080000"><ele>580</ele></trkpt>
<trkpt lat="54.2540590000" lon="-2.2210910000"><ele>580</ele><time>2013-11-17T13:16:17Z</time></trkpt>
<trkpt lat="54.2540680000" lon="-2.2210720000"><ele>580</ele><time>2013-11-17T13:16:18Z</time></trkpt>
<trkpt lat="54.2540790000" lon="-2.2210530000"><ele>580</ele><time>2013-11-17T13:16:19Z</time></trkpt>
<trkpt lat="54.2540900000" lon="-2.2210330000"><ele>580</ele><time>2013-11-17T13:16:20Z</time></trkpt>
<trkpt lat="54.2540990000" lon="-2.2210120000"><ele>580</ele><time>2013-11-17T13:16:21Z</time></trkpt>
<trkpt lat="54.2541050000" lon="-2.2209910000"><ele>580</ele></trkpt>
<trkpt lat="54.2541120000" lon="-2.2209710000"><ele>580</ele><time>2013-11-17T13:16:23Z</time></trkpt>
<trkpt lat="54.2541180000" lon="-2.2209520000"><ele>580</ele><time>2013-11-17T13:16:24Z</time></trkpt>
<trkpt lat="54.2541260000" lon="-2.2209320000"><ele>580</ele><time>2013-11-17T13:16:25Z</time></trkpt>
<trkpt lat="54.2541340000" lon="-2.2209140000"><ele>580</ele><time>2013-11-17T13:16:26Z</time></trkpt>
<trkpt lat="54.2541480000" lon="-2.2208840000"><ele>580</ele><time>2013-11-17T13:16:28Z</time></trkpt>
<trkpt lat="54.2541730000" lon="-2.2208450000"><ele>580</ele><time>2013-11-17T13:16:30Z</time></trkpt>
<trkpt lat="54.2541940000" lon="-2.2208080000"><ele>580</ele><time>2013-11-17T13:16:32Z</time></trkpt>
<trkpt lat="54.2542110000" lon="-2.2207700000"><ele>580</ele><time>2013-11-17T13:16:34Z</time></trkpt>
<trkpt lat="54.2542260000" lon="-2.2207330000"><ele>580</ele><time>2013-11-17T13:16:36Z</time></trkpt>
<trkpt lat="54.2542390000" lon="-2.2206940000"><ele>580</ele><time>2013-11-17T13:16:38Z</time></trkpt>
<trkpt lat="54.2542510000" lon="-2.2206540000"><ele>580</ele><time>2013-11-17T13:16:40Z</time></trkpt>
<trkpt lat="54.2542660000" lon="-2.2206150000"><ele>580</ele><time>2013-11-17T13:16:42Z</time></trkpt>
<trkpt lat="54.2542830000" lon="-2.2205740000"><ele>580</ele><time>2013-11-17T13:16:44Z</time></trkpt>
<trkpt lat="54.2542980000" lon="-2.2205310000"><ele>580</ele><time>2013-11-17T13:16:46Z</time></trkpt>
<trkpt lat="54.2543130000" lon="-2.2204890000"><ele>580</ele><time>2013-11-17T13:16:48Z</time></trkpt>
<trkpt lat="54.2543250000" lon="-2.2204610000"><ele>580</ele><time>2013-11-17T13:16:49Z</time></trkpt>
<trkpt lat="54.2543300000" lon="-2.2204460000"><ele>580</ele><time>2013-11-17T13:16:50Z</time></trkpt>
<trkpt lat="54.2543360000" lon="-2.2204280000"><ele>580</ele><time>2013-11-17T13:16:51Z</time></trkpt>
<trkpt lat="54.2543420000" lon="-2.2204100000"><ele>580</ele><time>2013-11-17T13:16:52Z</time></trkpt>
<trkpt lat="54.2543500000" lon="-2.2203910000"><ele>580</ele></trkpt>
<trkpt lat="54.2543580000" lon="-2.2203720000"><ele>580</ele><time>2013-11-17T13:16:54Z</time></trkpt>
<trkpt lat="54.2543680000" lon="-2.2203530000"><ele>580</ele><time>2013-11-17T13:16:55Z</time></trkpt>
<trkpt lat="54.2543750000" lon="-2.2203320000"><ele>580</ele><time>2013-11-17T13:16:56Z</time></trkpt>
<trkpt lat="54.2543840000" lon="-2.2203110000"><ele>580</ele><time>2013-11-17T13:16:57Z</time></trkpt>
<trkpt lat="54.2543900000" lon="-2.2202920000"><ele>580</ele><time>2013-11-17T13:16:58Z</time></trkpt>
<trkpt lat="54.2543960000" lon="-2.2202710000"><ele>580</ele><time>2013-11-17T13:16:59Z</time></trkpt>
<trkpt lat="54.2544030000" lon="-2.2202510000"><ele>580</ele><time>2013-11-17T13:17:00Z</time></trkpt>
<trkpt lat="54.2544110000" lon="-2.2202320000"><ele>580</ele><time>2013-11-17T13:17:01Z</time></trkpt>
<trkpt lat="54.2544170000" lon="-2.2202120000"><ele>580</ele><time>2013-11-17T13:17:02Z</time></trkpt>
<trkpt lat="54.2544260000" lon="-2.2201920000"><ele>580</ele><time>2013-11-17T13:17:03Z</time></trkpt>
<trkpt lat="54.2544340000" lon="-2.2201720000"><ele>580</ele><time>2013-11-17T13:17:04Z</time></trkpt>
<trkpt lat="54.2544420000" lon="-2.2201530000"><ele>580</ele><time>2013-11-17T13:17:05Z</time></trkpt>
<trkpt lat="54.2544510000" lon="-2.2201320000"><ele>580</ele><time>2013-11-17T13:17:06Z</time></trkpt>
<trkpt lat="54.2544580000" lon="-2.2201110000"><ele>580</ele><time>2013-11-17T13:17:07Z</time></trkpt>
<trkpt lat="54.2544660000" lon="-2.2200900000"><ele>580</ele><time>2013-11-17T13:17:08Z</time></trkpt>
<trkpt lat="54.2544730000" lon="-2.2200710000"><ele>580</ele><time>2013-11-17T13:17:09Z</time></trkpt>
<trkpt lat="54.2544810000" lon="-2.2200520000"><ele>580</ele><time>2013-11-17T13:17:10Z</time></trkpt>
<trkpt lat="54.2544880000" lon="-2.2200330000"><ele>580</ele><time>2013-11-17T13:17:11Z</time></trkpt>
<trkpt lat="54.2544950000" lon="-2.2200150000"><ele>580</ele><time>2013-11-17T13:17:12Z</time></trkpt>
<trkpt lat="54.2545050000" lon="-2.2199950000"><ele>580</ele><time>2013-11-17T13:17:13Z</time></trkpt>
<trkpt lat="54.2545120000" lon="-2.2199740000"><ele>580</ele><time>2013-11-17T13:17:14Z</time></trkpt>
<trkpt lat="54.2545180000" lon="-2.2199540000"><ele>580</ele><time>2013-11-17T13:17:15Z</time></trkpt>
<trkpt lat="54.2545250000" lon="-2.2199350000"><ele>580</ele><time>2013-11-17T13:17:16Z</time></trkpt>
<trkpt lat="54.2545340000" lon="-2.2199170000"><ele>580</ele><time>2013-11-17T13:17:17Z</time></trkpt>
<trkpt lat="54.2545410000" lon="-2.2198960000"><ele>580</ele><time>2013-11-17T13:17:18Z</time></trkpt>
<trkpt lat="54.2545440000" lon="-2.2198750000"><ele>580</ele><time>2013-11-17T13:17:19Z</time></trkpt>
<trkpt lat="54.2545490000" lon="-2.2198530000"><ele>580</ele><time>2013-11-17T13:17:20Z</time></trkpt>
<trkpt lat="54.2545540000" lon="-2.2198320000"><ele>580</ele><time>2013-11-17T13:17:21Z</time></trkpt>
<trkpt lat="54.2545610000" lon="-2.2198110000"><ele>580</ele><time>2013-11-17T13:17:22Z</time></trkpt>
<trkpt lat="54.2545680000" lon="-2.2197910000"><ele>580</ele><time>2013-11-17T13:17:23Z</time></trkpt>
<trkpt lat="54.2545760000" lon="-2.2197710000"><ele>580</ele></trkpt>
<trkpt lat="54.2545850000" lon="-2.2197510000"><ele>580</ele><time>2013-11-17T13:17:25Z</time></trkpt>
<trkpt lat="54.2545920000" lon="-2.2197300000"><ele>580</ele><time>2013-11-17T13:17:26Z</time></trkpt>
<trkpt lat="54.2546010000" lon="-2.2197100000"><ele>580</ele><time>2013-11-17T13:17:27Z</time></trkpt>
<trkpt lat="54.2546110000" lon="-2.2196900000"><ele>580</ele><time>2013-11-17T13:17:28Z</time></trkpt>
<trkpt lat="54.2546200000" lon="-2.2196690000"><ele>580</ele><time>2013-11-17T13:17:29Z</time></trkpt>
<trkpt lat="54.2546260000" lon="-2.2196490000"><ele>580</ele><time>2013-11-17T13:17:30Z</time></trkpt>
<trkpt lat="54.2546340000" lon="-2.2196290000"><ele>580</ele><time>2013-11-17T13:17:31Z</time></trkpt>
<trkpt lat="54.2546410000" lon="-2.2196110000"><ele>580</ele><time>2013-11-17T13:17:32Z</time></trkpt>
<trkpt lat="54.2546490000" lon="-2.2195910000"><ele>580</ele><time>2013-11-17T13:17:33Z</time></trkpt>
<trkpt lat="54.2546560000" lon="-2.2195720000"><ele>580</ele><time>2013-11-17T13:17:34Z</time></trkpt>
<trkpt lat="54.2546650000" lon="-2.2195530000"><ele>580</ele><time>2013-11-17T13:17:35Z</time></trkpt>
<trkpt lat="54.2546730000" lon="-2.2195350000"><ele>580</ele><time>2013-11-17T13:17:36Z</time></trkpt>
<trkpt lat="54.2546820000" lon="-2.2195160000"><ele>580</ele><time>2013-11-17T13:17:37Z</time></trkpt>
<trkpt lat="54.2546900000" lon="-2.2194980000"><ele>580</ele><time>2013-11-17T13:17:38Z</time></trkpt>
<trkpt lat="54.2546970000" lon="-2.2194790000"><ele>580</ele><time>2013-11-17T13:17:39Z</time></trkpt>
<trkpt lat="54.2547030000" lon="-2.2194610000"><ele>581</ele><time>2013-11-17T13:17:40Z</time></trkpt>
<trkpt lat="54.2547100000" lon="-2.2194420000"><ele>581</ele><time>2013-11-17T13:17:41Z</time></trkpt>
<trkpt lat="54.2547160000" lon="-2.2194240000"><ele>581</ele><time>2013-11-17T13:17:42Z</time></trkpt>
<trkpt lat="54.2547230000" lon="-2.2194060000"><ele>581</ele><time>2013-11-17T13:17:43Z</time></trkpt>
<trkpt lat="54.2547320000" lon="-2.2193880000"><ele>581</ele><time>2013-11-17T13:17:44Z</time></trkpt>
<trkpt lat="54.2547430000" lon="-2.2193700000"><ele>581</ele><time>2013-11-17T13:17:45Z</time></trkpt>
<trkpt lat="54.2547560000" lon="-2.2193530000"><ele>581</ele><time>2013-11-17T13:17:46Z</time></trkpt>
<trkpt lat="54.2547660000" lon="-2.2193360000"><ele>581</ele><time>2013-11-17T13:17:47Z</time></trkpt>
<trkpt lat="54.2547750000" lon="-2.2193190000"><ele>581</ele><time>2013-11-17T13:17:48Z</time></trkpt>
<trkpt lat="54.2547840000" lon="-2.2193020000"><ele>581</ele><time>2013-11-17T13:17:49Z</time></trkpt>
<trkpt lat="54.2547900000" lon="-2.2192830000"><ele>581</ele><time>2013-11-17T13:17:50Z</time></trkpt>
<trkpt lat="54.2547980000" lon="-2.2192630000"><ele>581</ele><time>2013-11-17T13:17:51Z</time></trkpt>
<trkpt lat="54.2548060000" lon="-2.2192460000"><ele>581</ele><time>2013-11-17T13:17:52Z</time></trkpt>
<trkpt lat="54.2548160000" lon="-2.2192280000"><ele>581</ele><time>2013-11-17T13:17:53Z</time></trkpt>
<trkpt lat="54.2548270000" lon="-2.2192110000"><ele>581</ele><time>2013-11-17T13:17:54Z</time></trkpt>
<trkpt lat="54.2548370000" lon="-2.2191930000"><ele>581</ele></trkpt>
<trkpt lat="54.2548460000" lon="-2.2191760000"><ele>581</ele><time>2013-11-17T13:17:56Z</time></trkpt>
<trkpt lat="54.2548550000" lon="-2.2191590000"><ele>581</ele><time>2013-11-17T13:17:57Z</time></trkpt>
<trkpt lat="54.2548630000" lon="-2.2191420000"><ele>581</ele><time>2013-11-17T13:17:58Z</time></trkpt>
<trkpt lat="54.2548720000" lon="-2.2191260000"><ele>581</ele><time>2013-11-17T13:17:59Z</time></trkpt>
<trkpt lat="54.2548800000" lon="-2.2191100000"><ele>581</ele><time>2013-11-17T13:18:00Z</time></trkpt>
<trkpt lat="54.2548870000" lon="-2.2190940000"><ele>581</ele><time>2013-11-17T13:18:01Z</time></trkpt>
<trkpt lat="54.2548960000" lon="-2.2190780000"><ele>581</ele><time>2013-11-17T13:18:02Z</time></trkpt>
<trkpt lat="54.2549040000" lon="-2.2190620000"><ele>581</ele><time>2013-11-17T13:18:03Z</time></trkpt>
<trkpt lat="54.2549130000" lon="-2.2190460000"><ele>581</ele><time>2013-11-17T13:18:04Z</time></trkpt>
<trkpt lat="54.2549210000" lon="-2.2190290000"><ele>581</ele><time>2013-11-17T13:18:05Z</time></trkpt>
<trkpt lat="54.2549280000" lon="-2.2190140000"><ele>581</ele><time>2013-11-17T13:18:06Z</time></trkpt>
<trkpt lat="54.2549360000" lon="-2.2189980000"><ele>581</ele><time>2013-11-17T13:18:07Z</time></trkpt>
<trkpt lat="54.2549420000" lon="-2.2189810000"><ele>581</ele><time>2013-11-17T13:18:08Z</time></trkpt>
<trkpt lat="54.2549480000" lon="-2.2189640000"><ele>581</ele><time>2013-11-17T13:18:09Z</time></trkpt>
<trkpt lat="54.2549560000" lon="-2.2189470000"><ele>581</ele><time>2013-11-17T13:18:10Z</time></trkpt>
<trkpt lat="54.2549630000" lon="-2.2189330000"><ele>581</ele><time>2013-11-17T13:18:11Z</time></trkpt>
<trkpt lat="54.2549710000" lon="-2.2189190000"><ele>581</ele><time>2013-11-17T13:18:12Z</time></trkpt>
<trkpt lat="54.2549780000" lon="-2.2189040000"><ele>581</ele><time>2013-11-17T13:18:13Z</time></trkpt>
<trkpt lat="54.2549860000" lon="-2.2188890000"><ele>581</ele><time>2013-11-17T13:18:14Z</time></trkpt>
<trkpt lat="54.2549940000" lon="-2.2188720000"><ele>581</ele><time>2013-11-17T13:18:15Z</time></trkpt>
<trkpt lat="54.2550010000" lon="-2.2188530000"><ele>581</ele><time>2013-11-17T13:18:16Z</time></trkpt>
<trkpt lat="54.2550090000" lon="-2.2188350000"><ele>581</ele><time>2013-11-17T13:18:17Z</time></trkpt>
<trkpt lat="54.2550160000" lon="-2.2188180000"><ele>581</ele><time>2013-11-17T13:18:18Z</time></trkpt>
<trkpt lat="54.2550240000" lon="-2.2188030000"><ele>581</ele><time>2013-11-17T13:18:19Z</time></trkpt>
<trkpt lat="54.2550300000" lon="-2.2187860000"><ele>581</ele><time>2013-11-17T13:18:20Z</time></trkpt>
<trkpt lat="54.2550480000" lon="-2.2187450000"><ele>581</ele><time>2013-11-17T13:18:23Z</time></trkpt>
<trkpt lat="54.2550670000" lon="-2.2187070000"><ele>581</ele><time>2013-11-17T13:18:25Z</time></trkpt>
<trkpt lat="54.2550870000" lon="-2.2186530000"><ele>569</ele><time>2013-11-17T13:18:28Z</time></trkpt>
<trkpt lat="54.2551070000" lon="-2.2185970000"><ele>569</ele><time>2013-11-17T13:18:31Z</time></trkpt>
<trkpt lat="54.2551280000" lon="-2.2185600000"><ele>569</ele><time>2013-11-17T13:18:33Z</time></trkpt>
<trkpt lat="54.2551500000" lon="-2.2185280000"><ele>569</ele><time>2013-11-17T13:18:35Z</time></trkpt>
<trkpt lat="54.2551730000" lon="-2.2184930000"><ele>569</ele><time>2013-11-17T13:18:37Z</time></trkpt>
<trkpt lat="54.2551940000" lon="-2.2184580000"><ele>569</ele><time>2013-11-17T13:18:39Z</time></trkpt>
<trkpt lat="54.2552140000" lon="-2.2184260000"><ele>569</ele><time>2013-11-17T13:18:41Z</time></trkpt>
<trkpt lat="54.2552340000" lon="-2.2183960000"><ele>569</ele><time>2013-11-17T13:18:43Z</time></trkpt>
<trkpt lat="54.2552560000" lon="-2.2183420000"><ele>569</ele><time>2013-11-17T13:18:46Z</time></trkpt>
<trkpt lat="54.2552830000" lon="-2.2183060000"><ele>569</ele><time>2013-11-17T13:18:48Z</time></trkpt>
<trkpt lat="54.2553120000" lon="-2.2182740000"><ele>569</ele><time>2013-11-17T13:18:50Z</time></trkpt>
<trkpt lat="54.2553350000" lon="-2.2182440000"><ele>569</ele><time>2013-11-17T13:18:52Z</time></trkpt>
<trkpt lat="54.2553620000" lon="-2.2181900000"><ele>569</ele><time>2013-11-17T13:18:55Z</time></trkpt>
<trkpt lat="54.2553890000" lon="-2.2181390000"><ele>569</ele><time>2013-11-17T13:18:58Z</time></trkpt>
<trkpt lat="54.2554110000" lon="-2.2180860000"><ele>569</ele><time>2013-11-17T13:19:01Z</time></trkpt>
<trkpt lat="54.2554450000" lon="-2.2180470000"><ele>569</ele><time>2013-11-17T13:19:03Z</time></trkpt>
<trkpt lat="54.2554700000" lon="-2.2180010000"><ele>569</ele><time>2013-11-17T13:19:07Z</time></trkpt>
<trkpt lat="54.2554920000" lon="-2.2179470000"><ele>569</ele><time>2013-11-17T13:19:10Z</time></trkpt>
<trkpt lat="54.2555080000" lon="-2.2178960000"><ele>569</ele><time>2013-11-17T13:19:13Z</time></trkpt>
<trkpt lat="54.2555340000" lon="-2.2178380000"><ele>569</ele><time>2013-11-17T13:19:16Z</time></trkpt>
<trkpt lat="54.2555630000" lon="-2.2177820000"><ele>569</ele><time>2013-11-17T13:19:19Z</time></trkpt>
<trkpt lat="54.2555830000" lon="-2.2177340000"><ele>569</ele><time>2013-11-17T13:19:22Z</time></trkpt>
<trkpt lat="54.2556060000" lon="-2.2176800000"><ele>569</ele><time>2013-11-17T13:19:25Z</time></trkpt>
<trkpt lat="54.2556300000" lon="-2.2176300000"><ele>569</ele><time>2013-11-17T13:19:28Z</time></trkpt>
<trkpt lat="54.2556560000" lon="-2.2175970000"><ele>569</ele><time>2013-11-17T13:19:30Z</time></trkpt>
<trkpt lat="54.2556790000" lon="-2.2175600000"><ele>569</ele><time>2013-11-17T13:19:32Z</time></trkpt>
<trkpt lat="54.2557000000" lon="-2.2175210000"><ele>569</ele><time>2013-11-17T13:19:34Z</time></trkpt>
<trkpt lat="54.2557170000" lon="-2.2174860000"><ele>569</ele><time>2013-11-17T13:19:36Z</time></trkpt>
<trkpt lat="54.2557430000" lon="-2.2174380000"><ele>569</ele><time>2013-11-17T13:19:39Z</time></trkpt>
<trkpt lat="54.2557650000" lon="-2.2174040000"><ele>569</ele><time>2013-11-17T13:19:41Z</time></trkpt>
<trkpt lat="54.2557900000" lon="-2.2173700000"><ele>569</ele><time>2013-11-17T13:19:43Z</time></trkpt>
<trkpt lat="54.2558110000" lon="-2.2173320000"><ele>569</ele><time>2013-11-17T13:19:45Z</time></trkpt>
<trkpt lat="54.2558320000" lon="-2.2172960000"><ele>569</ele><time>2013-11-17T13:19:47Z</time></trkpt>
<trkpt lat="54.2558480000" lon="-2.2172520000"><ele>569</ele><time>2013-11-17T13:19:49Z</time></trkpt>
<trkpt lat="54.2558690000" lon="-2.2172130000"><ele>569</ele><time>2013-11-17T13:19:51Z</time></trkpt>
<trkpt lat="54.2558920000" lon="-2.2171760000"><ele>569</ele><time>2013-11-17T13:19:53Z</time></trkpt>
<trkpt lat="54.2559110000" lon="-2.2171360000"><ele>569</ele><time>2013-11-17T13:19:55Z</time></trkpt>
<trkpt lat="54.2559330000" lon="-2.2170940000"><ele>569</ele><time>2013-11-17T13:19:57Z</time></trkpt>
<trkpt lat="54.2559570000" lon="-2.2170540000"><ele>569</ele><time>2013-11-17T13:19:59Z</time></trkpt>
<trkpt lat="54.2559760000" lon="-2.2170150000"><ele>569</ele><time>2013-11-17T13:20:01Z</time></trkpt>
<trkpt lat="54.2559940000" lon="-2.2169610000"><ele>569</ele><time>2013-11-17T13:20:04Z</time></trkpt>
<trkpt lat="54.2560180000" lon="-2.2169140000"><ele>569</ele><time>2013-11-17T13:20:07Z</time></trkpt>
<trkpt lat="54.2560450000" lon="-2.2168680000"><ele>569</ele><time>2013-11-17T13:20:10Z</time></trkpt>
<trkpt lat="54.2560650000" lon="-2.2168300000"><ele>569</ele><time>2013-11-17T13:20:12Z</time></trkpt>
<trkpt lat="54.2560880000" lon="-2.2167940000"><ele>569</ele><time>2013-11-17T13:20:14Z</time></trkpt>
<trkpt lat="54.2561100000" lon="-2.2167630000"><ele>569</ele><time>2013-11-17T13:20:16Z</time></trkpt>
<trkpt lat="54.2561360000" lon="-2.2167180000"><ele>569</ele><time>2013-11-17T13:20:18Z</time></trkpt>
<trkpt lat="54.2561660000" lon="-2.2166700000"><ele>569</ele><time>2013-11-17T13:20:22Z</time></trkpt>
<trkpt lat="54.2561970000" lon="-2.2166210000"><ele>569</ele><time>2013-11-17T13:20:25Z</time></trkpt>
<trkpt lat="54.2562340000" lon="-2.2165760000"><ele>569</ele><time>2013-11-17T13:20:28Z</time></trkpt>
<trkpt lat="54.2562600000" lon="-2.2165530000"><ele>569</ele><time>2013-11-17T13:20:30Z</time></trkpt>
<trkpt lat="54.2562870000" lon="-2.2165250000"><ele>569</ele><time>2013-11-17T13:20:32Z</time></trkpt>
<trkpt lat="54.2563140000" lon="-2.2164900000"><ele>569</ele><time>2013-11-17T13:20:34Z</time></trkpt>
<trkpt lat="54.2563360000" lon="-2.2164570000"><ele>569</ele><time>2013-11-17T13:20:36Z</time></trkpt>
<trkpt lat="54.2563650000" lon="-2.2164260000"><ele>569</ele><time>2013-11-17T13:20:39Z</time></trkpt>
<trkpt lat="54.2563880000" lon="-2.2163970000"><ele>576</ele><time>2013-11-17T13:20:41Z</time></trkpt>
<trkpt lat="54.2564050000" lon="-2.2163510000"><ele>576</ele><time>2013-11-17T13:20:44Z</time></trkpt>
<trkpt lat="54.2564350000" lon="-2.2163120000"><ele>576</ele><time>2013-11-17T13:20:47Z</time></trkpt>
<trkpt lat="54.2564640000" lon="-2.2162790000"><ele>576</ele><time>2013-11-17T13:20:49Z</time></trkpt>
<trkpt lat="54.2564920000" lon="-2.2162370000"><ele>576</ele><time>2013-11-17T13:20:51Z</time></trkpt>
<trkpt lat="54.2565220000" lon="-2.2161870000"><ele>576</ele><time>2013-11-17T13:20:54Z</time></trkpt>
<trkpt lat="54.2565580000" lon="-2.2161390000"><ele>576</ele><time>2013-11-17T13:20:57Z</time></trkpt>
<trkpt lat="54.2565910000" lon="-2.2160870000"><ele>576</ele><time>2013-11-17T13:21:00Z</time></trkpt>
<trkpt lat="54.2566240000" lon="-2.2160370000"><ele>576</ele><time>2013-11-17T13:21:02Z</time></trkpt>
<trkpt lat="54.2566540000" lon="-2.2159980000"><ele>576</ele><time>2013-11-17T13:21:06Z</time></trkpt>
<trkpt lat="54.2566740000" lon="-2.2159690000"><ele>576</ele><time>2013-11-17T13:21:08Z</time></trkpt>
<trkpt lat="54.2566980000" lon="-2.2159450000"><ele>576</ele><time>2013-11-17T13:21:10Z</time></trkpt>
<trkpt lat="54.2567200000" lon="-2.2159260000"><ele>576</ele><time>2013-11-17T13:21:12Z</time></trkpt>
<trkpt lat="54.2567470000" lon="-2.2159080000"><ele>576</ele><time>2013-11-17T13:21:14Z</time></trkpt>
<trkpt lat="54.2567720000" lon="-2.2158910000"><ele>576</ele><time>2013-11-17T13:21:16Z</time></trkpt>
<trkpt lat="54.2567980000" lon="-2.2158760000"><ele>576</ele><time>2013-11-17T13:21:18Z</time></trkpt>
<trkpt lat="54.2568290000" lon="-2.2158690000"><ele>576</ele><time>2013-11-17T13:21:20Z</time></trkpt>
<trkpt lat="54.2568570000" lon="-2.2158630000"><ele>576</ele><time>2013-11-17T13:21:22Z</time></trkpt>
<trkpt lat="54.2568830000" lon="-2.2158570000"><ele>566</ele><time>2013-11-17T13:21:24Z</time></trkpt>
<trkpt lat="54.2569060000" lon="-2.2158530000"><ele>566</ele><time>2013-11-17T13:21:26Z</time></trkpt>
<trkpt lat="54.2569560000" lon="-2.2158330000"><ele>566</ele><time>2013-11-17T13:21:43Z</time></trkpt>
<trkpt lat="54.2569560000" lon="-2.2158320000"><ele>566</ele><time>2013-11-17T13:21:44Z</time></trkpt>
<trkpt lat="54.2569580000" lon="-2.2158310000"><ele>566</ele><time>2013-11-17T13:21:45Z</time></trkpt>
<trkpt lat="54.2569600000" lon="-2.2158290000"><ele>566</ele><time>2013-11-17T13:21:46Z</time></trkpt>
<trkpt lat="54.2569620000" lon="-2.2158290000"><ele>566</ele><time>2013-11-17T13:21:47Z</time></trkpt>
<trkpt lat="54.2569640000" lon="-2.2158310000"><ele>566</ele><time>2013-11-17T13:21:48Z</time></trkpt>
<trkpt lat="54.2569660000" lon="-2.2158300000"><ele>566</ele><time>2013-11-17T13:21:49Z</time></trkpt>
<trkpt lat="54.2569690000" lon="-2.2158270000"><ele>566</ele><time>2013-11-17T13:21:50Z</time></trkpt>
<trkpt lat="54.2569900000" lon="-2.2158290000"><ele>566</ele><time>2013-11-17T13:21:54Z</time></trkpt>
<trkpt lat="54.2570080000" lon="-2.2158220000"><ele>566</ele><time>2013-11-17T13:21:56Z</time></trkpt>
<trkpt lat="54.2570310000" lon="-2.2158110000"><ele>566</ele><time>2013-11-17T13:21:58Z</time></trkpt>
<trkpt lat="54.2570530000" lon="-2.2157990000"><ele>566</ele><time>2013-11-17T13:22:00Z</time></trkpt>
<trkpt lat="54.2570790000" lon="-2.2157880000"><ele>566</ele><time>2013-11-17T13:22:02Z</time></trkpt>
<trkpt lat="54.2571010000" lon="-2.2157750000"><ele>566</ele><time>2013-11-17T13:22:04Z</time></trkpt>
<trkpt lat="54.2571210000" lon="-2.2157590000"><ele>566</ele><time>2013-11-17T13:22:06Z</time></trkpt>
<trkpt lat="54.2571470000" lon="-2.2157460000"><ele>566</ele><time>2013-11-17T13:22:08Z</time></trkpt>
<trkpt lat="54.2571720000" lon="-2.2157330000"><ele>566</ele><time>2013-11-17T13:22:10Z</time></trkpt>
<trkpt lat="54.2571980000" lon="-2.2157200000"><ele>566</ele><time>2013-11-17T13:22:12Z</time></trkpt>
<trkpt lat="54.2572210000" lon="-2.2157120000"><ele>566</ele><time>2013-11-17T13:22:14Z</time></trkpt>
<trkpt lat="54.2572530000" lon="-2.2156970000"><ele>566</ele><time>2013-11-17T13:22:17Z</time></trkpt>
<trkpt lat="54.2572810000" lon="-2.2156820000"><ele>566</ele><time>2013-11-17T13:22:19Z</time></trkpt>
<trkpt lat="54.2573070000" lon="-2.2156690000"><ele>566</ele><time>2013-11-17T13:22:21Z</time></trkpt>
<trkpt lat="54.2573410000" lon="-2.2156470000"><ele>566</ele><time>2013-11-17T13:22:23Z</time></trkpt>
<trkpt lat="54.2573670000" lon="-2.2156340000"><ele>566</ele><time>2013-11-17T13:22:26Z</time></trkpt>
<trkpt lat="54.2573960000" lon="-2.2156270000"><ele>566</ele><time>2013-11-17T13:22:28Z</time></trkpt>
<trkpt lat="54.2574330000" lon="-2.2156400000"><ele>566</ele><time>2013-11-17T13:22:31Z</time></trkpt>
<trkpt lat="54.2574730000" lon="-2.2156350000"><ele>566</ele><time>2013-11-17T13:22:35Z</time></trkpt>
<trkpt lat="54.2575120000" lon="-2.2156260000"><ele>566</ele><time>2013-11-17T13:22:38Z</time></trkpt>
<trkpt lat="54.2575510000" lon="-2.2156150000"><ele>566</ele><time>2013-11-17T13:22:41Z</time></trkpt>
<trkpt lat="54.2575840000" lon="-2.2156060000"><ele>566</ele><time>2013-11-17T13:22:44Z</time></trkpt>
<trkpt lat="54.2576210000" lon="-2.2155910000"><ele>566</ele><time>2013-11-17T13:22:47Z</time></trkpt>
<trkpt lat="54.2576500000" lon="-2.2155810000"><ele>566</ele><time>2013-11-17T13:22:49Z</time></trkpt>
<trkpt lat="54.2576810000" lon="-2.2155730000"><ele>566</ele><time>2013-11-17T13:22:51Z</time></trkpt>
<trkpt lat="54.2577110000" lon="-2.2155660000"><ele>566</ele><time>2013-11-17T13:22:53Z</time></trkpt>
<trkpt lat="54.2577420000" lon="-2.2155580000"><ele>566</ele><time>2013-11-17T13:22:55Z</time></trkpt>
<trkpt lat="54.2577710000" lon="-2.2155480000"><ele>566</ele><time>2013-11-17T13:22:57Z</time></trkpt>
<trkpt lat="54.2578020000" lon="-2.2155220000"><ele>566</ele><time>2013-11-17T13:23:00Z</time></trkpt>
<trkpt lat="54.2578280000" lon="-2.2155100000"><ele>566</ele><time>2013-11-17T13:23:02Z</time></trkpt>
<trkpt lat="54.2578530000" lon="-2.2154970000"><ele>566</ele><time>2013-11-17T13:23:04Z</time></trkpt>
<trkpt lat="54.2578770000" lon="-2.2154820000"><ele>566</ele><time>2013-11-17T13:23:06Z</time></trkpt>
<trkpt lat="54.2579040000" lon="-2.2154680000"><ele>566</ele><time>2013-11-17T13:23:07Z</time></trkpt>
<trkpt lat="54.2579340000" lon="-2.2154540000"><ele>566</ele><time>2013-11-17T13:23:10Z</time></trkpt>
<trkpt lat="54.2579690000" lon="-2.2154410000"><ele>566</ele><time>2013-11-17T13:23:13Z</time></trkpt>
<trkpt lat="54.2580080000" lon="-2.2154280000"><ele>566</ele><time>2013-11-17T13:23:16Z</time></trkpt>
<trkpt lat="54.2580530000" lon="-2.2154050000"><ele>566</ele><time>2013-11-17T13:23:19Z</time></trkpt>
<trkpt lat="54.2580920000" lon="-2.2153810000"><ele>566</ele><time>2013-11-17T13:23:22Z</time></trkpt>
<trkpt lat="54.2581230000" lon="-2.2153680000"><ele>566</ele><time>2013-11-17T13:23:24Z</time></trkpt>
<trkpt lat="54.2581660000" lon="-2.2153470000"><ele>566</ele><time>2013-11-17T13:23:27Z</time></trkpt>
<trkpt lat="54.2581960000" lon="-2.2153330000"><ele>566</ele><time>2013-11-17T13:23:29Z</time></trkpt>
<trkpt lat="54.2582280000" lon="-2.2153120000"><ele>566</ele><time>2013-11-17T13:23:32Z</time></trkpt>
<trkpt lat="54.2582590000" lon="-2.2152930000"><ele>566</ele><time>2013-11-17T13:23:35Z</time></trkpt>
<trkpt lat="54.2582750000" lon="-2.2153660000"><ele>566</ele><time>2013-11-17T13:24:02Z</time></trkpt>
<trkpt lat="54.2583060000" lon="-2.2153370000"><ele>566</ele><time>2013-11-17T13:24:06Z</time></trkpt>
<trkpt lat="54.2583320000" lon="-2.2153090000"><ele>566</ele><time>2013-11-17T13:24:09Z</time></trkpt>
<trkpt lat="54.2583730000" lon="-2.2152820000"><ele>566</ele><time>2013-11-17T13:24:12Z</time></trkpt>
<trkpt lat="54.2584050000" lon="-2.2152680000"><ele>566</ele><time>2013-11-17T13:24:14Z</time></trkpt>
<trkpt lat="54.2584340000" lon="-2.2152540000"><ele>566</ele><time>2013-11-17T13:24:16Z</time></trkpt>
<trkpt lat="54.2584630000" lon="-2.2152360000"><ele>566</ele><time>2013-11-17T13:24:18Z</time></trkpt>
<trkpt lat="54.2584890000" lon="-2.2152190000"><ele>566</ele><time>2013-11-17T13:24:20Z</time></trkpt>
<trkpt lat="54.2585160000" lon="-2.2152030000"><ele>566</ele><time>2013-11-17T13:24:22Z</time></trkpt>
<trkpt lat="54.2585470000" lon="-2.2151890000"><ele>566</ele><time>2013-11-17T13:24:24Z</time></trkpt>
<trkpt lat="54.2585770000" lon="-2.2151800000"><ele>566</ele><time>2013-11-17T13:24:26Z</time></trkpt>
<trkpt lat="54.2586080000" lon="-2.2151720000"><ele>566</ele><time>2013-11-17T13:24:28Z</time></trkpt>
<trkpt lat="54.2586340000" lon="-2.2151590000"><ele>566</ele><time>2013-11-17T13:24:30Z</time></trkpt>
<trkpt lat="54.2586710000" lon="-2.2151430000"><ele>566</ele><time>2013-11-17T13:24:33Z</time></trkpt>
<trkpt lat="54.2587030000" lon="-2.2151320000"><ele>554</ele><time>2013-11-17T13:24:36Z</time></trkpt>
<trkpt lat="54.2587530000" lon="-2.2151080000"><ele>554</ele><time>2013-11-17T13:24:40Z</time></trkpt>
<trkpt lat="54.2587860000" lon="-2.2151030000"><ele>554</ele><time>2013-11-17T13:24:42Z</time></trkpt>
<trkpt lat="54.2588330000" lon="-2.2150980000"><ele>554</ele><time>2013-11-17T13:24:45Z</time></trkpt>
<trkpt lat="54.2588640000" lon="-2.2150900000"><ele>554</ele><time>2013-11-17T13:24:47Z</time></trkpt>
<trkpt lat="54.2588970000" lon="-2.2150730000"><ele>554</ele><time>2013-11-17T13:24:49Z</time></trkpt>
<trkpt lat="54.2589250000" lon="-2.2150570000"><ele>554</ele><time>2013-11-17T13:24:51Z</time></trkpt>
<trkpt lat="54.2589500000" lon="-2.2150440000"><ele>554</ele><time>2013-11-17T13:24:53Z</time></trkpt>
<trkpt lat="54.2589740000" lon="-2.2150300000"><ele>554</ele><time>2013-11-17T13:24:55Z</time></trkpt>
<trkpt lat="54.2589990000" lon="-2.2150180000"><ele>554</ele><time>2013-11-17T13:24:57Z</time></trkpt>
<trkpt lat="54.2590240000" lon="-2.2150090000"><ele>554</ele><time>2013-11-17T13:24:59Z</time></trkpt>
<trkpt lat="54.2590520000" lon="-2.2150000000"><ele>554</ele><time>2013-11-17T13:25:01Z</time></trkpt>
<trkpt lat="54.2590780000" lon="-2.2149930000"><ele>554</ele><time>2013-11-17T13:25:03Z</time></trkpt>
<trkpt lat="54.2591060000" lon="-2.2149900000"><ele>554</ele><time>2013-11-17T13:25:05Z</time></trkpt>
<trkpt lat="54.2591360000" lon="-2.2149880000"><ele>554</ele><time>2013-11-17T13:25:07Z</time></trkpt>
<trkpt lat="54.2591630000" lon="-2.2149860000"><ele>554</ele><time>2013-11-17T13:25:09Z</time></trkpt>
<trkpt lat="54.2591950000" lon="-2.2150020000"><ele>554</ele><time>2013-11-17T13:25:17Z</time></trkpt>
<trkpt lat="54.2592190000" lon="-2.2149910000"><ele>554</ele><time>2013-11-17T13:25:20Z</time></trkpt>
<trkpt lat="54.2592400000" lon="-2.2149830000"><ele>554</ele><time>2013-11-17T13:25:22Z</time></trkpt>
<trkpt lat="54.2592630000" lon="-2.2149770000"><ele>554</ele><time>2013-11-17T13:25:24Z</time></trkpt>
<trkpt lat="54.2592920000" lon="-2.2149770000"><ele>554</ele><time>2013-11-17T13:25:26Z</time></trkpt>
<trkpt lat="54.2593020000" lon="-2.2149780000"><ele>554</ele><time>2013-11-17T13:25:27Z</time></trkpt>
<trkpt lat="54.2593130000" lon="-2.2149780000"><ele>554</ele><time>2013-11-17T13:25:28Z</time></trkpt>
<trkpt lat="54.2593250000" lon="-2.2149780000"><ele>554</ele><time>2013-11-17T13:25:29Z</time></trkpt>
<trkpt lat="54.2593360000" lon="-2.2149770000"><ele>554</ele><time>2013-11-17T13:25:30Z</time></trkpt>
<trkpt lat="54.2593480000" lon="-2.2149750000"><ele>554</ele><time>2013-11-17T13:25:31Z</time></trkpt>
<trkpt lat="54.2593600000" lon="-2.2149730000"><ele>554</ele><time>2013-11-17T13:25:32Z</time></trkpt>
<trkpt lat="54.2593720000" lon="-2.2149710000"><ele>554</ele><time>2013-11-17T13:25:33Z</time></trkpt>
<trkpt lat="54.2593850000" lon="-2.2149690000"><ele>554</ele><time>2013-11-17T13:25:34Z</time></trkpt>
<trkpt lat="54.2593970000" lon="-2.2149690000"><ele>554</ele><time>2013-11-17T13:25:35Z</time></trkpt>
<trkpt lat="54.2594090000" lon="-2.2149680000"><ele>554</ele><time>2013-11-17T13:25:36Z</time></trkpt>
<trkpt lat="54.2594200000" lon="-2.2149680000"><ele>554</ele><time>2013-11-17T13:25:37Z</time></trkpt>
<trkpt lat="54.2594320000" lon="-2.2149680000"><ele>554</ele><time>2013-11-17T13:25:38Z</time></trkpt>
<trkpt lat="54.2594420000" lon="-2.2149660000"><ele>554</ele><time>2013-11-17T13:25:39Z</time></trkpt>
<trkpt lat="54.2594540000" lon="-2.2149650000"><ele>554</ele><time>2013-11-17T13:25:40Z</time></trkpt>
<trkpt lat="54.2594680000" lon="-2.2149650000"><ele>554</ele><time>2013-11-17T13:25:41Z</time></trkpt>
<trkpt lat="54.2594820000" lon="-2.2149660000"><ele>554</ele><time>2013-11-17T13:25:42Z</time></trkpt>
<trkpt lat="54.2594960000" lon="-2.2149680000"><ele>554</ele><time>2013-11-17T13:25:43Z</time></trkpt>
<trkpt lat="54.2595100000" lon="-2.2149700000"><ele>554</ele></trkpt>
<trkpt lat="54.2595230000" lon="-2.2149730000"><ele>554</ele><time>2013-11-17T13:25:45Z</time></trkpt>
<trkpt lat="54.2595370000" lon="-2.2149750000"><ele>554</ele><time>2013-11-17T13:25:46Z</time></trkpt>
<trkpt lat="54.2595490000" lon="-2.2149770000"><ele>554</ele><time>2013-11-17T13:25:47Z</time></trkpt>
<trkpt lat="54.2595630000" lon="-2.2149750000"><ele>554</ele><time>2013-11-17T13:25:48Z</time></trkpt>
<trkpt lat="54.2595760000" lon="-2.2149730000"><ele>554</ele><time>2013-11-17T13:25:49Z</time></trkpt>
<trkpt lat="54.2595890000" lon="-2.2149720000"><ele>554</ele></trkpt>
<trkpt lat="54.2596020000" lon="-2.2149720000"><ele>554</ele><time>2013-11-17T13:25:51Z</time></trkpt>
<trkpt lat="54.2596140000" lon="-2.2149700000"><ele>554</ele><time>2013-11-17T13:25:52Z</time></trkpt>
<trkpt lat="54.2596270000" lon="-2.2149680000"><ele>554</ele><time>2013-11-17T13:25:53Z</time></trkpt>
<trkpt lat="54.2596400000" lon="-2.2149700000"><ele>554</ele><time>2013-11-17T13:25:54Z</time></trkpt>
<trkpt lat="54.2596510000" lon="-2.2149720000"><ele>554</ele><time>2013-11-17T13:25:55Z</time></trkpt>
<trkpt lat="54.2596640000" lon="-2.2149730000"><ele>554</ele></trkpt>
<trkpt lat="54.2596760000" lon="-2.2149750000"><ele>554</ele><time>2013-11-17T13:25:57Z</time></trkpt>
<trkpt lat="54.2596890000" lon="-2.2149770000"><ele>554</ele><time>2013-11-17T13:25:58Z</time></trkpt>
<trkpt lat="54.2597010000" lon="-2.2149760000"><ele>554</ele><time>2013-11-17T13:25:59Z</time></trkpt>
<trkpt lat="54.2597140000" lon="-2.2149750000"><ele>554</ele><time>2013-11-17T13:26:00Z</time></trkpt>
<trkpt lat="54.2597320000" lon="-2.2149770000"><ele>554</ele><time>2013-11-17T13:26:02Z</time></trkpt>
<trkpt lat="54.2597570000" lon="-2.2149790000"><ele>554</ele><time>2013-11-17T13:26:04Z</time></trkpt>
<trkpt lat="54.2598010000" lon="-2.2149770000"><ele>554</ele><time>2013-11-17T13:26:08Z</time></trkpt>
<trkpt lat="54.2598320000" lon="-2.2149740000"><ele>554</ele><time>2013-11-17T13:26:10Z</time></trkpt>
<trkpt lat="54.2598720000" lon="-2.2149740000"><ele>554</ele><time>2013-11-17T13:26:13Z</time></trkpt>
<trkpt lat="54.2599050000" lon="-2.2149750000"><ele>554</ele><time>2013-11-17T13:26:16Z</time></trkpt>
<trkpt lat="54.2599290000" lon="-2.2149720000"><ele>554</ele><time>2013-11-17T13:26:18Z</time></trkpt>
<trkpt lat="54.2599530000" lon="-2.2149630000"><ele>554</ele><time>2013-11-17T13:26:20Z</time></trkpt>
<trkpt lat="54.2599780000" lon="-2.2149530000"><ele>554</ele><time>2013-11-17T13:26:22Z</time></trkpt>
<trkpt lat="54.2600030000" lon="-2.2149560000"><ele>554</ele><time>2013-11-17T13:26:24Z</time></trkpt>
<trkpt lat="54.2600260000" lon="-2.2149570000"><ele>554</ele><time>2013-11-17T13:26:26Z</time></trkpt>
<trkpt lat="54.2600550000" lon="-2.2149560000"><ele>554</ele><time>2013-11-17T13:26:28Z</time></trkpt>
<trkpt lat="54.2600780000" lon="-2.2149580000"><ele>554</ele><time>2013-11-17T13:26:30Z</time></trkpt>
<trkpt lat="54.2601080000" lon="-2.2149510000"><ele>554</ele><time>2013-11-17T13:26:32Z</time></trkpt>
<trkpt lat="54.2601360000" lon="-2.2149490000"><ele>554</ele><time>2013-11-17T13:26:34Z</time></trkpt>
<trkpt lat="54.2601610000" lon="-2.2149480000"><ele>554</ele><time>2013-11-17T13:26:36Z</time></trkpt>
<trkpt lat="54.2601870000" lon="-2.2149430000"><ele>554</ele><time>2013-11-17T13:26:38Z</time></trkpt>
<trkpt lat="54.2602150000" lon="-2.2149410000"><ele>554</ele><time>2013-11-17T13:26:40Z</time></trkpt>
<trkpt lat="54.2602410000" lon="-2.2149390000"><ele>554</ele><time>2013-11-17T13:26:42Z</time></trkpt>
<trkpt lat="54.2602680000" lon="-2.2149320000"><ele>554</ele><time>2013-11-17T13:26:44Z</time></trkpt>
<trkpt lat="54.2602930000" lon="-2.2149220000"><ele>554</ele><time>2013-11-17T13:26:46Z</time></trkpt>
<trkpt lat="54.2603180000" lon="-2.2149150000"><ele>554</ele><time>2013-11-17T13:26:48Z</time></trkpt>
<trkpt lat="54.2603440000" lon="-2.2149080000"><ele>554</ele><time>2013-11-17T13:26:50Z</time></trkpt>
<trkpt lat="54.2603700000" lon="-2.2149000000"><ele>554</ele><time>2013-11-17T13:26:51Z</time></trkpt>
<trkpt lat="54.2603950000" lon="-2.2148910000"><ele>554</ele><time>2013-11-17T13:26:54Z</time></trkpt>
<trkpt lat="54.2604190000" lon="-2.2148780000"><ele>554</ele><time>2013-11-17T13:26:56Z</time></trkpt>
<trkpt lat="54.2604460000" lon="-2.2148680000"><ele>554</ele><time>2013-11-17T13:26:57Z</time></trkpt>
<trkpt lat="54.2604750000" lon="-2.2148560000"><ele>529</ele><time>2013-11-17T13:27:00Z</time></trkpt>
<trkpt lat="54.2605020000" lon="-2.2148400000"><ele>529</ele><time>2013-11-17T13:27:02Z</time></trkpt>
<trkpt lat="54.2605260000" lon="-2.2148250000"><ele>529</ele><time>2013-11-17T13:27:04Z</time></trkpt>
<trkpt lat="54.2605550000" lon="-2.2148140000"><ele>529</ele><time>2013-11-17T13:27:06Z</time></trkpt>
<trkpt lat="54.2605830000" lon="-2.2148030000"><ele>529</ele><time>2013-11-17T13:27:08Z</time></trkpt>
<trkpt lat="54.2606100000" lon="-2.2147940000"><ele>529</ele><time>2013-11-17T13:27:10Z</time></trkpt>
<trkpt lat="54.2606380000" lon="-2.2147830000"><ele>529</ele><time>2013-11-17T13:27:12Z</time></trkpt>
<trkpt lat="54.2606640000" lon="-2.2147690000"><ele>529</ele><time>2013-11-17T13:27:14Z</time></trkpt>
<trkpt lat="54.2606900000" lon="-2.2147540000"><ele>529</ele><time>2013-11-17T13:27:16Z</time></trkpt>
<trkpt lat="54.2607180000" lon="-2.2147430000"><ele>529</ele><time>2013-11-17T13:27:18Z</time></trkpt>
<trkpt lat="54.2607450000" lon="-2.2147320000"><ele>529</ele><time>2013-11-17T13:27:20Z</time></trkpt>
<trkpt lat="54.2607690000" lon="-2.2147150000"><ele>529</ele><time>2013-11-17T13:27:22Z</time></trkpt>
<trkpt lat="54.2607950000" lon="-2.2146990000"><ele>529</ele><time>2013-11-17T13:27:24Z</time></trkpt>
<trkpt lat="54.2608230000" lon="-2.2146850000"><ele>529</ele><time>2013-11-17T13:27:26Z</time></trkpt>
<trkpt lat="54.2608520000" lon="-2.2146710000"><ele>529</ele><time>2013-11-17T13:27:28Z</time></trkpt>
<trkpt lat="54.2608800000" lon="-2.2146550000"><ele>529</ele><time>2013-11-17T13:27:30Z</time></trkpt>
<trkpt lat="54.2609060000" lon="-2.2146370000"><ele>529</ele><time>2013-11-17T13:27:32Z</time></trkpt>
<trkpt lat="54.2609370000" lon="-2.2146200000"><ele>529</ele><time>2013-11-17T13:27:34Z</time></trkpt>
<trkpt lat="54.2609640000" lon="-2.2146000000"><ele>529</ele><time>2013-11-17T13:27:36Z</time></trkpt>
<trkpt lat="54.2609960000" lon="-2.2145770000"><ele>529</ele><time>2013-11-17T13:27:38Z</time></trkpt>
<trkpt lat="54.2610080000" lon="-2.2145690000"><ele>529</ele><time>2013-11-17T13:27:39Z</time></trkpt>
<trkpt lat="54.2610200000" lon="-2.2145580000"><ele>529</ele><time>2013-11-17T13:27:40Z</time></trkpt>
<trkpt lat="54.2610320000" lon="-2.2145450000"><ele>529</ele><time>2013-11-17T13:27:41Z</time></trkpt>
<trkpt lat="54.2610440000" lon="-2.2145330000"><ele>529</ele><time>2013-11-17T13:27:42Z</time></trkpt>
<trkpt lat="54.2610560000" lon="-2.2145210000"><ele>529</ele><time>2013-11-17T13:27:43Z</time></trkpt>
<trkpt lat="54.2610680000" lon="-2.2145100000"><ele>529</ele><time>2013-11-17T13:27:44Z</time></trkpt>
<trkpt lat="54.2610800000" lon="-2.2144990000"><ele>529</ele><time>2013-11-17T13:27:45Z</time></trkpt>
<trkpt lat="54.2610930000" lon="-2.2144880000"><ele>529</ele><time>2013-11-17T13:27:46Z</time></trkpt>
<trkpt lat="54.2611050000" lon="-2.2144750000"><ele>529</ele><time>2013-11-17T13:27:47Z</time></trkpt>
<trkpt lat="54.2611180000" lon="-2.2144650000"><ele>529</ele><time>2013-11-17T13:27:48Z</time></trkpt>
<trkpt lat="54.2611290000" lon="-2.2144530000"><ele>529</ele><time>2013-11-17T13:27:49Z</time></trkpt>
<trkpt lat="54.2611410000" lon="-2.2144410000"><ele>529</ele><time>2013-11-17T13:27:50Z</time></trkpt>
<trkpt lat="54.2611540000" lon="-2.2144280000"><ele>529</ele><time>2013-11-17T13:27:51Z</time></trkpt>
<trkpt lat="54.2611660000" lon="-2.2144150000"><ele>529</ele><time>2013-11-17T13:27:52Z</time></trkpt>
<trkpt lat="54.2611790000" lon="-2.2144040000"><ele>529</ele><time>2013-11-17T13:27:53Z</time></trkpt>
<trkpt lat="54.2611920000" lon="-2.2143930000"><ele>529</ele><time>2013-11-17T13:27:54Z</time></trkpt>
<trkpt lat="54.2612210000" lon="-2.2143640000"><ele>529</ele><time>2013-11-17T13:27:56Z</time></trkpt>
<trkpt lat="54.2612450000" lon="-2.2143400000"><ele>529</ele><time>2013-11-17T13:27:58Z</time></trkpt>
<trkpt lat="54.2612570000" lon="-2.2143310000"><ele>529</ele><time>2013-11-17T13:27:59Z</time></trkpt>
<trkpt lat="54.2612700000" lon="-2.2143200000"><ele>529</ele></trkpt>
<trkpt lat="54.2612830000" lon="-2.2143080000"><ele>529</ele><time>2013-11-17T13:28:01Z</time></trkpt>
<trkpt lat="54.2612970000" lon="-2.2142970000"><ele>529</ele><time>2013-11-17T13:28:02Z</time></trkpt>
<trkpt lat="54.2613110000" lon="-2.2142840000"><ele>529</ele><time>2013-11-17T13:28:03Z</time></trkpt>
<trkpt lat="54.2613240000" lon="-2.2142740000"><ele>529</ele><time>2013-11-17T13:28:04Z</time></trkpt>
<trkpt lat="54.2613370000" lon="-2.2142650000"><ele>529</ele><time>2013-11-17T13:28:05Z</time></trkpt>
<trkpt lat="54.2613490000" lon="-2.2142530000"><ele>529</ele></trkpt>
<trkpt lat="54.2613610000" lon="-2.2142420000"><ele>529</ele><time>2013-11-17T13:28:07Z</time></trkpt>
<trkpt lat="54.2613750000" lon="-2.2142320000"><ele>529</ele><time>2013-11-17T13:28:08Z</time></trkpt>
<trkpt lat="54.2613940000" lon="-2.2142140000"><ele>529</ele><time>2013-11-17T13:28:10Z</time></trkpt>
<trkpt lat="54.2614200000" lon="-2.2141940000"><ele>529</ele><time>2013-11-17T13:28:12Z</time></trkpt>
<trkpt lat="54.2614490000" lon="-2.2141710000"><ele>529</ele><time>2013-11-17T13:28:14Z</time></trkpt>
<trkpt lat="54.2614760000" lon="-2.2141460000"><ele>529</ele><time>2013-11-17T13:28:16Z</time></trkpt>
<trkpt lat="54.2615020000" lon="-2.2141260000"><ele>529</ele><time>2013-11-17T13:28:18Z</time></trkpt>
<trkpt lat="54.2615270000" lon="-2.2141050000"><ele>529</ele><time>2013-11-17T13:28:20Z</time></trkpt>
<trkpt lat="54.2615520000" lon="-2.2140820000"><ele>529</ele><time>2013-11-17T13:28:22Z</time></trkpt>
<trkpt lat="54.2615740000" lon="-2.2140590000"><ele>529</ele><time>2013-11-17T13:28:24Z</time></trkpt>
<trkpt lat="54.2615960000" lon="-2.2140360000"><ele>529</ele><time>2013-11-17T13:28:26Z</time></trkpt>
<trkpt lat="54.2616170000" lon="-2.2140120000"><ele>529</ele><time>2013-11-17T13:28:28Z</time></trkpt>
<trkpt lat="54.2616400000" lon="-2.2139800000"><ele>529</ele><time>2013-11-17T13:28:30Z</time></trkpt>
<trkpt lat="54.2616650000" lon="-2.2139490000"><ele>529</ele><time>2013-11-17T13:28:32Z</time></trkpt>
<trkpt lat="54.2616920000" lon="-2.2139250000"><ele>529</ele><time>2013-11-17T13:28:34Z</time></trkpt>
<trkpt lat="54.2617170000" lon="-2.2138970000"><ele>529</ele><time>2013-11-17T13:28:36Z</time></trkpt>
<trkpt lat="54.2617390000" lon="-2.2138680000"><ele>529</ele><time>2013-11-17T13:28:38Z</time></trkpt>
<trkpt lat="54.2617610000" lon="-2.2138400000"><ele>529</ele><time>2013-11-17T13:28:40Z</time></trkpt>
<trkpt lat="54.2617850000" lon="-2.2138200000"><ele>529</ele><time>2013-11-17T13:28:42Z</time></trkpt>
<trkpt lat="54.2618100000" lon="-2.2138010000"><ele>529</ele><time>2013-11-17T13:28:44Z</time></trkpt>
<trkpt lat="54.2618340000" lon="-2.2137750000"><ele>529</ele><time>2013-11-17T13:28:46Z</time></trkpt>
<trkpt lat="54.2618580000" lon="-2.2137500000"><ele>529</ele><time>2013-11-17T13:28:48Z</time></trkpt>
<trkpt lat="54.2618870000" lon="-2.2137400000"><ele>529</ele><time>2013-11-17T13:28:56Z</time></trkpt>
<trkpt lat="54.2618660000" lon="-2.2137670000"><ele>529</ele><time>2013-11-17T13:28:59Z</time></trkpt>
<trkpt lat="54.2618360000" lon="-2.2137870000"><ele>529</ele><time>2013-11-17T13:29:01Z</time></trkpt>
<trkpt lat="54.2618170000" lon="-2.2138060000"><ele>529</ele><time>2013-11-17T13:29:04Z</time></trkpt>
<trkpt lat="54.2617990000" lon="-2.2138180000"><ele>529</ele><time>2013-11-17T13:29:06Z</time></trkpt>
<trkpt lat="54.2618070000" lon="-2.2138030000"><ele>529</ele><time>2013-11-17T13:29:14Z</time></trkpt>
<trkpt lat="54.2618160000" lon="-2.2137920000"><ele>529</ele><time>2013-11-17T13:29:15Z</time></trkpt>
<trkpt lat="54.2618260000" lon="-2.2137780000"><ele>529</ele><time>2013-11-17T13:29:16Z</time></trkpt>
<trkpt lat="54.2618370000" lon="-2.2137630000"><ele>529</ele><time>2013-11-17T13:29:17Z</time></trkpt>
<trkpt lat="54.2618600000" lon="-2.2137420000"><ele>529</ele><time>2013-11-17T13:29:19Z</time></trkpt>
<trkpt lat="54.2618850000" lon="-2.2137160000"><ele>529</ele><time>2013-11-17T13:29:21Z</time></trkpt>
<trkpt lat="54.2619080000" lon="-2.2136940000"><ele>529</ele><time>2013-11-17T13:29:23Z</time></trkpt>
<trkpt lat="54.2619300000" lon="-2.2136680000"><ele>529</ele><time>2013-11-17T13:29:25Z</time></trkpt>
<trkpt lat="54.2619510000" lon="-2.2136410000"><ele>529</ele><time>2013-11-17T13:29:27Z</time></trkpt>
<trkpt lat="54.2619750000" lon="-2.2136190000"><ele>529</ele><time>2013-11-17T13:29:29Z</time></trkpt>
<trkpt lat="54.2620060000" lon="-2.2136020000"><ele>529</ele><time>2013-11-17T13:29:31Z</time></trkpt>
<trkpt lat="54.2620320000" lon="-2.2135800000"><ele>529</ele><time>2013-11-17T13:29:32Z</time></trkpt>
<trkpt lat="54.2620560000" lon="-2.2135550000"><ele>529</ele><time>2013-11-17T13:29:35Z</time></trkpt>
<trkpt lat="54.2620800000" lon="-2.2135290000"><ele>529</ele><time>2013-11-17T13:29:37Z</time></trkpt>
<trkpt lat="54.2621020000" lon="-2.2135030000"><ele>529</ele><time>2013-11-17T13:29:38Z</time></trkpt>
<trkpt lat="54.2621220000" lon="-2.2134760000"><ele>529</ele><time>2013-11-17T13:29:41Z</time></trkpt>
<trkpt lat="54.2621460000" lon="-2.2134520000"><ele>529</ele><time>2013-11-17T13:29:43Z</time></trkpt>
<trkpt lat="54.2621710000" lon="-2.2134290000"><ele>529</ele><time>2013-11-17T13:29:45Z</time></trkpt>
<trkpt lat="54.2621940000" lon="-2.2134040000"><ele>529</ele><time>2013-11-17T13:29:47Z</time></trkpt>
<trkpt lat="54.2622190000" lon="-2.2133820000"><ele>529</ele><time>2013-11-17T13:29:49Z</time></trkpt>
<trkpt lat="54.2622430000" lon="-2.2133590000"><ele>553</ele><time>2013-11-17T13:29:51Z</time></trkpt>
<trkpt lat="54.2622730000" lon="-2.2133280000"><ele>539</ele><time>2013-11-17T13:29:53Z</time></trkpt>
<trkpt lat="54.2622840000" lon="-2.2133170000"><ele>539</ele><time>2013-11-17T13:29:54Z</time></trkpt>
<trkpt lat="54.2622960000" lon="-2.2133030000"><ele>539</ele><time>2013-11-17T13:29:55Z</time></trkpt>
<trkpt lat="54.2623060000" lon="-2.2132880000"><ele>539</ele><time>2013-11-17T13:29:56Z</time></trkpt>
<trkpt lat="54.2623150000" lon="-2.2132750000"><ele>539</ele><time>2013-11-17T13:29:57Z</time></trkpt>
<trkpt lat="54.2623260000" lon="-2.2132640000"><ele>539</ele><time>2013-11-17T13:29:58Z</time></trkpt>
<trkpt lat="54.2623400000" lon="-2.2132550000"><ele>539</ele><time>2013-11-17T13:29:59Z</time></trkpt>
<trkpt lat="54.2623530000" lon="-2.2132460000"><ele>539</ele><time>2013-11-17T13:30:00Z</time></trkpt>
<trkpt lat="54.2623660000" lon="-2.2132340000"><ele>539</ele><time>2013-11-17T13:30:01Z</time></trkpt>
<trkpt lat="54.2623790000" lon="-2.2132210000"><ele>539</ele><time>2013-11-17T13:30:02Z</time></trkpt>
<trkpt lat="54.2623920000" lon="-2.2132080000"><ele>539</ele><time>2013-11-17T13:30:03Z</time></trkpt>
<trkpt lat="54.2624040000" lon="-2.2131960000"><ele>539</ele></trkpt>
<trkpt lat="54.2624150000" lon="-2.2131840000"><ele>539</ele><time>2013-11-17T13:30:05Z</time></trkpt>
<trkpt lat="54.2624250000" lon="-2.2131700000"><ele>539</ele><time>2013-11-17T13:30:06Z</time></trkpt>
<trkpt lat="54.2624350000" lon="-2.2131560000"><ele>539</ele><time>2013-11-17T13:30:07Z</time></trkpt>
<trkpt lat="54.2624480000" lon="-2.2131440000"><ele>539</ele><time>2013-11-17T13:30:08Z</time></trkpt>
<trkpt lat="54.2624620000" lon="-2.2131320000"><ele>539</ele><time>2013-11-17T13:30:09Z</time></trkpt>
<trkpt lat="54.2624760000" lon="-2.2131200000"><ele>539</ele></trkpt>
<trkpt lat="54.2624980000" lon="-2.2131000000"><ele>539</ele><time>2013-11-17T13:30:12Z</time></trkpt>
<trkpt lat="54.2625290000" lon="-2.2130600000"><ele>539</ele><time>2013-11-17T13:30:14Z</time></trkpt>
<trkpt lat="54.2625390000" lon="-2.2130490000"><ele>539</ele><time>2013-11-17T13:30:15Z</time></trkpt>
<trkpt lat="54.2625490000" lon="-2.2130390000"><ele>539</ele><time>2013-11-17T13:30:16Z</time></trkpt>
<trkpt lat="54.2625710000" lon="-2.2130250000"><ele>539</ele><time>2013-11-17T13:30:18Z</time></trkpt>
<trkpt lat="54.2625990000" lon="-2.2130050000"><ele>539</ele><time>2013-11-17T13:30:20Z</time></trkpt>
<trkpt lat="54.2626240000" lon="-2.2129810000"><ele>539</ele><time>2013-11-17T13:30:22Z</time></trkpt>
<trkpt lat="54.2626490000" lon="-2.2129560000"><ele>539</ele><time>2013-11-17T13:30:24Z</time></trkpt>
<trkpt lat="54.2626760000" lon="-2.2129330000"><ele>539</ele><time>2013-11-17T13:30:26Z</time></trkpt>
<trkpt lat="54.2627020000" lon="-2.2129130000"><ele>539</ele><time>2013-11-17T13:30:28Z</time></trkpt>
<trkpt lat="54.2627250000" lon="-2.2128920000"><ele>539</ele><time>2013-11-17T13:30:30Z</time></trkpt>
<trkpt lat="54.2627480000" lon="-2.2128640000"><ele>539</ele><time>2013-11-17T13:30:32Z</time></trkpt>
<trkpt lat="54.2627710000" lon="-2.2128380000"><ele>539</ele><time>2013-11-17T13:30:34Z</time></trkpt>
<trkpt lat="54.2628000000" lon="-2.2128160000"><ele>539</ele><time>2013-11-17T13:30:36Z</time></trkpt>
<trkpt lat="54.2628250000" lon="-2.2127940000"><ele>539</ele><time>2013-11-17T13:30:38Z</time></trkpt>
<trkpt lat="54.2628490000" lon="-2.2127710000"><ele>539</ele><time>2013-11-17T13:30:40Z</time></trkpt>
<trkpt lat="54.2628760000" lon="-2.2127480000"><ele>539</ele><time>2013-11-17T13:30:42Z</time></trkpt>
<trkpt lat="54.2629000000" lon="-2.2127290000"><ele>539</ele><time>2013-11-17T13:30:44Z</time></trkpt>
<trkpt lat="54.2629260000" lon="-2.2127090000"><ele>539</ele><time>2013-11-17T13:30:46Z</time></trkpt>
<trkpt lat="54.2629520000" lon="-2.2126870000"><ele>539</ele><time>2013-11-17T13:30:48Z</time></trkpt>
<trkpt lat="54.2629770000" lon="-2.2126600000"><ele>539</ele><time>2013-11-17T13:30:50Z</time></trkpt>
<trkpt lat="54.2629970000" lon="-2.2126330000"><ele>539</ele><time>2013-11-17T13:30:52Z</time></trkpt>
<trkpt lat="54.2630180000" lon="-2.2126080000"><ele>539</ele><time>2013-11-17T13:30:54Z</time></trkpt>
<trkpt lat="54.2630420000" lon="-2.2125810000"><ele>539</ele><time>2013-11-17T13:30:56Z</time></trkpt>
<trkpt lat="54.2630680000" lon="-2.2125570000"><ele>539</ele><time>2013-11-17T13:30:58Z</time></trkpt>
<trkpt lat="54.2630990000" lon="-2.2125260000"><ele>539</ele><time>2013-11-17T13:31:00Z</time></trkpt>
<trkpt lat="54.2631100000" lon="-2.2125150000"><ele>539</ele><time>2013-11-17T13:31:01Z</time></trkpt>
<trkpt lat="54.2631220000" lon="-2.2125030000"><ele>539</ele><time>2013-11-17T13:31:02Z</time></trkpt>
<trkpt lat="54.2631340000" lon="-2.2124890000"><ele>539</ele><time>2013-11-17T13:31:03Z</time></trkpt>
<trkpt lat="54.2631460000" lon="-2.2124740000"><ele>539</ele><time>2013-11-17T13:31:04Z</time></trkpt>
<trkpt lat="54.2631570000" lon="-2.2124610000"><ele>539</ele><time>2013-11-17T13:31:05Z</time></trkpt>
<trkpt lat="54.2631760000" lon="-2.2124380000"><ele>539</ele><time>2013-11-17T13:31:07Z</time></trkpt>
<trkpt lat="54.2631870000" lon="-2.2124030000"><ele>539</ele><time>2013-11-17T13:31:17Z</time></trkpt>
<trkpt lat="54.2632080000" lon="-2.2123750000"><ele>539</ele><time>2013-11-17T13:31:20Z</time></trkpt>
<trkpt lat="54.2632280000" lon="-2.2123570000"><ele>539</ele><time>2013-11-17T13:31:22Z</time></trkpt>
<trkpt lat="54.2632510000" lon="-2.2123360000"><ele>539</ele><time>2013-11-17T13:31:24Z</time></trkpt>
<trkpt lat="54.2632730000" lon="-2.2123110000"><ele>539</ele><time>2013-11-17T13:31:26Z</time></trkpt>
<trkpt lat="54.2632920000" lon="-2.2122830000"><ele>539</ele><time>2013-11-17T13:31:28Z</time></trkpt>
<trkpt lat="54.2633110000" lon="-2.2122610000"><ele>539</ele><time>2013-11-17T13:31:30Z</time></trkpt>
<trkpt lat="54.2633300000" lon="-2.2122420000"><ele>539</ele><time>2013-11-17T13:31:32Z</time></trkpt>
<trkpt lat="54.2633480000" lon="-2.2122250000"><ele>539</ele><time>2013-11-17T13:31:34Z</time></trkpt>
<trkpt lat="54.2633700000" lon="-2.2122200000"><ele>539</ele><time>2013-11-17T13:31:36Z</time></trkpt>
<trkpt lat="54.2633990000" lon="-2.2122020000"><ele>539</ele><time>2013-11-17T13:31:39Z</time></trkpt>
<trkpt lat="54.2634340000" lon="-2.2121660000"><ele>539</ele><time>2013-11-17T13:31:43Z</time></trkpt>
<trkpt lat="54.2634670000" lon="-2.2121270000"><ele>539</ele><time>2013-11-17T13:31:46Z</time></trkpt>
<trkpt lat="54.2635090000" lon="-2.2120880000"><ele>539</ele><time>2013-11-17T13:31:49Z</time></trkpt>
<trkpt lat="54.2635540000" lon="-2.2120560000"><ele>539</ele><time>2013-11-17T13:31:52Z</time></trkpt>
<trkpt lat="54.2635900000" lon="-2.2120260000"><ele>539</ele><time>2013-11-17T13:31:55Z</time></trkpt>
<trkpt lat="54.2636270000" lon="-2.2119870000"><ele>539</ele><time>2013-11-17T13:31:58Z</time></trkpt>
<trkpt lat="54.2636710000" lon="-2.2119320000"><ele>539</ele><time>2013-11-17T13:32:02Z</time></trkpt>
<trkpt lat="54.2637080000" lon="-2.2118990000"><ele>539</ele><time>2013-11-17T13:32:05Z</time></trkpt>
<trkpt lat="54.2637490000" lon="-2.2118660000"><ele>539</ele><time>2013-11-17T13:32:08Z</time></trkpt>
<trkpt lat="54.2637810000" lon="-2.2118260000"><ele>539</ele><time>2013-11-17T13:32:11Z</time></trkpt>
<trkpt lat="54.2638080000" lon="-2.2117750000"><ele>539</ele><time>2013-11-17T13:32:14Z</time></trkpt>
<trkpt lat="54.2638440000" lon="-2.2117210000"><ele>539</ele><time>2013-11-17T13:32:19Z</time></trkpt>
<trkpt lat="54.2638770000" lon="-2.2116700000"><ele>539</ele><time>2013-11-17T13:32:22Z</time></trkpt>
<trkpt lat="54.2639180000" lon="-2.2116250000"><ele>539</ele><time>2013-11-17T13:32:26Z</time></trkpt>
<trkpt lat="54.2639660000" lon="-2.2115730000"><ele>539</ele><time>2013-11-17T13:32:30Z</time></trkpt>
<trkpt lat="54.2640100000" lon="-2.2115250000"><ele>539</ele><time>2013-11-17T13:32:34Z</time></trkpt>
<trkpt lat="54.2640640000" lon="-2.2114790000"><ele>539</ele><time>2013-11-17T13:32:38Z</time></trkpt>
<trkpt lat="54.2641090000" lon="-2.2114450000"><ele>516</ele><time>2013-11-17T13:32:42Z</time></trkpt>
<trkpt lat="54.2641580000" lon="-2.2114100000"><ele>516</ele><time>2013-11-17T13:32:45Z</time></trkpt>
<trkpt lat="54.2641930000" lon="-2.2113710000"><ele>516</ele><time>2013-11-17T13:32:50Z</time></trkpt>
<trkpt lat="54.2642360000" lon="-2.2113210000"><ele>516</ele><time>2013-11-17T13:32:54Z</time></trkpt>
<trkpt lat="54.2642690000" lon="-2.2112930000"><ele>516</ele><time>2013-11-17T13:32:56Z</time></trkpt>
<trkpt lat="54.2643090000" lon="-2.2112710000"><ele>516</ele><time>2013-11-17T13:32:59Z</time></trkpt>
<trkpt lat="54.2643520000" lon="-2.2112490000"><ele>516</ele><time>2013-11-17T13:33:02Z</time></trkpt>
<trkpt lat="54.2643970000" lon="-2.2112140000"><ele>516</ele><time>2013-11-17T13:33:04Z</time></trkpt>
<trkpt lat="54.2644460000" lon="-2.2111690000"><ele>516</ele><time>2013-11-17T13:33:08Z</time></trkpt>
<trkpt lat="54.2644850000" lon="-2.2111320000"><ele>516</ele><time>2013-11-17T13:33:11Z</time></trkpt>
<trkpt lat="54.2645280000" lon="-2.2111030000"><ele>516</ele><time>2013-11-17T13:33:14Z</time></trkpt>
<trkpt lat="54.2645710000" lon="-2.2110880000"><ele>516</ele><time>2013-11-17T13:33:17Z</time></trkpt>
<trkpt lat="54.2646090000" lon="-2.2110530000"><ele>516</ele><time>2013-11-17T13:33:20Z</time></trkpt>
<trkpt lat="54.2646410000" lon="-2.2110170000"><ele>516</ele><time>2013-11-17T13:33:23Z</time></trkpt>
<trkpt lat="54.2646760000" lon="-2.2109770000"><ele>516</ele><time>2013-11-17T13:33:26Z</time></trkpt>
<trkpt lat="54.2647050000" lon="-2.2109340000"><ele>516</ele><time>2013-11-17T13:33:29Z</time></trkpt>
<trkpt lat="54.2647240000" lon="-2.2108720000"><ele>516</ele><time>2013-11-17T13:33:33Z</time></trkpt>
<trkpt lat="54.2647420000" lon="-2.2108200000"><ele>516</ele><time>2013-11-17T13:33:36Z</time></trkpt>
<trkpt lat="54.2647690000" lon="-2.2107680000"><ele>516</ele><time>2013-11-17T13:33:40Z</time></trkpt>
<trkpt lat="54.2648020000" lon="-2.2107370000"><ele>516</ele><time>2013-11-17T13:33:43Z</time></trkpt>
<trkpt lat="54.2648350000" lon="-2.2107010000"><ele>516</ele><time>2013-11-17T13:33:47Z</time></trkpt>
<trkpt lat="54.2648670000" lon="-2.2106740000"><ele>516</ele><time>2013-11-17T13:33:50Z</time></trkpt>
<trkpt lat="54.2649010000" lon="-2.2106330000"><ele>516</ele><time>2013-11-17T13:33:53Z</time></trkpt>
<trkpt lat="54.2649410000" lon="-2.2105950000"><ele>516</ele><time>2013-11-17T13:33:56Z</time></trkpt>
<trkpt lat="54.2649770000" lon="-2.2105480000"><ele>516</ele><time>2013-11-17T13:34:00Z</time></trkpt>
<trkpt lat="54.2650030000" lon="-2.2104970000"><ele>516</ele><time>2013-11-17T13:34:02Z</time></trkpt>
<trkpt lat="54.2650290000" lon="-2.2104580000"><ele>516</ele><time>2013-11-17T13:34:06Z</time></trkpt>
<trkpt lat="54.2650630000" lon="-2.2104300000"><ele>516</ele><time>2013-11-17T13:34:08Z</time></trkpt>
<trkpt lat="54.2650970000" lon="-2.2104000000"><ele>516</ele><time>2013-11-17T13:34:12Z</time></trkpt>
<trkpt lat="54.2651230000" lon="-2.2103840000"><ele>516</ele><time>2013-11-17T13:34:14Z</time></trkpt>
<trkpt lat="54.2651560000" lon="-2.2103480000"><ele>516</ele><time>2013-11-17T13:34:17Z</time></trkpt>
<trkpt lat="54.2651830000" lon="-2.2103230000"><ele>516</ele><time>2013-11-17T13:34:19Z</time></trkpt>
<trkpt lat="54.2652070000" lon="-2.2102960000"><ele>546</ele><time>2013-11-17T13:34:21Z</time></trkpt>
<trkpt lat="54.2652310000" lon="-2.2102690000"><ele>546</ele><time>2013-11-17T13:34:23Z</time></trkpt>
<trkpt lat="54.2652550000" lon="-2.2102450000"><ele>546</ele><time>2013-11-17T13:34:25Z</time></trkpt>
<trkpt lat="54.2652800000" lon="-2.2102230000"><ele>546</ele><time>2013-11-17T13:34:27Z</time></trkpt>
<trkpt lat="54.2653050000" lon="-2.2102040000"><ele>546</ele><time>2013-11-17T13:34:29Z</time></trkpt>
<trkpt lat="54.2653280000" lon="-2.2101810000"><ele>546</ele><time>2013-11-17T13:34:31Z</time></trkpt>
<trkpt lat="54.2653480000" lon="-2.2101570000"><ele>546</ele><time>2013-11-17T13:34:33Z</time></trkpt>
<trkpt lat="54.2653690000" lon="-2.2101330000"><ele>546</ele><time>2013-11-17T13:34:35Z</time></trkpt>
<trkpt lat="54.2653910000" lon="-2.2101040000"><ele>546</ele><time>2013-11-17T13:34:37Z</time></trkpt>
<trkpt lat="54.2654130000" lon="-2.2100780000"><ele>546</ele><time>2013-11-17T13:34:39Z</time></trkpt>
<trkpt lat="54.2654330000" lon="-2.2100530000"><ele>546</ele><time>2013-11-17T13:34:41Z</time></trkpt>
<trkpt lat="54.2654540000" lon="-2.2100290000"><ele>546</ele><time>2013-11-17T13:34:43Z</time></trkpt>
<trkpt lat="54.2654770000" lon="-2.2100070000"><ele>546</ele><time>2013-11-17T13:34:45Z</time></trkpt>
<trkpt lat="54.2654980000" lon="-2.2099850000"><ele>546</ele><time>2013-11-17T13:34:47Z</time></trkpt>
<trkpt lat="54.2655170000" lon="-2.2099610000"><ele>546</ele><time>2013-11-17T13:34:49Z</time></trkpt>
<trkpt lat="54.2655370000" lon="-2.2099400000"><ele>546</ele><time>2013-11-17T13:34:51Z</time></trkpt>
<trkpt lat="54.2655570000" lon="-2.2099180000"><ele>546</ele><time>2013-11-17T13:34:53Z</time></trkpt>
<trkpt lat="54.2655780000" lon="-2.2098940000"><ele>546</ele><time>2013-11-17T13:34:55Z</time></trkpt>
<trkpt lat="54.2655990000" lon="-2.2098720000"><ele>546</ele><time>2013-11-17T13:34:57Z</time></trkpt>
<trkpt lat="54.2656190000" lon="-2.2098470000"><ele>546</ele><time>2013-11-17T13:34:59Z</time></trkpt>
<trkpt lat="54.2656450000" lon="-2.2098250000"><ele>546</ele><time>2013-11-17T13:35:01Z</time></trkpt>
<trkpt lat="54.2656680000" lon="-2.2098090000"><ele>546</ele><time>2013-11-17T13:35:03Z</time></trkpt>
<trkpt lat="54.2656900000" lon="-2.2097870000"><ele>546</ele><time>2013-11-17T13:35:04Z</time></trkpt>
<trkpt lat="54.2657140000" lon="-2.2097640000"><ele>546</ele><time>2013-11-17T13:35:07Z</time></trkpt>
<trkpt lat="54.2657360000" lon="-2.2097380000"><ele>546</ele><time>2013-11-17T13:35:09Z</time></trkpt>
<trkpt lat="54.2657570000" lon="-2.2097120000"><ele>546</ele><time>2013-11-17T13:35:10Z</time></trkpt>
<trkpt lat="54.2657790000" lon="-2.2096760000"><ele>546</ele><time>2013-11-17T13:35:14Z</time></trkpt>
<trkpt lat="54.2658040000" lon="-2.2096310000"><ele>546</ele><time>2013-11-17T13:35:16Z</time></trkpt>
<trkpt lat="54.2658320000" lon="-2.2095920000"><ele>546</ele><time>2013-11-17T13:35:20Z</time></trkpt>
<trkpt lat="54.2658540000" lon="-2.2095660000"><ele>546</ele><time>2013-11-17T13:35:22Z</time></trkpt>
<trkpt lat="54.2658760000" lon="-2.2095380000"><ele>541</ele><time>2013-11-17T13:35:24Z</time></trkpt>
<trkpt lat="54.2658940000" lon="-2.2095060000"><ele>541</ele><time>2013-11-17T13:35:26Z</time></trkpt>
<trkpt lat="54.2659130000" lon="-2.2094710000"><ele>541</ele><time>2013-11-17T13:35:28Z</time></trkpt>
<trkpt lat="54.2659410000" lon="-2.2094250000"><ele>541</ele><time>2013-11-17T13:35:31Z</time></trkpt>
<trkpt lat="54.2659620000" lon="-2.2093950000"><ele>541</ele><time>2013-11-17T13:35:33Z</time></trkpt>
<trkpt lat="54.2659920000" lon="-2.2093540000"><ele>541</ele><time>2013-11-17T13:35:35Z</time></trkpt>
<trkpt lat="54.2660080000" lon="-2.2093150000"><ele>541</ele><time>2013-11-17T13:35:38Z</time></trkpt>
<trkpt lat="54.2660300000" lon="-2.2092600000"><ele>541</ele><time>2013-11-17T13:35:41Z</time></trkpt>
<trkpt lat="54.2660540000" lon="-2.2092110000"><ele>541</ele><time>2013-11-17T13:35:44Z</time></trkpt>
<trkpt lat="54.2660740000" lon="-2.2091780000"><ele>541</ele><time>2013-11-17T13:35:46Z</time></trkpt>
<trkpt lat="54.2660970000" lon="-2.2091280000"><ele>541</ele><time>2013-11-17T13:35:49Z</time></trkpt>
<trkpt lat="54.2661160000" lon="-2.2090670000"><ele>541</ele><time>2013-11-17T13:35:52Z</time></trkpt>
<trkpt lat="54.2661390000" lon="-2.2090140000"><ele>541</ele><time>2013-11-17T13:35:55Z</time></trkpt>
<trkpt lat="54.2661610000" lon="-2.2089630000"><ele>541</ele><time>2013-11-17T13:35:58Z</time></trkpt>
<trkpt lat="54.2661830000" lon="-2.2089060000"><ele>541</ele><time>2013-11-17T13:36:01Z</time></trkpt>
<trkpt lat="54.2662040000" lon="-2.2088490000"><ele>541</ele><time>2013-11-17T13:36:04Z</time></trkpt>
<trkpt lat="54.2662270000" lon="-2.2087980000"><ele>541</ele><time>2013-11-17T13:36:07Z</time></trkpt>
<trkpt lat="54.2662510000" lon="-2.2087440000"><ele>541</ele><time>2013-11-17T13:36:10Z</time></trkpt>
<trkpt lat="54.2662690000" lon="-2.2086900000"><ele>541</ele><time>2013-11-17T13:36:12Z</time></trkpt>
<trkpt lat="54.2662880000" lon="-2.2086340000"><ele>541</ele><time>2013-11-17T13:36:16Z</time></trkpt>
<trkpt lat="54.2663020000" lon="-2.2085960000"><ele>541</ele><time>2013-11-17T13:36:18Z</time></trkpt>
<trkpt lat="54.2663190000" lon="-2.2085620000"><ele>541</ele><time>2013-11-17T13:36:20Z</time></trkpt>
<trkpt lat="54.2663380000" lon="-2.2085270000"><ele>541</ele><time>2013-11-17T13:36:22Z</time></trkpt>
<trkpt lat="54.2663560000" lon="-2.2084910000"><ele>541</ele><time>2013-11-17T13:36:24Z</time></trkpt>
<trkpt lat="54.2663720000" lon="-2.2084560000"><ele>541</ele><time>2013-11-17T13:36:26Z</time></trkpt>
<trkpt lat="54.2663860000" lon="-2.2084230000"><ele>541</ele><time>2013-11-17T13:36:28Z</time></trkpt>
<trkpt lat="54.2664030000" lon="-2.2083770000"><ele>541</ele><time>2013-11-17T13:36:31Z</time></trkpt>
<trkpt lat="54.2664230000" lon="-2.2083170000"><ele>541</ele><time>2013-11-17T13:36:34Z</time></trkpt>
<trkpt lat="54.2664460000" lon="-2.2082500000"><ele>541</ele><time>2013-11-17T13:36:37Z</time></trkpt>
<trkpt lat="54.2664600000" lon="-2.2082020000"><ele>541</ele><time>2013-11-17T13:36:39Z</time></trkpt>
<trkpt lat="54.2664750000" lon="-2.2081560000"><ele>541</ele><time>2013-11-17T13:36:41Z</time></trkpt>
<trkpt lat="54.2664900000" lon="-2.2081160000"><ele>541</ele><time>2013-11-17T13:36:43Z</time></trkpt>
<trkpt lat="54.2665020000" lon="-2.2080740000"><ele>541</ele><time>2013-11-17T13:36:45Z</time></trkpt>
<trkpt lat="54.2665130000" lon="-2.2080310000"><ele>541</ele><time>2013-11-17T13:36:47Z</time></trkpt>
<trkpt lat="54.2665220000" lon="-2.2079860000"><ele>541</ele><time>2013-11-17T13:36:49Z</time></trkpt>
<trkpt lat="54.2665320000" lon="-2.2079440000"><ele>541</ele><time>2013-11-17T13:36:51Z</time></trkpt>
<trkpt lat="54.2665420000" lon="-2.2079020000"><ele>541</ele><time>2013-11-17T13:36:53Z</time></trkpt>
<trkpt lat="54.2665550000" lon="-2.2078600000"><ele>541</ele><time>2013-11-17T13:36:55Z</time></trkpt>
<trkpt lat="54.2665700000" lon="-2.2078250000"><ele>541</ele><time>2013-11-17T13:36:57Z</time></trkpt>
<trkpt lat="54.2665830000" lon="-2.2077850000"><ele>541</ele><time>2013-11-17T13:36:59Z</time></trkpt>
<trkpt lat="54.2666000000" lon="-2.2077500000"><ele>541</ele><time>2013-11-17T13:37:01Z</time></trkpt>
<trkpt lat="54.2666180000" lon="-2.2077150000"><ele>541</ele><time>2013-11-17T13:37:03Z</time></trkpt>
<trkpt lat="54.2666360000" lon="-2.2076770000"><ele>541</ele><time>2013-11-17T13:37:05Z</time></trkpt>
<trkpt lat="54.2666510000" lon="-2.2076380000"><ele>541</ele><time>2013-11-17T13:37:07Z</time></trkpt>
<trkpt lat="54.2666640000" lon="-2.2075850000"><ele>541</ele><time>2013-11-17T13:37:10Z</time></trkpt>
<trkpt lat="54.2666720000" lon="-2.2075440000"><ele>541</ele><time>2013-11-17T13:37:12Z</time></trkpt>
<trkpt lat="54.2666850000" lon="-2.2075050000"><ele>541</ele><time>2013-11-17T13:37:14Z</time></trkpt>
<trkpt lat="54.2666970000" lon="-2.2074670000"><ele>541</ele><time>2013-11-17T13:37:16Z</time></trkpt>
<trkpt lat="54.2667110000" lon="-2.2074290000"><ele>541</ele><time>2013-11-17T13:37:18Z</time></trkpt>
<trkpt lat="54.2667250000" lon="-2.2073920000"><ele>541</ele><time>2013-11-17T13:37:20Z</time></trkpt>
<trkpt lat="54.2667390000" lon="-2.2073510000"><ele>541</ele><time>2013-11-17T13:37:22Z</time></trkpt>
<trkpt lat="54.2667580000" lon="-2.2073070000"><ele>541</ele><time>2013-11-17T13:37:24Z</time></trkpt>
<trkpt lat="54.2667730000" lon="-2.2072700000"><ele>541</ele><time>2013-11-17T13:37:26Z</time></trkpt>
<trkpt lat="54.2667890000" lon="-2.2072310000"><ele>554</ele><time>2013-11-17T13:37:28Z</time></trkpt>
<trkpt lat="54.2668000000" lon="-2.2071920000"><ele>554</ele><time>2013-11-17T13:37:30Z</time></trkpt>
<trkpt lat="54.2668160000" lon="-2.2071540000"><ele>554</ele><time>2013-11-17T13:37:32Z</time></trkpt>
<trkpt lat="54.2668320000" lon="-2.2071200000"><ele>554</ele><time>2013-11-17T13:37:34Z</time></trkpt>
<trkpt lat="54.2668470000" lon="-2.2070850000"><ele>554</ele><time>2013-11-17T13:37:36Z</time></trkpt>
<trkpt lat="54.2668600000" lon="-2.2070470000"><ele>554</ele><time>2013-11-17T13:37:38Z</time></trkpt>
<trkpt lat="54.2668720000" lon="-2.2070110000"><ele>554</ele><time>2013-11-17T13:37:40Z</time></trkpt>
<trkpt lat="54.2668860000" lon="-2.2069730000"><ele>554</ele><time>2013-11-17T13:37:42Z</time></trkpt>
<trkpt lat="54.2669000000" lon="-2.2069340000"><ele>554</ele><time>2013-11-17T13:37:44Z</time></trkpt>
<trkpt lat="54.2669130000" lon="-2.2068990000"><ele>554</ele><time>2013-11-17T13:37:45Z</time></trkpt>
<trkpt lat="54.2669280000" lon="-2.2068610000"><ele>554</ele><time>2013-11-17T13:37:48Z</time></trkpt>
<trkpt lat="54.2669410000" lon="-2.2068200000"><ele>554</ele><time>2013-11-17T13:37:50Z</time></trkpt>
<trkpt lat="54.2669510000" lon="-2.2067800000"><ele>554</ele><time>2013-11-17T13:37:51Z</time></trkpt>
<trkpt lat="54.2669640000" lon="-2.2067380000"><ele>554</ele><time>2013-11-17T13:37:54Z</time></trkpt>
<trkpt lat="54.2669790000" lon="-2.2066870000"><ele>554</ele><time>2013-11-17T13:37:56Z</time></trkpt>
<trkpt lat="54.2669840000" lon="-2.2066700000"><ele>554</ele><time>2013-11-17T13:37:57Z</time></trkpt>
<trkpt lat="54.2669980000" lon="-2.2066430000"><ele>554</ele><time>2013-11-17T13:37:59Z</time></trkpt>
<trkpt lat="54.2670130000" lon="-2.2066080000"><ele>554</ele><time>2013-11-17T13:38:01Z</time></trkpt>
<trkpt lat="54.2670260000" lon="-2.2065730000"><ele>554</ele><time>2013-11-17T13:38:03Z</time></trkpt>
<trkpt lat="54.2670380000" lon="-2.2065380000"><ele>554</ele><time>2013-11-17T13:38:05Z</time></trkpt>
<trkpt lat="54.2670520000" lon="-2.2065060000"><ele>554</ele><time>2013-11-17T13:38:07Z</time></trkpt>
<trkpt lat="54.2670680000" lon="-2.2064760000"><ele>554</ele><time>2013-11-17T13:38:09Z</time></trkpt>
<trkpt lat="54.2670820000" lon="-2.2064480000"><ele>554</ele><time>2013-11-17T13:38:11Z</time></trkpt>
<trkpt lat="54.2670990000" lon="-2.2064190000"><ele>554</ele><time>2013-11-17T13:38:13Z</time></trkpt>
<trkpt lat="54.2671200000" lon="-2.2063890000"><ele>554</ele><time>2013-11-17T13:38:15Z</time></trkpt>
<trkpt lat="54.2671440000" lon="-2.2063600000"><ele>554</ele><time>2013-11-17T13:38:16Z</time></trkpt>
<trkpt lat="54.2671670000" lon="-2.2063370000"><ele>554</ele><time>2013-11-17T13:38:19Z</time></trkpt>
<trkpt lat="54.2671850000" lon="-2.2063140000"><ele>554</ele><time>2013-11-17T13:38:21Z</time></trkpt>
<trkpt lat="54.2672050000" lon="-2.2062900000"><ele>554</ele><time>2013-11-17T13:38:22Z</time></trkpt>
<trkpt lat="54.2672240000" lon="-2.2062640000"><ele>554</ele><time>2013-11-17T13:38:25Z</time></trkpt>
<trkpt lat="54.2672410000" lon="-2.2062380000"><ele>554</ele><time>2013-11-17T13:38:27Z</time></trkpt>
<trkpt lat="54.2672610000" lon="-2.2062130000"><ele>554</ele><time>2013-11-17T13:38:28Z</time></trkpt>
<trkpt lat="54.2672760000" lon="-2.2061950000"><ele>554</ele><time>2013-11-17T13:38:31Z</time></trkpt>
<trkpt lat="54.2672950000" lon="-2.2061790000"><ele>554</ele><time>2013-11-17T13:38:33Z</time></trkpt>
<trkpt lat="54.2673140000" lon="-2.2061600000"><ele>554</ele><time>2013-11-17T13:38:35Z</time></trkpt>
<trkpt lat="54.2673340000" lon="-2.2061380000"><ele>554</ele><time>2013-11-17T13:38:37Z</time></trkpt>
<trkpt lat="54.2673530000" lon="-2.2061160000"><ele>554</ele><time>2013-11-17T13:38:39Z</time></trkpt>
<trkpt lat="54.2673720000" lon="-2.2060930000"><ele>554</ele><time>2013-11-17T13:38:41Z</time></trkpt>
<trkpt lat="54.2673880000" lon="-2.2060640000"><ele>554</ele><time>2013-11-17T13:38:43Z</time></trkpt>
<trkpt lat="54.2674080000" lon="-2.2060380000"><ele>554</ele><time>2013-11-17T13:38:45Z</time></trkpt>
<trkpt lat="54.2674270000" lon="-2.2060160000"><ele>554</ele><time>2013-11-17T13:38:47Z</time></trkpt>
<trkpt lat="54.2674460000" lon="-2.2059940000"><ele>554</ele><time>2013-11-17T13:38:49Z</time></trkpt>
<trkpt lat="54.2674670000" lon="-2.2059740000"><ele>554</ele><time>2013-11-17T13:38:51Z</time></trkpt>
<trkpt lat="54.2674890000" lon="-2.2059530000"><ele>554</ele><time>2013-11-17T13:38:53Z</time></trkpt>
<trkpt lat="54.2675080000" lon="-2.2059300000"><ele>554</ele><time>2013-11-17T13:38:55Z</time></trkpt>
<trkpt lat="54.2675320000" lon="-2.2059000000"><ele>554</ele><time>2013-11-17T13:38:57Z</time></trkpt>
<trkpt lat="54.2675520000" lon="-2.2058720000"><ele>554</ele><time>2013-11-17T13:38:59Z</time></trkpt>
<trkpt lat="54.2675760000" lon="-2.2058500000"><ele>554</ele><time>2013-11-17T13:39:01Z</time></trkpt>
<trkpt lat="54.2676000000" lon="-2.2058300000"><ele>554</ele><time>2013-11-17T13:39:03Z</time></trkpt>
<trkpt lat="54.2676230000" lon="-2.2058080000"><ele>554</ele><time>2013-11-17T13:39:05Z</time></trkpt>
<trkpt lat="54.2676480000" lon="-2.2057890000"><ele>554</ele><time>2013-11-17T13:39:07Z</time></trkpt>
<trkpt lat="54.2676730000" lon="-2.2057710000"><ele>554</ele><time>2013-11-17T13:39:09Z</time></trkpt>
<trkpt lat="54.2676940000" lon="-2.2057510000"><ele>561</ele><time>2013-11-17T13:39:11Z</time></trkpt>
<trkpt lat="54.2677130000" lon="-2.2057330000"><ele>561</ele><time>2013-11-17T13:39:13Z</time></trkpt>
<trkpt lat="54.2677400000" lon="-2.2057060000"><ele>561</ele><time>2013-11-17T13:39:16Z</time></trkpt>
<trkpt lat="54.2677640000" lon="-2.2056880000"><ele>561</ele><time>2013-11-17T13:39:18Z</time></trkpt>
<trkpt lat="54.2677870000" lon="-2.2056700000"><ele>561</ele><time>2013-11-17T13:39:20Z</time></trkpt>
<trkpt lat="54.2678070000" lon="-2.2056530000"><ele>561</ele><time>2013-11-17T13:39:22Z</time></trkpt>
<trkpt lat="54.2678300000" lon="-2.2056410000"><ele>561</ele><time>2013-11-17T13:39:24Z</time></trkpt>
<trkpt lat="54.2678520000" lon="-2.2056280000"><ele>561</ele><time>2013-11-17T13:39:26Z</time></trkpt>
<trkpt lat="54.2678710000" lon="-2.2056100000"><ele>561</ele><time>2013-11-17T13:39:28Z</time></trkpt>
<trkpt lat="54.2678880000" lon="-2.2055970000"><ele>561</ele><time>2013-11-17T13:39:30Z</time></trkpt>
<trkpt lat="54.2679120000" lon="-2.2055830000"><ele>561</ele><time>2013-11-17T13:39:32Z</time></trkpt>
<trkpt lat="54.2679310000" lon="-2.2055670000"><ele>561</ele><time>2013-11-17T13:39:34Z</time></trkpt>
<trkpt lat="54.2679520000" lon="-2.2055510000"><ele>561</ele><time>2013-11-17T13:39:36Z</time></trkpt>
<trkpt lat="54.2679720000" lon="-2.2055340000"><ele>561</ele><time>2013-11-17T13:39:38Z</time></trkpt>
<trkpt lat="54.2679900000" lon="-2.2055110000"><ele>561</ele><time>2013-11-17T13:39:40Z</time></trkpt>
<trkpt lat="54.2680120000" lon="-2.2054930000"><ele>561</ele><time>2013-11-17T13:39:42Z</time></trkpt>
<trkpt lat="54.2680300000" lon="-2.2054700000"><ele>561</ele><time>2013-11-17T13:39:44Z</time></trkpt>
<trkpt lat="54.2680500000" lon="-2.2054470000"><ele>561</ele><time>2013-11-17T13:39:46Z</time></trkpt>
<trkpt lat="54.2680680000" lon="-2.2054170000"><ele>561</ele><time>2013-11-17T13:39:48Z</time></trkpt>
<trkpt lat="54.2680830000" lon="-2.2053910000"><ele>561</ele><time>2013-11-17T13:39:50Z</time></trkpt>
<trkpt lat="54.2680990000" lon="-2.2053670000"><ele>561</ele><time>2013-11-17T13:39:52Z</time></trkpt>
<trkpt lat="54.2681200000" lon="-2.2053410000"><ele>561</ele><time>2013-11-17T13:39:54Z</time></trkpt>
<trkpt lat="54.2681380000" lon="-2.2053100000"><ele>561</ele><time>2013-11-17T13:39:55Z</time></trkpt>
<trkpt lat="54.2681550000" lon="-2.2052780000"><ele>561</ele><time>2013-11-17T13:39:58Z</time></trkpt>
<trkpt lat="54.2681710000" lon="-2.2052430000"><ele>561</ele><time>2013-11-17T13:40:00Z</time></trkpt>
<trkpt lat="54.2681860000" lon="-2.2052070000"><ele>561</ele><time>2013-11-17T13:40:01Z</time></trkpt>
<trkpt lat="54.2682000000" lon="-2.2051730000"><ele>561</ele><time>2013-11-17T13:40:04Z</time></trkpt>
<trkpt lat="54.2682190000" lon="-2.2051380000"><ele>561</ele><time>2013-11-17T13:40:06Z</time></trkpt>
<trkpt lat="54.2682370000" lon="-2.2051050000"><ele>561</ele><time>2013-11-17T13:40:07Z</time></trkpt>
<trkpt lat="54.2682580000" lon="-2.2050700000"><ele>561</ele><time>2013-11-17T13:40:10Z</time></trkpt>
<trkpt lat="54.2682750000" lon="-2.2050330000"><ele>561</ele><time>2013-11-17T13:40:12Z</time></trkpt>
<trkpt lat="54.2682960000" lon="-2.2050000000"><ele>561</ele><time>2013-11-17T13:40:14Z</time></trkpt>
<trkpt lat="54.2683150000" lon="-2.2049680000"><ele>561</ele><time>2013-11-17T13:40:16Z</time></trkpt>
<trkpt lat="54.2683360000" lon="-2.2049370000"><ele>561</ele><time>2013-11-17T13:40:18Z</time></trkpt>
<trkpt lat="54.2683580000" lon="-2.2049070000"><ele>561</ele><time>2013-11-17T13:40:20Z</time></trkpt>
<trkpt lat="54.2683790000" lon="-2.2048770000"><ele>561</ele><time>2013-11-17T13:40:22Z</time></trkpt>
<trkpt lat="54.2683960000" lon="-2.2048450000"><ele>561</ele><time>2013-11-17T13:40:24Z</time></trkpt>
<trkpt lat="54.2684160000" lon="-2.2048180000"><ele>561</ele><time>2013-11-17T13:40:26Z</time></trkpt>
<trkpt lat="54.2684380000" lon="-2.2047860000"><ele>561</ele><time>2013-11-17T13:40:28Z</time></trkpt>
<trkpt lat="54.2684560000" lon="-2.2047560000"><ele>561</ele><time>2013-11-17T13:40:30Z</time></trkpt>
<trkpt lat="54.2684740000" lon="-2.2047270000"><ele>561</ele><time>2013-11-17T13:40:32Z</time></trkpt>
<trkpt lat="54.2684920000" lon="-2.2046960000"><ele>561</ele><time>2013-11-17T13:40:34Z</time></trkpt>
<trkpt lat="54.2685080000" lon="-2.2046650000"><ele>561</ele><time>2013-11-17T13:40:36Z</time></trkpt>
<trkpt lat="54.2685260000" lon="-2.2046340000"><ele>561</ele><time>2013-11-17T13:40:38Z</time></trkpt>
<trkpt lat="54.2685470000" lon="-2.2046050000"><ele>561</ele><time>2013-11-17T13:40:40Z</time></trkpt>
<trkpt lat="54.2685670000" lon="-2.2045750000"><ele>561</ele><time>2013-11-17T13:40:42Z</time></trkpt>
<trkpt lat="54.2685860000" lon="-2.2045450000"><ele>561</ele><time>2013-11-17T13:40:44Z</time></trkpt>
<trkpt lat="54.2686040000" lon="-2.2045110000"><ele>561</ele><time>2013-11-17T13:40:46Z</time></trkpt>
<trkpt lat="54.2686210000" lon="-2.2044760000"><ele>561</ele><time>2013-11-17T13:40:48Z</time></trkpt>
<trkpt lat="54.2686370000" lon="-2.2044440000"><ele>561</ele><time>2013-11-17T13:40:50Z</time></trkpt>
<trkpt lat="54.2686540000" lon="-2.2044130000"><ele>561</ele><time>2013-11-17T13:40:52Z</time></trkpt>
<trkpt lat="54.2686700000" lon="-2.2043790000"><ele>561</ele><time>2013-11-17T13:40:54Z</time></trkpt>
<trkpt lat="54.2686880000" lon="-2.2043480000"><ele>561</ele><time>2013-11-17T13:40:56Z</time></trkpt>
<trkpt lat="54.2687080000" lon="-2.2043230000"><ele>561</ele><time>2013-11-17T13:40:57Z</time></trkpt>
<trkpt lat="54.2687280000" lon="-2.2042950000"><ele>561</ele><time>2013-11-17T13:41:00Z</time></trkpt>
<trkpt lat="54.2687470000" lon="-2.2042650000"><ele>561</ele><time>2013-11-17T13:41:02Z</time></trkpt>
<trkpt lat="54.2687670000" lon="-2.2042340000"><ele>561</ele><time>2013-11-17T13:41:03Z</time></trkpt>
<trkpt lat="54.2687840000" lon="-2.2042040000"><ele>561</ele><time>2013-11-17T13:41:06Z</time></trkpt>
<trkpt lat="54.2688000000" lon="-2.2041750000"><ele>566</ele><time>2013-11-17T13:41:08Z</time></trkpt>
<trkpt lat="54.2688120000" lon="-2.2041390000"><ele>566</ele><time>2013-11-17T13:41:09Z</time></trkpt>
<trkpt lat="54.2688280000" lon="-2.2040890000"><ele>566</ele><time>2013-11-17T13:41:13Z</time></trkpt>
<trkpt lat="54.2688470000" lon="-2.2040580000"><ele>566</ele><time>2013-11-17T13:41:15Z</time></trkpt>
<trkpt lat="54.2688660000" lon="-2.2040300000"><ele>566</ele><time>2013-11-17T13:41:17Z</time></trkpt>
<trkpt lat="54.2688840000" lon="-2.2039960000"><ele>566</ele><time>2013-11-17T13:41:19Z</time></trkpt>
<trkpt lat="54.2689020000" lon="-2.2039650000"><ele>566</ele><time>2013-11-17T13:41:21Z</time></trkpt>
<trkpt lat="54.2689220000" lon="-2.2039340000"><ele>566</ele><time>2013-11-17T13:41:23Z</time></trkpt>
<trkpt lat="54.2689410000" lon="-2.2039060000"><ele>566</ele><time>2013-11-17T13:41:25Z</time></trkpt>
<trkpt lat="54.2689600000" lon="-2.2038780000"><ele>566</ele><time>2013-11-17T13:41:27Z</time></trkpt>
<trkpt lat="54.2689790000" lon="-2.2038490000"><ele>566</ele><time>2013-11-17T13:41:28Z</time></trkpt>
<trkpt lat="54.2689970000" lon="-2.2038180000"><ele>566</ele><time>2013-11-17T13:41:31Z</time></trkpt>
<trkpt lat="54.2690150000" lon="-2.2037870000"><ele>566</ele><time>2013-11-17T13:41:33Z</time></trkpt>
<trkpt lat="54.2690320000" lon="-2.2037540000"><ele>566</ele><time>2013-11-17T13:41:34Z</time></trkpt>
<trkpt lat="54.2690530000" lon="-2.2037200000"><ele>566</ele><time>2013-11-17T13:41:37Z</time></trkpt>
<trkpt lat="54.2690730000" lon="-2.2036870000"><ele>566</ele><time>2013-11-17T13:41:39Z</time></trkpt>
<trkpt lat="54.2690920000" lon="-2.2036550000"><ele>566</ele><time>2013-11-17T13:41:40Z</time></trkpt>
<trkpt lat="54.2691100000" lon="-2.2036260000"><ele>566</ele><time>2013-11-17T13:41:43Z</time></trkpt>
<trkpt lat="54.2691280000" lon="-2.2035970000"><ele>566</ele><time>2013-11-17T13:41:45Z</time></trkpt>
<trkpt lat="54.2691470000" lon="-2.2035680000"><ele>566</ele><time>2013-11-17T13:41:47Z</time></trkpt>
<trkpt lat="54.2691640000" lon="-2.2035380000"><ele>566</ele><time>2013-11-17T13:41:49Z</time></trkpt>
<trkpt lat="54.2691830000" lon="-2.2035080000"><ele>566</ele><time>2013-11-17T13:41:51Z</time></trkpt>
<trkpt lat="54.2692040000" lon="-2.2034780000"><ele>566</ele><time>2013-11-17T13:41:53Z</time></trkpt>
<trkpt lat="54.2692240000" lon="-2.2034540000"><ele>566</ele><time>2013-11-17T13:41:55Z</time></trkpt>
<trkpt lat="54.2692450000" lon="-2.2034270000"><ele>566</ele><time>2013-11-17T13:41:57Z</time></trkpt>
<trkpt lat="54.2692660000" lon="-2.2033980000"><ele>566</ele><time>2013-11-17T13:41:59Z</time></trkpt>
<trkpt lat="54.2692850000" lon="-2.2033660000"><ele>566</ele><time>2013-11-17T13:42:01Z</time></trkpt>
<trkpt lat="54.2693060000" lon="-2.2033330000"><ele>566</ele><time>2013-11-17T13:42:03Z</time></trkpt>
<trkpt lat="54.2693250000" lon="-2.2033020000"><ele>566</ele><time>2013-11-17T13:42:05Z</time></trkpt>
<trkpt lat="54.2693440000" lon="-2.2032720000"><ele>566</ele><time>2013-11-17T13:42:07Z</time></trkpt>
<trkpt lat="54.2693610000" lon="-2.2032410000"><ele>566</ele><time>2013-11-17T13:42:09Z</time></trkpt>
<trkpt lat="54.2693780000" lon="-2.2032100000"><ele>566</ele><time>2013-11-17T13:42:11Z</time></trkpt>
<trkpt lat="54.2693960000" lon="-2.2031760000"><ele>566</ele><time>2013-11-17T13:42:13Z</time></trkpt>
<trkpt lat="54.2694130000" lon="-2.2031470000"><ele>566</ele><time>2013-11-17T13:42:15Z</time></trkpt>
<trkpt lat="54.2694290000" lon="-2.2031190000"><ele>566</ele><time>2013-11-17T13:42:17Z</time></trkpt>
<trkpt lat="54.2694500000" lon="-2.2030920000"><ele>566</ele><time>2013-11-17T13:42:19Z</time></trkpt>
<trkpt lat="54.2694700000" lon="-2.2030660000"><ele>566</ele><time>2013-11-17T13:42:21Z</time></trkpt>
<trkpt lat="54.2694880000" lon="-2.2030360000"><ele>577</ele><time>2013-11-17T13:42:23Z</time></trkpt>
<trkpt lat="54.2695060000" lon="-2.2030050000"><ele>577</ele><time>2013-11-17T13:42:25Z</time></trkpt>
<trkpt lat="54.2695260000" lon="-2.2029760000"><ele>577</ele><time>2013-11-17T13:42:27Z</time></trkpt>
<trkpt lat="54.2695440000" lon="-2.2029440000"><ele>577</ele><time>2013-11-17T13:42:29Z</time></trkpt>
<trkpt lat="54.2695630000" lon="-2.2029120000"><ele>577</ele><time>2013-11-17T13:42:31Z</time></trkpt>
<trkpt lat="54.2695810000" lon="-2.2028830000"><ele>577</ele><time>2013-11-17T13:42:33Z</time></trkpt>
<trkpt lat="54.2696020000" lon="-2.2028540000"><ele>577</ele><time>2013-11-17T13:42:35Z</time></trkpt>
<trkpt lat="54.2696200000" lon="-2.2028250000"><ele>577</ele><time>2013-11-17T13:42:36Z</time></trkpt>
<trkpt lat="54.2696350000" lon="-2.2027980000"><ele>577</ele><time>2013-11-17T13:42:39Z</time></trkpt>
<trkpt lat="54.2696510000" lon="-2.2027690000"><ele>577</ele><time>2013-11-17T13:42:41Z</time></trkpt>
<trkpt lat="54.2696680000" lon="-2.2027400000"><ele>577</ele><time>2013-11-17T13:42:42Z</time></trkpt>
<trkpt lat="54.2696840000" lon="-2.2027090000"><ele>577</ele><time>2013-11-17T13:42:45Z</time></trkpt>
<trkpt lat="54.2696960000" lon="-2.2026790000"><ele>577</ele><time>2013-11-17T13:42:47Z</time></trkpt>
<trkpt lat="54.2697100000" lon="-2.2026470000"><ele>577</ele><time>2013-11-17T13:42:48Z</time></trkpt>
<trkpt lat="54.2697250000" lon="-2.2026150000"><ele>577</ele><time>2013-11-17T13:42:51Z</time></trkpt>
<trkpt lat="54.2697420000" lon="-2.2025810000"><ele>577</ele><time>2013-11-17T13:42:53Z</time></trkpt>
<trkpt lat="54.2697570000" lon="-2.2025480000"><ele>577</ele><time>2013-11-17T13:42:55Z</time></trkpt>
<trkpt lat="54.2697740000" lon="-2.2025130000"><ele>577</ele><time>2013-11-17T13:42:57Z</time></trkpt>
<trkpt lat="54.2697920000" lon="-2.2024830000"><ele>577</ele><time>2013-11-17T13:42:59Z</time></trkpt>
<trkpt lat="54.2698100000" lon="-2.2024520000"><ele>577</ele><time>2013-11-17T13:43:01Z</time></trkpt>
<trkpt lat="54.2698250000" lon="-2.2024210000"><ele>577</ele><time>2013-11-17T13:43:03Z</time></trkpt>
<trkpt lat="54.2698410000" lon="-2.2023910000"><ele>577</ele><time>2013-11-17T13:43:05Z</time></trkpt>
<trkpt lat="54.2698610000" lon="-2.2023650000"><ele>577</ele><time>2013-11-17T13:43:07Z</time></trkpt>
<trkpt lat="54.2698770000" lon="-2.2023350000"><ele>577</ele><time>2013-11-17T13:43:09Z</time></trkpt>
<trkpt lat="54.2698950000" lon="-2.2023030000"><ele>577</ele><time>2013-11-17T13:43:11Z</time></trkpt>
<trkpt lat="54.2699120000" lon="-2.2022700000"><ele>577</ele><time>2013-11-17T13:43:13Z</time></trkpt>
<trkpt lat="54.2699290000" lon="-2.2022400000"><ele>577</ele><time>2013-11-17T13:43:15Z</time></trkpt>
<trkpt lat="54.2699480000" lon="-2.2022090000"><ele>577</ele><time>2013-11-17T13:43:17Z</time></trkpt>
<trkpt lat="54.2699660000" lon="-2.2021770000"><ele>577</ele><time>2013-11-17T13:43:19Z</time></trkpt>
<trkpt lat="54.2699830000" lon="-2.2021450000"><ele>577</ele><time>2013-11-17T13:43:21Z</time></trkpt>
<trkpt lat="54.2700000000" lon="-2.2021160000"><ele>577</ele><time>2013-11-17T13:43:23Z</time></trkpt>
<trkpt lat="54.2700210000" lon="-2.2020910000"><ele>577</ele><time>2013-11-17T13:43:25Z</time></trkpt>
<trkpt lat="54.2700390000" lon="-2.2020660000"><ele>577</ele><time>2013-11-17T13:43:27Z</time></trkpt>
<trkpt lat="54.2700580000" lon="-2.2020370000"><ele>577</ele><time>2013-11-17T13:43:29Z</time></trkpt>
<trkpt lat="54.2700790000" lon="-2.2020090000"><ele>577</ele><time>2013-11-17T13:43:31Z</time></trkpt>
<trkpt lat="54.2700980000" lon="-2.2019800000"><ele>577</ele><time>2013-11-17T13:43:33Z</time></trkpt>
<trkpt lat="54.2701180000" lon="-2.2019490000"><ele>577</ele><time>2013-11-17T13:43:35Z</time></trkpt>
<trkpt lat="54.2701380000" lon="-2.2019190000"><ele>577</ele><time>2013-11-17T13:43:37Z</time></trkpt>
<trkpt lat="54.2701600000" lon="-2.2018890000"><ele>577</ele><time>2013-11-17T13:43:38Z</time></trkpt>
<trkpt lat="54.2701790000" lon="-2.2018590000"><ele>577</ele><time>2013-11-17T13:43:41Z</time></trkpt>
<trkpt lat="54.2701970000" lon="-2.2018290000"><ele>577</ele><time>2013-11-17T13:43:43Z</time></trkpt>
<trkpt lat="54.2702170000" lon="-2.2017970000"><ele>577</ele><time>2013-11-17T13:43:44Z</time></trkpt>
<trkpt lat="54.2702380000" lon="-2.2017610000"><ele>577</ele><time>2013-11-17T13:43:47Z</time></trkpt>
<trkpt lat="54.2702590000" lon="-2.2017290000"><ele>577</ele><time>2013-11-17T13:43:49Z</time></trkpt>
<trkpt lat="54.2702800000" lon="-2.2016980000"><ele>577</ele><time>2013-11-17T13:43:51Z</time></trkpt>
<trkpt lat="54.2702970000" lon="-2.2016720000"><ele>577</ele><time>2013-11-17T13:43:53Z</time></trkpt>
<trkpt lat="54.2703140000" lon="-2.2016500000"><ele>577</ele><time>2013-11-17T13:43:55Z</time></trkpt>
<trkpt lat="54.2703390000" lon="-2.2016060000"><ele>577</ele><time>2013-11-17T13:43:58Z</time></trkpt>
<trkpt lat="54.2703630000" lon="-2.2015670000"><ele>577</ele><time>2013-11-17T13:44:00Z</time></trkpt>
<trkpt lat="54.2703880000" lon="-2.2015160000"><ele>577</ele><time>2013-11-17T13:44:03Z</time></trkpt>
<trkpt lat="54.2704220000" lon="-2.2014740000"><ele>577</ele><time>2013-11-17T13:44:07Z</time></trkpt>
<trkpt lat="54.2704620000" lon="-2.2014300000"><ele>577</ele><time>2013-11-17T13:44:09Z</time></trkpt>
<trkpt lat="54.2705060000" lon="-2.2013880000"><ele>577</ele><time>2013-11-17T13:44:13Z</time></trkpt>
<trkpt lat="54.2705370000" lon="-2.2013340000"><ele>577</ele><time>2013-11-17T13:44:15Z</time></trkpt>
<trkpt lat="54.2705670000" lon="-2.2012730000"><ele>577</ele><time>2013-11-17T13:44:20Z</time></trkpt>
<trkpt lat="54.2705970000" lon="-2.2012170000"><ele>577</ele><time>2013-11-17T13:44:23Z</time></trkpt>
<trkpt lat="54.2706230000" lon="-2.2011510000"><ele>577</ele><time>2013-11-17T13:44:27Z</time></trkpt>
<trkpt lat="54.2706500000" lon="-2.2010860000"><ele>570</ele><time>2013-11-17T13:44:30Z</time></trkpt>
<trkpt lat="54.2706830000" lon="-2.2010470000"><ele>570</ele><time>2013-11-17T13:44:33Z</time></trkpt>
<trkpt lat="54.2707120000" lon="-2.2009890000"><ele>570</ele><time>2013-11-17T13:44:37Z</time></trkpt>
<trkpt lat="54.2707370000" lon="-2.2009250000"><ele>570</ele><time>2013-11-17T13:44:41Z</time></trkpt>
<trkpt lat="54.2707800000" lon="-2.2008880000"><ele>570</ele><time>2013-11-17T13:44:44Z</time></trkpt>
<trkpt lat="54.2708190000" lon="-2.2008530000"><ele>570</ele><time>2013-11-17T13:44:47Z</time></trkpt>
<trkpt lat="54.2708560000" lon="-2.2007960000"><ele>570</ele><time>2013-11-17T13:44:51Z</time></trkpt>
<trkpt lat="54.2708850000" lon="-2.2007240000"><ele>570</ele><time>2013-11-17T13:44:55Z</time></trkpt>
<trkpt lat="54.2709150000" lon="-2.2006550000"><ele>570</ele><time>2013-11-17T13:44:59Z</time></trkpt>
<trkpt lat="54.2709580000" lon="-2.2005960000"><ele>570</ele><time>2013-11-17T13:45:03Z</time></trkpt>
<trkpt lat="54.2709930000" lon="-2.2005550000"><ele>570</ele><time>2013-11-17T13:45:06Z</time></trkpt>
<trkpt lat="54.2710280000" lon="-2.2005160000"><ele>570</ele><time>2013-11-17T13:45:09Z</time></trkpt>
<trkpt lat="54.2710600000" lon="-2.2004800000"><ele>570</ele><time>2013-11-17T13:45:12Z</time></trkpt>
<trkpt lat="54.2711070000" lon="-2.2004100000"><ele>570</ele><time>2013-11-17T13:45:17Z</time></trkpt>
<trkpt lat="54.2711470000" lon="-2.2003640000"><ele>570</ele><time>2013-11-17T13:45:20Z</time></trkpt>
<trkpt lat="54.2711810000" lon="-2.2003260000"><ele>570</ele><time>2013-11-17T13:45:23Z</time></trkpt>
<trkpt lat="54.2712230000" lon="-2.2002740000"><ele>570</ele><time>2013-11-17T13:45:28Z</time></trkpt>
<trkpt lat="54.2712520000" lon="-2.2002160000"><ele>570</ele><time>2013-11-17T13:45:32Z</time></trkpt>
<trkpt lat="54.2712810000" lon="-2.2001560000"><ele>570</ele><time>2013-11-17T13:45:35Z</time></trkpt>
<trkpt lat="54.2713150000" lon="-2.2001040000"><ele>585</ele><time>2013-11-17T13:45:38Z</time></trkpt>
<trkpt lat="54.2713510000" lon="-2.2000570000"><ele>585</ele><time>2013-11-17T13:45:41Z</time></trkpt>
<trkpt lat="54.2713800000" lon="-2.2000070000"><ele>585</ele><time>2013-11-17T13:45:44Z</time></trkpt>
<trkpt lat="54.2714070000" lon="-2.1999520000"><ele>585</ele><time>2013-11-17T13:45:47Z</time></trkpt>
<trkpt lat="54.2714360000" lon="-2.1999070000"><ele>585</ele><time>2013-11-17T13:45:51Z</time></trkpt>
<trkpt lat="54.2714690000" lon="-2.1998480000"><ele>585</ele><time>2013-11-17T13:45:55Z</time></trkpt>
<trkpt lat="54.2715110000" lon="-2.1997770000"><ele>585</ele><time>2013-11-17T13:45:59Z</time></trkpt>
<trkpt lat="54.2715480000" lon="-2.1997070000"><ele>585</ele><time>2013-11-17T13:46:03Z</time></trkpt>
<trkpt lat="54.2715780000" lon="-2.1996360000"><ele>585</ele><time>2013-11-17T13:46:07Z</time></trkpt>
<trkpt lat="54.2716080000" lon="-2.1995670000"><ele>585</ele><time>2013-11-17T13:46:11Z</time></trkpt>
<trkpt lat="54.2716380000" lon="-2.1995070000"><ele>585</ele><time>2013-11-17T13:46:14Z</time></trkpt>
<trkpt lat="54.2716800000" lon="-2.1994500000"><ele>585</ele><time>2013-11-17T13:46:18Z</time></trkpt>
<trkpt lat="54.2717200000" lon="-2.1994120000"><ele>585</ele><time>2013-11-17T13:46:21Z</time></trkpt>
<trkpt lat="54.2717540000" lon="-2.1993720000"><ele>585</ele><time>2013-11-17T13:46:24Z</time></trkpt>
<trkpt lat="54.2717760000" lon="-2.1993180000"><ele>585</ele><time>2013-11-17T13:46:27Z</time></trkpt>
<trkpt lat="54.2718050000" lon="-2.1992600000"><ele>585</ele><time>2013-11-17T13:46:31Z</time></trkpt>
<trkpt lat="54.2718390000" lon="-2.1992040000"><ele>585</ele><time>2013-11-17T13:46:35Z</time></trkpt>
<trkpt lat="54.2718600000" lon="-2.1991580000"><ele>585</ele><time>2013-11-17T13:46:38Z</time></trkpt>
<trkpt lat="54.2718880000" lon="-2.1991090000"><ele>585</ele><time>2013-11-17T13:46:41Z</time></trkpt>
<trkpt lat="54.2719220000" lon="-2.1990640000"><ele>585</ele><time>2013-11-17T13:46:44Z</time></trkpt>
<trkpt lat="54.2719530000" lon="-2.1990080000"><ele>585</ele><time>2013-11-17T13:46:48Z</time></trkpt>
<trkpt lat="54.2719910000" lon="-2.1989510000"><ele>585</ele><time>2013-11-17T13:46:52Z</time></trkpt>
<trkpt lat="54.2720240000" lon="-2.1988840000"><ele>585</ele><time>2013-11-17T13:46:56Z</time></trkpt>
<trkpt lat="54.2720580000" lon="-2.1988190000"><ele>585</ele><time>2013-11-17T13:47:00Z</time></trkpt>
<trkpt lat="54.2720910000" lon="-2.1987790000"><ele>585</ele><time>2013-11-17T13:47:03Z</time></trkpt>
<trkpt lat="54.2721300000" lon="-2.1987400000"><ele>585</ele><time>2013-11-17T13:47:06Z</time></trkpt>
<trkpt lat="54.2721680000" lon="-2.1987010000"><ele>585</ele><time>2013-11-17T13:47:09Z</time></trkpt>
<trkpt lat="54.2721960000" lon="-2.1986550000"><ele>585</ele><time>2013-11-17T13:47:12Z</time></trkpt>
<trkpt lat="54.2722230000" lon="-2.1986050000"><ele>585</ele><time>2013-11-17T13:47:15Z</time></trkpt>
<trkpt lat="54.2722510000" lon="-2.1985600000"><ele>585</ele><time>2013-11-17T13:47:18Z</time></trkpt>
<trkpt lat="54.2722710000" lon="-2.1985280000"><ele>585</ele><time>2013-11-17T13:47:20Z</time></trkpt>
<trkpt lat="54.2722930000" lon="-2.1984960000"><ele>585</ele><time>2013-11-17T13:47:22Z</time></trkpt>
<trkpt lat="54.2723170000" lon="-2.1984650000"><ele>585</ele><time>2013-11-17T13:47:23Z</time></trkpt>
<trkpt lat="54.2723360000" lon="-2.1984320000"><ele>585</ele><time>2013-11-17T13:47:26Z</time></trkpt>
<trkpt lat="54.2723550000" lon="-2.1983980000"><ele>585</ele><time>2013-11-17T13:47:28Z</time></trkpt>
<trkpt lat="54.2723750000" lon="-2.1983660000"><ele>585</ele><time>2013-11-17T13:47:29Z</time></trkpt>
<trkpt lat="54.2723960000" lon="-2.1983330000"><ele>585</ele><time>2013-11-17T13:47:32Z</time></trkpt>
<trkpt lat="54.2724130000" lon="-2.1983020000"><ele>585</ele><time>2013-11-17T13:47:34Z</time></trkpt>
<trkpt lat="54.2724370000" lon="-2.1982710000"><ele>585</ele><time>2013-11-17T13:47:35Z</time></trkpt>
<trkpt lat="54.2724610000" lon="-2.1982410000"><ele>585</ele><time>2013-11-17T13:47:38Z</time></trkpt>
<trkpt lat="54.2724800000" lon="-2.1982060000"><ele>585</ele><time>2013-11-17T13:47:40Z</time></trkpt>
<trkpt lat="54.2724990000" lon="-2.1981770000"><ele>585</ele><time>2013-11-17T13:47:42Z</time></trkpt>
<trkpt lat="54.2725190000" lon="-2.1981430000"><ele>585</ele><time>2013-11-17T13:47:44Z</time></trkpt>
<trkpt lat="54.2725410000" lon="-2.1981000000"><ele>585</ele><time>2013-11-17T13:47:47Z</time></trkpt>
<trkpt lat="54.2725640000" lon="-2.1980630000"><ele>585</ele><time>2013-11-17T13:47:50Z</time></trkpt>
<trkpt lat="54.2725860000" lon="-2.1980220000"><ele>565</ele><time>2013-11-17T13:47:53Z</time></trkpt>
<trkpt lat="54.2726100000" lon="-2.1979880000"><ele>565</ele><time>2013-11-17T13:47:56Z</time></trkpt>
<trkpt lat="54.2726310000" lon="-2.1979590000"><ele>565</ele><time>2013-11-17T13:47:58Z</time></trkpt>
<trkpt lat="54.2726530000" lon="-2.1979310000"><ele>565</ele><time>2013-11-17T13:48:00Z</time></trkpt>
<trkpt lat="54.2726710000" lon="-2.1979060000"><ele>565</ele><time>2013-11-17T13:48:02Z</time></trkpt>
<trkpt lat="54.2726910000" lon="-2.1978760000"><ele>565</ele><time>2013-11-17T13:48:04Z</time></trkpt>
<trkpt lat="54.2727130000" lon="-2.1978460000"><ele>565</ele><time>2013-11-17T13:48:06Z</time></trkpt>
<trkpt lat="54.2727330000" lon="-2.1978160000"><ele>565</ele><time>2013-11-17T13:48:08Z</time></trkpt>
<trkpt lat="54.2727520000" lon="-2.1977860000"><ele>565</ele><time>2013-11-17T13:48:10Z</time></trkpt>
<trkpt lat="54.2727740000" lon="-2.1977550000"><ele>565</ele><time>2013-11-17T13:48:12Z</time></trkpt>
<trkpt lat="54.2727950000" lon="-2.1977210000"><ele>565</ele><time>2013-11-17T13:48:14Z</time></trkpt>
<trkpt lat="54.2728160000" lon="-2.1976890000"><ele>565</ele><time>2013-11-17T13:48:16Z</time></trkpt>
<trkpt lat="54.2728360000" lon="-2.1976590000"><ele>565</ele><time>2013-11-17T13:48:18Z</time></trkpt>
<trkpt lat="54.2728540000" lon="-2.1976270000"><ele>565</ele><time>2013-11-17T13:48:20Z</time></trkpt>
<trkpt lat="54.2728740000" lon="-2.1975970000"><ele>565</ele><time>2013-11-17T13:48:22Z</time></trkpt>
<trkpt lat="54.2728960000" lon="-2.1975630000"><ele>565</ele><time>2013-11-17T13:48:24Z</time></trkpt>
<trkpt lat="54.2729180000" lon="-2.1975330000"><ele>565</ele><time>2013-11-17T13:48:25Z</time></trkpt>
<trkpt lat="54.2729390000" lon="-2.1975010000"><ele>565</ele><time>2013-11-17T13:48:28Z</time></trkpt>
<trkpt lat="54.2729590000" lon="-2.1974680000"><ele>565</ele><time>2013-11-17T13:48:30Z</time></trkpt>
<trkpt lat="54.2729780000" lon="-2.1974410000"><ele>565</ele><time>2013-11-17T13:48:31Z</time></trkpt>
<trkpt lat="54.2729990000" lon="-2.1973970000"><ele>565</ele><time>2013-11-17T13:48:35Z</time></trkpt>
<trkpt lat="54.2730150000" lon="-2.1973660000"><ele>565</ele><time>2013-11-17T13:48:37Z</time></trkpt>
<trkpt lat="54.2730360000" lon="-2.1973350000"><ele>565</ele><time>2013-11-17T13:48:39Z</time></trkpt>
<trkpt lat="54.2730600000" lon="-2.1973040000"><ele>565</ele><time>2013-11-17T13:48:41Z</time></trkpt>
<trkpt lat="54.2730830000" lon="-2.1972750000"><ele>565</ele><time>2013-11-17T13:48:43Z</time></trkpt>
<trkpt lat="54.2731040000" lon="-2.1972450000"><ele>589</ele><time>2013-11-17T13:48:45Z</time></trkpt>
<trkpt lat="54.2731220000" lon="-2.1972130000"><ele>589</ele><time>2013-11-17T13:48:47Z</time></trkpt>
<trkpt lat="54.2731410000" lon="-2.1971870000"><ele>589</ele><time>2013-11-17T13:48:49Z</time></trkpt>
<trkpt lat="54.2731640000" lon="-2.1971610000"><ele>589</ele><time>2013-11-17T13:48:51Z</time></trkpt>
<trkpt lat="54.2731860000" lon="-2.1971330000"><ele>589</ele><time>2013-11-17T13:48:53Z</time></trkpt>
<trkpt lat="54.2732080000" lon="-2.1970900000"><ele>589</ele><time>2013-11-17T13:48:58Z</time></trkpt>
<trkpt lat="54.2732330000" lon="-2.1970410000"><ele>589</ele><time>2013-11-17T13:49:02Z</time></trkpt>
<trkpt lat="54.2732610000" lon="-2.1969890000"><ele>589</ele><time>2013-11-17T13:49:05Z</time></trkpt>
<trkpt lat="54.2732890000" lon="-2.1969430000"><ele>589</ele><time>2013-11-17T13:49:08Z</time></trkpt>
<trkpt lat="54.2733250000" lon="-2.1968820000"><ele>589</ele><time>2013-11-17T13:49:13Z</time></trkpt>
<trkpt lat="54.2733570000" lon="-2.1968280000"><ele>589</ele><time>2013-11-17T13:49:17Z</time></trkpt>
<trkpt lat="54.2733890000" lon="-2.1967900000"><ele>589</ele><time>2013-11-17T13:49:20Z</time></trkpt>
<trkpt lat="54.2734140000" lon="-2.1967520000"><ele>589</ele><time>2013-11-17T13:49:23Z</time></trkpt>
<trkpt lat="54.2734430000" lon="-2.1967020000"><ele>589</ele><time>2013-11-17T13:49:27Z</time></trkpt>
<trkpt lat="54.2734670000" lon="-2.1966620000"><ele>589</ele><time>2013-11-17T13:49:30Z</time></trkpt>
<trkpt lat="54.2734910000" lon="-2.1966210000"><ele>589</ele><time>2013-11-17T13:49:33Z</time></trkpt>
<trkpt lat="54.2735190000" lon="-2.1965800000"><ele>589</ele><time>2013-11-17T13:49:37Z</time></trkpt>
<trkpt lat="54.2735460000" lon="-2.1965290000"><ele>589</ele><time>2013-11-17T13:49:41Z</time></trkpt>
<trkpt lat="54.2735820000" lon="-2.1964890000"><ele>589</ele><time>2013-11-17T13:49:46Z</time></trkpt>
<trkpt lat="54.2736290000" lon="-2.1964990000"><ele>589</ele><time>2013-11-17T13:49:55Z</time></trkpt>
<trkpt lat="54.2736570000" lon="-2.1965110000"><ele>589</ele><time>2013-11-17T13:50:22Z</time></trkpt>
<trkpt lat="54.2737130000" lon="-2.1965020000"><ele>589</ele><time>2013-11-17T13:50:33Z</time></trkpt>
<trkpt lat="54.2737440000" lon="-2.1965050000"><ele>589</ele><time>2013-11-17T13:50:36Z</time></trkpt>
<trkpt lat="54.2737770000" lon="-2.1965060000"><ele>589</ele><time>2013-11-17T13:50:39Z</time></trkpt>
<trkpt lat="54.2738100000" lon="-2.1964880000"><ele>589</ele><time>2013-11-17T13:50:42Z</time></trkpt>
<trkpt lat="54.2738410000" lon="-2.1964820000"><ele>589</ele><time>2013-11-17T13:50:45Z</time></trkpt>
<trkpt lat="54.2738730000" lon="-2.1964800000"><ele>589</ele><time>2013-11-17T13:50:48Z</time></trkpt>
<trkpt lat="54.2739030000" lon="-2.1964880000"><ele>589</ele><time>2013-11-17T13:50:51Z</time></trkpt>
<trkpt lat="54.2739420000" lon="-2.1964950000"><ele>589</ele><time>2013-11-17T13:50:54Z</time></trkpt>
<trkpt lat="54.2739870000" lon="-2.1965050000"><ele>589</ele><time>2013-11-17T13:51:01Z</time></trkpt>
<trkpt lat="54.2740320000" lon="-2.1964950000"><ele>589</ele><time>2013-11-17T13:51:05Z</time></trkpt>
<trkpt lat="54.2740790000" lon="-2.1964880000"><ele>589</ele><time>2013-11-17T13:51:09Z</time></trkpt>
<trkpt lat="54.2741190000" lon="-2.1964820000"><ele>589</ele><time>2013-11-17T13:51:12Z</time></trkpt>
<trkpt lat="54.2741550000" lon="-2.1964800000"><ele>589</ele><time>2013-11-17T13:51:14Z</time></trkpt>
<trkpt lat="54.2741960000" lon="-2.1964750000"><ele>589</ele><time>2013-11-17T13:51:18Z</time></trkpt>
<trkpt lat="54.2742340000" lon="-2.1964620000"><ele>589</ele><time>2013-11-17T13:51:20Z</time></trkpt>
<trkpt lat="54.2742660000" lon="-2.1964460000"><ele>589</ele><time>2013-11-17T13:51:24Z</time></trkpt>
<trkpt lat="54.2743010000" lon="-2.1964190000"><ele>589</ele><time>2013-11-17T13:51:28Z</time></trkpt>
<trkpt lat="54.2743310000" lon="-2.1963960000"><ele>589</ele><time>2013-11-17T13:51:31Z</time></trkpt>
<trkpt lat="54.2743630000" lon="-2.1963700000"><ele>589</ele><time>2013-11-17T13:51:34Z</time></trkpt>
<trkpt lat="54.2743960000" lon="-2.1963420000"><ele>589</ele><time>2013-11-17T13:51:37Z</time></trkpt>
<trkpt lat="54.2744390000" lon="-2.1963210000"><ele>589</ele><time>2013-11-17T13:51:41Z</time></trkpt>
<trkpt lat="54.2744720000" lon="-2.1963170000"><ele>589</ele><time>2013-11-17T13:51:45Z</time></trkpt>
<trkpt lat="54.2745060000" lon="-2.1963050000"><ele>589</ele><time>2013-11-17T13:51:49Z</time></trkpt>
<trkpt lat="54.2745330000" lon="-2.1962990000"><ele>589</ele><time>2013-11-17T13:51:51Z</time></trkpt>
<trkpt lat="54.2745620000" lon="-2.1962970000"><ele>589</ele><time>2013-11-17T13:51:55Z</time></trkpt>
<trkpt lat="54.2746200000" lon="-2.1963030000"><ele>589</ele><time>2013-11-17T13:52:05Z</time></trkpt>
<trkpt lat="54.2746380000" lon="-2.1963280000"><ele>589</ele><time>2013-11-17T13:52:08Z</time></trkpt>
<trkpt lat="54.2746530000" lon="-2.1963580000"><ele>589</ele><time>2013-11-17T13:52:10Z</time></trkpt>
<trkpt lat="54.2746700000" lon="-2.1963890000"><ele>589</ele><time>2013-11-17T13:52:14Z</time></trkpt>
<trkpt lat="54.2746860000" lon="-2.1964220000"><ele>589</ele><time>2013-11-17T13:52:16Z</time></trkpt>
<trkpt lat="54.2747040000" lon="-2.1964540000"><ele>589</ele><time>2013-11-17T13:52:20Z</time></trkpt>
<trkpt lat="54.2747220000" lon="-2.1964830000"><ele>589</ele><time>2013-11-17T13:52:22Z</time></trkpt>
<trkpt lat="54.2747420000" lon="-2.1965150000"><ele>589</ele><time>2013-11-17T13:52:26Z</time></trkpt>
<trkpt lat="54.2747590000" lon="-2.1965390000"><ele>589</ele><time>2013-11-17T13:52:29Z</time></trkpt>
<trkpt lat="54.2747770000" lon="-2.1965720000"><ele>589</ele><time>2013-11-17T13:52:32Z</time></trkpt>
<trkpt lat="54.2747960000" lon="-2.1966060000"><ele>589</ele><time>2013-11-17T13:52:35Z</time></trkpt>
<trkpt lat="54.2748120000" lon="-2.1966260000"><ele>589</ele><time>2013-11-17T13:52:37Z</time></trkpt>
<trkpt lat="54.2748280000" lon="-2.1966420000"><ele>589</ele><time>2013-11-17T13:52:39Z</time></trkpt>
<trkpt lat="54.2748510000" lon="-2.1966490000"><ele>589</ele><time>2013-11-17T13:52:41Z</time></trkpt>
<trkpt lat="54.2748730000" lon="-2.1966270000"><ele>589</ele><time>2013-11-17T13:52:45Z</time></trkpt>
<trkpt lat="54.2748910000" lon="-2.1965960000"><ele>608</ele><time>2013-11-17T13:52:48Z</time></trkpt>
<trkpt lat="54.2749040000" lon="-2.1965720000"><ele>608</ele><time>2013-11-17T13:52:50Z</time></trkpt>
<trkpt lat="54.2749340000" lon="-2.1965290000"><ele>608</ele><time>2013-11-17T13:52:57Z</time></trkpt>
<trkpt lat="54.2749540000" lon="-2.1965060000"><ele>608</ele><time>2013-11-17T13:53:00Z</time></trkpt>
<trkpt lat="54.2749710000" lon="-2.1964810000"><ele>608</ele><time>2013-11-17T13:53:02Z</time></trkpt>
<trkpt lat="54.2749840000" lon="-2.1964520000"><ele>608</ele><time>2013-11-17T13:53:04Z</time></trkpt>
<trkpt lat="54.2750030000" lon="-2.1964190000"><ele>608</ele><time>2013-11-17T13:53:07Z</time></trkpt>
<trkpt lat="54.2750210000" lon="-2.1963860000"><ele>608</ele><time>2013-11-17T13:53:10Z</time></trkpt>
<trkpt lat="54.2750360000" lon="-2.1963460000"><ele>608</ele><time>2013-11-17T13:53:13Z</time></trkpt>
<trkpt lat="54.2750560000" lon="-2.1962940000"><ele>608</ele><time>2013-11-17T13:53:17Z</time></trkpt>
<trkpt lat="54.2750690000" lon="-2.1962250000"><ele>608</ele><time>2013-11-17T13:53:22Z</time></trkpt>
<trkpt lat="54.2750910000" lon="-2.1961620000"><ele>608</ele><time>2013-11-17T13:53:27Z</time></trkpt>
<trkpt lat="54.2751220000" lon="-2.1961200000"><ele>608</ele><time>2013-11-17T13:53:31Z</time></trkpt>
<trkpt lat="54.2751540000" lon="-2.1960760000"><ele>608</ele><time>2013-11-17T13:53:34Z</time></trkpt>
<trkpt lat="54.2751850000" lon="-2.1960410000"><ele>608</ele><time>2013-11-17T13:53:37Z</time></trkpt>
<trkpt lat="54.2752190000" lon="-2.1960030000"><ele>608</ele><time>2013-11-17T13:53:40Z</time></trkpt>
<trkpt lat="54.2752550000" lon="-2.1959780000"><ele>608</ele><time>2013-11-17T13:53:43Z</time></trkpt>
<trkpt lat="54.2752810000" lon="-2.1959440000"><ele>608</ele><time>2013-11-17T13:53:46Z</time></trkpt>
<trkpt lat="54.2753030000" lon="-2.1959040000"><ele>608</ele><time>2013-11-17T13:53:49Z</time></trkpt>
<trkpt lat="54.2753350000" lon="-2.1958750000"><ele>608</ele><time>2013-11-17T13:53:52Z</time></trkpt>
<trkpt lat="54.2753640000" lon="-2.1958340000"><ele>608</ele><time>2013-11-17T13:53:55Z</time></trkpt>
<trkpt lat="54.2753900000" lon="-2.1957980000"><ele>608</ele><time>2013-11-17T13:53:58Z</time></trkpt>
<trkpt lat="54.2754210000" lon="-2.1957690000"><ele>608</ele><time>2013-11-17T13:54:01Z</time></trkpt>
<trkpt lat="54.2754460000" lon="-2.1957500000"><ele>608</ele><time>2013-11-17T13:54:03Z</time></trkpt>
<trkpt lat="54.2754690000" lon="-2.1957250000"><ele>608</ele><time>2013-11-17T13:54:05Z</time></trkpt>
<trkpt lat="54.2754910000" lon="-2.1957010000"><ele>608</ele><time>2013-11-17T13:54:07Z</time></trkpt>
<trkpt lat="54.2755210000" lon="-2.1956780000"><ele>608</ele><time>2013-11-17T13:54:09Z</time></trkpt>
<trkpt lat="54.2755500000" lon="-2.1956520000"><ele>608</ele><time>2013-11-17T13:54:12Z</time></trkpt>
<trkpt lat="54.2755810000" lon="-2.1956310000"><ele>608</ele><time>2013-11-17T13:54:15Z</time></trkpt>
<trkpt lat="54.2756210000" lon="-2.1956120000"><ele>608</ele><time>2013-11-17T13:54:20Z</time></trkpt>
<trkpt lat="54.2756500000" lon="-2.1955830000"><ele>608</ele><time>2013-11-17T13:54:23Z</time></trkpt>
<trkpt lat="54.2756800000" lon="-2.1955420000"><ele>608</ele><time>2013-11-17T13:54:27Z</time></trkpt>
<trkpt lat="54.2757140000" lon="-2.1955180000"><ele>608</ele><time>2013-11-17T13:54:31Z</time></trkpt>
<trkpt lat="54.2757460000" lon="-2.1954800000"><ele>608</ele><time>2013-11-17T13:54:35Z</time></trkpt>
<trkpt lat="54.2757720000" lon="-2.1954480000"><ele>608</ele><time>2013-11-17T13:54:38Z</time></trkpt>
<trkpt lat="54.2758270000" lon="-2.1953830000"><ele>608</ele><time>2013-11-17T13:55:05Z</time></trkpt>
<trkpt lat="54.2758500000" lon="-2.1953710000"><ele>608</ele><time>2013-11-17T13:58:35Z</time></trkpt>
<trkpt lat="54.2758500000" lon="-2.1953700000"><ele>608</ele><time>2013-11-17T13:58:36Z</time></trkpt>
<trkpt lat="54.2758490000" lon="-2.1953700000"><ele>608</ele></trkpt>
<trkpt lat="54.2758490000" lon="-2.1953700000"><ele>608</ele><time>2013-11-17T13:58:38Z</time></trkpt>
<trkpt lat="54.2758490000" lon="-2.1953670000"><ele>608</ele><time>2013-11-17T13:58:39Z</time></trkpt>
<trkpt lat="54.2758430000" lon="-2.1953710000"><ele>608</ele><time>2013-11-17T13:58:52Z</time></trkpt>
<trkpt lat="54.2758430000" lon="-2.1953710000"><ele>608</ele><time>2013-11-17T13:58:53Z</time></trkpt>
<trkpt lat="54.2758430000" lon="-2.1953710000"><ele>608</ele><time>2013-11-17T13:58:54Z</time></trkpt>
<trkpt lat="54.2758430000" lon="-2.1953700000"><ele>608</ele><time>2013-11-17T13:58:55Z</time></trkpt>
<trkpt lat="54.2758420000" lon="-2.1953700000"><ele>608</ele><time>2013-11-17T13:58:56Z</time></trkpt>
<trkpt lat="54.2758400000" lon="-2.1953710000"><ele>608</ele><time>2013-11-17T13:58:57Z</time></trkpt>
<trkpt lat="54.2758390000" lon="-2.1953700000"><ele>608</ele><time>2013-11-17T13:58:58Z</time></trkpt>
<trkpt lat="54.2758470000" lon="-2.1953000000"><ele>608</ele><time>2013-11-17T13:59:07Z</time></trkpt>
<trkpt lat="54.2758540000" lon="-2.1952410000"><ele>608</ele><time>2013-11-17T13:59:11Z</time></trkpt>
<trkpt lat="54.2758660000" lon="-2.1951910000"><ele>608</ele><time>2013-11-17T13:59:14Z</time></trkpt>
<trkpt lat="54.2758800000" lon="-2.1951390000"><ele>608</ele><time>2013-11-17T13:59:17Z</time></trkpt>
<trkpt lat="54.2758910000" lon="-2.1950860000"><ele>608</ele><time>2013-11-17T13:59:20Z</time></trkpt>
<trkpt lat="54.2758960000" lon="-2.1950460000"><ele>608</ele><time>2013-11-17T13:59:22Z</time></trkpt>
<trkpt lat="54.2759060000" lon="-2.1950000000"><ele>597</ele><time>2013-11-17T13:59:29Z</time></trkpt>
<trkpt lat="54.2759100000" lon="-2.1949550000"><ele>597</ele><time>2013-11-17T13:59:32Z</time></trkpt>
<trkpt lat="54.2759160000" lon="-2.1949130000"><ele>597</ele><time>2013-11-17T13:59:34Z</time></trkpt>
<trkpt lat="54.2759170000" lon="-2.1948980000"><ele>597</ele><time>2013-11-17T13:59:35Z</time></trkpt>
<trkpt lat="54.2759190000" lon="-2.1948800000"><ele>597</ele><time>2013-11-17T13:59:36Z</time></trkpt>
<trkpt lat="54.2759210000" lon="-2.1948620000"><ele>597</ele><time>2013-11-17T13:59:37Z</time></trkpt>
<trkpt lat="54.2759230000" lon="-2.1948460000"><ele>597</ele><time>2013-11-17T13:59:38Z</time></trkpt>
<trkpt lat="54.2759230000" lon="-2.1948280000"><ele>597</ele><time>2013-11-17T13:59:39Z</time></trkpt>
<trkpt lat="54.2759220000" lon="-2.1948080000"><ele>597</ele><time>2013-11-17T13:59:40Z</time></trkpt>
<trkpt lat="54.2759210000" lon="-2.1947880000"><ele>597</ele><time>2013-11-17T13:59:41Z</time></trkpt>
<trkpt lat="54.2759210000" lon="-2.1947670000"><ele>597</ele><time>2013-11-17T13:59:42Z</time></trkpt>
<trkpt lat="54.2759230000" lon="-2.1947470000"><ele>597</ele><time>2013-11-17T13:59:43Z</time></trkpt>
<trkpt lat="54.2759250000" lon="-2.1947270000"><ele>597</ele><time>2013-11-17T13:59:44Z</time></trkpt>
<trkpt lat="54.2759280000" lon="-2.1947090000"><ele>597</ele><time>2013-11-17T13:59:45Z</time></trkpt>
<trkpt lat="54.2759310000" lon="-2.1946900000"><ele>597</ele></trkpt>
<trkpt lat="54.2759340000" lon="-2.1946690000"><ele>597</ele><time>2013-11-17T13:59:47Z</time></trkpt>
<trkpt lat="54.2759360000" lon="-2.1946500000"><ele>597</ele><time>2013-11-17T13:59:48Z</time></trkpt>
<trkpt lat="54.2759390000" lon="-2.1946320000"><ele>597</ele><time>2013-11-17T13:59:49Z</time></trkpt>
<trkpt lat="54.2759410000" lon="-2.1946130000"><ele>597</ele><time>2013-11-17T13:59:50Z</time></trkpt>
<trkpt lat="54.2759440000" lon="-2.1945940000"><ele>597</ele><time>2013-11-17T13:59:51Z</time></trkpt>
<trkpt lat="54.2759490000" lon="-2.1945770000"><ele>597</ele><time>2013-11-17T13:59:52Z</time></trkpt>
<trkpt lat="54.2759540000" lon="-2.1945580000"><ele>597</ele><time>2013-11-17T13:59:53Z</time></trkpt>
<trkpt lat="54.2759610000" lon="-2.1945400000"><ele>597</ele><time>2013-11-17T13:59:54Z</time></trkpt>
<trkpt lat="54.2759680000" lon="-2.1945240000"><ele>597</ele><time>2013-11-17T13:59:55Z</time></trkpt>
<trkpt lat="54.2759760000" lon="-2.1945100000"><ele>597</ele><time>2013-11-17T13:59:56Z</time></trkpt>
<trkpt lat="54.2759840000" lon="-2.1944970000"><ele>597</ele><time>2013-11-17T13:59:57Z</time></trkpt>
<trkpt lat="54.2759920000" lon="-2.1944840000"><ele>597</ele></trkpt>
<trkpt lat="54.2760000000" lon="-2.1944690000"><ele>597</ele><time>2013-11-17T13:59:59Z</time></trkpt>
<trkpt lat="54.2760080000" lon="-2.1944550000"><ele>597</ele><time>2013-11-17T14:00:00Z</time></trkpt>
<trkpt lat="54.2760150000" lon="-2.1944410000"><ele>597</ele><time>2013-11-17T14:00:01Z</time></trkpt>
<trkpt lat="54.2760220000" lon="-2.1944280000"><ele>597</ele><time>2013-11-17T14:00:02Z</time></trkpt>
<trkpt lat="54.2760300000" lon="-2.1944160000"><ele>597</ele><time>2013-11-17T14:00:03Z</time></trkpt>
<trkpt lat="54.2760360000" lon="-2.1944020000"><ele>597</ele><time>2013-11-17T14:00:04Z</time></trkpt>
<trkpt lat="54.2760410000" lon="-2.1943880000"><ele>597</ele></trkpt>
<trkpt lat="54.2760460000" lon="-2.1943760000"><ele>597</ele><time>2013-11-17T14:00:06Z</time></trkpt>
<trkpt lat="54.2760520000" lon="-2.1943610000"><ele>597</ele><time>2013-11-17T14:00:07Z</time></trkpt>
<trkpt lat="54.2760570000" lon="-2.1943460000"><ele>597</ele><time>2013-11-17T14:00:08Z</time></trkpt>
<trkpt lat="54.2760630000" lon="-2.1943320000"><ele>597</ele><time>2013-11-17T14:00:09Z</time></trkpt>
<trkpt lat="54.2760690000" lon="-2.1943180000"><ele>597</ele><time>2013-11-17T14:00:10Z</time></trkpt>
<trkpt lat="54.2760770000" lon="-2.1943020000"><ele>597</ele></trkpt>
<trkpt lat="54.2760840000" lon="-2.1942850000"><ele>597</ele><time>2013-11-17T14:00:12Z</time></trkpt>
<trkpt lat="54.2760910000" lon="-2.1942700000"><ele>597</ele><time>2013-11-17T14:00:13Z</time></trkpt>
<trkpt lat="54.2760990000" lon="-2.1942570000"><ele>597</ele><time>2013-11-17T14:00:14Z</time></trkpt>
<trkpt lat="54.2761070000" lon="-2.1942430000"><ele>597</ele><time>2013-11-17T14:00:15Z</time></trkpt>
<trkpt lat="54.2761140000" lon="-2.1942330000"><ele>597</ele><time>2013-11-17T14:00:16Z</time></trkpt>
<trkpt lat="54.2761220000" lon="-2.1942260000"><ele>597</ele></trkpt>
<trkpt lat="54.2761290000" lon="-2.1942180000"><ele>597</ele><time>2013-11-17T14:00:18Z</time></trkpt>
<trkpt lat="54.2761370000" lon="-2.1942080000"><ele>597</ele><time>2013-11-17T14:00:19Z</time></trkpt>
<trkpt lat="54.2761440000" lon="-2.1941970000"><ele>597</ele><time>2013-11-17T14:00:20Z</time></trkpt>
<trkpt lat="54.2761500000" lon="-2.1941840000"><ele>597</ele><time>2013-11-17T14:00:21Z</time></trkpt>
<trkpt lat="54.2761570000" lon="-2.1941690000"><ele>597</ele><time>2013-11-17T14:00:22Z</time></trkpt>
<trkpt lat="54.2761640000" lon="-2.1941540000"><ele>597</ele><time>2013-11-17T14:00:23Z</time></trkpt>
<trkpt lat="54.2761720000" lon="-2.1941390000"><ele>597</ele><time>2013-11-17T14:00:24Z</time></trkpt>
<trkpt lat="54.2761780000" lon="-2.1941240000"><ele>597</ele><time>2013-11-17T14:00:25Z</time></trkpt>
<trkpt lat="54.2761840000" lon="-2.1941080000"><ele>597</ele><time>2013-11-17T14:00:26Z</time></trkpt>
<trkpt lat="54.2761900000" lon="-2.1940900000"><ele>597</ele><time>2013-11-17T14:00:27Z</time></trkpt>
<trkpt lat="54.2761960000" lon="-2.1940730000"><ele>597</ele><time>2013-11-17T14:00:28Z</time></trkpt>
<trkpt lat="54.2762020000" lon="-2.1940580000"><ele>597</ele><time>2013-11-17T14:00:29Z</time></trkpt>
<trkpt lat="54.2762090000" lon="-2.1940400000"><ele>597</ele></trkpt>
<trkpt lat="54.2762150000" lon="-2.1940230000"><ele>597</ele><time>2013-11-17T14:00:31Z</time></trkpt>
<trkpt lat="54.2762210000" lon="-2.1940060000"><ele>597</ele><time>2013-11-17T14:00:32Z</time></trkpt>
<trkpt lat="54.2762270000" lon="-2.1939920000"><ele>597</ele><time>2013-11-17T14:00:33Z</time></trkpt>
<trkpt lat="54.2762330000" lon="-2.1939790000"><ele>597</ele><time>2013-11-17T14:00:34Z</time></trkpt>
<trkpt lat="54.2762370000" lon="-2.1939660000"><ele>597</ele><time>2013-11-17T14:00:35Z</time></trkpt>
<trkpt lat="54.2762420000" lon="-2.1939540000"><ele>597</ele><time>2013-11-17T14:00:36Z</time></trkpt>
<trkpt lat="54.2762470000" lon="-2.1939440000"><ele>597</ele><time>2013-11-17T14:00:37Z</time></trkpt>
<trkpt lat="54.2762530000" lon="-2.1939300000"><ele>597</ele><time>2013-11-17T14:00:38Z</time></trkpt>
<trkpt lat="54.2762590000" lon="-2.1939160000"><ele>597</ele><time>2013-11-17T14:00:39Z</time></trkpt>
<trkpt lat="54.2762660000" lon="-2.1939040000"><ele>597</ele><time>2013-11-17T14:00:40Z</time></trkpt>
<trkpt lat="54.2762730000" lon="-2.1938920000"><ele>597</ele><time>2013-11-17T14:00:41Z</time></trkpt>
<trkpt lat="54.2762810000" lon="-2.1938800000"><ele>597</ele><time>2013-11-17T14:00:42Z</time></trkpt>
<trkpt lat="54.2762880000" lon="-2.1938690000"><ele>597</ele><time>2013-11-17T14:00:43Z</time></trkpt>
<trkpt lat="54.2762950000" lon="-2.1938560000"><ele>597</ele><time>2013-11-17T14:00:44Z</time></trkpt>
<trkpt lat="54.2763030000" lon="-2.1938430000"><ele>597</ele><time>2013-11-17T14:00:45Z</time></trkpt>
<trkpt lat="54.2763100000" lon="-2.1938290000"><ele>597</ele><time>2013-11-17T14:00:46Z</time></trkpt>
<trkpt lat="54.2763180000" lon="-2.1938160000"><ele>597</ele><time>2013-11-17T14:00:47Z</time></trkpt>
<trkpt lat="54.2763270000" lon="-2.1938040000"><ele>597</ele><time>2013-11-17T14:00:48Z</time></trkpt>
<trkpt lat="54.2763350000" lon="-2.1937920000"><ele>597</ele><time>2013-11-17T14:00:49Z</time></trkpt>
<trkpt lat="54.2763440000" lon="-2.1937820000"><ele>597</ele><time>2013-11-17T14:00:50Z</time></trkpt>
<trkpt lat="54.2763540000" lon="-2.1937720000"><ele>597</ele><time>2013-11-17T14:00:51Z</time></trkpt>
<trkpt lat="54.2763640000" lon="-2.1937630000"><ele>597</ele><time>2013-11-17T14:00:52Z</time></trkpt>
<trkpt lat="54.2763740000" lon="-2.1937550000"><ele>597</ele><time>2013-11-17T14:00:53Z</time></trkpt>
<trkpt lat="54.2763830000" lon="-2.1937490000"><ele>597</ele><time>2013-11-17T14:00:54Z</time></trkpt>
<trkpt lat="54.2763900000" lon="-2.1937390000"><ele>597</ele></trkpt>
<trkpt lat="54.2763970000" lon="-2.1937280000"><ele>597</ele><time>2013-11-17T14:00:56Z</time></trkpt>
<trkpt lat="54.2764040000" lon="-2.1937210000"><ele>597</ele><time>2013-11-17T14:00:57Z</time></trkpt>
<trkpt lat="54.2764140000" lon="-2.1937160000"><ele>597</ele><time>2013-11-17T14:00:58Z</time></trkpt>
<trkpt lat="54.2764250000" lon="-2.1937140000"><ele>597</ele><time>2013-11-17T14:00:59Z</time></trkpt>
<trkpt lat="54.2764440000" lon="-2.1937080000"><ele>597</ele><time>2013-11-17T14:01:01Z</time></trkpt>
<trkpt lat="54.2764610000" lon="-2.1937020000"><ele>597</ele><time>2013-11-17T14:01:03Z</time></trkpt>
<trkpt lat="54.2764810000" lon="-2.1936920000"><ele>597</ele><time>2013-11-17T14:01:05Z</time></trkpt>
<trkpt lat="54.2764980000" lon="-2.1936830000"><ele>597</ele><time>2013-11-17T14:01:07Z</time></trkpt>
<trkpt lat="54.2765190000" lon="-2.1936570000"><ele>597</ele><time>2013-11-17T14:01:10Z</time></trkpt>
<trkpt lat="54.2765360000" lon="-2.1936370000"><ele>597</ele><time>2013-11-17T14:01:12Z</time></trkpt>
<trkpt lat="54.2765550000" lon="-2.1936220000"><ele>597</ele><time>2013-11-17T14:01:13Z</time></trkpt>
<trkpt lat="54.2765730000" lon="-2.1936110000"><ele>597</ele><time>2013-11-17T14:01:16Z</time></trkpt>
<trkpt lat="54.2765900000" lon="-2.1935980000"><ele>597</ele><time>2013-11-17T14:01:18Z</time></trkpt>
<trkpt lat="54.2766090000" lon="-2.1935820000"><ele>597</ele><time>2013-11-17T14:01:19Z</time></trkpt>
<trkpt lat="54.2766360000" lon="-2.1935730000"><ele>597</ele><time>2013-11-17T14:01:24Z</time></trkpt>
<trkpt lat="54.2766610000" lon="-2.1936010000"><ele>597</ele><time>2013-11-17T14:01:27Z</time></trkpt>
<trkpt lat="54.2766780000" lon="-2.1936260000"><ele>597</ele><time>2013-11-17T14:01:29Z</time></trkpt>
<trkpt lat="54.2766890000" lon="-2.1936590000"><ele>597</ele><time>2013-11-17T14:01:31Z</time></trkpt>
<trkpt lat="54.2767010000" lon="-2.1936970000"><ele>597</ele><time>2013-11-17T14:01:34Z</time></trkpt>
<trkpt lat="54.2767280000" lon="-2.1937100000"><ele>597</ele><time>2013-11-17T14:01:43Z</time></trkpt>
<trkpt lat="54.2767280000" lon="-2.1937100000"><ele>597</ele><time>2013-11-17T14:01:44Z</time></trkpt>
<trkpt lat="54.2767280000" lon="-2.1937100000"><ele>597</ele><time>2013-11-17T14:01:45Z</time></trkpt>
<trkpt lat="54.2767280000" lon="-2.1937080000"><ele>597</ele><time>2013-11-17T14:01:46Z</time></trkpt>
<trkpt lat="54.2767300000" lon="-2.1937030000"><ele>597</ele><time>2013-11-17T14:01:47Z</time></trkpt>
<trkpt lat="54.2767340000" lon="-2.1936930000"><ele>597</ele><time>2013-11-17T14:01:48Z</time></trkpt>
<trkpt lat="54.2767390000" lon="-2.1936810000"><ele>597</ele><time>2013-11-17T14:01:49Z</time></trkpt>
<trkpt lat="54.2767440000" lon="-2.1936670000"><ele>597</ele><time>2013-11-17T14:01:50Z</time></trkpt>
<trkpt lat="54.2767490000" lon="-2.1936530000"><ele>597</ele></trkpt>
<trkpt lat="54.2767540000" lon="-2.1936410000"><ele>597</ele><time>2013-11-17T14:01:52Z</time></trkpt>
<trkpt lat="54.2767780000" lon="-2.1936350000"><ele>597</ele><time>2013-11-17T14:01:56Z</time></trkpt>
<trkpt lat="54.2767990000" lon="-2.1936290000"><ele>597</ele><time>2013-11-17T14:01:59Z</time></trkpt>
<trkpt lat="54.2768230000" lon="-2.1936080000"><ele>597</ele><time>2013-11-17T14:02:02Z</time></trkpt>
<trkpt lat="54.2768420000" lon="-2.1935790000"><ele>597</ele><time>2013-11-17T14:02:06Z</time></trkpt>
<trkpt lat="54.2768460000" lon="-2.1935370000"><ele>597</ele><time>2013-11-17T14:02:09Z</time></trkpt>
<trkpt lat="54.2768500000" lon="-2.1934910000"><ele>597</ele><time>2013-11-17T14:02:12Z</time></trkpt>
<trkpt lat="54.2768530000" lon="-2.1934520000"><ele>597</ele><time>2013-11-17T14:02:14Z</time></trkpt>
<trkpt lat="54.2768580000" lon="-2.1934180000"><ele>597</ele><time>2013-11-17T14:02:16Z</time></trkpt>
<trkpt lat="54.2768720000" lon="-2.1933910000"><ele>597</ele><time>2013-11-17T14:02:19Z</time></trkpt>
<trkpt lat="54.2768870000" lon="-2.1933220000"><ele>597</ele><time>2013-11-17T14:02:27Z</time></trkpt>
<trkpt lat="54.2769020000" lon="-2.1932900000"><ele>597</ele><time>2013-11-17T14:02:30Z</time></trkpt>
<trkpt lat="54.2769140000" lon="-2.1932570000"><ele>597</ele><time>2013-11-17T14:02:33Z</time></trkpt>
<trkpt lat="54.2769340000" lon="-2.1932490000"><ele>597</ele><time>2013-11-17T14:02:37Z</time></trkpt>
<trkpt lat="54.2769570000" lon="-2.1932580000"><ele>597</ele><time>2013-11-17T14:02:40Z</time></trkpt>
<trkpt lat="54.2769740000" lon="-2.1932630000"><ele>597</ele><time>2013-11-17T14:02:42Z</time></trkpt>
<trkpt lat="54.2769970000" lon="-2.1932630000"><ele>597</ele><time>2013-11-17T14:02:45Z</time></trkpt>
<trkpt lat="54.2770260000" lon="-2.1932210000"><ele>597</ele><time>2013-11-17T14:02:55Z</time></trkpt>
<trkpt lat="54.2770370000" lon="-2.1931870000"><ele>597</ele><time>2013-11-17T14:03:00Z</time></trkpt>
<trkpt lat="54.2770390000" lon="-2.1931380000"><ele>597</ele><time>2013-11-17T14:03:06Z</time></trkpt>
<trkpt lat="54.2770300000" lon="-2.1930910000"><ele>597</ele><time>2013-11-17T14:03:09Z</time></trkpt>
<trkpt lat="54.2770290000" lon="-2.1930370000"><ele>597</ele><time>2013-11-17T14:03:12Z</time></trkpt>
<trkpt lat="54.2770400000" lon="-2.1929880000"><ele>597</ele><time>2013-11-17T14:03:16Z</time></trkpt>
<trkpt lat="54.2770510000" lon="-2.1929450000"><ele>597</ele><time>2013-11-17T14:03:20Z</time></trkpt>
<trkpt lat="54.2770620000" lon="-2.1929020000"><ele>597</ele><time>2013-11-17T14:03:24Z</time></trkpt>
<trkpt lat="54.2770640000" lon="-2.1928370000"><ele>597</ele><time>2013-11-17T14:03:29Z</time></trkpt>
<trkpt lat="54.2770650000" lon="-2.1927900000"><ele>597</ele><time>2013-11-17T14:03:32Z</time></trkpt>
<trkpt lat="54.2770640000" lon="-2.1927150000"><ele>597</ele><time>2013-11-17T14:03:37Z</time></trkpt>
<trkpt lat="54.2770780000" lon="-2.1926660000"><ele>597</ele><time>2013-11-17T14:03:42Z</time></trkpt>
<trkpt lat="54.2770810000" lon="-2.1926230000"><ele>597</ele><time>2013-11-17T14:03:45Z</time></trkpt>
<trkpt lat="54.2770880000" lon="-2.1925740000"><ele>597</ele><time>2013-11-17T14:03:50Z</time></trkpt>
<trkpt lat="54.2771110000" lon="-2.1925460000"><ele>597</ele><time>2013-11-17T14:03:53Z</time></trkpt>
<trkpt lat="54.2771280000" lon="-2.1925080000"><ele>597</ele><time>2013-11-17T14:03:56Z</time></trkpt>
<trkpt lat="54.2771430000" lon="-2.1924620000"><ele>597</ele><time>2013-11-17T14:04:00Z</time></trkpt>
<trkpt lat="54.2771590000" lon="-2.1924170000"><ele>597</ele><time>2013-11-17T14:04:03Z</time></trkpt>
<trkpt lat="54.2771740000" lon="-2.1923680000"><ele>597</ele><time>2013-11-17T14:04:06Z</time></trkpt>
<trkpt lat="54.2771740000" lon="-2.1923240000"><ele>597</ele><time>2013-11-17T14:04:08Z</time></trkpt>
<trkpt lat="54.2771590000" lon="-2.1922670000"><ele>597</ele><time>2013-11-17T14:04:14Z</time></trkpt>
<trkpt lat="54.2771510000" lon="-2.1922170000"><ele>597</ele><time>2013-11-17T14:04:17Z</time></trkpt>
<trkpt lat="54.2771520000" lon="-2.1921630000"><ele>597</ele><time>2013-11-17T14:04:20Z</time></trkpt>
<trkpt lat="54.2771580000" lon="-2.1921170000"><ele>597</ele><time>2013-11-17T14:04:23Z</time></trkpt>
<trkpt lat="54.2771630000" lon="-2.1920680000"><ele>597</ele><time>2013-11-17T14:04:26Z</time></trkpt>
<trkpt lat="54.2771720000" lon="-2.1920140000"><ele>597</ele><time>2013-11-17T14:04:29Z</time></trkpt>
<trkpt lat="54.2771780000" lon="-2.1919710000"><ele>597</ele><time>2013-11-17T14:04:32Z</time></trkpt>
<trkpt lat="54.2771810000" lon="-2.1919220000"><ele>589</ele><time>2013-11-17T14:04:35Z</time></trkpt>
<trkpt lat="54.2771880000" lon="-2.1918820000"><ele>589</ele><time>2013-11-17T14:04:38Z</time></trkpt>
<trkpt lat="54.2771940000" lon="-2.1918460000"><ele>589</ele><time>2013-11-17T14:04:40Z</time></trkpt>
<trkpt lat="54.2772080000" lon="-2.1918090000"><ele>589</ele><time>2013-11-17T14:04:43Z</time></trkpt>
<trkpt lat="54.2772300000" lon="-2.1917820000"><ele>589</ele><time>2013-11-17T14:04:46Z</time></trkpt>
<trkpt lat="54.2772460000" lon="-2.1917450000"><ele>589</ele><time>2013-11-17T14:04:49Z</time></trkpt>
<trkpt lat="54.2772530000" lon="-2.1917260000"><ele>589</ele><time>2013-11-17T14:04:50Z</time></trkpt>
<trkpt lat="54.2772570000" lon="-2.1917130000"><ele>589</ele><time>2013-11-17T14:04:51Z</time></trkpt>
<trkpt lat="54.2772630000" lon="-2.1916990000"><ele>589</ele><time>2013-11-17T14:04:52Z</time></trkpt>
<trkpt lat="54.2772690000" lon="-2.1916860000"><ele>589</ele></trkpt>
<trkpt lat="54.2772770000" lon="-2.1916740000"><ele>589</ele><time>2013-11-17T14:04:54Z</time></trkpt>
<trkpt lat="54.2772840000" lon="-2.1916670000"><ele>589</ele><time>2013-11-17T14:04:55Z</time></trkpt>
<trkpt lat="54.2772920000" lon="-2.1916620000"><ele>589</ele><time>2013-11-17T14:04:56Z</time></trkpt>
<trkpt lat="54.2773010000" lon="-2.1916540000"><ele>589</ele><time>2013-11-17T14:04:57Z</time></trkpt>
<trkpt lat="54.2773090000" lon="-2.1916430000"><ele>589</ele><time>2013-11-17T14:04:58Z</time></trkpt>
<trkpt lat="54.2773170000" lon="-2.1916320000"><ele>589</ele></trkpt>
<trkpt lat="54.2773230000" lon="-2.1916230000"><ele>589</ele><time>2013-11-17T14:05:00Z</time></trkpt>
<trkpt lat="54.2773300000" lon="-2.1916170000"><ele>589</ele><time>2013-11-17T14:05:01Z</time></trkpt>
<trkpt lat="54.2773390000" lon="-2.1916130000"><ele>589</ele><time>2013-11-17T14:05:02Z</time></trkpt>
<trkpt lat="54.2773480000" lon="-2.1916080000"><ele>589</ele><time>2013-11-17T14:05:03Z</time></trkpt>
<trkpt lat="54.2773560000" lon="-2.1916000000"><ele>589</ele><time>2013-11-17T14:05:04Z</time></trkpt>
<trkpt lat="54.2773630000" lon="-2.1915910000"><ele>589</ele><time>2013-11-17T14:05:05Z</time></trkpt>
<trkpt lat="54.2773700000" lon="-2.1915850000"><ele>589</ele><time>2013-11-17T14:05:06Z</time></trkpt>
<trkpt lat="54.2773780000" lon="-2.1915790000"><ele>589</ele><time>2013-11-17T14:05:07Z</time></trkpt>
<trkpt lat="54.2773860000" lon="-2.1915720000"><ele>589</ele><time>2013-11-17T14:05:08Z</time></trkpt>
<trkpt lat="54.2774000000" lon="-2.1915410000"><ele>589</ele><time>2013-11-17T14:05:12Z</time></trkpt>
<trkpt lat="54.2774030000" lon="-2.1915150000"><ele>589</ele><time>2013-11-17T14:05:16Z</time></trkpt>
<trkpt lat="54.2774040000" lon="-2.1915170000"><ele>589</ele><time>2013-11-17T14:05:17Z</time></trkpt>
<trkpt lat="54.2774040000" lon="-2.1915180000"><ele>589</ele></trkpt>
<trkpt lat="54.2774030000" lon="-2.1915180000"><ele>589</ele><time>2013-11-17T14:05:19Z</time></trkpt>
<trkpt lat="54.2774020000" lon="-2.1915180000"><ele>589</ele><time>2013-11-17T14:05:20Z</time></trkpt>
<trkpt lat="54.2774020000" lon="-2.1915190000"><ele>589</ele><time>2013-11-17T14:05:21Z</time></trkpt>
<trkpt lat="54.2774020000" lon="-2.1915200000"><ele>589</ele><time>2013-11-17T14:05:22Z</time></trkpt>
<trkpt lat="54.2774020000" lon="-2.1915190000"><ele>589</ele><time>2013-11-17T14:05:23Z</time></trkpt>
<trkpt lat="54.2774050000" lon="-2.1915180000"><ele>589</ele></trkpt>
<trkpt lat="54.2774090000" lon="-2.1915140000"><ele>589</ele><time>2013-11-17T14:05:25Z</time></trkpt>
<trkpt lat="54.2774140000" lon="-2.1915070000"><ele>589</ele><time>2013-11-17T14:05:26Z</time></trkpt>
<trkpt lat="54.2774210000" lon="-2.1914970000"><ele>589</ele><time>2013-11-17T14:05:27Z</time></trkpt>
<trkpt lat="54.2774270000" lon="-2.1914860000"><ele>589</ele><time>2013-11-17T14:05:28Z</time></trkpt>
<trkpt lat="54.2774330000" lon="-2.1914740000"><ele>589</ele><time>2013-11-17T14:05:29Z</time></trkpt>
<trkpt lat="54.2774380000" lon="-2.1914610000"><ele>589</ele><time>2013-11-17T14:05:30Z</time></trkpt>
<trkpt lat="54.2774430000" lon="-2.1914510000"><ele>589</ele><time>2013-11-17T14:05:31Z</time></trkpt>
<trkpt lat="54.2774480000" lon="-2.1914430000"><ele>589</ele><time>2013-11-17T14:05:32Z</time></trkpt>
<trkpt lat="54.2774540000" lon="-2.1914340000"><ele>589</ele><time>2013-11-17T14:05:33Z</time></trkpt>
<trkpt lat="54.2774590000" lon="-2.1914230000"><ele>589</ele><time>2013-11-17T14:05:34Z</time></trkpt>
<trkpt lat="54.2774630000" lon="-2.1914120000"><ele>589</ele><time>2013-11-17T14:05:35Z</time></trkpt>
<trkpt lat="54.2774660000" lon="-2.1914030000"><ele>589</ele><time>2013-11-17T14:05:36Z</time></trkpt>
<trkpt lat="54.2774690000" lon="-2.1913940000"><ele>589</ele><time>2013-11-17T14:05:37Z</time></trkpt>
<trkpt lat="54.2774720000" lon="-2.1913830000"><ele>589</ele><time>2013-11-17T14:05:38Z</time></trkpt>
<trkpt lat="54.2774740000" lon="-2.1913750000"><ele>589</ele><time>2013-11-17T14:05:39Z</time></trkpt>
<trkpt lat="54.2774740000" lon="-2.1913710000"><ele>589</ele><time>2013-11-17T14:05:40Z</time></trkpt>
<trkpt lat="54.2774740000" lon="-2.1913710000"><ele>589</ele><time>2013-11-17T14:05:41Z</time></trkpt>
<trkpt lat="54.2774730000" lon="-2.1913710000"><ele>589</ele><time>2013-11-17T14:05:42Z</time></trkpt>
<trkpt lat="54.2774730000" lon="-2.1913700000"><ele>589</ele></trkpt>
<trkpt lat="54.2774730000" lon="-2.1913710000"><ele>589</ele><time>2013-11-17T14:05:44Z</time></trkpt>
<trkpt lat="54.2774720000" lon="-2.1913690000"><ele>589</ele><time>2013-11-17T14:05:45Z</time></trkpt>
<trkpt lat="54.2774710000" lon="-2.1913700000"><ele>589</ele><time>2013-11-17T14:05:46Z</time></trkpt>
<trkpt lat="54.2774700000" lon="-2.1913720000"><ele>589</ele><time>2013-11-17T14:05:47Z</time></trkpt>
<trkpt lat="54.2774690000" lon="-2.1913710000"><ele>589</ele><time>2013-11-17T14:05:48Z</time></trkpt>
<trkpt lat="54.2774690000" lon="-2.1913670000"><ele>589</ele></trkpt>
<trkpt lat="54.2774700000" lon="-2.1913640000"><ele>589</ele><time>2013-11-17T14:05:50Z</time></trkpt>
<trkpt lat="54.2774720000" lon="-2.1913570000"><ele>589</ele><time>2013-11-17T14:05:51Z</time></trkpt>
<trkpt lat="54.2774750000" lon="-2.1913470000"><ele>589</ele><time>2013-11-17T14:05:52Z</time></trkpt>
<trkpt lat="54.2774790000" lon="-2.1913370000"><ele>589</ele><time>2013-11-17T14:05:53Z</time></trkpt>
<trkpt lat="54.2774850000" lon="-2.1913260000"><ele>589</ele><time>2013-11-17T14:05:54Z</time></trkpt>
<trkpt lat="54.2774900000" lon="-2.1913150000"><ele>589</ele><time>2013-11-17T14:05:55Z</time></trkpt>
<trkpt lat="54.2774960000" lon="-2.1913050000"><ele>589</ele><time>2013-11-17T14:05:56Z</time></trkpt>
<trkpt lat="54.2775020000" lon="-2.1912940000"><ele>589</ele><time>2013-11-17T14:05:57Z</time></trkpt>
<trkpt lat="54.2775070000" lon="-2.1912850000"><ele>589</ele><time>2013-11-17T14:05:58Z</time></trkpt>
<trkpt lat="54.2775130000" lon="-2.1912770000"><ele>589</ele><time>2013-11-17T14:05:59Z</time></trkpt>
<trkpt lat="54.2775190000" lon="-2.1912670000"><ele>589</ele><time>2013-11-17T14:06:00Z</time></trkpt>
<trkpt lat="54.2775240000" lon="-2.1912570000"><ele>589</ele><time>2013-11-17T14:06:01Z</time></trkpt>
<trkpt lat="54.2775300000" lon="-2.1912470000"><ele>589</ele></trkpt>
<trkpt lat="54.2775390000" lon="-2.1912370000"><ele>589</ele><time>2013-11-17T14:06:03Z</time></trkpt>
<trkpt lat="54.2775470000" lon="-2.1912290000"><ele>589</ele><time>2013-11-17T14:06:04Z</time></trkpt>
<trkpt lat="54.2775570000" lon="-2.1912230000"><ele>589</ele><time>2013-11-17T14:06:05Z</time></trkpt>
<trkpt lat="54.2775670000" lon="-2.1912170000"><ele>589</ele><time>2013-11-17T14:06:06Z</time></trkpt>
<trkpt lat="54.2775730000" lon="-2.1912080000"><ele>589</ele><time>2013-11-17T14:06:07Z</time></trkpt>
<trkpt lat="54.2775750000" lon="-2.1911970000"><ele>589</ele></trkpt>
<trkpt lat="54.2775730000" lon="-2.1911840000"><ele>589</ele><time>2013-11-17T14:06:09Z</time></trkpt>
<trkpt lat="54.2775690000" lon="-2.1911730000"><ele>589</ele><time>2013-11-17T14:06:10Z</time></trkpt>
<trkpt lat="54.2775650000" lon="-2.1911570000"><ele>589</ele><time>2013-11-17T14:06:11Z</time></trkpt>
<trkpt lat="54.2775610000" lon="-2.1911400000"><ele>589</ele><time>2013-11-17T14:06:12Z</time></trkpt>
<trkpt lat="54.2775580000" lon="-2.1911230000"><ele>589</ele><time>2013-11-17T14:06:13Z</time></trkpt>
<trkpt lat="54.2775550000" lon="-2.1911050000"><ele>589</ele></trkpt>
<trkpt lat="54.2775540000" lon="-2.1910890000"><ele>589</ele><time>2013-11-17T14:06:15Z</time></trkpt>
<trkpt lat="54.2775560000" lon="-2.1910740000"><ele>589</ele><time>2013-11-17T14:06:16Z</time></trkpt>
<trkpt lat="54.2775610000" lon="-2.1910570000"><ele>589</ele><time>2013-11-17T14:06:17Z</time></trkpt>
<trkpt lat="54.2775780000" lon="-2.1910200000"><ele>589</ele><time>2013-11-17T14:06:20Z</time></trkpt>
<trkpt lat="54.2775920000" lon="-2.1909900000"><ele>589</ele><time>2013-11-17T14:06:22Z</time></trkpt>
<trkpt lat="54.2776060000" lon="-2.1909680000"><ele>589</ele><time>2013-11-17T14:06:24Z</time></trkpt>
<trkpt lat="54.2776250000" lon="-2.1909390000"><ele>589</ele><time>2013-11-17T14:06:26Z</time></trkpt>
<trkpt lat="54.2776310000" lon="-2.1909270000"><ele>589</ele><time>2013-11-17T14:06:27Z</time></trkpt>
<trkpt lat="54.2776390000" lon="-2.1909140000"><ele>589</ele><time>2013-11-17T14:06:28Z</time></trkpt>
<trkpt lat="54.2776460000" lon="-2.1909000000"><ele>589</ele><time>2013-11-17T14:06:29Z</time></trkpt>
<trkpt lat="54.2776540000" lon="-2.1908870000"><ele>589</ele><time>2013-11-17T14:06:30Z</time></trkpt>
<trkpt lat="54.2776620000" lon="-2.1908730000"><ele>589</ele><time>2013-11-17T14:06:31Z</time></trkpt>
<trkpt lat="54.2776700000" lon="-2.1908600000"><ele>589</ele><time>2013-11-17T14:06:32Z</time></trkpt>
<trkpt lat="54.2776780000" lon="-2.1908470000"><ele>589</ele><time>2013-11-17T14:06:33Z</time></trkpt>
<trkpt lat="54.2776880000" lon="-2.1908370000"><ele>589</ele><time>2013-11-17T14:06:34Z</time></trkpt>
<trkpt lat="54.2776970000" lon="-2.1908290000"><ele>589</ele><time>2013-11-17T14:06:35Z</time></trkpt>
<trkpt lat="54.2777060000" lon="-2.1908210000"><ele>589</ele><time>2013-11-17T14:06:36Z</time></trkpt>
<trkpt lat="54.2777140000" lon="-2.1908140000"><ele>589</ele><time>2013-11-17T14:06:37Z</time></trkpt>
<trkpt lat="54.2777230000" lon="-2.1908040000"><ele>589</ele><time>2013-11-17T14:06:38Z</time></trkpt>
<trkpt lat="54.2777320000" lon="-2.1907940000"><ele>589</ele><time>2013-11-17T14:06:39Z</time></trkpt>
<trkpt lat="54.2777420000" lon="-2.1907830000"><ele>589</ele><time>2013-11-17T14:06:40Z</time></trkpt>
<trkpt lat="54.2777490000" lon="-2.1907720000"><ele>589</ele><time>2013-11-17T14:06:41Z</time></trkpt>
<trkpt lat="54.2777570000" lon="-2.1907630000"><ele>589</ele><time>2013-11-17T14:06:42Z</time></trkpt>
<trkpt lat="54.2777640000" lon="-2.1907530000"><ele>589</ele><time>2013-11-17T14:06:43Z</time></trkpt>
<trkpt lat="54.2777720000" lon="-2.1907450000"><ele>589</ele><time>2013-11-17T14:06:44Z</time></trkpt>
<trkpt lat="54.2777790000" lon="-2.1907390000"><ele>589</ele><time>2013-11-17T14:06:45Z</time></trkpt>
<trkpt lat="54.2777860000" lon="-2.1907330000"><ele>589</ele><time>2013-11-17T14:06:46Z</time></trkpt>
<trkpt lat="54.2777930000" lon="-2.1907260000"><ele>589</ele><time>2013-11-17T14:06:47Z</time></trkpt>
<trkpt lat="54.2777990000" lon="-2.1907200000"><ele>589</ele><time>2013-11-17T14:06:48Z</time></trkpt>
<trkpt lat="54.2778040000" lon="-2.1907090000"><ele>589</ele><time>2013-11-17T14:06:49Z</time></trkpt>
<trkpt lat="54.2778070000" lon="-2.1906950000"><ele>589</ele><time>2013-11-17T14:06:50Z</time></trkpt>
<trkpt lat="54.2778090000" lon="-2.1906800000"><ele>589</ele><time>2013-11-17T14:06:51Z</time></trkpt>
<trkpt lat="54.2778120000" lon="-2.1906640000"><ele>589</ele><time>2013-11-17T14:06:52Z</time></trkpt>
<trkpt lat="54.2778180000" lon="-2.1906490000"><ele>589</ele><time>2013-11-17T14:06:53Z</time></trkpt>
<trkpt lat="54.2778230000" lon="-2.1906340000"><ele>589</ele><time>2013-11-17T14:06:54Z</time></trkpt>
<trkpt lat="54.2778270000" lon="-2.1906220000"><ele>589</ele><time>2013-11-17T14:06:55Z</time></trkpt>
<trkpt lat="54.2778310000" lon="-2.1906100000"><ele>589</ele><time>2013-11-17T14:06:56Z</time></trkpt>
<trkpt lat="54.2778340000" lon="-2.1905950000"><ele>589</ele><time>2013-11-17T14:06:57Z</time></trkpt>
<trkpt lat="54.2778380000" lon="-2.1905780000"><ele>589</ele><time>2013-11-17T14:06:58Z</time></trkpt>
<trkpt lat="54.2778420000" lon="-2.1905600000"><ele>589</ele><time>2013-11-17T14:06:59Z</time></trkpt>
<trkpt lat="54.2778490000" lon="-2.1905440000"><ele>589</ele><time>2013-11-17T14:07:00Z</time></trkpt>
<trkpt lat="54.2778570000" lon="-2.1905290000"><ele>589</ele><time>2013-11-17T14:07:01Z</time></trkpt>
<trkpt lat="54.2778640000" lon="-2.1905170000"><ele>589</ele><time>2013-11-17T14:07:02Z</time></trkpt>
<trkpt lat="54.2778700000" lon="-2.1905070000"><ele>589</ele><time>2013-11-17T14:07:03Z</time></trkpt>
<trkpt lat="54.2778760000" lon="-2.1904940000"><ele>589</ele><time>2013-11-17T14:07:04Z</time></trkpt>
<trkpt lat="54.2778820000" lon="-2.1904800000"><ele>589</ele><time>2013-11-17T14:07:05Z</time></trkpt>
<trkpt lat="54.2778870000" lon="-2.1904650000"><ele>589</ele><time>2013-11-17T14:07:06Z</time></trkpt>
<trkpt lat="54.2778920000" lon="-2.1904490000"><ele>589</ele><time>2013-11-17T14:07:07Z</time></trkpt>
<trkpt lat="54.2778960000" lon="-2.1904380000"><ele>589</ele><time>2013-11-17T14:07:08Z</time></trkpt>
<trkpt lat="54.2779030000" lon="-2.1904320000"><ele>589</ele><time>2013-11-17T14:07:10Z</time></trkpt>
<trkpt lat="54.2779110000" lon="-2.1904280000"><ele>589</ele></trkpt>
<trkpt lat="54.2779200000" lon="-2.1904250000"><ele>589</ele><time>2013-11-17T14:07:11Z</time></trkpt>
<trkpt lat="54.2779280000" lon="-2.1904190000"><ele>589</ele><time>2013-11-17T14:07:12Z</time></trkpt>
<trkpt lat="54.2779350000" lon="-2.1904130000"><ele>589</ele><time>2013-11-17T14:07:13Z</time></trkpt>
<trkpt lat="54.2779400000" lon="-2.1904070000"><ele>589</ele><time>2013-11-17T14:07:14Z</time></trkpt>
<trkpt lat="54.2779460000" lon="-2.1903980000"><ele>589</ele><time>2013-11-17T14:07:15Z</time></trkpt>
<trkpt lat="54.2779680000" lon="-2.1903800000"><ele>589</ele><time>2013-11-17T14:07:18Z</time></trkpt>
<trkpt lat="54.2779880000" lon="-2.1903790000"><ele>589</ele><time>2013-11-17T14:07:20Z</time></trkpt>
<trkpt lat="54.2780070000" lon="-2.1903830000"><ele>589</ele><time>2013-11-17T14:07:22Z</time></trkpt>
<trkpt lat="54.2780260000" lon="-2.1903880000"><ele>589</ele><time>2013-11-17T14:07:24Z</time></trkpt>
<trkpt lat="54.2780440000" lon="-2.1903990000"><ele>589</ele><time>2013-11-17T14:07:26Z</time></trkpt>
<trkpt lat="54.2780680000" lon="-2.1904150000"><ele>589</ele><time>2013-11-17T14:07:29Z</time></trkpt>
<trkpt lat="54.2781030000" lon="-2.1903900000"><ele>589</ele><time>2013-11-17T14:07:36Z</time></trkpt>
<trkpt lat="54.2781140000" lon="-2.1903710000"><ele>589</ele><time>2013-11-17T14:07:49Z</time></trkpt>
<trkpt lat="54.2781150000" lon="-2.1903690000"><ele>589</ele><time>2013-11-17T14:07:50Z</time></trkpt>
<trkpt lat="54.2781140000" lon="-2.1903680000"><ele>589</ele><time>2013-11-17T14:07:51Z</time></trkpt>
<trkpt lat="54.2781140000" lon="-2.1903690000"><ele>589</ele><time>2013-11-17T14:07:52Z</time></trkpt>
<trkpt lat="54.2781150000" lon="-2.1903720000"><ele>589</ele><time>2013-11-17T14:07:53Z</time></trkpt>
<trkpt lat="54.2781160000" lon="-2.1903750000"><ele>589</ele><time>2013-11-17T14:07:54Z</time></trkpt>
<trkpt lat="54.2781180000" lon="-2.1903780000"><ele>589</ele><time>2013-11-17T14:07:55Z</time></trkpt>
<trkpt lat="54.2781190000" lon="-2.1903790000"><ele>589</ele><time>2013-11-17T14:07:56Z</time></trkpt>
<trkpt lat="54.2781200000" lon="-2.1903800000"><ele>589</ele><time>2013-11-17T14:07:57Z</time></trkpt>
<trkpt lat="54.2781200000" lon="-2.1903800000"><ele>589</ele><time>2013-11-17T14:07:58Z</time></trkpt>
<trkpt lat="54.2781200000" lon="-2.1903800000"><ele>589</ele><time>2013-11-17T14:07:59Z</time></trkpt>
<trkpt lat="54.2781200000" lon="-2.1903800000"><ele>589</ele><time>2013-11-17T14:08:00Z</time></trkpt>
<trkpt lat="54.2781210000" lon="-2.1903810000"><ele>589</ele><time>2013-11-17T14:08:01Z</time></trkpt>
<trkpt lat="54.2781190000" lon="-2.1903790000"><ele>589</ele><time>2013-11-17T14:08:02Z</time></trkpt>
<trkpt lat="54.2781170000" lon="-2.1903770000"><ele>589</ele><time>2013-11-17T14:08:03Z</time></trkpt>
<trkpt lat="54.2781160000" lon="-2.1903750000"><ele>589</ele><time>2013-11-17T14:08:04Z</time></trkpt>
<trkpt lat="54.2781170000" lon="-2.1903750000"><ele>589</ele><time>2013-11-17T14:08:05Z</time></trkpt>
<trkpt lat="54.2781180000" lon="-2.1903750000"><ele>589</ele><time>2013-11-17T14:08:06Z</time></trkpt>
<trkpt lat="54.2781190000" lon="-2.1903760000"><ele>589</ele></trkpt>
<trkpt lat="54.2781190000" lon="-2.1903760000"><ele>589</ele><time>2013-11-17T14:08:08Z</time></trkpt>
<trkpt lat="54.2781190000" lon="-2.1903760000"><ele>589</ele><time>2013-11-17T14:08:09Z</time></trkpt>
<trkpt lat="54.2781190000" lon="-2.1903760000"><ele>589</ele><time>2013-11-17T14:08:11Z</time></trkpt>
<trkpt lat="54.2781180000" lon="-2.1903760000"><ele>589</ele><time>2013-11-17T14:08:12Z</time></trkpt>
<trkpt lat="54.2781180000" lon="-2.1903760000"><ele>589</ele></trkpt>
<trkpt lat="54.2781180000" lon="-2.1903760000"><ele>589</ele><time>2013-11-17T14:08:14Z</time></trkpt>
<trkpt lat="54.2781180000" lon="-2.1903760000"><ele>589</ele><time>2013-11-17T14:08:15Z</time></trkpt>
<trkpt lat="54.2781180000" lon="-2.1903760000"><ele>589</ele><time>2013-11-17T14:08:16Z</time></trkpt>
<trkpt lat="54.2781180000" lon="-2.1903760000"><ele>589</ele><time>2013-11-17T14:08:17Z</time></trkpt>
<trkpt lat="54.2781180000" lon="-2.1903760000"><ele>589</ele><time>2013-11-17T14:08:18Z</time></trkpt>
<trkpt lat="54.2781180000" lon="-2.1903760000"><ele>589</ele></trkpt>
<trkpt lat="54.2781170000" lon="-2.1903760000"><ele>589</ele><time>2013-11-17T14:08:20Z</time></trkpt>
<trkpt lat="54.2781160000" lon="-2.1903770000"><ele>589</ele><time>2013-11-17T14:08:21Z</time></trkpt>
<trkpt lat="54.2781150000" lon="-2.1903780000"><ele>589</ele><time>2013-11-17T14:08:22Z</time></trkpt>
<trkpt lat="54.2781160000" lon="-2.1903790000"><ele>589</ele><time>2013-11-17T14:08:23Z</time></trkpt>
<trkpt lat="54.2781180000" lon="-2.1903810000"><ele>589</ele><time>2013-11-17T14:08:24Z</time></trkpt>
<trkpt lat="54.2781190000" lon="-2.1903840000"><ele>589</ele><time>2013-11-17T14:08:25Z</time></trkpt>
<trkpt lat="54.2781190000" lon="-2.1903860000"><ele>589</ele><time>2013-11-17T14:08:26Z</time></trkpt>
<trkpt lat="54.2781190000" lon="-2.1903860000"><ele>589</ele><time>2013-11-17T14:08:27Z</time></trkpt>
<trkpt lat="54.2781190000" lon="-2.1903860000"><ele>589</ele><time>2013-11-17T14:08:28Z</time></trkpt>
<trkpt lat="54.2781200000" lon="-2.1903840000"><ele>589</ele><time>2013-11-17T14:08:29Z</time></trkpt>
<trkpt lat="54.2781220000" lon="-2.1903800000"><ele>589</ele><time>2013-11-17T14:08:30Z</time></trkpt>
<trkpt lat="54.2781260000" lon="-2.1903760000"><ele>589</ele><time>2013-11-17T14:08:31Z</time></trkpt>
<trkpt lat="54.2781310000" lon="-2.1903710000"><ele>589</ele><time>2013-11-17T14:08:32Z</time></trkpt>
<trkpt lat="54.2781360000" lon="-2.1903650000"><ele>589</ele><time>2013-11-17T14:08:33Z</time></trkpt>
<trkpt lat="54.2781420000" lon="-2.1903600000"><ele>589</ele><time>2013-11-17T14:08:34Z</time></trkpt>
<trkpt lat="54.2781510000" lon="-2.1903530000"><ele>589</ele><time>2013-11-17T14:08:35Z</time></trkpt>
<trkpt lat="54.2781600000" lon="-2.1903460000"><ele>589</ele><time>2013-11-17T14:08:36Z</time></trkpt>
<trkpt lat="54.2781680000" lon="-2.1903350000"><ele>589</ele><time>2013-11-17T14:08:37Z</time></trkpt>
<trkpt lat="54.2781750000" lon="-2.1903220000"><ele>589</ele></trkpt>
<trkpt lat="54.2781800000" lon="-2.1903070000"><ele>589</ele><time>2013-11-17T14:08:39Z</time></trkpt>
<trkpt lat="54.2781850000" lon="-2.1902930000"><ele>589</ele><time>2013-11-17T14:08:40Z</time></trkpt>
<trkpt lat="54.2781910000" lon="-2.1902790000"><ele>589</ele><time>2013-11-17T14:08:41Z</time></trkpt>
<trkpt lat="54.2781960000" lon="-2.1902670000"><ele>589</ele><time>2013-11-17T14:08:42Z</time></trkpt>
<trkpt lat="54.2782020000" lon="-2.1902570000"><ele>589</ele><time>2013-11-17T14:08:43Z</time></trkpt>
<trkpt lat="54.2782090000" lon="-2.1902490000"><ele>589</ele><time>2013-11-17T14:08:44Z</time></trkpt>
<trkpt lat="54.2782160000" lon="-2.1902430000"><ele>589</ele><time>2013-11-17T14:08:45Z</time></trkpt>
<trkpt lat="54.2782230000" lon="-2.1902390000"><ele>589</ele><time>2013-11-17T14:08:46Z</time></trkpt>
<trkpt lat="54.2782290000" lon="-2.1902340000"><ele>589</ele><time>2013-11-17T14:08:47Z</time></trkpt>
<trkpt lat="54.2782350000" lon="-2.1902270000"><ele>589</ele><time>2013-11-17T14:08:48Z</time></trkpt>
<trkpt lat="54.2782440000" lon="-2.1902210000"><ele>589</ele><time>2013-11-17T14:08:49Z</time></trkpt>
<trkpt lat="54.2782540000" lon="-2.1902200000"><ele>589</ele><time>2013-11-17T14:08:50Z</time></trkpt>
<trkpt lat="54.2782650000" lon="-2.1902210000"><ele>589</ele><time>2013-11-17T14:08:51Z</time></trkpt>
<trkpt lat="54.2782750000" lon="-2.1902200000"><ele>589</ele><time>2013-11-17T14:08:52Z</time></trkpt>
<trkpt lat="54.2782840000" lon="-2.1902180000"><ele>589</ele><time>2013-11-17T14:08:53Z</time></trkpt>
<trkpt lat="54.2782920000" lon="-2.1902140000"><ele>589</ele><time>2013-11-17T14:08:54Z</time></trkpt>
<trkpt lat="54.2782990000" lon="-2.1902080000"><ele>589</ele><time>2013-11-17T14:08:55Z</time></trkpt>
<trkpt lat="54.2783060000" lon="-2.1902020000"><ele>589</ele><time>2013-11-17T14:08:56Z</time></trkpt>
<trkpt lat="54.2783330000" lon="-2.1902000000"><ele>589</ele><time>2013-11-17T14:08:59Z</time></trkpt>
<trkpt lat="54.2783390000" lon="-2.1901990000"><ele>589</ele><time>2013-11-17T14:09:00Z</time></trkpt>
<trkpt lat="54.2783570000" lon="-2.1902000000"><ele>589</ele><time>2013-11-17T14:09:02Z</time></trkpt>
<trkpt lat="54.2783800000" lon="-2.1902040000"><ele>589</ele><time>2013-11-17T14:09:05Z</time></trkpt>
<trkpt lat="54.2784130000" lon="-2.1902050000"><ele>589</ele><time>2013-11-17T14:09:10Z</time></trkpt>
<trkpt lat="54.2784340000" lon="-2.1902080000"><ele>589</ele><time>2013-11-17T14:09:12Z</time></trkpt>
<trkpt lat="54.2784540000" lon="-2.1902050000"><ele>589</ele><time>2013-11-17T14:09:14Z</time></trkpt>
<trkpt lat="54.2784710000" lon="-2.1902080000"><ele>589</ele><time>2013-11-17T14:09:16Z</time></trkpt>
<trkpt lat="54.2784710000" lon="-2.1902090000"><ele>589</ele><time>2013-11-17T14:09:17Z</time></trkpt>
<trkpt lat="54.2784710000" lon="-2.1902100000"><ele>589</ele><time>2013-11-17T14:09:18Z</time></trkpt>
<trkpt lat="54.2784730000" lon="-2.1902070000"><ele>589</ele><time>2013-11-17T14:09:19Z</time></trkpt>
<trkpt lat="54.2784890000" lon="-2.1902020000"><ele>587</ele><time>2013-11-17T14:09:21Z</time></trkpt>
<trkpt lat="54.2784970000" lon="-2.1902000000"><ele>587</ele><time>2013-11-17T14:09:22Z</time></trkpt>
<trkpt lat="54.2785060000" lon="-2.1901980000"><ele>587</ele><time>2013-11-17T14:09:23Z</time></trkpt>
<trkpt lat="54.2785150000" lon="-2.1901950000"><ele>587</ele><time>2013-11-17T14:09:24Z</time></trkpt>
<trkpt lat="54.2785240000" lon="-2.1901890000"><ele>587</ele><time>2013-11-17T14:09:25Z</time></trkpt>
<trkpt lat="54.2785330000" lon="-2.1901840000"><ele>587</ele><time>2013-11-17T14:09:26Z</time></trkpt>
<trkpt lat="54.2785420000" lon="-2.1901810000"><ele>587</ele><time>2013-11-17T14:09:27Z</time></trkpt>
<trkpt lat="54.2785510000" lon="-2.1901790000"><ele>587</ele></trkpt>
<trkpt lat="54.2785600000" lon="-2.1901760000"><ele>587</ele><time>2013-11-17T14:09:29Z</time></trkpt>
<trkpt lat="54.2785700000" lon="-2.1901730000"><ele>587</ele><time>2013-11-17T14:09:30Z</time></trkpt>
<trkpt lat="54.2785810000" lon="-2.1901690000"><ele>587</ele><time>2013-11-17T14:09:31Z</time></trkpt>
<trkpt lat="54.2785900000" lon="-2.1901660000"><ele>587</ele><time>2013-11-17T14:09:32Z</time></trkpt>
<trkpt lat="54.2786000000" lon="-2.1901640000"><ele>587</ele><time>2013-11-17T14:09:33Z</time></trkpt>
<trkpt lat="54.2786100000" lon="-2.1901610000"><ele>587</ele><time>2013-11-17T14:09:34Z</time></trkpt>
<trkpt lat="54.2786180000" lon="-2.1901570000"><ele>587</ele><time>2013-11-17T14:09:35Z</time></trkpt>
<trkpt lat="54.2786260000" lon="-2.1901550000"><ele>587</ele><time>2013-11-17T14:09:36Z</time></trkpt>
<trkpt lat="54.2786330000" lon="-2.1901520000"><ele>587</ele><time>2013-11-17T14:09:37Z</time></trkpt>
<trkpt lat="54.2786410000" lon="-2.1901450000"><ele>587</ele><time>2013-11-17T14:09:38Z</time></trkpt>
<trkpt lat="54.2786490000" lon="-2.1901350000"><ele>587</ele><time>2013-11-17T14:09:39Z</time></trkpt>
<trkpt lat="54.2786570000" lon="-2.1901260000"><ele>587</ele><time>2013-11-17T14:09:40Z</time></trkpt>
<trkpt lat="54.2786640000" lon="-2.1901200000"><ele>587</ele><time>2013-11-17T14:09:41Z</time></trkpt>
<trkpt lat="54.2786710000" lon="-2.1901140000"><ele>587</ele><time>2013-11-17T14:09:42Z</time></trkpt>
<trkpt lat="54.2786780000" lon="-2.1901080000"><ele>587</ele><time>2013-11-17T14:09:43Z</time></trkpt>
<trkpt lat="54.2786860000" lon="-2.1901000000"><ele>587</ele><time>2013-11-17T14:09:44Z</time></trkpt>
<trkpt lat="54.2786930000" lon="-2.1900930000"><ele>587</ele><time>2013-11-17T14:09:45Z</time></trkpt>
<trkpt lat="54.2787010000" lon="-2.1900870000"><ele>587</ele><time>2013-11-17T14:09:46Z</time></trkpt>
<trkpt lat="54.2787080000" lon="-2.1900810000"><ele>587</ele></trkpt>
<trkpt lat="54.2787150000" lon="-2.1900740000"><ele>587</ele><time>2013-11-17T14:09:48Z</time></trkpt>
<trkpt lat="54.2787230000" lon="-2.1900700000"><ele>587</ele><time>2013-11-17T14:09:49Z</time></trkpt>
<trkpt lat="54.2787310000" lon="-2.1900690000"><ele>587</ele><time>2013-11-17T14:09:50Z</time></trkpt>
<trkpt lat="54.2787380000" lon="-2.1900670000"><ele>587</ele><time>2013-11-17T14:09:51Z</time></trkpt>
<trkpt lat="54.2787460000" lon="-2.1900640000"><ele>587</ele><time>2013-11-17T14:09:52Z</time></trkpt>
<trkpt lat="54.2787540000" lon="-2.1900610000"><ele>587</ele><time>2013-11-17T14:09:53Z</time></trkpt>
<trkpt lat="54.2787630000" lon="-2.1900550000"><ele>587</ele><time>2013-11-17T14:09:54Z</time></trkpt>
<trkpt lat="54.2787710000" lon="-2.1900510000"><ele>587</ele><time>2013-11-17T14:09:55Z</time></trkpt>
<trkpt lat="54.2787800000" lon="-2.1900470000"><ele>587</ele><time>2013-11-17T14:09:56Z</time></trkpt>
<trkpt lat="54.2787880000" lon="-2.1900430000"><ele>587</ele><time>2013-11-17T14:09:57Z</time></trkpt>
<trkpt lat="54.2787970000" lon="-2.1900400000"><ele>587</ele><time>2013-11-17T14:09:58Z</time></trkpt>
<trkpt lat="54.2788060000" lon="-2.1900390000"><ele>587</ele><time>2013-11-17T14:09:59Z</time></trkpt>
<trkpt lat="54.2788150000" lon="-2.1900390000"><ele>587</ele><time>2013-11-17T14:10:00Z</time></trkpt>
<trkpt lat="54.2788250000" lon="-2.1900380000"><ele>587</ele><time>2013-11-17T14:10:01Z</time></trkpt>
<trkpt lat="54.2788340000" lon="-2.1900350000"><ele>587</ele><time>2013-11-17T14:10:02Z</time></trkpt>
<trkpt lat="54.2788430000" lon="-2.1900290000"><ele>587</ele><time>2013-11-17T14:10:03Z</time></trkpt>
<trkpt lat="54.2788510000" lon="-2.1900220000"><ele>587</ele><time>2013-11-17T14:10:04Z</time></trkpt>
<trkpt lat="54.2788590000" lon="-2.1900150000"><ele>587</ele><time>2013-11-17T14:10:05Z</time></trkpt>
<trkpt lat="54.2788670000" lon="-2.1900090000"><ele>587</ele><time>2013-11-17T14:10:06Z</time></trkpt>
<trkpt lat="54.2788750000" lon="-2.1900030000"><ele>587</ele><time>2013-11-17T14:10:07Z</time></trkpt>
<trkpt lat="54.2788850000" lon="-2.1899980000"><ele>587</ele><time>2013-11-17T14:10:08Z</time></trkpt>
<trkpt lat="54.2788940000" lon="-2.1899910000"><ele>587</ele><time>2013-11-17T14:10:09Z</time></trkpt>
<trkpt lat="54.2789030000" lon="-2.1899820000"><ele>587</ele><time>2013-11-17T14:10:10Z</time></trkpt>
<trkpt lat="54.2789120000" lon="-2.1899740000"><ele>587</ele><time>2013-11-17T14:10:11Z</time></trkpt>
<trkpt lat="54.2789210000" lon="-2.1899670000"><ele>587</ele></trkpt>
<trkpt lat="54.2789320000" lon="-2.1899620000"><ele>587</ele><time>2013-11-17T14:10:13Z</time></trkpt>
<trkpt lat="54.2789430000" lon="-2.1899560000"><ele>587</ele><time>2013-11-17T14:10:14Z</time></trkpt>
<trkpt lat="54.2789530000" lon="-2.1899470000"><ele>587</ele><time>2013-11-17T14:10:15Z</time></trkpt>
<trkpt lat="54.2789610000" lon="-2.1899380000"><ele>587</ele><time>2013-11-17T14:10:16Z</time></trkpt>
<trkpt lat="54.2789680000" lon="-2.1899270000"><ele>587</ele><time>2013-11-17T14:10:17Z</time></trkpt>
<trkpt lat="54.2789720000" lon="-2.1899150000"><ele>587</ele><time>2013-11-17T14:10:18Z</time></trkpt>
<trkpt lat="54.2789750000" lon="-2.1899010000"><ele>587</ele><time>2013-11-17T14:10:19Z</time></trkpt>
<trkpt lat="54.2789780000" lon="-2.1898870000"><ele>587</ele><time>2013-11-17T14:10:20Z</time></trkpt>
<trkpt lat="54.2789830000" lon="-2.1898750000"><ele>587</ele><time>2013-11-17T14:10:21Z</time></trkpt>
<trkpt lat="54.2789880000" lon="-2.1898630000"><ele>587</ele><time>2013-11-17T14:10:22Z</time></trkpt>
<trkpt lat="54.2789940000" lon="-2.1898500000"><ele>587</ele><time>2013-11-17T14:10:23Z</time></trkpt>
<trkpt lat="54.2789990000" lon="-2.1898360000"><ele>587</ele><time>2013-11-17T14:10:24Z</time></trkpt>
<trkpt lat="54.2790040000" lon="-2.1898230000"><ele>587</ele><time>2013-11-17T14:10:25Z</time></trkpt>
<trkpt lat="54.2790090000" lon="-2.1898100000"><ele>587</ele><time>2013-11-17T14:10:26Z</time></trkpt>
<trkpt lat="54.2790130000" lon="-2.1897960000"><ele>587</ele><time>2013-11-17T14:10:27Z</time></trkpt>
<trkpt lat="54.2790180000" lon="-2.1897830000"><ele>587</ele><time>2013-11-17T14:10:28Z</time></trkpt>
<trkpt lat="54.2790220000" lon="-2.1897700000"><ele>587</ele><time>2013-11-17T14:10:29Z</time></trkpt>
<trkpt lat="54.2790270000" lon="-2.1897560000"><ele>587</ele><time>2013-11-17T14:10:30Z</time></trkpt>
<trkpt lat="54.2790310000" lon="-2.1897400000"><ele>587</ele><time>2013-11-17T14:10:31Z</time></trkpt>
<trkpt lat="54.2790360000" lon="-2.1897230000"><ele>587</ele><time>2013-11-17T14:10:32Z</time></trkpt>
<trkpt lat="54.2790380000" lon="-2.1897070000"><ele>587</ele><time>2013-11-17T14:10:33Z</time></trkpt>
<trkpt lat="54.2790380000" lon="-2.1896990000"><ele>587</ele><time>2013-11-17T14:10:34Z</time></trkpt>
<trkpt lat="54.2790380000" lon="-2.1896960000"><ele>587</ele><time>2013-11-17T14:10:35Z</time></trkpt>
<trkpt lat="54.2790450000" lon="-2.1896550000"><ele>587</ele><time>2013-11-17T14:10:46Z</time></trkpt>
<trkpt lat="54.2790510000" lon="-2.1896430000"><ele>587</ele><time>2013-11-17T14:10:47Z</time></trkpt>
<trkpt lat="54.2790560000" lon="-2.1896320000"><ele>587</ele><time>2013-11-17T14:10:48Z</time></trkpt>
<trkpt lat="54.2790630000" lon="-2.1896220000"><ele>587</ele><time>2013-11-17T14:10:49Z</time></trkpt>
<trkpt lat="54.2790720000" lon="-2.1896120000"><ele>587</ele><time>2013-11-17T14:10:50Z</time></trkpt>
<trkpt lat="54.2790800000" lon="-2.1896020000"><ele>587</ele><time>2013-11-17T14:10:51Z</time></trkpt>
<trkpt lat="54.2790870000" lon="-2.1895890000"><ele>587</ele><time>2013-11-17T14:10:52Z</time></trkpt>
<trkpt lat="54.2790940000" lon="-2.1895760000"><ele>587</ele><time>2013-11-17T14:10:53Z</time></trkpt>
<trkpt lat="54.2790980000" lon="-2.1895620000"><ele>587</ele><time>2013-11-17T14:10:54Z</time></trkpt>
<trkpt lat="54.2791030000" lon="-2.1895500000"><ele>587</ele><time>2013-11-17T14:10:55Z</time></trkpt>
<trkpt lat="54.2791080000" lon="-2.1895390000"><ele>587</ele><time>2013-11-17T14:10:56Z</time></trkpt>
<trkpt lat="54.2791120000" lon="-2.1895300000"><ele>587</ele><time>2013-11-17T14:10:57Z</time></trkpt>
<trkpt lat="54.2791180000" lon="-2.1895200000"><ele>587</ele><time>2013-11-17T14:10:58Z</time></trkpt>
<trkpt lat="54.2791250000" lon="-2.1895080000"><ele>587</ele><time>2013-11-17T14:10:59Z</time></trkpt>
<trkpt lat="54.2791310000" lon="-2.1894970000"><ele>587</ele><time>2013-11-17T14:11:00Z</time></trkpt>
<trkpt lat="54.2791380000" lon="-2.1894890000"><ele>587</ele><time>2013-11-17T14:11:01Z</time></trkpt>
<trkpt lat="54.2791450000" lon="-2.1894800000"><ele>587</ele><time>2013-11-17T14:11:02Z</time></trkpt>
<trkpt lat="54.2791490000" lon="-2.1894710000"><ele>587</ele><time>2013-11-17T14:11:03Z</time></trkpt>
<trkpt lat="54.2791490000" lon="-2.1894620000"><ele>587</ele><time>2013-11-17T14:11:04Z</time></trkpt>
<trkpt lat="54.2791480000" lon="-2.1894530000"><ele>587</ele><time>2013-11-17T14:11:05Z</time></trkpt>
<trkpt lat="54.2791460000" lon="-2.1894440000"><ele>587</ele><time>2013-11-17T14:11:06Z</time></trkpt>
<trkpt lat="54.2791450000" lon="-2.1894360000"><ele>587</ele><time>2013-11-17T14:11:07Z</time></trkpt>
<trkpt lat="54.2791460000" lon="-2.1894250000"><ele>587</ele><time>2013-11-17T14:11:08Z</time></trkpt>
<trkpt lat="54.2791490000" lon="-2.1894100000"><ele>587</ele><time>2013-11-17T14:11:09Z</time></trkpt>
<trkpt lat="54.2791520000" lon="-2.1893950000"><ele>587</ele><time>2013-11-17T14:11:10Z</time></trkpt>
<trkpt lat="54.2791560000" lon="-2.1893790000"><ele>587</ele><time>2013-11-17T14:11:11Z</time></trkpt>
<trkpt lat="54.2791610000" lon="-2.1893620000"><ele>587</ele><time>2013-11-17T14:11:12Z</time></trkpt>
<trkpt lat="54.2791650000" lon="-2.1893470000"><ele>587</ele><time>2013-11-17T14:11:13Z</time></trkpt>
<trkpt lat="54.2791700000" lon="-2.1893340000"><ele>587</ele><time>2013-11-17T14:11:14Z</time></trkpt>
<trkpt lat="54.2791770000" lon="-2.1893240000"><ele>587</ele><time>2013-11-17T14:11:15Z</time></trkpt>
<trkpt lat="54.2791830000" lon="-2.1893140000"><ele>587</ele><time>2013-11-17T14:11:16Z</time></trkpt>
<trkpt lat="54.2791900000" lon="-2.1893030000"><ele>587</ele><time>2013-11-17T14:11:17Z</time></trkpt>
<trkpt lat="54.2791980000" lon="-2.1892910000"><ele>587</ele><time>2013-11-17T14:11:18Z</time></trkpt>
<trkpt lat="54.2792050000" lon="-2.1892800000"><ele>587</ele><time>2013-11-17T14:11:19Z</time></trkpt>
<trkpt lat="54.2792120000" lon="-2.1892680000"><ele>587</ele><time>2013-11-17T14:11:20Z</time></trkpt>
<trkpt lat="54.2792200000" lon="-2.1892570000"><ele>587</ele><time>2013-11-17T14:11:22Z</time></trkpt>
<trkpt lat="54.2792390000" lon="-2.1892380000"><ele>587</ele><time>2013-11-17T14:11:32Z</time></trkpt>
<trkpt lat="54.2792450000" lon="-2.1892280000"><ele>587</ele><time>2013-11-17T14:11:33Z</time></trkpt>
<trkpt lat="54.2792520000" lon="-2.1892170000"><ele>587</ele><time>2013-11-17T14:11:34Z</time></trkpt>
<trkpt lat="54.2792600000" lon="-2.1892070000"><ele>587</ele><time>2013-11-17T14:11:35Z</time></trkpt>
<trkpt lat="54.2792680000" lon="-2.1891980000"><ele>587</ele><time>2013-11-17T14:11:36Z</time></trkpt>
<trkpt lat="54.2792760000" lon="-2.1891890000"><ele>587</ele><time>2013-11-17T14:11:37Z</time></trkpt>
<trkpt lat="54.2792820000" lon="-2.1891800000"><ele>587</ele><time>2013-11-17T14:11:38Z</time></trkpt>
<trkpt lat="54.2792880000" lon="-2.1891700000"><ele>587</ele><time>2013-11-17T14:11:39Z</time></trkpt>
<trkpt lat="54.2792950000" lon="-2.1891600000"><ele>587</ele><time>2013-11-17T14:11:40Z</time></trkpt>
<trkpt lat="54.2793030000" lon="-2.1891520000"><ele>587</ele><time>2013-11-17T14:11:41Z</time></trkpt>
<trkpt lat="54.2793090000" lon="-2.1891450000"><ele>587</ele><time>2013-11-17T14:11:42Z</time></trkpt>
<trkpt lat="54.2793150000" lon="-2.1891370000"><ele>587</ele><time>2013-11-17T14:11:43Z</time></trkpt>
<trkpt lat="54.2793200000" lon="-2.1891270000"><ele>587</ele><time>2013-11-17T14:11:44Z</time></trkpt>
<trkpt lat="54.2793260000" lon="-2.1891140000"><ele>587</ele><time>2013-11-17T14:11:45Z</time></trkpt>
<trkpt lat="54.2793310000" lon="-2.1890960000"><ele>587</ele></trkpt>
<trkpt lat="54.2793330000" lon="-2.1890760000"><ele>587</ele><time>2013-11-17T14:11:47Z</time></trkpt>
<trkpt lat="54.2793330000" lon="-2.1890570000"><ele>587</ele><time>2013-11-17T14:11:48Z</time></trkpt>
<trkpt lat="54.2793310000" lon="-2.1890380000"><ele>587</ele><time>2013-11-17T14:11:49Z</time></trkpt>
<trkpt lat="54.2793310000" lon="-2.1890170000"><ele>587</ele><time>2013-11-17T14:11:50Z</time></trkpt>
<trkpt lat="54.2793320000" lon="-2.1889970000"><ele>587</ele><time>2013-11-17T14:11:51Z</time></trkpt>
<trkpt lat="54.2793370000" lon="-2.1889790000"><ele>587</ele></trkpt>
<trkpt lat="54.2793430000" lon="-2.1889660000"><ele>587</ele><time>2013-11-17T14:11:53Z</time></trkpt>
<trkpt lat="54.2793490000" lon="-2.1889570000"><ele>587</ele><time>2013-11-17T14:11:54Z</time></trkpt>
<trkpt lat="54.2793540000" lon="-2.1889490000"><ele>587</ele><time>2013-11-17T14:11:55Z</time></trkpt>
<trkpt lat="54.2793580000" lon="-2.1889380000"><ele>587</ele><time>2013-11-17T14:11:56Z</time></trkpt>
<trkpt lat="54.2793600000" lon="-2.1889260000"><ele>587</ele><time>2013-11-17T14:11:57Z</time></trkpt>
<trkpt lat="54.2793620000" lon="-2.1889150000"><ele>587</ele><time>2013-11-17T14:11:58Z</time></trkpt>
<trkpt lat="54.2793650000" lon="-2.1889020000"><ele>587</ele><time>2013-11-17T14:11:59Z</time></trkpt>
<trkpt lat="54.2793690000" lon="-2.1888900000"><ele>587</ele><time>2013-11-17T14:12:00Z</time></trkpt>
<trkpt lat="54.2793720000" lon="-2.1888760000"><ele>580</ele><time>2013-11-17T14:12:01Z</time></trkpt>
<trkpt lat="54.2793740000" lon="-2.1888630000"><ele>580</ele><time>2013-11-17T14:12:02Z</time></trkpt>
<trkpt lat="54.2793760000" lon="-2.1888560000"><ele>580</ele><time>2013-11-17T14:12:03Z</time></trkpt>
<trkpt lat="54.2793760000" lon="-2.1888530000"><ele>580</ele><time>2013-11-17T14:12:04Z</time></trkpt>
<trkpt lat="54.2793760000" lon="-2.1888510000"><ele>580</ele></trkpt>
<trkpt lat="54.2793760000" lon="-2.1888490000"><ele>580</ele><time>2013-11-17T14:12:06Z</time></trkpt>
<trkpt lat="54.2793770000" lon="-2.1888460000"><ele>580</ele><time>2013-11-17T14:12:07Z</time></trkpt>
<trkpt lat="54.2793770000" lon="-2.1888450000"><ele>580</ele><time>2013-11-17T14:12:08Z</time></trkpt>
<trkpt lat="54.2793770000" lon="-2.1888440000"><ele>580</ele><time>2013-11-17T14:12:09Z</time></trkpt>
<trkpt lat="54.2793780000" lon="-2.1888440000"><ele>580</ele><time>2013-11-17T14:12:10Z</time></trkpt>
<trkpt lat="54.2793790000" lon="-2.1888430000"><ele>580</ele></trkpt>
<trkpt lat="54.2793800000" lon="-2.1888360000"><ele>580</ele><time>2013-11-17T14:12:12Z</time></trkpt>
<trkpt lat="54.2793820000" lon="-2.1888220000"><ele>580</ele><time>2013-11-17T14:12:13Z</time></trkpt>
<trkpt lat="54.2793840000" lon="-2.1887780000"><ele>580</ele><time>2013-11-17T14:12:16Z</time></trkpt>
<trkpt lat="54.2793860000" lon="-2.1887440000"><ele>580</ele><time>2013-11-17T14:12:18Z</time></trkpt>
<trkpt lat="54.2793870000" lon="-2.1887080000"><ele>580</ele><time>2013-11-17T14:12:20Z</time></trkpt>
<trkpt lat="54.2793890000" lon="-2.1886800000"><ele>580</ele><time>2013-11-17T14:12:21Z</time></trkpt>
<trkpt lat="54.2793900000" lon="-2.1886630000"><ele>580</ele><time>2013-11-17T14:12:22Z</time></trkpt>
<trkpt lat="54.2793920000" lon="-2.1886460000"><ele>580</ele><time>2013-11-17T14:12:23Z</time></trkpt>
<trkpt lat="54.2793900000" lon="-2.1886050000"><ele>580</ele><time>2013-11-17T14:12:25Z</time></trkpt>
<trkpt lat="54.2793880000" lon="-2.1885910000"><ele>580</ele><time>2013-11-17T14:12:26Z</time></trkpt>
<trkpt lat="54.2793830000" lon="-2.1885800000"><ele>580</ele><time>2013-11-17T14:12:27Z</time></trkpt>
<trkpt lat="54.2793790000" lon="-2.1885680000"><ele>580</ele><time>2013-11-17T14:12:28Z</time></trkpt>
<trkpt lat="54.2793760000" lon="-2.1885510000"><ele>580</ele><time>2013-11-17T14:12:29Z</time></trkpt>
<trkpt lat="54.2793760000" lon="-2.1885330000"><ele>580</ele></trkpt>
<trkpt lat="54.2793780000" lon="-2.1885190000"><ele>580</ele><time>2013-11-17T14:12:31Z</time></trkpt>
<trkpt lat="54.2793970000" lon="-2.1884940000"><ele>580</ele><time>2013-11-17T14:12:34Z</time></trkpt>
<trkpt lat="54.2794120000" lon="-2.1884770000"><ele>580</ele><time>2013-11-17T14:12:35Z</time></trkpt>
<trkpt lat="54.2794280000" lon="-2.1884600000"><ele>580</ele><time>2013-11-17T14:12:38Z</time></trkpt>
<trkpt lat="54.2794420000" lon="-2.1884460000"><ele>580</ele><time>2013-11-17T14:12:39Z</time></trkpt>
<trkpt lat="54.2794490000" lon="-2.1884390000"><ele>580</ele><time>2013-11-17T14:12:40Z</time></trkpt>
<trkpt lat="54.2794560000" lon="-2.1884310000"><ele>580</ele><time>2013-11-17T14:12:41Z</time></trkpt>
<trkpt lat="54.2794620000" lon="-2.1884250000"><ele>580</ele><time>2013-11-17T14:12:42Z</time></trkpt>
<trkpt lat="54.2794830000" lon="-2.1884010000"><ele>580</ele><time>2013-11-17T14:12:45Z</time></trkpt>
<trkpt lat="54.2795030000" lon="-2.1883760000"><ele>580</ele><time>2013-11-17T14:12:47Z</time></trkpt>
<trkpt lat="54.2795090000" lon="-2.1883690000"><ele>580</ele><time>2013-11-17T14:12:48Z</time></trkpt>
<trkpt lat="54.2795150000" lon="-2.1883590000"><ele>580</ele><time>2013-11-17T14:12:49Z</time></trkpt>
<trkpt lat="54.2795220000" lon="-2.1883510000"><ele>580</ele><time>2013-11-17T14:12:50Z</time></trkpt>
<trkpt lat="54.2795290000" lon="-2.1883420000"><ele>580</ele><time>2013-11-17T14:12:51Z</time></trkpt>
<trkpt lat="54.2795350000" lon="-2.1883360000"><ele>580</ele><time>2013-11-17T14:12:52Z</time></trkpt>
<trkpt lat="54.2795400000" lon="-2.1883270000"><ele>580</ele><time>2013-11-17T14:12:53Z</time></trkpt>
<trkpt lat="54.2795450000" lon="-2.1883180000"><ele>580</ele><time>2013-11-17T14:12:54Z</time></trkpt>
<trkpt lat="54.2795480000" lon="-2.1883110000"><ele>580</ele></trkpt>
<trkpt lat="54.2795480000" lon="-2.1883100000"><ele>580</ele><time>2013-11-17T14:12:56Z</time></trkpt>
<trkpt lat="54.2795400000" lon="-2.1883160000"><ele>580</ele><time>2013-11-17T14:13:30Z</time></trkpt>
<trkpt lat="54.2795420000" lon="-2.1883180000"><ele>580</ele><time>2013-11-17T14:13:31Z</time></trkpt>
<trkpt lat="54.2795420000" lon="-2.1883180000"><ele>580</ele><time>2013-11-17T14:13:32Z</time></trkpt>
<trkpt lat="54.2795410000" lon="-2.1883180000"><ele>580</ele><time>2013-11-17T14:13:33Z</time></trkpt>
<trkpt lat="54.2795320000" lon="-2.1883500000"><ele>580</ele><time>2013-11-17T14:14:19Z</time></trkpt>
<trkpt lat="54.2795320000" lon="-2.1883500000"><ele>580</ele><time>2013-11-17T14:14:20Z</time></trkpt>
<trkpt lat="54.2795320000" lon="-2.1883490000"><ele>580</ele><time>2013-11-17T14:14:21Z</time></trkpt>
<trkpt lat="54.2795320000" lon="-2.1883490000"><ele>580</ele><time>2013-11-17T14:14:22Z</time></trkpt>
<trkpt lat="54.2795320000" lon="-2.1883490000"><ele>580</ele></trkpt>
<trkpt lat="54.2795320000" lon="-2.1883490000"><ele>580</ele><time>2013-11-17T14:14:24Z</time></trkpt>
<trkpt lat="54.2795320000" lon="-2.1883490000"><ele>580</ele><time>2013-11-17T14:14:25Z</time></trkpt>
<trkpt lat="54.2795310000" lon="-2.1883500000"><ele>580</ele><time>2013-11-17T14:14:26Z</time></trkpt>
<trkpt lat="54.2795310000" lon="-2.1883490000"><ele>580</ele><time>2013-11-17T14:14:27Z</time></trkpt>
<trkpt lat="54.2795310000" lon="-2.1883480000"><ele>580</ele><time>2013-11-17T14:14:28Z</time></trkpt>
<trkpt lat="54.2795320000" lon="-2.1883470000"><ele>580</ele><time>2013-11-17T14:14:29Z</time></trkpt>
<trkpt lat="54.2795330000" lon="-2.1883450000"><ele>580</ele><time>2013-11-17T14:14:30Z</time></trkpt>
<trkpt lat="54.2795330000" lon="-2.1883420000"><ele>580</ele><time>2013-11-17T14:14:31Z</time></trkpt>
<trkpt lat="54.2795340000" lon="-2.1883420000"><ele>580</ele><time>2013-11-17T14:14:32Z</time></trkpt>
<trkpt lat="54.2795330000" lon="-2.1883400000"><ele>580</ele><time>2013-11-17T14:14:41Z</time></trkpt>
<trkpt lat="54.2795330000" lon="-2.1883400000"><ele>580</ele><time>2013-11-17T14:14:43Z</time></trkpt>
<trkpt lat="54.2795330000" lon="-2.1883400000"><ele>580</ele><time>2013-11-17T14:14:44Z</time></trkpt>
<trkpt lat="54.2795340000" lon="-2.1883380000"><ele>580</ele><time>2013-11-17T14:14:45Z</time></trkpt>
<trkpt lat="54.2795350000" lon="-2.1883380000"><ele>580</ele><time>2013-11-17T14:14:46Z</time></trkpt>
<trkpt lat="54.2795360000" lon="-2.1883380000"><ele>580</ele><time>2013-11-17T14:14:47Z</time></trkpt>
<trkpt lat="54.2795360000" lon="-2.1883390000"><ele>580</ele></trkpt>
<trkpt lat="54.2795360000" lon="-2.1883400000"><ele>580</ele><time>2013-11-17T14:14:48Z</time></trkpt>
<trkpt lat="54.2795370000" lon="-2.1883420000"><ele>580</ele><time>2013-11-17T14:14:50Z</time></trkpt>
<trkpt lat="54.2795360000" lon="-2.1883440000"><ele>580</ele><time>2013-11-17T14:14:52Z</time></trkpt>
<trkpt lat="54.2795390000" lon="-2.1883530000"><ele>580</ele><time>2013-11-17T14:15:44Z</time></trkpt>
<trkpt lat="54.2795390000" lon="-2.1883530000"><ele>580</ele><time>2013-11-17T14:15:47Z</time></trkpt>
<trkpt lat="54.2795400000" lon="-2.1883530000"><ele>580</ele><time>2013-11-17T14:15:48Z</time></trkpt>
<trkpt lat="54.2795400000" lon="-2.1883530000"><ele>580</ele><time>2013-11-17T14:15:49Z</time></trkpt>
<trkpt lat="54.2795400000" lon="-2.1883530000"><ele>580</ele><time>2013-11-17T14:15:50Z</time></trkpt>
<trkpt lat="54.2795400000" lon="-2.1883520000"><ele>580</ele><time>2013-11-17T14:15:51Z</time></trkpt>
<trkpt lat="54.2795400000" lon="-2.1883520000"><ele>580</ele><time>2013-11-17T14:15:52Z</time></trkpt>
<trkpt lat="54.2795400000" lon="-2.1883520000"><ele>580</ele><time>2013-11-17T14:15:53Z</time></trkpt>
<trkpt lat="54.2795400000" lon="-2.1883520000"><ele>580</ele><time>2013-11-17T14:15:54Z</time></trkpt>
<trkpt lat="54.2795400000" lon="-2.1883520000"><ele>580</ele><time>2013-11-17T14:15:56Z</time></trkpt>
<trkpt lat="54.2795400000" lon="-2.1883520000"><ele>580</ele></trkpt>
<trkpt lat="54.2795390000" lon="-2.1883520000"><ele>580</ele><time>2013-11-17T14:15:57Z</time></trkpt>
<trkpt lat="54.2795390000" lon="-2.1883520000"><ele>580</ele><time>2013-11-17T14:15:59Z</time></trkpt>
<trkpt lat="54.2795390000" lon="-2.1883520000"><ele>580</ele><time>2013-11-17T14:16:00Z</time></trkpt>
<trkpt lat="54.2795390000" lon="-2.1883510000"><ele>580</ele><time>2013-11-17T14:16:01Z</time></trkpt>
<trkpt lat="54.2795400000" lon="-2.1883510000"><ele>580</ele><time>2013-11-17T14:16:02Z</time></trkpt>
<trkpt lat="54.2795430000" lon="-2.1883500000"><ele>580</ele></trkpt>
<trkpt lat="54.2795460000" lon="-2.1883480000"><ele>580</ele><time>2013-11-17T14:16:03Z</time></trkpt>
<trkpt lat="54.2795480000" lon="-2.1883470000"><ele>580</ele><time>2013-11-17T14:16:05Z</time></trkpt>
<trkpt lat="54.2795490000" lon="-2.1883460000"><ele>580</ele><time>2013-11-17T14:16:06Z</time></trkpt>
<trkpt lat="54.2795490000" lon="-2.1883460000"><ele>580</ele><time>2013-11-17T14:16:07Z</time></trkpt>
<trkpt lat="54.2795490000" lon="-2.1883470000"><ele>580</ele><time>2013-11-17T14:16:08Z</time></trkpt>
<trkpt lat="54.2795500000" lon="-2.1883470000"><ele>580</ele></trkpt>
<trkpt lat="54.2795500000" lon="-2.1883470000"><ele>580</ele><time>2013-11-17T14:16:09Z</time></trkpt>
<trkpt lat="54.2795500000" lon="-2.1883470000"><ele>580</ele><time>2013-11-17T14:16:11Z</time></trkpt>
<trkpt lat="54.2795510000" lon="-2.1883470000"><ele>580</ele><time>2013-11-17T14:16:12Z</time></trkpt>
<trkpt lat="54.2795530000" lon="-2.1883420000"><ele>580</ele><time>2013-11-17T14:16:13Z</time></trkpt>
<trkpt lat="54.2795550000" lon="-2.1883330000"><ele>580</ele><time>2013-11-17T14:16:14Z</time></trkpt>
<trkpt lat="54.2795580000" lon="-2.1883200000"><ele>580</ele><time>2013-11-17T14:16:15Z</time></trkpt>
<trkpt lat="54.2795600000" lon="-2.1883060000"><ele>580</ele><time>2013-11-17T14:16:16Z</time></trkpt>
<trkpt lat="54.2795610000" lon="-2.1882970000"><ele>580</ele><time>2013-11-17T14:16:17Z</time></trkpt>
<trkpt lat="54.2795620000" lon="-2.1882910000"><ele>580</ele><time>2013-11-17T14:16:18Z</time></trkpt>
<trkpt lat="54.2795660000" lon="-2.1882800000"><ele>580</ele><time>2013-11-17T14:16:19Z</time></trkpt>
<trkpt lat="54.2795700000" lon="-2.1882650000"><ele>580</ele><time>2013-11-17T14:16:20Z</time></trkpt>
<trkpt lat="54.2795780000" lon="-2.1882180000"><ele>580</ele><time>2013-11-17T14:16:23Z</time></trkpt>
<trkpt lat="54.2795800000" lon="-2.1881930000"><ele>580</ele><time>2013-11-17T14:16:24Z</time></trkpt>
<trkpt lat="54.2795820000" lon="-2.1881780000"><ele>580</ele><time>2013-11-17T14:16:25Z</time></trkpt>
<trkpt lat="54.2795850000" lon="-2.1881600000"><ele>580</ele><time>2013-11-17T14:16:26Z</time></trkpt>
<trkpt lat="54.2795880000" lon="-2.1881440000"><ele>580</ele><time>2013-11-17T14:16:27Z</time></trkpt>
<trkpt lat="54.2795910000" lon="-2.1881260000"><ele>580</ele></trkpt>
<trkpt lat="54.2795950000" lon="-2.1881090000"><ele>580</ele><time>2013-11-17T14:16:28Z</time></trkpt>
<trkpt lat="54.2796000000" lon="-2.1880910000"><ele>580</ele><time>2013-11-17T14:16:30Z</time></trkpt>
<trkpt lat="54.2796050000" lon="-2.1880720000"><ele>580</ele><time>2013-11-17T14:16:31Z</time></trkpt>
<trkpt lat="54.2796110000" lon="-2.1880540000"><ele>580</ele><time>2013-11-17T14:16:32Z</time></trkpt>
<trkpt lat="54.2796150000" lon="-2.1880380000"><ele>580</ele><time>2013-11-17T14:16:33Z</time></trkpt>
<trkpt lat="54.2796190000" lon="-2.1880220000"><ele>580</ele><time>2013-11-17T14:16:34Z</time></trkpt>
<trkpt lat="54.2796230000" lon="-2.1880050000"><ele>580</ele><time>2013-11-17T14:16:35Z</time></trkpt>
<trkpt lat="54.2796270000" lon="-2.1879940000"><ele>580</ele><time>2013-11-17T14:16:36Z</time></trkpt>
<trkpt lat="54.2796300000" lon="-2.1879880000"><ele>580</ele><time>2013-11-17T14:16:37Z</time></trkpt>
<trkpt lat="54.2796350000" lon="-2.1879760000"><ele>580</ele><time>2013-11-17T14:16:38Z</time></trkpt>
<trkpt lat="54.2796420000" lon="-2.1879590000"><ele>580</ele><time>2013-11-17T14:16:39Z</time></trkpt>
<trkpt lat="54.2796530000" lon="-2.1879310000"><ele>580</ele><time>2013-11-17T14:16:41Z</time></trkpt>
<trkpt lat="54.2796700000" lon="-2.1878990000"><ele>580</ele><time>2013-11-17T14:16:43Z</time></trkpt>
<trkpt lat="54.2796810000" lon="-2.1878770000"><ele>580</ele><time>2013-11-17T14:16:44Z</time></trkpt>
<trkpt lat="54.2796870000" lon="-2.1878630000"><ele>580</ele><time>2013-11-17T14:16:45Z</time></trkpt>
<trkpt lat="54.2796950000" lon="-2.1878480000"><ele>580</ele><time>2013-11-17T14:16:46Z</time></trkpt>
<trkpt lat="54.2797030000" lon="-2.1878340000"><ele>580</ele></trkpt>
<trkpt lat="54.2797100000" lon="-2.1878230000"><ele>580</ele><time>2013-11-17T14:16:47Z</time></trkpt>
<trkpt lat="54.2797180000" lon="-2.1878120000"><ele>580</ele><time>2013-11-17T14:16:49Z</time></trkpt>
<trkpt lat="54.2797250000" lon="-2.1877990000"><ele>580</ele><time>2013-11-17T14:16:50Z</time></trkpt>
<trkpt lat="54.2797320000" lon="-2.1877870000"><ele>580</ele><time>2013-11-17T14:16:51Z</time></trkpt>
<trkpt lat="54.2797390000" lon="-2.1877740000"><ele>580</ele><time>2013-11-17T14:16:52Z</time></trkpt>
<trkpt lat="54.2797460000" lon="-2.1877610000"><ele>580</ele><time>2013-11-17T14:16:53Z</time></trkpt>
<trkpt lat="54.2797670000" lon="-2.1877320000"><ele>580</ele><time>2013-11-17T14:16:56Z</time></trkpt>
<trkpt lat="54.2797870000" lon="-2.1877080000"><ele>580</ele><time>2013-11-17T14:16:58Z</time></trkpt>
<trkpt lat="54.2798090000" lon="-2.1876850000"><ele>580</ele><time>2013-11-17T14:17:00Z</time></trkpt>
<trkpt lat="54.2798170000" lon="-2.1876810000"><ele>580</ele><time>2013-11-17T14:17:01Z</time></trkpt>
<trkpt lat="54.2798280000" lon="-2.1876790000"><ele>580</ele><time>2013-11-17T14:17:02Z</time></trkpt>
<trkpt lat="54.2798390000" lon="-2.1876750000"><ele>580</ele><time>2013-11-17T14:17:03Z</time></trkpt>
<trkpt lat="54.2798590000" lon="-2.1876720000"><ele>580</ele><time>2013-11-17T14:17:05Z</time></trkpt>
<trkpt lat="54.2798760000" lon="-2.1876680000"><ele>580</ele></trkpt>
<trkpt lat="54.2798840000" lon="-2.1876640000"><ele>580</ele><time>2013-11-17T14:17:07Z</time></trkpt>
<trkpt lat="54.2798920000" lon="-2.1876570000"><ele>580</ele><time>2013-11-17T14:17:08Z</time></trkpt>
<trkpt lat="54.2799010000" lon="-2.1876470000"><ele>580</ele><time>2013-11-17T14:17:09Z</time></trkpt>
<trkpt lat="54.2799090000" lon="-2.1876360000"><ele>580</ele><time>2013-11-17T14:17:10Z</time></trkpt>
<trkpt lat="54.2799150000" lon="-2.1876230000"><ele>580</ele><time>2013-11-17T14:17:11Z</time></trkpt>
<trkpt lat="54.2799210000" lon="-2.1876090000"><ele>580</ele></trkpt>
<trkpt lat="54.2799270000" lon="-2.1875960000"><ele>580</ele><time>2013-11-17T14:17:13Z</time></trkpt>
<trkpt lat="54.2799330000" lon="-2.1875830000"><ele>580</ele><time>2013-11-17T14:17:14Z</time></trkpt>
<trkpt lat="54.2799370000" lon="-2.1875670000"><ele>580</ele><time>2013-11-17T14:17:15Z</time></trkpt>
<trkpt lat="54.2799420000" lon="-2.1875500000"><ele>580</ele><time>2013-11-17T14:17:16Z</time></trkpt>
<trkpt lat="54.2799460000" lon="-2.1875340000"><ele>580</ele><time>2013-11-17T14:17:17Z</time></trkpt>
<trkpt lat="54.2799490000" lon="-2.1875180000"><ele>580</ele><time>2013-11-17T14:17:18Z</time></trkpt>
<trkpt lat="54.2799530000" lon="-2.1875030000"><ele>580</ele></trkpt>
<trkpt lat="54.2799570000" lon="-2.1874890000"><ele>580</ele><time>2013-11-17T14:17:20Z</time></trkpt>
<trkpt lat="54.2799610000" lon="-2.1874740000"><ele>580</ele><time>2013-11-17T14:17:21Z</time></trkpt>
<trkpt lat="54.2799640000" lon="-2.1874590000"><ele>580</ele><time>2013-11-17T14:17:22Z</time></trkpt>
<trkpt lat="54.2799680000" lon="-2.1874410000"><ele>580</ele><time>2013-11-17T14:17:23Z</time></trkpt>
<trkpt lat="54.2799720000" lon="-2.1874230000"><ele>580</ele><time>2013-11-17T14:17:24Z</time></trkpt>
<trkpt lat="54.2799770000" lon="-2.1874050000"><ele>580</ele><time>2013-11-17T14:17:25Z</time></trkpt>
<trkpt lat="54.2799830000" lon="-2.1873860000"><ele>580</ele><time>2013-11-17T14:17:26Z</time></trkpt>
<trkpt lat="54.2799880000" lon="-2.1873670000"><ele>580</ele><time>2013-11-17T14:17:27Z</time></trkpt>
<trkpt lat="54.2799940000" lon="-2.1873490000"><ele>580</ele><time>2013-11-17T14:17:28Z</time></trkpt>
<trkpt lat="54.2800000000" lon="-2.1873350000"><ele>580</ele><time>2013-11-17T14:17:29Z</time></trkpt>
<trkpt lat="54.2800060000" lon="-2.1873230000"><ele>580</ele><time>2013-11-17T14:17:30Z</time></trkpt>
<trkpt lat="54.2800110000" lon="-2.1873110000"><ele>580</ele><time>2013-11-17T14:17:31Z</time></trkpt>
<trkpt lat="54.2800170000" lon="-2.1872990000"><ele>580</ele><time>2013-11-17T14:17:32Z</time></trkpt>
<trkpt lat="54.2800230000" lon="-2.1872880000"><ele>580</ele><time>2013-11-17T14:17:33Z</time></trkpt>
<trkpt lat="54.2800280000" lon="-2.1872770000"><ele>580</ele><time>2013-11-17T14:17:34Z</time></trkpt>
<trkpt lat="54.2800320000" lon="-2.1872670000"><ele>580</ele><time>2013-11-17T14:17:35Z</time></trkpt>
<trkpt lat="54.2800370000" lon="-2.1872570000"><ele>580</ele><time>2013-11-17T14:17:36Z</time></trkpt>
<trkpt lat="54.2800420000" lon="-2.1872460000"><ele>580</ele><time>2013-11-17T14:17:37Z</time></trkpt>
<trkpt lat="54.2800470000" lon="-2.1872330000"><ele>580</ele><time>2013-11-17T14:17:38Z</time></trkpt>
<trkpt lat="54.2800510000" lon="-2.1872200000"><ele>580</ele><time>2013-11-17T14:17:39Z</time></trkpt>
<trkpt lat="54.2800560000" lon="-2.1872080000"><ele>580</ele><time>2013-11-17T14:17:40Z</time></trkpt>
<trkpt lat="54.2800690000" lon="-2.1871750000"><ele>580</ele><time>2013-11-17T14:17:43Z</time></trkpt>
<trkpt lat="54.2800800000" lon="-2.1871470000"><ele>580</ele><time>2013-11-17T14:17:45Z</time></trkpt>
<trkpt lat="54.2800950000" lon="-2.1871170000"><ele>580</ele><time>2013-11-17T14:17:47Z</time></trkpt>
<trkpt lat="54.2801130000" lon="-2.1870910000"><ele>580</ele><time>2013-11-17T14:17:49Z</time></trkpt>
<trkpt lat="54.2801310000" lon="-2.1870680000"><ele>580</ele><time>2013-11-17T14:17:51Z</time></trkpt>
<trkpt lat="54.2801500000" lon="-2.1870450000"><ele>580</ele><time>2013-11-17T14:17:53Z</time></trkpt>
<trkpt lat="54.2801700000" lon="-2.1870250000"><ele>580</ele><time>2013-11-17T14:17:55Z</time></trkpt>
<trkpt lat="54.2801890000" lon="-2.1870070000"><ele>580</ele><time>2013-11-17T14:17:57Z</time></trkpt>
<trkpt lat="54.2802110000" lon="-2.1869890000"><ele>580</ele><time>2013-11-17T14:17:59Z</time></trkpt>
<trkpt lat="54.2802350000" lon="-2.1869740000"><ele>580</ele><time>2013-11-17T14:18:01Z</time></trkpt>
<trkpt lat="54.2802570000" lon="-2.1869610000"><ele>580</ele><time>2013-11-17T14:18:03Z</time></trkpt>
<trkpt lat="54.2802780000" lon="-2.1869410000"><ele>580</ele><time>2013-11-17T14:18:05Z</time></trkpt>
<trkpt lat="54.2803000000" lon="-2.1869240000"><ele>576</ele><time>2013-11-17T14:18:07Z</time></trkpt>
<trkpt lat="54.2803180000" lon="-2.1869070000"><ele>576</ele><time>2013-11-17T14:18:09Z</time></trkpt>
<trkpt lat="54.2803360000" lon="-2.1868930000"><ele>576</ele><time>2013-11-17T14:18:11Z</time></trkpt>
<trkpt lat="54.2803550000" lon="-2.1868790000"><ele>576</ele><time>2013-11-17T14:18:13Z</time></trkpt>
<trkpt lat="54.2803750000" lon="-2.1868620000"><ele>576</ele><time>2013-11-17T14:18:15Z</time></trkpt>
<trkpt lat="54.2803950000" lon="-2.1868500000"><ele>576</ele><time>2013-11-17T14:18:17Z</time></trkpt>
<trkpt lat="54.2804140000" lon="-2.1868430000"><ele>576</ele><time>2013-11-17T14:18:19Z</time></trkpt>
<trkpt lat="54.2804350000" lon="-2.1868460000"><ele>576</ele><time>2013-11-17T14:18:20Z</time></trkpt>
<trkpt lat="54.2804550000" lon="-2.1868440000"><ele>576</ele><time>2013-11-17T14:18:23Z</time></trkpt>
<trkpt lat="54.2804790000" lon="-2.1868390000"><ele>576</ele><time>2013-11-17T14:18:25Z</time></trkpt>
<trkpt lat="54.2805010000" lon="-2.1868360000"><ele>576</ele><time>2013-11-17T14:18:27Z</time></trkpt>
<trkpt lat="54.2805200000" lon="-2.1868320000"><ele>576</ele><time>2013-11-17T14:18:29Z</time></trkpt>
<trkpt lat="54.2805380000" lon="-2.1868240000"><ele>576</ele><time>2013-11-17T14:18:31Z</time></trkpt>
<trkpt lat="54.2805580000" lon="-2.1868130000"><ele>576</ele><time>2013-11-17T14:18:33Z</time></trkpt>
<trkpt lat="54.2805800000" lon="-2.1868010000"><ele>576</ele><time>2013-11-17T14:18:35Z</time></trkpt>
<trkpt lat="54.2806060000" lon="-2.1867880000"><ele>576</ele><time>2013-11-17T14:18:37Z</time></trkpt>
<trkpt lat="54.2806280000" lon="-2.1867800000"><ele>576</ele><time>2013-11-17T14:18:39Z</time></trkpt>
<trkpt lat="54.2806530000" lon="-2.1867680000"><ele>576</ele><time>2013-11-17T14:18:43Z</time></trkpt>
<trkpt lat="54.2806730000" lon="-2.1867630000"><ele>576</ele><time>2013-11-17T14:18:45Z</time></trkpt>
<trkpt lat="54.2806940000" lon="-2.1867560000"><ele>576</ele><time>2013-11-17T14:18:46Z</time></trkpt>
<trkpt lat="54.2807130000" lon="-2.1867470000"><ele>576</ele><time>2013-11-17T14:18:49Z</time></trkpt>
<trkpt lat="54.2807320000" lon="-2.1867390000"><ele>576</ele><time>2013-11-17T14:18:51Z</time></trkpt>
<trkpt lat="54.2807530000" lon="-2.1867320000"><ele>576</ele><time>2013-11-17T14:18:52Z</time></trkpt>
<trkpt lat="54.2807740000" lon="-2.1867210000"><ele>576</ele><time>2013-11-17T14:18:55Z</time></trkpt>
<trkpt lat="54.2807940000" lon="-2.1867100000"><ele>576</ele><time>2013-11-17T14:18:57Z</time></trkpt>
<trkpt lat="54.2808130000" lon="-2.1867020000"><ele>576</ele><time>2013-11-17T14:18:58Z</time></trkpt>
<trkpt lat="54.2808320000" lon="-2.1866940000"><ele>576</ele><time>2013-11-17T14:19:01Z</time></trkpt>
<trkpt lat="54.2808510000" lon="-2.1866850000"><ele>576</ele><time>2013-11-17T14:19:03Z</time></trkpt>
<trkpt lat="54.2808710000" lon="-2.1866740000"><ele>576</ele><time>2013-11-17T14:19:04Z</time></trkpt>
<trkpt lat="54.2808890000" lon="-2.1866640000"><ele>576</ele><time>2013-11-17T14:19:07Z</time></trkpt>
<trkpt lat="54.2809060000" lon="-2.1866510000"><ele>576</ele><time>2013-11-17T14:19:09Z</time></trkpt>
<trkpt lat="54.2809230000" lon="-2.1866380000"><ele>576</ele><time>2013-11-17T14:19:10Z</time></trkpt>
<trkpt lat="54.2809420000" lon="-2.1866240000"><ele>576</ele><time>2013-11-17T14:19:13Z</time></trkpt>
<trkpt lat="54.2809610000" lon="-2.1866120000"><ele>576</ele><time>2013-11-17T14:19:15Z</time></trkpt>
<trkpt lat="54.2809750000" lon="-2.1866020000"><ele>576</ele><time>2013-11-17T14:19:16Z</time></trkpt>
<trkpt lat="54.2809840000" lon="-2.1865950000"><ele>576</ele><time>2013-11-17T14:19:17Z</time></trkpt>
<trkpt lat="54.2809890000" lon="-2.1865890000"><ele>576</ele></trkpt>
<trkpt lat="54.2809900000" lon="-2.1865870000"><ele>576</ele><time>2013-11-17T14:19:19Z</time></trkpt>
<trkpt lat="54.2809900000" lon="-2.1865860000"><ele>576</ele><time>2013-11-17T14:19:20Z</time></trkpt>
<trkpt lat="54.2809900000" lon="-2.1865850000"><ele>576</ele><time>2013-11-17T14:19:21Z</time></trkpt>
<trkpt lat="54.2809950000" lon="-2.1865840000"><ele>576</ele><time>2013-11-17T14:19:22Z</time></trkpt>
<trkpt lat="54.2810020000" lon="-2.1865810000"><ele>576</ele><time>2013-11-17T14:19:23Z</time></trkpt>
<trkpt lat="54.2810230000" lon="-2.1865700000"><ele>576</ele><time>2013-11-17T14:19:26Z</time></trkpt>
<trkpt lat="54.2810550000" lon="-2.1865570000"><ele>576</ele><time>2013-11-17T14:19:31Z</time></trkpt>
<trkpt lat="54.2810780000" lon="-2.1865470000"><ele>576</ele><time>2013-11-17T14:19:34Z</time></trkpt>
<trkpt lat="54.2811010000" lon="-2.1865410000"><ele>576</ele><time>2013-11-17T14:19:36Z</time></trkpt>
<trkpt lat="54.2811130000" lon="-2.1865350000"><ele>576</ele><time>2013-11-17T14:19:52Z</time></trkpt>
<trkpt lat="54.2811140000" lon="-2.1865370000"><ele>576</ele><time>2013-11-17T14:19:53Z</time></trkpt>
<trkpt lat="54.2811170000" lon="-2.1865370000"><ele>576</ele><time>2013-11-17T14:19:54Z</time></trkpt>
<trkpt lat="54.2811240000" lon="-2.1865330000"><ele>576</ele></trkpt>
<trkpt lat="54.2811320000" lon="-2.1865280000"><ele>576</ele><time>2013-11-17T14:19:55Z</time></trkpt>
<trkpt lat="54.2811440000" lon="-2.1865230000"><ele>576</ele><time>2013-11-17T14:19:57Z</time></trkpt>
<trkpt lat="54.2811620000" lon="-2.1865150000"><ele>576</ele><time>2013-11-17T14:19:59Z</time></trkpt>
<trkpt lat="54.2811820000" lon="-2.1865090000"><ele>576</ele><time>2013-11-17T14:20:01Z</time></trkpt>
<trkpt lat="54.2812030000" lon="-2.1865060000"><ele>576</ele><time>2013-11-17T14:20:03Z</time></trkpt>
<trkpt lat="54.2812180000" lon="-2.1865030000"><ele>576</ele><time>2013-11-17T14:20:04Z</time></trkpt>
<trkpt lat="54.2812260000" lon="-2.1865000000"><ele>576</ele><time>2013-11-17T14:20:05Z</time></trkpt>
<trkpt lat="54.2812360000" lon="-2.1864970000"><ele>576</ele><time>2013-11-17T14:20:06Z</time></trkpt>
<trkpt lat="54.2812460000" lon="-2.1864940000"><ele>576</ele><time>2013-11-17T14:20:07Z</time></trkpt>
<trkpt lat="54.2812560000" lon="-2.1864910000"><ele>576</ele></trkpt>
<trkpt lat="54.2812670000" lon="-2.1864860000"><ele>576</ele><time>2013-11-17T14:20:09Z</time></trkpt>
<trkpt lat="54.2812770000" lon="-2.1864790000"><ele>576</ele><time>2013-11-17T14:20:10Z</time></trkpt>
<trkpt lat="54.2812870000" lon="-2.1864720000"><ele>576</ele><time>2013-11-17T14:20:11Z</time></trkpt>
<trkpt lat="54.2812960000" lon="-2.1864630000"><ele>576</ele><time>2013-11-17T14:20:12Z</time></trkpt>
<trkpt lat="54.2813050000" lon="-2.1864550000"><ele>576</ele><time>2013-11-17T14:20:13Z</time></trkpt>
<trkpt lat="54.2813150000" lon="-2.1864490000"><ele>576</ele></trkpt>
<trkpt lat="54.2813260000" lon="-2.1864450000"><ele>576</ele><time>2013-11-17T14:20:15Z</time></trkpt>
<trkpt lat="54.2813370000" lon="-2.1864410000"><ele>576</ele><time>2013-11-17T14:20:16Z</time></trkpt>
<trkpt lat="54.2813470000" lon="-2.1864370000"><ele>576</ele><time>2013-11-17T14:20:17Z</time></trkpt>
<trkpt lat="54.2813590000" lon="-2.1864340000"><ele>576</ele><time>2013-11-17T14:20:18Z</time></trkpt>
<trkpt lat="54.2813710000" lon="-2.1864320000"><ele>576</ele><time>2013-11-17T14:20:19Z</time></trkpt>
<trkpt lat="54.2813820000" lon="-2.1864270000"><ele>576</ele></trkpt>
<trkpt lat="54.2813940000" lon="-2.1864230000"><ele>576</ele><time>2013-11-17T14:20:20Z</time></trkpt>
<trkpt lat="54.2814040000" lon="-2.1864190000"><ele>576</ele><time>2013-11-17T14:20:22Z</time></trkpt>
<trkpt lat="54.2814130000" lon="-2.1864120000"><ele>576</ele><time>2013-11-17T14:20:23Z</time></trkpt>
<trkpt lat="54.2814230000" lon="-2.1864030000"><ele>576</ele><time>2013-11-17T14:20:24Z</time></trkpt>
<trkpt lat="54.2814320000" lon="-2.1863910000"><ele>576</ele><time>2013-11-17T14:20:25Z</time></trkpt>
<trkpt lat="54.2814400000" lon="-2.1863770000"><ele>576</ele><time>2013-11-17T14:20:26Z</time></trkpt>
<trkpt lat="54.2814470000" lon="-2.1863630000"><ele>576</ele></trkpt>
<trkpt lat="54.2814540000" lon="-2.1863480000"><ele>576</ele><time>2013-11-17T14:20:28Z</time></trkpt>
<trkpt lat="54.2814610000" lon="-2.1863350000"><ele>576</ele><time>2013-11-17T14:20:29Z</time></trkpt>
<trkpt lat="54.2814680000" lon="-2.1863250000"><ele>576</ele><time>2013-11-17T14:20:30Z</time></trkpt>
<trkpt lat="54.2814750000" lon="-2.1863170000"><ele>576</ele><time>2013-11-17T14:20:31Z</time></trkpt>
<trkpt lat="54.2814820000" lon="-2.1863120000"><ele>576</ele><time>2013-11-17T14:20:32Z</time></trkpt>
<trkpt lat="54.2814890000" lon="-2.1863070000"><ele>576</ele><time>2013-11-17T14:20:33Z</time></trkpt>
<trkpt lat="54.2814980000" lon="-2.1863010000"><ele>576</ele><time>2013-11-17T14:20:34Z</time></trkpt>
<trkpt lat="54.2815070000" lon="-2.1862970000"><ele>576</ele><time>2013-11-17T14:20:35Z</time></trkpt>
<trkpt lat="54.2815150000" lon="-2.1862940000"><ele>576</ele><time>2013-11-17T14:20:36Z</time></trkpt>
<trkpt lat="54.2815230000" lon="-2.1862920000"><ele>576</ele><time>2013-11-17T14:20:37Z</time></trkpt>
<trkpt lat="54.2815300000" lon="-2.1862900000"><ele>576</ele><time>2013-11-17T14:20:38Z</time></trkpt>
<trkpt lat="54.2815390000" lon="-2.1862860000"><ele>576</ele></trkpt>
<trkpt lat="54.2815490000" lon="-2.1862820000"><ele>576</ele><time>2013-11-17T14:20:39Z</time></trkpt>
<trkpt lat="54.2815590000" lon="-2.1862770000"><ele>576</ele><time>2013-11-17T14:20:41Z</time></trkpt>
<trkpt lat="54.2815690000" lon="-2.1862730000"><ele>576</ele><time>2013-11-17T14:20:42Z</time></trkpt>
<trkpt lat="54.2815780000" lon="-2.1862710000"><ele>576</ele><time>2013-11-17T14:20:43Z</time></trkpt>
<trkpt lat="54.2815880000" lon="-2.1862680000"><ele>576</ele><time>2013-11-17T14:20:44Z</time></trkpt>
<trkpt lat="54.2815970000" lon="-2.1862650000"><ele>576</ele></trkpt>
<trkpt lat="54.2816080000" lon="-2.1862620000"><ele>576</ele><time>2013-11-17T14:20:45Z</time></trkpt>
<trkpt lat="54.2816180000" lon="-2.1862570000"><ele>576</ele><time>2013-11-17T14:20:47Z</time></trkpt>
<trkpt lat="54.2816290000" lon="-2.1862520000"><ele>576</ele><time>2013-11-17T14:20:48Z</time></trkpt>
<trkpt lat="54.2816400000" lon="-2.1862460000"><ele>576</ele><time>2013-11-17T14:20:49Z</time></trkpt>
<trkpt lat="54.2816510000" lon="-2.1862400000"><ele>576</ele><time>2013-11-17T14:20:50Z</time></trkpt>
<trkpt lat="54.2816600000" lon="-2.1862340000"><ele>576</ele><time>2013-11-17T14:20:51Z</time></trkpt>
<trkpt lat="54.2816680000" lon="-2.1862270000"><ele>576</ele><time>2013-11-17T14:20:52Z</time></trkpt>
<trkpt lat="54.2816780000" lon="-2.1862200000"><ele>576</ele><time>2013-11-17T14:20:53Z</time></trkpt>
<trkpt lat="54.2816890000" lon="-2.1862150000"><ele>576</ele><time>2013-11-17T14:20:54Z</time></trkpt>
<trkpt lat="54.2817000000" lon="-2.1862110000"><ele>576</ele><time>2013-11-17T14:20:55Z</time></trkpt>
<trkpt lat="54.2817110000" lon="-2.1862050000"><ele>576</ele><time>2013-11-17T14:20:56Z</time></trkpt>
<trkpt lat="54.2817210000" lon="-2.1861970000"><ele>576</ele><time>2013-11-17T14:20:57Z</time></trkpt>
<trkpt lat="54.2817310000" lon="-2.1861890000"><ele>576</ele></trkpt>
<trkpt lat="54.2817410000" lon="-2.1861820000"><ele>576</ele><time>2013-11-17T14:20:59Z</time></trkpt>
<trkpt lat="54.2817500000" lon="-2.1861750000"><ele>576</ele><time>2013-11-17T14:21:00Z</time></trkpt>
<trkpt lat="54.2817590000" lon="-2.1861690000"><ele>576</ele><time>2013-11-17T14:21:01Z</time></trkpt>
<trkpt lat="54.2817680000" lon="-2.1861620000"><ele>576</ele><time>2013-11-17T14:21:02Z</time></trkpt>
<trkpt lat="54.2817780000" lon="-2.1861540000"><ele>576</ele><time>2013-11-17T14:21:03Z</time></trkpt>
<trkpt lat="54.2817860000" lon="-2.1861490000"><ele>576</ele></trkpt>
<trkpt lat="54.2817950000" lon="-2.1861450000"><ele>576</ele><time>2013-11-17T14:21:04Z</time></trkpt>
<trkpt lat="54.2818040000" lon="-2.1861390000"><ele>576</ele><time>2013-11-17T14:21:06Z</time></trkpt>
<trkpt lat="54.2818130000" lon="-2.1861310000"><ele>576</ele><time>2013-11-17T14:21:07Z</time></trkpt>
<trkpt lat="54.2818240000" lon="-2.1861210000"><ele>576</ele><time>2013-11-17T14:21:08Z</time></trkpt>
<trkpt lat="54.2818350000" lon="-2.1861120000"><ele>576</ele><time>2013-11-17T14:21:09Z</time></trkpt>
<trkpt lat="54.2818450000" lon="-2.1861050000"><ele>576</ele><time>2013-11-17T14:21:10Z</time></trkpt>
<trkpt lat="54.2818560000" lon="-2.1860980000"><ele>576</ele><time>2013-11-17T14:21:11Z</time></trkpt>
<trkpt lat="54.2818660000" lon="-2.1860890000"><ele>576</ele><time>2013-11-17T14:21:12Z</time></trkpt>
<trkpt lat="54.2818760000" lon="-2.1860810000"><ele>576</ele><time>2013-11-17T14:21:13Z</time></trkpt>
<trkpt lat="54.2818880000" lon="-2.1860730000"><ele>576</ele><time>2013-11-17T14:21:14Z</time></trkpt>
<trkpt lat="54.2819000000" lon="-2.1860650000"><ele>576</ele><time>2013-11-17T14:21:15Z</time></trkpt>
<trkpt lat="54.2819100000" lon="-2.1860550000"><ele>576</ele><time>2013-11-17T14:21:16Z</time></trkpt>
<trkpt lat="54.2819150000" lon="-2.1860490000"><ele>576</ele></trkpt>
<trkpt lat="54.2819180000" lon="-2.1860460000"><ele>576</ele><time>2013-11-17T14:21:18Z</time></trkpt>
<trkpt lat="54.2819220000" lon="-2.1860460000"><ele>576</ele><time>2013-11-17T14:21:19Z</time></trkpt>
<trkpt lat="54.2819280000" lon="-2.1860420000"><ele>576</ele><time>2013-11-17T14:21:20Z</time></trkpt>
<trkpt lat="54.2819360000" lon="-2.1860330000"><ele>576</ele><time>2013-11-17T14:21:21Z</time></trkpt>
<trkpt lat="54.2819450000" lon="-2.1860260000"><ele>576</ele><time>2013-11-17T14:21:22Z</time></trkpt>
<trkpt lat="54.2819550000" lon="-2.1860190000"><ele>576</ele></trkpt>
<trkpt lat="54.2819640000" lon="-2.1860090000"><ele>576</ele><time>2013-11-17T14:21:24Z</time></trkpt>
<trkpt lat="54.2819730000" lon="-2.1859990000"><ele>576</ele><time>2013-11-17T14:21:25Z</time></trkpt>
<trkpt lat="54.2819830000" lon="-2.1859890000"><ele>576</ele><time>2013-11-17T14:21:26Z</time></trkpt>
<trkpt lat="54.2819920000" lon="-2.1859790000"><ele>576</ele><time>2013-11-17T14:21:27Z</time></trkpt>
<trkpt lat="54.2820020000" lon="-2.1859690000"><ele>576</ele><time>2013-11-17T14:21:28Z</time></trkpt>
<trkpt lat="54.2820120000" lon="-2.1859590000"><ele>576</ele><time>2013-11-17T14:21:29Z</time></trkpt>
<trkpt lat="54.2820200000" lon="-2.1859510000"><ele>576</ele><time>2013-11-17T14:21:30Z</time></trkpt>
<trkpt lat="54.2820290000" lon="-2.1859470000"><ele>576</ele><time>2013-11-17T14:21:31Z</time></trkpt>
<trkpt lat="54.2820390000" lon="-2.1859420000"><ele>576</ele><time>2013-11-17T14:21:32Z</time></trkpt>
<trkpt lat="54.2820480000" lon="-2.1859340000"><ele>576</ele><time>2013-11-17T14:21:33Z</time></trkpt>
<trkpt lat="54.2820570000" lon="-2.1859240000"><ele>576</ele><time>2013-11-17T14:21:34Z</time></trkpt>
<trkpt lat="54.2820660000" lon="-2.1859120000"><ele>576</ele><time>2013-11-17T14:21:35Z</time></trkpt>
<trkpt lat="54.2820750000" lon="-2.1859040000"><ele>576</ele></trkpt>
<trkpt lat="54.2820830000" lon="-2.1858940000"><ele>576</ele><time>2013-11-17T14:21:37Z</time></trkpt>
<trkpt lat="54.2820900000" lon="-2.1858830000"><ele>569</ele><time>2013-11-17T14:21:38Z</time></trkpt>
<trkpt lat="54.2820980000" lon="-2.1858720000"><ele>569</ele><time>2013-11-17T14:21:39Z</time></trkpt>
<trkpt lat="54.2821070000" lon="-2.1858610000"><ele>569</ele><time>2013-11-17T14:21:40Z</time></trkpt>
<trkpt lat="54.2821150000" lon="-2.1858490000"><ele>569</ele><time>2013-11-17T14:21:41Z</time></trkpt>
<trkpt lat="54.2821230000" lon="-2.1858360000"><ele>569</ele></trkpt>
<trkpt lat="54.2821320000" lon="-2.1858230000"><ele>569</ele><time>2013-11-17T14:21:43Z</time></trkpt>
<trkpt lat="54.2821410000" lon="-2.1858130000"><ele>560</ele><time>2013-11-17T14:21:44Z</time></trkpt>
<trkpt lat="54.2821490000" lon="-2.1858060000"><ele>560</ele><time>2013-11-17T14:21:45Z</time></trkpt>
<trkpt lat="54.2821580000" lon="-2.1858010000"><ele>560</ele><time>2013-11-17T14:21:46Z</time></trkpt>
<trkpt lat="54.2821680000" lon="-2.1857930000"><ele>560</ele><time>2013-11-17T14:21:47Z</time></trkpt>
<trkpt lat="54.2821780000" lon="-2.1857840000"><ele>560</ele><time>2013-11-17T14:21:48Z</time></trkpt>
<trkpt lat="54.2821890000" lon="-2.1857750000"><ele>560</ele><time>2013-11-17T14:21:49Z</time></trkpt>
<trkpt lat="54.2822000000" lon="-2.1857670000"><ele>560</ele><time>2013-11-17T14:21:50Z</time></trkpt>
<trkpt lat="54.2822110000" lon="-2.1857610000"><ele>560</ele><time>2013-11-17T14:21:51Z</time></trkpt>
<trkpt lat="54.2822200000" lon="-2.1857550000"><ele>560</ele><time>2013-11-17T14:21:52Z</time></trkpt>
<trkpt lat="54.2822300000" lon="-2.1857470000"><ele>560</ele><time>2013-11-17T14:21:53Z</time></trkpt>
<trkpt lat="54.2822390000" lon="-2.1857410000"><ele>560</ele></trkpt>
<trkpt lat="54.2822500000" lon="-2.1857370000"><ele>560</ele><time>2013-11-17T14:21:54Z</time></trkpt>
<trkpt lat="54.2822590000" lon="-2.1857340000"><ele>560</ele><time>2013-11-17T14:21:56Z</time></trkpt>
<trkpt lat="54.2822700000" lon="-2.1857320000"><ele>560</ele><time>2013-11-17T14:21:57Z</time></trkpt>
<trkpt lat="54.2822810000" lon="-2.1857310000"><ele>560</ele><time>2013-11-17T14:21:58Z</time></trkpt>
<trkpt lat="54.2822900000" lon="-2.1857300000"><ele>560</ele><time>2013-11-17T14:21:59Z</time></trkpt>
<trkpt lat="54.2822980000" lon="-2.1857310000"><ele>560</ele><time>2013-11-17T14:22:00Z</time></trkpt>
<trkpt lat="54.2823080000" lon="-2.1857360000"><ele>560</ele></trkpt>
<trkpt lat="54.2823180000" lon="-2.1857430000"><ele>560</ele><time>2013-11-17T14:22:02Z</time></trkpt>
<trkpt lat="54.2823340000" lon="-2.1857600000"><ele>560</ele><time>2013-11-17T14:22:04Z</time></trkpt>
<trkpt lat="54.2823510000" lon="-2.1857850000"><ele>560</ele><time>2013-11-17T14:22:06Z</time></trkpt>
<trkpt lat="54.2823710000" lon="-2.1858160000"><ele>560</ele><time>2013-11-17T14:22:08Z</time></trkpt>
<trkpt lat="54.2823790000" lon="-2.1858270000"><ele>569</ele><time>2013-11-17T14:22:09Z</time></trkpt>
<trkpt lat="54.2823870000" lon="-2.1858390000"><ele>569</ele><time>2013-11-17T14:22:10Z</time></trkpt>
<trkpt lat="54.2823940000" lon="-2.1858500000"><ele>569</ele><time>2013-11-17T14:22:11Z</time></trkpt>
<trkpt lat="54.2824020000" lon="-2.1858600000"><ele>569</ele><time>2013-11-17T14:22:12Z</time></trkpt>
<trkpt lat="54.2824110000" lon="-2.1858670000"><ele>569</ele></trkpt>
<trkpt lat="54.2824200000" lon="-2.1858740000"><ele>569</ele><time>2013-11-17T14:22:14Z</time></trkpt>
<trkpt lat="54.2824320000" lon="-2.1858840000"><ele>569</ele><time>2013-11-17T14:22:15Z</time></trkpt>
<trkpt lat="54.2824430000" lon="-2.1858940000"><ele>569</ele><time>2013-11-17T14:22:16Z</time></trkpt>
<trkpt lat="54.2824660000" lon="-2.1859110000"><ele>569</ele><time>2013-11-17T14:22:18Z</time></trkpt>
<trkpt lat="54.2824760000" lon="-2.1859180000"><ele>569</ele><time>2013-11-17T14:22:19Z</time></trkpt>
<trkpt lat="54.2824840000" lon="-2.1859230000"><ele>569</ele></trkpt>
<trkpt lat="54.2824930000" lon="-2.1859290000"><ele>569</ele><time>2013-11-17T14:22:21Z</time></trkpt>
<trkpt lat="54.2824990000" lon="-2.1859330000"><ele>569</ele><time>2013-11-17T14:22:22Z</time></trkpt>
<trkpt lat="54.2825040000" lon="-2.1859390000"><ele>569</ele><time>2013-11-17T14:22:23Z</time></trkpt>
<trkpt lat="54.2825110000" lon="-2.1859460000"><ele>569</ele><time>2013-11-17T14:22:24Z</time></trkpt>
<trkpt lat="54.2825200000" lon="-2.1859520000"><ele>569</ele><time>2013-11-17T14:22:25Z</time></trkpt>
<trkpt lat="54.2825300000" lon="-2.1859540000"><ele>569</ele></trkpt>
<trkpt lat="54.2825380000" lon="-2.1859480000"><ele>569</ele><time>2013-11-17T14:22:27Z</time></trkpt>
<trkpt lat="54.2825440000" lon="-2.1859370000"><ele>569</ele><time>2013-11-17T14:22:28Z</time></trkpt>
<trkpt lat="54.2825470000" lon="-2.1859250000"><ele>569</ele><time>2013-11-17T14:22:29Z</time></trkpt>
<trkpt lat="54.2825490000" lon="-2.1859150000"><ele>569</ele><time>2013-11-17T14:22:30Z</time></trkpt>
<trkpt lat="54.2825500000" lon="-2.1859110000"><ele>569</ele><time>2013-11-17T14:22:31Z</time></trkpt>
<trkpt lat="54.2825520000" lon="-2.1859080000"><ele>569</ele></trkpt>
<trkpt lat="54.2825610000" lon="-2.1858290000"><ele>569</ele><time>2013-11-17T14:23:15Z</time></trkpt>
<trkpt lat="54.2825610000" lon="-2.1858290000"><ele>569</ele><time>2013-11-17T14:23:17Z</time></trkpt>
<trkpt lat="54.2825610000" lon="-2.1858270000"><ele>569</ele><time>2013-11-17T14:23:18Z</time></trkpt>
<trkpt lat="54.2825610000" lon="-2.1858260000"><ele>569</ele><time>2013-11-17T14:23:19Z</time></trkpt>
<trkpt lat="54.2825620000" lon="-2.1858250000"><ele>569</ele><time>2013-11-17T14:23:20Z</time></trkpt>
<trkpt lat="54.2825620000" lon="-2.1858270000"><ele>569</ele><time>2013-11-17T14:23:21Z</time></trkpt>
<trkpt lat="54.2825610000" lon="-2.1858280000"><ele>569</ele><time>2013-11-17T14:23:22Z</time></trkpt>
<trkpt lat="54.2825620000" lon="-2.1858280000"><ele>569</ele><time>2013-11-17T14:23:23Z</time></trkpt>
<trkpt lat="54.2825630000" lon="-2.1858290000"><ele>569</ele><time>2013-11-17T14:23:24Z</time></trkpt>
<trkpt lat="54.2825630000" lon="-2.1858290000"><ele>569</ele><time>2013-11-17T14:23:25Z</time></trkpt>
<trkpt lat="54.2825640000" lon="-2.1858300000"><ele>569</ele><time>2013-11-17T14:23:26Z</time></trkpt>
<trkpt lat="54.2825650000" lon="-2.1858290000"><ele>569</ele><time>2013-11-17T14:23:27Z</time></trkpt>
<trkpt lat="54.2825670000" lon="-2.1858280000"><ele>569</ele><time>2013-11-17T14:23:28Z</time></trkpt>
<trkpt lat="54.2825670000" lon="-2.1858270000"><ele>569</ele></trkpt>
<trkpt lat="54.2825670000" lon="-2.1858270000"><ele>569</ele><time>2013-11-17T14:23:30Z</time></trkpt>
<trkpt lat="54.2825680000" lon="-2.1858270000"><ele>569</ele><time>2013-11-17T14:23:31Z</time></trkpt>
<trkpt lat="54.2825680000" lon="-2.1858280000"><ele>569</ele><time>2013-11-17T14:23:32Z</time></trkpt>
<trkpt lat="54.2825680000" lon="-2.1858290000"><ele>569</ele><time>2013-11-17T14:23:33Z</time></trkpt>
<trkpt lat="54.2825680000" lon="-2.1858290000"><ele>569</ele><time>2013-11-17T14:23:34Z</time></trkpt>
<trkpt lat="54.2825670000" lon="-2.1858280000"><ele>569</ele></trkpt>
<trkpt lat="54.2825670000" lon="-2.1858260000"><ele>569</ele><time>2013-11-17T14:23:36Z</time></trkpt>
<trkpt lat="54.2825670000" lon="-2.1858250000"><ele>569</ele><time>2013-11-17T14:23:37Z</time></trkpt>
<trkpt lat="54.2825670000" lon="-2.1858250000"><ele>569</ele><time>2013-11-17T14:23:38Z</time></trkpt>
<trkpt lat="54.2825670000" lon="-2.1858250000"><ele>569</ele><time>2013-11-17T14:23:39Z</time></trkpt>
<trkpt lat="54.2825680000" lon="-2.1858260000"><ele>569</ele><time>2013-11-17T14:23:40Z</time></trkpt>
<trkpt lat="54.2825690000" lon="-2.1858260000"><ele>569</ele><time>2013-11-17T14:23:41Z</time></trkpt>
<trkpt lat="54.2825700000" lon="-2.1858270000"><ele>569</ele><time>2013-11-17T14:23:42Z</time></trkpt>
<trkpt lat="54.2825720000" lon="-2.1858260000"><ele>569</ele><time>2013-11-17T14:23:43Z</time></trkpt>
<trkpt lat="54.2825730000" lon="-2.1858260000"><ele>569</ele><time>2013-11-17T14:23:44Z</time></trkpt>
<trkpt lat="54.2825980000" lon="-2.1857910000"><ele>560</ele><time>2013-11-17T14:24:11Z</time></trkpt>
<trkpt lat="54.2826090000" lon="-2.1857620000"><ele>560</ele><time>2013-11-17T14:24:14Z</time></trkpt>
<trkpt lat="54.2826240000" lon="-2.1857300000"><ele>560</ele><time>2013-11-17T14:24:17Z</time></trkpt>
<trkpt lat="54.2826380000" lon="-2.1856810000"><ele>560</ele><time>2013-11-17T14:24:20Z</time></trkpt>
<trkpt lat="54.2826580000" lon="-2.1856670000"><ele>560</ele><time>2013-11-17T14:24:35Z</time></trkpt>
<trkpt lat="54.2826700000" lon="-2.1856320000"><ele>560</ele><time>2013-11-17T14:24:37Z</time></trkpt>
<trkpt lat="54.2826820000" lon="-2.1855930000"><ele>560</ele><time>2013-11-17T14:24:39Z</time></trkpt>
<trkpt lat="54.2826960000" lon="-2.1855540000"><ele>560</ele><time>2013-11-17T14:24:41Z</time></trkpt>
<trkpt lat="54.2827090000" lon="-2.1855240000"><ele>560</ele><time>2013-11-17T14:24:43Z</time></trkpt>
<trkpt lat="54.2827200000" lon="-2.1854900000"><ele>560</ele><time>2013-11-17T14:24:45Z</time></trkpt>
<trkpt lat="54.2827310000" lon="-2.1854540000"><ele>560</ele><time>2013-11-17T14:24:47Z</time></trkpt>
<trkpt lat="54.2827430000" lon="-2.1854160000"><ele>560</ele><time>2013-11-17T14:24:49Z</time></trkpt>
<trkpt lat="54.2827520000" lon="-2.1853770000"><ele>560</ele><time>2013-11-17T14:24:51Z</time></trkpt>
<trkpt lat="54.2827620000" lon="-2.1853350000"><ele>560</ele><time>2013-11-17T14:24:53Z</time></trkpt>
<trkpt lat="54.2827760000" lon="-2.1853090000"><ele>560</ele><time>2013-11-17T14:24:55Z</time></trkpt>
<trkpt lat="54.2827890000" lon="-2.1852740000"><ele>560</ele><time>2013-11-17T14:24:57Z</time></trkpt>
<trkpt lat="54.2828060000" lon="-2.1852430000"><ele>560</ele><time>2013-11-17T14:24:59Z</time></trkpt>
<trkpt lat="54.2828260000" lon="-2.1852160000"><ele>560</ele><time>2013-11-17T14:25:01Z</time></trkpt>
<trkpt lat="54.2828450000" lon="-2.1851940000"><ele>560</ele><time>2013-11-17T14:25:02Z</time></trkpt>
<trkpt lat="54.2828650000" lon="-2.1851720000"><ele>560</ele><time>2013-11-17T14:25:05Z</time></trkpt>
<trkpt lat="54.2828850000" lon="-2.1851510000"><ele>560</ele><time>2013-11-17T14:25:07Z</time></trkpt>
<trkpt lat="54.2829060000" lon="-2.1851260000"><ele>560</ele><time>2013-11-17T14:25:09Z</time></trkpt>
<trkpt lat="54.2829250000" lon="-2.1850960000"><ele>560</ele><time>2013-11-17T14:25:11Z</time></trkpt>
<trkpt lat="54.2829470000" lon="-2.1850740000"><ele>560</ele><time>2013-11-17T14:25:13Z</time></trkpt>
<trkpt lat="54.2829660000" lon="-2.1850250000"><ele>560</ele><time>2013-11-17T14:25:20Z</time></trkpt>
<trkpt lat="54.2829830000" lon="-2.1849800000"><ele>560</ele><time>2013-11-17T14:25:24Z</time></trkpt>
<trkpt lat="54.2829990000" lon="-2.1849470000"><ele>560</ele><time>2013-11-17T14:25:26Z</time></trkpt>
<trkpt lat="54.2830130000" lon="-2.1849140000"><ele>560</ele><time>2013-11-17T14:25:27Z</time></trkpt>
<trkpt lat="54.2830260000" lon="-2.1848800000"><ele>560</ele><time>2013-11-17T14:25:30Z</time></trkpt>
<trkpt lat="54.2830410000" lon="-2.1848460000"><ele>560</ele><time>2013-11-17T14:25:32Z</time></trkpt>
<trkpt lat="54.2830520000" lon="-2.1848120000"><ele>560</ele><time>2013-11-17T14:25:33Z</time></trkpt>
<trkpt lat="54.2830610000" lon="-2.1847780000"><ele>560</ele><time>2013-11-17T14:25:37Z</time></trkpt>
<trkpt lat="54.2830740000" lon="-2.1847430000"><ele>560</ele><time>2013-11-17T14:25:39Z</time></trkpt>
<trkpt lat="54.2830790000" lon="-2.1847250000"><ele>560</ele></trkpt>
<trkpt lat="54.2830840000" lon="-2.1847050000"><ele>560</ele><time>2013-11-17T14:25:41Z</time></trkpt>
<trkpt lat="54.2830880000" lon="-2.1846840000"><ele>560</ele><time>2013-11-17T14:25:42Z</time></trkpt>
<trkpt lat="54.2830920000" lon="-2.1846630000"><ele>560</ele><time>2013-11-17T14:25:43Z</time></trkpt>
<trkpt lat="54.2830980000" lon="-2.1846430000"><ele>560</ele><time>2013-11-17T14:25:44Z</time></trkpt>
<trkpt lat="54.2831040000" lon="-2.1846210000"><ele>560</ele><time>2013-11-17T14:25:45Z</time></trkpt>
<trkpt lat="54.2831100000" lon="-2.1846000000"><ele>560</ele></trkpt>
<trkpt lat="54.2831160000" lon="-2.1845790000"><ele>560</ele><time>2013-11-17T14:25:47Z</time></trkpt>
<trkpt lat="54.2831210000" lon="-2.1845580000"><ele>560</ele><time>2013-11-17T14:25:48Z</time></trkpt>
<trkpt lat="54.2831260000" lon="-2.1845360000"><ele>560</ele><time>2013-11-17T14:25:49Z</time></trkpt>
<trkpt lat="54.2831310000" lon="-2.1845140000"><ele>560</ele><time>2013-11-17T14:25:50Z</time></trkpt>
<trkpt lat="54.2831360000" lon="-2.1844910000"><ele>560</ele><time>2013-11-17T14:25:51Z</time></trkpt>
<trkpt lat="54.2831400000" lon="-2.1844700000"><ele>560</ele><time>2013-11-17T14:25:52Z</time></trkpt>
<trkpt lat="54.2831440000" lon="-2.1844490000"><ele>560</ele></trkpt>
<trkpt lat="54.2831490000" lon="-2.1844280000"><ele>560</ele><time>2013-11-17T14:25:54Z</time></trkpt>
<trkpt lat="54.2831530000" lon="-2.1844060000"><ele>560</ele><time>2013-11-17T14:25:55Z</time></trkpt>
<trkpt lat="54.2831580000" lon="-2.1843840000"><ele>560</ele><time>2013-11-17T14:25:56Z</time></trkpt>
<trkpt lat="54.2831610000" lon="-2.1843620000"><ele>560</ele><time>2013-11-17T14:25:57Z</time></trkpt>
<trkpt lat="54.2831650000" lon="-2.1843400000"><ele>560</ele><time>2013-11-17T14:25:58Z</time></trkpt>
<trkpt lat="54.2831680000" lon="-2.1843180000"><ele>560</ele></trkpt>
<trkpt lat="54.2831710000" lon="-2.1842970000"><ele>560</ele><time>2013-11-17T14:26:00Z</time></trkpt>
<trkpt lat="54.2831750000" lon="-2.1842760000"><ele>560</ele><time>2013-11-17T14:26:01Z</time></trkpt>
<trkpt lat="54.2831780000" lon="-2.1842530000"><ele>560</ele><time>2013-11-17T14:26:02Z</time></trkpt>
<trkpt lat="54.2831810000" lon="-2.1842300000"><ele>560</ele><time>2013-11-17T14:26:03Z</time></trkpt>
<trkpt lat="54.2831830000" lon="-2.1842080000"><ele>560</ele><time>2013-11-17T14:26:05Z</time></trkpt>
<trkpt lat="54.2831860000" lon="-2.1841720000"><ele>560</ele><time>2013-11-17T14:26:06Z</time></trkpt>
<trkpt lat="54.2831900000" lon="-2.1841300000"><ele>560</ele><time>2013-11-17T14:26:08Z</time></trkpt>
<trkpt lat="54.2831970000" lon="-2.1840860000"><ele>560</ele><time>2013-11-17T14:26:10Z</time></trkpt>
<trkpt lat="54.2832040000" lon="-2.1840420000"><ele>560</ele><time>2013-11-17T14:26:12Z</time></trkpt>
<trkpt lat="54.2832120000" lon="-2.1839960000"><ele>560</ele><time>2013-11-17T14:26:14Z</time></trkpt>
<trkpt lat="54.2832140000" lon="-2.1839490000"><ele>560</ele><time>2013-11-17T14:26:16Z</time></trkpt>
<trkpt lat="54.2832140000" lon="-2.1839010000"><ele>560</ele><time>2013-11-17T14:26:17Z</time></trkpt>
<trkpt lat="54.2832130000" lon="-2.1838530000"><ele>560</ele><time>2013-11-17T14:26:20Z</time></trkpt>
<trkpt lat="54.2832140000" lon="-2.1838010000"><ele>560</ele><time>2013-11-17T14:26:22Z</time></trkpt>
<trkpt lat="54.2832140000" lon="-2.1837510000"><ele>560</ele><time>2013-11-17T14:26:24Z</time></trkpt>
<trkpt lat="54.2832140000" lon="-2.1837040000"><ele>560</ele><time>2013-11-17T14:26:26Z</time></trkpt>
<trkpt lat="54.2832140000" lon="-2.1836700000"><ele>560</ele><time>2013-11-17T14:26:27Z</time></trkpt>
<trkpt lat="54.2832150000" lon="-2.1836490000"><ele>560</ele><time>2013-11-17T14:26:28Z</time></trkpt>
<trkpt lat="54.2832160000" lon="-2.1836260000"><ele>560</ele><time>2013-11-17T14:26:29Z</time></trkpt>
<trkpt lat="54.2832180000" lon="-2.1836030000"><ele>560</ele></trkpt>
<trkpt lat="54.2832190000" lon="-2.1835790000"><ele>560</ele><time>2013-11-17T14:26:31Z</time></trkpt>
<trkpt lat="54.2832220000" lon="-2.1835540000"><ele>560</ele><time>2013-11-17T14:26:32Z</time></trkpt>
<trkpt lat="54.2832270000" lon="-2.1835300000"><ele>560</ele><time>2013-11-17T14:26:33Z</time></trkpt>
<trkpt lat="54.2832330000" lon="-2.1835100000"><ele>560</ele><time>2013-11-17T14:26:34Z</time></trkpt>
<trkpt lat="54.2832350000" lon="-2.1834880000"><ele>560</ele><time>2013-11-17T14:26:35Z</time></trkpt>
<trkpt lat="54.2832370000" lon="-2.1834470000"><ele>560</ele><time>2013-11-17T14:26:37Z</time></trkpt>
<trkpt lat="54.2832400000" lon="-2.1834010000"><ele>560</ele><time>2013-11-17T14:26:39Z</time></trkpt>
<trkpt lat="54.2832440000" lon="-2.1833570000"><ele>560</ele><time>2013-11-17T14:26:41Z</time></trkpt>
<trkpt lat="54.2832450000" lon="-2.1833130000"><ele>560</ele><time>2013-11-17T14:26:42Z</time></trkpt>
<trkpt lat="54.2832460000" lon="-2.1832690000"><ele>560</ele><time>2013-11-17T14:26:45Z</time></trkpt>
<trkpt lat="54.2832500000" lon="-2.1832290000"><ele>560</ele><time>2013-11-17T14:26:47Z</time></trkpt>
<trkpt lat="54.2832560000" lon="-2.1831930000"><ele>560</ele><time>2013-11-17T14:26:48Z</time></trkpt>
<trkpt lat="54.2832570000" lon="-2.1831430000"><ele>560</ele><time>2013-11-17T14:26:51Z</time></trkpt>
<trkpt lat="54.2832600000" lon="-2.1830930000"><ele>560</ele><time>2013-11-17T14:26:53Z</time></trkpt>
<trkpt lat="54.2832670000" lon="-2.1830490000"><ele>560</ele><time>2013-11-17T14:26:55Z</time></trkpt>
<trkpt lat="54.2832750000" lon="-2.1830060000"><ele>560</ele><time>2013-11-17T14:26:57Z</time></trkpt>
<trkpt lat="54.2832850000" lon="-2.1829680000"><ele>560</ele><time>2013-11-17T14:26:59Z</time></trkpt>
<trkpt lat="54.2832950000" lon="-2.1829390000"><ele>560</ele><time>2013-11-17T14:27:00Z</time></trkpt>
<trkpt lat="54.2833070000" lon="-2.1829090000"><ele>560</ele><time>2013-11-17T14:27:11Z</time></trkpt>
<trkpt lat="54.2833200000" lon="-2.1828800000"><ele>560</ele><time>2013-11-17T14:27:13Z</time></trkpt>
<trkpt lat="54.2833350000" lon="-2.1828490000"><ele>560</ele><time>2013-11-17T14:27:15Z</time></trkpt>
<trkpt lat="54.2833490000" lon="-2.1828180000"><ele>560</ele><time>2013-11-17T14:27:17Z</time></trkpt>
<trkpt lat="54.2833640000" lon="-2.1827910000"><ele>560</ele><time>2013-11-17T14:27:19Z</time></trkpt>
<trkpt lat="54.2833770000" lon="-2.1827600000"><ele>560</ele><time>2013-11-17T14:27:21Z</time></trkpt>
<trkpt lat="54.2833900000" lon="-2.1827240000"><ele>537</ele><time>2013-11-17T14:27:23Z</time></trkpt>
<trkpt lat="54.2834070000" lon="-2.1826870000"><ele>537</ele><time>2013-11-17T14:27:25Z</time></trkpt>
<trkpt lat="54.2834170000" lon="-2.1826450000"><ele>537</ele><time>2013-11-17T14:27:27Z</time></trkpt>
<trkpt lat="54.2834150000" lon="-2.1825980000"><ele>537</ele><time>2013-11-17T14:27:29Z</time></trkpt>
<trkpt lat="54.2834170000" lon="-2.1825550000"><ele>537</ele><time>2013-11-17T14:27:31Z</time></trkpt>
<trkpt lat="54.2834220000" lon="-2.1825140000"><ele>537</ele><time>2013-11-17T14:27:34Z</time></trkpt>
<trkpt lat="54.2834230000" lon="-2.1824630000"><ele>537</ele><time>2013-11-17T14:27:36Z</time></trkpt>
<trkpt lat="54.2834200000" lon="-2.1824150000"><ele>537</ele><time>2013-11-17T14:27:38Z</time></trkpt>
<trkpt lat="54.2834120000" lon="-2.1823660000"><ele>537</ele><time>2013-11-17T14:27:40Z</time></trkpt>
<trkpt lat="54.2834020000" lon="-2.1823220000"><ele>537</ele><time>2013-11-17T14:27:42Z</time></trkpt>
<trkpt lat="54.2833920000" lon="-2.1822820000"><ele>537</ele><time>2013-11-17T14:27:44Z</time></trkpt>
<trkpt lat="54.2833850000" lon="-2.1822390000"><ele>537</ele><time>2013-11-17T14:27:46Z</time></trkpt>
<trkpt lat="54.2833780000" lon="-2.1821960000"><ele>537</ele><time>2013-11-17T14:27:48Z</time></trkpt>
<trkpt lat="54.2833670000" lon="-2.1821360000"><ele>537</ele><time>2013-11-17T14:27:51Z</time></trkpt>
<trkpt lat="54.2833520000" lon="-2.1820800000"><ele>537</ele><time>2013-11-17T14:27:54Z</time></trkpt>
<trkpt lat="54.2833400000" lon="-2.1820380000"><ele>537</ele><time>2013-11-17T14:27:56Z</time></trkpt>
<trkpt lat="54.2833240000" lon="-2.1819890000"><ele>537</ele><time>2013-11-17T14:27:57Z</time></trkpt>
<trkpt lat="54.2833100000" lon="-2.1819330000"><ele>537</ele><time>2013-11-17T14:28:01Z</time></trkpt>
<trkpt lat="54.2832920000" lon="-2.1818860000"><ele>537</ele><time>2013-11-17T14:28:04Z</time></trkpt>
<trkpt lat="54.2832790000" lon="-2.1818510000"><ele>537</ele><time>2013-11-17T14:28:06Z</time></trkpt>
<trkpt lat="54.2832630000" lon="-2.1818130000"><ele>537</ele><time>2013-11-17T14:28:08Z</time></trkpt>
<trkpt lat="54.2832490000" lon="-2.1817800000"><ele>537</ele><time>2013-11-17T14:28:10Z</time></trkpt>
<trkpt lat="54.2832240000" lon="-2.1817390000"><ele>537</ele><time>2013-11-17T14:28:13Z</time></trkpt>
<trkpt lat="54.2832070000" lon="-2.1817120000"><ele>537</ele><time>2013-11-17T14:28:15Z</time></trkpt>
<trkpt lat="54.2831860000" lon="-2.1816640000"><ele>537</ele><time>2013-11-17T14:28:18Z</time></trkpt>
<trkpt lat="54.2831770000" lon="-2.1816230000"><ele>537</ele><time>2013-11-17T14:28:20Z</time></trkpt>
<trkpt lat="54.2831830000" lon="-2.1815760000"><ele>537</ele><time>2013-11-17T14:28:22Z</time></trkpt>
<trkpt lat="54.2831990000" lon="-2.1815440000"><ele>537</ele><time>2013-11-17T14:28:26Z</time></trkpt>
<trkpt lat="54.2832280000" lon="-2.1815180000"><ele>537</ele><time>2013-11-17T14:28:28Z</time></trkpt>
<trkpt lat="54.2832480000" lon="-2.1815060000"><ele>537</ele><time>2013-11-17T14:28:31Z</time></trkpt>
<trkpt lat="54.2832700000" lon="-2.1814930000"><ele>537</ele><time>2013-11-17T14:28:33Z</time></trkpt>
<trkpt lat="54.2832910000" lon="-2.1814840000"><ele>537</ele><time>2013-11-17T14:28:35Z</time></trkpt>
<trkpt lat="54.2833140000" lon="-2.1814800000"><ele>537</ele><time>2013-11-17T14:28:37Z</time></trkpt>
<trkpt lat="54.2833350000" lon="-2.1814740000"><ele>537</ele><time>2013-11-17T14:28:39Z</time></trkpt>
<trkpt lat="54.2833580000" lon="-2.1814670000"><ele>537</ele><time>2013-11-17T14:28:41Z</time></trkpt>
<trkpt lat="54.2833840000" lon="-2.1814740000"><ele>537</ele><time>2013-11-17T14:28:43Z</time></trkpt>
<trkpt lat="54.2834100000" lon="-2.1814770000"><ele>537</ele><time>2013-11-17T14:28:45Z</time></trkpt>
<trkpt lat="54.2834330000" lon="-2.1814760000"><ele>537</ele><time>2013-11-17T14:28:47Z</time></trkpt>
<trkpt lat="54.2834620000" lon="-2.1814780000"><ele>537</ele><time>2013-11-17T14:28:50Z</time></trkpt>
<trkpt lat="54.2834850000" lon="-2.1814710000"><ele>537</ele><time>2013-11-17T14:28:52Z</time></trkpt>
<trkpt lat="54.2835100000" lon="-2.1814570000"><ele>537</ele><time>2013-11-17T14:28:53Z</time></trkpt>
<trkpt lat="54.2835320000" lon="-2.1814390000"><ele>537</ele><time>2013-11-17T14:28:56Z</time></trkpt>
<trkpt lat="54.2835530000" lon="-2.1814180000"><ele>537</ele><time>2013-11-17T14:28:58Z</time></trkpt>
<trkpt lat="54.2835730000" lon="-2.1813900000"><ele>537</ele><time>2013-11-17T14:29:00Z</time></trkpt>
<trkpt lat="54.2835870000" lon="-2.1813530000"><ele>537</ele><time>2013-11-17T14:29:02Z</time></trkpt>
<trkpt lat="54.2836040000" lon="-2.1813090000"><ele>537</ele><time>2013-11-17T14:29:05Z</time></trkpt>
<trkpt lat="54.2836200000" lon="-2.1812630000"><ele>537</ele><time>2013-11-17T14:29:08Z</time></trkpt>
<trkpt lat="54.2836330000" lon="-2.1812310000"><ele>537</ele><time>2013-11-17T14:29:10Z</time></trkpt>
<trkpt lat="54.2836480000" lon="-2.1812040000"><ele>537</ele><time>2013-11-17T14:29:12Z</time></trkpt>
<trkpt lat="54.2836620000" lon="-2.1811770000"><ele>537</ele><time>2013-11-17T14:29:15Z</time></trkpt>
<trkpt lat="54.2836770000" lon="-2.1811400000"><ele>537</ele><time>2013-11-17T14:29:17Z</time></trkpt>
<trkpt lat="54.2836830000" lon="-2.1811260000"><ele>537</ele><time>2013-11-17T14:29:18Z</time></trkpt>
<trkpt lat="54.2836880000" lon="-2.1811130000"><ele>537</ele></trkpt>
<trkpt lat="54.2836940000" lon="-2.1811000000"><ele>537</ele><time>2013-11-17T14:29:20Z</time></trkpt>
<trkpt lat="54.2837020000" lon="-2.1810860000"><ele>537</ele><time>2013-11-17T14:29:21Z</time></trkpt>
<trkpt lat="54.2837100000" lon="-2.1810740000"><ele>537</ele><time>2013-11-17T14:29:22Z</time></trkpt>
<trkpt lat="54.2837170000" lon="-2.1810660000"><ele>537</ele><time>2013-11-17T14:29:23Z</time></trkpt>
<trkpt lat="54.2837250000" lon="-2.1810600000"><ele>537</ele><time>2013-11-17T14:29:24Z</time></trkpt>
<trkpt lat="54.2837360000" lon="-2.1810520000"><ele>537</ele><time>2013-11-17T14:29:25Z</time></trkpt>
<trkpt lat="54.2837460000" lon="-2.1810420000"><ele>537</ele><time>2013-11-17T14:29:26Z</time></trkpt>
<trkpt lat="54.2837550000" lon="-2.1810330000"><ele>537</ele><time>2013-11-17T14:29:27Z</time></trkpt>
<trkpt lat="54.2837710000" lon="-2.1810140000"><ele>537</ele><time>2013-11-17T14:29:29Z</time></trkpt>
<trkpt lat="54.2837970000" lon="-2.1809960000"><ele>537</ele><time>2013-11-17T14:29:31Z</time></trkpt>
<trkpt lat="54.2838180000" lon="-2.1809860000"><ele>537</ele><time>2013-11-17T14:29:34Z</time></trkpt>
<trkpt lat="54.2838400000" lon="-2.1809740000"><ele>537</ele><time>2013-11-17T14:29:36Z</time></trkpt>
<trkpt lat="54.2838690000" lon="-2.1809630000"><ele>537</ele><time>2013-11-17T14:29:39Z</time></trkpt>
<trkpt lat="54.2838910000" lon="-2.1809570000"><ele>537</ele><time>2013-11-17T14:29:41Z</time></trkpt>
<trkpt lat="54.2839230000" lon="-2.1809550000"><ele>513</ele><time>2013-11-17T14:29:43Z</time></trkpt>
<trkpt lat="54.2839480000" lon="-2.1809530000"><ele>513</ele><time>2013-11-17T14:29:46Z</time></trkpt>
<trkpt lat="54.2839800000" lon="-2.1809480000"><ele>513</ele><time>2013-11-17T14:29:49Z</time></trkpt>
<trkpt lat="54.2840040000" lon="-2.1809400000"><ele>513</ele><time>2013-11-17T14:29:50Z</time></trkpt>
<trkpt lat="54.2840270000" lon="-2.1809300000"><ele>513</ele><time>2013-11-17T14:29:53Z</time></trkpt>
<trkpt lat="54.2840480000" lon="-2.1809160000"><ele>513</ele><time>2013-11-17T14:29:55Z</time></trkpt>
<trkpt lat="54.2840770000" lon="-2.1808860000"><ele>513</ele><time>2013-11-17T14:29:58Z</time></trkpt>
<trkpt lat="54.2840970000" lon="-2.1808600000"><ele>513</ele><time>2013-11-17T14:30:00Z</time></trkpt>
<trkpt lat="54.2841170000" lon="-2.1808360000"><ele>513</ele><time>2013-11-17T14:30:02Z</time></trkpt>
<trkpt lat="54.2841380000" lon="-2.1807970000"><ele>513</ele><time>2013-11-17T14:30:05Z</time></trkpt>
<trkpt lat="54.2841610000" lon="-2.1807690000"><ele>513</ele><time>2013-11-17T14:30:08Z</time></trkpt>
<trkpt lat="54.2841890000" lon="-2.1807390000"><ele>513</ele><time>2013-11-17T14:30:11Z</time></trkpt>
<trkpt lat="54.2842170000" lon="-2.1807090000"><ele>513</ele><time>2013-11-17T14:30:14Z</time></trkpt>
<trkpt lat="54.2842450000" lon="-2.1806810000"><ele>513</ele><time>2013-11-17T14:30:17Z</time></trkpt>
<trkpt lat="54.2842630000" lon="-2.1806320000"><ele>513</ele><time>2013-11-17T14:30:20Z</time></trkpt>
<trkpt lat="54.2842710000" lon="-2.1805750000"><ele>513</ele><time>2013-11-17T14:30:23Z</time></trkpt>
<trkpt lat="54.2842730000" lon="-2.1805250000"><ele>513</ele><time>2013-11-17T14:30:26Z</time></trkpt>
<trkpt lat="54.2842700000" lon="-2.1804740000"><ele>513</ele><time>2013-11-17T14:30:29Z</time></trkpt>
<trkpt lat="54.2842830000" lon="-2.1804080000"><ele>513</ele><time>2013-11-17T14:30:34Z</time></trkpt>
<trkpt lat="54.2843050000" lon="-2.1803760000"><ele>513</ele><time>2013-11-17T14:30:38Z</time></trkpt>
<trkpt lat="54.2843250000" lon="-2.1803210000"><ele>513</ele><time>2013-11-17T14:30:48Z</time></trkpt>
<trkpt lat="54.2843360000" lon="-2.1802740000"><ele>513</ele><time>2013-11-17T14:30:52Z</time></trkpt>
<trkpt lat="54.2843550000" lon="-2.1802340000"><ele>513</ele><time>2013-11-17T14:30:56Z</time></trkpt>
<trkpt lat="54.2843790000" lon="-2.1801920000"><ele>513</ele><time>2013-11-17T14:30:59Z</time></trkpt>
<trkpt lat="54.2844060000" lon="-2.1801650000"><ele>513</ele><time>2013-11-17T14:31:02Z</time></trkpt>
<trkpt lat="54.2844270000" lon="-2.1801500000"><ele>513</ele><time>2013-11-17T14:31:04Z</time></trkpt>
<trkpt lat="54.2844490000" lon="-2.1801380000"><ele>513</ele><time>2013-11-17T14:31:05Z</time></trkpt>
<trkpt lat="54.2844720000" lon="-2.1801280000"><ele>513</ele><time>2013-11-17T14:31:08Z</time></trkpt>
<trkpt lat="54.2844950000" lon="-2.1801270000"><ele>513</ele><time>2013-11-17T14:31:10Z</time></trkpt>
<trkpt lat="54.2845230000" lon="-2.1801440000"><ele>513</ele><time>2013-11-17T14:31:13Z</time></trkpt>
<trkpt lat="54.2845440000" lon="-2.1801580000"><ele>513</ele><time>2013-11-17T14:31:15Z</time></trkpt>
<trkpt lat="54.2845780000" lon="-2.1801720000"><ele>513</ele><time>2013-11-17T14:31:17Z</time></trkpt>
<trkpt lat="54.2846120000" lon="-2.1801910000"><ele>513</ele><time>2013-11-17T14:31:21Z</time></trkpt>
<trkpt lat="54.2846360000" lon="-2.1802210000"><ele>513</ele><time>2013-11-17T14:31:24Z</time></trkpt>
<trkpt lat="54.2846610000" lon="-2.1802550000"><ele>513</ele><time>2013-11-17T14:31:27Z</time></trkpt>
<trkpt lat="54.2846830000" lon="-2.1802970000"><ele>513</ele><time>2013-11-17T14:31:30Z</time></trkpt>
<trkpt lat="54.2847070000" lon="-2.1803410000"><ele>513</ele><time>2013-11-17T14:31:33Z</time></trkpt>
<trkpt lat="54.2847350000" lon="-2.1803950000"><ele>513</ele><time>2013-11-17T14:31:36Z</time></trkpt>
<trkpt lat="54.2847630000" lon="-2.1804350000"><ele>513</ele><time>2013-11-17T14:31:41Z</time></trkpt>
<trkpt lat="54.2847890000" lon="-2.1804780000"><ele>513</ele><time>2013-11-17T14:31:52Z</time></trkpt>
<trkpt lat="54.2848090000" lon="-2.1805380000"><ele>513</ele><time>2013-11-17T14:32:03Z</time></trkpt>
<trkpt lat="54.2848280000" lon="-2.1805940000"><ele>513</ele><time>2013-11-17T14:32:07Z</time></trkpt>
<trkpt lat="54.2848630000" lon="-2.1806400000"><ele>513</ele><time>2013-11-17T14:32:12Z</time></trkpt>
<trkpt lat="54.2848870000" lon="-2.1807050000"><ele>513</ele><time>2013-11-17T14:32:16Z</time></trkpt>
<trkpt lat="54.2849060000" lon="-2.1807780000"><ele>513</ele><time>2013-11-17T14:32:20Z</time></trkpt>
<trkpt lat="54.2849350000" lon="-2.1808570000"><ele>513</ele><time>2013-11-17T14:32:25Z</time></trkpt>
<trkpt lat="54.2849760000" lon="-2.1809100000"><ele>513</ele><time>2013-11-17T14:32:29Z</time></trkpt>
<trkpt lat="54.2850090000" lon="-2.1809400000"><ele>513</ele><time>2013-11-17T14:32:32Z</time></trkpt>
<trkpt lat="54.2850370000" lon="-2.1809650000"><ele>513</ele><time>2013-11-17T14:32:36Z</time></trkpt>
<trkpt lat="54.2850640000" lon="-2.1809960000"><ele>513</ele><time>2013-11-17T14:32:39Z</time></trkpt>
<trkpt lat="54.2850900000" lon="-2.1810260000"><ele>513</ele><time>2013-11-17T14:32:42Z</time></trkpt>
<trkpt lat="54.2851200000" lon="-2.1810510000"><ele>513</ele><time>2013-11-17T14:32:45Z</time></trkpt>
<trkpt lat="54.2851480000" lon="-2.1810770000"><ele>513</ele><time>2013-11-17T14:32:48Z</time></trkpt>
<trkpt lat="54.2851720000" lon="-2.1810920000"><ele>513</ele><time>2013-11-17T14:32:50Z</time></trkpt>
<trkpt lat="54.2852030000" lon="-2.1811130000"><ele>513</ele><time>2013-11-17T14:32:52Z</time></trkpt>
<trkpt lat="54.2852350000" lon="-2.1811400000"><ele>513</ele><time>2013-11-17T14:32:56Z</time></trkpt>
<trkpt lat="54.2852600000" lon="-2.1811600000"><ele>513</ele><time>2013-11-17T14:32:58Z</time></trkpt>
<trkpt lat="54.2852830000" lon="-2.1811740000"><ele>513</ele><time>2013-11-17T14:33:00Z</time></trkpt>
<trkpt lat="54.2853110000" lon="-2.1811950000"><ele>513</ele><time>2013-11-17T14:33:03Z</time></trkpt>
<trkpt lat="54.2853390000" lon="-2.1812190000"><ele>513</ele><time>2013-11-17T14:33:06Z</time></trkpt>
<trkpt lat="54.2853630000" lon="-2.1812270000"><ele>513</ele><time>2013-11-17T14:33:08Z</time></trkpt>
<trkpt lat="54.2853850000" lon="-2.1812290000"><ele>513</ele><time>2013-11-17T14:33:10Z</time></trkpt>
<trkpt lat="54.2854070000" lon="-2.1812260000"><ele>513</ele><time>2013-11-17T14:33:12Z</time></trkpt>
<trkpt lat="54.2854290000" lon="-2.1812280000"><ele>513</ele><time>2013-11-17T14:33:14Z</time></trkpt>
<trkpt lat="54.2854540000" lon="-2.1812290000"><ele>513</ele><time>2013-11-17T14:33:16Z</time></trkpt>
<trkpt lat="54.2854770000" lon="-2.1812260000"><ele>513</ele><time>2013-11-17T14:33:17Z</time></trkpt>
<trkpt lat="54.2855000000" lon="-2.1812270000"><ele>513</ele><time>2013-11-17T14:33:20Z</time></trkpt>
<trkpt lat="54.2855320000" lon="-2.1812250000"><ele>513</ele><time>2013-11-17T14:33:23Z</time></trkpt>
<trkpt lat="54.2855550000" lon="-2.1812250000"><ele>513</ele><time>2013-11-17T14:33:25Z</time></trkpt>
<trkpt lat="54.2855780000" lon="-2.1812280000"><ele>513</ele><time>2013-11-17T14:33:27Z</time></trkpt>
<trkpt lat="54.2856020000" lon="-2.1812260000"><ele>513</ele><time>2013-11-17T14:33:29Z</time></trkpt>
<trkpt lat="54.2856290000" lon="-2.1812160000"><ele>513</ele><time>2013-11-17T14:33:32Z</time></trkpt>
<trkpt lat="54.2856550000" lon="-2.1812060000"><ele>513</ele><time>2013-11-17T14:33:35Z</time></trkpt>
<trkpt lat="54.2856810000" lon="-2.1811950000"><ele>513</ele><time>2013-11-17T14:33:39Z</time></trkpt>
<trkpt lat="54.2857080000" lon="-2.1811780000"><ele>503</ele><time>2013-11-17T14:33:41Z</time></trkpt>
<trkpt lat="54.2857310000" lon="-2.1811690000"><ele>503</ele><time>2013-11-17T14:33:44Z</time></trkpt>
<trkpt lat="54.2857550000" lon="-2.1811610000"><ele>503</ele><time>2013-11-17T14:33:46Z</time></trkpt>
<trkpt lat="54.2857800000" lon="-2.1811560000"><ele>503</ele><time>2013-11-17T14:33:48Z</time></trkpt>
<trkpt lat="54.2858080000" lon="-2.1811490000"><ele>503</ele><time>2013-11-17T14:33:50Z</time></trkpt>
<trkpt lat="54.2858300000" lon="-2.1811440000"><ele>503</ele><time>2013-11-17T14:33:52Z</time></trkpt>
<trkpt lat="54.2858560000" lon="-2.1811450000"><ele>503</ele><time>2013-11-17T14:33:54Z</time></trkpt>
<trkpt lat="54.2858800000" lon="-2.1811490000"><ele>503</ele><time>2013-11-17T14:33:56Z</time></trkpt>
<trkpt lat="54.2859010000" lon="-2.1811530000"><ele>503</ele><time>2013-11-17T14:33:58Z</time></trkpt>
<trkpt lat="54.2859220000" lon="-2.1811590000"><ele>503</ele><time>2013-11-17T14:34:00Z</time></trkpt>
<trkpt lat="54.2859470000" lon="-2.1811630000"><ele>503</ele><time>2013-11-17T14:34:02Z</time></trkpt>
<trkpt lat="54.2859730000" lon="-2.1811670000"><ele>503</ele><time>2013-11-17T14:34:04Z</time></trkpt>
<trkpt lat="54.2860000000" lon="-2.1811710000"><ele>503</ele><time>2013-11-17T14:34:06Z</time></trkpt>
<trkpt lat="54.2860280000" lon="-2.1811760000"><ele>503</ele><time>2013-11-17T14:34:08Z</time></trkpt>
<trkpt lat="54.2860550000" lon="-2.1811790000"><ele>503</ele><time>2013-11-17T14:34:10Z</time></trkpt>
<trkpt lat="54.2860810000" lon="-2.1811760000"><ele>503</ele><time>2013-11-17T14:34:12Z</time></trkpt>
<trkpt lat="54.2861100000" lon="-2.1811720000"><ele>503</ele><time>2013-11-17T14:34:14Z</time></trkpt>
<trkpt lat="54.2861340000" lon="-2.1811630000"><ele>503</ele><time>2013-11-17T14:34:16Z</time></trkpt>
<trkpt lat="54.2861620000" lon="-2.1811570000"><ele>503</ele><time>2013-11-17T14:34:18Z</time></trkpt>
<trkpt lat="54.2861860000" lon="-2.1811470000"><ele>503</ele><time>2013-11-17T14:34:19Z</time></trkpt>
<trkpt lat="54.2862110000" lon="-2.1811310000"><ele>503</ele><time>2013-11-17T14:34:22Z</time></trkpt>
<trkpt lat="54.2862430000" lon="-2.1811030000"><ele>503</ele><time>2013-11-17T14:34:25Z</time></trkpt>
<trkpt lat="54.2862660000" lon="-2.1810850000"><ele>503</ele><time>2013-11-17T14:34:27Z</time></trkpt>
<trkpt lat="54.2862890000" lon="-2.1810680000"><ele>503</ele><time>2013-11-17T14:34:29Z</time></trkpt>
<trkpt lat="54.2863110000" lon="-2.1810550000"><ele>503</ele><time>2013-11-17T14:34:31Z</time></trkpt>
<trkpt lat="54.2863380000" lon="-2.1810440000"><ele>503</ele><time>2013-11-17T14:34:33Z</time></trkpt>
<trkpt lat="54.2863660000" lon="-2.1810360000"><ele>503</ele><time>2013-11-17T14:34:35Z</time></trkpt>
<trkpt lat="54.2863930000" lon="-2.1810310000"><ele>503</ele><time>2013-11-17T14:34:37Z</time></trkpt>
<trkpt lat="54.2864180000" lon="-2.1810260000"><ele>503</ele><time>2013-11-17T14:34:39Z</time></trkpt>
<trkpt lat="54.2864440000" lon="-2.1810220000"><ele>503</ele><time>2013-11-17T14:34:41Z</time></trkpt>
<trkpt lat="54.2864680000" lon="-2.1810250000"><ele>503</ele><time>2013-11-17T14:34:43Z</time></trkpt>
<trkpt lat="54.2864940000" lon="-2.1810300000"><ele>503</ele><time>2013-11-17T14:34:45Z</time></trkpt>
<trkpt lat="54.2865200000" lon="-2.1810280000"><ele>503</ele><time>2013-11-17T14:34:47Z</time></trkpt>
<trkpt lat="54.2865520000" lon="-2.1810260000"><ele>503</ele><time>2013-11-17T14:34:49Z</time></trkpt>
<trkpt lat="54.2865810000" lon="-2.1810270000"><ele>503</ele><time>2013-11-17T14:34:51Z</time></trkpt>
<trkpt lat="54.2866110000" lon="-2.1810230000"><ele>503</ele><time>2013-11-17T14:34:53Z</time></trkpt>
<trkpt lat="54.2866360000" lon="-2.1810170000"><ele>503</ele><time>2013-11-17T14:34:55Z</time></trkpt>
<trkpt lat="54.2866710000" lon="-2.1810090000"><ele>503</ele><time>2013-11-17T14:34:56Z</time></trkpt>
<trkpt lat="54.2867040000" lon="-2.1810040000"><ele>503</ele><time>2013-11-17T14:34:59Z</time></trkpt>
<trkpt lat="54.2867340000" lon="-2.1810070000"><ele>503</ele><time>2013-11-17T14:35:01Z</time></trkpt>
<trkpt lat="54.2867610000" lon="-2.1810130000"><ele>503</ele><time>2013-11-17T14:35:02Z</time></trkpt>
<trkpt lat="54.2867880000" lon="-2.1810220000"><ele>503</ele><time>2013-11-17T14:35:05Z</time></trkpt>
<trkpt lat="54.2868220000" lon="-2.1810300000"><ele>503</ele><time>2013-11-17T14:35:08Z</time></trkpt>
<trkpt lat="54.2868560000" lon="-2.1810560000"><ele>503</ele><time>2013-11-17T14:35:11Z</time></trkpt>
<trkpt lat="54.2868870000" lon="-2.1810840000"><ele>503</ele><time>2013-11-17T14:35:14Z</time></trkpt>
<trkpt lat="54.2869180000" lon="-2.1810860000"><ele>503</ele><time>2013-11-17T14:35:18Z</time></trkpt>
<trkpt lat="54.2869510000" lon="-2.1810720000"><ele>503</ele><time>2013-11-17T14:35:21Z</time></trkpt>
<trkpt lat="54.2869810000" lon="-2.1810630000"><ele>503</ele><time>2013-11-17T14:35:24Z</time></trkpt>
<trkpt lat="54.2870180000" lon="-2.1810670000"><ele>503</ele><time>2013-11-17T14:35:27Z</time></trkpt>
<trkpt lat="54.2870550000" lon="-2.1810700000"><ele>503</ele><time>2013-11-17T14:35:30Z</time></trkpt>
<trkpt lat="54.2870890000" lon="-2.1810730000"><ele>503</ele><time>2013-11-17T14:35:33Z</time></trkpt>
<trkpt lat="54.2871280000" lon="-2.1810680000"><ele>503</ele><time>2013-11-17T14:35:36Z</time></trkpt>
<trkpt lat="54.2871620000" lon="-2.1810550000"><ele>503</ele><time>2013-11-17T14:35:39Z</time></trkpt>
<trkpt lat="54.2871920000" lon="-2.1810390000"><ele>503</ele><time>2013-11-17T14:35:40Z</time></trkpt>
<trkpt lat="54.2872310000" lon="-2.1810150000"><ele>503</ele><time>2013-11-17T14:35:44Z</time></trkpt>
<trkpt lat="54.2872670000" lon="-2.1809900000"><ele>503</ele><time>2013-11-17T14:35:47Z</time></trkpt>
<trkpt lat="54.2873030000" lon="-2.1809640000"><ele>503</ele><time>2013-11-17T14:35:50Z</time></trkpt>
<trkpt lat="54.2873310000" lon="-2.1809440000"><ele>503</ele><time>2013-11-17T14:35:52Z</time></trkpt>
<trkpt lat="54.2873560000" lon="-2.1809230000"><ele>503</ele><time>2013-11-17T14:35:54Z</time></trkpt>
<trkpt lat="54.2873870000" lon="-2.1808960000"><ele>503</ele><time>2013-11-17T14:35:56Z</time></trkpt>
<trkpt lat="54.2874160000" lon="-2.1808700000"><ele>503</ele><time>2013-11-17T14:35:58Z</time></trkpt>
<trkpt lat="54.2874490000" lon="-2.1808370000"><ele>503</ele><time>2013-11-17T14:36:01Z</time></trkpt>
<trkpt lat="54.2874830000" lon="-2.1808030000"><ele>503</ele><time>2013-11-17T14:36:04Z</time></trkpt>
<trkpt lat="54.2875160000" lon="-2.1807640000"><ele>485</ele><time>2013-11-17T14:36:07Z</time></trkpt>
<trkpt lat="54.2875480000" lon="-2.1807330000"><ele>485</ele><time>2013-11-17T14:36:11Z</time></trkpt>
<trkpt lat="54.2875880000" lon="-2.1807260000"><ele>485</ele><time>2013-11-17T14:36:15Z</time></trkpt>
<trkpt lat="54.2876240000" lon="-2.1807510000"><ele>485</ele><time>2013-11-17T14:36:19Z</time></trkpt>
<trkpt lat="54.2876530000" lon="-2.1807760000"><ele>485</ele><time>2013-11-17T14:36:22Z</time></trkpt>
<trkpt lat="54.2876870000" lon="-2.1808080000"><ele>485</ele><time>2013-11-17T14:36:25Z</time></trkpt>
<trkpt lat="54.2877280000" lon="-2.1808290000"><ele>485</ele><time>2013-11-17T14:36:28Z</time></trkpt>
<trkpt lat="54.2877580000" lon="-2.1808470000"><ele>485</ele><time>2013-11-17T14:36:30Z</time></trkpt>
<trkpt lat="54.2877900000" lon="-2.1808640000"><ele>485</ele><time>2013-11-17T14:36:32Z</time></trkpt>
<trkpt lat="54.2878250000" lon="-2.1808740000"><ele>485</ele><time>2013-11-17T14:36:35Z</time></trkpt>
<trkpt lat="54.2878650000" lon="-2.1808690000"><ele>485</ele><time>2013-11-17T14:36:39Z</time></trkpt>
<trkpt lat="54.2879020000" lon="-2.1808710000"><ele>485</ele><time>2013-11-17T14:36:42Z</time></trkpt>
<trkpt lat="54.2879350000" lon="-2.1808740000"><ele>485</ele><time>2013-11-17T14:36:45Z</time></trkpt>
<trkpt lat="54.2879710000" lon="-2.1808650000"><ele>485</ele><time>2013-11-17T14:36:48Z</time></trkpt>
<trkpt lat="54.2879980000" lon="-2.1808590000"><ele>485</ele><time>2013-11-17T14:36:49Z</time></trkpt>
<trkpt lat="54.2880260000" lon="-2.1808500000"><ele>485</ele><time>2013-11-17T14:36:52Z</time></trkpt>
<trkpt lat="54.2880540000" lon="-2.1808420000"><ele>485</ele><time>2013-11-17T14:36:54Z</time></trkpt>
<trkpt lat="54.2880910000" lon="-2.1808260000"><ele>485</ele><time>2013-11-17T14:36:57Z</time></trkpt>
<trkpt lat="54.2881200000" lon="-2.1807970000"><ele>485</ele><time>2013-11-17T14:37:00Z</time></trkpt>
<trkpt lat="54.2881480000" lon="-2.1807650000"><ele>485</ele><time>2013-11-17T14:37:04Z</time></trkpt>
<trkpt lat="54.2881770000" lon="-2.1807270000"><ele>485</ele><time>2013-11-17T14:37:08Z</time></trkpt>
<trkpt lat="54.2882090000" lon="-2.1806840000"><ele>485</ele><time>2013-11-17T14:37:11Z</time></trkpt>
<trkpt lat="54.2882400000" lon="-2.1806440000"><ele>485</ele><time>2013-11-17T14:37:14Z</time></trkpt>
<trkpt lat="54.2882720000" lon="-2.1806200000"><ele>485</ele><time>2013-11-17T14:37:18Z</time></trkpt>
<trkpt lat="54.2883100000" lon="-2.1805930000"><ele>485</ele><time>2013-11-17T14:37:20Z</time></trkpt>
<trkpt lat="54.2883510000" lon="-2.1805670000"><ele>485</ele><time>2013-11-17T14:37:24Z</time></trkpt>
<trkpt lat="54.2883840000" lon="-2.1805400000"><ele>485</ele><time>2013-11-17T14:37:26Z</time></trkpt>
<trkpt lat="54.2884210000" lon="-2.1805180000"><ele>485</ele><time>2013-11-17T14:37:30Z</time></trkpt>
<trkpt lat="54.2884500000" lon="-2.1804950000"><ele>485</ele><time>2013-11-17T14:37:33Z</time></trkpt>
<trkpt lat="54.2884810000" lon="-2.1804660000"><ele>485</ele><time>2013-11-17T14:37:37Z</time></trkpt>
<trkpt lat="54.2885110000" lon="-2.1804450000"><ele>485</ele><time>2013-11-17T14:37:39Z</time></trkpt>
<trkpt lat="54.2885420000" lon="-2.1804310000"><ele>485</ele><time>2013-11-17T14:37:41Z</time></trkpt>
<trkpt lat="54.2885740000" lon="-2.1804210000"><ele>485</ele><time>2013-11-17T14:37:43Z</time></trkpt>
<trkpt lat="54.2886020000" lon="-2.1804180000"><ele>485</ele><time>2013-11-17T14:37:45Z</time></trkpt>
<trkpt lat="54.2886270000" lon="-2.1804210000"><ele>485</ele><time>2013-11-17T14:37:47Z</time></trkpt>
<trkpt lat="54.2886490000" lon="-2.1804300000"><ele>485</ele><time>2013-11-17T14:37:49Z</time></trkpt>
<trkpt lat="54.2886680000" lon="-2.1804470000"><ele>485</ele><time>2013-11-17T14:37:51Z</time></trkpt>
<trkpt lat="54.2886920000" lon="-2.1804830000"><ele>485</ele><time>2013-11-17T14:37:54Z</time></trkpt>
<trkpt lat="54.2887070000" lon="-2.1805280000"><ele>485</ele><time>2013-11-17T14:37:57Z</time></trkpt>
<trkpt lat="54.2887230000" lon="-2.1805730000"><ele>485</ele><time>2013-11-17T14:37:59Z</time></trkpt>
<trkpt lat="54.2887370000" lon="-2.1806250000"><ele>485</ele><time>2013-11-17T14:38:03Z</time></trkpt>
<trkpt lat="54.2887530000" lon="-2.1806760000"><ele>485</ele><time>2013-11-17T14:38:05Z</time></trkpt>
<trkpt lat="54.2887660000" lon="-2.1807120000"><ele>485</ele><time>2013-11-17T14:38:08Z</time></trkpt>
<trkpt lat="54.2887800000" lon="-2.1807480000"><ele>485</ele><time>2013-11-17T14:38:10Z</time></trkpt>
<trkpt lat="54.2887990000" lon="-2.1807780000"><ele>485</ele><time>2013-11-17T14:38:11Z</time></trkpt>
<trkpt lat="54.2888160000" lon="-2.1808050000"><ele>485</ele><time>2013-11-17T14:38:14Z</time></trkpt>
<trkpt lat="54.2888340000" lon="-2.1808320000"><ele>485</ele><time>2013-11-17T14:38:16Z</time></trkpt>
<trkpt lat="54.2888500000" lon="-2.1808630000"><ele>485</ele><time>2013-11-17T14:38:18Z</time></trkpt>
<trkpt lat="54.2888670000" lon="-2.1808900000"><ele>485</ele><time>2013-11-17T14:38:20Z</time></trkpt>
<trkpt lat="54.2888870000" lon="-2.1809110000"><ele>485</ele><time>2013-11-17T14:38:22Z</time></trkpt>
<trkpt lat="54.2889080000" lon="-2.1809290000"><ele>485</ele><time>2013-11-17T14:38:24Z</time></trkpt>
<trkpt lat="54.2889280000" lon="-2.1809420000"><ele>485</ele><time>2013-11-17T14:38:26Z</time></trkpt>
<trkpt lat="54.2889480000" lon="-2.1809500000"><ele>485</ele><time>2013-11-17T14:38:28Z</time></trkpt>
<trkpt lat="54.2889670000" lon="-2.1809570000"><ele>485</ele><time>2013-11-17T14:38:30Z</time></trkpt>
<trkpt lat="54.2889870000" lon="-2.1809610000"><ele>485</ele><time>2013-11-17T14:38:32Z</time></trkpt>
<trkpt lat="54.2890060000" lon="-2.1809710000"><ele>485</ele><time>2013-11-17T14:38:34Z</time></trkpt>
<trkpt lat="54.2890340000" lon="-2.1809840000"><ele>485</ele><time>2013-11-17T14:38:36Z</time></trkpt>
<trkpt lat="54.2890550000" lon="-2.1809920000"><ele>485</ele><time>2013-11-17T14:38:39Z</time></trkpt>
<trkpt lat="54.2890780000" lon="-2.1809940000"><ele>485</ele><time>2013-11-17T14:38:41Z</time></trkpt>
<trkpt lat="54.2891020000" lon="-2.1810040000"><ele>485</ele><time>2013-11-17T14:38:44Z</time></trkpt>
<trkpt lat="54.2891260000" lon="-2.1810160000"><ele>485</ele><time>2013-11-17T14:38:47Z</time></trkpt>
<trkpt lat="54.2891530000" lon="-2.1810310000"><ele>485</ele><time>2013-11-17T14:38:50Z</time></trkpt>
<trkpt lat="54.2891740000" lon="-2.1810410000"><ele>485</ele><time>2013-11-17T14:38:52Z</time></trkpt>
<trkpt lat="54.2891920000" lon="-2.1810520000"><ele>485</ele><time>2013-11-17T14:38:54Z</time></trkpt>
<trkpt lat="54.2892110000" lon="-2.1810620000"><ele>485</ele><time>2013-11-17T14:38:55Z</time></trkpt>
<trkpt lat="54.2892300000" lon="-2.1810730000"><ele>485</ele><time>2013-11-17T14:38:58Z</time></trkpt>
<trkpt lat="54.2892490000" lon="-2.1810860000"><ele>485</ele><time>2013-11-17T14:39:00Z</time></trkpt>
<trkpt lat="54.2892770000" lon="-2.1811050000"><ele>485</ele><time>2013-11-17T14:39:03Z</time></trkpt>
<trkpt lat="54.2893080000" lon="-2.1811280000"><ele>450</ele><time>2013-11-17T14:39:06Z</time></trkpt>
<trkpt lat="54.2893310000" lon="-2.1811490000"><ele>450</ele><time>2013-11-17T14:39:07Z</time></trkpt>
<trkpt lat="54.2893590000" lon="-2.1811800000"><ele>450</ele><time>2013-11-17T14:39:12Z</time></trkpt>
<trkpt lat="54.2893800000" lon="-2.1812280000"><ele>450</ele><time>2013-11-17T14:39:16Z</time></trkpt>
<trkpt lat="54.2894020000" lon="-2.1812640000"><ele>450</ele><time>2013-11-17T14:39:19Z</time></trkpt>
<trkpt lat="54.2894290000" lon="-2.1813000000"><ele>450</ele><time>2013-11-17T14:39:22Z</time></trkpt>
<trkpt lat="54.2894600000" lon="-2.1813400000"><ele>450</ele><time>2013-11-17T14:39:26Z</time></trkpt>
<trkpt lat="54.2894870000" lon="-2.1813570000"><ele>450</ele><time>2013-11-17T14:39:29Z</time></trkpt>
<trkpt lat="54.2895230000" lon="-2.1813780000"><ele>450</ele><time>2013-11-17T14:39:34Z</time></trkpt>
<trkpt lat="54.2895580000" lon="-2.1813930000"><ele>450</ele><time>2013-11-17T14:39:38Z</time></trkpt>
<trkpt lat="54.2896000000" lon="-2.1813890000"><ele>450</ele><time>2013-11-17T14:39:45Z</time></trkpt>
<trkpt lat="54.2896410000" lon="-2.1813960000"><ele>450</ele><time>2013-11-17T14:39:48Z</time></trkpt>
<trkpt lat="54.2896900000" lon="-2.1813980000"><ele>450</ele><time>2013-11-17T14:39:51Z</time></trkpt>
<trkpt lat="54.2897300000" lon="-2.1813910000"><ele>450</ele><time>2013-11-17T14:39:56Z</time></trkpt>
<trkpt lat="54.2897710000" lon="-2.1813660000"><ele>450</ele><time>2013-11-17T14:40:00Z</time></trkpt>
<trkpt lat="54.2898140000" lon="-2.1813430000"><ele>450</ele><time>2013-11-17T14:40:04Z</time></trkpt>
<trkpt lat="54.2898560000" lon="-2.1813240000"><ele>450</ele><time>2013-11-17T14:40:07Z</time></trkpt>
<trkpt lat="54.2898860000" lon="-2.1813100000"><ele>450</ele><time>2013-11-17T14:40:09Z</time></trkpt>
<trkpt lat="54.2899230000" lon="-2.1812930000"><ele>450</ele><time>2013-11-17T14:40:12Z</time></trkpt>
<trkpt lat="54.2899650000" lon="-2.1812600000"><ele>450</ele><time>2013-11-17T14:40:16Z</time></trkpt>
<trkpt lat="54.2900050000" lon="-2.1812110000"><ele>450</ele><time>2013-11-17T14:40:20Z</time></trkpt>
<trkpt lat="54.2900320000" lon="-2.1811510000"><ele>450</ele><time>2013-11-17T14:40:24Z</time></trkpt>
<trkpt lat="54.2900470000" lon="-2.1810870000"><ele>450</ele><time>2013-11-17T14:40:29Z</time></trkpt>
<trkpt lat="54.2900740000" lon="-2.1810240000"><ele>450</ele><time>2013-11-17T14:40:35Z</time></trkpt>
<trkpt lat="54.2901100000" lon="-2.1809620000"><ele>450</ele><time>2013-11-17T14:40:39Z</time></trkpt>
<trkpt lat="54.2901450000" lon="-2.1808990000"><ele>450</ele><time>2013-11-17T14:40:43Z</time></trkpt>
<trkpt lat="54.2901760000" lon="-2.1808460000"><ele>450</ele><time>2013-11-17T14:40:46Z</time></trkpt>
<trkpt lat="54.2902040000" lon="-2.1807770000"><ele>450</ele><time>2013-11-17T14:40:50Z</time></trkpt>
<trkpt lat="54.2902340000" lon="-2.1807260000"><ele>450</ele><time>2013-11-17T14:40:53Z</time></trkpt>
<trkpt lat="54.2902550000" lon="-2.1806600000"><ele>450</ele><time>2013-11-17T14:40:57Z</time></trkpt>
<trkpt lat="54.2902850000" lon="-2.1806140000"><ele>450</ele><time>2013-11-17T14:41:01Z</time></trkpt>
<trkpt lat="54.2903080000" lon="-2.1805460000"><ele>450</ele><time>2013-11-17T14:41:06Z</time></trkpt>
<trkpt lat="54.2903370000" lon="-2.1804980000"><ele>450</ele><time>2013-11-17T14:41:10Z</time></trkpt>
<trkpt lat="54.2903750000" lon="-2.1804530000"><ele>450</ele><time>2013-11-17T14:41:13Z</time></trkpt>
<trkpt lat="54.2903910000" lon="-2.1803710000"><ele>450</ele><time>2013-11-17T14:41:21Z</time></trkpt>
<trkpt lat="54.2904110000" lon="-2.1803100000"><ele>450</ele><time>2013-11-17T14:41:25Z</time></trkpt>
<trkpt lat="54.2904310000" lon="-2.1802500000"><ele>450</ele><time>2013-11-17T14:41:30Z</time></trkpt>
<trkpt lat="54.2904700000" lon="-2.1802100000"><ele>450</ele><time>2013-11-17T14:41:34Z</time></trkpt>
<trkpt lat="54.2905040000" lon="-2.1801740000"><ele>450</ele><time>2013-11-17T14:41:38Z</time></trkpt>
<trkpt lat="54.2905400000" lon="-2.1801420000"><ele>450</ele><time>2013-11-17T14:41:41Z</time></trkpt>
<trkpt lat="54.2905750000" lon="-2.1801000000"><ele>450</ele><time>2013-11-17T14:41:44Z</time></trkpt>
<trkpt lat="54.2906070000" lon="-2.1800600000"><ele>450</ele><time>2013-11-17T14:41:48Z</time></trkpt>
<trkpt lat="54.2906320000" lon="-2.1800300000"><ele>450</ele><time>2013-11-17T14:41:50Z</time></trkpt>
<trkpt lat="54.2906550000" lon="-2.1800000000"><ele>450</ele><time>2013-11-17T14:41:52Z</time></trkpt>
<trkpt lat="54.2906820000" lon="-2.1799570000"><ele>450</ele><time>2013-11-17T14:41:55Z</time></trkpt>
<trkpt lat="54.2906990000" lon="-2.1799240000"><ele>450</ele><time>2013-11-17T14:41:57Z</time></trkpt>
<trkpt lat="54.2907160000" lon="-2.1798900000"><ele>450</ele><time>2013-11-17T14:41:59Z</time></trkpt>
<trkpt lat="54.2907310000" lon="-2.1798540000"><ele>450</ele><time>2013-11-17T14:42:01Z</time></trkpt>
<trkpt lat="54.2907450000" lon="-2.1798180000"><ele>450</ele><time>2013-11-17T14:42:03Z</time></trkpt>
<trkpt lat="54.2907590000" lon="-2.1797780000"><ele>450</ele><time>2013-11-17T14:42:05Z</time></trkpt>
<trkpt lat="54.2907700000" lon="-2.1797410000"><ele>450</ele><time>2013-11-17T14:42:07Z</time></trkpt>
<trkpt lat="54.2907850000" lon="-2.1797050000"><ele>465</ele><time>2013-11-17T14:42:09Z</time></trkpt>
<trkpt lat="54.2908020000" lon="-2.1796560000"><ele>465</ele><time>2013-11-17T14:42:12Z</time></trkpt>
<trkpt lat="54.2908160000" lon="-2.1796010000"><ele>465</ele><time>2013-11-17T14:42:15Z</time></trkpt>
<trkpt lat="54.2908270000" lon="-2.1795560000"><ele>465</ele><time>2013-11-17T14:42:17Z</time></trkpt>
<trkpt lat="54.2908450000" lon="-2.1795120000"><ele>465</ele><time>2013-11-17T14:42:19Z</time></trkpt>
<trkpt lat="54.2908600000" lon="-2.1794700000"><ele>465</ele><time>2013-11-17T14:42:21Z</time></trkpt>
<trkpt lat="54.2908720000" lon="-2.1794300000"><ele>465</ele><time>2013-11-17T14:42:23Z</time></trkpt>
<trkpt lat="54.2908810000" lon="-2.1793870000"><ele>465</ele><time>2013-11-17T14:42:25Z</time></trkpt>
<trkpt lat="54.2908930000" lon="-2.1793330000"><ele>465</ele><time>2013-11-17T14:42:28Z</time></trkpt>
<trkpt lat="54.2908990000" lon="-2.1792930000"><ele>465</ele><time>2013-11-17T14:42:30Z</time></trkpt>
<trkpt lat="54.2909010000" lon="-2.1792530000"><ele>465</ele><time>2013-11-17T14:42:32Z</time></trkpt>
<trkpt lat="54.2909060000" lon="-2.1791960000"><ele>465</ele><time>2013-11-17T14:42:34Z</time></trkpt>
<trkpt lat="54.2909140000" lon="-2.1791580000"><ele>465</ele><time>2013-11-17T14:42:37Z</time></trkpt>
<trkpt lat="54.2909280000" lon="-2.1791070000"><ele>465</ele><time>2013-11-17T14:42:40Z</time></trkpt>
<trkpt lat="54.2909400000" lon="-2.1790730000"><ele>465</ele><time>2013-11-17T14:42:42Z</time></trkpt>
<trkpt lat="54.2909510000" lon="-2.1790390000"><ele>465</ele><time>2013-11-17T14:42:44Z</time></trkpt>
<trkpt lat="54.2909620000" lon="-2.1790030000"><ele>465</ele><time>2013-11-17T14:42:46Z</time></trkpt>
<trkpt lat="54.2909700000" lon="-2.1789640000"><ele>465</ele><time>2013-11-17T14:42:48Z</time></trkpt>
<trkpt lat="54.2909830000" lon="-2.1789240000"><ele>465</ele><time>2013-11-17T14:42:50Z</time></trkpt>
<trkpt lat="54.2909990000" lon="-2.1788850000"><ele>465</ele><time>2013-11-17T14:42:52Z</time></trkpt>
<trkpt lat="54.2910090000" lon="-2.1788480000"><ele>465</ele><time>2013-11-17T14:42:54Z</time></trkpt>
<trkpt lat="54.2910200000" lon="-2.1787980000"><ele>465</ele><time>2013-11-17T14:42:57Z</time></trkpt>
<trkpt lat="54.2910400000" lon="-2.1787520000"><ele>465</ele><time>2013-11-17T14:43:00Z</time></trkpt>
<trkpt lat="54.2910530000" lon="-2.1787090000"><ele>465</ele><time>2013-11-17T14:43:03Z</time></trkpt>
<trkpt lat="54.2910670000" lon="-2.1786740000"><ele>465</ele><time>2013-11-17T14:43:05Z</time></trkpt>
<trkpt lat="54.2910760000" lon="-2.1786370000"><ele>465</ele><time>2013-11-17T14:43:09Z</time></trkpt>
<trkpt lat="54.2911000000" lon="-2.1786010000"><ele>411</ele><time>2013-11-17T14:43:11Z</time></trkpt>
<trkpt lat="54.2911240000" lon="-2.1785650000"><ele>411</ele><time>2013-11-17T14:43:15Z</time></trkpt>
<trkpt lat="54.2911420000" lon="-2.1785400000"><ele>411</ele><time>2013-11-17T14:43:17Z</time></trkpt>
<trkpt lat="54.2911620000" lon="-2.1785070000"><ele>411</ele><time>2013-11-17T14:43:19Z</time></trkpt>
<trkpt lat="54.2911830000" lon="-2.1784710000"><ele>411</ele><time>2013-11-17T14:43:22Z</time></trkpt>
<trkpt lat="54.2912020000" lon="-2.1784340000"><ele>411</ele><time>2013-11-17T14:43:25Z</time></trkpt>
<trkpt lat="54.2912210000" lon="-2.1784050000"><ele>411</ele><time>2013-11-17T14:43:27Z</time></trkpt>
<trkpt lat="54.2912390000" lon="-2.1783750000"><ele>411</ele><time>2013-11-17T14:43:29Z</time></trkpt>
<trkpt lat="54.2912550000" lon="-2.1783430000"><ele>411</ele><time>2013-11-17T14:43:31Z</time></trkpt>
<trkpt lat="54.2912730000" lon="-2.1783040000"><ele>411</ele><time>2013-11-17T14:43:34Z</time></trkpt>
<trkpt lat="54.2912940000" lon="-2.1782620000"><ele>411</ele><time>2013-11-17T14:43:36Z</time></trkpt>
<trkpt lat="54.2913100000" lon="-2.1782210000"><ele>411</ele><time>2013-11-17T14:43:40Z</time></trkpt>
<trkpt lat="54.2913220000" lon="-2.1781790000"><ele>411</ele><time>2013-11-17T14:43:42Z</time></trkpt>
<trkpt lat="54.2913310000" lon="-2.1781440000"><ele>411</ele><time>2013-11-17T14:43:45Z</time></trkpt>
<trkpt lat="54.2913430000" lon="-2.1780940000"><ele>411</ele><time>2013-11-17T14:43:48Z</time></trkpt>
<trkpt lat="54.2913650000" lon="-2.1780550000"><ele>411</ele><time>2013-11-17T14:43:51Z</time></trkpt>
<trkpt lat="54.2913900000" lon="-2.1780020000"><ele>411</ele><time>2013-11-17T14:43:54Z</time></trkpt>
<trkpt lat="54.2914120000" lon="-2.1779530000"><ele>411</ele><time>2013-11-17T14:43:57Z</time></trkpt>
<trkpt lat="54.2914330000" lon="-2.1779060000"><ele>411</ele><time>2013-11-17T14:44:00Z</time></trkpt>
<trkpt lat="54.2914510000" lon="-2.1778750000"><ele>411</ele><time>2013-11-17T14:44:02Z</time></trkpt>
<trkpt lat="54.2914670000" lon="-2.1778350000"><ele>411</ele><time>2013-11-17T14:44:04Z</time></trkpt>
<trkpt lat="54.2914810000" lon="-2.1777970000"><ele>411</ele><time>2013-11-17T14:44:06Z</time></trkpt>
<trkpt lat="54.2914960000" lon="-2.1777560000"><ele>411</ele><time>2013-11-17T14:44:08Z</time></trkpt>
<trkpt lat="54.2915100000" lon="-2.1777160000"><ele>411</ele><time>2013-11-17T14:44:10Z</time></trkpt>
<trkpt lat="54.2915260000" lon="-2.1776760000"><ele>411</ele><time>2013-11-17T14:44:12Z</time></trkpt>
<trkpt lat="54.2915370000" lon="-2.1776360000"><ele>411</ele><time>2013-11-17T14:44:13Z</time></trkpt>
<trkpt lat="54.2915490000" lon="-2.1775740000"><ele>411</ele><time>2013-11-17T14:44:18Z</time></trkpt>
<trkpt lat="54.2915730000" lon="-2.1775450000"><ele>411</ele><time>2013-11-17T14:44:27Z</time></trkpt>
<trkpt lat="54.2915820000" lon="-2.1775160000"><ele>411</ele><time>2013-11-17T14:44:30Z</time></trkpt>
<trkpt lat="54.2915930000" lon="-2.1774980000"><ele>411</ele><time>2013-11-17T14:44:31Z</time></trkpt>
<trkpt lat="54.2915990000" lon="-2.1774850000"><ele>411</ele></trkpt>
<trkpt lat="54.2916050000" lon="-2.1774730000"><ele>411</ele><time>2013-11-17T14:44:33Z</time></trkpt>
<trkpt lat="54.2916180000" lon="-2.1774470000"><ele>411</ele><time>2013-11-17T14:44:36Z</time></trkpt>
<trkpt lat="54.2916370000" lon="-2.1774280000"><ele>411</ele><time>2013-11-17T14:44:38Z</time></trkpt>
<trkpt lat="54.2916560000" lon="-2.1774110000"><ele>411</ele><time>2013-11-17T14:44:40Z</time></trkpt>
<trkpt lat="54.2916780000" lon="-2.1773910000"><ele>411</ele><time>2013-11-17T14:44:42Z</time></trkpt>
<trkpt lat="54.2916970000" lon="-2.1773580000"><ele>411</ele><time>2013-11-17T14:44:44Z</time></trkpt>
<trkpt lat="54.2917170000" lon="-2.1773300000"><ele>411</ele><time>2013-11-17T14:44:48Z</time></trkpt>
<trkpt lat="54.2917390000" lon="-2.1773160000"><ele>411</ele><time>2013-11-17T14:44:50Z</time></trkpt>
<trkpt lat="54.2917640000" lon="-2.1773010000"><ele>411</ele><time>2013-11-17T14:44:52Z</time></trkpt>
<trkpt lat="54.2917880000" lon="-2.1772840000"><ele>411</ele><time>2013-11-17T14:44:54Z</time></trkpt>
<trkpt lat="54.2918090000" lon="-2.1772710000"><ele>411</ele><time>2013-11-17T14:44:56Z</time></trkpt>
<trkpt lat="54.2918280000" lon="-2.1772570000"><ele>411</ele><time>2013-11-17T14:44:58Z</time></trkpt>
<trkpt lat="54.2918450000" lon="-2.1772430000"><ele>411</ele><time>2013-11-17T14:45:00Z</time></trkpt>
<trkpt lat="54.2918650000" lon="-2.1772270000"><ele>411</ele><time>2013-11-17T14:45:02Z</time></trkpt>
<trkpt lat="54.2918870000" lon="-2.1772130000"><ele>411</ele><time>2013-11-17T14:45:04Z</time></trkpt>
<trkpt lat="54.2919080000" lon="-2.1771970000"><ele>411</ele><time>2013-11-17T14:45:06Z</time></trkpt>
<trkpt lat="54.2919300000" lon="-2.1771840000"><ele>411</ele><time>2013-11-17T14:45:08Z</time></trkpt>
<trkpt lat="54.2919500000" lon="-2.1771690000"><ele>411</ele><time>2013-11-17T14:45:10Z</time></trkpt>
<trkpt lat="54.2919730000" lon="-2.1771550000"><ele>411</ele><time>2013-11-17T14:45:12Z</time></trkpt>
<trkpt lat="54.2919930000" lon="-2.1771360000"><ele>411</ele><time>2013-11-17T14:45:14Z</time></trkpt>
<trkpt lat="54.2920120000" lon="-2.1771160000"><ele>411</ele><time>2013-11-17T14:45:15Z</time></trkpt>
<trkpt lat="54.2920320000" lon="-2.1770950000"><ele>411</ele><time>2013-11-17T14:45:18Z</time></trkpt>
<trkpt lat="54.2920530000" lon="-2.1770690000"><ele>411</ele><time>2013-11-17T14:45:20Z</time></trkpt>
<trkpt lat="54.2920720000" lon="-2.1770450000"><ele>411</ele><time>2013-11-17T14:45:21Z</time></trkpt>
<trkpt lat="54.2920910000" lon="-2.1770120000"><ele>411</ele><time>2013-11-17T14:45:25Z</time></trkpt>
<trkpt lat="54.2921070000" lon="-2.1769850000"><ele>411</ele><time>2013-11-17T14:45:27Z</time></trkpt>
<trkpt lat="54.2921230000" lon="-2.1769620000"><ele>411</ele><time>2013-11-17T14:45:29Z</time></trkpt>
<trkpt lat="54.2921400000" lon="-2.1769430000"><ele>411</ele><time>2013-11-17T14:45:31Z</time></trkpt>
<trkpt lat="54.2921610000" lon="-2.1769100000"><ele>411</ele><time>2013-11-17T14:45:33Z</time></trkpt>
<trkpt lat="54.2921830000" lon="-2.1768760000"><ele>411</ele><time>2013-11-17T14:45:37Z</time></trkpt>
<trkpt lat="54.2921950000" lon="-2.1768450000"><ele>411</ele><time>2013-11-17T14:45:39Z</time></trkpt>
<trkpt lat="54.2922110000" lon="-2.1768140000"><ele>411</ele><time>2013-11-17T14:45:41Z</time></trkpt>
<trkpt lat="54.2922220000" lon="-2.1767820000"><ele>411</ele><time>2013-11-17T14:45:43Z</time></trkpt>
<trkpt lat="54.2922300000" lon="-2.1767500000"><ele>411</ele><time>2013-11-17T14:45:45Z</time></trkpt>
<trkpt lat="54.2922430000" lon="-2.1767160000"><ele>411</ele><time>2013-11-17T14:45:47Z</time></trkpt>
<trkpt lat="54.2922580000" lon="-2.1766820000"><ele>411</ele><time>2013-11-17T14:45:49Z</time></trkpt>
<trkpt lat="54.2922770000" lon="-2.1766500000"><ele>411</ele><time>2013-11-17T14:45:51Z</time></trkpt>
<trkpt lat="54.2922910000" lon="-2.1766170000"><ele>422</ele><time>2013-11-17T14:45:52Z</time></trkpt>
<trkpt lat="54.2923080000" lon="-2.1765840000"><ele>422</ele><time>2013-11-17T14:45:55Z</time></trkpt>
<trkpt lat="54.2923230000" lon="-2.1765500000"><ele>422</ele><time>2013-11-17T14:45:57Z</time></trkpt>
<trkpt lat="54.2923390000" lon="-2.1765180000"><ele>422</ele><time>2013-11-17T14:45:58Z</time></trkpt>
<trkpt lat="54.2923490000" lon="-2.1764840000"><ele>422</ele><time>2013-11-17T14:46:01Z</time></trkpt>
<trkpt lat="54.2923610000" lon="-2.1764470000"><ele>422</ele><time>2013-11-17T14:46:03Z</time></trkpt>
<trkpt lat="54.2923740000" lon="-2.1764110000"><ele>422</ele><time>2013-11-17T14:46:04Z</time></trkpt>
<trkpt lat="54.2923900000" lon="-2.1763740000"><ele>422</ele><time>2013-11-17T14:46:07Z</time></trkpt>
<trkpt lat="54.2924020000" lon="-2.1763390000"><ele>422</ele><time>2013-11-17T14:46:09Z</time></trkpt>
<trkpt lat="54.2924100000" lon="-2.1763060000"><ele>422</ele><time>2013-11-17T14:46:10Z</time></trkpt>
<trkpt lat="54.2924210000" lon="-2.1762720000"><ele>422</ele><time>2013-11-17T14:46:13Z</time></trkpt>
<trkpt lat="54.2924340000" lon="-2.1762400000"><ele>422</ele><time>2013-11-17T14:46:15Z</time></trkpt>
<trkpt lat="54.2924460000" lon="-2.1762090000"><ele>422</ele><time>2013-11-17T14:46:17Z</time></trkpt>
<trkpt lat="54.2924630000" lon="-2.1761810000"><ele>422</ele><time>2013-11-17T14:46:19Z</time></trkpt>
<trkpt lat="54.2924810000" lon="-2.1761420000"><ele>422</ele><time>2013-11-17T14:46:22Z</time></trkpt>
<trkpt lat="54.2924980000" lon="-2.1761140000"><ele>422</ele><time>2013-11-17T14:46:23Z</time></trkpt>
<trkpt lat="54.2925140000" lon="-2.1760890000"><ele>422</ele><time>2013-11-17T14:46:26Z</time></trkpt>
<trkpt lat="54.2925300000" lon="-2.1760620000"><ele>422</ele><time>2013-11-17T14:46:28Z</time></trkpt>
<trkpt lat="54.2925440000" lon="-2.1760370000"><ele>422</ele><time>2013-11-17T14:46:29Z</time></trkpt>
<trkpt lat="54.2925580000" lon="-2.1760110000"><ele>422</ele><time>2013-11-17T14:46:32Z</time></trkpt>
<trkpt lat="54.2925730000" lon="-2.1759850000"><ele>422</ele><time>2013-11-17T14:46:34Z</time></trkpt>
<trkpt lat="54.2925920000" lon="-2.1759470000"><ele>422</ele><time>2013-11-17T14:46:35Z</time></trkpt>
<trkpt lat="54.2926080000" lon="-2.1759080000"><ele>422</ele><time>2013-11-17T14:46:39Z</time></trkpt>
<trkpt lat="54.2926210000" lon="-2.1758790000"><ele>422</ele><time>2013-11-17T14:46:41Z</time></trkpt>
<trkpt lat="54.2926370000" lon="-2.1758510000"><ele>422</ele><time>2013-11-17T14:46:43Z</time></trkpt>
<trkpt lat="54.2926540000" lon="-2.1758220000"><ele>422</ele><time>2013-11-17T14:46:45Z</time></trkpt>
<trkpt lat="54.2926650000" lon="-2.1757910000"><ele>422</ele><time>2013-11-17T14:46:47Z</time></trkpt>
<trkpt lat="54.2926840000" lon="-2.1757520000"><ele>422</ele><time>2013-11-17T14:46:50Z</time></trkpt>
<trkpt lat="54.2927000000" lon="-2.1757260000"><ele>422</ele><time>2013-11-17T14:46:52Z</time></trkpt>
<trkpt lat="54.2927130000" lon="-2.1757000000"><ele>422</ele><time>2013-11-17T14:46:54Z</time></trkpt>
<trkpt lat="54.2927270000" lon="-2.1756750000"><ele>422</ele><time>2013-11-17T14:46:56Z</time></trkpt>
<trkpt lat="54.2927470000" lon="-2.1756500000"><ele>422</ele><time>2013-11-17T14:46:58Z</time></trkpt>
<trkpt lat="54.2927650000" lon="-2.1756310000"><ele>422</ele><time>2013-11-17T14:47:00Z</time></trkpt>
<trkpt lat="54.2927820000" lon="-2.1756150000"><ele>422</ele><time>2013-11-17T14:47:02Z</time></trkpt>
<trkpt lat="54.2928020000" lon="-2.1756010000"><ele>422</ele><time>2013-11-17T14:47:04Z</time></trkpt>
<trkpt lat="54.2928240000" lon="-2.1755910000"><ele>422</ele><time>2013-11-17T14:47:06Z</time></trkpt>
<trkpt lat="54.2928500000" lon="-2.1755830000"><ele>422</ele><time>2013-11-17T14:47:08Z</time></trkpt>
<trkpt lat="54.2928760000" lon="-2.1755700000"><ele>422</ele><time>2013-11-17T14:47:10Z</time></trkpt>
<trkpt lat="54.2928970000" lon="-2.1755480000"><ele>370</ele><time>2013-11-17T14:47:12Z</time></trkpt>
<trkpt lat="54.2929190000" lon="-2.1755220000"><ele>370</ele><time>2013-11-17T14:47:14Z</time></trkpt>
<trkpt lat="54.2929440000" lon="-2.1754940000"><ele>370</ele><time>2013-11-17T14:47:16Z</time></trkpt>
<trkpt lat="54.2929660000" lon="-2.1754620000"><ele>370</ele><time>2013-11-17T14:47:18Z</time></trkpt>
<trkpt lat="54.2929810000" lon="-2.1754240000"><ele>370</ele><time>2013-11-17T14:47:20Z</time></trkpt>
<trkpt lat="54.2929920000" lon="-2.1753880000"><ele>370</ele><time>2013-11-17T14:47:22Z</time></trkpt>
<trkpt lat="54.2930030000" lon="-2.1753560000"><ele>370</ele><time>2013-11-17T14:47:24Z</time></trkpt>
<trkpt lat="54.2930190000" lon="-2.1753200000"><ele>370</ele><time>2013-11-17T14:47:25Z</time></trkpt>
<trkpt lat="54.2930340000" lon="-2.1752830000"><ele>370</ele><time>2013-11-17T14:47:28Z</time></trkpt>
<trkpt lat="54.2930480000" lon="-2.1752470000"><ele>370</ele><time>2013-11-17T14:47:30Z</time></trkpt>
<trkpt lat="54.2930630000" lon="-2.1752130000"><ele>370</ele><time>2013-11-17T14:47:31Z</time></trkpt>
<trkpt lat="54.2930760000" lon="-2.1751820000"><ele>370</ele><time>2013-11-17T14:47:34Z</time></trkpt>
<trkpt lat="54.2930890000" lon="-2.1751510000"><ele>370</ele><time>2013-11-17T14:47:36Z</time></trkpt>
<trkpt lat="54.2931070000" lon="-2.1751050000"><ele>370</ele><time>2013-11-17T14:47:39Z</time></trkpt>
<trkpt lat="54.2931210000" lon="-2.1750700000"><ele>370</ele><time>2013-11-17T14:47:41Z</time></trkpt>
<trkpt lat="54.2931340000" lon="-2.1750360000"><ele>370</ele><time>2013-11-17T14:47:43Z</time></trkpt>
<trkpt lat="54.2931420000" lon="-2.1749980000"><ele>370</ele><time>2013-11-17T14:47:45Z</time></trkpt>
<trkpt lat="54.2931510000" lon="-2.1749590000"><ele>370</ele><time>2013-11-17T14:47:47Z</time></trkpt>
<trkpt lat="54.2931580000" lon="-2.1749220000"><ele>370</ele><time>2013-11-17T14:47:49Z</time></trkpt>
<trkpt lat="54.2931680000" lon="-2.1748710000"><ele>370</ele><time>2013-11-17T14:47:52Z</time></trkpt>
<trkpt lat="54.2931770000" lon="-2.1748200000"><ele>370</ele><time>2013-11-17T14:47:55Z</time></trkpt>
<trkpt lat="54.2931840000" lon="-2.1747840000"><ele>370</ele><time>2013-11-17T14:47:56Z</time></trkpt>
<trkpt lat="54.2932000000" lon="-2.1747420000"><ele>370</ele><time>2013-11-17T14:48:25Z</time></trkpt>
<trkpt lat="54.2932160000" lon="-2.1747120000"><ele>370</ele><time>2013-11-17T14:48:27Z</time></trkpt>
<trkpt lat="54.2932330000" lon="-2.1746890000"><ele>370</ele><time>2013-11-17T14:48:30Z</time></trkpt>
<trkpt lat="54.2932520000" lon="-2.1746520000"><ele>370</ele><time>2013-11-17T14:48:33Z</time></trkpt>
<trkpt lat="54.2932700000" lon="-2.1746160000"><ele>370</ele><time>2013-11-17T14:48:36Z</time></trkpt>
<trkpt lat="54.2932900000" lon="-2.1745780000"><ele>370</ele><time>2013-11-17T14:48:39Z</time></trkpt>
<trkpt lat="54.2933110000" lon="-2.1745510000"><ele>370</ele><time>2013-11-17T14:48:41Z</time></trkpt>
<trkpt lat="54.2933290000" lon="-2.1745270000"><ele>370</ele><time>2013-11-17T14:48:43Z</time></trkpt>
<trkpt lat="54.2933460000" lon="-2.1745010000"><ele>370</ele><time>2013-11-17T14:48:45Z</time></trkpt>
<trkpt lat="54.2933660000" lon="-2.1744740000"><ele>370</ele><time>2013-11-17T14:48:47Z</time></trkpt>
<trkpt lat="54.2933830000" lon="-2.1744500000"><ele>370</ele><time>2013-11-17T14:48:49Z</time></trkpt>
<trkpt lat="54.2934030000" lon="-2.1744070000"><ele>370</ele><time>2013-11-17T14:48:52Z</time></trkpt>
<trkpt lat="54.2934200000" lon="-2.1743770000"><ele>370</ele><time>2013-11-17T14:48:54Z</time></trkpt>
<trkpt lat="54.2934340000" lon="-2.1743500000"><ele>370</ele><time>2013-11-17T14:48:56Z</time></trkpt>
<trkpt lat="54.2934490000" lon="-2.1743250000"><ele>370</ele><time>2013-11-17T14:48:58Z</time></trkpt>
<trkpt lat="54.2934630000" lon="-2.1743000000"><ele>370</ele><time>2013-11-17T14:49:00Z</time></trkpt>
<trkpt lat="54.2934820000" lon="-2.1742610000"><ele>370</ele><time>2013-11-17T14:49:03Z</time></trkpt>
<trkpt lat="54.2934960000" lon="-2.1742190000"><ele>370</ele><time>2013-11-17T14:49:06Z</time></trkpt>
<trkpt lat="54.2935100000" lon="-2.1741830000"><ele>370</ele><time>2013-11-17T14:49:08Z</time></trkpt>
<trkpt lat="54.2935300000" lon="-2.1741440000"><ele>370</ele><time>2013-11-17T14:49:10Z</time></trkpt>
<trkpt lat="54.2935490000" lon="-2.1741100000"><ele>370</ele><time>2013-11-17T14:49:12Z</time></trkpt>
<trkpt lat="54.2935670000" lon="-2.1740730000"><ele>370</ele><time>2013-11-17T14:49:14Z</time></trkpt>
<trkpt lat="54.2935840000" lon="-2.1740400000"><ele>370</ele><time>2013-11-17T14:49:16Z</time></trkpt>
<trkpt lat="54.2935990000" lon="-2.1740080000"><ele>370</ele><time>2013-11-17T14:49:18Z</time></trkpt>
<trkpt lat="54.2936120000" lon="-2.1739800000"><ele>370</ele><time>2013-11-17T14:49:20Z</time></trkpt>
<trkpt lat="54.2936280000" lon="-2.1739420000"><ele>370</ele><time>2013-11-17T14:49:22Z</time></trkpt>
<trkpt lat="54.2936420000" lon="-2.1739130000"><ele>370</ele><time>2013-11-17T14:49:24Z</time></trkpt>
<trkpt lat="54.2936550000" lon="-2.1738770000"><ele>370</ele><time>2013-11-17T14:49:26Z</time></trkpt>
<trkpt lat="54.2936730000" lon="-2.1738390000"><ele>370</ele><time>2013-11-17T14:49:28Z</time></trkpt>
<trkpt lat="54.2936880000" lon="-2.1738020000"><ele>370</ele><time>2013-11-17T14:49:29Z</time></trkpt>
<trkpt lat="54.2937000000" lon="-2.1737700000"><ele>370</ele><time>2013-11-17T14:49:32Z</time></trkpt>
<trkpt lat="54.2937120000" lon="-2.1737380000"><ele>370</ele><time>2013-11-17T14:49:34Z</time></trkpt>
<trkpt lat="54.2937270000" lon="-2.1737090000"><ele>370</ele><time>2013-11-17T14:49:35Z</time></trkpt>
<trkpt lat="54.2937450000" lon="-2.1736800000"><ele>370</ele><time>2013-11-17T14:49:38Z</time></trkpt>
<trkpt lat="54.2937660000" lon="-2.1736570000"><ele>370</ele><time>2013-11-17T14:49:40Z</time></trkpt>
<trkpt lat="54.2937870000" lon="-2.1736380000"><ele>370</ele><time>2013-11-17T14:49:41Z</time></trkpt>
<trkpt lat="54.2938060000" lon="-2.1736080000"><ele>370</ele><time>2013-11-17T14:49:45Z</time></trkpt>
<trkpt lat="54.2938290000" lon="-2.1735750000"><ele>367</ele><time>2013-11-17T14:49:47Z</time></trkpt>
<trkpt lat="54.2938490000" lon="-2.1735510000"><ele>367</ele><time>2013-11-17T14:49:50Z</time></trkpt>
<trkpt lat="54.2938640000" lon="-2.1735240000"><ele>367</ele><time>2013-11-17T14:49:52Z</time></trkpt>
<trkpt lat="54.2938800000" lon="-2.1734940000"><ele>367</ele><time>2013-11-17T14:49:53Z</time></trkpt>
<trkpt lat="54.2938980000" lon="-2.1734630000"><ele>367</ele><time>2013-11-17T14:49:56Z</time></trkpt>
<trkpt lat="54.2939200000" lon="-2.1734280000"><ele>367</ele><time>2013-11-17T14:49:58Z</time></trkpt>
<trkpt lat="54.2939380000" lon="-2.1733970000"><ele>367</ele><time>2013-11-17T14:50:00Z</time></trkpt>
<trkpt lat="54.2939550000" lon="-2.1733670000"><ele>367</ele><time>2013-11-17T14:50:02Z</time></trkpt>
<trkpt lat="54.2939690000" lon="-2.1733320000"><ele>367</ele><time>2013-11-17T14:50:04Z</time></trkpt>
<trkpt lat="54.2939820000" lon="-2.1732990000"><ele>367</ele><time>2013-11-17T14:50:06Z</time></trkpt>
<trkpt lat="54.2939890000" lon="-2.1732650000"><ele>367</ele><time>2013-11-17T14:50:08Z</time></trkpt>
<trkpt lat="54.2939960000" lon="-2.1732380000"><ele>367</ele><time>2013-11-17T14:50:09Z</time></trkpt>
<trkpt lat="54.2940010000" lon="-2.1732220000"><ele>367</ele><time>2013-11-17T14:50:10Z</time></trkpt>
<trkpt lat="54.2940050000" lon="-2.1732050000"><ele>367</ele><time>2013-11-17T14:50:11Z</time></trkpt>
<trkpt lat="54.2940090000" lon="-2.1731880000"><ele>367</ele><time>2013-11-17T14:50:12Z</time></trkpt>
<trkpt lat="54.2940140000" lon="-2.1731710000"><ele>367</ele></trkpt>
<trkpt lat="54.2940190000" lon="-2.1731540000"><ele>367</ele><time>2013-11-17T14:50:14Z</time></trkpt>
<trkpt lat="54.2940240000" lon="-2.1731360000"><ele>367</ele><time>2013-11-17T14:50:15Z</time></trkpt>
<trkpt lat="54.2940300000" lon="-2.1731190000"><ele>367</ele><time>2013-11-17T14:50:16Z</time></trkpt>
<trkpt lat="54.2940360000" lon="-2.1731030000"><ele>367</ele><time>2013-11-17T14:50:17Z</time></trkpt>
<trkpt lat="54.2940420000" lon="-2.1730880000"><ele>367</ele><time>2013-11-17T14:50:18Z</time></trkpt>
<trkpt lat="54.2940490000" lon="-2.1730730000"><ele>367</ele><time>2013-11-17T14:50:19Z</time></trkpt>
<trkpt lat="54.2940550000" lon="-2.1730580000"><ele>367</ele><time>2013-11-17T14:50:20Z</time></trkpt>
<trkpt lat="54.2940620000" lon="-2.1730430000"><ele>367</ele><time>2013-11-17T14:50:21Z</time></trkpt>
<trkpt lat="54.2940690000" lon="-2.1730250000"><ele>367</ele><time>2013-11-17T14:50:22Z</time></trkpt>
<trkpt lat="54.2940760000" lon="-2.1730070000"><ele>367</ele><time>2013-11-17T14:50:23Z</time></trkpt>
<trkpt lat="54.2940830000" lon="-2.1729900000"><ele>367</ele><time>2013-11-17T14:50:24Z</time></trkpt>
<trkpt lat="54.2940890000" lon="-2.1729740000"><ele>367</ele><time>2013-11-17T14:50:25Z</time></trkpt>
<trkpt lat="54.2940950000" lon="-2.1729580000"><ele>367</ele><time>2013-11-17T14:50:26Z</time></trkpt>
<trkpt lat="54.2941020000" lon="-2.1729420000"><ele>367</ele><time>2013-11-17T14:50:27Z</time></trkpt>
<trkpt lat="54.2941100000" lon="-2.1729260000"><ele>367</ele><time>2013-11-17T14:50:28Z</time></trkpt>
<trkpt lat="54.2941200000" lon="-2.1729100000"><ele>367</ele><time>2013-11-17T14:50:29Z</time></trkpt>
<trkpt lat="54.2941300000" lon="-2.1728940000"><ele>367</ele><time>2013-11-17T14:50:30Z</time></trkpt>
<trkpt lat="54.2941460000" lon="-2.1728530000"><ele>367</ele><time>2013-11-17T14:50:33Z</time></trkpt>
<trkpt lat="54.2941720000" lon="-2.1728070000"><ele>367</ele><time>2013-11-17T14:50:36Z</time></trkpt>
<trkpt lat="54.2941920000" lon="-2.1727740000"><ele>367</ele><time>2013-11-17T14:50:37Z</time></trkpt>
<trkpt lat="54.2942120000" lon="-2.1727260000"><ele>367</ele><time>2013-11-17T14:50:42Z</time></trkpt>
<trkpt lat="54.2942270000" lon="-2.1726680000"><ele>367</ele><time>2013-11-17T14:50:46Z</time></trkpt>
<trkpt lat="54.2942500000" lon="-2.1726030000"><ele>367</ele><time>2013-11-17T14:50:50Z</time></trkpt>
<trkpt lat="54.2942750000" lon="-2.1725530000"><ele>367</ele><time>2013-11-17T14:50:53Z</time></trkpt>
<trkpt lat="54.2942960000" lon="-2.1725000000"><ele>367</ele><time>2013-11-17T14:50:56Z</time></trkpt>
<trkpt lat="54.2943210000" lon="-2.1724490000"><ele>367</ele><time>2013-11-17T14:50:59Z</time></trkpt>
<trkpt lat="54.2943470000" lon="-2.1724040000"><ele>367</ele><time>2013-11-17T14:51:02Z</time></trkpt>
<trkpt lat="54.2943710000" lon="-2.1723570000"><ele>367</ele><time>2013-11-17T14:51:05Z</time></trkpt>
<trkpt lat="54.2943890000" lon="-2.1723010000"><ele>367</ele><time>2013-11-17T14:51:08Z</time></trkpt>
<trkpt lat="54.2944090000" lon="-2.1722430000"><ele>367</ele><time>2013-11-17T14:51:11Z</time></trkpt>
<trkpt lat="54.2944330000" lon="-2.1721880000"><ele>367</ele><time>2013-11-17T14:51:14Z</time></trkpt>
<trkpt lat="54.2944540000" lon="-2.1721310000"><ele>367</ele><time>2013-11-17T14:51:17Z</time></trkpt>
<trkpt lat="54.2944670000" lon="-2.1720890000"><ele>367</ele><time>2013-11-17T14:51:19Z</time></trkpt>
<trkpt lat="54.2944770000" lon="-2.1720390000"><ele>367</ele><time>2013-11-17T14:51:21Z</time></trkpt>
<trkpt lat="54.2944840000" lon="-2.1719920000"><ele>367</ele><time>2013-11-17T14:51:23Z</time></trkpt>
<trkpt lat="54.2944950000" lon="-2.1719470000"><ele>367</ele><time>2013-11-17T14:51:25Z</time></trkpt>
<trkpt lat="54.2945090000" lon="-2.1718900000"><ele>367</ele><time>2013-11-17T14:51:28Z</time></trkpt>
<trkpt lat="54.2945240000" lon="-2.1718290000"><ele>367</ele><time>2013-11-17T14:51:31Z</time></trkpt>
<trkpt lat="54.2945430000" lon="-2.1717790000"><ele>367</ele><time>2013-11-17T14:51:34Z</time></trkpt>
<trkpt lat="54.2945600000" lon="-2.1717300000"><ele>367</ele><time>2013-11-17T14:51:37Z</time></trkpt>
<trkpt lat="54.2945740000" lon="-2.1716940000"><ele>367</ele><time>2013-11-17T14:51:39Z</time></trkpt>
<trkpt lat="54.2945870000" lon="-2.1716590000"><ele>367</ele><time>2013-11-17T14:51:41Z</time></trkpt>
<trkpt lat="54.2946050000" lon="-2.1715980000"><ele>367</ele><time>2013-11-17T14:51:44Z</time></trkpt>
<trkpt lat="54.2946260000" lon="-2.1715560000"><ele>367</ele><time>2013-11-17T14:51:46Z</time></trkpt>
<trkpt lat="54.2946480000" lon="-2.1715230000"><ele>367</ele><time>2013-11-17T14:51:48Z</time></trkpt>
<trkpt lat="54.2946710000" lon="-2.1714790000"><ele>367</ele><time>2013-11-17T14:51:51Z</time></trkpt>
<trkpt lat="54.2946870000" lon="-2.1714220000"><ele>367</ele><time>2013-11-17T14:51:54Z</time></trkpt>
<trkpt lat="54.2947120000" lon="-2.1713660000"><ele>332</ele><time>2013-11-17T14:51:57Z</time></trkpt>
<trkpt lat="54.2947370000" lon="-2.1713130000"><ele>332</ele><time>2013-11-17T14:51:59Z</time></trkpt>
<trkpt lat="54.2947560000" lon="-2.1712630000"><ele>332</ele><time>2013-11-17T14:52:03Z</time></trkpt>
<trkpt lat="54.2947740000" lon="-2.1712090000"><ele>332</ele><time>2013-11-17T14:52:05Z</time></trkpt>
<trkpt lat="54.2947970000" lon="-2.1711540000"><ele>332</ele><time>2013-11-17T14:52:09Z</time></trkpt>
<trkpt lat="54.2948090000" lon="-2.1710980000"><ele>332</ele><time>2013-11-17T14:52:12Z</time></trkpt>
<trkpt lat="54.2948170000" lon="-2.1710390000"><ele>332</ele><time>2013-11-17T14:52:15Z</time></trkpt>
<trkpt lat="54.2948230000" lon="-2.1709930000"><ele>332</ele><time>2013-11-17T14:52:17Z</time></trkpt>
<trkpt lat="54.2948340000" lon="-2.1709490000"><ele>332</ele><time>2013-11-17T14:52:19Z</time></trkpt>
<trkpt lat="54.2948470000" lon="-2.1709000000"><ele>332</ele><time>2013-11-17T14:52:22Z</time></trkpt>
<trkpt lat="54.2948630000" lon="-2.1708470000"><ele>332</ele><time>2013-11-17T14:52:25Z</time></trkpt>
<trkpt lat="54.2948850000" lon="-2.1708020000"><ele>332</ele><time>2013-11-17T14:52:28Z</time></trkpt>
<trkpt lat="54.2949060000" lon="-2.1707770000"><ele>332</ele><time>2013-11-17T14:52:30Z</time></trkpt>
<trkpt lat="54.2949330000" lon="-2.1707420000"><ele>332</ele><time>2013-11-17T14:52:33Z</time></trkpt>
<trkpt lat="54.2949550000" lon="-2.1707080000"><ele>332</ele><time>2013-11-17T14:52:36Z</time></trkpt>
<trkpt lat="54.2949810000" lon="-2.1706820000"><ele>332</ele><time>2013-11-17T14:52:38Z</time></trkpt>
<trkpt lat="54.2950070000" lon="-2.1706640000"><ele>332</ele><time>2013-11-17T14:52:40Z</time></trkpt>
<trkpt lat="54.2950320000" lon="-2.1706460000"><ele>332</ele><time>2013-11-17T14:52:42Z</time></trkpt>
<trkpt lat="54.2950650000" lon="-2.1706200000"><ele>332</ele><time>2013-11-17T14:52:45Z</time></trkpt>
<trkpt lat="54.2950990000" lon="-2.1706020000"><ele>332</ele><time>2013-11-17T14:52:48Z</time></trkpt>
<trkpt lat="54.2951220000" lon="-2.1705910000"><ele>332</ele><time>2013-11-17T14:52:49Z</time></trkpt>
<trkpt lat="54.2951470000" lon="-2.1705750000"><ele>332</ele><time>2013-11-17T14:52:52Z</time></trkpt>
<trkpt lat="54.2951750000" lon="-2.1705630000"><ele>332</ele><time>2013-11-17T14:52:54Z</time></trkpt>
<trkpt lat="54.2952050000" lon="-2.1705540000"><ele>332</ele><time>2013-11-17T14:52:55Z</time></trkpt>
<trkpt lat="54.2952290000" lon="-2.1705460000"><ele>332</ele><time>2013-11-17T14:52:58Z</time></trkpt>
<trkpt lat="54.2952600000" lon="-2.1705420000"><ele>332</ele><time>2013-11-17T14:53:01Z</time></trkpt>
<trkpt lat="54.2952820000" lon="-2.1705340000"><ele>332</ele><time>2013-11-17T14:53:03Z</time></trkpt>
<trkpt lat="54.2953120000" lon="-2.1705350000"><ele>332</ele><time>2013-11-17T14:53:05Z</time></trkpt>
<trkpt lat="54.2953390000" lon="-2.1705370000"><ele>332</ele><time>2013-11-17T14:53:07Z</time></trkpt>
<trkpt lat="54.2953660000" lon="-2.1705370000"><ele>332</ele><time>2013-11-17T14:53:09Z</time></trkpt>
<trkpt lat="54.2953920000" lon="-2.1705370000"><ele>332</ele><time>2013-11-17T14:53:11Z</time></trkpt>
<trkpt lat="54.2954170000" lon="-2.1705380000"><ele>332</ele><time>2013-11-17T14:53:13Z</time></trkpt>
<trkpt lat="54.2954410000" lon="-2.1705410000"><ele>332</ele><time>2013-11-17T14:53:14Z</time></trkpt>
<trkpt lat="54.2954640000" lon="-2.1705450000"><ele>332</ele><time>2013-11-17T14:53:17Z</time></trkpt>
<trkpt lat="54.2954890000" lon="-2.1705500000"><ele>332</ele><time>2013-11-17T14:53:19Z</time></trkpt>
<trkpt lat="54.2955150000" lon="-2.1705520000"><ele>332</ele><time>2013-11-17T14:53:20Z</time></trkpt>
<trkpt lat="54.2955420000" lon="-2.1705510000"><ele>332</ele><time>2013-11-17T14:53:23Z</time></trkpt>
<trkpt lat="54.2955700000" lon="-2.1705580000"><ele>332</ele><time>2013-11-17T14:53:25Z</time></trkpt>
<trkpt lat="54.2955800000" lon="-2.1705610000"><ele>332</ele><time>2013-11-17T14:53:26Z</time></trkpt>
<trkpt lat="54.2955920000" lon="-2.1705650000"><ele>332</ele></trkpt>
<trkpt lat="54.2956040000" lon="-2.1705690000"><ele>332</ele><time>2013-11-17T14:53:28Z</time></trkpt>
<trkpt lat="54.2956140000" lon="-2.1705740000"><ele>332</ele><time>2013-11-17T14:53:29Z</time></trkpt>
<trkpt lat="54.2956250000" lon="-2.1705800000"><ele>332</ele><time>2013-11-17T14:53:30Z</time></trkpt>
<trkpt lat="54.2956350000" lon="-2.1705840000"><ele>332</ele><time>2013-11-17T14:53:31Z</time></trkpt>
<trkpt lat="54.2956460000" lon="-2.1705880000"><ele>332</ele><time>2013-11-17T14:53:32Z</time></trkpt>
<trkpt lat="54.2956560000" lon="-2.1705960000"><ele>332</ele></trkpt>
<trkpt lat="54.2956670000" lon="-2.1706020000"><ele>332</ele><time>2013-11-17T14:53:34Z</time></trkpt>
<trkpt lat="54.2956760000" lon="-2.1706080000"><ele>332</ele><time>2013-11-17T14:53:35Z</time></trkpt>
<trkpt lat="54.2956860000" lon="-2.1706130000"><ele>332</ele><time>2013-11-17T14:53:36Z</time></trkpt>
<trkpt lat="54.2956960000" lon="-2.1706180000"><ele>332</ele><time>2013-11-17T14:53:37Z</time></trkpt>
<trkpt lat="54.2957060000" lon="-2.1706230000"><ele>332</ele><time>2013-11-17T14:53:38Z</time></trkpt>
<trkpt lat="54.2957150000" lon="-2.1706270000"><ele>332</ele><time>2013-11-17T14:53:39Z</time></trkpt>
<trkpt lat="54.2957250000" lon="-2.1706290000"><ele>332</ele><time>2013-11-17T14:53:40Z</time></trkpt>
<trkpt lat="54.2957360000" lon="-2.1706320000"><ele>332</ele><time>2013-11-17T14:53:41Z</time></trkpt>
<trkpt lat="54.2957470000" lon="-2.1706370000"><ele>332</ele><time>2013-11-17T14:53:42Z</time></trkpt>
<trkpt lat="54.2957580000" lon="-2.1706430000"><ele>332</ele><time>2013-11-17T14:53:43Z</time></trkpt>
<trkpt lat="54.2957690000" lon="-2.1706520000"><ele>332</ele><time>2013-11-17T14:53:44Z</time></trkpt>
<trkpt lat="54.2957790000" lon="-2.1706600000"><ele>332</ele><time>2013-11-17T14:53:45Z</time></trkpt>
<trkpt lat="54.2957890000" lon="-2.1706680000"><ele>332</ele></trkpt>
<trkpt lat="54.2957980000" lon="-2.1706760000"><ele>332</ele><time>2013-11-17T14:53:47Z</time></trkpt>
<trkpt lat="54.2958090000" lon="-2.1706810000"><ele>332</ele><time>2013-11-17T14:53:48Z</time></trkpt>
<trkpt lat="54.2958200000" lon="-2.1706860000"><ele>332</ele><time>2013-11-17T14:53:49Z</time></trkpt>
<trkpt lat="54.2958300000" lon="-2.1706900000"><ele>332</ele><time>2013-11-17T14:53:50Z</time></trkpt>
<trkpt lat="54.2958390000" lon="-2.1706950000"><ele>332</ele><time>2013-11-17T14:53:51Z</time></trkpt>
<trkpt lat="54.2958470000" lon="-2.1706980000"><ele>332</ele></trkpt>
<trkpt lat="54.2958580000" lon="-2.1707030000"><ele>332</ele><time>2013-11-17T14:53:53Z</time></trkpt>
<trkpt lat="54.2958670000" lon="-2.1707070000"><ele>332</ele><time>2013-11-17T14:53:54Z</time></trkpt>
<trkpt lat="54.2958790000" lon="-2.1707110000"><ele>332</ele><time>2013-11-17T14:53:55Z</time></trkpt>
<trkpt lat="54.2958900000" lon="-2.1707130000"><ele>332</ele><time>2013-11-17T14:53:56Z</time></trkpt>
<trkpt lat="54.2959020000" lon="-2.1707150000"><ele>332</ele><time>2013-11-17T14:53:57Z</time></trkpt>
<trkpt lat="54.2959120000" lon="-2.1707180000"><ele>332</ele></trkpt>
<trkpt lat="54.2959220000" lon="-2.1707210000"><ele>332</ele><time>2013-11-17T14:53:59Z</time></trkpt>
<trkpt lat="54.2959320000" lon="-2.1707240000"><ele>332</ele><time>2013-11-17T14:54:00Z</time></trkpt>
<trkpt lat="54.2959430000" lon="-2.1707250000"><ele>332</ele><time>2013-11-17T14:54:01Z</time></trkpt>
<trkpt lat="54.2959520000" lon="-2.1707280000"><ele>332</ele><time>2013-11-17T14:54:02Z</time></trkpt>
<trkpt lat="54.2959620000" lon="-2.1707300000"><ele>332</ele><time>2013-11-17T14:54:03Z</time></trkpt>
<trkpt lat="54.2959740000" lon="-2.1707330000"><ele>332</ele></trkpt>
<trkpt lat="54.2959830000" lon="-2.1707360000"><ele>332</ele><time>2013-11-17T14:54:05Z</time></trkpt>
<trkpt lat="54.2959900000" lon="-2.1707400000"><ele>332</ele><time>2013-11-17T14:54:06Z</time></trkpt>
<trkpt lat="54.2959980000" lon="-2.1707440000"><ele>332</ele><time>2013-11-17T14:54:07Z</time></trkpt>
<trkpt lat="54.2960080000" lon="-2.1707480000"><ele>332</ele><time>2013-11-17T14:54:08Z</time></trkpt>
<trkpt lat="54.2960190000" lon="-2.1707500000"><ele>332</ele><time>2013-11-17T14:54:09Z</time></trkpt>
<trkpt lat="54.2960310000" lon="-2.1707520000"><ele>332</ele><time>2013-11-17T14:54:10Z</time></trkpt>
<trkpt lat="54.2960400000" lon="-2.1707630000"><ele>332</ele></trkpt>
<trkpt lat="54.2960500000" lon="-2.1707740000"><ele>332</ele><time>2013-11-17T14:54:12Z</time></trkpt>
<trkpt lat="54.2960580000" lon="-2.1707850000"><ele>332</ele><time>2013-11-17T14:54:13Z</time></trkpt>
<trkpt lat="54.2960660000" lon="-2.1707970000"><ele>332</ele><time>2013-11-17T14:54:14Z</time></trkpt>
<trkpt lat="54.2960740000" lon="-2.1708060000"><ele>332</ele><time>2013-11-17T14:54:15Z</time></trkpt>
<trkpt lat="54.2960820000" lon="-2.1708130000"><ele>332</ele><time>2013-11-17T14:54:16Z</time></trkpt>
<trkpt lat="54.2960920000" lon="-2.1708190000"><ele>332</ele></trkpt>
<trkpt lat="54.2961020000" lon="-2.1708220000"><ele>332</ele><time>2013-11-17T14:54:18Z</time></trkpt>
<trkpt lat="54.2961110000" lon="-2.1708240000"><ele>332</ele><time>2013-11-17T14:54:19Z</time></trkpt>
<trkpt lat="54.2961200000" lon="-2.1708260000"><ele>332</ele><time>2013-11-17T14:54:20Z</time></trkpt>
<trkpt lat="54.2961290000" lon="-2.1708280000"><ele>332</ele><time>2013-11-17T14:54:21Z</time></trkpt>
<trkpt lat="54.2961380000" lon="-2.1708330000"><ele>332</ele><time>2013-11-17T14:54:22Z</time></trkpt>
<trkpt lat="54.2961480000" lon="-2.1708410000"><ele>332</ele></trkpt>
<trkpt lat="54.2961580000" lon="-2.1708470000"><ele>332</ele><time>2013-11-17T14:54:24Z</time></trkpt>
<trkpt lat="54.2961670000" lon="-2.1708530000"><ele>332</ele><time>2013-11-17T14:54:25Z</time></trkpt>
<trkpt lat="54.2961770000" lon="-2.1708580000"><ele>332</ele><time>2013-11-17T14:54:26Z</time></trkpt>
<trkpt lat="54.2961890000" lon="-2.1708630000"><ele>332</ele><time>2013-11-17T14:54:27Z</time></trkpt>
<trkpt lat="54.2962000000" lon="-2.1708690000"><ele>332</ele><time>2013-11-17T14:54:28Z</time></trkpt>
<trkpt lat="54.2962100000" lon="-2.1708770000"><ele>332</ele></trkpt>
<trkpt lat="54.2962200000" lon="-2.1708860000"><ele>332</ele><time>2013-11-17T14:54:30Z</time></trkpt>
<trkpt lat="54.2962310000" lon="-2.1708960000"><ele>332</ele><time>2013-11-17T14:54:31Z</time></trkpt>
<trkpt lat="54.2962400000" lon="-2.1709080000"><ele>332</ele><time>2013-11-17T14:54:32Z</time></trkpt>
<trkpt lat="54.2962500000" lon="-2.1709180000"><ele>332</ele><time>2013-11-17T14:54:33Z</time></trkpt>
<trkpt lat="54.2962580000" lon="-2.1709280000"><ele>332</ele><time>2013-11-17T14:54:34Z</time></trkpt>
<trkpt lat="54.2962660000" lon="-2.1709400000"><ele>332</ele></trkpt>
<trkpt lat="54.2962750000" lon="-2.1709510000"><ele>332</ele><time>2013-11-17T14:54:36Z</time></trkpt>
<trkpt lat="54.2962840000" lon="-2.1709650000"><ele>332</ele><time>2013-11-17T14:54:37Z</time></trkpt>
<trkpt lat="54.2962910000" lon="-2.1709820000"><ele>332</ele><time>2013-11-17T14:54:38Z</time></trkpt>
<trkpt lat="54.2962980000" lon="-2.1709990000"><ele>332</ele><time>2013-11-17T14:54:39Z</time></trkpt>
<trkpt lat="54.2963050000" lon="-2.1710120000"><ele>332</ele><time>2013-11-17T14:54:40Z</time></trkpt>
<trkpt lat="54.2963130000" lon="-2.1710270000"><ele>332</ele><time>2013-11-17T14:54:41Z</time></trkpt>
<trkpt lat="54.2963210000" lon="-2.1710410000"><ele>332</ele><time>2013-11-17T14:54:42Z</time></trkpt>
<trkpt lat="54.2963280000" lon="-2.1710550000"><ele>332</ele><time>2013-11-17T14:54:43Z</time></trkpt>
<trkpt lat="54.2963360000" lon="-2.1710670000"><ele>332</ele><time>2013-11-17T14:54:44Z</time></trkpt>
<trkpt lat="54.2963440000" lon="-2.1710820000"><ele>332</ele><time>2013-11-17T14:54:45Z</time></trkpt>
<trkpt lat="54.2963530000" lon="-2.1710940000"><ele>332</ele><time>2013-11-17T14:54:46Z</time></trkpt>
<trkpt lat="54.2963640000" lon="-2.1711030000"><ele>332</ele><time>2013-11-17T14:54:47Z</time></trkpt>
<trkpt lat="54.2963750000" lon="-2.1711100000"><ele>332</ele></trkpt>
<trkpt lat="54.2963860000" lon="-2.1711170000"><ele>332</ele><time>2013-11-17T14:54:49Z</time></trkpt>
<trkpt lat="54.2963990000" lon="-2.1711230000"><ele>332</ele><time>2013-11-17T14:54:50Z</time></trkpt>
<trkpt lat="54.2964100000" lon="-2.1711270000"><ele>332</ele><time>2013-11-17T14:54:51Z</time></trkpt>
<trkpt lat="54.2964230000" lon="-2.1711300000"><ele>332</ele><time>2013-11-17T14:54:52Z</time></trkpt>
<trkpt lat="54.2964330000" lon="-2.1711320000"><ele>332</ele><time>2013-11-17T14:54:53Z</time></trkpt>
<trkpt lat="54.2964440000" lon="-2.1711340000"><ele>332</ele></trkpt>
<trkpt lat="54.2964550000" lon="-2.1711350000"><ele>332</ele><time>2013-11-17T14:54:55Z</time></trkpt>
<trkpt lat="54.2964670000" lon="-2.1711330000"><ele>332</ele><time>2013-11-17T14:54:56Z</time></trkpt>
<trkpt lat="54.2964790000" lon="-2.1711280000"><ele>332</ele><time>2013-11-17T14:54:57Z</time></trkpt>
<trkpt lat="54.2964910000" lon="-2.1711200000"><ele>332</ele><time>2013-11-17T14:54:58Z</time></trkpt>
<trkpt lat="54.2965020000" lon="-2.1711130000"><ele>302</ele><time>2013-11-17T14:54:59Z</time></trkpt>
<trkpt lat="54.2965150000" lon="-2.1711050000"><ele>302</ele></trkpt>
<trkpt lat="54.2965260000" lon="-2.1710960000"><ele>302</ele><time>2013-11-17T14:55:01Z</time></trkpt>
<trkpt lat="54.2965360000" lon="-2.1710860000"><ele>302</ele><time>2013-11-17T14:55:02Z</time></trkpt>
<trkpt lat="54.2965450000" lon="-2.1710740000"><ele>302</ele><time>2013-11-17T14:55:03Z</time></trkpt>
<trkpt lat="54.2965540000" lon="-2.1710620000"><ele>302</ele><time>2013-11-17T14:55:04Z</time></trkpt>
<trkpt lat="54.2965640000" lon="-2.1710480000"><ele>302</ele><time>2013-11-17T14:55:05Z</time></trkpt>
<trkpt lat="54.2965700000" lon="-2.1710340000"><ele>302</ele></trkpt>
<trkpt lat="54.2965760000" lon="-2.1710190000"><ele>302</ele><time>2013-11-17T14:55:07Z</time></trkpt>
<trkpt lat="54.2965830000" lon="-2.1710040000"><ele>302</ele><time>2013-11-17T14:55:08Z</time></trkpt>
<trkpt lat="54.2965880000" lon="-2.1709860000"><ele>302</ele><time>2013-11-17T14:55:09Z</time></trkpt>
<trkpt lat="54.2965940000" lon="-2.1709680000"><ele>302</ele><time>2013-11-17T14:55:10Z</time></trkpt>
<trkpt lat="54.2965990000" lon="-2.1709490000"><ele>302</ele><time>2013-11-17T14:55:11Z</time></trkpt>
<trkpt lat="54.2966020000" lon="-2.1709290000"><ele>302</ele><time>2013-11-17T14:55:12Z</time></trkpt>
<trkpt lat="54.2966050000" lon="-2.1709100000"><ele>302</ele><time>2013-11-17T14:55:13Z</time></trkpt>
<trkpt lat="54.2966090000" lon="-2.1708900000"><ele>302</ele><time>2013-11-17T14:55:14Z</time></trkpt>
<trkpt lat="54.2966130000" lon="-2.1708700000"><ele>302</ele><time>2013-11-17T14:55:15Z</time></trkpt>
<trkpt lat="54.2966170000" lon="-2.1708510000"><ele>302</ele><time>2013-11-17T14:55:16Z</time></trkpt>
<trkpt lat="54.2966190000" lon="-2.1708310000"><ele>302</ele><time>2013-11-17T14:55:17Z</time></trkpt>
<trkpt lat="54.2966210000" lon="-2.1708120000"><ele>302</ele><time>2013-11-17T14:55:18Z</time></trkpt>
<trkpt lat="54.2966240000" lon="-2.1707920000"><ele>302</ele></trkpt>
<trkpt lat="54.2966260000" lon="-2.1707710000"><ele>302</ele><time>2013-11-17T14:55:20Z</time></trkpt>
<trkpt lat="54.2966290000" lon="-2.1707510000"><ele>302</ele><time>2013-11-17T14:55:21Z</time></trkpt>
<trkpt lat="54.2966320000" lon="-2.1707320000"><ele>302</ele><time>2013-11-17T14:55:22Z</time></trkpt>
<trkpt lat="54.2966340000" lon="-2.1707150000"><ele>302</ele><time>2013-11-17T14:55:23Z</time></trkpt>
<trkpt lat="54.2966380000" lon="-2.1706960000"><ele>302</ele><time>2013-11-17T14:55:24Z</time></trkpt>
<trkpt lat="54.2966400000" lon="-2.1706780000"><ele>302</ele></trkpt>
<trkpt lat="54.2966410000" lon="-2.1706580000"><ele>302</ele><time>2013-11-17T14:55:26Z</time></trkpt>
<trkpt lat="54.2966410000" lon="-2.1706400000"><ele>302</ele><time>2013-11-17T14:55:27Z</time></trkpt>
<trkpt lat="54.2966430000" lon="-2.1706220000"><ele>302</ele><time>2013-11-17T14:55:28Z</time></trkpt>
<trkpt lat="54.2966450000" lon="-2.1706050000"><ele>302</ele><time>2013-11-17T14:55:29Z</time></trkpt>
<trkpt lat="54.2966460000" lon="-2.1705860000"><ele>302</ele><time>2013-11-17T14:55:30Z</time></trkpt>
<trkpt lat="54.2966470000" lon="-2.1705630000"><ele>302</ele></trkpt>
<trkpt lat="54.2966460000" lon="-2.1705420000"><ele>302</ele><time>2013-11-17T14:55:32Z</time></trkpt>
<trkpt lat="54.2966450000" lon="-2.1705210000"><ele>304</ele><time>2013-11-17T14:55:33Z</time></trkpt>
<trkpt lat="54.2966450000" lon="-2.1705010000"><ele>304</ele><time>2013-11-17T14:55:34Z</time></trkpt>
<trkpt lat="54.2966470000" lon="-2.1704810000"><ele>304</ele><time>2013-11-17T14:55:35Z</time></trkpt>
<trkpt lat="54.2966490000" lon="-2.1704600000"><ele>304</ele><time>2013-11-17T14:55:36Z</time></trkpt>
<trkpt lat="54.2966510000" lon="-2.1704400000"><ele>304</ele></trkpt>
<trkpt lat="54.2966530000" lon="-2.1704230000"><ele>304</ele><time>2013-11-17T14:55:38Z</time></trkpt>
<trkpt lat="54.2966540000" lon="-2.1704070000"><ele>304</ele><time>2013-11-17T14:55:39Z</time></trkpt>
<trkpt lat="54.2966550000" lon="-2.1703910000"><ele>304</ele><time>2013-11-17T14:55:40Z</time></trkpt>
<trkpt lat="54.2966570000" lon="-2.1703770000"><ele>304</ele><time>2013-11-17T14:55:41Z</time></trkpt>
<trkpt lat="54.2966570000" lon="-2.1703610000"><ele>304</ele><time>2013-11-17T14:55:42Z</time></trkpt>
<trkpt lat="54.2966590000" lon="-2.1703450000"><ele>304</ele></trkpt>
<trkpt lat="54.2966620000" lon="-2.1703300000"><ele>304</ele><time>2013-11-17T14:55:44Z</time></trkpt>
<trkpt lat="54.2966640000" lon="-2.1703160000"><ele>304</ele><time>2013-11-17T14:55:45Z</time></trkpt>
<trkpt lat="54.2966670000" lon="-2.1703010000"><ele>304</ele><time>2013-11-17T14:55:46Z</time></trkpt>
<trkpt lat="54.2966700000" lon="-2.1702840000"><ele>304</ele><time>2013-11-17T14:55:47Z</time></trkpt>
<trkpt lat="54.2966710000" lon="-2.1702680000"><ele>304</ele><time>2013-11-17T14:55:48Z</time></trkpt>
<trkpt lat="54.2966730000" lon="-2.1702530000"><ele>304</ele><time>2013-11-17T14:55:49Z</time></trkpt>
<trkpt lat="54.2966770000" lon="-2.1702390000"><ele>304</ele></trkpt>
<trkpt lat="54.2966790000" lon="-2.1702250000"><ele>304</ele><time>2013-11-17T14:55:51Z</time></trkpt>
<trkpt lat="54.2966810000" lon="-2.1702100000"><ele>304</ele><time>2013-11-17T14:55:52Z</time></trkpt>
<trkpt lat="54.2966810000" lon="-2.1701950000"><ele>304</ele><time>2013-11-17T14:55:53Z</time></trkpt>
<trkpt lat="54.2966810000" lon="-2.1701800000"><ele>304</ele><time>2013-11-17T14:55:54Z</time></trkpt>
<trkpt lat="54.2966830000" lon="-2.1701650000"><ele>304</ele><time>2013-11-17T14:55:55Z</time></trkpt>
<trkpt lat="54.2966860000" lon="-2.1701510000"><ele>304</ele></trkpt>
<trkpt lat="54.2966880000" lon="-2.1701330000"><ele>304</ele><time>2013-11-17T14:55:57Z</time></trkpt>
<trkpt lat="54.2966920000" lon="-2.1701140000"><ele>304</ele><time>2013-11-17T14:55:58Z</time></trkpt>
<trkpt lat="54.2966960000" lon="-2.1700960000"><ele>304</ele><time>2013-11-17T14:56:00Z</time></trkpt>
<trkpt lat="54.2967050000" lon="-2.1700580000"><ele>304</ele><time>2013-11-17T14:56:01Z</time></trkpt>
<trkpt lat="54.2967140000" lon="-2.1700090000"><ele>304</ele><time>2013-11-17T14:56:05Z</time></trkpt>
<trkpt lat="54.2967190000" lon="-2.1699750000"><ele>304</ele><time>2013-11-17T14:56:07Z</time></trkpt>
<trkpt lat="54.2967250000" lon="-2.1699420000"><ele>304</ele><time>2013-11-17T14:56:09Z</time></trkpt>
<trkpt lat="54.2967350000" lon="-2.1699060000"><ele>304</ele><time>2013-11-17T14:56:11Z</time></trkpt>
<trkpt lat="54.2967480000" lon="-2.1698730000"><ele>304</ele><time>2013-11-17T14:56:13Z</time></trkpt>
<trkpt lat="54.2967610000" lon="-2.1698400000"><ele>304</ele><time>2013-11-17T14:56:16Z</time></trkpt>
<trkpt lat="54.2967690000" lon="-2.1698200000"><ele>304</ele><time>2013-11-17T14:56:17Z</time></trkpt>
<trkpt lat="54.2967770000" lon="-2.1698110000"><ele>304</ele><time>2013-11-17T14:56:18Z</time></trkpt>
<trkpt lat="54.2967860000" lon="-2.1698020000"><ele>304</ele><time>2013-11-17T14:56:19Z</time></trkpt>
<trkpt lat="54.2967940000" lon="-2.1697920000"><ele>304</ele><time>2013-11-17T14:56:20Z</time></trkpt>
<trkpt lat="54.2968030000" lon="-2.1697830000"><ele>304</ele></trkpt>
<trkpt lat="54.2968120000" lon="-2.1697750000"><ele>304</ele><time>2013-11-17T14:56:22Z</time></trkpt>
<trkpt lat="54.2968220000" lon="-2.1697660000"><ele>304</ele><time>2013-11-17T14:56:23Z</time></trkpt>
<trkpt lat="54.2968340000" lon="-2.1697580000"><ele>304</ele><time>2013-11-17T14:56:24Z</time></trkpt>
<trkpt lat="54.2968440000" lon="-2.1697520000"><ele>304</ele><time>2013-11-17T14:56:25Z</time></trkpt>
<trkpt lat="54.2968540000" lon="-2.1697490000"><ele>304</ele><time>2013-11-17T14:56:26Z</time></trkpt>
<trkpt lat="54.2968640000" lon="-2.1697480000"><ele>304</ele></trkpt>
<trkpt lat="54.2968740000" lon="-2.1697470000"><ele>304</ele><time>2013-11-17T14:56:28Z</time></trkpt>
<trkpt lat="54.2968840000" lon="-2.1697480000"><ele>304</ele><time>2013-11-17T14:56:29Z</time></trkpt>
<trkpt lat="54.2968930000" lon="-2.1697510000"><ele>304</ele><time>2013-11-17T14:56:30Z</time></trkpt>
<trkpt lat="54.2969040000" lon="-2.1697530000"><ele>304</ele><time>2013-11-17T14:56:31Z</time></trkpt>
<trkpt lat="54.2969140000" lon="-2.1697570000"><ele>304</ele><time>2013-11-17T14:56:32Z</time></trkpt>
<trkpt lat="54.2969220000" lon="-2.1697640000"><ele>304</ele></trkpt>
<trkpt lat="54.2969310000" lon="-2.1697720000"><ele>304</ele><time>2013-11-17T14:56:34Z</time></trkpt>
<trkpt lat="54.2969400000" lon="-2.1697800000"><ele>304</ele><time>2013-11-17T14:56:35Z</time></trkpt>
<trkpt lat="54.2969500000" lon="-2.1697860000"><ele>304</ele><time>2013-11-17T14:56:36Z</time></trkpt>
<trkpt lat="54.2969600000" lon="-2.1697920000"><ele>304</ele><time>2013-11-17T14:56:37Z</time></trkpt>
<trkpt lat="54.2969710000" lon="-2.1697980000"><ele>304</ele><time>2013-11-17T14:56:38Z</time></trkpt>
<trkpt lat="54.2969830000" lon="-2.1698010000"><ele>304</ele></trkpt>
<trkpt lat="54.2969940000" lon="-2.1698020000"><ele>304</ele><time>2013-11-17T14:56:40Z</time></trkpt>
<trkpt lat="54.2970040000" lon="-2.1698030000"><ele>304</ele><time>2013-11-17T14:56:41Z</time></trkpt>
<trkpt lat="54.2970130000" lon="-2.1698050000"><ele>304</ele><time>2013-11-17T14:56:42Z</time></trkpt>
<trkpt lat="54.2970210000" lon="-2.1698090000"><ele>304</ele><time>2013-11-17T14:56:43Z</time></trkpt>
<trkpt lat="54.2970300000" lon="-2.1698140000"><ele>304</ele><time>2013-11-17T14:56:44Z</time></trkpt>
<trkpt lat="54.2970400000" lon="-2.1698170000"><ele>304</ele></trkpt>
<trkpt lat="54.2970490000" lon="-2.1698200000"><ele>304</ele><time>2013-11-17T14:56:45Z</time></trkpt>
<trkpt lat="54.2970580000" lon="-2.1698230000"><ele>304</ele><time>2013-11-17T14:56:47Z</time></trkpt>
<trkpt lat="54.2970690000" lon="-2.1698250000"><ele>304</ele><time>2013-11-17T14:56:48Z</time></trkpt>
<trkpt lat="54.2970770000" lon="-2.1698280000"><ele>304</ele><time>2013-11-17T14:56:49Z</time></trkpt>
<trkpt lat="54.2970860000" lon="-2.1698290000"><ele>304</ele><time>2013-11-17T14:56:50Z</time></trkpt>
<trkpt lat="54.2970940000" lon="-2.1698320000"><ele>304</ele><time>2013-11-17T14:56:51Z</time></trkpt>
<trkpt lat="54.2971040000" lon="-2.1698340000"><ele>304</ele></trkpt>
<trkpt lat="54.2971150000" lon="-2.1698370000"><ele>304</ele><time>2013-11-17T14:56:52Z</time></trkpt>
<trkpt lat="54.2971270000" lon="-2.1698410000"><ele>304</ele><time>2013-11-17T14:56:54Z</time></trkpt>
<trkpt lat="54.2971390000" lon="-2.1698450000"><ele>304</ele><time>2013-11-17T14:56:55Z</time></trkpt>
<trkpt lat="54.2971510000" lon="-2.1698480000"><ele>304</ele><time>2013-11-17T14:56:56Z</time></trkpt>
<trkpt lat="54.2971620000" lon="-2.1698470000"><ele>304</ele><time>2013-11-17T14:56:57Z</time></trkpt>
<trkpt lat="54.2971700000" lon="-2.1698440000"><ele>304</ele><time>2013-11-17T14:56:58Z</time></trkpt>
<trkpt lat="54.2971800000" lon="-2.1698410000"><ele>304</ele></trkpt>
<trkpt lat="54.2971870000" lon="-2.1698380000"><ele>304</ele><time>2013-11-17T14:57:00Z</time></trkpt>
<trkpt lat="54.2971940000" lon="-2.1698360000"><ele>304</ele><time>2013-11-17T14:57:01Z</time></trkpt>
<trkpt lat="54.2971970000" lon="-2.1698340000"><ele>304</ele><time>2013-11-17T14:57:02Z</time></trkpt>
<trkpt lat="54.2972020000" lon="-2.1698330000"><ele>304</ele><time>2013-11-17T14:57:03Z</time></trkpt>
<trkpt lat="54.2972070000" lon="-2.1698320000"><ele>304</ele></trkpt>
<trkpt lat="54.2972140000" lon="-2.1698290000"><ele>304</ele><time>2013-11-17T14:57:05Z</time></trkpt>
<trkpt lat="54.2972230000" lon="-2.1698210000"><ele>304</ele><time>2013-11-17T14:57:06Z</time></trkpt>
<trkpt lat="54.2972310000" lon="-2.1698140000"><ele>304</ele><time>2013-11-17T14:57:07Z</time></trkpt>
<trkpt lat="54.2972350000" lon="-2.1698110000"><ele>304</ele><time>2013-11-17T14:57:08Z</time></trkpt>
<trkpt lat="54.2972390000" lon="-2.1698120000"><ele>304</ele><time>2013-11-17T14:57:09Z</time></trkpt>
<trkpt lat="54.2972470000" lon="-2.1698120000"><ele>304</ele></trkpt>
<trkpt lat="54.2972570000" lon="-2.1698110000"><ele>304</ele><time>2013-11-17T14:57:10Z</time></trkpt>
<trkpt lat="54.2972690000" lon="-2.1698070000"><ele>304</ele><time>2013-11-17T14:57:12Z</time></trkpt>
<trkpt lat="54.2972820000" lon="-2.1698000000"><ele>304</ele><time>2013-11-17T14:57:13Z</time></trkpt>
<trkpt lat="54.2972920000" lon="-2.1697940000"><ele>304</ele><time>2013-11-17T14:57:14Z</time></trkpt>
<trkpt lat="54.2973040000" lon="-2.1697880000"><ele>304</ele><time>2013-11-17T14:57:15Z</time></trkpt>
<trkpt lat="54.2973170000" lon="-2.1697830000"><ele>304</ele></trkpt>
<trkpt lat="54.2973280000" lon="-2.1697790000"><ele>304</ele><time>2013-11-17T14:57:16Z</time></trkpt>
<trkpt lat="54.2973420000" lon="-2.1697750000"><ele>304</ele><time>2013-11-17T14:57:18Z</time></trkpt>
<trkpt lat="54.2973540000" lon="-2.1697720000"><ele>304</ele><time>2013-11-17T14:57:19Z</time></trkpt>
<trkpt lat="54.2973650000" lon="-2.1697680000"><ele>304</ele><time>2013-11-17T14:57:20Z</time></trkpt>
<trkpt lat="54.2973750000" lon="-2.1697620000"><ele>304</ele><time>2013-11-17T14:57:21Z</time></trkpt>
<trkpt lat="54.2973860000" lon="-2.1697540000"><ele>304</ele></trkpt>
<trkpt lat="54.2973970000" lon="-2.1697470000"><ele>304</ele><time>2013-11-17T14:57:22Z</time></trkpt>
<trkpt lat="54.2974110000" lon="-2.1697390000"><ele>304</ele><time>2013-11-17T14:57:23Z</time></trkpt>
<trkpt lat="54.2974220000" lon="-2.1697330000"><ele>304</ele><time>2013-11-17T14:57:25Z</time></trkpt>
<trkpt lat="54.2974340000" lon="-2.1697290000"><ele>304</ele><time>2013-11-17T14:57:26Z</time></trkpt>
<trkpt lat="54.2974470000" lon="-2.1697290000"><ele>304</ele><time>2013-11-17T14:57:27Z</time></trkpt>
<trkpt lat="54.2974610000" lon="-2.1697300000"><ele>304</ele><time>2013-11-17T14:57:28Z</time></trkpt>
<trkpt lat="54.2974750000" lon="-2.1697300000"><ele>304</ele><time>2013-11-17T14:57:29Z</time></trkpt>
<trkpt lat="54.2974880000" lon="-2.1697300000"><ele>304</ele></trkpt>
<trkpt lat="54.2975010000" lon="-2.1697320000"><ele>304</ele><time>2013-11-17T14:57:31Z</time></trkpt>
<trkpt lat="54.2975140000" lon="-2.1697350000"><ele>304</ele><time>2013-11-17T14:57:32Z</time></trkpt>
<trkpt lat="54.2975270000" lon="-2.1697370000"><ele>304</ele><time>2013-11-17T14:57:33Z</time></trkpt>
<trkpt lat="54.2975390000" lon="-2.1697390000"><ele>304</ele><time>2013-11-17T14:57:34Z</time></trkpt>
<trkpt lat="54.2975520000" lon="-2.1697430000"><ele>304</ele></trkpt>
<trkpt lat="54.2975650000" lon="-2.1697430000"><ele>304</ele><time>2013-11-17T14:57:35Z</time></trkpt>
<trkpt lat="54.2975760000" lon="-2.1697430000"><ele>304</ele><time>2013-11-17T14:57:37Z</time></trkpt>
<trkpt lat="54.2975880000" lon="-2.1697430000"><ele>304</ele><time>2013-11-17T14:57:38Z</time></trkpt>
<trkpt lat="54.2976000000" lon="-2.1697430000"><ele>304</ele><time>2013-11-17T14:57:39Z</time></trkpt>
<trkpt lat="54.2976120000" lon="-2.1697450000"><ele>304</ele><time>2013-11-17T14:57:40Z</time></trkpt>
<trkpt lat="54.2976230000" lon="-2.1697440000"><ele>304</ele></trkpt>
<trkpt lat="54.2976350000" lon="-2.1697440000"><ele>304</ele><time>2013-11-17T14:57:41Z</time></trkpt>
<trkpt lat="54.2976490000" lon="-2.1697460000"><ele>304</ele><time>2013-11-17T14:57:43Z</time></trkpt>
<trkpt lat="54.2976620000" lon="-2.1697490000"><ele>304</ele><time>2013-11-17T14:57:44Z</time></trkpt>
<trkpt lat="54.2976760000" lon="-2.1697520000"><ele>304</ele><time>2013-11-17T14:57:45Z</time></trkpt>
<trkpt lat="54.2976890000" lon="-2.1697560000"><ele>304</ele><time>2013-11-17T14:57:46Z</time></trkpt>
<trkpt lat="54.2977010000" lon="-2.1697580000"><ele>304</ele></trkpt>
<trkpt lat="54.2977140000" lon="-2.1697630000"><ele>304</ele><time>2013-11-17T14:57:47Z</time></trkpt>
<trkpt lat="54.2977270000" lon="-2.1697660000"><ele>304</ele><time>2013-11-17T14:57:49Z</time></trkpt>
<trkpt lat="54.2977380000" lon="-2.1697680000"><ele>304</ele><time>2013-11-17T14:57:51Z</time></trkpt>
<trkpt lat="54.2977650000" lon="-2.1697800000"><ele>304</ele><time>2013-11-17T14:57:52Z</time></trkpt>
<trkpt lat="54.2977920000" lon="-2.1697930000"><ele>304</ele><time>2013-11-17T14:57:54Z</time></trkpt>
<trkpt lat="54.2978160000" lon="-2.1698080000"><ele>304</ele><time>2013-11-17T14:57:57Z</time></trkpt>
<trkpt lat="54.2978370000" lon="-2.1698250000"><ele>304</ele><time>2013-11-17T14:57:59Z</time></trkpt>
<trkpt lat="54.2978570000" lon="-2.1698480000"><ele>304</ele><time>2013-11-17T14:58:01Z</time></trkpt>
<trkpt lat="54.2978730000" lon="-2.1698690000"><ele>304</ele><time>2013-11-17T14:58:02Z</time></trkpt>
<trkpt lat="54.2978830000" lon="-2.1698800000"><ele>304</ele><time>2013-11-17T14:58:03Z</time></trkpt>
<trkpt lat="54.2978930000" lon="-2.1698910000"><ele>304</ele><time>2013-11-17T14:58:04Z</time></trkpt>
<trkpt lat="54.2979050000" lon="-2.1698990000"><ele>304</ele><time>2013-11-17T14:58:05Z</time></trkpt>
<trkpt lat="54.2979150000" lon="-2.1699070000"><ele>304</ele><time>2013-11-17T14:58:06Z</time></trkpt>
<trkpt lat="54.2979270000" lon="-2.1699160000"><ele>304</ele></trkpt>
<trkpt lat="54.2979470000" lon="-2.1699290000"><ele>304</ele><time>2013-11-17T14:58:09Z</time></trkpt>
<trkpt lat="54.2979650000" lon="-2.1699430000"><ele>304</ele><time>2013-11-17T14:58:11Z</time></trkpt>
<trkpt lat="54.2979830000" lon="-2.1699650000"><ele>304</ele><time>2013-11-17T14:58:13Z</time></trkpt>
<trkpt lat="54.2980080000" lon="-2.1699900000"><ele>304</ele><time>2013-11-17T14:58:15Z</time></trkpt>
<trkpt lat="54.2980310000" lon="-2.1700020000"><ele>304</ele><time>2013-11-17T14:58:17Z</time></trkpt>
<trkpt lat="54.2980510000" lon="-2.1700030000"><ele>304</ele><time>2013-11-17T14:58:19Z</time></trkpt>
<trkpt lat="54.2980730000" lon="-2.1700030000"><ele>304</ele><time>2013-11-17T14:58:21Z</time></trkpt>
<trkpt lat="54.2980930000" lon="-2.1700000000"><ele>304</ele><time>2013-11-17T14:58:23Z</time></trkpt>
<trkpt lat="54.2981150000" lon="-2.1699890000"><ele>304</ele><time>2013-11-17T14:58:24Z</time></trkpt>
<trkpt lat="54.2981330000" lon="-2.1699670000"><ele>304</ele><time>2013-11-17T14:58:27Z</time></trkpt>
<trkpt lat="54.2981530000" lon="-2.1699500000"><ele>304</ele><time>2013-11-17T14:58:29Z</time></trkpt>
<trkpt lat="54.2981740000" lon="-2.1699360000"><ele>304</ele><time>2013-11-17T14:58:31Z</time></trkpt>
<trkpt lat="54.2982010000" lon="-2.1699190000"><ele>304</ele><time>2013-11-17T14:58:33Z</time></trkpt>
<trkpt lat="54.2982240000" lon="-2.1698920000"><ele>304</ele><time>2013-11-17T14:58:35Z</time></trkpt>
<trkpt lat="54.2982440000" lon="-2.1698470000"><ele>304</ele><time>2013-11-17T14:58:39Z</time></trkpt>
<trkpt lat="54.2982660000" lon="-2.1698230000"><ele>304</ele><time>2013-11-17T14:58:41Z</time></trkpt>
<trkpt lat="54.2982920000" lon="-2.1698000000"><ele>288</ele><time>2013-11-17T14:58:42Z</time></trkpt>
<trkpt lat="54.2983160000" lon="-2.1697830000"><ele>288</ele><time>2013-11-17T14:58:44Z</time></trkpt>
<trkpt lat="54.2983500000" lon="-2.1697640000"><ele>288</ele><time>2013-11-17T14:58:48Z</time></trkpt>
<trkpt lat="54.2983910000" lon="-2.1697500000"><ele>288</ele><time>2013-11-17T14:58:50Z</time></trkpt>
<trkpt lat="54.2984280000" lon="-2.1697250000"><ele>288</ele><time>2013-11-17T14:58:54Z</time></trkpt>
<trkpt lat="54.2984510000" lon="-2.1696810000"><ele>288</ele><time>2013-11-17T14:58:56Z</time></trkpt>
<trkpt lat="54.2984770000" lon="-2.1696250000"><ele>288</ele><time>2013-11-17T14:59:00Z</time></trkpt>
<trkpt lat="54.2985050000" lon="-2.1695730000"><ele>288</ele><time>2013-11-17T14:59:02Z</time></trkpt>
<trkpt lat="54.2985260000" lon="-2.1695420000"><ele>288</ele><time>2013-11-17T14:59:05Z</time></trkpt>
<trkpt lat="54.2985480000" lon="-2.1695190000"><ele>288</ele><time>2013-11-17T14:59:07Z</time></trkpt>
<trkpt lat="54.2985770000" lon="-2.1694880000"><ele>288</ele><time>2013-11-17T14:59:09Z</time></trkpt>
<trkpt lat="54.2986020000" lon="-2.1694710000"><ele>288</ele><time>2013-11-17T14:59:12Z</time></trkpt>
<trkpt lat="54.2986300000" lon="-2.1694580000"><ele>288</ele><time>2013-11-17T14:59:14Z</time></trkpt>
<trkpt lat="54.2986600000" lon="-2.1694530000"><ele>288</ele><time>2013-11-17T14:59:16Z</time></trkpt>
<trkpt lat="54.2986850000" lon="-2.1694560000"><ele>288</ele><time>2013-11-17T14:59:18Z</time></trkpt>
<trkpt lat="54.2987130000" lon="-2.1694630000"><ele>288</ele><time>2013-11-17T14:59:20Z</time></trkpt>
<trkpt lat="54.2987380000" lon="-2.1694740000"><ele>288</ele><time>2013-11-17T14:59:21Z</time></trkpt>
<trkpt lat="54.2987590000" lon="-2.1694790000"><ele>288</ele><time>2013-11-17T14:59:24Z</time></trkpt>
<trkpt lat="54.2987850000" lon="-2.1694880000"><ele>288</ele><time>2013-11-17T14:59:26Z</time></trkpt>
<trkpt lat="54.2988150000" lon="-2.1695020000"><ele>288</ele><time>2013-11-17T14:59:29Z</time></trkpt>
<trkpt lat="54.2988340000" lon="-2.1695200000"><ele>288</ele><time>2013-11-17T14:59:31Z</time></trkpt>
<trkpt lat="54.2988580000" lon="-2.1695350000"><ele>288</ele><time>2013-11-17T14:59:33Z</time></trkpt>
<trkpt lat="54.2988880000" lon="-2.1695470000"><ele>288</ele><time>2013-11-17T14:59:34Z</time></trkpt>
<trkpt lat="54.2989160000" lon="-2.1695540000"><ele>288</ele><time>2013-11-17T14:59:37Z</time></trkpt>
<trkpt lat="54.2989420000" lon="-2.1695590000"><ele>288</ele><time>2013-11-17T14:59:39Z</time></trkpt>
<trkpt lat="54.2989610000" lon="-2.1695660000"><ele>288</ele><time>2013-11-17T14:59:40Z</time></trkpt>
<trkpt lat="54.2989830000" lon="-2.1695750000"><ele>288</ele><time>2013-11-17T14:59:43Z</time></trkpt>
<trkpt lat="54.2990050000" lon="-2.1695870000"><ele>288</ele><time>2013-11-17T14:59:45Z</time></trkpt>
<trkpt lat="54.2990280000" lon="-2.1696080000"><ele>288</ele><time>2013-11-17T14:59:46Z</time></trkpt>
<trkpt lat="54.2990500000" lon="-2.1696270000"><ele>288</ele><time>2013-11-17T14:59:49Z</time></trkpt>
<trkpt lat="54.2990850000" lon="-2.1696420000"><ele>288</ele><time>2013-11-17T14:59:52Z</time></trkpt>
<trkpt lat="54.2991140000" lon="-2.1696480000"><ele>288</ele><time>2013-11-17T14:59:53Z</time></trkpt>
<trkpt lat="54.2991400000" lon="-2.1696560000"><ele>288</ele><time>2013-11-17T14:59:56Z</time></trkpt>
<trkpt lat="54.2991770000" lon="-2.1696760000"><ele>288</ele><time>2013-11-17T14:59:59Z</time></trkpt>
<trkpt lat="54.2992190000" lon="-2.1696740000"><ele>288</ele><time>2013-11-17T15:00:02Z</time></trkpt>
<trkpt lat="54.2992450000" lon="-2.1696680000"><ele>288</ele><time>2013-11-17T15:00:04Z</time></trkpt>
<trkpt lat="54.2992790000" lon="-2.1696690000"><ele>288</ele><time>2013-11-17T15:00:07Z</time></trkpt>
<trkpt lat="54.2993050000" lon="-2.1696790000"><ele>288</ele><time>2013-11-17T15:00:09Z</time></trkpt>
<trkpt lat="54.2993350000" lon="-2.1696880000"><ele>288</ele><time>2013-11-17T15:00:11Z</time></trkpt>
<trkpt lat="54.2993680000" lon="-2.1696870000"><ele>288</ele><time>2013-11-17T15:00:15Z</time></trkpt>
<trkpt lat="54.2993990000" lon="-2.1696970000"><ele>288</ele><time>2013-11-17T15:00:17Z</time></trkpt>
<trkpt lat="54.2994300000" lon="-2.1697130000"><ele>288</ele><time>2013-11-17T15:00:21Z</time></trkpt>
<trkpt lat="54.2994620000" lon="-2.1697360000"><ele>288</ele><time>2013-11-17T15:00:24Z</time></trkpt>
<trkpt lat="54.2994950000" lon="-2.1697580000"><ele>288</ele><time>2013-11-17T15:00:28Z</time></trkpt>
<trkpt lat="54.2995280000" lon="-2.1697520000"><ele>288</ele><time>2013-11-17T15:00:29Z</time></trkpt>
<trkpt lat="54.2995610000" lon="-2.1697430000"><ele>288</ele><time>2013-11-17T15:00:32Z</time></trkpt>
<trkpt lat="54.2995950000" lon="-2.1697410000"><ele>288</ele><time>2013-11-17T15:00:34Z</time></trkpt>
<trkpt lat="54.2996190000" lon="-2.1697460000"><ele>288</ele><time>2013-11-17T15:00:35Z</time></trkpt>
<trkpt lat="54.2996430000" lon="-2.1697530000"><ele>288</ele><time>2013-11-17T15:00:38Z</time></trkpt>
<trkpt lat="54.2996760000" lon="-2.1697600000"><ele>288</ele><time>2013-11-17T15:00:41Z</time></trkpt>
<trkpt lat="54.2997080000" lon="-2.1697700000"><ele>288</ele><time>2013-11-17T15:00:43Z</time></trkpt>
<trkpt lat="54.2997330000" lon="-2.1698020000"><ele>288</ele><time>2013-11-17T15:00:47Z</time></trkpt>
<trkpt lat="54.2997490000" lon="-2.1698490000"><ele>288</ele><time>2013-11-17T15:00:49Z</time></trkpt>
<trkpt lat="54.2997540000" lon="-2.1699010000"><ele>288</ele><time>2013-11-17T15:00:53Z</time></trkpt>
<trkpt lat="54.2997660000" lon="-2.1699450000"><ele>288</ele><time>2013-11-17T15:00:56Z</time></trkpt>
<trkpt lat="54.2997790000" lon="-2.1699820000"><ele>288</ele><time>2013-11-17T15:00:59Z</time></trkpt>
<trkpt lat="54.2998080000" lon="-2.1700110000"><ele>288</ele><time>2013-11-17T15:01:01Z</time></trkpt>
<trkpt lat="54.2998300000" lon="-2.1700270000"><ele>288</ele><time>2013-11-17T15:01:04Z</time></trkpt>
<trkpt lat="54.2998550000" lon="-2.1700440000"><ele>288</ele><time>2013-11-17T15:01:06Z</time></trkpt>
<trkpt lat="54.2998790000" lon="-2.1700620000"><ele>288</ele><time>2013-11-17T15:01:07Z</time></trkpt>
<trkpt lat="54.2999050000" lon="-2.1700810000"><ele>288</ele><time>2013-11-17T15:01:10Z</time></trkpt>
<trkpt lat="54.2999310000" lon="-2.1701000000"><ele>288</ele><time>2013-11-17T15:01:12Z</time></trkpt>
<trkpt lat="54.2999580000" lon="-2.1701210000"><ele>288</ele><time>2013-11-17T15:01:13Z</time></trkpt>
<trkpt lat="54.2999800000" lon="-2.1701410000"><ele>288</ele><time>2013-11-17T15:01:16Z</time></trkpt>
<trkpt lat="54.2999990000" lon="-2.1701590000"><ele>288</ele><time>2013-11-17T15:01:18Z</time></trkpt>
<trkpt lat="54.3000210000" lon="-2.1701890000"><ele>288</ele><time>2013-11-17T15:01:20Z</time></trkpt>
<trkpt lat="54.3000380000" lon="-2.1702100000"><ele>288</ele><time>2013-11-17T15:01:23Z</time></trkpt>
<trkpt lat="54.3000600000" lon="-2.1702310000"><ele>288</ele><time>2013-11-17T15:01:25Z</time></trkpt>
<trkpt lat="54.3000840000" lon="-2.1702500000"><ele>288</ele><time>2013-11-17T15:01:26Z</time></trkpt>
<trkpt lat="54.3001070000" lon="-2.1702720000"><ele>265</ele><time>2013-11-17T15:01:29Z</time></trkpt>
<trkpt lat="54.3001260000" lon="-2.1702940000"><ele>265</ele><time>2013-11-17T15:01:31Z</time></trkpt>
<trkpt lat="54.3001410000" lon="-2.1703200000"><ele>265</ele><time>2013-11-17T15:01:32Z</time></trkpt>
<trkpt lat="54.3001560000" lon="-2.1703400000"><ele>265</ele><time>2013-11-17T15:01:35Z</time></trkpt>
<trkpt lat="54.3001750000" lon="-2.1703590000"><ele>265</ele><time>2013-11-17T15:01:37Z</time></trkpt>
<trkpt lat="54.3001920000" lon="-2.1703780000"><ele>265</ele><time>2013-11-17T15:01:38Z</time></trkpt>
<trkpt lat="54.3002090000" lon="-2.1703960000"><ele>265</ele><time>2013-11-17T15:01:41Z</time></trkpt>
<trkpt lat="54.3002270000" lon="-2.1704130000"><ele>265</ele><time>2013-11-17T15:01:43Z</time></trkpt>
<trkpt lat="54.3002460000" lon="-2.1704300000"><ele>265</ele><time>2013-11-17T15:01:44Z</time></trkpt>
<trkpt lat="54.3002650000" lon="-2.1704460000"><ele>265</ele><time>2013-11-17T15:01:47Z</time></trkpt>
<trkpt lat="54.3002850000" lon="-2.1704620000"><ele>265</ele><time>2013-11-17T15:01:49Z</time></trkpt>
<trkpt lat="54.3003040000" lon="-2.1704720000"><ele>265</ele><time>2013-11-17T15:01:51Z</time></trkpt>
<trkpt lat="54.3003210000" lon="-2.1704830000"><ele>265</ele><time>2013-11-17T15:01:52Z</time></trkpt>
<trkpt lat="54.3003370000" lon="-2.1705000000"><ele>265</ele><time>2013-11-17T15:01:55Z</time></trkpt>
<trkpt lat="54.3003550000" lon="-2.1705200000"><ele>265</ele><time>2013-11-17T15:01:57Z</time></trkpt>
<trkpt lat="54.3003740000" lon="-2.1705370000"><ele>261</ele><time>2013-11-17T15:01:58Z</time></trkpt>
<trkpt lat="54.3003930000" lon="-2.1705540000"><ele>261</ele><time>2013-11-17T15:02:01Z</time></trkpt>
<trkpt lat="54.3004160000" lon="-2.1705690000"><ele>261</ele><time>2013-11-17T15:02:03Z</time></trkpt>
<trkpt lat="54.3004260000" lon="-2.1705750000"><ele>261</ele></trkpt>
<trkpt lat="54.3004360000" lon="-2.1705820000"><ele>261</ele><time>2013-11-17T15:02:04Z</time></trkpt>
<trkpt lat="54.3004450000" lon="-2.1705900000"><ele>261</ele><time>2013-11-17T15:02:06Z</time></trkpt>
<trkpt lat="54.3004540000" lon="-2.1705980000"><ele>261</ele><time>2013-11-17T15:02:07Z</time></trkpt>
<trkpt lat="54.3004610000" lon="-2.1706060000"><ele>261</ele><time>2013-11-17T15:02:08Z</time></trkpt>
<trkpt lat="54.3004710000" lon="-2.1706140000"><ele>261</ele><time>2013-11-17T15:02:09Z</time></trkpt>
<trkpt lat="54.3004810000" lon="-2.1706230000"><ele>261</ele></trkpt>
<trkpt lat="54.3004910000" lon="-2.1706310000"><ele>261</ele><time>2013-11-17T15:02:10Z</time></trkpt>
<trkpt lat="54.3005000000" lon="-2.1706400000"><ele>261</ele><time>2013-11-17T15:02:11Z</time></trkpt>
<trkpt lat="54.3005090000" lon="-2.1706500000"><ele>261</ele><time>2013-11-17T15:02:13Z</time></trkpt>
<trkpt lat="54.3005260000" lon="-2.1706640000"><ele>261</ele><time>2013-11-17T15:02:15Z</time></trkpt>
<trkpt lat="54.3005460000" lon="-2.1706790000"><ele>261</ele><time>2013-11-17T15:02:16Z</time></trkpt>
<trkpt lat="54.3005660000" lon="-2.1706980000"><ele>261</ele><time>2013-11-17T15:02:19Z</time></trkpt>
<trkpt lat="54.3005850000" lon="-2.1707160000"><ele>261</ele><time>2013-11-17T15:02:21Z</time></trkpt>
<trkpt lat="54.3006030000" lon="-2.1707390000"><ele>261</ele><time>2013-11-17T15:02:22Z</time></trkpt>
<trkpt lat="54.3006230000" lon="-2.1707620000"><ele>261</ele><time>2013-11-17T15:02:25Z</time></trkpt>
<trkpt lat="54.3006420000" lon="-2.1707860000"><ele>261</ele><time>2013-11-17T15:02:27Z</time></trkpt>
<trkpt lat="54.3006600000" lon="-2.1708070000"><ele>261</ele><time>2013-11-17T15:02:29Z</time></trkpt>
<trkpt lat="54.3006610000" lon="-2.1708860000"><ele>261</ele><time>2013-11-17T15:02:41Z</time></trkpt>
<trkpt lat="54.3006520000" lon="-2.1709340000"><ele>261</ele><time>2013-11-17T15:02:45Z</time></trkpt>
<trkpt lat="54.3006460000" lon="-2.1709710000"><ele>261</ele><time>2013-11-17T15:02:47Z</time></trkpt>
<trkpt lat="54.3006420000" lon="-2.1710090000"><ele>261</ele><time>2013-11-17T15:02:48Z</time></trkpt>
<trkpt lat="54.3006330000" lon="-2.1710490000"><ele>261</ele><time>2013-11-17T15:02:51Z</time></trkpt>
<trkpt lat="54.3006290000" lon="-2.1710880000"><ele>261</ele><time>2013-11-17T15:02:53Z</time></trkpt>
<trkpt lat="54.3006280000" lon="-2.1711300000"><ele>261</ele><time>2013-11-17T15:02:54Z</time></trkpt>
<trkpt lat="54.3006260000" lon="-2.1711710000"><ele>261</ele><time>2013-11-17T15:02:57Z</time></trkpt>
<trkpt lat="54.3006220000" lon="-2.1712090000"><ele>261</ele><time>2013-11-17T15:02:59Z</time></trkpt>
<trkpt lat="54.3006140000" lon="-2.1712520000"><ele>261</ele><time>2013-11-17T15:03:00Z</time></trkpt>
<trkpt lat="54.3006010000" lon="-2.1713080000"><ele>261</ele><time>2013-11-17T15:03:04Z</time></trkpt>
<trkpt lat="54.3005910000" lon="-2.1713530000"><ele>261</ele><time>2013-11-17T15:03:06Z</time></trkpt>
<trkpt lat="54.3005810000" lon="-2.1713990000"><ele>261</ele><time>2013-11-17T15:03:08Z</time></trkpt>
<trkpt lat="54.3005730000" lon="-2.1714470000"><ele>261</ele><time>2013-11-17T15:03:10Z</time></trkpt>
<trkpt lat="54.3005650000" lon="-2.1714870000"><ele>261</ele><time>2013-11-17T15:03:12Z</time></trkpt>
<trkpt lat="54.3005530000" lon="-2.1715330000"><ele>261</ele><time>2013-11-17T15:03:14Z</time></trkpt>
<trkpt lat="54.3005380000" lon="-2.1715860000"><ele>261</ele><time>2013-11-17T15:03:17Z</time></trkpt>
<trkpt lat="54.3005360000" lon="-2.1716400000"><ele>261</ele><time>2013-11-17T15:03:19Z</time></trkpt>
<trkpt lat="54.3005300000" lon="-2.1716990000"><ele>261</ele><time>2013-11-17T15:03:23Z</time></trkpt>
<trkpt lat="54.3005200000" lon="-2.1717680000"><ele>261</ele><time>2013-11-17T15:03:26Z</time></trkpt>
<trkpt lat="54.3005100000" lon="-2.1718190000"><ele>261</ele><time>2013-11-17T15:03:28Z</time></trkpt>
<trkpt lat="54.3004970000" lon="-2.1718740000"><ele>261</ele><time>2013-11-17T15:03:30Z</time></trkpt>
<trkpt lat="54.3004860000" lon="-2.1719220000"><ele>261</ele><time>2013-11-17T15:03:31Z</time></trkpt>
<trkpt lat="54.3004780000" lon="-2.1719670000"><ele>261</ele><time>2013-11-17T15:03:34Z</time></trkpt>
<trkpt lat="54.3004680000" lon="-2.1720220000"><ele>261</ele><time>2013-11-17T15:03:37Z</time></trkpt>
<trkpt lat="54.3004630000" lon="-2.1720700000"><ele>261</ele><time>2013-11-17T15:03:40Z</time></trkpt>
<trkpt lat="54.3004560000" lon="-2.1721250000"><ele>261</ele><time>2013-11-17T15:03:43Z</time></trkpt>
<trkpt lat="54.3004510000" lon="-2.1721780000"><ele>261</ele><time>2013-11-17T15:03:45Z</time></trkpt>
<trkpt lat="54.3004430000" lon="-2.1722340000"><ele>261</ele><time>2013-11-17T15:03:49Z</time></trkpt>
<trkpt lat="54.3004350000" lon="-2.1722980000"><ele>261</ele><time>2013-11-17T15:03:51Z</time></trkpt>
<trkpt lat="54.3004210000" lon="-2.1723630000"><ele>261</ele><time>2013-11-17T15:03:55Z</time></trkpt>
<trkpt lat="54.3004080000" lon="-2.1724280000"><ele>261</ele><time>2013-11-17T15:03:57Z</time></trkpt>
<trkpt lat="54.3003930000" lon="-2.1724930000"><ele>261</ele><time>2013-11-17T15:04:01Z</time></trkpt>
<trkpt lat="54.3003810000" lon="-2.1725590000"><ele>261</ele><time>2013-11-17T15:04:03Z</time></trkpt>
<trkpt lat="54.3003670000" lon="-2.1726260000"><ele>261</ele><time>2013-11-17T15:04:07Z</time></trkpt>
<trkpt lat="54.3003540000" lon="-2.1726930000"><ele>261</ele><time>2013-11-17T15:04:10Z</time></trkpt>
<trkpt lat="54.3003460000" lon="-2.1727570000"><ele>261</ele><time>2013-11-17T15:04:13Z</time></trkpt>
<trkpt lat="54.3003410000" lon="-2.1728180000"><ele>261</ele><time>2013-11-17T15:04:15Z</time></trkpt>
<trkpt lat="54.3003180000" lon="-2.1729220000"><ele>261</ele><time>2013-11-17T15:04:28Z</time></trkpt>
<trkpt lat="54.3003000000" lon="-2.1729620000"><ele>261</ele><time>2013-11-17T15:04:33Z</time></trkpt>
<trkpt lat="54.3002880000" lon="-2.1730060000"><ele>261</ele><time>2013-11-17T15:04:35Z</time></trkpt>
<trkpt lat="54.3002770000" lon="-2.1730670000"><ele>261</ele><time>2013-11-17T15:04:40Z</time></trkpt>
<trkpt lat="54.3002620000" lon="-2.1731180000"><ele>261</ele><time>2013-11-17T15:04:43Z</time></trkpt>
<trkpt lat="54.3002480000" lon="-2.1731610000"><ele>261</ele><time>2013-11-17T15:04:45Z</time></trkpt>
<trkpt lat="54.3002360000" lon="-2.1732150000"><ele>261</ele><time>2013-11-17T15:04:47Z</time></trkpt>
<trkpt lat="54.3002290000" lon="-2.1732720000"><ele>261</ele><time>2013-11-17T15:04:51Z</time></trkpt>
<trkpt lat="54.3002230000" lon="-2.1733300000"><ele>261</ele><time>2013-11-17T15:04:53Z</time></trkpt>
<trkpt lat="54.3002200000" lon="-2.1733730000"><ele>261</ele><time>2013-11-17T15:04:56Z</time></trkpt>
<trkpt lat="54.3002180000" lon="-2.1734140000"><ele>261</ele><time>2013-11-17T15:04:58Z</time></trkpt>
<trkpt lat="54.3002130000" lon="-2.1734640000"><ele>261</ele><time>2013-11-17T15:05:00Z</time></trkpt>
<trkpt lat="54.3002100000" lon="-2.1735120000"><ele>261</ele><time>2013-11-17T15:05:02Z</time></trkpt>
<trkpt lat="54.3002050000" lon="-2.1735600000"><ele>261</ele><time>2013-11-17T15:05:04Z</time></trkpt>
<trkpt lat="54.3002020000" lon="-2.1736170000"><ele>261</ele><time>2013-11-17T15:05:06Z</time></trkpt>
<trkpt lat="54.3001970000" lon="-2.1736580000"><ele>261</ele><time>2013-11-17T15:05:09Z</time></trkpt>
<trkpt lat="54.3001960000" lon="-2.1737040000"><ele>261</ele><time>2013-11-17T15:05:11Z</time></trkpt>
<trkpt lat="54.3001930000" lon="-2.1737470000"><ele>261</ele><time>2013-11-17T15:05:12Z</time></trkpt>
<trkpt lat="54.3001900000" lon="-2.1737940000"><ele>261</ele><time>2013-11-17T15:05:15Z</time></trkpt>
<trkpt lat="54.3001870000" lon="-2.1738370000"><ele>261</ele><time>2013-11-17T15:05:17Z</time></trkpt>
<trkpt lat="54.3001810000" lon="-2.1738910000"><ele>261</ele><time>2013-11-17T15:05:18Z</time></trkpt>
<trkpt lat="54.3001700000" lon="-2.1739420000"><ele>261</ele><time>2013-11-17T15:05:21Z</time></trkpt>
<trkpt lat="54.3001630000" lon="-2.1739910000"><ele>261</ele><time>2013-11-17T15:05:23Z</time></trkpt>
<trkpt lat="54.3001600000" lon="-2.1740350000"><ele>261</ele><time>2013-11-17T15:05:25Z</time></trkpt>
<trkpt lat="54.3001600000" lon="-2.1740950000"><ele>261</ele><time>2013-11-17T15:05:28Z</time></trkpt>
<trkpt lat="54.3001590000" lon="-2.1741400000"><ele>261</ele><time>2013-11-17T15:05:30Z</time></trkpt>
<trkpt lat="54.3001560000" lon="-2.1741860000"><ele>261</ele><time>2013-11-17T15:05:31Z</time></trkpt>
<trkpt lat="54.3001530000" lon="-2.1742490000"><ele>261</ele><time>2013-11-17T15:05:35Z</time></trkpt>
<trkpt lat="54.3001510000" lon="-2.1742930000"><ele>261</ele><time>2013-11-17T15:05:36Z</time></trkpt>
<trkpt lat="54.3001460000" lon="-2.1743390000"><ele>261</ele><time>2013-11-17T15:05:39Z</time></trkpt>
<trkpt lat="54.3001420000" lon="-2.1743870000"><ele>261</ele><time>2013-11-17T15:05:41Z</time></trkpt>
<trkpt lat="54.3001340000" lon="-2.1744340000"><ele>261</ele><time>2013-11-17T15:05:43Z</time></trkpt>
<trkpt lat="54.3001300000" lon="-2.1744930000"><ele>261</ele><time>2013-11-17T15:05:46Z</time></trkpt>
<trkpt lat="54.3001290000" lon="-2.1745380000"><ele>261</ele><time>2013-11-17T15:05:48Z</time></trkpt>
<trkpt lat="54.3001280000" lon="-2.1745810000"><ele>261</ele><time>2013-11-17T15:05:49Z</time></trkpt>
<trkpt lat="54.3001290000" lon="-2.1746220000"><ele>261</ele><time>2013-11-17T15:05:52Z</time></trkpt>
<trkpt lat="54.3001260000" lon="-2.1746660000"><ele>261</ele><time>2013-11-17T15:05:54Z</time></trkpt>
<trkpt lat="54.3001230000" lon="-2.1747100000"><ele>261</ele><time>2013-11-17T15:05:55Z</time></trkpt>
<trkpt lat="54.3001220000" lon="-2.1747410000"><ele>261</ele><time>2013-11-17T15:05:56Z</time></trkpt>
<trkpt lat="54.3001220000" lon="-2.1747600000"><ele>261</ele><time>2013-11-17T15:05:58Z</time></trkpt>
<trkpt lat="54.3001210000" lon="-2.1747840000"><ele>261</ele><time>2013-11-17T15:05:59Z</time></trkpt>
<trkpt lat="54.3001190000" lon="-2.1748080000"><ele>261</ele><time>2013-11-17T15:06:00Z</time></trkpt>
<trkpt lat="54.3001180000" lon="-2.1748310000"><ele>261</ele><time>2013-11-17T15:06:01Z</time></trkpt>
<trkpt lat="54.3001180000" lon="-2.1748520000"><ele>261</ele></trkpt>
<trkpt lat="54.3001200000" lon="-2.1748730000"><ele>261</ele><time>2013-11-17T15:06:02Z</time></trkpt>
<trkpt lat="54.3001210000" lon="-2.1748940000"><ele>261</ele><time>2013-11-17T15:06:04Z</time></trkpt>
<trkpt lat="54.3001200000" lon="-2.1749160000"><ele>261</ele><time>2013-11-17T15:06:05Z</time></trkpt>
<trkpt lat="54.3001200000" lon="-2.1749380000"><ele>261</ele><time>2013-11-17T15:06:06Z</time></trkpt>
<trkpt lat="54.3001190000" lon="-2.1749590000"><ele>261</ele><time>2013-11-17T15:06:07Z</time></trkpt>
<trkpt lat="54.3001200000" lon="-2.1749800000"><ele>261</ele></trkpt>
<trkpt lat="54.3001200000" lon="-2.1750030000"><ele>261</ele><time>2013-11-17T15:06:08Z</time></trkpt>
<trkpt lat="54.3001190000" lon="-2.1750270000"><ele>261</ele><time>2013-11-17T15:06:10Z</time></trkpt>
<trkpt lat="54.3001200000" lon="-2.1750500000"><ele>261</ele><time>2013-11-17T15:06:11Z</time></trkpt>
<trkpt lat="54.3001220000" lon="-2.1750710000"><ele>261</ele><time>2013-11-17T15:06:12Z</time></trkpt>
<trkpt lat="54.3001230000" lon="-2.1750920000"><ele>261</ele><time>2013-11-17T15:06:13Z</time></trkpt>
<trkpt lat="54.3001250000" lon="-2.1751140000"><ele>261</ele></trkpt>
<trkpt lat="54.3001250000" lon="-2.1751360000"><ele>261</ele><time>2013-11-17T15:06:14Z</time></trkpt>
<trkpt lat="54.3001270000" lon="-2.1751570000"><ele>261</ele><time>2013-11-17T15:06:15Z</time></trkpt>
<trkpt lat="54.3001280000" lon="-2.1751780000"><ele>261</ele><time>2013-11-17T15:06:17Z</time></trkpt>
<trkpt lat="54.3001290000" lon="-2.1752000000"><ele>261</ele><time>2013-11-17T15:06:18Z</time></trkpt>
<trkpt lat="54.3001310000" lon="-2.1752230000"><ele>261</ele><time>2013-11-17T15:06:19Z</time></trkpt>
<trkpt lat="54.3001330000" lon="-2.1752450000"><ele>261</ele><time>2013-11-17T15:06:20Z</time></trkpt>
<trkpt lat="54.3001340000" lon="-2.1752660000"><ele>261</ele></trkpt>
<trkpt lat="54.3001350000" lon="-2.1752900000"><ele>261</ele><time>2013-11-17T15:06:21Z</time></trkpt>
<trkpt lat="54.3001370000" lon="-2.1753120000"><ele>261</ele><time>2013-11-17T15:06:23Z</time></trkpt>
<trkpt lat="54.3001380000" lon="-2.1753350000"><ele>261</ele><time>2013-11-17T15:06:24Z</time></trkpt>
<trkpt lat="54.3001390000" lon="-2.1753560000"><ele>261</ele><time>2013-11-17T15:06:25Z</time></trkpt>
<trkpt lat="54.3001420000" lon="-2.1753750000"><ele>261</ele><time>2013-11-17T15:06:26Z</time></trkpt>
<trkpt lat="54.3001440000" lon="-2.1753960000"><ele>261</ele></trkpt>
<trkpt lat="54.3001460000" lon="-2.1754160000"><ele>261</ele><time>2013-11-17T15:06:27Z</time></trkpt>
<trkpt lat="54.3001480000" lon="-2.1754400000"><ele>261</ele><time>2013-11-17T15:06:29Z</time></trkpt>
<trkpt lat="54.3001490000" lon="-2.1754660000"><ele>261</ele><time>2013-11-17T15:06:30Z</time></trkpt>
<trkpt lat="54.3001520000" lon="-2.1754870000"><ele>261</ele><time>2013-11-17T15:06:31Z</time></trkpt>
<trkpt lat="54.3001550000" lon="-2.1755080000"><ele>261</ele><time>2013-11-17T15:06:32Z</time></trkpt>
<trkpt lat="54.3001580000" lon="-2.1755290000"><ele>261</ele></trkpt>
<trkpt lat="54.3001590000" lon="-2.1755480000"><ele>261</ele><time>2013-11-17T15:06:33Z</time></trkpt>
<trkpt lat="54.3001610000" lon="-2.1755690000"><ele>261</ele><time>2013-11-17T15:06:35Z</time></trkpt>
<trkpt lat="54.3001630000" lon="-2.1755900000"><ele>261</ele><time>2013-11-17T15:06:36Z</time></trkpt>
<trkpt lat="54.3001630000" lon="-2.1756120000"><ele>261</ele><time>2013-11-17T15:06:37Z</time></trkpt>
<trkpt lat="54.3001640000" lon="-2.1756340000"><ele>261</ele><time>2013-11-17T15:06:38Z</time></trkpt>
<trkpt lat="54.3001650000" lon="-2.1756570000"><ele>261</ele></trkpt>
<trkpt lat="54.3001660000" lon="-2.1756800000"><ele>261</ele><time>2013-11-17T15:06:39Z</time></trkpt>
<trkpt lat="54.3001670000" lon="-2.1757040000"><ele>261</ele><time>2013-11-17T15:06:41Z</time></trkpt>
<trkpt lat="54.3001690000" lon="-2.1757250000"><ele>261</ele><time>2013-11-17T15:06:42Z</time></trkpt>
<trkpt lat="54.3001700000" lon="-2.1757460000"><ele>261</ele><time>2013-11-17T15:06:43Z</time></trkpt>
<trkpt lat="54.3001720000" lon="-2.1757680000"><ele>261</ele><time>2013-11-17T15:06:44Z</time></trkpt>
<trkpt lat="54.3001740000" lon="-2.1757890000"><ele>261</ele><time>2013-11-17T15:06:45Z</time></trkpt>
<trkpt lat="54.3001770000" lon="-2.1758080000"><ele>261</ele></trkpt>
<trkpt lat="54.3001790000" lon="-2.1758290000"><ele>261</ele><time>2013-11-17T15:06:46Z</time></trkpt>
<trkpt lat="54.3001820000" lon="-2.1758500000"><ele>261</ele><time>2013-11-17T15:06:48Z</time></trkpt>
<trkpt lat="54.3001830000" lon="-2.1758730000"><ele>261</ele><time>2013-11-17T15:06:49Z</time></trkpt>
<trkpt lat="54.3001850000" lon="-2.1758970000"><ele>261</ele><time>2013-11-17T15:06:50Z</time></trkpt>
<trkpt lat="54.3001870000" lon="-2.1759200000"><ele>261</ele><time>2013-11-17T15:06:51Z</time></trkpt>
<trkpt lat="54.3001880000" lon="-2.1759440000"><ele>261</ele></trkpt>
<trkpt lat="54.3001890000" lon="-2.1759660000"><ele>261</ele><time>2013-11-17T15:06:52Z</time></trkpt>
<trkpt lat="54.3001890000" lon="-2.1759880000"><ele>261</ele><time>2013-11-17T15:06:54Z</time></trkpt>
<trkpt lat="54.3001910000" lon="-2.1760090000"><ele>261</ele><time>2013-11-17T15:06:55Z</time></trkpt>
<trkpt lat="54.3001940000" lon="-2.1760300000"><ele>261</ele><time>2013-11-17T15:06:56Z</time></trkpt>
<trkpt lat="54.3001950000" lon="-2.1760530000"><ele>261</ele><time>2013-11-17T15:06:57Z</time></trkpt>
<trkpt lat="54.3001960000" lon="-2.1760770000"><ele>261</ele></trkpt>
<trkpt lat="54.3001970000" lon="-2.1761000000"><ele>261</ele><time>2013-11-17T15:06:58Z</time></trkpt>
<trkpt lat="54.3001980000" lon="-2.1761230000"><ele>261</ele><time>2013-11-17T15:07:00Z</time></trkpt>
<trkpt lat="54.3001990000" lon="-2.1761460000"><ele>261</ele><time>2013-11-17T15:07:01Z</time></trkpt>
<trkpt lat="54.3002000000" lon="-2.1761690000"><ele>261</ele><time>2013-11-17T15:07:02Z</time></trkpt>
<trkpt lat="54.3002010000" lon="-2.1761920000"><ele>261</ele><time>2013-11-17T15:07:03Z</time></trkpt>
<trkpt lat="54.3002020000" lon="-2.1762140000"><ele>261</ele></trkpt>
<trkpt lat="54.3002030000" lon="-2.1762370000"><ele>261</ele><time>2013-11-17T15:07:04Z</time></trkpt>
<trkpt lat="54.3002020000" lon="-2.1762620000"><ele>261</ele><time>2013-11-17T15:07:06Z</time></trkpt>
<trkpt lat="54.3002030000" lon="-2.1762860000"><ele>261</ele><time>2013-11-17T15:07:07Z</time></trkpt>
<trkpt lat="54.3002050000" lon="-2.1763070000"><ele>261</ele><time>2013-11-17T15:07:08Z</time></trkpt>
<trkpt lat="54.3002060000" lon="-2.1763290000"><ele>261</ele><time>2013-11-17T15:07:09Z</time></trkpt>
<trkpt lat="54.3002080000" lon="-2.1763520000"><ele>261</ele></trkpt>
<trkpt lat="54.3002090000" lon="-2.1763770000"><ele>261</ele><time>2013-11-17T15:07:10Z</time></trkpt>
<trkpt lat="54.3002120000" lon="-2.1763980000"><ele>261</ele><time>2013-11-17T15:07:12Z</time></trkpt>
<trkpt lat="54.3002170000" lon="-2.1764160000"><ele>261</ele><time>2013-11-17T15:07:13Z</time></trkpt>
<trkpt lat="54.3002210000" lon="-2.1764360000"><ele>261</ele><time>2013-11-17T15:07:14Z</time></trkpt>
<trkpt lat="54.3002260000" lon="-2.1764560000"><ele>261</ele><time>2013-11-17T15:07:15Z</time></trkpt>
<trkpt lat="54.3002290000" lon="-2.1764750000"><ele>261</ele></trkpt>
<trkpt lat="54.3002310000" lon="-2.1764940000"><ele>261</ele><time>2013-11-17T15:07:16Z</time></trkpt>
<trkpt lat="54.3002330000" lon="-2.1765100000"><ele>261</ele><time>2013-11-17T15:07:17Z</time></trkpt>
<trkpt lat="54.3002350000" lon="-2.1765220000"><ele>261</ele><time>2013-11-17T15:07:19Z</time></trkpt>
<trkpt lat="54.3002350000" lon="-2.1765310000"><ele>261</ele><time>2013-11-17T15:07:20Z</time></trkpt>
<trkpt lat="54.3002340000" lon="-2.1765380000"><ele>261</ele><time>2013-11-17T15:07:21Z</time></trkpt>
<trkpt lat="54.3002330000" lon="-2.1765430000"><ele>261</ele><time>2013-11-17T15:07:22Z</time></trkpt>
<trkpt lat="54.3002320000" lon="-2.1765490000"><ele>261</ele></trkpt>
<trkpt lat="54.3002300000" lon="-2.1765550000"><ele>261</ele><time>2013-11-17T15:07:23Z</time></trkpt>
<trkpt lat="54.3002290000" lon="-2.1765610000"><ele>261</ele><time>2013-11-17T15:07:25Z</time></trkpt>
<trkpt lat="54.3002280000" lon="-2.1765680000"><ele>261</ele><time>2013-11-17T15:07:26Z</time></trkpt>
<trkpt lat="54.3002270000" lon="-2.1765730000"><ele>261</ele><time>2013-11-17T15:07:27Z</time></trkpt>
<trkpt lat="54.3002270000" lon="-2.1765750000"><ele>261</ele><time>2013-11-17T15:07:28Z</time></trkpt>
<trkpt lat="54.3002270000" lon="-2.1765780000"><ele>261</ele></trkpt>
<trkpt lat="54.3002260000" lon="-2.1765890000"><ele>261</ele><time>2013-11-17T15:07:29Z</time></trkpt>
<trkpt lat="54.3002300000" lon="-2.1765940000"><ele>261</ele><time>2013-11-17T15:07:31Z</time></trkpt>
<trkpt lat="54.3002340000" lon="-2.1765970000"><ele>261</ele><time>2013-11-17T15:07:32Z</time></trkpt>
<trkpt lat="54.3002370000" lon="-2.1766040000"><ele>261</ele><time>2013-11-17T15:07:33Z</time></trkpt>
<trkpt lat="54.3002380000" lon="-2.1766200000"><ele>261</ele><time>2013-11-17T15:07:34Z</time></trkpt>
<trkpt lat="54.3002390000" lon="-2.1766400000"><ele>261</ele></trkpt>
<trkpt lat="54.3002390000" lon="-2.1766610000"><ele>261</ele><time>2013-11-17T15:07:35Z</time></trkpt>
<trkpt lat="54.3002390000" lon="-2.1766830000"><ele>260</ele><time>2013-11-17T15:07:37Z</time></trkpt>
<trkpt lat="54.3002410000" lon="-2.1767060000"><ele>260</ele><time>2013-11-17T15:07:38Z</time></trkpt>
<trkpt lat="54.3002440000" lon="-2.1767280000"><ele>260</ele><time>2013-11-17T15:07:39Z</time></trkpt>
<trkpt lat="54.3002450000" lon="-2.1767510000"><ele>260</ele><time>2013-11-17T15:07:40Z</time></trkpt>
<trkpt lat="54.3002480000" lon="-2.1767730000"><ele>260</ele></trkpt>
<trkpt lat="54.3002510000" lon="-2.1767950000"><ele>260</ele><time>2013-11-17T15:07:41Z</time></trkpt>
<trkpt lat="54.3002530000" lon="-2.1768150000"><ele>260</ele><time>2013-11-17T15:07:43Z</time></trkpt>
<trkpt lat="54.3002540000" lon="-2.1768360000"><ele>260</ele><time>2013-11-17T15:07:44Z</time></trkpt>
<trkpt lat="54.3002540000" lon="-2.1768590000"><ele>260</ele><time>2013-11-17T15:07:45Z</time></trkpt>
<trkpt lat="54.3002540000" lon="-2.1768830000"><ele>260</ele><time>2013-11-17T15:07:46Z</time></trkpt>
<trkpt lat="54.3002550000" lon="-2.1769060000"><ele>260</ele></trkpt>
<trkpt lat="54.3002570000" lon="-2.1769290000"><ele>260</ele><time>2013-11-17T15:07:47Z</time></trkpt>
<trkpt lat="54.3002580000" lon="-2.1769530000"><ele>260</ele><time>2013-11-17T15:07:48Z</time></trkpt>
<trkpt lat="54.3002580000" lon="-2.1769780000"><ele>260</ele><time>2013-11-17T15:07:50Z</time></trkpt>
<trkpt lat="54.3002590000" lon="-2.1770000000"><ele>260</ele><time>2013-11-17T15:07:51Z</time></trkpt>
<trkpt lat="54.3002600000" lon="-2.1770230000"><ele>260</ele><time>2013-11-17T15:07:52Z</time></trkpt>
<trkpt lat="54.3002610000" lon="-2.1770450000"><ele>260</ele><time>2013-11-17T15:07:53Z</time></trkpt>
<trkpt lat="54.3002630000" lon="-2.1770660000"><ele>260</ele></trkpt>
<trkpt lat="54.3002650000" lon="-2.1770880000"><ele>260</ele><time>2013-11-17T15:07:54Z</time></trkpt>
<trkpt lat="54.3002660000" lon="-2.1771120000"><ele>260</ele><time>2013-11-17T15:07:56Z</time></trkpt>
<trkpt lat="54.3002670000" lon="-2.1771350000"><ele>260</ele><time>2013-11-17T15:07:57Z</time></trkpt>
<trkpt lat="54.3002660000" lon="-2.1771600000"><ele>260</ele><time>2013-11-17T15:07:58Z</time></trkpt>
<trkpt lat="54.3002680000" lon="-2.1771820000"><ele>260</ele><time>2013-11-17T15:07:59Z</time></trkpt>
<trkpt lat="54.3002700000" lon="-2.1772050000"><ele>260</ele></trkpt>
<trkpt lat="54.3002710000" lon="-2.1772290000"><ele>260</ele><time>2013-11-17T15:08:00Z</time></trkpt>
<trkpt lat="54.3002720000" lon="-2.1772510000"><ele>260</ele><time>2013-11-17T15:08:02Z</time></trkpt>
<trkpt lat="54.3002740000" lon="-2.1772720000"><ele>260</ele><time>2013-11-17T15:08:03Z</time></trkpt>
<trkpt lat="54.3002760000" lon="-2.1772940000"><ele>260</ele><time>2013-11-17T15:08:04Z</time></trkpt>
<trkpt lat="54.3002780000" lon="-2.1773160000"><ele>260</ele><time>2013-11-17T15:08:05Z</time></trkpt>
<trkpt lat="54.3002800000" lon="-2.1773370000"><ele>260</ele></trkpt>
<trkpt lat="54.3002820000" lon="-2.1773570000"><ele>260</ele><time>2013-11-17T15:08:06Z</time></trkpt>
<trkpt lat="54.3002840000" lon="-2.1773790000"><ele>260</ele><time>2013-11-17T15:08:08Z</time></trkpt>
<trkpt lat="54.3002850000" lon="-2.1774010000"><ele>260</ele><time>2013-11-17T15:08:09Z</time></trkpt>
<trkpt lat="54.3002870000" lon="-2.1774210000"><ele>260</ele><time>2013-11-17T15:08:10Z</time></trkpt>
<trkpt lat="54.3002880000" lon="-2.1774420000"><ele>260</ele><time>2013-11-17T15:08:11Z</time></trkpt>
<trkpt lat="54.3002900000" lon="-2.1774630000"><ele>260</ele></trkpt>
<trkpt lat="54.3002930000" lon="-2.1774840000"><ele>260</ele><time>2013-11-17T15:08:12Z</time></trkpt>
<trkpt lat="54.3002960000" lon="-2.1775040000"><ele>260</ele><time>2013-11-17T15:08:14Z</time></trkpt>
<trkpt lat="54.3002990000" lon="-2.1775240000"><ele>260</ele><time>2013-11-17T15:08:15Z</time></trkpt>
<trkpt lat="54.3003020000" lon="-2.1775430000"><ele>260</ele><time>2013-11-17T15:08:16Z</time></trkpt>
<trkpt lat="54.3003040000" lon="-2.1775630000"><ele>260</ele><time>2013-11-17T15:08:17Z</time></trkpt>
<trkpt lat="54.3003060000" lon="-2.1775800000"><ele>260</ele></trkpt>
<trkpt lat="54.3003060000" lon="-2.1775930000"><ele>260</ele><time>2013-11-17T15:08:18Z</time></trkpt>
<trkpt lat="54.3003080000" lon="-2.1776020000"><ele>260</ele><time>2013-11-17T15:08:19Z</time></trkpt>
<trkpt lat="54.3003090000" lon="-2.1776110000"><ele>260</ele><time>2013-11-17T15:08:21Z</time></trkpt>
<trkpt lat="54.3003100000" lon="-2.1776190000"><ele>260</ele><time>2013-11-17T15:08:22Z</time></trkpt>
<trkpt lat="54.3003100000" lon="-2.1776250000"><ele>260</ele><time>2013-11-17T15:08:23Z</time></trkpt>
<trkpt lat="54.3003090000" lon="-2.1776290000"><ele>260</ele><time>2013-11-17T15:08:24Z</time></trkpt>
<trkpt lat="54.3003090000" lon="-2.1776300000"><ele>260</ele></trkpt>
<trkpt lat="54.3003080000" lon="-2.1776320000"><ele>260</ele><time>2013-11-17T15:08:25Z</time></trkpt>
<trkpt lat="54.3003070000" lon="-2.1776340000"><ele>260</ele><time>2013-11-17T15:08:27Z</time></trkpt>
<trkpt lat="54.3003070000" lon="-2.1776350000"><ele>260</ele><time>2013-11-17T15:08:28Z</time></trkpt>
<trkpt lat="54.3003070000" lon="-2.1776350000"><ele>260</ele><time>2013-11-17T15:08:29Z</time></trkpt>
<trkpt lat="54.3003060000" lon="-2.1776360000"><ele>260</ele><time>2013-11-17T15:08:30Z</time></trkpt>
<trkpt lat="54.3003050000" lon="-2.1776360000"><ele>260</ele></trkpt>
<trkpt lat="54.3003040000" lon="-2.1776370000"><ele>260</ele><time>2013-11-17T15:08:31Z</time></trkpt>
<trkpt lat="54.3003050000" lon="-2.1776370000"><ele>260</ele><time>2013-11-17T15:08:33Z</time></trkpt>
<trkpt lat="54.3003050000" lon="-2.1776370000"><ele>260</ele><time>2013-11-17T15:08:34Z</time></trkpt>
<trkpt lat="54.3003050000" lon="-2.1776390000"><ele>260</ele><time>2013-11-17T15:08:36Z</time></trkpt>
<trkpt lat="54.3003050000" lon="-2.1776410000"><ele>260</ele></trkpt>
<trkpt lat="54.3003050000" lon="-2.1776440000"><ele>260</ele><time>2013-11-17T15:08:37Z</time></trkpt>
<trkpt lat="54.3003050000" lon="-2.1776450000"><ele>260</ele><time>2013-11-17T15:08:39Z</time></trkpt>
<trkpt lat="54.3003050000" lon="-2.1776460000"><ele>260</ele><time>2013-11-17T15:08:40Z</time></trkpt>
<trkpt lat="54.3003060000" lon="-2.1776470000"><ele>260</ele><time>2013-11-17T15:08:41Z</time></trkpt>
<trkpt lat="54.3003050000" lon="-2.1776490000"><ele>260</ele><time>2013-11-17T15:08:42Z</time></trkpt>
<trkpt lat="54.3003040000" lon="-2.1776510000"><ele>260</ele></trkpt>
<trkpt lat="54.3003040000" lon="-2.1776500000"><ele>260</ele><time>2013-11-17T15:08:43Z</time></trkpt>
<trkpt lat="54.3003030000" lon="-2.1776470000"><ele>260</ele><time>2013-11-17T15:08:45Z</time></trkpt>
<trkpt lat="54.3003030000" lon="-2.1776440000"><ele>260</ele><time>2013-11-17T15:08:46Z</time></trkpt>
<trkpt lat="54.3003020000" lon="-2.1776420000"><ele>260</ele><time>2013-11-17T15:08:47Z</time></trkpt>
<trkpt lat="54.3003010000" lon="-2.1776410000"><ele>260</ele><time>2013-11-17T15:08:48Z</time></trkpt>
<trkpt lat="54.3003010000" lon="-2.1776390000"><ele>260</ele></trkpt>
<trkpt lat="54.3002990000" lon="-2.1776410000"><ele>260</ele><time>2013-11-17T15:08:49Z</time></trkpt>
<trkpt lat="54.3002960000" lon="-2.1776460000"><ele>260</ele><time>2013-11-17T15:08:51Z</time></trkpt>
<trkpt lat="54.3002950000" lon="-2.1776570000"><ele>260</ele><time>2013-11-17T15:08:52Z</time></trkpt>
<trkpt lat="54.3002950000" lon="-2.1776720000"><ele>260</ele><time>2013-11-17T15:08:53Z</time></trkpt>
<trkpt lat="54.3002950000" lon="-2.1776920000"><ele>260</ele><time>2013-11-17T15:08:54Z</time></trkpt>
<trkpt lat="54.3002950000" lon="-2.1777120000"><ele>260</ele><time>2013-11-17T15:08:55Z</time></trkpt>
<trkpt lat="54.3002960000" lon="-2.1777320000"><ele>260</ele></trkpt>
<trkpt lat="54.3002960000" lon="-2.1777530000"><ele>260</ele><time>2013-11-17T15:08:56Z</time></trkpt>
<trkpt lat="54.3002970000" lon="-2.1777750000"><ele>260</ele><time>2013-11-17T15:08:58Z</time></trkpt>
<trkpt lat="54.3002980000" lon="-2.1777960000"><ele>260</ele><time>2013-11-17T15:08:59Z</time></trkpt>
<trkpt lat="54.3002990000" lon="-2.1778160000"><ele>260</ele><time>2013-11-17T15:09:00Z</time></trkpt>
<trkpt lat="54.3003010000" lon="-2.1778350000"><ele>260</ele><time>2013-11-17T15:09:01Z</time></trkpt>
<trkpt lat="54.3003040000" lon="-2.1778550000"><ele>260</ele></trkpt>
<trkpt lat="54.3003060000" lon="-2.1778760000"><ele>260</ele><time>2013-11-17T15:09:02Z</time></trkpt>
<trkpt lat="54.3003060000" lon="-2.1778980000"><ele>260</ele><time>2013-11-17T15:09:04Z</time></trkpt>
<trkpt lat="54.3003080000" lon="-2.1779190000"><ele>260</ele><time>2013-11-17T15:09:05Z</time></trkpt>
<trkpt lat="54.3003120000" lon="-2.1779380000"><ele>260</ele><time>2013-11-17T15:09:06Z</time></trkpt>
<trkpt lat="54.3003140000" lon="-2.1779600000"><ele>260</ele><time>2013-11-17T15:09:07Z</time></trkpt>
<trkpt lat="54.3003150000" lon="-2.1779820000"><ele>260</ele></trkpt>
<trkpt lat="54.3003160000" lon="-2.1780060000"><ele>260</ele><time>2013-11-17T15:09:08Z</time></trkpt>
<trkpt lat="54.3003170000" lon="-2.1780300000"><ele>260</ele><time>2013-11-17T15:09:10Z</time></trkpt>
<trkpt lat="54.3003190000" lon="-2.1780530000"><ele>260</ele><time>2013-11-17T15:09:11Z</time></trkpt>
<trkpt lat="54.3003220000" lon="-2.1780740000"><ele>260</ele><time>2013-11-17T15:09:12Z</time></trkpt>
<trkpt lat="54.3003260000" lon="-2.1781190000"><ele>260</ele><time>2013-11-17T15:09:14Z</time></trkpt>
<trkpt lat="54.3003300000" lon="-2.1781380000"><ele>260</ele></trkpt>
<trkpt lat="54.3003330000" lon="-2.1781610000"><ele>260</ele><time>2013-11-17T15:09:16Z</time></trkpt>
<trkpt lat="54.3003350000" lon="-2.1781860000"><ele>260</ele><time>2013-11-17T15:09:17Z</time></trkpt>
<trkpt lat="54.3003380000" lon="-2.1782080000"><ele>260</ele><time>2013-11-17T15:09:18Z</time></trkpt>
<trkpt lat="54.3003410000" lon="-2.1782290000"><ele>260</ele><time>2013-11-17T15:09:19Z</time></trkpt>
<trkpt lat="54.3003430000" lon="-2.1782510000"><ele>260</ele></trkpt>
<trkpt lat="54.3003450000" lon="-2.1782740000"><ele>260</ele><time>2013-11-17T15:09:20Z</time></trkpt>
<trkpt lat="54.3003480000" lon="-2.1782960000"><ele>260</ele><time>2013-11-17T15:09:22Z</time></trkpt>
<trkpt lat="54.3003500000" lon="-2.1783200000"><ele>260</ele><time>2013-11-17T15:09:23Z</time></trkpt>
<trkpt lat="54.3003510000" lon="-2.1783440000"><ele>260</ele><time>2013-11-17T15:09:24Z</time></trkpt>
<trkpt lat="54.3003530000" lon="-2.1783680000"><ele>260</ele><time>2013-11-17T15:09:25Z</time></trkpt>
<trkpt lat="54.3003560000" lon="-2.1783910000"><ele>260</ele></trkpt>
<trkpt lat="54.3003580000" lon="-2.1784140000"><ele>260</ele><time>2013-11-17T15:09:26Z</time></trkpt>
<trkpt lat="54.3003590000" lon="-2.1784370000"><ele>260</ele><time>2013-11-17T15:09:27Z</time></trkpt>
<trkpt lat="54.3003610000" lon="-2.1784600000"><ele>260</ele><time>2013-11-17T15:09:29Z</time></trkpt>
<trkpt lat="54.3003630000" lon="-2.1784810000"><ele>260</ele><time>2013-11-17T15:09:30Z</time></trkpt>
<trkpt lat="54.3003650000" lon="-2.1785030000"><ele>260</ele><time>2013-11-17T15:09:31Z</time></trkpt>
<trkpt lat="54.3003670000" lon="-2.1785270000"><ele>260</ele><time>2013-11-17T15:09:32Z</time></trkpt>
<trkpt lat="54.3003670000" lon="-2.1785500000"><ele>260</ele></trkpt>
<trkpt lat="54.3003690000" lon="-2.1785730000"><ele>260</ele><time>2013-11-17T15:09:33Z</time></trkpt>
<trkpt lat="54.3003700000" lon="-2.1785980000"><ele>260</ele><time>2013-11-17T15:09:35Z</time></trkpt>
<trkpt lat="54.3003730000" lon="-2.1786200000"><ele>260</ele><time>2013-11-17T15:09:36Z</time></trkpt>
<trkpt lat="54.3003750000" lon="-2.1786420000"><ele>260</ele><time>2013-11-17T15:09:37Z</time></trkpt>
<trkpt lat="54.3003790000" lon="-2.1786630000"><ele>260</ele><time>2013-11-17T15:09:38Z</time></trkpt>
<trkpt lat="54.3003800000" lon="-2.1786880000"><ele>260</ele></trkpt>
<trkpt lat="54.3003830000" lon="-2.1787110000"><ele>260</ele><time>2013-11-17T15:09:39Z</time></trkpt>
<trkpt lat="54.3003850000" lon="-2.1787340000"><ele>260</ele><time>2013-11-17T15:09:41Z</time></trkpt>
<trkpt lat="54.3003880000" lon="-2.1787580000"><ele>260</ele><time>2013-11-17T15:09:42Z</time></trkpt>
<trkpt lat="54.3003900000" lon="-2.1787810000"><ele>260</ele><time>2013-11-17T15:09:43Z</time></trkpt>
<trkpt lat="54.3003920000" lon="-2.1788060000"><ele>260</ele><time>2013-11-17T15:09:44Z</time></trkpt>
<trkpt lat="54.3003940000" lon="-2.1788290000"><ele>260</ele></trkpt>
<trkpt lat="54.3003950000" lon="-2.1788510000"><ele>260</ele><time>2013-11-17T15:09:45Z</time></trkpt>
<trkpt lat="54.3003960000" lon="-2.1788740000"><ele>260</ele><time>2013-11-17T15:09:47Z</time></trkpt>
<trkpt lat="54.3003980000" lon="-2.1788970000"><ele>260</ele><time>2013-11-17T15:09:48Z</time></trkpt>
<trkpt lat="54.3004000000" lon="-2.1789170000"><ele>260</ele><time>2013-11-17T15:09:49Z</time></trkpt>
<trkpt lat="54.3004020000" lon="-2.1789380000"><ele>260</ele><time>2013-11-17T15:09:50Z</time></trkpt>
<trkpt lat="54.3004050000" lon="-2.1789580000"><ele>260</ele></trkpt>
<trkpt lat="54.3004070000" lon="-2.1789800000"><ele>260</ele><time>2013-11-17T15:09:51Z</time></trkpt>
<trkpt lat="54.3004070000" lon="-2.1790030000"><ele>260</ele><time>2013-11-17T15:09:53Z</time></trkpt>
<trkpt lat="54.3004080000" lon="-2.1790280000"><ele>260</ele><time>2013-11-17T15:09:54Z</time></trkpt>
<trkpt lat="54.3004090000" lon="-2.1790510000"><ele>260</ele><time>2013-11-17T15:09:55Z</time></trkpt>
<trkpt lat="54.3004110000" lon="-2.1790740000"><ele>260</ele><time>2013-11-17T15:09:56Z</time></trkpt>
<trkpt lat="54.3004120000" lon="-2.1790980000"><ele>260</ele></trkpt>
<trkpt lat="54.3004110000" lon="-2.1791230000"><ele>260</ele><time>2013-11-17T15:09:57Z</time></trkpt>
<trkpt lat="54.3004100000" lon="-2.1791470000"><ele>260</ele><time>2013-11-17T15:09:58Z</time></trkpt>
<trkpt lat="54.3004100000" lon="-2.1791720000"><ele>260</ele><time>2013-11-17T15:10:00Z</time></trkpt>
<trkpt lat="54.3004130000" lon="-2.1791950000"><ele>260</ele><time>2013-11-17T15:10:01Z</time></trkpt>
<trkpt lat="54.3004140000" lon="-2.1792190000"><ele>260</ele><time>2013-11-17T15:10:02Z</time></trkpt>
<trkpt lat="54.3004150000" lon="-2.1792430000"><ele>260</ele><time>2013-11-17T15:10:03Z</time></trkpt>
<trkpt lat="54.3004150000" lon="-2.1792660000"><ele>260</ele></trkpt>
<trkpt lat="54.3004150000" lon="-2.1792890000"><ele>260</ele><time>2013-11-17T15:10:04Z</time></trkpt>
<trkpt lat="54.3004160000" lon="-2.1793120000"><ele>260</ele><time>2013-11-17T15:10:06Z</time></trkpt>
<trkpt lat="54.3004190000" lon="-2.1793350000"><ele>260</ele><time>2013-11-17T15:10:07Z</time></trkpt>
<trkpt lat="54.3004200000" lon="-2.1793580000"><ele>260</ele><time>2013-11-17T15:10:08Z</time></trkpt>
<trkpt lat="54.3004220000" lon="-2.1793820000"><ele>260</ele><time>2013-11-17T15:10:09Z</time></trkpt>
<trkpt lat="54.3004220000" lon="-2.1794060000"><ele>260</ele></trkpt>
<trkpt lat="54.3004230000" lon="-2.1794300000"><ele>260</ele><time>2013-11-17T15:10:10Z</time></trkpt>
<trkpt lat="54.3004250000" lon="-2.1794530000"><ele>260</ele><time>2013-11-17T15:10:12Z</time></trkpt>
<trkpt lat="54.3004270000" lon="-2.1794760000"><ele>260</ele><time>2013-11-17T15:10:13Z</time></trkpt>
<trkpt lat="54.3004290000" lon="-2.1794990000"><ele>260</ele><time>2013-11-17T15:10:14Z</time></trkpt>
<trkpt lat="54.3004320000" lon="-2.1795200000"><ele>260</ele><time>2013-11-17T15:10:15Z</time></trkpt>
<trkpt lat="54.3004330000" lon="-2.1795420000"><ele>260</ele></trkpt>
<trkpt lat="54.3004350000" lon="-2.1795660000"><ele>260</ele><time>2013-11-17T15:10:16Z</time></trkpt>
<trkpt lat="54.3004370000" lon="-2.1795890000"><ele>260</ele><time>2013-11-17T15:10:18Z</time></trkpt>
<trkpt lat="54.3004400000" lon="-2.1796090000"><ele>260</ele><time>2013-11-17T15:10:19Z</time></trkpt>
<trkpt lat="54.3004420000" lon="-2.1796310000"><ele>260</ele><time>2013-11-17T15:10:20Z</time></trkpt>
<trkpt lat="54.3004440000" lon="-2.1796520000"><ele>260</ele><time>2013-11-17T15:10:21Z</time></trkpt>
<trkpt lat="54.3004470000" lon="-2.1796710000"><ele>260</ele></trkpt>
<trkpt lat="54.3004490000" lon="-2.1796910000"><ele>260</ele><time>2013-11-17T15:10:22Z</time></trkpt>
<trkpt lat="54.3004500000" lon="-2.1797120000"><ele>260</ele><time>2013-11-17T15:10:24Z</time></trkpt>
<trkpt lat="54.3004520000" lon="-2.1797320000"><ele>260</ele><time>2013-11-17T15:10:25Z</time></trkpt>
<trkpt lat="54.3004530000" lon="-2.1797530000"><ele>260</ele><time>2013-11-17T15:10:26Z</time></trkpt>
<trkpt lat="54.3004550000" lon="-2.1797710000"><ele>260</ele><time>2013-11-17T15:10:27Z</time></trkpt>
<trkpt lat="54.3004560000" lon="-2.1797870000"><ele>260</ele></trkpt>
<trkpt lat="54.3004600000" lon="-2.1797980000"><ele>260</ele><time>2013-11-17T15:10:28Z</time></trkpt>
<trkpt lat="54.3004640000" lon="-2.1798040000"><ele>260</ele><time>2013-11-17T15:10:29Z</time></trkpt>
<trkpt lat="54.3004670000" lon="-2.1798110000"><ele>260</ele><time>2013-11-17T15:10:31Z</time></trkpt>
<trkpt lat="54.3004680000" lon="-2.1798190000"><ele>260</ele><time>2013-11-17T15:10:32Z</time></trkpt>
<trkpt lat="54.3004670000" lon="-2.1798240000"><ele>260</ele><time>2013-11-17T15:10:33Z</time></trkpt>
<trkpt lat="54.3004670000" lon="-2.1798260000"><ele>260</ele><time>2013-11-17T15:10:34Z</time></trkpt>
<trkpt lat="54.3004660000" lon="-2.1798270000"><ele>260</ele></trkpt>
<trkpt lat="54.3004650000" lon="-2.1798270000"><ele>260</ele><time>2013-11-17T15:10:35Z</time></trkpt>
<trkpt lat="54.3004640000" lon="-2.1798260000"><ele>260</ele><time>2013-11-17T15:10:37Z</time></trkpt>
<trkpt lat="54.3004650000" lon="-2.1798320000"><ele>260</ele><time>2013-11-17T15:10:38Z</time></trkpt>
<trkpt lat="54.3004680000" lon="-2.1798420000"><ele>260</ele><time>2013-11-17T15:10:39Z</time></trkpt>
<trkpt lat="54.3004710000" lon="-2.1798510000"><ele>260</ele><time>2013-11-17T15:10:40Z</time></trkpt>
<trkpt lat="54.3004760000" lon="-2.1798610000"><ele>260</ele></trkpt>
<trkpt lat="54.3004810000" lon="-2.1798750000"><ele>260</ele><time>2013-11-17T15:10:42Z</time></trkpt>
<trkpt lat="54.3004900000" lon="-2.1798880000"><ele>260</ele><time>2013-11-17T15:10:43Z</time></trkpt>
<trkpt lat="54.3004990000" lon="-2.1798990000"><ele>260</ele><time>2013-11-17T15:10:44Z</time></trkpt>
<trkpt lat="54.3005060000" lon="-2.1799100000"><ele>260</ele><time>2013-11-17T15:10:45Z</time></trkpt>
<trkpt lat="54.3005120000" lon="-2.1799240000"><ele>260</ele><time>2013-11-17T15:10:46Z</time></trkpt>
<trkpt lat="54.3005180000" lon="-2.1799410000"><ele>260</ele></trkpt>
<trkpt lat="54.3005260000" lon="-2.1799570000"><ele>260</ele><time>2013-11-17T15:10:47Z</time></trkpt>
<trkpt lat="54.3005340000" lon="-2.1799710000"><ele>260</ele><time>2013-11-17T15:10:49Z</time></trkpt>
<trkpt lat="54.3005410000" lon="-2.1799880000"><ele>260</ele><time>2013-11-17T15:10:50Z</time></trkpt>
<trkpt lat="54.3005480000" lon="-2.1800040000"><ele>260</ele><time>2013-11-17T15:10:51Z</time></trkpt>
<trkpt lat="54.3005570000" lon="-2.1800200000"><ele>260</ele><time>2013-11-17T15:10:52Z</time></trkpt>
<trkpt lat="54.3005660000" lon="-2.1800350000"><ele>260</ele></trkpt>
<trkpt lat="54.3005750000" lon="-2.1800510000"><ele>260</ele><time>2013-11-17T15:10:53Z</time></trkpt>
<trkpt lat="54.3005830000" lon="-2.1800700000"><ele>260</ele><time>2013-11-17T15:10:55Z</time></trkpt>
<trkpt lat="54.3005920000" lon="-2.1800890000"><ele>260</ele><time>2013-11-17T15:10:56Z</time></trkpt>
<trkpt lat="54.3005990000" lon="-2.1801120000"><ele>260</ele><time>2013-11-17T15:10:57Z</time></trkpt>
<trkpt lat="54.3006070000" lon="-2.1801360000"><ele>260</ele><time>2013-11-17T15:10:58Z</time></trkpt>
<trkpt lat="54.3006140000" lon="-2.1801550000"><ele>260</ele></trkpt>
<trkpt lat="54.3006220000" lon="-2.1801740000"><ele>260</ele><time>2013-11-17T15:10:59Z</time></trkpt>
<trkpt lat="54.3006290000" lon="-2.1801930000"><ele>260</ele><time>2013-11-17T15:11:00Z</time></trkpt>
<trkpt lat="54.3006360000" lon="-2.1802120000"><ele>260</ele><time>2013-11-17T15:11:02Z</time></trkpt>
<trkpt lat="54.3006450000" lon="-2.1802260000"><ele>260</ele><time>2013-11-17T15:11:03Z</time></trkpt>
<trkpt lat="54.3006540000" lon="-2.1802390000"><ele>260</ele><time>2013-11-17T15:11:04Z</time></trkpt>
<trkpt lat="54.3006620000" lon="-2.1802540000"><ele>260</ele><time>2013-11-17T15:11:05Z</time></trkpt>
<trkpt lat="54.3006700000" lon="-2.1802700000"><ele>260</ele></trkpt>
<trkpt lat="54.3006810000" lon="-2.1802830000"><ele>260</ele><time>2013-11-17T15:11:06Z</time></trkpt>
<trkpt lat="54.3006910000" lon="-2.1802980000"><ele>260</ele><time>2013-11-17T15:11:08Z</time></trkpt>
<trkpt lat="54.3006990000" lon="-2.1803140000"><ele>260</ele><time>2013-11-17T15:11:09Z</time></trkpt>
<trkpt lat="54.3007050000" lon="-2.1803330000"><ele>260</ele><time>2013-11-17T15:11:10Z</time></trkpt>
<trkpt lat="54.3007100000" lon="-2.1803510000"><ele>260</ele><time>2013-11-17T15:11:11Z</time></trkpt>
<trkpt lat="54.3007170000" lon="-2.1803690000"><ele>260</ele></trkpt>
<trkpt lat="54.3007240000" lon="-2.1803870000"><ele>260</ele><time>2013-11-17T15:11:13Z</time></trkpt>
<trkpt lat="54.3007340000" lon="-2.1804160000"><ele>260</ele><time>2013-11-17T15:11:15Z</time></trkpt>
<trkpt lat="54.3007510000" lon="-2.1804460000"><ele>260</ele><time>2013-11-17T15:11:17Z</time></trkpt>
<trkpt lat="54.3007650000" lon="-2.1804830000"><ele>260</ele><time>2013-11-17T15:11:19Z</time></trkpt>
<trkpt lat="54.3007780000" lon="-2.1805200000"><ele>260</ele><time>2013-11-17T15:11:21Z</time></trkpt>
<trkpt lat="54.3007890000" lon="-2.1805560000"><ele>260</ele><time>2013-11-17T15:11:23Z</time></trkpt>
<trkpt lat="54.3008050000" lon="-2.1805840000"><ele>260</ele><time>2013-11-17T15:11:24Z</time></trkpt>
<trkpt lat="54.3008200000" lon="-2.1806150000"><ele>260</ele><time>2013-11-17T15:11:27Z</time></trkpt>
<trkpt lat="54.3008300000" lon="-2.1806550000"><ele>260</ele><time>2013-11-17T15:11:29Z</time></trkpt>
<trkpt lat="54.3008440000" lon="-2.1806970000"><ele>260</ele><time>2013-11-17T15:11:31Z</time></trkpt>
<trkpt lat="54.3008590000" lon="-2.1807380000"><ele>260</ele><time>2013-11-17T15:11:33Z</time></trkpt>
<trkpt lat="54.3008750000" lon="-2.1807770000"><ele>260</ele><time>2013-11-17T15:11:35Z</time></trkpt>
<trkpt lat="54.3008980000" lon="-2.1808190000"><ele>260</ele><time>2013-11-17T15:11:37Z</time></trkpt>
<trkpt lat="54.3009170000" lon="-2.1808680000"><ele>260</ele><time>2013-11-17T15:11:41Z</time></trkpt>
<trkpt lat="54.3009380000" lon="-2.1809240000"><ele>260</ele><time>2013-11-17T15:11:43Z</time></trkpt>
<trkpt lat="54.3009590000" lon="-2.1809850000"><ele>260</ele><time>2013-11-17T15:11:47Z</time></trkpt>
<trkpt lat="54.3009770000" lon="-2.1810480000"><ele>260</ele><time>2013-11-17T15:11:49Z</time></trkpt>
<trkpt lat="54.3009950000" lon="-2.1811080000"><ele>260</ele><time>2013-11-17T15:11:53Z</time></trkpt>
<trkpt lat="54.3010170000" lon="-2.1811660000"><ele>260</ele><time>2013-11-17T15:11:55Z</time></trkpt>
<trkpt lat="54.3010300000" lon="-2.1812110000"><ele>260</ele><time>2013-11-17T15:11:58Z</time></trkpt>
<trkpt lat="54.3010440000" lon="-2.1812720000"><ele>260</ele><time>2013-11-17T15:12:01Z</time></trkpt>
<trkpt lat="54.3010580000" lon="-2.1813200000"><ele>260</ele><time>2013-11-17T15:12:02Z</time></trkpt>
<trkpt lat="54.3010700000" lon="-2.1813660000"><ele>260</ele><time>2013-11-17T15:12:05Z</time></trkpt>
<trkpt lat="54.3010830000" lon="-2.1814100000"><ele>260</ele><time>2013-11-17T15:12:07Z</time></trkpt>
<trkpt lat="54.3010960000" lon="-2.1814570000"><ele>260</ele><time>2013-11-17T15:12:08Z</time></trkpt>
<trkpt lat="54.3011080000" lon="-2.1815020000"><ele>260</ele><time>2013-11-17T15:12:11Z</time></trkpt>
<trkpt lat="54.3011200000" lon="-2.1815400000"><ele>260</ele><time>2013-11-17T15:12:13Z</time></trkpt>
<trkpt lat="54.3011330000" lon="-2.1815800000"><ele>260</ele><time>2013-11-17T15:12:14Z</time></trkpt>
<trkpt lat="54.3011440000" lon="-2.1816300000"><ele>260</ele><time>2013-11-17T15:12:17Z</time></trkpt>
<trkpt lat="54.3011560000" lon="-2.1816750000"><ele>260</ele><time>2013-11-17T15:12:19Z</time></trkpt>
<trkpt lat="54.3011690000" lon="-2.1817140000"><ele>260</ele><time>2013-11-17T15:12:20Z</time></trkpt>
<trkpt lat="54.3011900000" lon="-2.1817560000"><ele>260</ele><time>2013-11-17T15:12:24Z</time></trkpt>
<trkpt lat="54.3012030000" lon="-2.1818020000"><ele>260</ele><time>2013-11-17T15:12:31Z</time></trkpt>
<trkpt lat="54.3012110000" lon="-2.1818460000"><ele>260</ele><time>2013-11-17T15:12:33Z</time></trkpt>
<trkpt lat="54.3012320000" lon="-2.1818910000"><ele>260</ele><time>2013-11-17T15:12:37Z</time></trkpt>
<trkpt lat="54.3012480000" lon="-2.1819310000"><ele>260</ele><time>2013-11-17T15:12:39Z</time></trkpt>
<trkpt lat="54.3012690000" lon="-2.1819920000"><ele>260</ele><time>2013-11-17T15:12:42Z</time></trkpt>
<trkpt lat="54.3012860000" lon="-2.1820430000"><ele>260</ele><time>2013-11-17T15:12:45Z</time></trkpt>
<trkpt lat="54.3012980000" lon="-2.1821040000"><ele>260</ele><time>2013-11-17T15:12:57Z</time></trkpt>
<trkpt lat="54.3012970000" lon="-2.1821840000"><ele>260</ele><time>2013-11-17T15:13:00Z</time></trkpt>
<trkpt lat="54.3013010000" lon="-2.1822620000"><ele>260</ele><time>2013-11-17T15:13:03Z</time></trkpt>
<trkpt lat="54.3013140000" lon="-2.1823180000"><ele>260</ele><time>2013-11-17T15:13:05Z</time></trkpt>
<trkpt lat="54.3013290000" lon="-2.1823870000"><ele>260</ele><time>2013-11-17T15:13:09Z</time></trkpt>
<trkpt lat="54.3013440000" lon="-2.1824440000"><ele>260</ele><time>2013-11-17T15:13:11Z</time></trkpt>
<trkpt lat="54.3013570000" lon="-2.1825050000"><ele>260</ele><time>2013-11-17T15:13:15Z</time></trkpt>
<trkpt lat="54.3013670000" lon="-2.1825760000"><ele>260</ele><time>2013-11-17T15:13:18Z</time></trkpt>
<trkpt lat="54.3013810000" lon="-2.1826240000"><ele>260</ele><time>2013-11-17T15:13:20Z</time></trkpt>
<trkpt lat="54.3013950000" lon="-2.1826640000"><ele>260</ele><time>2013-11-17T15:13:22Z</time></trkpt>
<trkpt lat="54.3014080000" lon="-2.1827120000"><ele>260</ele><time>2013-11-17T15:13:23Z</time></trkpt>
<trkpt lat="54.3014200000" lon="-2.1827510000"><ele>260</ele><time>2013-11-17T15:13:26Z</time></trkpt>
<trkpt lat="54.3014340000" lon="-2.1827870000"><ele>260</ele><time>2013-11-17T15:13:28Z</time></trkpt>
<trkpt lat="54.3014480000" lon="-2.1828200000"><ele>260</ele><time>2013-11-17T15:13:29Z</time></trkpt>
<trkpt lat="54.3014620000" lon="-2.1828590000"><ele>261</ele><time>2013-11-17T15:13:32Z</time></trkpt>
<trkpt lat="54.3014710000" lon="-2.1828990000"><ele>261</ele><time>2013-11-17T15:13:34Z</time></trkpt>
<trkpt lat="54.3014800000" lon="-2.1829440000"><ele>261</ele><time>2013-11-17T15:13:36Z</time></trkpt>
<trkpt lat="54.3014920000" lon="-2.1829800000"><ele>261</ele><time>2013-11-17T15:13:38Z</time></trkpt>
<trkpt lat="54.3015120000" lon="-2.1830300000"><ele>261</ele><time>2013-11-17T15:13:41Z</time></trkpt>
<trkpt lat="54.3015250000" lon="-2.1830610000"><ele>261</ele><time>2013-11-17T15:13:42Z</time></trkpt>
<trkpt lat="54.3015370000" lon="-2.1830980000"><ele>261</ele><time>2013-11-17T15:13:45Z</time></trkpt>
<trkpt lat="54.3015490000" lon="-2.1831360000"><ele>261</ele><time>2013-11-17T15:13:47Z</time></trkpt>
<trkpt lat="54.3015580000" lon="-2.1831770000"><ele>261</ele><time>2013-11-17T15:13:48Z</time></trkpt>
<trkpt lat="54.3015700000" lon="-2.1832220000"><ele>261</ele><time>2013-11-17T15:13:51Z</time></trkpt>
<trkpt lat="54.3015840000" lon="-2.1832620000"><ele>261</ele><time>2013-11-17T15:13:53Z</time></trkpt>
<trkpt lat="54.3015980000" lon="-2.1833000000"><ele>261</ele><time>2013-11-17T15:13:54Z</time></trkpt>
<trkpt lat="54.3016070000" lon="-2.1833410000"><ele>261</ele><time>2013-11-17T15:13:57Z</time></trkpt>
<trkpt lat="54.3016160000" lon="-2.1833790000"><ele>261</ele><time>2013-11-17T15:13:59Z</time></trkpt>
<trkpt lat="54.3016190000" lon="-2.1834430000"><ele>261</ele><time>2013-11-17T15:14:05Z</time></trkpt>
<trkpt lat="54.3016190000" lon="-2.1834480000"><ele>261</ele><time>2013-11-17T15:14:06Z</time></trkpt>
<trkpt lat="54.3016190000" lon="-2.1834500000"><ele>261</ele><time>2013-11-17T15:14:07Z</time></trkpt>
<trkpt lat="54.3016170000" lon="-2.1834520000"><ele>261</ele><time>2013-11-17T15:14:08Z</time></trkpt>
<trkpt lat="54.3016160000" lon="-2.1834580000"><ele>261</ele></trkpt>
<trkpt lat="54.3016150000" lon="-2.1834750000"><ele>261</ele><time>2013-11-17T15:14:09Z</time></trkpt>
<trkpt lat="54.3016150000" lon="-2.1834960000"><ele>261</ele><time>2013-11-17T15:14:11Z</time></trkpt>
<trkpt lat="54.3016160000" lon="-2.1835170000"><ele>261</ele><time>2013-11-17T15:14:12Z</time></trkpt>
<trkpt lat="54.3016170000" lon="-2.1835390000"><ele>261</ele><time>2013-11-17T15:14:13Z</time></trkpt>
<trkpt lat="54.3016200000" lon="-2.1835610000"><ele>261</ele><time>2013-11-17T15:14:14Z</time></trkpt>
<trkpt lat="54.3016220000" lon="-2.1835820000"><ele>261</ele></trkpt>
<trkpt lat="54.3016250000" lon="-2.1836010000"><ele>261</ele><time>2013-11-17T15:14:15Z</time></trkpt>
<trkpt lat="54.3016290000" lon="-2.1836210000"><ele>261</ele><time>2013-11-17T15:14:17Z</time></trkpt>
<trkpt lat="54.3016300000" lon="-2.1836420000"><ele>261</ele><time>2013-11-17T15:14:18Z</time></trkpt>
<trkpt lat="54.3016300000" lon="-2.1836650000"><ele>261</ele><time>2013-11-17T15:14:19Z</time></trkpt>
<trkpt lat="54.3016310000" lon="-2.1836870000"><ele>261</ele><time>2013-11-17T15:14:20Z</time></trkpt>
<trkpt lat="54.3016320000" lon="-2.1837090000"><ele>261</ele></trkpt>
<trkpt lat="54.3016350000" lon="-2.1837580000"><ele>261</ele><time>2013-11-17T15:14:22Z</time></trkpt>
<trkpt lat="54.3016360000" lon="-2.1837830000"><ele>261</ele><time>2013-11-17T15:14:24Z</time></trkpt>
<trkpt lat="54.3016360000" lon="-2.1838050000"><ele>261</ele><time>2013-11-17T15:14:25Z</time></trkpt>
<trkpt lat="54.3016370000" lon="-2.1838260000"><ele>261</ele><time>2013-11-17T15:14:26Z</time></trkpt>
<trkpt lat="54.3016380000" lon="-2.1838470000"><ele>261</ele><time>2013-11-17T15:14:27Z</time></trkpt>
<trkpt lat="54.3016400000" lon="-2.1838670000"><ele>261</ele><time>2013-11-17T15:14:28Z</time></trkpt>
<trkpt lat="54.3016410000" lon="-2.1838850000"><ele>261</ele><time>2013-11-17T15:14:29Z</time></trkpt>
<trkpt lat="54.3016420000" lon="-2.1839060000"><ele>261</ele><time>2013-11-17T15:14:30Z</time></trkpt>
<trkpt lat="54.3016430000" lon="-2.1839280000"><ele>261</ele><time>2013-11-17T15:14:31Z</time></trkpt>
<trkpt lat="54.3016430000" lon="-2.1839520000"><ele>261</ele><time>2013-11-17T15:14:32Z</time></trkpt>
<trkpt lat="54.3016430000" lon="-2.1839750000"><ele>261</ele><time>2013-11-17T15:14:33Z</time></trkpt>
<trkpt lat="54.3016440000" lon="-2.1839970000"><ele>261</ele></trkpt>
<trkpt lat="54.3016450000" lon="-2.1840190000"><ele>261</ele><time>2013-11-17T15:14:34Z</time></trkpt>
<trkpt lat="54.3016460000" lon="-2.1840410000"><ele>261</ele><time>2013-11-17T15:14:36Z</time></trkpt>
<trkpt lat="54.3016450000" lon="-2.1840650000"><ele>261</ele><time>2013-11-17T15:14:37Z</time></trkpt>
<trkpt lat="54.3016450000" lon="-2.1840920000"><ele>261</ele><time>2013-11-17T15:14:38Z</time></trkpt>
<trkpt lat="54.3016470000" lon="-2.1841160000"><ele>261</ele><time>2013-11-17T15:14:39Z</time></trkpt>
<trkpt lat="54.3016480000" lon="-2.1841370000"><ele>261</ele><time>2013-11-17T15:14:40Z</time></trkpt>
<trkpt lat="54.3016430000" lon="-2.1841900000"><ele>261</ele><time>2013-11-17T15:14:43Z</time></trkpt>
<trkpt lat="54.3016440000" lon="-2.1842450000"><ele>261</ele><time>2013-11-17T15:14:46Z</time></trkpt>
<trkpt lat="54.3016510000" lon="-2.1842980000"><ele>261</ele><time>2013-11-17T15:14:49Z</time></trkpt>
<trkpt lat="54.3016530000" lon="-2.1843390000"><ele>261</ele><time>2013-11-17T15:14:51Z</time></trkpt>
<trkpt lat="54.3016540000" lon="-2.1843830000"><ele>261</ele><time>2013-11-17T15:14:52Z</time></trkpt>
<trkpt lat="54.3016570000" lon="-2.1844180000"><ele>261</ele><time>2013-11-17T15:14:55Z</time></trkpt>
<trkpt lat="54.3016730000" lon="-2.1844750000"><ele>261</ele><time>2013-11-17T15:15:03Z</time></trkpt>
<trkpt lat="54.3016780000" lon="-2.1845280000"><ele>261</ele><time>2013-11-17T15:15:05Z</time></trkpt>
<trkpt lat="54.3016660000" lon="-2.1845950000"><ele>261</ele><time>2013-11-17T15:15:10Z</time></trkpt>
<trkpt lat="54.3016600000" lon="-2.1846620000"><ele>261</ele><time>2013-11-17T15:15:12Z</time></trkpt>
<trkpt lat="54.3016550000" lon="-2.1847170000"><ele>261</ele><time>2013-11-17T15:15:16Z</time></trkpt>
<trkpt lat="54.3016410000" lon="-2.1847810000"><ele>261</ele><time>2013-11-17T15:15:24Z</time></trkpt>
<trkpt lat="54.3016450000" lon="-2.1848510000"><ele>261</ele><time>2013-11-17T15:15:29Z</time></trkpt>
<trkpt lat="54.3016830000" lon="-2.1849230000"><ele>261</ele><time>2013-11-17T15:15:42Z</time></trkpt>
<trkpt lat="54.3017020000" lon="-2.1850160000"><ele>261</ele><time>2013-11-17T15:15:47Z</time></trkpt>
<trkpt lat="54.3017360000" lon="-2.1850900000"><ele>261</ele><time>2013-11-17T15:15:51Z</time></trkpt>
<trkpt lat="54.3017620000" lon="-2.1851510000"><ele>261</ele><time>2013-11-17T15:15:54Z</time></trkpt>
<trkpt lat="54.3017940000" lon="-2.1852170000"><ele>261</ele><time>2013-11-17T15:15:58Z</time></trkpt>
<trkpt lat="54.3018290000" lon="-2.1852800000"><ele>261</ele><time>2013-11-17T15:16:01Z</time></trkpt>
<trkpt lat="54.3018510000" lon="-2.1853460000"><ele>261</ele><time>2013-11-17T15:16:05Z</time></trkpt>
<trkpt lat="54.3018700000" lon="-2.1854130000"><ele>243</ele><time>2013-11-17T15:16:07Z</time></trkpt>
<trkpt lat="54.3018900000" lon="-2.1854760000"><ele>243</ele><time>2013-11-17T15:16:11Z</time></trkpt>
<trkpt lat="54.3019130000" lon="-2.1855330000"><ele>243</ele><time>2013-11-17T15:16:13Z</time></trkpt>
<trkpt lat="54.3019360000" lon="-2.1855900000"><ele>243</ele><time>2013-11-17T15:16:17Z</time></trkpt>
<trkpt lat="54.3019650000" lon="-2.1856310000"><ele>243</ele><time>2013-11-17T15:16:20Z</time></trkpt>
<trkpt lat="54.3019860000" lon="-2.1856570000"><ele>243</ele><time>2013-11-17T15:16:21Z</time></trkpt>
<trkpt lat="54.3020050000" lon="-2.1856880000"><ele>243</ele><time>2013-11-17T15:16:24Z</time></trkpt>
<trkpt lat="54.3020150000" lon="-2.1857300000"><ele>243</ele><time>2013-11-17T15:16:26Z</time></trkpt>
<trkpt lat="54.3020320000" lon="-2.1857800000"><ele>243</ele><time>2013-11-17T15:16:29Z</time></trkpt>
<trkpt lat="54.3020530000" lon="-2.1858210000"><ele>243</ele><time>2013-11-17T15:16:32Z</time></trkpt>
<trkpt lat="54.3020770000" lon="-2.1858690000"><ele>243</ele><time>2013-11-17T15:16:35Z</time></trkpt>
<trkpt lat="54.3020970000" lon="-2.1859140000"><ele>241</ele><time>2013-11-17T15:16:38Z</time></trkpt>
<trkpt lat="54.3021090000" lon="-2.1859510000"><ele>241</ele><time>2013-11-17T15:16:39Z</time></trkpt>
<trkpt lat="54.3021180000" lon="-2.1859900000"><ele>241</ele><time>2013-11-17T15:16:42Z</time></trkpt>
<trkpt lat="54.3021340000" lon="-2.1860450000"><ele>241</ele><time>2013-11-17T15:16:45Z</time></trkpt>
<trkpt lat="54.3021470000" lon="-2.1860810000"><ele>241</ele><time>2013-11-17T15:16:46Z</time></trkpt>
<trkpt lat="54.3021580000" lon="-2.1861170000"><ele>241</ele><time>2013-11-17T15:16:49Z</time></trkpt>
<trkpt lat="54.3021680000" lon="-2.1861600000"><ele>241</ele><time>2013-11-17T15:16:51Z</time></trkpt>
<trkpt lat="54.3021800000" lon="-2.1862050000"><ele>241</ele><time>2013-11-17T15:16:52Z</time></trkpt>
<trkpt lat="54.3021920000" lon="-2.1862480000"><ele>241</ele><time>2013-11-17T15:16:55Z</time></trkpt>
<trkpt lat="54.3022050000" lon="-2.1862930000"><ele>241</ele><time>2013-11-17T15:16:57Z</time></trkpt>
<trkpt lat="54.3022180000" lon="-2.1863410000"><ele>241</ele><time>2013-11-17T15:16:58Z</time></trkpt>
<trkpt lat="54.3022290000" lon="-2.1863840000"><ele>241</ele><time>2013-11-17T15:17:01Z</time></trkpt>
<trkpt lat="54.3022420000" lon="-2.1864240000"><ele>241</ele><time>2013-11-17T15:17:03Z</time></trkpt>
<trkpt lat="54.3022530000" lon="-2.1864690000"><ele>241</ele><time>2013-11-17T15:17:04Z</time></trkpt>
<trkpt lat="54.3022760000" lon="-2.1865240000"><ele>241</ele><time>2013-11-17T15:17:08Z</time></trkpt>
<trkpt lat="54.3023010000" lon="-2.1865440000"><ele>241</ele><time>2013-11-17T15:17:10Z</time></trkpt>
<trkpt lat="54.3023300000" lon="-2.1865800000"><ele>241</ele><time>2013-11-17T15:17:13Z</time></trkpt>
<trkpt lat="54.3023490000" lon="-2.1866120000"><ele>241</ele><time>2013-11-17T15:17:15Z</time></trkpt>
<trkpt lat="54.3023740000" lon="-2.1866640000"><ele>241</ele><time>2013-11-17T15:17:17Z</time></trkpt>
<trkpt lat="54.3024010000" lon="-2.1867150000"><ele>241</ele><time>2013-11-17T15:17:21Z</time></trkpt>
<trkpt lat="54.3024180000" lon="-2.1867730000"><ele>241</ele><time>2013-11-17T15:17:23Z</time></trkpt>
<trkpt lat="54.3024410000" lon="-2.1868210000"><ele>241</ele><time>2013-11-17T15:17:27Z</time></trkpt>
<trkpt lat="54.3024480000" lon="-2.1868960000"><ele>241</ele><time>2013-11-17T15:17:29Z</time></trkpt>
<trkpt lat="54.3024480000" lon="-2.1869530000"><ele>241</ele><time>2013-11-17T15:17:32Z</time></trkpt>
<trkpt lat="54.3024540000" lon="-2.1870040000"><ele>241</ele><time>2013-11-17T15:17:34Z</time></trkpt>
<trkpt lat="54.3024570000" lon="-2.1870600000"><ele>241</ele><time>2013-11-17T15:17:35Z</time></trkpt>
<trkpt lat="54.3024620000" lon="-2.1871140000"><ele>241</ele><time>2013-11-17T15:17:38Z</time></trkpt>
<trkpt lat="54.3024680000" lon="-2.1871630000"><ele>241</ele><time>2013-11-17T15:17:40Z</time></trkpt>
<trkpt lat="54.3024780000" lon="-2.1872090000"><ele>241</ele><time>2013-11-17T15:17:41Z</time></trkpt>
<trkpt lat="54.3024870000" lon="-2.1872530000"><ele>241</ele><time>2013-11-17T15:17:44Z</time></trkpt>
<trkpt lat="54.3024960000" lon="-2.1872850000"><ele>241</ele><time>2013-11-17T15:17:45Z</time></trkpt>
<trkpt lat="54.3025010000" lon="-2.1873030000"><ele>241</ele><time>2013-11-17T15:17:46Z</time></trkpt>
<trkpt lat="54.3025080000" lon="-2.1873170000"><ele>241</ele><time>2013-11-17T15:17:47Z</time></trkpt>
<trkpt lat="54.3025140000" lon="-2.1873280000"><ele>241</ele></trkpt>
<trkpt lat="54.3025200000" lon="-2.1873400000"><ele>241</ele><time>2013-11-17T15:17:48Z</time></trkpt>
<trkpt lat="54.3025260000" lon="-2.1873510000"><ele>241</ele><time>2013-11-17T15:17:50Z</time></trkpt>
<trkpt lat="54.3025320000" lon="-2.1873600000"><ele>241</ele><time>2013-11-17T15:17:51Z</time></trkpt>
<trkpt lat="54.3025410000" lon="-2.1873690000"><ele>241</ele><time>2013-11-17T15:17:52Z</time></trkpt>
<trkpt lat="54.3025500000" lon="-2.1873790000"><ele>241</ele><time>2013-11-17T15:17:53Z</time></trkpt>
<trkpt lat="54.3025580000" lon="-2.1873870000"><ele>241</ele></trkpt>
<trkpt lat="54.3025630000" lon="-2.1873950000"><ele>241</ele><time>2013-11-17T15:17:54Z</time></trkpt>
<trkpt lat="54.3025650000" lon="-2.1874030000"><ele>241</ele><time>2013-11-17T15:17:56Z</time></trkpt>
<trkpt lat="54.3025640000" lon="-2.1874110000"><ele>241</ele><time>2013-11-17T15:17:57Z</time></trkpt>
<trkpt lat="54.3025630000" lon="-2.1874170000"><ele>241</ele><time>2013-11-17T15:17:58Z</time></trkpt>
<trkpt lat="54.3025630000" lon="-2.1874240000"><ele>241</ele><time>2013-11-17T15:17:59Z</time></trkpt>
<trkpt lat="54.3025630000" lon="-2.1874300000"><ele>241</ele></trkpt>
<trkpt lat="54.3025640000" lon="-2.1874370000"><ele>241</ele><time>2013-11-17T15:18:00Z</time></trkpt>
<trkpt lat="54.3025660000" lon="-2.1874440000"><ele>241</ele><time>2013-11-17T15:18:02Z</time></trkpt>
<trkpt lat="54.3025680000" lon="-2.1874470000"><ele>241</ele><time>2013-11-17T15:18:03Z</time></trkpt>
<trkpt lat="54.3025680000" lon="-2.1874500000"><ele>241</ele><time>2013-11-17T15:18:04Z</time></trkpt>
<trkpt lat="54.3025680000" lon="-2.1874510000"><ele>241</ele><time>2013-11-17T15:18:05Z</time></trkpt>
<trkpt lat="54.3025680000" lon="-2.1874570000"><ele>241</ele></trkpt>
<trkpt lat="54.3025700000" lon="-2.1874690000"><ele>241</ele><time>2013-11-17T15:18:07Z</time></trkpt>
<trkpt lat="54.3025720000" lon="-2.1874860000"><ele>241</ele><time>2013-11-17T15:18:08Z</time></trkpt>
<trkpt lat="54.3025750000" lon="-2.1875050000"><ele>241</ele><time>2013-11-17T15:18:09Z</time></trkpt>
<trkpt lat="54.3025770000" lon="-2.1875200000"><ele>241</ele><time>2013-11-17T15:18:10Z</time></trkpt>
<trkpt lat="54.3025750000" lon="-2.1875350000"><ele>241</ele><time>2013-11-17T15:18:11Z</time></trkpt>
<trkpt lat="54.3025730000" lon="-2.1875490000"><ele>241</ele><time>2013-11-17T15:18:12Z</time></trkpt>
<trkpt lat="54.3025740000" lon="-2.1875630000"><ele>241</ele></trkpt>
<trkpt lat="54.3025740000" lon="-2.1875780000"><ele>241</ele><time>2013-11-17T15:18:13Z</time></trkpt>
<trkpt lat="54.3025750000" lon="-2.1875960000"><ele>241</ele><time>2013-11-17T15:18:15Z</time></trkpt>
<trkpt lat="54.3025760000" lon="-2.1876190000"><ele>241</ele><time>2013-11-17T15:18:16Z</time></trkpt>
<trkpt lat="54.3025770000" lon="-2.1876410000"><ele>241</ele><time>2013-11-17T15:18:17Z</time></trkpt>
<trkpt lat="54.3025790000" lon="-2.1876630000"><ele>241</ele><time>2013-11-17T15:18:18Z</time></trkpt>
<trkpt lat="54.3025810000" lon="-2.1876850000"><ele>241</ele></trkpt>
<trkpt lat="54.3025830000" lon="-2.1877070000"><ele>241</ele><time>2013-11-17T15:18:19Z</time></trkpt>
<trkpt lat="54.3025840000" lon="-2.1877320000"><ele>241</ele><time>2013-11-17T15:18:21Z</time></trkpt>
<trkpt lat="54.3025840000" lon="-2.1877560000"><ele>241</ele><time>2013-11-17T15:18:22Z</time></trkpt>
<trkpt lat="54.3025840000" lon="-2.1877810000"><ele>241</ele><time>2013-11-17T15:18:23Z</time></trkpt>
<trkpt lat="54.3025860000" lon="-2.1878040000"><ele>241</ele><time>2013-11-17T15:18:24Z</time></trkpt>
<trkpt lat="54.3025860000" lon="-2.1878280000"><ele>241</ele></trkpt>
<trkpt lat="54.3025870000" lon="-2.1878530000"><ele>241</ele><time>2013-11-17T15:18:25Z</time></trkpt>
<trkpt lat="54.3025890000" lon="-2.1878750000"><ele>241</ele><time>2013-11-17T15:18:27Z</time></trkpt>
<trkpt lat="54.3025900000" lon="-2.1878980000"><ele>241</ele><time>2013-11-17T15:18:28Z</time></trkpt>
<trkpt lat="54.3025920000" lon="-2.1879200000"><ele>241</ele><time>2013-11-17T15:18:29Z</time></trkpt>
<trkpt lat="54.3025940000" lon="-2.1879430000"><ele>241</ele><time>2013-11-17T15:18:30Z</time></trkpt>
<trkpt lat="54.3025950000" lon="-2.1879670000"><ele>241</ele></trkpt>
<trkpt lat="54.3025960000" lon="-2.1879920000"><ele>241</ele><time>2013-11-17T15:18:31Z</time></trkpt>
<trkpt lat="54.3025970000" lon="-2.1880190000"><ele>241</ele><time>2013-11-17T15:18:33Z</time></trkpt>
<trkpt lat="54.3026000000" lon="-2.1880440000"><ele>241</ele><time>2013-11-17T15:18:34Z</time></trkpt>
<trkpt lat="54.3026030000" lon="-2.1880690000"><ele>241</ele><time>2013-11-17T15:18:35Z</time></trkpt>
<trkpt lat="54.3026060000" lon="-2.1880940000"><ele>241</ele><time>2013-11-17T15:18:36Z</time></trkpt>
<trkpt lat="54.3026110000" lon="-2.1881170000"><ele>241</ele></trkpt>
<trkpt lat="54.3026180000" lon="-2.1881360000"><ele>241</ele><time>2013-11-17T15:18:37Z</time></trkpt>
<trkpt lat="54.3026240000" lon="-2.1881530000"><ele>241</ele><time>2013-11-17T15:18:39Z</time></trkpt>
<trkpt lat="54.3026280000" lon="-2.1881710000"><ele>241</ele><time>2013-11-17T15:18:40Z</time></trkpt>
<trkpt lat="54.3026290000" lon="-2.1881920000"><ele>241</ele><time>2013-11-17T15:18:41Z</time></trkpt>
<trkpt lat="54.3026320000" lon="-2.1882130000"><ele>241</ele><time>2013-11-17T15:18:42Z</time></trkpt>
<trkpt lat="54.3026330000" lon="-2.1882370000"><ele>241</ele><time>2013-11-17T15:18:43Z</time></trkpt>
<trkpt lat="54.3026340000" lon="-2.1882630000"><ele>241</ele></trkpt>
<trkpt lat="54.3026360000" lon="-2.1882880000"><ele>241</ele><time>2013-11-17T15:18:44Z</time></trkpt>
<trkpt lat="54.3026390000" lon="-2.1883130000"><ele>241</ele><time>2013-11-17T15:18:46Z</time></trkpt>
<trkpt lat="54.3026440000" lon="-2.1883350000"><ele>241</ele><time>2013-11-17T15:18:47Z</time></trkpt>
<trkpt lat="54.3026480000" lon="-2.1883560000"><ele>241</ele><time>2013-11-17T15:18:48Z</time></trkpt>
<trkpt lat="54.3026500000" lon="-2.1883800000"><ele>241</ele><time>2013-11-17T15:18:49Z</time></trkpt>
<trkpt lat="54.3026530000" lon="-2.1884030000"><ele>241</ele></trkpt>
<trkpt lat="54.3026550000" lon="-2.1884280000"><ele>241</ele><time>2013-11-17T15:18:50Z</time></trkpt>
<trkpt lat="54.3026580000" lon="-2.1884520000"><ele>241</ele><time>2013-11-17T15:18:52Z</time></trkpt>
<trkpt lat="54.3026620000" lon="-2.1884760000"><ele>241</ele><time>2013-11-17T15:18:53Z</time></trkpt>
<trkpt lat="54.3026650000" lon="-2.1884990000"><ele>241</ele><time>2013-11-17T15:18:54Z</time></trkpt>
<trkpt lat="54.3026690000" lon="-2.1885240000"><ele>241</ele><time>2013-11-17T15:18:55Z</time></trkpt>
<trkpt lat="54.3026710000" lon="-2.1885510000"><ele>241</ele></trkpt>
<trkpt lat="54.3026730000" lon="-2.1885770000"><ele>241</ele><time>2013-11-17T15:18:56Z</time></trkpt>
<trkpt lat="54.3026770000" lon="-2.1885990000"><ele>241</ele><time>2013-11-17T15:18:58Z</time></trkpt>
<trkpt lat="54.3026810000" lon="-2.1886210000"><ele>241</ele><time>2013-11-17T15:18:59Z</time></trkpt>
<trkpt lat="54.3026850000" lon="-2.1886430000"><ele>241</ele><time>2013-11-17T15:19:00Z</time></trkpt>
<trkpt lat="54.3026900000" lon="-2.1886640000"><ele>241</ele><time>2013-11-17T15:19:01Z</time></trkpt>
<trkpt lat="54.3026950000" lon="-2.1886880000"><ele>241</ele></trkpt>
<trkpt lat="54.3026990000" lon="-2.1887090000"><ele>241</ele><time>2013-11-17T15:19:02Z</time></trkpt>
<trkpt lat="54.3027030000" lon="-2.1887280000"><ele>241</ele><time>2013-11-17T15:19:04Z</time></trkpt>
<trkpt lat="54.3027070000" lon="-2.1887490000"><ele>241</ele><time>2013-11-17T15:19:05Z</time></trkpt>
<trkpt lat="54.3027120000" lon="-2.1887690000"><ele>241</ele><time>2013-11-17T15:19:06Z</time></trkpt>
<trkpt lat="54.3027160000" lon="-2.1887880000"><ele>241</ele><time>2013-11-17T15:19:07Z</time></trkpt>
<trkpt lat="54.3027200000" lon="-2.1888080000"><ele>241</ele></trkpt>
<trkpt lat="54.3027240000" lon="-2.1888280000"><ele>241</ele><time>2013-11-17T15:19:08Z</time></trkpt>
<trkpt lat="54.3027280000" lon="-2.1888470000"><ele>241</ele><time>2013-11-17T15:19:10Z</time></trkpt>
<trkpt lat="54.3027320000" lon="-2.1888680000"><ele>241</ele><time>2013-11-17T15:19:11Z</time></trkpt>
<trkpt lat="54.3027340000" lon="-2.1888870000"><ele>241</ele><time>2013-11-17T15:19:12Z</time></trkpt>
<trkpt lat="54.3027360000" lon="-2.1889080000"><ele>241</ele><time>2013-11-17T15:19:13Z</time></trkpt>
<trkpt lat="54.3027390000" lon="-2.1889290000"><ele>241</ele><time>2013-11-17T15:19:14Z</time></trkpt>
<trkpt lat="54.3027410000" lon="-2.1889520000"><ele>241</ele></trkpt>
<trkpt lat="54.3027410000" lon="-2.1889760000"><ele>241</ele><time>2013-11-17T15:19:16Z</time></trkpt>
<trkpt lat="54.3027410000" lon="-2.1890030000"><ele>242</ele><time>2013-11-17T15:19:17Z</time></trkpt>
<trkpt lat="54.3027430000" lon="-2.1890300000"><ele>242</ele><time>2013-11-17T15:19:18Z</time></trkpt>
<trkpt lat="54.3027460000" lon="-2.1890550000"><ele>242</ele><time>2013-11-17T15:19:19Z</time></trkpt>
<trkpt lat="54.3027470000" lon="-2.1890780000"><ele>242</ele><time>2013-11-17T15:19:20Z</time></trkpt>
<trkpt lat="54.3027490000" lon="-2.1891030000"><ele>242</ele></trkpt>
<trkpt lat="54.3027510000" lon="-2.1891290000"><ele>242</ele><time>2013-11-17T15:19:21Z</time></trkpt>
<trkpt lat="54.3027530000" lon="-2.1891530000"><ele>242</ele><time>2013-11-17T15:19:23Z</time></trkpt>
<trkpt lat="54.3027560000" lon="-2.1891760000"><ele>242</ele><time>2013-11-17T15:19:24Z</time></trkpt>
<trkpt lat="54.3027570000" lon="-2.1892010000"><ele>242</ele><time>2013-11-17T15:19:25Z</time></trkpt>
<trkpt lat="54.3027600000" lon="-2.1892240000"><ele>242</ele><time>2013-11-17T15:19:26Z</time></trkpt>
<trkpt lat="54.3027620000" lon="-2.1892470000"><ele>242</ele></trkpt>
<trkpt lat="54.3027650000" lon="-2.1892720000"><ele>242</ele><time>2013-11-17T15:19:27Z</time></trkpt>
<trkpt lat="54.3027680000" lon="-2.1892990000"><ele>242</ele><time>2013-11-17T15:19:29Z</time></trkpt>
<trkpt lat="54.3027720000" lon="-2.1893240000"><ele>242</ele><time>2013-11-17T15:19:30Z</time></trkpt>
<trkpt lat="54.3027750000" lon="-2.1893490000"><ele>242</ele><time>2013-11-17T15:19:31Z</time></trkpt>
<trkpt lat="54.3027790000" lon="-2.1893760000"><ele>242</ele><time>2013-11-17T15:19:32Z</time></trkpt>
<trkpt lat="54.3027840000" lon="-2.1893990000"><ele>242</ele></trkpt>
<trkpt lat="54.3027900000" lon="-2.1894190000"><ele>242</ele><time>2013-11-17T15:19:33Z</time></trkpt>
<trkpt lat="54.3027970000" lon="-2.1894400000"><ele>242</ele><time>2013-11-17T15:19:35Z</time></trkpt>
<trkpt lat="54.3028040000" lon="-2.1894600000"><ele>242</ele><time>2013-11-17T15:19:36Z</time></trkpt>
<trkpt lat="54.3028110000" lon="-2.1894790000"><ele>242</ele><time>2013-11-17T15:19:37Z</time></trkpt>
<trkpt lat="54.3028170000" lon="-2.1894980000"><ele>242</ele><time>2013-11-17T15:19:38Z</time></trkpt>
<trkpt lat="54.3028230000" lon="-2.1895180000"><ele>242</ele></trkpt>
<trkpt lat="54.3028290000" lon="-2.1895390000"><ele>242</ele><time>2013-11-17T15:19:39Z</time></trkpt>
<trkpt lat="54.3028350000" lon="-2.1895600000"><ele>242</ele><time>2013-11-17T15:19:41Z</time></trkpt>
<trkpt lat="54.3028410000" lon="-2.1895800000"><ele>242</ele><time>2013-11-17T15:19:42Z</time></trkpt>
<trkpt lat="54.3028470000" lon="-2.1896010000"><ele>242</ele><time>2013-11-17T15:19:43Z</time></trkpt>
<trkpt lat="54.3028530000" lon="-2.1896250000"><ele>242</ele><time>2013-11-17T15:19:44Z</time></trkpt>
<trkpt lat="54.3028580000" lon="-2.1896480000"><ele>242</ele></trkpt>
<trkpt lat="54.3028630000" lon="-2.1896740000"><ele>242</ele><time>2013-11-17T15:19:45Z</time></trkpt>
<trkpt lat="54.3028660000" lon="-2.1897030000"><ele>242</ele><time>2013-11-17T15:19:47Z</time></trkpt>
<trkpt lat="54.3028810000" lon="-2.1897460000"><ele>242</ele><time>2013-11-17T15:19:49Z</time></trkpt>
<trkpt lat="54.3028870000" lon="-2.1897690000"><ele>242</ele><time>2013-11-17T15:19:50Z</time></trkpt>
<trkpt lat="54.3028930000" lon="-2.1897910000"><ele>242</ele><time>2013-11-17T15:19:51Z</time></trkpt>
<trkpt lat="54.3028990000" lon="-2.1898130000"><ele>242</ele></trkpt>
<trkpt lat="54.3029040000" lon="-2.1898380000"><ele>242</ele><time>2013-11-17T15:19:52Z</time></trkpt>
<trkpt lat="54.3029060000" lon="-2.1898630000"><ele>242</ele><time>2013-11-17T15:19:54Z</time></trkpt>
<trkpt lat="54.3029110000" lon="-2.1898860000"><ele>242</ele><time>2013-11-17T15:19:55Z</time></trkpt>
<trkpt lat="54.3029150000" lon="-2.1899090000"><ele>242</ele><time>2013-11-17T15:19:56Z</time></trkpt>
<trkpt lat="54.3029200000" lon="-2.1899300000"><ele>242</ele><time>2013-11-17T15:19:57Z</time></trkpt>
<trkpt lat="54.3029270000" lon="-2.1899500000"><ele>242</ele></trkpt>
<trkpt lat="54.3029330000" lon="-2.1899730000"><ele>242</ele><time>2013-11-17T15:19:58Z</time></trkpt>
<trkpt lat="54.3029400000" lon="-2.1899940000"><ele>242</ele><time>2013-11-17T15:20:00Z</time></trkpt>
<trkpt lat="54.3029460000" lon="-2.1900130000"><ele>242</ele><time>2013-11-17T15:20:01Z</time></trkpt>
<trkpt lat="54.3029510000" lon="-2.1900350000"><ele>242</ele><time>2013-11-17T15:20:02Z</time></trkpt>
<trkpt lat="54.3029570000" lon="-2.1900570000"><ele>242</ele><time>2013-11-17T15:20:03Z</time></trkpt>
<trkpt lat="54.3029630000" lon="-2.1900770000"><ele>242</ele></trkpt>
<trkpt lat="54.3029700000" lon="-2.1900980000"><ele>242</ele><time>2013-11-17T15:20:04Z</time></trkpt>
<trkpt lat="54.3029770000" lon="-2.1901190000"><ele>242</ele><time>2013-11-17T15:20:06Z</time></trkpt>
<trkpt lat="54.3029840000" lon="-2.1901400000"><ele>242</ele><time>2013-11-17T15:20:07Z</time></trkpt>
<trkpt lat="54.3029900000" lon="-2.1901610000"><ele>242</ele><time>2013-11-17T15:20:08Z</time></trkpt>
<trkpt lat="54.3029950000" lon="-2.1901830000"><ele>242</ele><time>2013-11-17T15:20:09Z</time></trkpt>
<trkpt lat="54.3030000000" lon="-2.1902070000"><ele>242</ele></trkpt>
<trkpt lat="54.3030060000" lon="-2.1902280000"><ele>242</ele><time>2013-11-17T15:20:10Z</time></trkpt>
<trkpt lat="54.3030130000" lon="-2.1902460000"><ele>242</ele><time>2013-11-17T15:20:12Z</time></trkpt>
<trkpt lat="54.3030220000" lon="-2.1902560000"><ele>242</ele><time>2013-11-17T15:20:13Z</time></trkpt>
<trkpt lat="54.3030300000" lon="-2.1902610000"><ele>242</ele><time>2013-11-17T15:20:14Z</time></trkpt>
<trkpt lat="54.3030390000" lon="-2.1902690000"><ele>242</ele><time>2013-11-17T15:20:15Z</time></trkpt>
<trkpt lat="54.3030490000" lon="-2.1902850000"><ele>242</ele></trkpt>
<trkpt lat="54.3030590000" lon="-2.1903060000"><ele>242</ele><time>2013-11-17T15:20:16Z</time></trkpt>
<trkpt lat="54.3030680000" lon="-2.1903250000"><ele>242</ele><time>2013-11-17T15:20:18Z</time></trkpt>
<trkpt lat="54.3030790000" lon="-2.1903550000"><ele>242</ele><time>2013-11-17T15:20:20Z</time></trkpt>
<trkpt lat="54.3030910000" lon="-2.1903900000"><ele>242</ele><time>2013-11-17T15:20:22Z</time></trkpt>
<trkpt lat="54.3031020000" lon="-2.1904290000"><ele>242</ele><time>2013-11-17T15:20:23Z</time></trkpt>
<trkpt lat="54.3031210000" lon="-2.1904980000"><ele>242</ele><time>2013-11-17T15:20:28Z</time></trkpt>
<trkpt lat="54.3031360000" lon="-2.1905360000"><ele>242</ele><time>2013-11-17T15:20:29Z</time></trkpt>
<trkpt lat="54.3031530000" lon="-2.1905740000"><ele>242</ele><time>2013-11-17T15:20:32Z</time></trkpt>
<trkpt lat="54.3031670000" lon="-2.1906100000"><ele>242</ele><time>2013-11-17T15:20:34Z</time></trkpt>
<trkpt lat="54.3031760000" lon="-2.1906530000"><ele>242</ele><time>2013-11-17T15:20:35Z</time></trkpt>
<trkpt lat="54.3031850000" lon="-2.1906950000"><ele>242</ele><time>2013-11-17T15:20:38Z</time></trkpt>
<trkpt lat="54.3031960000" lon="-2.1907380000"><ele>242</ele><time>2013-11-17T15:20:40Z</time></trkpt>
<trkpt lat="54.3032080000" lon="-2.1907860000"><ele>242</ele><time>2013-11-17T15:20:41Z</time></trkpt>
<trkpt lat="54.3032200000" lon="-2.1908330000"><ele>242</ele><time>2013-11-17T15:20:44Z</time></trkpt>
<trkpt lat="54.3032350000" lon="-2.1908810000"><ele>242</ele><time>2013-11-17T15:20:46Z</time></trkpt>
<trkpt lat="54.3032480000" lon="-2.1909290000"><ele>242</ele><time>2013-11-17T15:20:47Z</time></trkpt>
<trkpt lat="54.3032630000" lon="-2.1909750000"><ele>242</ele><time>2013-11-17T15:20:50Z</time></trkpt>
<trkpt lat="54.3032760000" lon="-2.1910150000"><ele>242</ele><time>2013-11-17T15:20:52Z</time></trkpt>
<trkpt lat="54.3032880000" lon="-2.1910570000"><ele>242</ele><time>2013-11-17T15:20:53Z</time></trkpt>
<trkpt lat="54.3033030000" lon="-2.1910960000"><ele>242</ele><time>2013-11-17T15:20:56Z</time></trkpt>
<trkpt lat="54.3033240000" lon="-2.1911300000"><ele>242</ele><time>2013-11-17T15:20:58Z</time></trkpt>
<trkpt lat="54.3033400000" lon="-2.1911660000"><ele>242</ele><time>2013-11-17T15:20:59Z</time></trkpt>
<trkpt lat="54.3033490000" lon="-2.1912060000"><ele>242</ele><time>2013-11-17T15:21:02Z</time></trkpt>
<trkpt lat="54.3033600000" lon="-2.1912510000"><ele>242</ele><time>2013-11-17T15:21:04Z</time></trkpt>
<trkpt lat="54.3033760000" lon="-2.1912960000"><ele>242</ele><time>2013-11-17T15:21:05Z</time></trkpt>
<trkpt lat="54.3033900000" lon="-2.1913430000"><ele>242</ele><time>2013-11-17T15:21:08Z</time></trkpt>
<trkpt lat="54.3034040000" lon="-2.1913930000"><ele>242</ele><time>2013-11-17T15:21:10Z</time></trkpt>
<trkpt lat="54.3034220000" lon="-2.1914430000"><ele>242</ele><time>2013-11-17T15:21:11Z</time></trkpt>
<trkpt lat="54.3034280000" lon="-2.1914630000"><ele>242</ele><time>2013-11-17T15:21:12Z</time></trkpt>
<trkpt lat="54.3034310000" lon="-2.1914860000"><ele>242</ele><time>2013-11-17T15:21:14Z</time></trkpt>
<trkpt lat="54.3034340000" lon="-2.1915100000"><ele>242</ele><time>2013-11-17T15:21:15Z</time></trkpt>
<trkpt lat="54.3034370000" lon="-2.1915330000"><ele>242</ele><time>2013-11-17T15:21:16Z</time></trkpt>
<trkpt lat="54.3034400000" lon="-2.1915540000"><ele>242</ele><time>2013-11-17T15:21:17Z</time></trkpt>
<trkpt lat="54.3034440000" lon="-2.1915760000"><ele>242</ele></trkpt>
<trkpt lat="54.3034500000" lon="-2.1915970000"><ele>242</ele><time>2013-11-17T15:21:18Z</time></trkpt>
<trkpt lat="54.3034540000" lon="-2.1916210000"><ele>242</ele><time>2013-11-17T15:21:20Z</time></trkpt>
<trkpt lat="54.3034580000" lon="-2.1916470000"><ele>242</ele><time>2013-11-17T15:21:21Z</time></trkpt>
<trkpt lat="54.3034610000" lon="-2.1916680000"><ele>242</ele><time>2013-11-17T15:21:22Z</time></trkpt>
<trkpt lat="54.3034640000" lon="-2.1916870000"><ele>242</ele><time>2013-11-17T15:21:23Z</time></trkpt>
<trkpt lat="54.3034660000" lon="-2.1917110000"><ele>242</ele><time>2013-11-17T15:21:24Z</time></trkpt>
<trkpt lat="54.3034680000" lon="-2.1917340000"><ele>242</ele></trkpt>
<trkpt lat="54.3034710000" lon="-2.1917570000"><ele>242</ele><time>2013-11-17T15:21:25Z</time></trkpt>
<trkpt lat="54.3034720000" lon="-2.1917820000"><ele>242</ele><time>2013-11-17T15:21:27Z</time></trkpt>
<trkpt lat="54.3034740000" lon="-2.1918070000"><ele>242</ele><time>2013-11-17T15:21:28Z</time></trkpt>
<trkpt lat="54.3034770000" lon="-2.1918310000"><ele>242</ele><time>2013-11-17T15:21:29Z</time></trkpt>
<trkpt lat="54.3034780000" lon="-2.1918530000"><ele>242</ele><time>2013-11-17T15:21:30Z</time></trkpt>
<trkpt lat="54.3034810000" lon="-2.1918730000"><ele>242</ele></trkpt>
<trkpt lat="54.3034840000" lon="-2.1918940000"><ele>242</ele><time>2013-11-17T15:21:31Z</time></trkpt>
<trkpt lat="54.3034880000" lon="-2.1919170000"><ele>242</ele><time>2013-11-17T15:21:33Z</time></trkpt>
<trkpt lat="54.3034920000" lon="-2.1919400000"><ele>242</ele><time>2013-11-17T15:21:34Z</time></trkpt>
<trkpt lat="54.3034940000" lon="-2.1919640000"><ele>242</ele><time>2013-11-17T15:21:35Z</time></trkpt>
<trkpt lat="54.3034960000" lon="-2.1919880000"><ele>242</ele><time>2013-11-17T15:21:36Z</time></trkpt>
<trkpt lat="54.3034980000" lon="-2.1920120000"><ele>242</ele></trkpt>
<trkpt lat="54.3035000000" lon="-2.1920360000"><ele>242</ele><time>2013-11-17T15:21:37Z</time></trkpt>
<trkpt lat="54.3035030000" lon="-2.1920600000"><ele>242</ele><time>2013-11-17T15:21:39Z</time></trkpt>
<trkpt lat="54.3035060000" lon="-2.1920850000"><ele>243</ele><time>2013-11-17T15:21:40Z</time></trkpt>
<trkpt lat="54.3035090000" lon="-2.1921090000"><ele>243</ele><time>2013-11-17T15:21:41Z</time></trkpt>
<trkpt lat="54.3035150000" lon="-2.1921320000"><ele>243</ele><time>2013-11-17T15:21:42Z</time></trkpt>
<trkpt lat="54.3035190000" lon="-2.1921550000"><ele>243</ele></trkpt>
<trkpt lat="54.3035230000" lon="-2.1921780000"><ele>243</ele><time>2013-11-17T15:21:43Z</time></trkpt>
<trkpt lat="54.3035270000" lon="-2.1922010000"><ele>243</ele><time>2013-11-17T15:21:45Z</time></trkpt>
<trkpt lat="54.3035310000" lon="-2.1922240000"><ele>243</ele><time>2013-11-17T15:21:46Z</time></trkpt>
<trkpt lat="54.3035350000" lon="-2.1922480000"><ele>243</ele><time>2013-11-17T15:21:47Z</time></trkpt>
<trkpt lat="54.3035390000" lon="-2.1922710000"><ele>243</ele><time>2013-11-17T15:21:48Z</time></trkpt>
<trkpt lat="54.3035420000" lon="-2.1922940000"><ele>243</ele></trkpt>
<trkpt lat="54.3035460000" lon="-2.1923190000"><ele>243</ele><time>2013-11-17T15:21:49Z</time></trkpt>
<trkpt lat="54.3035500000" lon="-2.1923450000"><ele>243</ele><time>2013-11-17T15:21:51Z</time></trkpt>
<trkpt lat="54.3035540000" lon="-2.1923710000"><ele>243</ele><time>2013-11-17T15:21:52Z</time></trkpt>
<trkpt lat="54.3035590000" lon="-2.1923930000"><ele>243</ele><time>2013-11-17T15:21:53Z</time></trkpt>
<trkpt lat="54.3035640000" lon="-2.1924170000"><ele>243</ele><time>2013-11-17T15:21:54Z</time></trkpt>
<trkpt lat="54.3035680000" lon="-2.1924390000"><ele>243</ele><time>2013-11-17T15:21:55Z</time></trkpt>
<trkpt lat="54.3035730000" lon="-2.1924600000"><ele>243</ele></trkpt>
<trkpt lat="54.3035770000" lon="-2.1924810000"><ele>243</ele><time>2013-11-17T15:21:56Z</time></trkpt>
<trkpt lat="54.3035820000" lon="-2.1925020000"><ele>243</ele><time>2013-11-17T15:21:58Z</time></trkpt>
<trkpt lat="54.3035890000" lon="-2.1925220000"><ele>243</ele><time>2013-11-17T15:21:59Z</time></trkpt>
<trkpt lat="54.3035960000" lon="-2.1925410000"><ele>243</ele><time>2013-11-17T15:22:00Z</time></trkpt>
<trkpt lat="54.3036060000" lon="-2.1925740000"><ele>243</ele><time>2013-11-17T15:22:01Z</time></trkpt>
<trkpt lat="54.3036140000" lon="-2.1926320000"><ele>243</ele><time>2013-11-17T15:22:04Z</time></trkpt>
<trkpt lat="54.3036170000" lon="-2.1926540000"><ele>243</ele><time>2013-11-17T15:22:05Z</time></trkpt>
<trkpt lat="54.3036190000" lon="-2.1926760000"><ele>243</ele><time>2013-11-17T15:22:06Z</time></trkpt>
<trkpt lat="54.3036210000" lon="-2.1927000000"><ele>243</ele><time>2013-11-17T15:22:07Z</time></trkpt>
<trkpt lat="54.3036240000" lon="-2.1927230000"><ele>243</ele></trkpt>
<trkpt lat="54.3036300000" lon="-2.1927420000"><ele>243</ele><time>2013-11-17T15:22:08Z</time></trkpt>
<trkpt lat="54.3036350000" lon="-2.1927630000"><ele>243</ele><time>2013-11-17T15:22:10Z</time></trkpt>
<trkpt lat="54.3036360000" lon="-2.1927910000"><ele>243</ele><time>2013-11-17T15:22:11Z</time></trkpt>
<trkpt lat="54.3036360000" lon="-2.1928220000"><ele>243</ele><time>2013-11-17T15:22:12Z</time></trkpt>
<trkpt lat="54.3036360000" lon="-2.1928500000"><ele>243</ele><time>2013-11-17T15:22:13Z</time></trkpt>
<trkpt lat="54.3036370000" lon="-2.1928770000"><ele>243</ele></trkpt>
<trkpt lat="54.3036390000" lon="-2.1929020000"><ele>243</ele><time>2013-11-17T15:22:14Z</time></trkpt>
<trkpt lat="54.3036430000" lon="-2.1929290000"><ele>243</ele><time>2013-11-17T15:22:16Z</time></trkpt>
<trkpt lat="54.3036470000" lon="-2.1929550000"><ele>243</ele><time>2013-11-17T15:22:17Z</time></trkpt>
<trkpt lat="54.3036520000" lon="-2.1929790000"><ele>231</ele><time>2013-11-17T15:22:18Z</time></trkpt>
<trkpt lat="54.3036550000" lon="-2.1930020000"><ele>231</ele><time>2013-11-17T15:22:19Z</time></trkpt>
<trkpt lat="54.3036590000" lon="-2.1930250000"><ele>231</ele></trkpt>
<trkpt lat="54.3036640000" lon="-2.1930450000"><ele>231</ele><time>2013-11-17T15:22:20Z</time></trkpt>
<trkpt lat="54.3036710000" lon="-2.1930620000"><ele>231</ele><time>2013-11-17T15:22:22Z</time></trkpt>
<trkpt lat="54.3036770000" lon="-2.1930830000"><ele>231</ele><time>2013-11-17T15:22:23Z</time></trkpt>
<trkpt lat="54.3036840000" lon="-2.1931060000"><ele>231</ele><time>2013-11-17T15:22:24Z</time></trkpt>
<trkpt lat="54.3036900000" lon="-2.1931260000"><ele>231</ele><time>2013-11-17T15:22:25Z</time></trkpt>
<trkpt lat="54.3036940000" lon="-2.1931480000"><ele>231</ele></trkpt>
<trkpt lat="54.3036960000" lon="-2.1931710000"><ele>231</ele><time>2013-11-17T15:22:26Z</time></trkpt>
<trkpt lat="54.3036980000" lon="-2.1931920000"><ele>231</ele><time>2013-11-17T15:22:27Z</time></trkpt>
<trkpt lat="54.3037010000" lon="-2.1932120000"><ele>231</ele><time>2013-11-17T15:22:29Z</time></trkpt>
<trkpt lat="54.3037030000" lon="-2.1932340000"><ele>231</ele><time>2013-11-17T15:22:30Z</time></trkpt>
<trkpt lat="54.3037040000" lon="-2.1932590000"><ele>231</ele><time>2013-11-17T15:22:31Z</time></trkpt>
<trkpt lat="54.3037050000" lon="-2.1932820000"><ele>231</ele><time>2013-11-17T15:22:32Z</time></trkpt>
<trkpt lat="54.3037070000" lon="-2.1933040000"><ele>231</ele></trkpt>
<trkpt lat="54.3037110000" lon="-2.1933250000"><ele>231</ele><time>2013-11-17T15:22:33Z</time></trkpt>
<trkpt lat="54.3037160000" lon="-2.1933470000"><ele>231</ele><time>2013-11-17T15:22:35Z</time></trkpt>
<trkpt lat="54.3037200000" lon="-2.1933690000"><ele>231</ele><time>2013-11-17T15:22:36Z</time></trkpt>
<trkpt lat="54.3037260000" lon="-2.1933890000"><ele>231</ele><time>2013-11-17T15:22:37Z</time></trkpt>
<trkpt lat="54.3037350000" lon="-2.1934090000"><ele>231</ele><time>2013-11-17T15:22:38Z</time></trkpt>
<trkpt lat="54.3037430000" lon="-2.1934290000"><ele>231</ele></trkpt>
<trkpt lat="54.3037510000" lon="-2.1934480000"><ele>231</ele><time>2013-11-17T15:22:39Z</time></trkpt>
<trkpt lat="54.3037570000" lon="-2.1934680000"><ele>231</ele><time>2013-11-17T15:22:41Z</time></trkpt>
<trkpt lat="54.3037620000" lon="-2.1934900000"><ele>231</ele><time>2013-11-17T15:22:42Z</time></trkpt>
<trkpt lat="54.3037680000" lon="-2.1935080000"><ele>231</ele><time>2013-11-17T15:22:43Z</time></trkpt>
<trkpt lat="54.3037760000" lon="-2.1935220000"><ele>231</ele><time>2013-11-17T15:22:44Z</time></trkpt>
<trkpt lat="54.3037840000" lon="-2.1935370000"><ele>231</ele></trkpt>
<trkpt lat="54.3037930000" lon="-2.1935500000"><ele>231</ele><time>2013-11-17T15:22:45Z</time></trkpt>
<trkpt lat="54.3038030000" lon="-2.1935600000"><ele>231</ele><time>2013-11-17T15:22:47Z</time></trkpt>
<trkpt lat="54.3038140000" lon="-2.1935670000"><ele>231</ele><time>2013-11-17T15:22:48Z</time></trkpt>
<trkpt lat="54.3038230000" lon="-2.1935740000"><ele>231</ele><time>2013-11-17T15:22:49Z</time></trkpt>
<trkpt lat="54.3038330000" lon="-2.1935800000"><ele>231</ele><time>2013-11-17T15:22:50Z</time></trkpt>
<trkpt lat="54.3038450000" lon="-2.1935830000"><ele>231</ele></trkpt>
<trkpt lat="54.3038580000" lon="-2.1935870000"><ele>231</ele><time>2013-11-17T15:22:51Z</time></trkpt>
<trkpt lat="54.3038700000" lon="-2.1935890000"><ele>231</ele><time>2013-11-17T15:22:53Z</time></trkpt>
<trkpt lat="54.3038810000" lon="-2.1935840000"><ele>231</ele><time>2013-11-17T15:22:54Z</time></trkpt>
<trkpt lat="54.3038920000" lon="-2.1935800000"><ele>231</ele><time>2013-11-17T15:22:55Z</time></trkpt>
<trkpt lat="54.3039030000" lon="-2.1935780000"><ele>231</ele><time>2013-11-17T15:22:56Z</time></trkpt>
<trkpt lat="54.3039150000" lon="-2.1935780000"><ele>231</ele></trkpt>
<trkpt lat="54.3039240000" lon="-2.1935760000"><ele>231</ele><time>2013-11-17T15:22:57Z</time></trkpt>
<trkpt lat="54.3039370000" lon="-2.1935720000"><ele>231</ele><time>2013-11-17T15:22:58Z</time></trkpt>
<trkpt lat="54.3039480000" lon="-2.1935650000"><ele>231</ele><time>2013-11-17T15:23:00Z</time></trkpt>
<trkpt lat="54.3039580000" lon="-2.1935600000"><ele>231</ele><time>2013-11-17T15:23:01Z</time></trkpt>
<trkpt lat="54.3039680000" lon="-2.1935560000"><ele>231</ele><time>2013-11-17T15:23:02Z</time></trkpt>
<trkpt lat="54.3039790000" lon="-2.1935500000"><ele>231</ele><time>2013-11-17T15:23:03Z</time></trkpt>
<trkpt lat="54.3039900000" lon="-2.1935420000"><ele>231</ele></trkpt>
<trkpt lat="54.3039980000" lon="-2.1935320000"><ele>231</ele><time>2013-11-17T15:23:04Z</time></trkpt>
<trkpt lat="54.3040070000" lon="-2.1935190000"><ele>231</ele><time>2013-11-17T15:23:06Z</time></trkpt>
<trkpt lat="54.3040180000" lon="-2.1935070000"><ele>231</ele><time>2013-11-17T15:23:07Z</time></trkpt>
<trkpt lat="54.3040350000" lon="-2.1934830000"><ele>231</ele><time>2013-11-17T15:23:09Z</time></trkpt>
<trkpt lat="54.3040620000" lon="-2.1934440000"><ele>231</ele><time>2013-11-17T15:23:12Z</time></trkpt>
<trkpt lat="54.3040900000" lon="-2.1934300000"><ele>231</ele><time>2013-11-17T15:23:14Z</time></trkpt>
<trkpt lat="54.3041130000" lon="-2.1934210000"><ele>231</ele><time>2013-11-17T15:23:15Z</time></trkpt>
<trkpt lat="54.3041260000" lon="-2.1934160000"><ele>231</ele></trkpt>
<trkpt lat="54.3041400000" lon="-2.1934110000"><ele>231</ele><time>2013-11-17T15:23:16Z</time></trkpt>
<trkpt lat="54.3041560000" lon="-2.1934060000"><ele>231</ele><time>2013-11-17T15:23:18Z</time></trkpt>
<trkpt lat="54.3041730000" lon="-2.1934010000"><ele>231</ele><time>2013-11-17T15:23:19Z</time></trkpt>
<trkpt lat="54.3041900000" lon="-2.1933960000"><ele>231</ele><time>2013-11-17T15:23:20Z</time></trkpt>
<trkpt lat="54.3042050000" lon="-2.1933900000"><ele>231</ele><time>2013-11-17T15:23:21Z</time></trkpt>
<trkpt lat="54.3042200000" lon="-2.1933850000"><ele>231</ele></trkpt>
<trkpt lat="54.3042340000" lon="-2.1933790000"><ele>231</ele><time>2013-11-17T15:23:22Z</time></trkpt>
<trkpt lat="54.3042470000" lon="-2.1933740000"><ele>231</ele><time>2013-11-17T15:23:24Z</time></trkpt>
<trkpt lat="54.3042580000" lon="-2.1933680000"><ele>231</ele><time>2013-11-17T15:23:25Z</time></trkpt>
<trkpt lat="54.3042690000" lon="-2.1933580000"><ele>231</ele><time>2013-11-17T15:23:26Z</time></trkpt>
<trkpt lat="54.3042800000" lon="-2.1933470000"><ele>231</ele><time>2013-11-17T15:23:27Z</time></trkpt>
<trkpt lat="54.3042910000" lon="-2.1933350000"><ele>231</ele><time>2013-11-17T15:23:28Z</time></trkpt>
<trkpt lat="54.3043030000" lon="-2.1933230000"><ele>231</ele></trkpt>
<trkpt lat="54.3043150000" lon="-2.1933110000"><ele>231</ele><time>2013-11-17T15:23:29Z</time></trkpt>
<trkpt lat="54.3043270000" lon="-2.1933010000"><ele>231</ele><time>2013-11-17T15:23:31Z</time></trkpt>
<trkpt lat="54.3043380000" lon="-2.1932930000"><ele>231</ele><time>2013-11-17T15:23:32Z</time></trkpt>
<trkpt lat="54.3043470000" lon="-2.1932860000"><ele>231</ele><time>2013-11-17T15:23:33Z</time></trkpt>
<trkpt lat="54.3043550000" lon="-2.1932730000"><ele>231</ele><time>2013-11-17T15:23:34Z</time></trkpt>
<trkpt lat="54.3043630000" lon="-2.1932600000"><ele>231</ele></trkpt>
<trkpt lat="54.3043720000" lon="-2.1932460000"><ele>231</ele><time>2013-11-17T15:23:35Z</time></trkpt>
<trkpt lat="54.3043790000" lon="-2.1932310000"><ele>231</ele><time>2013-11-17T15:23:37Z</time></trkpt>
<trkpt lat="54.3043860000" lon="-2.1932150000"><ele>231</ele><time>2013-11-17T15:23:38Z</time></trkpt>
<trkpt lat="54.3043940000" lon="-2.1932010000"><ele>231</ele><time>2013-11-17T15:23:39Z</time></trkpt>
<trkpt lat="54.3044020000" lon="-2.1931870000"><ele>231</ele><time>2013-11-17T15:23:40Z</time></trkpt>
<trkpt lat="54.3044110000" lon="-2.1931740000"><ele>231</ele></trkpt>
<trkpt lat="54.3044230000" lon="-2.1931650000"><ele>231</ele><time>2013-11-17T15:23:42Z</time></trkpt>
<trkpt lat="54.3044350000" lon="-2.1931600000"><ele>231</ele><time>2013-11-17T15:23:43Z</time></trkpt>
<trkpt lat="54.3044460000" lon="-2.1931570000"><ele>231</ele><time>2013-11-17T15:23:44Z</time></trkpt>
<trkpt lat="54.3044680000" lon="-2.1931530000"><ele>231</ele><time>2013-11-17T15:23:46Z</time></trkpt>
<trkpt lat="54.3044770000" lon="-2.1931510000"><ele>231</ele></trkpt>
<trkpt lat="54.3044840000" lon="-2.1931490000"><ele>231</ele><time>2013-11-17T15:23:47Z</time></trkpt>
<trkpt lat="54.3044900000" lon="-2.1931450000"><ele>231</ele><time>2013-11-17T15:23:48Z</time></trkpt>
<trkpt lat="54.3044970000" lon="-2.1931430000"><ele>231</ele><time>2013-11-17T15:23:50Z</time></trkpt>
<trkpt lat="54.3045050000" lon="-2.1931390000"><ele>231</ele><time>2013-11-17T15:23:51Z</time></trkpt>
</trkseg>
</trk>
</gpx>